<?xml version='1.0' encoding='UTF-8'?><gpx version="1.1" creator="JPX - https://github.com/jenetics/jpx" xmlns="http://www.topografix.com/GPX/1/1"><trk><trkseg><trkpt lat="43.666885" lon="10.6495983"><ele>14.000000000000002</ele><time>2026-04-04T08:08:13.335Z</time></trkpt><trkpt lat="43.666845" lon="10.6496683"><ele>14.0</ele><time>2026-04-04T08:08:15.335Z</time></trkpt><trkpt lat="43.6668183" lon="10.6498417"><ele>14.0</ele><time>2026-04-04T08:08:17.335Z</time></trkpt><trkpt lat="43.6668117" lon="10.6499283"><ele>14.0</ele><time>2026-04-04T08:08:18.336Z</time></trkpt><trkpt lat="43.666815" lon="10.6500233"><ele>14.000000000000002</ele><time>2026-04-04T08:08:19.335Z</time></trkpt><trkpt lat="43.66681" lon="10.6501283"><ele>14.0</ele><time>2026-04-04T08:08:20.335Z</time></trkpt><trkpt lat="43.6668017" lon="10.650225"><ele>14.0</ele><time>2026-04-04T08:08:21.335Z</time></trkpt><trkpt lat="43.666795" lon="10.650385"><ele>13.999999999999998</ele><time>2026-04-04T08:08:23.335Z</time></trkpt><trkpt lat="43.666785" lon="10.650545"><ele>13.999999999999998</ele><time>2026-04-04T08:08:25.336Z</time></trkpt><trkpt lat="43.6667533" lon="10.6506917"><ele>14.0</ele><time>2026-04-04T08:08:27.335Z</time></trkpt><trkpt lat="43.6666883" lon="10.6507883"><ele>14.0</ele><time>2026-04-04T08:08:29.335Z</time></trkpt><trkpt lat="43.6666033" lon="10.6507967"><ele>14.0</ele><time>2026-04-04T08:08:31.336Z</time></trkpt><trkpt lat="43.66654" lon="10.650885"><ele>13.999999999999998</ele><time>2026-04-04T08:08:36.336Z</time></trkpt><trkpt lat="43.6665283" lon="10.65101"><ele>13.999999999999998</ele><time>2026-04-04T08:08:37.335Z</time></trkpt><trkpt lat="43.6665167" lon="10.65116"><ele>14.0</ele><time>2026-04-04T08:08:38.335Z</time></trkpt><trkpt lat="43.6665083" lon="10.65133"><ele>14.0</ele><time>2026-04-04T08:08:39.336Z</time></trkpt><trkpt lat="43.66649" lon="10.651505"><ele>13.75</ele><time>2026-04-04T08:08:40.336Z</time></trkpt><trkpt lat="43.6664633" lon="10.6516667"><ele>13.5</ele><time>2026-04-04T08:08:41.335Z</time></trkpt><trkpt lat="43.6664367" lon="10.6518333"><ele>13.25</ele><time>2026-04-04T08:08:42.336Z</time></trkpt><trkpt lat="43.6664083" lon="10.6519933"><ele>13.0</ele><time>2026-04-04T08:08:43.336Z</time></trkpt><trkpt lat="43.6663617" lon="10.6521567"><ele>13.0</ele><time>2026-04-04T08:08:44.334Z</time></trkpt><trkpt lat="43.6663183" lon="10.6523117"><ele>13.0</ele><time>2026-04-04T08:08:45.335Z</time></trkpt><trkpt lat="43.6662733" lon="10.6524733"><ele>13.0</ele><time>2026-04-04T08:08:46.335Z</time></trkpt><trkpt lat="43.66622" lon="10.6526433"><ele>13.0</ele><time>2026-04-04T08:08:47.335Z</time></trkpt><trkpt lat="43.6661833" lon="10.6528133"><ele>13.25</ele><time>2026-04-04T08:08:48.334Z</time></trkpt><trkpt lat="43.66613" lon="10.6529717"><ele>13.5</ele><time>2026-04-04T08:08:49.335Z</time></trkpt><trkpt lat="43.6660917" lon="10.6531417"><ele>13.75</ele><time>2026-04-04T08:08:50.334Z</time></trkpt><trkpt lat="43.6660683" lon="10.6533167"><ele>14.0</ele><time>2026-04-04T08:08:51.334Z</time></trkpt><trkpt lat="43.6660667" lon="10.6535067"><ele>13.666666666666668</ele><time>2026-04-04T08:08:52.334Z</time></trkpt><trkpt lat="43.66607" lon="10.6537033"><ele>13.333333333333332</ele><time>2026-04-04T08:08:53.334Z</time></trkpt><trkpt lat="43.6660833" lon="10.6539283"><ele>13.0</ele><time>2026-04-04T08:08:54.335Z</time></trkpt><trkpt lat="43.6660917" lon="10.65414"><ele>13.0</ele><time>2026-04-04T08:08:55.334Z</time></trkpt><trkpt lat="43.6660967" lon="10.6543233"><ele>13.0</ele><time>2026-04-04T08:08:56.335Z</time></trkpt><trkpt lat="43.6661017" lon="10.6544933"><ele>13.0</ele><time>2026-04-04T08:08:57.334Z</time></trkpt><trkpt lat="43.66611" lon="10.6546517"><ele>13.0</ele><time>2026-04-04T08:08:58.334Z</time></trkpt><trkpt lat="43.6661183" lon="10.6548"><ele>13.0</ele><time>2026-04-04T08:08:59.334Z</time></trkpt><trkpt lat="43.6661183" lon="10.6549433"><ele>13.0</ele><time>2026-04-04T08:09:00.334Z</time></trkpt><trkpt lat="43.6661117" lon="10.6550867"><ele>13.0</ele><time>2026-04-04T08:09:01.335Z</time></trkpt><trkpt lat="43.6660867" lon="10.6552267"><ele>13.0</ele><time>2026-04-04T08:09:02.335Z</time></trkpt><trkpt lat="43.6660433" lon="10.655345"><ele>13.0</ele><time>2026-04-04T08:09:03.334Z</time></trkpt><trkpt lat="43.66598" lon="10.6554617"><ele>13.2</ele><time>2026-04-04T08:09:04.334Z</time></trkpt><trkpt lat="43.6658983" lon="10.6555583"><ele>13.4</ele><time>2026-04-04T08:09:05.334Z</time></trkpt><trkpt lat="43.6658" lon="10.6556183"><ele>13.599999999999998</ele><time>2026-04-04T08:09:06.335Z</time></trkpt><trkpt lat="43.6656967" lon="10.65567"><ele>13.799999999999999</ele><time>2026-04-04T08:09:07.335Z</time></trkpt><trkpt lat="43.6655967" lon="10.6557483"><ele>14.0</ele><time>2026-04-04T08:09:08.334Z</time></trkpt><trkpt lat="43.6654983" lon="10.65586"><ele>14.0</ele><time>2026-04-04T08:09:09.334Z</time></trkpt><trkpt lat="43.6654183" lon="10.6560167"><ele>14.0</ele><time>2026-04-04T08:09:10.334Z</time></trkpt><trkpt lat="43.6653617" lon="10.656205"><ele>14.0</ele><time>2026-04-04T08:09:11.334Z</time></trkpt><trkpt lat="43.6653167" lon="10.65641"><ele>14.0</ele><time>2026-04-04T08:09:12.334Z</time></trkpt><trkpt lat="43.66528" lon="10.6566217"><ele>14.0</ele><time>2026-04-04T08:09:13.334Z</time></trkpt><trkpt lat="43.6652367" lon="10.6568367"><ele>14.0</ele><time>2026-04-04T08:09:14.334Z</time></trkpt><trkpt lat="43.6652017" lon="10.657035"><ele>14.0</ele><time>2026-04-04T08:09:15.334Z</time></trkpt><trkpt lat="43.6651583" lon="10.6572083"><ele>14.0</ele><time>2026-04-04T08:09:16.334Z</time></trkpt><trkpt lat="43.6651133" lon="10.6573617"><ele>14.0</ele><time>2026-04-04T08:09:17.334Z</time></trkpt><trkpt lat="43.6650767" lon="10.6575183"><ele>13.999999999999998</ele><time>2026-04-04T08:09:18.334Z</time></trkpt><trkpt lat="43.6650333" lon="10.6576633"><ele>13.999999999999998</ele><time>2026-04-04T08:09:19.334Z</time></trkpt><trkpt lat="43.6649883" lon="10.657795"><ele>14.0</ele><time>2026-04-04T08:09:20.334Z</time></trkpt><trkpt lat="43.6649467" lon="10.65788"><ele>14.0</ele><time>2026-04-04T08:09:21.334Z</time></trkpt><trkpt lat="43.6648833" lon="10.6578917"><ele>14.0</ele><time>2026-04-04T08:09:23.335Z</time></trkpt><trkpt lat="43.6647717" lon="10.6578517"><ele>13.999999999999998</ele><time>2026-04-04T08:09:25.334Z</time></trkpt><trkpt lat="43.6646933" lon="10.6578467"><ele>13.999999999999998</ele><time>2026-04-04T08:09:26.334Z</time></trkpt><trkpt lat="43.6646" lon="10.6578483"><ele>14.0</ele><time>2026-04-04T08:09:27.334Z</time></trkpt><trkpt lat="43.66449" lon="10.65786"><ele>14.0</ele><time>2026-04-04T08:09:28.334Z</time></trkpt><trkpt lat="43.6643567" lon="10.6578333"><ele>14.25</ele><time>2026-04-04T08:09:29.334Z</time></trkpt><trkpt lat="43.6642233" lon="10.6577767"><ele>14.5</ele><time>2026-04-04T08:09:30.334Z</time></trkpt><trkpt lat="43.6640783" lon="10.6576983"><ele>14.75</ele><time>2026-04-04T08:09:31.335Z</time></trkpt><trkpt lat="43.6639517" lon="10.6576383"><ele>15.0</ele><time>2026-04-04T08:09:32.334Z</time></trkpt><trkpt lat="43.663815" lon="10.65759"><ele>15.0</ele><time>2026-04-04T08:09:33.334Z</time></trkpt><trkpt lat="43.6636717" lon="10.65755"><ele>15.0</ele><time>2026-04-04T08:09:34.335Z</time></trkpt><trkpt lat="43.6635133" lon="10.6575083"><ele>15.0</ele><time>2026-04-04T08:09:35.334Z</time></trkpt><trkpt lat="43.6633667" lon="10.65749"><ele>14.666666666666668</ele><time>2026-04-04T08:09:36.334Z</time></trkpt><trkpt lat="43.6632117" lon="10.6574667"><ele>14.333333333333334</ele><time>2026-04-04T08:09:37.334Z</time></trkpt><trkpt lat="43.6630567" lon="10.6574733"><ele>14.0</ele><time>2026-04-04T08:09:38.334Z</time></trkpt><trkpt lat="43.662895" lon="10.6574733"><ele>13.666666666666668</ele><time>2026-04-04T08:09:39.334Z</time></trkpt><trkpt lat="43.66273" lon="10.65748"><ele>13.333333333333332</ele><time>2026-04-04T08:09:40.334Z</time></trkpt><trkpt lat="43.6625483" lon="10.6575017"><ele>13.0</ele><time>2026-04-04T08:09:41.334Z</time></trkpt><trkpt lat="43.6623683" lon="10.6575083"><ele>13.0</ele><time>2026-04-04T08:09:42.334Z</time></trkpt><trkpt lat="43.6621883" lon="10.6575183"><ele>13.0</ele><time>2026-04-04T08:09:43.334Z</time></trkpt><trkpt lat="43.6620033" lon="10.65753"><ele>13.0</ele><time>2026-04-04T08:09:44.334Z</time></trkpt><trkpt lat="43.661825" lon="10.6575267"><ele>13.0</ele><time>2026-04-04T08:09:45.334Z</time></trkpt><trkpt lat="43.6616333" lon="10.657525"><ele>13.0</ele><time>2026-04-04T08:09:46.334Z</time></trkpt><trkpt lat="43.66144" lon="10.6575283"><ele>13.0</ele><time>2026-04-04T08:09:47.335Z</time></trkpt><trkpt lat="43.661265" lon="10.65754"><ele>13.0</ele><time>2026-04-04T08:09:48.335Z</time></trkpt><trkpt lat="43.66108" lon="10.65756"><ele>13.0</ele><time>2026-04-04T08:09:49.334Z</time></trkpt><trkpt lat="43.660895" lon="10.657575"><ele>13.0</ele><time>2026-04-04T08:09:50.334Z</time></trkpt><trkpt lat="43.6607133" lon="10.6575917"><ele>13.0</ele><time>2026-04-04T08:09:51.334Z</time></trkpt><trkpt lat="43.66054" lon="10.6576083"><ele>13.0</ele><time>2026-04-04T08:09:52.334Z</time></trkpt><trkpt lat="43.6603533" lon="10.6576233"><ele>13.0</ele><time>2026-04-04T08:09:53.334Z</time></trkpt><trkpt lat="43.660185" lon="10.6576517"><ele>13.0</ele><time>2026-04-04T08:09:54.334Z</time></trkpt><trkpt lat="43.6600083" lon="10.657665"><ele>13.0</ele><time>2026-04-04T08:09:55.335Z</time></trkpt><trkpt lat="43.659835" lon="10.6576883"><ele>13.0</ele><time>2026-04-04T08:09:56.334Z</time></trkpt><trkpt lat="43.6596667" lon="10.6576917"><ele>13.0</ele><time>2026-04-04T08:09:57.334Z</time></trkpt><trkpt lat="43.6594967" lon="10.6577017"><ele>13.0</ele><time>2026-04-04T08:09:58.335Z</time></trkpt><trkpt lat="43.6593217" lon="10.6577033"><ele>13.0</ele><time>2026-04-04T08:09:59.334Z</time></trkpt><trkpt lat="43.65915" lon="10.6577017"><ele>13.666666666666666</ele><time>2026-04-04T08:10:00.334Z</time></trkpt><trkpt lat="43.6589767" lon="10.657715"><ele>14.333333333333332</ele><time>2026-04-04T08:10:01.334Z</time></trkpt><trkpt lat="43.6588067" lon="10.65773"><ele>15.0</ele><time>2026-04-04T08:10:02.334Z</time></trkpt><trkpt lat="43.65864" lon="10.657735"><ele>15.0</ele><time>2026-04-04T08:10:03.335Z</time></trkpt><trkpt lat="43.6584683" lon="10.6577433"><ele>15.0</ele><time>2026-04-04T08:10:04.334Z</time></trkpt><trkpt lat="43.6583033" lon="10.657755"><ele>15.0</ele><time>2026-04-04T08:10:05.334Z</time></trkpt><trkpt lat="43.6581367" lon="10.6577683"><ele>15.0</ele><time>2026-04-04T08:10:06.334Z</time></trkpt><trkpt lat="43.6579717" lon="10.6577767"><ele>15.0</ele><time>2026-04-04T08:10:07.334Z</time></trkpt><trkpt lat="43.657805" lon="10.6577833"><ele>15.0</ele><time>2026-04-04T08:10:08.334Z</time></trkpt><trkpt lat="43.65763" lon="10.657795"><ele>15.333333333333332</ele><time>2026-04-04T08:10:09.335Z</time></trkpt><trkpt lat="43.6574617" lon="10.6577967"><ele>15.666666666666666</ele><time>2026-04-04T08:10:10.334Z</time></trkpt><trkpt lat="43.6573017" lon="10.6577967"><ele>16.0</ele><time>2026-04-04T08:10:11.334Z</time></trkpt><trkpt lat="43.6571467" lon="10.6578"><ele>16.0</ele><time>2026-04-04T08:10:12.335Z</time></trkpt><trkpt lat="43.6569883" lon="10.6577933"><ele>16.0</ele><time>2026-04-04T08:10:13.334Z</time></trkpt><trkpt lat="43.6568367" lon="10.6577717"><ele>16.0</ele><time>2026-04-04T08:10:14.335Z</time></trkpt><trkpt lat="43.6566717" lon="10.6577383"><ele>16.0</ele><time>2026-04-04T08:10:15.334Z</time></trkpt><trkpt lat="43.6565083" lon="10.6577"><ele>16.0</ele><time>2026-04-04T08:10:16.335Z</time></trkpt><trkpt lat="43.6563583" lon="10.6576517"><ele>16.0</ele><time>2026-04-04T08:10:17.334Z</time></trkpt><trkpt lat="43.6562133" lon="10.6575783"><ele>15.666666666666666</ele><time>2026-04-04T08:10:18.334Z</time></trkpt><trkpt lat="43.6560717" lon="10.6574867"><ele>15.333333333333332</ele><time>2026-04-04T08:10:19.334Z</time></trkpt><trkpt lat="43.6559267" lon="10.6573833"><ele>15.0</ele><time>2026-04-04T08:10:20.334Z</time></trkpt><trkpt lat="43.6558083" lon="10.6572717"><ele>15.0</ele><time>2026-04-04T08:10:21.334Z</time></trkpt><trkpt lat="43.6556983" lon="10.6571533"><ele>15.0</ele><time>2026-04-04T08:10:22.334Z</time></trkpt><trkpt lat="43.6555933" lon="10.6570383"><ele>15.0</ele><time>2026-04-04T08:10:23.334Z</time></trkpt><trkpt lat="43.65549" lon="10.6569383"><ele>15.0</ele><time>2026-04-04T08:10:24.334Z</time></trkpt><trkpt lat="43.655395" lon="10.6568083"><ele>15.0</ele><time>2026-04-04T08:10:25.334Z</time></trkpt><trkpt lat="43.6553067" lon="10.656695"><ele>15.0</ele><time>2026-04-04T08:10:26.334Z</time></trkpt><trkpt lat="43.65524" lon="10.65656"><ele>15.0</ele><time>2026-04-04T08:10:27.334Z</time></trkpt><trkpt lat="43.6551567" lon="10.65646"><ele>15.0</ele><time>2026-04-04T08:10:28.334Z</time></trkpt><trkpt lat="43.6550833" lon="10.65637"><ele>15.0</ele><time>2026-04-04T08:10:29.334Z</time></trkpt><trkpt lat="43.6550233" lon="10.6562833"><ele>15.0</ele><time>2026-04-04T08:10:30.334Z</time></trkpt><trkpt lat="43.654985" lon="10.6561967"><ele>15.0</ele><time>2026-04-04T08:10:31.334Z</time></trkpt><trkpt lat="43.6549383" lon="10.656045"><ele>15.0</ele><time>2026-04-04T08:10:33.334Z</time></trkpt><trkpt lat="43.65492" lon="10.65596"><ele>15.0</ele><time>2026-04-04T08:10:34.334Z</time></trkpt><trkpt lat="43.6549067" lon="10.6558467"><ele>15.0</ele><time>2026-04-04T08:10:35.334Z</time></trkpt><trkpt lat="43.654895" lon="10.6557283"><ele>15.0</ele><time>2026-04-04T08:10:36.334Z</time></trkpt><trkpt lat="43.6548783" lon="10.6556183"><ele>15.0</ele><time>2026-04-04T08:10:37.334Z</time></trkpt><trkpt lat="43.65484" lon="10.6554883"><ele>15.0</ele><time>2026-04-04T08:10:38.334Z</time></trkpt><trkpt lat="43.6547817" lon="10.6553667"><ele>15.0</ele><time>2026-04-04T08:10:39.335Z</time></trkpt><trkpt lat="43.654705" lon="10.6552583"><ele>15.0</ele><time>2026-04-04T08:10:40.335Z</time></trkpt><trkpt lat="43.654625" lon="10.65516"><ele>15.0</ele><time>2026-04-04T08:10:41.334Z</time></trkpt><trkpt lat="43.6545433" lon="10.6550783"><ele>15.0</ele><time>2026-04-04T08:10:42.334Z</time></trkpt><trkpt lat="43.65446" lon="10.655005"><ele>15.0</ele><time>2026-04-04T08:10:43.334Z</time></trkpt><trkpt lat="43.6543667" lon="10.654965"><ele>15.0</ele><time>2026-04-04T08:10:44.334Z</time></trkpt><trkpt lat="43.6542633" lon="10.6549533"><ele>15.0</ele><time>2026-04-04T08:10:45.335Z</time></trkpt><trkpt lat="43.654155" lon="10.6549883"><ele>15.0</ele><time>2026-04-04T08:10:46.335Z</time></trkpt><trkpt lat="43.65405" lon="10.6550633"><ele>15.0</ele><time>2026-04-04T08:10:47.335Z</time></trkpt><trkpt lat="43.6539367" lon="10.6551317"><ele>15.0</ele><time>2026-04-04T08:10:48.334Z</time></trkpt><trkpt lat="43.6538067" lon="10.6551983"><ele>15.0</ele><time>2026-04-04T08:10:49.335Z</time></trkpt><trkpt lat="43.6536733" lon="10.6552"><ele>15.0</ele><time>2026-04-04T08:10:50.334Z</time></trkpt><trkpt lat="43.6535183" lon="10.6551733"><ele>16.333333333333332</ele><time>2026-04-04T08:10:51.334Z</time></trkpt><trkpt lat="43.6533633" lon="10.6551317"><ele>17.666666666666664</ele><time>2026-04-04T08:10:52.334Z</time></trkpt><trkpt lat="43.6531983" lon="10.655105"><ele>19.0</ele><time>2026-04-04T08:10:53.334Z</time></trkpt><trkpt lat="43.6530283" lon="10.6550883"><ele>19.0</ele><time>2026-04-04T08:10:54.334Z</time></trkpt><trkpt lat="43.6528533" lon="10.655095"><ele>19.0</ele><time>2026-04-04T08:10:55.334Z</time></trkpt><trkpt lat="43.65267" lon="10.6551117"><ele>19.0</ele><time>2026-04-04T08:10:56.334Z</time></trkpt><trkpt lat="43.6524983" lon="10.6551633"><ele>20.0</ele><time>2026-04-04T08:10:57.334Z</time></trkpt><trkpt lat="43.6523233" lon="10.655235"><ele>21.0</ele><time>2026-04-04T08:10:58.334Z</time></trkpt><trkpt lat="43.652145" lon="10.6553117"><ele>22.0</ele><time>2026-04-04T08:10:59.334Z</time></trkpt><trkpt lat="43.65198" lon="10.6554"><ele>23.333333333333332</ele><time>2026-04-04T08:11:00.334Z</time></trkpt><trkpt lat="43.651805" lon="10.6554783"><ele>24.666666666666664</ele><time>2026-04-04T08:11:01.334Z</time></trkpt><trkpt lat="43.65163" lon="10.6555717"><ele>26.0</ele><time>2026-04-04T08:11:02.335Z</time></trkpt><trkpt lat="43.651475" lon="10.655665"><ele>26.0</ele><time>2026-04-04T08:11:03.334Z</time></trkpt><trkpt lat="43.6512817" lon="10.65574"><ele>26.0</ele><time>2026-04-04T08:11:04.334Z</time></trkpt><trkpt lat="43.6511083" lon="10.6558233"><ele>26.0</ele><time>2026-04-04T08:11:05.334Z</time></trkpt><trkpt lat="43.6509467" lon="10.6559"><ele>26.666666666666664</ele><time>2026-04-04T08:11:06.334Z</time></trkpt><trkpt lat="43.6507967" lon="10.6559683"><ele>27.333333333333336</ele><time>2026-04-04T08:11:07.334Z</time></trkpt><trkpt lat="43.6506483" lon="10.6560233"><ele>28.0</ele><time>2026-04-04T08:11:08.334Z</time></trkpt><trkpt lat="43.6504967" lon="10.6560633"><ele>28.0</ele><time>2026-04-04T08:11:09.334Z</time></trkpt><trkpt lat="43.65033" lon="10.656105"><ele>28.0</ele><time>2026-04-04T08:11:10.335Z</time></trkpt><trkpt lat="43.6501633" lon="10.65612"><ele>28.0</ele><time>2026-04-04T08:11:11.334Z</time></trkpt><trkpt lat="43.64999" lon="10.65613"><ele>28.0</ele><time>2026-04-04T08:11:12.335Z</time></trkpt><trkpt lat="43.649805" lon="10.6561233"><ele>28.0</ele><time>2026-04-04T08:11:13.334Z</time></trkpt><trkpt lat="43.64961" lon="10.6561133"><ele>28.0</ele><time>2026-04-04T08:11:14.334Z</time></trkpt><trkpt lat="43.6494117" lon="10.65608"><ele>28.0</ele><time>2026-04-04T08:11:15.334Z</time></trkpt><trkpt lat="43.649215" lon="10.65606"><ele>28.0</ele><time>2026-04-04T08:11:16.334Z</time></trkpt><trkpt lat="43.6490133" lon="10.65603"><ele>28.0</ele><time>2026-04-04T08:11:17.334Z</time></trkpt><trkpt lat="43.64881" lon="10.655995"><ele>29.0</ele><time>2026-04-04T08:11:18.334Z</time></trkpt><trkpt lat="43.64861" lon="10.6559533"><ele>30.0</ele><time>2026-04-04T08:11:19.334Z</time></trkpt><trkpt lat="43.6484233" lon="10.6559083"><ele>31.0</ele><time>2026-04-04T08:11:20.334Z</time></trkpt><trkpt lat="43.64825" lon="10.655855"><ele>31.0</ele><time>2026-04-04T08:11:21.334Z</time></trkpt><trkpt lat="43.6480783" lon="10.655805"><ele>31.0</ele><time>2026-04-04T08:11:22.335Z</time></trkpt><trkpt lat="43.64791" lon="10.6557333"><ele>31.0</ele><time>2026-04-04T08:11:23.335Z</time></trkpt><trkpt lat="43.647745" lon="10.6556533"><ele>31.0</ele><time>2026-04-04T08:11:24.334Z</time></trkpt><trkpt lat="43.6475833" lon="10.6555583"><ele>31.0</ele><time>2026-04-04T08:11:25.334Z</time></trkpt><trkpt lat="43.6474267" lon="10.6554467"><ele>31.0</ele><time>2026-04-04T08:11:26.334Z</time></trkpt><trkpt lat="43.6472717" lon="10.6553233"><ele>31.333333333333336</ele><time>2026-04-04T08:11:27.335Z</time></trkpt><trkpt lat="43.6471233" lon="10.65519"><ele>31.666666666666664</ele><time>2026-04-04T08:11:28.334Z</time></trkpt><trkpt lat="43.6469867" lon="10.6550367"><ele>32.0</ele><time>2026-04-04T08:11:29.335Z</time></trkpt><trkpt lat="43.6468583" lon="10.6548783"><ele>31.333333333333332</ele><time>2026-04-04T08:11:30.334Z</time></trkpt><trkpt lat="43.6467333" lon="10.6547133"><ele>30.666666666666664</ele><time>2026-04-04T08:11:31.334Z</time></trkpt><trkpt lat="43.646615" lon="10.6545433"><ele>30.0</ele><time>2026-04-04T08:11:32.334Z</time></trkpt><trkpt lat="43.6464967" lon="10.6543617"><ele>28.666666666666664</ele><time>2026-04-04T08:11:33.334Z</time></trkpt><trkpt lat="43.6463783" lon="10.6541633"><ele>27.333333333333332</ele><time>2026-04-04T08:11:34.334Z</time></trkpt><trkpt lat="43.6462717" lon="10.6539483"><ele>26.0</ele><time>2026-04-04T08:11:35.335Z</time></trkpt><trkpt lat="43.6461717" lon="10.6537233"><ele>24.333333333333332</ele><time>2026-04-04T08:11:36.334Z</time></trkpt><trkpt lat="43.646085" lon="10.6534967"><ele>22.666666666666664</ele><time>2026-04-04T08:11:37.334Z</time></trkpt><trkpt lat="43.6460083" lon="10.6532583"><ele>21.0</ele><time>2026-04-04T08:11:38.334Z</time></trkpt><trkpt lat="43.6459333" lon="10.6530033"><ele>19.666666666666668</ele><time>2026-04-04T08:11:39.335Z</time></trkpt><trkpt lat="43.64587" lon="10.6527483"><ele>18.333333333333336</ele><time>2026-04-04T08:11:40.334Z</time></trkpt><trkpt lat="43.6457967" lon="10.65251"><ele>17.0</ele><time>2026-04-04T08:11:41.334Z</time></trkpt><trkpt lat="43.6457167" lon="10.6522733"><ele>17.0</ele><time>2026-04-04T08:11:42.334Z</time></trkpt><trkpt lat="43.6456367" lon="10.652045"><ele>17.0</ele><time>2026-04-04T08:11:43.334Z</time></trkpt><trkpt lat="43.6455467" lon="10.651795"><ele>17.0</ele><time>2026-04-04T08:11:44.334Z</time></trkpt><trkpt lat="43.6454633" lon="10.6515483"><ele>17.666666666666668</ele><time>2026-04-04T08:11:45.334Z</time></trkpt><trkpt lat="43.6453817" lon="10.6513283"><ele>18.333333333333332</ele><time>2026-04-04T08:11:46.334Z</time></trkpt><trkpt lat="43.64531" lon="10.6511033"><ele>19.0</ele><time>2026-04-04T08:11:47.334Z</time></trkpt><trkpt lat="43.6452133" lon="10.6509067"><ele>19.0</ele><time>2026-04-04T08:11:48.334Z</time></trkpt><trkpt lat="43.6451033" lon="10.6507083"><ele>19.0</ele><time>2026-04-04T08:11:49.334Z</time></trkpt><trkpt lat="43.6449917" lon="10.6505217"><ele>19.0</ele><time>2026-04-04T08:11:50.334Z</time></trkpt><trkpt lat="43.644875" lon="10.65035"><ele>18.333333333333332</ele><time>2026-04-04T08:11:51.335Z</time></trkpt><trkpt lat="43.6447533" lon="10.6501967"><ele>17.666666666666668</ele><time>2026-04-04T08:11:52.335Z</time></trkpt><trkpt lat="43.64462" lon="10.65007"><ele>17.0</ele><time>2026-04-04T08:11:53.335Z</time></trkpt><trkpt lat="43.6444817" lon="10.6499533"><ele>18.666666666666668</ele><time>2026-04-04T08:11:54.334Z</time></trkpt><trkpt lat="43.6443383" lon="10.6498583"><ele>20.333333333333332</ele><time>2026-04-04T08:11:55.335Z</time></trkpt><trkpt lat="43.6441933" lon="10.6497833"><ele>22.0</ele><time>2026-04-04T08:11:56.334Z</time></trkpt><trkpt lat="43.64404" lon="10.6497217"><ele>22.0</ele><time>2026-04-04T08:11:57.334Z</time></trkpt><trkpt lat="43.64388" lon="10.64969"><ele>22.0</ele><time>2026-04-04T08:11:58.335Z</time></trkpt><trkpt lat="43.6437133" lon="10.649675"><ele>22.0</ele><time>2026-04-04T08:11:59.334Z</time></trkpt><trkpt lat="43.6435617" lon="10.6496767"><ele>22.25</ele><time>2026-04-04T08:12:00.334Z</time></trkpt><trkpt lat="43.6434167" lon="10.6496933"><ele>22.5</ele><time>2026-04-04T08:12:01.334Z</time></trkpt><trkpt lat="43.6432833" lon="10.649725"><ele>22.75</ele><time>2026-04-04T08:12:02.334Z</time></trkpt><trkpt lat="43.6431583" lon="10.649755"><ele>23.0</ele><time>2026-04-04T08:12:03.334Z</time></trkpt><trkpt lat="43.64303" lon="10.6497917"><ele>23.0</ele><time>2026-04-04T08:12:04.334Z</time></trkpt><trkpt lat="43.6429" lon="10.6498317"><ele>23.0</ele><time>2026-04-04T08:12:05.334Z</time></trkpt><trkpt lat="43.6427583" lon="10.6498783"><ele>23.0</ele><time>2026-04-04T08:12:06.334Z</time></trkpt><trkpt lat="43.642625" lon="10.649915"><ele>23.0</ele><time>2026-04-04T08:12:07.334Z</time></trkpt><trkpt lat="43.6424717" lon="10.64996"><ele>22.75</ele><time>2026-04-04T08:12:08.334Z</time></trkpt><trkpt lat="43.64232" lon="10.6500117"><ele>22.5</ele><time>2026-04-04T08:12:09.334Z</time></trkpt><trkpt lat="43.6421833" lon="10.65006"><ele>22.25</ele><time>2026-04-04T08:12:10.334Z</time></trkpt><trkpt lat="43.6420583" lon="10.6501"><ele>22.0</ele><time>2026-04-04T08:12:11.335Z</time></trkpt><trkpt lat="43.6419433" lon="10.6501333"><ele>22.400000000000002</ele><time>2026-04-04T08:12:12.334Z</time></trkpt><trkpt lat="43.6418367" lon="10.6501767"><ele>22.8</ele><time>2026-04-04T08:12:13.334Z</time></trkpt><trkpt lat="43.641715" lon="10.650215"><ele>23.2</ele><time>2026-04-04T08:12:14.334Z</time></trkpt><trkpt lat="43.641605" lon="10.6502333"><ele>23.6</ele><time>2026-04-04T08:12:15.334Z</time></trkpt><trkpt lat="43.6415033" lon="10.65025"><ele>24.0</ele><time>2026-04-04T08:12:16.334Z</time></trkpt><trkpt lat="43.6414167" lon="10.6502517"><ele>24.0</ele><time>2026-04-04T08:12:17.334Z</time></trkpt><trkpt lat="43.64133" lon="10.650275"><ele>24.0</ele><time>2026-04-04T08:12:18.334Z</time></trkpt><trkpt lat="43.6412333" lon="10.65031"><ele>24.0</ele><time>2026-04-04T08:12:19.334Z</time></trkpt><trkpt lat="43.641135" lon="10.6503467"><ele>24.0</ele><time>2026-04-04T08:12:20.335Z</time></trkpt><trkpt lat="43.641025" lon="10.65037"><ele>24.0</ele><time>2026-04-04T08:12:21.334Z</time></trkpt><trkpt lat="43.6409183" lon="10.6503933"><ele>24.0</ele><time>2026-04-04T08:12:22.334Z</time></trkpt><trkpt lat="43.6408" lon="10.6504283"><ele>24.0</ele><time>2026-04-04T08:12:23.334Z</time></trkpt><trkpt lat="43.640685" lon="10.6504517"><ele>24.0</ele><time>2026-04-04T08:12:24.334Z</time></trkpt><trkpt lat="43.6405617" lon="10.650475"><ele>24.0</ele><time>2026-04-04T08:12:25.334Z</time></trkpt><trkpt lat="43.6404433" lon="10.6504917"><ele>24.0</ele><time>2026-04-04T08:12:26.334Z</time></trkpt><trkpt lat="43.64032" lon="10.6505233"><ele>24.0</ele><time>2026-04-04T08:12:27.334Z</time></trkpt><trkpt lat="43.6402167" lon="10.6505617"><ele>24.0</ele><time>2026-04-04T08:12:28.334Z</time></trkpt><trkpt lat="43.6401267" lon="10.6506"><ele>24.0</ele><time>2026-04-04T08:12:29.335Z</time></trkpt><trkpt lat="43.6400417" lon="10.6506367"><ele>24.0</ele><time>2026-04-04T08:12:30.334Z</time></trkpt><trkpt lat="43.6399667" lon="10.65067"><ele>23.833333333333332</ele><time>2026-04-04T08:12:31.334Z</time></trkpt><trkpt lat="43.63989" lon="10.6507133"><ele>23.666666666666668</ele><time>2026-04-04T08:12:32.334Z</time></trkpt><trkpt lat="43.6398133" lon="10.6507517"><ele>23.5</ele><time>2026-04-04T08:12:33.334Z</time></trkpt><trkpt lat="43.639735" lon="10.6507817"><ele>23.333333333333336</ele><time>2026-04-04T08:12:34.335Z</time></trkpt><trkpt lat="43.6396667" lon="10.6508"><ele>23.166666666666668</ele><time>2026-04-04T08:12:35.334Z</time></trkpt><trkpt lat="43.6396033" lon="10.650805"><ele>23.0</ele><time>2026-04-04T08:12:36.334Z</time></trkpt><trkpt lat="43.6395317" lon="10.65081"><ele>23.166666666666668</ele><time>2026-04-04T08:12:37.334Z</time></trkpt><trkpt lat="43.639455" lon="10.6508167"><ele>23.333333333333336</ele><time>2026-04-04T08:12:38.334Z</time></trkpt><trkpt lat="43.6393983" lon="10.6508817"><ele>23.5</ele><time>2026-04-04T08:12:39.334Z</time></trkpt><trkpt lat="43.6393433" lon="10.6509767"><ele>23.666666666666668</ele><time>2026-04-04T08:12:40.334Z</time></trkpt><trkpt lat="43.6392867" lon="10.65109"><ele>23.833333333333332</ele><time>2026-04-04T08:12:41.335Z</time></trkpt><trkpt lat="43.639215" lon="10.6512067"><ele>24.0</ele><time>2026-04-04T08:12:42.334Z</time></trkpt><trkpt lat="43.6391367" lon="10.6513467"><ele>24.0</ele><time>2026-04-04T08:12:43.334Z</time></trkpt><trkpt lat="43.63905" lon="10.6514733"><ele>24.0</ele><time>2026-04-04T08:12:44.334Z</time></trkpt><trkpt lat="43.6389683" lon="10.65159"><ele>24.0</ele><time>2026-04-04T08:12:45.334Z</time></trkpt><trkpt lat="43.6388933" lon="10.6516983"><ele>24.0</ele><time>2026-04-04T08:12:46.335Z</time></trkpt><trkpt lat="43.63883" lon="10.651795"><ele>24.0</ele><time>2026-04-04T08:12:47.335Z</time></trkpt><trkpt lat="43.6387617" lon="10.6518733"><ele>24.0</ele><time>2026-04-04T08:12:48.335Z</time></trkpt><trkpt lat="43.638695" lon="10.6519533"><ele>24.0</ele><time>2026-04-04T08:12:49.334Z</time></trkpt><trkpt lat="43.6386233" lon="10.65203"><ele>24.0</ele><time>2026-04-04T08:12:50.334Z</time></trkpt><trkpt lat="43.6385517" lon="10.6521133"><ele>24.0</ele><time>2026-04-04T08:12:51.334Z</time></trkpt><trkpt lat="43.6384817" lon="10.6521867"><ele>24.0</ele><time>2026-04-04T08:12:52.334Z</time></trkpt><trkpt lat="43.6384117" lon="10.6522667"><ele>24.0</ele><time>2026-04-04T08:12:53.335Z</time></trkpt><trkpt lat="43.63833" lon="10.65237"><ele>24.0</ele><time>2026-04-04T08:12:54.334Z</time></trkpt><trkpt lat="43.6382233" lon="10.6524917"><ele>24.0</ele><time>2026-04-04T08:12:55.334Z</time></trkpt><trkpt lat="43.6381133" lon="10.65263"><ele>24.0</ele><time>2026-04-04T08:12:56.334Z</time></trkpt><trkpt lat="43.63799" lon="10.652775"><ele>24.666666666666664</ele><time>2026-04-04T08:12:57.335Z</time></trkpt><trkpt lat="43.637855" lon="10.6529317"><ele>25.333333333333332</ele><time>2026-04-04T08:12:58.334Z</time></trkpt><trkpt lat="43.6377117" lon="10.6531067"><ele>26.0</ele><time>2026-04-04T08:12:59.334Z</time></trkpt><trkpt lat="43.6375717" lon="10.6532783"><ele>26.0</ele><time>2026-04-04T08:13:00.334Z</time></trkpt><trkpt lat="43.6374283" lon="10.6534567"><ele>26.0</ele><time>2026-04-04T08:13:01.334Z</time></trkpt><trkpt lat="43.63728" lon="10.653645"><ele>26.0</ele><time>2026-04-04T08:13:02.334Z</time></trkpt><trkpt lat="43.6371317" lon="10.6538367"><ele>26.0</ele><time>2026-04-04T08:13:03.334Z</time></trkpt><trkpt lat="43.63698" lon="10.6540267"><ele>26.0</ele><time>2026-04-04T08:13:04.334Z</time></trkpt><trkpt lat="43.636835" lon="10.654225"><ele>26.0</ele><time>2026-04-04T08:13:05.335Z</time></trkpt><trkpt lat="43.63669" lon="10.6544117"><ele>27.0</ele><time>2026-04-04T08:13:06.335Z</time></trkpt><trkpt lat="43.63655" lon="10.65461"><ele>28.0</ele><time>2026-04-04T08:13:07.334Z</time></trkpt><trkpt lat="43.6364133" lon="10.6547983"><ele>29.0</ele><time>2026-04-04T08:13:08.334Z</time></trkpt><trkpt lat="43.6362767" lon="10.65498"><ele>28.333333333333332</ele><time>2026-04-04T08:13:09.334Z</time></trkpt><trkpt lat="43.636125" lon="10.655155"><ele>27.666666666666664</ele><time>2026-04-04T08:13:10.335Z</time></trkpt><trkpt lat="43.6359533" lon="10.65532"><ele>27.0</ele><time>2026-04-04T08:13:11.334Z</time></trkpt><trkpt lat="43.6357817" lon="10.655465"><ele>27.0</ele><time>2026-04-04T08:13:12.334Z</time></trkpt><trkpt lat="43.6355983" lon="10.6556033"><ele>27.0</ele><time>2026-04-04T08:13:13.334Z</time></trkpt><trkpt lat="43.63541" lon="10.6557417"><ele>27.0</ele><time>2026-04-04T08:13:14.335Z</time></trkpt><trkpt lat="43.6352267" lon="10.65588"><ele>27.0</ele><time>2026-04-04T08:13:15.334Z</time></trkpt><trkpt lat="43.635045" lon="10.6560167"><ele>27.0</ele><time>2026-04-04T08:13:16.334Z</time></trkpt><trkpt lat="43.634865" lon="10.6561517"><ele>27.0</ele><time>2026-04-04T08:13:17.334Z</time></trkpt><trkpt lat="43.6346833" lon="10.65629"><ele>26.666666666666664</ele><time>2026-04-04T08:13:18.334Z</time></trkpt><trkpt lat="43.6345033" lon="10.65643"><ele>26.333333333333332</ele><time>2026-04-04T08:13:19.335Z</time></trkpt><trkpt lat="43.6343183" lon="10.6565733"><ele>26.0</ele><time>2026-04-04T08:13:20.334Z</time></trkpt><trkpt lat="43.6341233" lon="10.65672"><ele>26.0</ele><time>2026-04-04T08:13:21.334Z</time></trkpt><trkpt lat="43.633925" lon="10.6568617"><ele>26.0</ele><time>2026-04-04T08:13:22.334Z</time></trkpt><trkpt lat="43.633725" lon="10.65701"><ele>25.666666666666664</ele><time>2026-04-04T08:13:23.334Z</time></trkpt><trkpt lat="43.63353" lon="10.6571667"><ele>25.333333333333336</ele><time>2026-04-04T08:13:24.334Z</time></trkpt><trkpt lat="43.6333417" lon="10.6573167"><ele>25.0</ele><time>2026-04-04T08:13:25.335Z</time></trkpt><trkpt lat="43.6331517" lon="10.6574667"><ele>25.0</ele><time>2026-04-04T08:13:26.334Z</time></trkpt><trkpt lat="43.63296" lon="10.6576133"><ele>25.0</ele><time>2026-04-04T08:13:27.334Z</time></trkpt><trkpt lat="43.6327767" lon="10.6577517"><ele>25.0</ele><time>2026-04-04T08:13:28.334Z</time></trkpt><trkpt lat="43.6325967" lon="10.6578883"><ele>24.333333333333336</ele><time>2026-04-04T08:13:29.335Z</time></trkpt><trkpt lat="43.63243" lon="10.6580217"><ele>23.666666666666668</ele><time>2026-04-04T08:13:30.335Z</time></trkpt><trkpt lat="43.632265" lon="10.6581483"><ele>23.0</ele><time>2026-04-04T08:13:31.334Z</time></trkpt><trkpt lat="43.63211" lon="10.65827"><ele>22.666666666666668</ele><time>2026-04-04T08:13:32.335Z</time></trkpt><trkpt lat="43.6319433" lon="10.6583967"><ele>22.333333333333332</ele><time>2026-04-04T08:13:33.334Z</time></trkpt><trkpt lat="43.6317917" lon="10.6584967"><ele>22.0</ele><time>2026-04-04T08:13:34.334Z</time></trkpt><trkpt lat="43.6316267" lon="10.6586"><ele>23.333333333333332</ele><time>2026-04-04T08:13:35.335Z</time></trkpt><trkpt lat="43.63147" lon="10.6586883"><ele>24.666666666666664</ele><time>2026-04-04T08:13:36.334Z</time></trkpt><trkpt lat="43.6313167" lon="10.6587817"><ele>26.0</ele><time>2026-04-04T08:13:37.335Z</time></trkpt><trkpt lat="43.6311817" lon="10.658865"><ele>25.5</ele><time>2026-04-04T08:13:38.335Z</time></trkpt><trkpt lat="43.6310533" lon="10.6589317"><ele>25.0</ele><time>2026-04-04T08:13:39.334Z</time></trkpt><trkpt lat="43.6309117" lon="10.65899"><ele>24.5</ele><time>2026-04-04T08:13:40.334Z</time></trkpt><trkpt lat="43.63077" lon="10.65906"><ele>24.0</ele><time>2026-04-04T08:13:41.335Z</time></trkpt><trkpt lat="43.6306333" lon="10.6591233"><ele>24.0</ele><time>2026-04-04T08:13:42.334Z</time></trkpt><trkpt lat="43.6304933" lon="10.6591867"><ele>24.0</ele><time>2026-04-04T08:13:43.335Z</time></trkpt><trkpt lat="43.63035" lon="10.6592483"><ele>24.0</ele><time>2026-04-04T08:13:44.334Z</time></trkpt><trkpt lat="43.6301983" lon="10.6593233"><ele>24.333333333333336</ele><time>2026-04-04T08:13:45.335Z</time></trkpt><trkpt lat="43.6300467" lon="10.6594"><ele>24.666666666666668</ele><time>2026-04-04T08:13:46.334Z</time></trkpt><trkpt lat="43.629885" lon="10.6594567"><ele>25.0</ele><time>2026-04-04T08:13:47.334Z</time></trkpt><trkpt lat="43.629725" lon="10.659515"><ele>25.333333333333336</ele><time>2026-04-04T08:13:48.334Z</time></trkpt><trkpt lat="43.6295633" lon="10.6595683"><ele>25.666666666666664</ele><time>2026-04-04T08:13:49.334Z</time></trkpt><trkpt lat="43.6294233" lon="10.6596133"><ele>26.0</ele><time>2026-04-04T08:13:50.334Z</time></trkpt><trkpt lat="43.6292817" lon="10.6596533"><ele>26.0</ele><time>2026-04-04T08:13:51.335Z</time></trkpt><trkpt lat="43.6291517" lon="10.6596883"><ele>26.0</ele><time>2026-04-04T08:13:52.334Z</time></trkpt><trkpt lat="43.6290433" lon="10.6597283"><ele>26.0</ele><time>2026-04-04T08:13:53.334Z</time></trkpt><trkpt lat="43.628935" lon="10.6597633"><ele>26.0</ele><time>2026-04-04T08:13:54.334Z</time></trkpt><trkpt lat="43.6288333" lon="10.6597917"><ele>25.999999999999996</ele><time>2026-04-04T08:13:55.334Z</time></trkpt><trkpt lat="43.628745" lon="10.6598067"><ele>26.0</ele><time>2026-04-04T08:13:56.334Z</time></trkpt><trkpt lat="43.6286583" lon="10.6598217"><ele>26.0</ele><time>2026-04-04T08:13:57.334Z</time></trkpt><trkpt lat="43.62857" lon="10.6598283"><ele>26.0</ele><time>2026-04-04T08:13:58.335Z</time></trkpt><trkpt lat="43.62849" lon="10.6598283"><ele>25.999999999999996</ele><time>2026-04-04T08:13:59.334Z</time></trkpt><trkpt lat="43.6284033" lon="10.6598217"><ele>26.0</ele><time>2026-04-04T08:14:00.335Z</time></trkpt><trkpt lat="43.6283267" lon="10.659785"><ele>26.166666666666664</ele><time>2026-04-04T08:14:01.335Z</time></trkpt><trkpt lat="43.62825" lon="10.6597267"><ele>26.333333333333332</ele><time>2026-04-04T08:14:02.334Z</time></trkpt><trkpt lat="43.62818" lon="10.6596617"><ele>26.5</ele><time>2026-04-04T08:14:03.334Z</time></trkpt><trkpt lat="43.628115" lon="10.6595933"><ele>26.666666666666664</ele><time>2026-04-04T08:14:04.334Z</time></trkpt><trkpt lat="43.62806" lon="10.65951"><ele>26.833333333333332</ele><time>2026-04-04T08:14:05.334Z</time></trkpt><trkpt lat="43.6280067" lon="10.6594017"><ele>27.0</ele><time>2026-04-04T08:14:06.334Z</time></trkpt><trkpt lat="43.62797" lon="10.6592683"><ele>27.25</ele><time>2026-04-04T08:14:07.335Z</time></trkpt><trkpt lat="43.6279417" lon="10.6590833"><ele>27.5</ele><time>2026-04-04T08:14:08.334Z</time></trkpt><trkpt lat="43.6279117" lon="10.658885"><ele>27.75</ele><time>2026-04-04T08:14:09.334Z</time></trkpt><trkpt lat="43.6278867" lon="10.6586867"><ele>28.0</ele><time>2026-04-04T08:14:10.334Z</time></trkpt><trkpt lat="43.6278583" lon="10.6584767"><ele>28.333333333333336</ele><time>2026-04-04T08:14:11.334Z</time></trkpt><trkpt lat="43.627805" lon="10.658255"><ele>28.666666666666664</ele><time>2026-04-04T08:14:12.334Z</time></trkpt><trkpt lat="43.6277733" lon="10.657995"><ele>29.0</ele><time>2026-04-04T08:14:13.334Z</time></trkpt><trkpt lat="43.62773" lon="10.6577117"><ele>29.0</ele><time>2026-04-04T08:14:14.334Z</time></trkpt><trkpt lat="43.6276717" lon="10.657415"><ele>29.0</ele><time>2026-04-04T08:14:15.334Z</time></trkpt><trkpt lat="43.6276117" lon="10.6571217"><ele>29.0</ele><time>2026-04-04T08:14:16.334Z</time></trkpt><trkpt lat="43.627545" lon="10.656825"><ele>29.5</ele><time>2026-04-04T08:14:17.334Z</time></trkpt><trkpt lat="43.6274533" lon="10.6565183"><ele>30.0</ele><time>2026-04-04T08:14:18.334Z</time></trkpt><trkpt lat="43.6273533" lon="10.656215"><ele>29.0</ele><time>2026-04-04T08:14:19.335Z</time></trkpt><trkpt lat="43.6272433" lon="10.6559067"><ele>28.0</ele><time>2026-04-04T08:14:20.335Z</time></trkpt><trkpt lat="43.6271217" lon="10.6556067"><ele>28.0</ele><time>2026-04-04T08:14:21.334Z</time></trkpt><trkpt lat="43.6269883" lon="10.65532"><ele>28.0</ele><time>2026-04-04T08:14:22.334Z</time></trkpt><trkpt lat="43.6268417" lon="10.65505"><ele>26.5</ele><time>2026-04-04T08:14:23.335Z</time></trkpt><trkpt lat="43.6266867" lon="10.6547867"><ele>25.0</ele><time>2026-04-04T08:14:24.335Z</time></trkpt><trkpt lat="43.62651" lon="10.6545317"><ele>24.0</ele><time>2026-04-04T08:14:25.334Z</time></trkpt><trkpt lat="43.6263267" lon="10.6542967"><ele>23.0</ele><time>2026-04-04T08:14:26.334Z</time></trkpt><trkpt lat="43.6261383" lon="10.6540717"><ele>23.0</ele><time>2026-04-04T08:14:27.334Z</time></trkpt><trkpt lat="43.625945" lon="10.6538667"><ele>23.0</ele><time>2026-04-04T08:14:28.335Z</time></trkpt><trkpt lat="43.6257467" lon="10.6536817"><ele>23.0</ele><time>2026-04-04T08:14:29.334Z</time></trkpt><trkpt lat="43.6255383" lon="10.6534967"><ele>23.0</ele><time>2026-04-04T08:14:30.335Z</time></trkpt><trkpt lat="43.6253333" lon="10.6532967"><ele>22.5</ele><time>2026-04-04T08:14:31.335Z</time></trkpt><trkpt lat="43.6251367" lon="10.6531"><ele>22.0</ele><time>2026-04-04T08:14:32.334Z</time></trkpt><trkpt lat="43.6249667" lon="10.6528667"><ele>22.0</ele><time>2026-04-04T08:14:33.334Z</time></trkpt><trkpt lat="43.6248" lon="10.6526083"><ele>22.0</ele><time>2026-04-04T08:14:34.334Z</time></trkpt><trkpt lat="43.624645" lon="10.6523467"><ele>22.0</ele><time>2026-04-04T08:14:35.334Z</time></trkpt><trkpt lat="43.62449" lon="10.652075"><ele>22.0</ele><time>2026-04-04T08:14:36.334Z</time></trkpt><trkpt lat="43.624335" lon="10.6517967"><ele>22.5</ele><time>2026-04-04T08:14:37.335Z</time></trkpt><trkpt lat="43.6241717" lon="10.651515"><ele>23.0</ele><time>2026-04-04T08:14:38.334Z</time></trkpt><trkpt lat="43.6240017" lon="10.6512433"><ele>23.0</ele><time>2026-04-04T08:14:39.335Z</time></trkpt><trkpt lat="43.6238417" lon="10.65097"><ele>23.0</ele><time>2026-04-04T08:14:40.334Z</time></trkpt><trkpt lat="43.6236767" lon="10.650695"><ele>22.5</ele><time>2026-04-04T08:14:41.334Z</time></trkpt><trkpt lat="43.623505" lon="10.6504183"><ele>22.0</ele><time>2026-04-04T08:14:42.335Z</time></trkpt><trkpt lat="43.6233517" lon="10.650145"><ele>22.0</ele><time>2026-04-04T08:14:43.334Z</time></trkpt><trkpt lat="43.6231983" lon="10.6498783"><ele>22.0</ele><time>2026-04-04T08:14:44.334Z</time></trkpt><trkpt lat="43.6230367" lon="10.6495933"><ele>22.0</ele><time>2026-04-04T08:14:45.334Z</time></trkpt><trkpt lat="43.6228667" lon="10.6493217"><ele>22.0</ele><time>2026-04-04T08:14:46.334Z</time></trkpt><trkpt lat="43.6227" lon="10.6490533"><ele>22.0</ele><time>2026-04-04T08:14:47.335Z</time></trkpt><trkpt lat="43.62254" lon="10.6487817"><ele>22.0</ele><time>2026-04-04T08:14:48.334Z</time></trkpt><trkpt lat="43.6223783" lon="10.64851"><ele>22.0</ele><time>2026-04-04T08:14:49.335Z</time></trkpt><trkpt lat="43.622225" lon="10.6482433"><ele>22.0</ele><time>2026-04-04T08:14:50.334Z</time></trkpt><trkpt lat="43.622075" lon="10.64798"><ele>21.5</ele><time>2026-04-04T08:14:51.334Z</time></trkpt><trkpt lat="43.621925" lon="10.64772"><ele>21.0</ele><time>2026-04-04T08:14:52.334Z</time></trkpt><trkpt lat="43.6217783" lon="10.64746"><ele>21.0</ele><time>2026-04-04T08:14:53.334Z</time></trkpt><trkpt lat="43.6216467" lon="10.6472133"><ele>21.0</ele><time>2026-04-04T08:14:54.334Z</time></trkpt><trkpt lat="43.6215117" lon="10.64698"><ele>21.0</ele><time>2026-04-04T08:14:55.335Z</time></trkpt><trkpt lat="43.6213767" lon="10.646755"><ele>21.0</ele><time>2026-04-04T08:14:56.334Z</time></trkpt><trkpt lat="43.6212517" lon="10.6465417"><ele>21.0</ele><time>2026-04-04T08:14:57.335Z</time></trkpt><trkpt lat="43.6211133" lon="10.646355"><ele>21.0</ele><time>2026-04-04T08:14:58.334Z</time></trkpt><trkpt lat="43.621" lon="10.6461933"><ele>21.0</ele><time>2026-04-04T08:14:59.335Z</time></trkpt><trkpt lat="43.6208383" lon="10.64604"><ele>21.0</ele><time>2026-04-04T08:15:00.335Z</time></trkpt><trkpt lat="43.6206617" lon="10.645895"><ele>21.0</ele><time>2026-04-04T08:15:01.335Z</time></trkpt><trkpt lat="43.6204833" lon="10.645775"><ele>21.333333333333332</ele><time>2026-04-04T08:15:02.334Z</time></trkpt><trkpt lat="43.6203033" lon="10.6456717"><ele>21.666666666666664</ele><time>2026-04-04T08:15:03.335Z</time></trkpt><trkpt lat="43.6201317" lon="10.6455717"><ele>22.0</ele><time>2026-04-04T08:15:04.334Z</time></trkpt><trkpt lat="43.6199817" lon="10.6454867"><ele>22.0</ele><time>2026-04-04T08:15:05.334Z</time></trkpt><trkpt lat="43.6198583" lon="10.64539"><ele>22.0</ele><time>2026-04-04T08:15:06.334Z</time></trkpt><trkpt lat="43.6197467" lon="10.6452933"><ele>22.0</ele><time>2026-04-04T08:15:07.334Z</time></trkpt><trkpt lat="43.6196617" lon="10.6451883"><ele>22.0</ele><time>2026-04-04T08:15:08.334Z</time></trkpt><trkpt lat="43.6195933" lon="10.6450717"><ele>22.0</ele><time>2026-04-04T08:15:09.334Z</time></trkpt><trkpt lat="43.619535" lon="10.644945"><ele>22.0</ele><time>2026-04-04T08:15:10.335Z</time></trkpt><trkpt lat="43.6194883" lon="10.6447833"><ele>22.0</ele><time>2026-04-04T08:15:11.334Z</time></trkpt><trkpt lat="43.619455" lon="10.6446167"><ele>22.0</ele><time>2026-04-04T08:15:12.334Z</time></trkpt><trkpt lat="43.6194183" lon="10.64445"><ele>22.0</ele><time>2026-04-04T08:15:13.334Z</time></trkpt><trkpt lat="43.6193833" lon="10.644295"><ele>22.0</ele><time>2026-04-04T08:15:14.334Z</time></trkpt><trkpt lat="43.619315" lon="10.64417"><ele>22.0</ele><time>2026-04-04T08:15:15.334Z</time></trkpt><trkpt lat="43.619255" lon="10.644055"><ele>22.0</ele><time>2026-04-04T08:15:16.334Z</time></trkpt><trkpt lat="43.6191733" lon="10.64396"><ele>22.0</ele><time>2026-04-04T08:15:17.334Z</time></trkpt><trkpt lat="43.61908" lon="10.643885"><ele>22.0</ele><time>2026-04-04T08:15:18.335Z</time></trkpt><trkpt lat="43.6190017" lon="10.6438283"><ele>22.0</ele><time>2026-04-04T08:15:19.334Z</time></trkpt><trkpt lat="43.6189283" lon="10.643785"><ele>22.0</ele><time>2026-04-04T08:15:20.334Z</time></trkpt><trkpt lat="43.6188483" lon="10.64374"><ele>22.0</ele><time>2026-04-04T08:15:21.334Z</time></trkpt><trkpt lat="43.6187767" lon="10.6437033"><ele>22.0</ele><time>2026-04-04T08:15:22.334Z</time></trkpt><trkpt lat="43.6187" lon="10.64367"><ele>22.0</ele><time>2026-04-04T08:15:23.334Z</time></trkpt><trkpt lat="43.61863" lon="10.6436433"><ele>22.0</ele><time>2026-04-04T08:15:24.334Z</time></trkpt><trkpt lat="43.6185683" lon="10.6436133"><ele>22.0</ele><time>2026-04-04T08:15:25.335Z</time></trkpt><trkpt lat="43.618465" lon="10.6435217"><ele>22.0</ele><time>2026-04-04T08:15:27.334Z</time></trkpt><trkpt lat="43.6184267" lon="10.643445"><ele>22.0</ele><time>2026-04-04T08:15:28.334Z</time></trkpt><trkpt lat="43.6184083" lon="10.643355"><ele>22.0</ele><time>2026-04-04T08:15:29.334Z</time></trkpt><trkpt lat="43.6184383" lon="10.6431817"><ele>22.0</ele><time>2026-04-04T08:15:31.334Z</time></trkpt><trkpt lat="43.6184733" lon="10.6430933"><ele>22.0</ele><time>2026-04-04T08:15:32.334Z</time></trkpt><trkpt lat="43.6185383" lon="10.642935"><ele>22.0</ele><time>2026-04-04T08:15:34.335Z</time></trkpt><trkpt lat="43.6185667" lon="10.642835"><ele>22.0</ele><time>2026-04-04T08:15:35.335Z</time></trkpt><trkpt lat="43.618615" lon="10.6427467"><ele>22.0</ele><time>2026-04-04T08:15:36.334Z</time></trkpt><trkpt lat="43.618675" lon="10.6426667"><ele>22.0</ele><time>2026-04-04T08:15:37.334Z</time></trkpt><trkpt lat="43.6187333" lon="10.642595"><ele>22.0</ele><time>2026-04-04T08:15:38.334Z</time></trkpt><trkpt lat="43.6188033" lon="10.6425033"><ele>22.0</ele><time>2026-04-04T08:15:39.334Z</time></trkpt><trkpt lat="43.6188633" lon="10.642415"><ele>22.0</ele><time>2026-04-04T08:15:40.334Z</time></trkpt><trkpt lat="43.6189217" lon="10.6423167"><ele>22.0</ele><time>2026-04-04T08:15:41.334Z</time></trkpt><trkpt lat="43.61897" lon="10.64222"><ele>22.0</ele><time>2026-04-04T08:15:42.334Z</time></trkpt><trkpt lat="43.6190067" lon="10.6421233"><ele>22.0</ele><time>2026-04-04T08:15:43.335Z</time></trkpt><trkpt lat="43.61903" lon="10.6420333"><ele>22.200000000000003</ele><time>2026-04-04T08:15:44.334Z</time></trkpt><trkpt lat="43.6190417" lon="10.6418617"><ele>22.4</ele><time>2026-04-04T08:15:46.334Z</time></trkpt><trkpt lat="43.61905" lon="10.641685"><ele>22.6</ele><time>2026-04-04T08:15:48.334Z</time></trkpt><trkpt lat="43.619065" lon="10.6415883"><ele>22.799999999999997</ele><time>2026-04-04T08:15:49.334Z</time></trkpt><trkpt lat="43.6190783" lon="10.64149"><ele>23.0</ele><time>2026-04-04T08:15:50.334Z</time></trkpt><trkpt lat="43.619095" lon="10.641385"><ele>23.0</ele><time>2026-04-04T08:15:51.334Z</time></trkpt><trkpt lat="43.6190933" lon="10.641265"><ele>23.0</ele><time>2026-04-04T08:15:52.334Z</time></trkpt><trkpt lat="43.6191017" lon="10.64115"><ele>23.0</ele><time>2026-04-04T08:15:53.334Z</time></trkpt><trkpt lat="43.6191083" lon="10.6410333"><ele>23.0</ele><time>2026-04-04T08:15:54.334Z</time></trkpt><trkpt lat="43.619115" lon="10.640905"><ele>23.0</ele><time>2026-04-04T08:15:55.334Z</time></trkpt><trkpt lat="43.6191167" lon="10.6407767"><ele>23.0</ele><time>2026-04-04T08:15:56.334Z</time></trkpt><trkpt lat="43.6191117" lon="10.640645"><ele>23.166666666666668</ele><time>2026-04-04T08:15:57.335Z</time></trkpt><trkpt lat="43.61911" lon="10.6405267"><ele>23.333333333333336</ele><time>2026-04-04T08:15:58.334Z</time></trkpt><trkpt lat="43.6191067" lon="10.6404083"><ele>23.5</ele><time>2026-04-04T08:15:59.334Z</time></trkpt><trkpt lat="43.619115" lon="10.64028"><ele>23.666666666666668</ele><time>2026-04-04T08:16:00.334Z</time></trkpt><trkpt lat="43.6191183" lon="10.64016"><ele>23.833333333333332</ele><time>2026-04-04T08:16:01.334Z</time></trkpt><trkpt lat="43.6191167" lon="10.6400467"><ele>24.0</ele><time>2026-04-04T08:16:02.335Z</time></trkpt><trkpt lat="43.619115" lon="10.6399267"><ele>24.2</ele><time>2026-04-04T08:16:03.335Z</time></trkpt><trkpt lat="43.6191133" lon="10.6398033"><ele>24.4</ele><time>2026-04-04T08:16:04.334Z</time></trkpt><trkpt lat="43.6191083" lon="10.63967"><ele>24.6</ele><time>2026-04-04T08:16:05.335Z</time></trkpt><trkpt lat="43.6190983" lon="10.6395283"><ele>24.8</ele><time>2026-04-04T08:16:06.335Z</time></trkpt><trkpt lat="43.6190917" lon="10.6393967"><ele>25.0</ele><time>2026-04-04T08:16:07.334Z</time></trkpt><trkpt lat="43.619095" lon="10.6392683"><ele>25.000000000000004</ele><time>2026-04-04T08:16:08.334Z</time></trkpt><trkpt lat="43.619095" lon="10.6391433"><ele>25.0</ele><time>2026-04-04T08:16:09.334Z</time></trkpt><trkpt lat="43.6191067" lon="10.639035"><ele>25.0</ele><time>2026-04-04T08:16:10.334Z</time></trkpt><trkpt lat="43.6191033" lon="10.6389233"><ele>25.0</ele><time>2026-04-04T08:16:11.334Z</time></trkpt><trkpt lat="43.619095" lon="10.638805"><ele>25.000000000000004</ele><time>2026-04-04T08:16:12.334Z</time></trkpt><trkpt lat="43.6190883" lon="10.6386867"><ele>25.0</ele><time>2026-04-04T08:16:13.334Z</time></trkpt><trkpt lat="43.6190883" lon="10.6385817"><ele>24.666666666666668</ele><time>2026-04-04T08:16:14.334Z</time></trkpt><trkpt lat="43.61909" lon="10.63849"><ele>24.333333333333336</ele><time>2026-04-04T08:16:15.335Z</time></trkpt><trkpt lat="43.6190383" lon="10.6383667"><ele>24.0</ele><time>2026-04-04T08:16:17.335Z</time></trkpt><trkpt lat="43.61897" lon="10.6383533"><ele>23.666666666666668</ele><time>2026-04-04T08:16:18.334Z</time></trkpt><trkpt lat="43.6188867" lon="10.6383283"><ele>23.333333333333336</ele><time>2026-04-04T08:16:19.335Z</time></trkpt><trkpt lat="43.6187917" lon="10.638295"><ele>23.0</ele><time>2026-04-04T08:16:20.334Z</time></trkpt><trkpt lat="43.6186833" lon="10.6382533"><ele>23.5</ele><time>2026-04-04T08:16:21.334Z</time></trkpt><trkpt lat="43.6185733" lon="10.638215"><ele>24.0</ele><time>2026-04-04T08:16:22.334Z</time></trkpt><trkpt lat="43.6184517" lon="10.6381867"><ele>24.5</ele><time>2026-04-04T08:16:23.334Z</time></trkpt><trkpt lat="43.618315" lon="10.6381567"><ele>25.0</ele><time>2026-04-04T08:16:24.334Z</time></trkpt><trkpt lat="43.6181833" lon="10.638125"><ele>25.0</ele><time>2026-04-04T08:16:25.335Z</time></trkpt><trkpt lat="43.6180567" lon="10.6380967"><ele>25.0</ele><time>2026-04-04T08:16:26.334Z</time></trkpt><trkpt lat="43.6179417" lon="10.6380717"><ele>25.0</ele><time>2026-04-04T08:16:27.334Z</time></trkpt><trkpt lat="43.6178433" lon="10.638045"><ele>25.0</ele><time>2026-04-04T08:16:28.334Z</time></trkpt><trkpt lat="43.61775" lon="10.6380183"><ele>25.0</ele><time>2026-04-04T08:16:29.334Z</time></trkpt><trkpt lat="43.6176733" lon="10.6379917"><ele>25.2</ele><time>2026-04-04T08:16:30.334Z</time></trkpt><trkpt lat="43.6176067" lon="10.6379683"><ele>25.4</ele><time>2026-04-04T08:16:31.334Z</time></trkpt><trkpt lat="43.6175383" lon="10.6379333"><ele>25.6</ele><time>2026-04-04T08:16:33.334Z</time></trkpt><trkpt lat="43.6174383" lon="10.63796"><ele>25.8</ele><time>2026-04-04T08:16:36.334Z</time></trkpt><trkpt lat="43.6173733" lon="10.6380217"><ele>26.0</ele><time>2026-04-04T08:16:37.335Z</time></trkpt><trkpt lat="43.6172933" lon="10.6381617"><ele>26.0</ele><time>2026-04-04T08:16:38.334Z</time></trkpt><trkpt lat="43.6171717" lon="10.638335"><ele>26.0</ele><time>2026-04-04T08:16:39.334Z</time></trkpt><trkpt lat="43.6170367" lon="10.6385217"><ele>26.0</ele><time>2026-04-04T08:16:40.334Z</time></trkpt><trkpt lat="43.6169183" lon="10.6387"><ele>25.666666666666664</ele><time>2026-04-04T08:16:41.334Z</time></trkpt><trkpt lat="43.6167783" lon="10.6388967"><ele>25.333333333333336</ele><time>2026-04-04T08:16:42.335Z</time></trkpt><trkpt lat="43.6166417" lon="10.639075"><ele>25.0</ele><time>2026-04-04T08:16:43.334Z</time></trkpt><trkpt lat="43.6164933" lon="10.6392517"><ele>25.0</ele><time>2026-04-04T08:16:44.334Z</time></trkpt><trkpt lat="43.6163617" lon="10.639425"><ele>25.0</ele><time>2026-04-04T08:16:45.334Z</time></trkpt><trkpt lat="43.6162483" lon="10.6396083"><ele>25.0</ele><time>2026-04-04T08:16:46.335Z</time></trkpt><trkpt lat="43.6161417" lon="10.639805"><ele>25.0</ele><time>2026-04-04T08:16:47.335Z</time></trkpt><trkpt lat="43.6160283" lon="10.6400083"><ele>25.0</ele><time>2026-04-04T08:16:48.335Z</time></trkpt><trkpt lat="43.6159083" lon="10.6401967"><ele>25.0</ele><time>2026-04-04T08:16:49.334Z</time></trkpt><trkpt lat="43.6157867" lon="10.6403717"><ele>25.666666666666668</ele><time>2026-04-04T08:16:50.334Z</time></trkpt><trkpt lat="43.6156583" lon="10.64053"><ele>26.333333333333336</ele><time>2026-04-04T08:16:51.334Z</time></trkpt><trkpt lat="43.61549" lon="10.6406667"><ele>27.0</ele><time>2026-04-04T08:16:52.334Z</time></trkpt><trkpt lat="43.6153283" lon="10.6407917"><ele>27.0</ele><time>2026-04-04T08:16:53.335Z</time></trkpt><trkpt lat="43.6151617" lon="10.640915"><ele>27.0</ele><time>2026-04-04T08:16:54.334Z</time></trkpt><trkpt lat="43.614995" lon="10.6410383"><ele>27.0</ele><time>2026-04-04T08:16:55.334Z</time></trkpt><trkpt lat="43.61484" lon="10.6411617"><ele>26.666666666666664</ele><time>2026-04-04T08:16:56.334Z</time></trkpt><trkpt lat="43.614675" lon="10.6412817"><ele>26.333333333333332</ele><time>2026-04-04T08:16:57.334Z</time></trkpt><trkpt lat="43.6145017" lon="10.6413967"><ele>26.0</ele><time>2026-04-04T08:16:58.334Z</time></trkpt><trkpt lat="43.6143367" lon="10.6415017"><ele>25.666666666666664</ele><time>2026-04-04T08:16:59.334Z</time></trkpt><trkpt lat="43.6141617" lon="10.6416033"><ele>25.333333333333336</ele><time>2026-04-04T08:17:00.334Z</time></trkpt><trkpt lat="43.6139833" lon="10.6416833"><ele>25.0</ele><time>2026-04-04T08:17:01.334Z</time></trkpt><trkpt lat="43.6138133" lon="10.6417433"><ele>25.0</ele><time>2026-04-04T08:17:02.334Z</time></trkpt><trkpt lat="43.613665" lon="10.6417817"><ele>25.0</ele><time>2026-04-04T08:17:03.334Z</time></trkpt><trkpt lat="43.613515" lon="10.6418383"><ele>25.0</ele><time>2026-04-04T08:17:04.335Z</time></trkpt><trkpt lat="43.61337" lon="10.6419083"><ele>25.75</ele><time>2026-04-04T08:17:05.334Z</time></trkpt><trkpt lat="43.6132567" lon="10.6420067"><ele>26.5</ele><time>2026-04-04T08:17:06.335Z</time></trkpt><trkpt lat="43.613125" lon="10.6421133"><ele>27.25</ele><time>2026-04-04T08:17:07.334Z</time></trkpt><trkpt lat="43.61299" lon="10.6422367"><ele>28.0</ele><time>2026-04-04T08:17:08.335Z</time></trkpt><trkpt lat="43.6128367" lon="10.64236"><ele>28.333333333333336</ele><time>2026-04-04T08:17:09.334Z</time></trkpt><trkpt lat="43.6127" lon="10.6424617"><ele>28.666666666666664</ele><time>2026-04-04T08:17:10.335Z</time></trkpt><trkpt lat="43.6125633" lon="10.6425383"><ele>29.0</ele><time>2026-04-04T08:17:11.334Z</time></trkpt><trkpt lat="43.6124033" lon="10.6425883"><ele>29.0</ele><time>2026-04-04T08:17:12.335Z</time></trkpt><trkpt lat="43.6122417" lon="10.6426267"><ele>29.0</ele><time>2026-04-04T08:17:13.335Z</time></trkpt><trkpt lat="43.6120333" lon="10.6426767"><ele>29.0</ele><time>2026-04-04T08:17:14.335Z</time></trkpt><trkpt lat="43.611875" lon="10.6427583"><ele>29.333333333333332</ele><time>2026-04-04T08:17:15.334Z</time></trkpt><trkpt lat="43.6116983" lon="10.6428333"><ele>29.666666666666664</ele><time>2026-04-04T08:17:16.334Z</time></trkpt><trkpt lat="43.6115667" lon="10.642895"><ele>30.0</ele><time>2026-04-04T08:17:17.335Z</time></trkpt><trkpt lat="43.611445" lon="10.6429467"><ele>30.0</ele><time>2026-04-04T08:17:18.335Z</time></trkpt><trkpt lat="43.61133" lon="10.6429717"><ele>30.0</ele><time>2026-04-04T08:17:19.334Z</time></trkpt><trkpt lat="43.6112267" lon="10.64299"><ele>30.0</ele><time>2026-04-04T08:17:20.335Z</time></trkpt><trkpt lat="43.61114" lon="10.643015"><ele>30.0</ele><time>2026-04-04T08:17:21.334Z</time></trkpt><trkpt lat="43.6110433" lon="10.64304"><ele>30.0</ele><time>2026-04-04T08:17:22.334Z</time></trkpt><trkpt lat="43.610935" lon="10.643045"><ele>30.25</ele><time>2026-04-04T08:17:23.334Z</time></trkpt><trkpt lat="43.61081" lon="10.6429983"><ele>30.5</ele><time>2026-04-04T08:17:24.335Z</time></trkpt><trkpt lat="43.6107017" lon="10.6429317"><ele>30.75</ele><time>2026-04-04T08:17:25.334Z</time></trkpt><trkpt lat="43.6105967" lon="10.64285"><ele>31.0</ele><time>2026-04-04T08:17:26.335Z</time></trkpt><trkpt lat="43.6104883" lon="10.642785"><ele>30.75</ele><time>2026-04-04T08:17:27.334Z</time></trkpt><trkpt lat="43.6103583" lon="10.64276"><ele>30.5</ele><time>2026-04-04T08:17:28.334Z</time></trkpt><trkpt lat="43.6102517" lon="10.6427733"><ele>30.25</ele><time>2026-04-04T08:17:29.334Z</time></trkpt><trkpt lat="43.6101517" lon="10.642835"><ele>30.0</ele><time>2026-04-04T08:17:30.334Z</time></trkpt><trkpt lat="43.6100683" lon="10.6429317"><ele>30.0</ele><time>2026-04-04T08:17:31.334Z</time></trkpt><trkpt lat="43.61" lon="10.6430517"><ele>30.0</ele><time>2026-04-04T08:17:32.334Z</time></trkpt><trkpt lat="43.60997" lon="10.6431967"><ele>30.0</ele><time>2026-04-04T08:17:33.334Z</time></trkpt><trkpt lat="43.6099733" lon="10.6433567"><ele>30.0</ele><time>2026-04-04T08:17:34.334Z</time></trkpt><trkpt lat="43.6099933" lon="10.6434983"><ele>30.0</ele><time>2026-04-04T08:17:35.334Z</time></trkpt><trkpt lat="43.6100183" lon="10.6436217"><ele>30.666666666666668</ele><time>2026-04-04T08:17:36.334Z</time></trkpt><trkpt lat="43.61002" lon="10.64374"><ele>31.333333333333336</ele><time>2026-04-04T08:17:37.334Z</time></trkpt><trkpt lat="43.6100183" lon="10.6438517"><ele>32.0</ele><time>2026-04-04T08:17:38.335Z</time></trkpt><trkpt lat="43.6099833" lon="10.6439417"><ele>32.66666666666667</ele><time>2026-04-04T08:17:39.335Z</time></trkpt><trkpt lat="43.60993" lon="10.6440167"><ele>33.333333333333336</ele><time>2026-04-04T08:17:40.335Z</time></trkpt><trkpt lat="43.60987" lon="10.6440667"><ele>34.0</ele><time>2026-04-04T08:17:41.334Z</time></trkpt><trkpt lat="43.6097417" lon="10.64407"><ele>34.0</ele><time>2026-04-04T08:17:43.334Z</time></trkpt><trkpt lat="43.6096667" lon="10.6440117"><ele>34.0</ele><time>2026-04-04T08:17:44.334Z</time></trkpt><trkpt lat="43.6095967" lon="10.643955"><ele>34.0</ele><time>2026-04-04T08:17:45.335Z</time></trkpt><trkpt lat="43.6095367" lon="10.643875"><ele>34.0</ele><time>2026-04-04T08:17:46.334Z</time></trkpt><trkpt lat="43.6095133" lon="10.64373"><ele>34.0</ele><time>2026-04-04T08:17:47.334Z</time></trkpt><trkpt lat="43.60948" lon="10.64362"><ele>34.0</ele><time>2026-04-04T08:17:48.334Z</time></trkpt><trkpt lat="43.60945" lon="10.6435083"><ele>33.0</ele><time>2026-04-04T08:17:49.335Z</time></trkpt><trkpt lat="43.6094217" lon="10.6434"><ele>32.0</ele><time>2026-04-04T08:17:50.334Z</time></trkpt><trkpt lat="43.6093867" lon="10.6432933"><ele>31.0</ele><time>2026-04-04T08:17:51.334Z</time></trkpt><trkpt lat="43.6093417" lon="10.64319"><ele>30.0</ele><time>2026-04-04T08:17:52.335Z</time></trkpt><trkpt lat="43.60928" lon="10.6430967"><ele>29.000000000000004</ele><time>2026-04-04T08:17:53.334Z</time></trkpt><trkpt lat="43.609205" lon="10.643015"><ele>28.0</ele><time>2026-04-04T08:17:54.334Z</time></trkpt><trkpt lat="43.60911" lon="10.6429683"><ele>28.0</ele><time>2026-04-04T08:17:55.335Z</time></trkpt><trkpt lat="43.609" lon="10.6429283"><ele>28.0</ele><time>2026-04-04T08:17:56.334Z</time></trkpt><trkpt lat="43.60888" lon="10.642905"><ele>28.0</ele><time>2026-04-04T08:17:57.334Z</time></trkpt><trkpt lat="43.6087483" lon="10.6429017"><ele>28.0</ele><time>2026-04-04T08:17:58.335Z</time></trkpt><trkpt lat="43.6086133" lon="10.6428917"><ele>27.0</ele><time>2026-04-04T08:17:59.334Z</time></trkpt><trkpt lat="43.6084633" lon="10.6428667"><ele>26.0</ele><time>2026-04-04T08:18:00.334Z</time></trkpt><trkpt lat="43.6083167" lon="10.64284"><ele>25.0</ele><time>2026-04-04T08:18:01.334Z</time></trkpt><trkpt lat="43.6081483" lon="10.64282"><ele>25.0</ele><time>2026-04-04T08:18:02.335Z</time></trkpt><trkpt lat="43.6079767" lon="10.6428067"><ele>25.0</ele><time>2026-04-04T08:18:03.335Z</time></trkpt><trkpt lat="43.6078117" lon="10.6427883"><ele>25.0</ele><time>2026-04-04T08:18:04.334Z</time></trkpt><trkpt lat="43.60764" lon="10.6427567"><ele>26.0</ele><time>2026-04-04T08:18:05.334Z</time></trkpt><trkpt lat="43.6074667" lon="10.64273"><ele>27.0</ele><time>2026-04-04T08:18:06.334Z</time></trkpt><trkpt lat="43.6072933" lon="10.6427067"><ele>28.0</ele><time>2026-04-04T08:18:07.334Z</time></trkpt><trkpt lat="43.6071167" lon="10.64268"><ele>29.0</ele><time>2026-04-04T08:18:08.334Z</time></trkpt><trkpt lat="43.6069517" lon="10.6426667"><ele>30.0</ele><time>2026-04-04T08:18:09.334Z</time></trkpt><trkpt lat="43.60679" lon="10.64265"><ele>31.0</ele><time>2026-04-04T08:18:10.334Z</time></trkpt><trkpt lat="43.60662" lon="10.6426267"><ele>31.0</ele><time>2026-04-04T08:18:11.335Z</time></trkpt><trkpt lat="43.60644" lon="10.6426017"><ele>31.0</ele><time>2026-04-04T08:18:12.334Z</time></trkpt><trkpt lat="43.6062683" lon="10.6425767"><ele>31.0</ele><time>2026-04-04T08:18:13.334Z</time></trkpt><trkpt lat="43.6061083" lon="10.6425617"><ele>31.25</ele><time>2026-04-04T08:18:14.334Z</time></trkpt><trkpt lat="43.6059633" lon="10.6425467"><ele>31.5</ele><time>2026-04-04T08:18:15.334Z</time></trkpt><trkpt lat="43.6058283" lon="10.6425183"><ele>31.75</ele><time>2026-04-04T08:18:16.335Z</time></trkpt><trkpt lat="43.6057067" lon="10.642505"><ele>32.0</ele><time>2026-04-04T08:18:17.334Z</time></trkpt><trkpt lat="43.605595" lon="10.6424867"><ele>32.0</ele><time>2026-04-04T08:18:18.335Z</time></trkpt><trkpt lat="43.605475" lon="10.642475"><ele>32.0</ele><time>2026-04-04T08:18:19.334Z</time></trkpt><trkpt lat="43.6053533" lon="10.642465"><ele>32.0</ele><time>2026-04-04T08:18:20.334Z</time></trkpt><trkpt lat="43.60522" lon="10.6424567"><ele>32.0</ele><time>2026-04-04T08:18:21.334Z</time></trkpt><trkpt lat="43.605075" lon="10.642445"><ele>32.0</ele><time>2026-04-04T08:18:22.335Z</time></trkpt><trkpt lat="43.6049133" lon="10.6424233"><ele>32.0</ele><time>2026-04-04T08:18:23.334Z</time></trkpt><trkpt lat="43.60475" lon="10.6424067"><ele>32.0</ele><time>2026-04-04T08:18:24.334Z</time></trkpt><trkpt lat="43.6045917" lon="10.6424067"><ele>32.33333333333333</ele><time>2026-04-04T08:18:25.334Z</time></trkpt><trkpt lat="43.60442" lon="10.6424033"><ele>32.666666666666664</ele><time>2026-04-04T08:18:26.335Z</time></trkpt><trkpt lat="43.6042483" lon="10.6424"><ele>33.0</ele><time>2026-04-04T08:18:27.334Z</time></trkpt><trkpt lat="43.6040783" lon="10.642395"><ele>33.0</ele><time>2026-04-04T08:18:28.334Z</time></trkpt><trkpt lat="43.603905" lon="10.6423917"><ele>33.0</ele><time>2026-04-04T08:18:29.335Z</time></trkpt><trkpt lat="43.60372" lon="10.6423867"><ele>33.0</ele><time>2026-04-04T08:18:30.334Z</time></trkpt><trkpt lat="43.60354" lon="10.6423867"><ele>31.666666666666664</ele><time>2026-04-04T08:18:31.334Z</time></trkpt><trkpt lat="43.603365" lon="10.6423917"><ele>30.333333333333332</ele><time>2026-04-04T08:18:32.335Z</time></trkpt><trkpt lat="43.603195" lon="10.6423833"><ele>29.0</ele><time>2026-04-04T08:18:33.334Z</time></trkpt><trkpt lat="43.60301" lon="10.6423933"><ele>29.0</ele><time>2026-04-04T08:18:34.334Z</time></trkpt><trkpt lat="43.602835" lon="10.642385"><ele>29.0</ele><time>2026-04-04T08:18:35.334Z</time></trkpt><trkpt lat="43.602655" lon="10.64238"><ele>29.0</ele><time>2026-04-04T08:18:36.334Z</time></trkpt><trkpt lat="43.6024833" lon="10.6423783"><ele>28.666666666666664</ele><time>2026-04-04T08:18:37.334Z</time></trkpt><trkpt lat="43.6023067" lon="10.6423717"><ele>28.333333333333336</ele><time>2026-04-04T08:18:38.334Z</time></trkpt><trkpt lat="43.6021333" lon="10.6423683"><ele>28.0</ele><time>2026-04-04T08:18:39.334Z</time></trkpt><trkpt lat="43.6019667" lon="10.6423683"><ele>28.0</ele><time>2026-04-04T08:18:40.335Z</time></trkpt><trkpt lat="43.6017933" lon="10.642375"><ele>28.0</ele><time>2026-04-04T08:18:41.334Z</time></trkpt><trkpt lat="43.6016217" lon="10.6423833"><ele>28.0</ele><time>2026-04-04T08:18:42.334Z</time></trkpt><trkpt lat="43.6014433" lon="10.6423917"><ele>28.0</ele><time>2026-04-04T08:18:43.334Z</time></trkpt><trkpt lat="43.6012767" lon="10.642385"><ele>28.0</ele><time>2026-04-04T08:18:44.334Z</time></trkpt><trkpt lat="43.60111" lon="10.6423733"><ele>28.0</ele><time>2026-04-04T08:18:45.335Z</time></trkpt><trkpt lat="43.6009533" lon="10.642375"><ele>28.0</ele><time>2026-04-04T08:18:46.334Z</time></trkpt><trkpt lat="43.6007883" lon="10.64236"><ele>28.0</ele><time>2026-04-04T08:18:47.334Z</time></trkpt><trkpt lat="43.60062" lon="10.6423633"><ele>28.0</ele><time>2026-04-04T08:18:48.335Z</time></trkpt><trkpt lat="43.6004517" lon="10.6423517"><ele>27.0</ele><time>2026-04-04T08:18:49.334Z</time></trkpt><trkpt lat="43.6002783" lon="10.642345"><ele>26.0</ele><time>2026-04-04T08:18:50.334Z</time></trkpt><trkpt lat="43.6001083" lon="10.642345"><ele>25.0</ele><time>2026-04-04T08:18:51.334Z</time></trkpt><trkpt lat="43.59994" lon="10.6423333"><ele>25.0</ele><time>2026-04-04T08:18:52.335Z</time></trkpt><trkpt lat="43.5997717" lon="10.6423333"><ele>25.0</ele><time>2026-04-04T08:18:53.334Z</time></trkpt><trkpt lat="43.5996067" lon="10.6423233"><ele>25.0</ele><time>2026-04-04T08:18:54.334Z</time></trkpt><trkpt lat="43.5994483" lon="10.6423217"><ele>25.0</ele><time>2026-04-04T08:18:55.334Z</time></trkpt><trkpt lat="43.5992933" lon="10.642325"><ele>25.0</ele><time>2026-04-04T08:18:56.334Z</time></trkpt><trkpt lat="43.59915" lon="10.64232"><ele>25.0</ele><time>2026-04-04T08:18:57.334Z</time></trkpt><trkpt lat="43.599015" lon="10.6423167"><ele>25.0</ele><time>2026-04-04T08:18:58.334Z</time></trkpt><trkpt lat="43.59889" lon="10.6423233"><ele>25.0</ele><time>2026-04-04T08:18:59.334Z</time></trkpt><trkpt lat="43.59879" lon="10.642325"><ele>25.0</ele><time>2026-04-04T08:19:00.334Z</time></trkpt><trkpt lat="43.5987233" lon="10.6423217"><ele>25.0</ele><time>2026-04-04T08:19:01.334Z</time></trkpt><trkpt lat="43.5986083" lon="10.6423783"><ele>25.0</ele><time>2026-04-04T08:19:03.335Z</time></trkpt><trkpt lat="43.5985283" lon="10.6425283"><ele>25.0</ele><time>2026-04-04T08:19:05.335Z</time></trkpt><trkpt lat="43.59848" lon="10.6426233"><ele>25.166666666666668</ele><time>2026-04-04T08:19:06.334Z</time></trkpt><trkpt lat="43.5984383" lon="10.6427267"><ele>25.333333333333336</ele><time>2026-04-04T08:19:07.334Z</time></trkpt><trkpt lat="43.59839" lon="10.6428383"><ele>25.5</ele><time>2026-04-04T08:19:08.334Z</time></trkpt><trkpt lat="43.5983533" lon="10.6429233"><ele>25.666666666666664</ele><time>2026-04-04T08:19:09.335Z</time></trkpt><trkpt lat="43.5983167" lon="10.643015"><ele>25.833333333333332</ele><time>2026-04-04T08:19:10.334Z</time></trkpt><trkpt lat="43.5982683" lon="10.6431233"><ele>26.0</ele><time>2026-04-04T08:19:11.335Z</time></trkpt><trkpt lat="43.59822" lon="10.64324"><ele>26.166666666666664</ele><time>2026-04-04T08:19:12.334Z</time></trkpt><trkpt lat="43.5981767" lon="10.6433467"><ele>26.333333333333332</ele><time>2026-04-04T08:19:13.335Z</time></trkpt><trkpt lat="43.598145" lon="10.6434417"><ele>26.5</ele><time>2026-04-04T08:19:14.334Z</time></trkpt><trkpt lat="43.5980983" lon="10.6435433"><ele>26.666666666666664</ele><time>2026-04-04T08:19:15.334Z</time></trkpt><trkpt lat="43.5980717" lon="10.6436533"><ele>26.833333333333332</ele><time>2026-04-04T08:19:16.334Z</time></trkpt><trkpt lat="43.5980133" lon="10.6437617"><ele>27.0</ele><time>2026-04-04T08:19:17.334Z</time></trkpt><trkpt lat="43.59796" lon="10.6438733"><ele>27.5</ele><time>2026-04-04T08:19:18.334Z</time></trkpt><trkpt lat="43.5979233" lon="10.6439733"><ele>28.0</ele><time>2026-04-04T08:19:19.334Z</time></trkpt><trkpt lat="43.59788" lon="10.6440833"><ele>28.5</ele><time>2026-04-04T08:19:20.334Z</time></trkpt><trkpt lat="43.597845" lon="10.6441733"><ele>29.0</ele><time>2026-04-04T08:19:21.334Z</time></trkpt><trkpt lat="43.5977983" lon="10.644265"><ele>29.5</ele><time>2026-04-04T08:19:22.335Z</time></trkpt><trkpt lat="43.5977567" lon="10.6443633"><ele>30.0</ele><time>2026-04-04T08:19:23.334Z</time></trkpt><trkpt lat="43.5977267" lon="10.644455"><ele>30.8</ele><time>2026-04-04T08:19:24.335Z</time></trkpt><trkpt lat="43.5977117" lon="10.6445933"><ele>31.6</ele><time>2026-04-04T08:19:26.334Z</time></trkpt><trkpt lat="43.5977567" lon="10.64468"><ele>32.4</ele><time>2026-04-04T08:19:27.334Z</time></trkpt><trkpt lat="43.5978267" lon="10.6447933"><ele>33.2</ele><time>2026-04-04T08:19:28.334Z</time></trkpt><trkpt lat="43.597905" lon="10.6449067"><ele>34.0</ele><time>2026-04-04T08:19:29.335Z</time></trkpt><trkpt lat="43.5979883" lon="10.6450433"><ele>34.0</ele><time>2026-04-04T08:19:30.334Z</time></trkpt><trkpt lat="43.5980667" lon="10.6451667"><ele>34.0</ele><time>2026-04-04T08:19:31.335Z</time></trkpt><trkpt lat="43.59815" lon="10.6452883"><ele>34.0</ele><time>2026-04-04T08:19:32.335Z</time></trkpt><trkpt lat="43.59822" lon="10.6454133"><ele>34.0</ele><time>2026-04-04T08:19:33.334Z</time></trkpt><trkpt lat="43.5982983" lon="10.645535"><ele>34.25</ele><time>2026-04-04T08:19:34.335Z</time></trkpt><trkpt lat="43.598385" lon="10.6456517"><ele>34.5</ele><time>2026-04-04T08:19:35.334Z</time></trkpt><trkpt lat="43.598475" lon="10.6457767"><ele>34.75</ele><time>2026-04-04T08:19:36.334Z</time></trkpt><trkpt lat="43.598555" lon="10.6458933"><ele>35.0</ele><time>2026-04-04T08:19:37.334Z</time></trkpt><trkpt lat="43.598605" lon="10.6459983"><ele>35.0</ele><time>2026-04-04T08:19:38.334Z</time></trkpt><trkpt lat="43.598645" lon="10.646085"><ele>35.0</ele><time>2026-04-04T08:19:39.334Z</time></trkpt><trkpt lat="43.59869" lon="10.6461783"><ele>35.0</ele><time>2026-04-04T08:19:40.334Z</time></trkpt><trkpt lat="43.59873" lon="10.6462767"><ele>35.0</ele><time>2026-04-04T08:19:41.334Z</time></trkpt><trkpt lat="43.598765" lon="10.6463783"><ele>35.0</ele><time>2026-04-04T08:19:42.334Z</time></trkpt><trkpt lat="43.5987967" lon="10.6464633"><ele>35.0</ele><time>2026-04-04T08:19:43.334Z</time></trkpt><trkpt lat="43.5988033" lon="10.64657"><ele>37.33333333333333</ele><time>2026-04-04T08:19:44.335Z</time></trkpt><trkpt lat="43.5987933" lon="10.646665"><ele>39.666666666666664</ele><time>2026-04-04T08:19:45.334Z</time></trkpt><trkpt lat="43.598785" lon="10.646755"><ele>42.0</ele><time>2026-04-04T08:19:46.334Z</time></trkpt><trkpt lat="43.5987817" lon="10.64685"><ele>44.33333333333333</ele><time>2026-04-04T08:19:47.335Z</time></trkpt><trkpt lat="43.59877" lon="10.64697"><ele>46.666666666666664</ele><time>2026-04-04T08:19:48.335Z</time></trkpt><trkpt lat="43.5987633" lon="10.6470917"><ele>49.0</ele><time>2026-04-04T08:19:49.334Z</time></trkpt><trkpt lat="43.5987533" lon="10.6472167"><ele>48.49999999999999</ele><time>2026-04-04T08:19:50.334Z</time></trkpt><trkpt lat="43.59873" lon="10.6473417"><ele>48.0</ele><time>2026-04-04T08:19:51.334Z</time></trkpt><trkpt lat="43.5987133" lon="10.6474617"><ele>47.5</ele><time>2026-04-04T08:19:52.335Z</time></trkpt><trkpt lat="43.5986817" lon="10.6475833"><ele>47.0</ele><time>2026-04-04T08:19:53.334Z</time></trkpt><trkpt lat="43.598655" lon="10.647695"><ele>46.5</ele><time>2026-04-04T08:19:54.335Z</time></trkpt><trkpt lat="43.5986417" lon="10.647815"><ele>46.0</ele><time>2026-04-04T08:19:55.334Z</time></trkpt><trkpt lat="43.5986367" lon="10.6479467"><ele>46.0</ele><time>2026-04-04T08:19:56.335Z</time></trkpt><trkpt lat="43.5986183" lon="10.6480817"><ele>46.0</ele><time>2026-04-04T08:19:57.334Z</time></trkpt><trkpt lat="43.598615" lon="10.6481833"><ele>46.0</ele><time>2026-04-04T08:19:58.335Z</time></trkpt><trkpt lat="43.5986283" lon="10.64828"><ele>46.0</ele><time>2026-04-04T08:19:59.335Z</time></trkpt><trkpt lat="43.5986433" lon="10.64837"><ele>46.0</ele><time>2026-04-04T08:20:00.335Z</time></trkpt><trkpt lat="43.598665" lon="10.6484533"><ele>46.0</ele><time>2026-04-04T08:20:01.334Z</time></trkpt><trkpt lat="43.5987233" lon="10.6485967"><ele>49.8</ele><time>2026-04-04T08:20:03.334Z</time></trkpt><trkpt lat="43.598775" lon="10.6487317"><ele>53.599999999999994</ele><time>2026-04-04T08:20:05.334Z</time></trkpt><trkpt lat="43.5988283" lon="10.6488633"><ele>57.4</ele><time>2026-04-04T08:20:07.335Z</time></trkpt><trkpt lat="43.5988617" lon="10.6489583"><ele>61.2</ele><time>2026-04-04T08:20:08.334Z</time></trkpt><trkpt lat="43.5988833" lon="10.6490517"><ele>65.0</ele><time>2026-04-04T08:20:09.334Z</time></trkpt><trkpt lat="43.5988967" lon="10.6491683"><ele>65.0</ele><time>2026-04-04T08:20:10.334Z</time></trkpt><trkpt lat="43.5989033" lon="10.649285"><ele>65.0</ele><time>2026-04-04T08:20:11.334Z</time></trkpt><trkpt lat="43.5989" lon="10.64939"><ele>65.0</ele><time>2026-04-04T08:20:12.335Z</time></trkpt><trkpt lat="43.5988917" lon="10.64949"><ele>65.0</ele><time>2026-04-04T08:20:13.335Z</time></trkpt><trkpt lat="43.5988733" lon="10.649605"><ele>65.0</ele><time>2026-04-04T08:20:14.334Z</time></trkpt><trkpt lat="43.598855" lon="10.6497017"><ele>65.0</ele><time>2026-04-04T08:20:15.334Z</time></trkpt><trkpt lat="43.5988267" lon="10.649795"><ele>64.8</ele><time>2026-04-04T08:20:16.334Z</time></trkpt><trkpt lat="43.59875" lon="10.6499217"><ele>64.6</ele><time>2026-04-04T08:20:18.334Z</time></trkpt><trkpt lat="43.598685" lon="10.65002"><ele>64.4</ele><time>2026-04-04T08:20:20.334Z</time></trkpt><trkpt lat="43.59862" lon="10.650065"><ele>64.2</ele><time>2026-04-04T08:20:22.334Z</time></trkpt><trkpt lat="43.5985167" lon="10.650095"><ele>64.0</ele><time>2026-04-04T08:20:24.334Z</time></trkpt><trkpt lat="43.5984467" lon="10.6501117"><ele>63.99999999999999</ele><time>2026-04-04T08:20:25.335Z</time></trkpt><trkpt lat="43.5983617" lon="10.650125"><ele>64.0</ele><time>2026-04-04T08:20:26.334Z</time></trkpt><trkpt lat="43.5982683" lon="10.65016"><ele>64.0</ele><time>2026-04-04T08:20:27.334Z</time></trkpt><trkpt lat="43.5981833" lon="10.6501917"><ele>64.0</ele><time>2026-04-04T08:20:28.334Z</time></trkpt><trkpt lat="43.5981033" lon="10.650235"><ele>63.99999999999999</ele><time>2026-04-04T08:20:29.334Z</time></trkpt><trkpt lat="43.59803" lon="10.6502867"><ele>64.0</ele><time>2026-04-04T08:20:30.334Z</time></trkpt><trkpt lat="43.5979617" lon="10.6503333"><ele>63.400000000000006</ele><time>2026-04-04T08:20:31.334Z</time></trkpt><trkpt lat="43.59789" lon="10.6504083"><ele>62.800000000000004</ele><time>2026-04-04T08:20:32.335Z</time></trkpt><trkpt lat="43.5978083" lon="10.6505"><ele>62.199999999999996</ele><time>2026-04-04T08:20:33.335Z</time></trkpt><trkpt lat="43.5977383" lon="10.6506167"><ele>61.599999999999994</ele><time>2026-04-04T08:20:34.334Z</time></trkpt><trkpt lat="43.5976717" lon="10.650755"><ele>61.0</ele><time>2026-04-04T08:20:35.334Z</time></trkpt><trkpt lat="43.5975983" lon="10.6508917"><ele>62.5</ele><time>2026-04-04T08:20:36.334Z</time></trkpt><trkpt lat="43.59754" lon="10.6510433"><ele>64.0</ele><time>2026-04-04T08:20:37.334Z</time></trkpt><trkpt lat="43.59748" lon="10.6511933"><ele>65.5</ele><time>2026-04-04T08:20:38.335Z</time></trkpt><trkpt lat="43.5974217" lon="10.6513483"><ele>67.0</ele><time>2026-04-04T08:20:39.334Z</time></trkpt><trkpt lat="43.597355" lon="10.6515167"><ele>68.25</ele><time>2026-04-04T08:20:40.334Z</time></trkpt><trkpt lat="43.5972983" lon="10.6516567"><ele>69.5</ele><time>2026-04-04T08:20:41.334Z</time></trkpt><trkpt lat="43.5972433" lon="10.65181"><ele>70.75</ele><time>2026-04-04T08:20:42.335Z</time></trkpt><trkpt lat="43.5971883" lon="10.651965"><ele>72.0</ele><time>2026-04-04T08:20:43.334Z</time></trkpt><trkpt lat="43.5971383" lon="10.65211"><ele>72.4</ele><time>2026-04-04T08:20:44.334Z</time></trkpt><trkpt lat="43.5970867" lon="10.652255"><ele>72.80000000000001</ele><time>2026-04-04T08:20:45.334Z</time></trkpt><trkpt lat="43.5970483" lon="10.6523883"><ele>73.2</ele><time>2026-04-04T08:20:46.334Z</time></trkpt><trkpt lat="43.597005" lon="10.6525067"><ele>73.60000000000001</ele><time>2026-04-04T08:20:47.334Z</time></trkpt><trkpt lat="43.596965" lon="10.652605"><ele>74.0</ele><time>2026-04-04T08:20:48.334Z</time></trkpt><trkpt lat="43.5969167" lon="10.65267"><ele>74.2</ele><time>2026-04-04T08:20:49.334Z</time></trkpt><trkpt lat="43.5968083" lon="10.6527133"><ele>74.4</ele><time>2026-04-04T08:20:51.334Z</time></trkpt><trkpt lat="43.596685" lon="10.65277"><ele>74.6</ele><time>2026-04-04T08:20:53.334Z</time></trkpt><trkpt lat="43.5966117" lon="10.6528067"><ele>74.8</ele><time>2026-04-04T08:20:54.334Z</time></trkpt><trkpt lat="43.596545" lon="10.6528567"><ele>75.0</ele><time>2026-04-04T08:20:55.334Z</time></trkpt><trkpt lat="43.59649" lon="10.65291"><ele>75.0</ele><time>2026-04-04T08:20:56.334Z</time></trkpt><trkpt lat="43.59643" lon="10.6529833"><ele>75.0</ele><time>2026-04-04T08:20:57.334Z</time></trkpt><trkpt lat="43.596375" lon="10.653065"><ele>75.0</ele><time>2026-04-04T08:20:58.334Z</time></trkpt><trkpt lat="43.5963383" lon="10.65316"><ele>75.0</ele><time>2026-04-04T08:20:59.334Z</time></trkpt><trkpt lat="43.5963083" lon="10.653255"><ele>75.0</ele><time>2026-04-04T08:21:00.334Z</time></trkpt><trkpt lat="43.5962783" lon="10.6533483"><ele>75.0</ele><time>2026-04-04T08:21:01.334Z</time></trkpt><trkpt lat="43.5962467" lon="10.653435"><ele>73.66666666666667</ele><time>2026-04-04T08:21:02.334Z</time></trkpt><trkpt lat="43.5961567" lon="10.65357"><ele>72.33333333333333</ele><time>2026-04-04T08:21:04.335Z</time></trkpt><trkpt lat="43.596095" lon="10.6536317"><ele>71.0</ele><time>2026-04-04T08:21:05.335Z</time></trkpt><trkpt lat="43.5960233" lon="10.6536717"><ele>69.66666666666666</ele><time>2026-04-04T08:21:06.334Z</time></trkpt><trkpt lat="43.5959517" lon="10.653705"><ele>68.33333333333333</ele><time>2026-04-04T08:21:07.335Z</time></trkpt><trkpt lat="43.5958933" lon="10.6537417"><ele>67.0</ele><time>2026-04-04T08:21:08.334Z</time></trkpt><trkpt lat="43.5958367" lon="10.6537867"><ele>66.66666666666666</ele><time>2026-04-04T08:21:09.335Z</time></trkpt><trkpt lat="43.5957733" lon="10.6538383"><ele>66.33333333333333</ele><time>2026-04-04T08:21:10.335Z</time></trkpt><trkpt lat="43.5957133" lon="10.6538833"><ele>66.0</ele><time>2026-04-04T08:21:11.335Z</time></trkpt><trkpt lat="43.595655" lon="10.6539267"><ele>65.66666666666667</ele><time>2026-04-04T08:21:12.334Z</time></trkpt><trkpt lat="43.5955833" lon="10.65397"><ele>65.33333333333334</ele><time>2026-04-04T08:21:13.334Z</time></trkpt><trkpt lat="43.59551" lon="10.6540133"><ele>65.0</ele><time>2026-04-04T08:21:14.334Z</time></trkpt><trkpt lat="43.5954317" lon="10.6540633"><ele>65.0</ele><time>2026-04-04T08:21:15.334Z</time></trkpt><trkpt lat="43.5953583" lon="10.65411"><ele>65.0</ele><time>2026-04-04T08:21:16.334Z</time></trkpt><trkpt lat="43.5952867" lon="10.65415"><ele>65.0</ele><time>2026-04-04T08:21:17.334Z</time></trkpt><trkpt lat="43.595185" lon="10.65421"><ele>65.0</ele><time>2026-04-04T08:21:19.334Z</time></trkpt><trkpt lat="43.5951067" lon="10.6542567"><ele>65.0</ele><time>2026-04-04T08:21:21.335Z</time></trkpt><trkpt lat="43.5950267" lon="10.6542983"><ele>65.0</ele><time>2026-04-04T08:21:23.335Z</time></trkpt><trkpt lat="43.59492" lon="10.6543333"><ele>64.2</ele><time>2026-04-04T08:21:25.334Z</time></trkpt><trkpt lat="43.5948583" lon="10.65436"><ele>63.4</ele><time>2026-04-04T08:21:26.334Z</time></trkpt><trkpt lat="43.594795" lon="10.654385"><ele>62.599999999999994</ele><time>2026-04-04T08:21:27.335Z</time></trkpt><trkpt lat="43.594675" lon="10.6544183"><ele>61.8</ele><time>2026-04-04T08:21:29.335Z</time></trkpt><trkpt lat="43.5945467" lon="10.65445"><ele>61.0</ele><time>2026-04-04T08:21:31.335Z</time></trkpt><trkpt lat="43.594475" lon="10.6544683"><ele>60.99999999999999</ele><time>2026-04-04T08:21:32.335Z</time></trkpt><trkpt lat="43.5944033" lon="10.6544917"><ele>61.0</ele><time>2026-04-04T08:21:33.334Z</time></trkpt><trkpt lat="43.5943333" lon="10.6545083"><ele>61.0</ele><time>2026-04-04T08:21:34.334Z</time></trkpt><trkpt lat="43.59427" lon="10.6545167"><ele>61.0</ele><time>2026-04-04T08:21:35.334Z</time></trkpt><trkpt lat="43.5942067" lon="10.6545367"><ele>60.99999999999999</ele><time>2026-04-04T08:21:36.334Z</time></trkpt><trkpt lat="43.59409" lon="10.6545633"><ele>61.0</ele><time>2026-04-04T08:21:38.335Z</time></trkpt><trkpt lat="43.5939983" lon="10.65459"><ele>61.0</ele><time>2026-04-04T08:21:40.335Z</time></trkpt><trkpt lat="43.59389" lon="10.6546167"><ele>60.99999999999999</ele><time>2026-04-04T08:21:42.335Z</time></trkpt><trkpt lat="43.593815" lon="10.6546333"><ele>60.99999999999999</ele><time>2026-04-04T08:21:43.335Z</time></trkpt><trkpt lat="43.59373" lon="10.6546617"><ele>61.0</ele><time>2026-04-04T08:21:44.334Z</time></trkpt><trkpt lat="43.59364" lon="10.6546917"><ele>61.0</ele><time>2026-04-04T08:21:45.334Z</time></trkpt><trkpt lat="43.5935483" lon="10.6547467"><ele>61.8</ele><time>2026-04-04T08:21:46.334Z</time></trkpt><trkpt lat="43.59346" lon="10.6548083"><ele>62.599999999999994</ele><time>2026-04-04T08:21:47.334Z</time></trkpt><trkpt lat="43.5933767" lon="10.6549017"><ele>63.4</ele><time>2026-04-04T08:21:48.334Z</time></trkpt><trkpt lat="43.5932983" lon="10.6549817"><ele>64.2</ele><time>2026-04-04T08:21:49.334Z</time></trkpt><trkpt lat="43.5932167" lon="10.65508"><ele>65.0</ele><time>2026-04-04T08:21:50.335Z</time></trkpt><trkpt lat="43.5931267" lon="10.65517"><ele>65.0</ele><time>2026-04-04T08:21:51.334Z</time></trkpt><trkpt lat="43.5930583" lon="10.65527"><ele>65.0</ele><time>2026-04-04T08:21:52.334Z</time></trkpt><trkpt lat="43.5929867" lon="10.6553817"><ele>65.0</ele><time>2026-04-04T08:21:53.334Z</time></trkpt><trkpt lat="43.592915" lon="10.655495"><ele>65.0</ele><time>2026-04-04T08:21:54.334Z</time></trkpt><trkpt lat="43.59286" lon="10.6556017"><ele>65.0</ele><time>2026-04-04T08:21:55.334Z</time></trkpt><trkpt lat="43.5928033" lon="10.6557067"><ele>64.66666666666667</ele><time>2026-04-04T08:21:56.334Z</time></trkpt><trkpt lat="43.5927567" lon="10.65581"><ele>64.33333333333334</ele><time>2026-04-04T08:21:57.334Z</time></trkpt><trkpt lat="43.59272" lon="10.65591"><ele>64.0</ele><time>2026-04-04T08:21:58.334Z</time></trkpt><trkpt lat="43.5926733" lon="10.6560233"><ele>63.66666666666667</ele><time>2026-04-04T08:21:59.334Z</time></trkpt><trkpt lat="43.592645" lon="10.6561283"><ele>63.333333333333336</ele><time>2026-04-04T08:22:00.334Z</time></trkpt><trkpt lat="43.592615" lon="10.6562283"><ele>63.0</ele><time>2026-04-04T08:22:01.335Z</time></trkpt><trkpt lat="43.59259" lon="10.65632"><ele>63.0</ele><time>2026-04-04T08:22:02.334Z</time></trkpt><trkpt lat="43.592565" lon="10.6564117"><ele>63.0</ele><time>2026-04-04T08:22:03.334Z</time></trkpt><trkpt lat="43.5925283" lon="10.6565133"><ele>63.0</ele><time>2026-04-04T08:22:04.334Z</time></trkpt><trkpt lat="43.5924867" lon="10.6566133"><ele>63.0</ele><time>2026-04-04T08:22:05.334Z</time></trkpt><trkpt lat="43.5924417" lon="10.6567133"><ele>63.0</ele><time>2026-04-04T08:22:06.334Z</time></trkpt><trkpt lat="43.5923933" lon="10.65682"><ele>63.0</ele><time>2026-04-04T08:22:07.334Z</time></trkpt><trkpt lat="43.5923383" lon="10.6569217"><ele>64.2</ele><time>2026-04-04T08:22:08.334Z</time></trkpt><trkpt lat="43.5922783" lon="10.6570317"><ele>65.4</ele><time>2026-04-04T08:22:09.334Z</time></trkpt><trkpt lat="43.592215" lon="10.6571333"><ele>66.60000000000001</ele><time>2026-04-04T08:22:10.334Z</time></trkpt><trkpt lat="43.5921633" lon="10.6572467"><ele>67.8</ele><time>2026-04-04T08:22:11.335Z</time></trkpt><trkpt lat="43.5921183" lon="10.6573617"><ele>69.0</ele><time>2026-04-04T08:22:12.334Z</time></trkpt><trkpt lat="43.59208" lon="10.6574733"><ele>69.0</ele><time>2026-04-04T08:22:13.334Z</time></trkpt><trkpt lat="43.592045" lon="10.6575933"><ele>69.0</ele><time>2026-04-04T08:22:14.334Z</time></trkpt><trkpt lat="43.5920133" lon="10.6577267"><ele>69.0</ele><time>2026-04-04T08:22:15.335Z</time></trkpt><trkpt lat="43.5919833" lon="10.6578583"><ele>69.0</ele><time>2026-04-04T08:22:16.335Z</time></trkpt><trkpt lat="43.5919567" lon="10.6579917"><ele>69.0</ele><time>2026-04-04T08:22:17.335Z</time></trkpt><trkpt lat="43.591935" lon="10.6581167"><ele>69.16666666666667</ele><time>2026-04-04T08:22:18.334Z</time></trkpt><trkpt lat="43.5919167" lon="10.6582317"><ele>69.33333333333333</ele><time>2026-04-04T08:22:19.334Z</time></trkpt><trkpt lat="43.5918967" lon="10.6583517"><ele>69.5</ele><time>2026-04-04T08:22:20.334Z</time></trkpt><trkpt lat="43.5918617" lon="10.6584417"><ele>69.66666666666666</ele><time>2026-04-04T08:22:21.335Z</time></trkpt><trkpt lat="43.591835" lon="10.6585383"><ele>69.83333333333333</ele><time>2026-04-04T08:22:22.334Z</time></trkpt><trkpt lat="43.5918117" lon="10.6586367"><ele>70.0</ele><time>2026-04-04T08:22:23.334Z</time></trkpt><trkpt lat="43.5917817" lon="10.6587367"><ele>70.0</ele><time>2026-04-04T08:22:24.335Z</time></trkpt><trkpt lat="43.591745" lon="10.65883"><ele>70.0</ele><time>2026-04-04T08:22:25.334Z</time></trkpt><trkpt lat="43.5916967" lon="10.6589167"><ele>70.0</ele><time>2026-04-04T08:22:26.334Z</time></trkpt><trkpt lat="43.59163" lon="10.6590133"><ele>70.0</ele><time>2026-04-04T08:22:27.334Z</time></trkpt><trkpt lat="43.5915683" lon="10.6590917"><ele>70.0</ele><time>2026-04-04T08:22:28.335Z</time></trkpt><trkpt lat="43.5914967" lon="10.65915"><ele>70.0</ele><time>2026-04-04T08:22:29.334Z</time></trkpt><trkpt lat="43.5914183" lon="10.6591833"><ele>70.0</ele><time>2026-04-04T08:22:30.335Z</time></trkpt><trkpt lat="43.5913383" lon="10.6591983"><ele>70.0</ele><time>2026-04-04T08:22:31.334Z</time></trkpt><trkpt lat="43.5912667" lon="10.6592283"><ele>70.0</ele><time>2026-04-04T08:22:32.334Z</time></trkpt><trkpt lat="43.5911983" lon="10.6592633"><ele>70.0</ele><time>2026-04-04T08:22:33.334Z</time></trkpt><trkpt lat="43.591125" lon="10.6593067"><ele>70.0</ele><time>2026-04-04T08:22:34.334Z</time></trkpt><trkpt lat="43.5910683" lon="10.6593533"><ele>70.0</ele><time>2026-04-04T08:22:35.334Z</time></trkpt><trkpt lat="43.5909933" lon="10.6594"><ele>69.66666666666666</ele><time>2026-04-04T08:22:36.334Z</time></trkpt><trkpt lat="43.5909167" lon="10.6594467"><ele>69.33333333333333</ele><time>2026-04-04T08:22:37.335Z</time></trkpt><trkpt lat="43.59083" lon="10.6594933"><ele>69.0</ele><time>2026-04-04T08:22:38.334Z</time></trkpt><trkpt lat="43.5907517" lon="10.6595467"><ele>68.66666666666667</ele><time>2026-04-04T08:22:39.335Z</time></trkpt><trkpt lat="43.5906817" lon="10.6595883"><ele>68.33333333333334</ele><time>2026-04-04T08:22:40.334Z</time></trkpt><trkpt lat="43.59061" lon="10.659635"><ele>68.0</ele><time>2026-04-04T08:22:41.334Z</time></trkpt><trkpt lat="43.5905333" lon="10.6596833"><ele>67.16666666666667</ele><time>2026-04-04T08:22:42.333Z</time></trkpt><trkpt lat="43.5904633" lon="10.6597283"><ele>66.33333333333334</ele><time>2026-04-04T08:22:43.334Z</time></trkpt><trkpt lat="43.5903967" lon="10.6597767"><ele>65.5</ele><time>2026-04-04T08:22:44.333Z</time></trkpt><trkpt lat="43.59033" lon="10.6598283"><ele>64.66666666666667</ele><time>2026-04-04T08:22:45.333Z</time></trkpt><trkpt lat="43.5902633" lon="10.6598833"><ele>63.833333333333336</ele><time>2026-04-04T08:22:46.333Z</time></trkpt><trkpt lat="43.590185" lon="10.65994"><ele>63.0</ele><time>2026-04-04T08:22:47.333Z</time></trkpt><trkpt lat="43.5901117" lon="10.6600083"><ele>62.833333333333336</ele><time>2026-04-04T08:22:48.333Z</time></trkpt><trkpt lat="43.590035" lon="10.6600767"><ele>62.66666666666667</ele><time>2026-04-04T08:22:49.333Z</time></trkpt><trkpt lat="43.589955" lon="10.66015"><ele>62.5</ele><time>2026-04-04T08:22:50.333Z</time></trkpt><trkpt lat="43.589875" lon="10.6602267"><ele>62.333333333333336</ele><time>2026-04-04T08:22:51.333Z</time></trkpt><trkpt lat="43.5898083" lon="10.6602867"><ele>62.16666666666667</ele><time>2026-04-04T08:22:52.334Z</time></trkpt><trkpt lat="43.589745" lon="10.66036"><ele>62.0</ele><time>2026-04-04T08:22:53.334Z</time></trkpt><trkpt lat="43.589675" lon="10.6604467"><ele>61.333333333333336</ele><time>2026-04-04T08:22:54.333Z</time></trkpt><trkpt lat="43.5896133" lon="10.6605267"><ele>60.66666666666667</ele><time>2026-04-04T08:22:55.333Z</time></trkpt><trkpt lat="43.5895533" lon="10.660595"><ele>60.0</ele><time>2026-04-04T08:22:56.333Z</time></trkpt><trkpt lat="43.5894967" lon="10.6606617"><ele>59.33333333333333</ele><time>2026-04-04T08:22:57.333Z</time></trkpt><trkpt lat="43.5894317" lon="10.6607383"><ele>58.666666666666664</ele><time>2026-04-04T08:22:58.333Z</time></trkpt><trkpt lat="43.5893717" lon="10.6608183"><ele>58.0</ele><time>2026-04-04T08:22:59.333Z</time></trkpt><trkpt lat="43.589315" lon="10.660885"><ele>57.666666666666664</ele><time>2026-04-04T08:23:00.333Z</time></trkpt><trkpt lat="43.58925" lon="10.660955"><ele>57.33333333333333</ele><time>2026-04-04T08:23:01.333Z</time></trkpt><trkpt lat="43.5891833" lon="10.6610233"><ele>57.0</ele><time>2026-04-04T08:23:02.333Z</time></trkpt><trkpt lat="43.5891167" lon="10.6611017"><ele>56.66666666666667</ele><time>2026-04-04T08:23:03.333Z</time></trkpt><trkpt lat="43.5890517" lon="10.6611867"><ele>56.333333333333336</ele><time>2026-04-04T08:23:04.333Z</time></trkpt><trkpt lat="43.5889867" lon="10.6612767"><ele>56.0</ele><time>2026-04-04T08:23:05.333Z</time></trkpt><trkpt lat="43.5889283" lon="10.6613733"><ele>55.66666666666667</ele><time>2026-04-04T08:23:06.334Z</time></trkpt><trkpt lat="43.588865" lon="10.6614783"><ele>55.333333333333336</ele><time>2026-04-04T08:23:07.333Z</time></trkpt><trkpt lat="43.5888067" lon="10.6615667"><ele>55.0</ele><time>2026-04-04T08:23:08.334Z</time></trkpt><trkpt lat="43.5887533" lon="10.661655"><ele>54.66666666666667</ele><time>2026-04-04T08:23:09.333Z</time></trkpt><trkpt lat="43.5887033" lon="10.6617417"><ele>54.333333333333336</ele><time>2026-04-04T08:23:10.333Z</time></trkpt><trkpt lat="43.5886633" lon="10.6618317"><ele>54.0</ele><time>2026-04-04T08:23:11.333Z</time></trkpt><trkpt lat="43.5886167" lon="10.6619233"><ele>55.0</ele><time>2026-04-04T08:23:12.333Z</time></trkpt><trkpt lat="43.58857" lon="10.662015"><ele>56.0</ele><time>2026-04-04T08:23:13.334Z</time></trkpt><trkpt lat="43.588515" lon="10.6621033"><ele>57.0</ele><time>2026-04-04T08:23:14.333Z</time></trkpt><trkpt lat="43.5884517" lon="10.662195"><ele>58.0</ele><time>2026-04-04T08:23:15.333Z</time></trkpt><trkpt lat="43.5884033" lon="10.662295"><ele>59.0</ele><time>2026-04-04T08:23:16.334Z</time></trkpt><trkpt lat="43.5883667" lon="10.6624"><ele>60.0</ele><time>2026-04-04T08:23:17.334Z</time></trkpt><trkpt lat="43.5883233" lon="10.662485"><ele>60.0</ele><time>2026-04-04T08:23:18.333Z</time></trkpt><trkpt lat="43.5882817" lon="10.6625733"><ele>60.0</ele><time>2026-04-04T08:23:19.333Z</time></trkpt><trkpt lat="43.58824" lon="10.66266"><ele>60.0</ele><time>2026-04-04T08:23:20.333Z</time></trkpt><trkpt lat="43.58821" lon="10.66276"><ele>60.0</ele><time>2026-04-04T08:23:21.333Z</time></trkpt><trkpt lat="43.5881817" lon="10.6628583"><ele>60.0</ele><time>2026-04-04T08:23:22.333Z</time></trkpt><trkpt lat="43.5881533" lon="10.6629517"><ele>60.0</ele><time>2026-04-04T08:23:23.333Z</time></trkpt><trkpt lat="43.5881267" lon="10.6630433"><ele>60.8</ele><time>2026-04-04T08:23:24.333Z</time></trkpt><trkpt lat="43.588095" lon="10.66312"><ele>61.6</ele><time>2026-04-04T08:23:25.333Z</time></trkpt><trkpt lat="43.588035" lon="10.663245"><ele>62.400000000000006</ele><time>2026-04-04T08:23:27.334Z</time></trkpt><trkpt lat="43.5879767" lon="10.66335"><ele>63.2</ele><time>2026-04-04T08:23:29.333Z</time></trkpt><trkpt lat="43.5879" lon="10.6634733"><ele>64.0</ele><time>2026-04-04T08:23:31.334Z</time></trkpt><trkpt lat="43.58785" lon="10.6635383"><ele>64.5</ele><time>2026-04-04T08:23:32.333Z</time></trkpt><trkpt lat="43.587805" lon="10.663615"><ele>65.0</ele><time>2026-04-04T08:23:33.333Z</time></trkpt><trkpt lat="43.5877433" lon="10.663695"><ele>65.5</ele><time>2026-04-04T08:23:34.334Z</time></trkpt><trkpt lat="43.58767" lon="10.6637783"><ele>66.0</ele><time>2026-04-04T08:23:35.333Z</time></trkpt><trkpt lat="43.5876183" lon="10.663865"><ele>66.5</ele><time>2026-04-04T08:23:36.333Z</time></trkpt><trkpt lat="43.58756" lon="10.6639533"><ele>67.0</ele><time>2026-04-04T08:23:37.333Z</time></trkpt><trkpt lat="43.5875117" lon="10.6640367"><ele>67.0</ele><time>2026-04-04T08:23:38.333Z</time></trkpt><trkpt lat="43.5874683" lon="10.6641167"><ele>67.0</ele><time>2026-04-04T08:23:39.333Z</time></trkpt><trkpt lat="43.5874217" lon="10.6641967"><ele>67.0</ele><time>2026-04-04T08:23:40.333Z</time></trkpt><trkpt lat="43.5873583" lon="10.6642667"><ele>67.0</ele><time>2026-04-04T08:23:41.333Z</time></trkpt><trkpt lat="43.587295" lon="10.664335"><ele>67.0</ele><time>2026-04-04T08:23:42.333Z</time></trkpt><trkpt lat="43.5872333" lon="10.6644067"><ele>67.0</ele><time>2026-04-04T08:23:43.333Z</time></trkpt><trkpt lat="43.58718" lon="10.66447"><ele>67.16666666666666</ele><time>2026-04-04T08:23:44.333Z</time></trkpt><trkpt lat="43.5871317" lon="10.6645467"><ele>67.33333333333333</ele><time>2026-04-04T08:23:45.333Z</time></trkpt><trkpt lat="43.587095" lon="10.6646317"><ele>67.5</ele><time>2026-04-04T08:23:46.333Z</time></trkpt><trkpt lat="43.58706" lon="10.66471"><ele>67.66666666666667</ele><time>2026-04-04T08:23:47.333Z</time></trkpt><trkpt lat="43.5870183" lon="10.6647917"><ele>67.83333333333334</ele><time>2026-04-04T08:23:48.334Z</time></trkpt><trkpt lat="43.58695" lon="10.6649333"><ele>68.0</ele><time>2026-04-04T08:23:50.334Z</time></trkpt><trkpt lat="43.5868983" lon="10.6650017"><ele>68.0</ele><time>2026-04-04T08:23:51.333Z</time></trkpt><trkpt lat="43.5868317" lon="10.6650717"><ele>68.0</ele><time>2026-04-04T08:23:52.334Z</time></trkpt><trkpt lat="43.5867617" lon="10.6651383"><ele>68.0</ele><time>2026-04-04T08:23:53.333Z</time></trkpt><trkpt lat="43.5867" lon="10.6652"><ele>68.0</ele><time>2026-04-04T08:23:54.334Z</time></trkpt><trkpt lat="43.5866417" lon="10.6652717"><ele>68.0</ele><time>2026-04-04T08:23:55.333Z</time></trkpt><trkpt lat="43.5865817" lon="10.6653267"><ele>68.0</ele><time>2026-04-04T08:23:56.333Z</time></trkpt><trkpt lat="43.5865133" lon="10.6653883"><ele>69.33333333333334</ele><time>2026-04-04T08:23:57.334Z</time></trkpt><trkpt lat="43.5864567" lon="10.6654583"><ele>70.66666666666667</ele><time>2026-04-04T08:23:58.333Z</time></trkpt><trkpt lat="43.5864033" lon="10.665535"><ele>72.0</ele><time>2026-04-04T08:23:59.333Z</time></trkpt><trkpt lat="43.5863583" lon="10.6656167"><ele>73.33333333333333</ele><time>2026-04-04T08:24:00.333Z</time></trkpt><trkpt lat="43.58631" lon="10.6657017"><ele>74.66666666666666</ele><time>2026-04-04T08:24:01.333Z</time></trkpt><trkpt lat="43.5862617" lon="10.6657783"><ele>76.0</ele><time>2026-04-04T08:24:02.333Z</time></trkpt><trkpt lat="43.5862183" lon="10.665855"><ele>76.66666666666666</ele><time>2026-04-04T08:24:03.333Z</time></trkpt><trkpt lat="43.5861767" lon="10.6659383"><ele>77.33333333333333</ele><time>2026-04-04T08:24:04.333Z</time></trkpt><trkpt lat="43.5861367" lon="10.666025"><ele>78.0</ele><time>2026-04-04T08:24:05.333Z</time></trkpt><trkpt lat="43.5860983" lon="10.6661"><ele>78.66666666666667</ele><time>2026-04-04T08:24:06.333Z</time></trkpt><trkpt lat="43.5860433" lon="10.6662317"><ele>79.33333333333334</ele><time>2026-04-04T08:24:08.333Z</time></trkpt><trkpt lat="43.5860133" lon="10.6663367"><ele>80.0</ele><time>2026-04-04T08:24:11.333Z</time></trkpt><trkpt lat="43.585975" lon="10.6664133"><ele>80.2</ele><time>2026-04-04T08:24:13.333Z</time></trkpt><trkpt lat="43.585875" lon="10.6665117"><ele>80.4</ele><time>2026-04-04T08:24:15.333Z</time></trkpt><trkpt lat="43.5858033" lon="10.6665783"><ele>80.6</ele><time>2026-04-04T08:24:16.333Z</time></trkpt><trkpt lat="43.5857317" lon="10.6666517"><ele>80.8</ele><time>2026-04-04T08:24:17.333Z</time></trkpt><trkpt lat="43.5856467" lon="10.6667317"><ele>81.0</ele><time>2026-04-04T08:24:18.333Z</time></trkpt><trkpt lat="43.58556" lon="10.66682"><ele>81.0</ele><time>2026-04-04T08:24:19.334Z</time></trkpt><trkpt lat="43.5854683" lon="10.666915"><ele>81.0</ele><time>2026-04-04T08:24:20.334Z</time></trkpt><trkpt lat="43.5853717" lon="10.6669933"><ele>81.0</ele><time>2026-04-04T08:24:21.333Z</time></trkpt><trkpt lat="43.5852783" lon="10.667075"><ele>81.0</ele><time>2026-04-04T08:24:22.333Z</time></trkpt><trkpt lat="43.58518" lon="10.6671583"><ele>82.0</ele><time>2026-04-04T08:24:23.334Z</time></trkpt><trkpt lat="43.5850783" lon="10.667245"><ele>83.0</ele><time>2026-04-04T08:24:24.334Z</time></trkpt><trkpt lat="43.5849633" lon="10.6673433"><ele>84.0</ele><time>2026-04-04T08:24:25.333Z</time></trkpt><trkpt lat="43.5848683" lon="10.6674417"><ele>85.0</ele><time>2026-04-04T08:24:26.333Z</time></trkpt><trkpt lat="43.58477" lon="10.6675067"><ele>85.0</ele><time>2026-04-04T08:24:27.334Z</time></trkpt><trkpt lat="43.58469" lon="10.66757"><ele>85.0</ele><time>2026-04-04T08:24:28.334Z</time></trkpt><trkpt lat="43.584645" lon="10.6676367"><ele>85.0</ele><time>2026-04-04T08:24:29.333Z</time></trkpt><trkpt lat="43.584575" lon="10.6677433"><ele>85.0</ele><time>2026-04-04T08:24:31.334Z</time></trkpt><trkpt lat="43.584535" lon="10.66787"><ele>85.0</ele><time>2026-04-04T08:24:33.333Z</time></trkpt><trkpt lat="43.584515" lon="10.66796"><ele>85.0</ele><time>2026-04-04T08:24:34.333Z</time></trkpt><trkpt lat="43.5844833" lon="10.6680583"><ele>85.0</ele><time>2026-04-04T08:24:35.333Z</time></trkpt><trkpt lat="43.5844533" lon="10.66816"><ele>85.0</ele><time>2026-04-04T08:24:36.333Z</time></trkpt><trkpt lat="43.5844283" lon="10.6682717"><ele>85.0</ele><time>2026-04-04T08:24:37.333Z</time></trkpt><trkpt lat="43.584395" lon="10.6683833"><ele>85.0</ele><time>2026-04-04T08:24:38.333Z</time></trkpt><trkpt lat="43.5843483" lon="10.6684933"><ele>85.0</ele><time>2026-04-04T08:24:39.333Z</time></trkpt><trkpt lat="43.5842883" lon="10.668605"><ele>85.0</ele><time>2026-04-04T08:24:40.333Z</time></trkpt><trkpt lat="43.5842367" lon="10.6687133"><ele>85.0</ele><time>2026-04-04T08:24:41.333Z</time></trkpt><trkpt lat="43.5841883" lon="10.6688233"><ele>85.0</ele><time>2026-04-04T08:24:42.333Z</time></trkpt><trkpt lat="43.5841467" lon="10.668935"><ele>85.0</ele><time>2026-04-04T08:24:43.333Z</time></trkpt><trkpt lat="43.5841067" lon="10.669035"><ele>85.0</ele><time>2026-04-04T08:24:44.334Z</time></trkpt><trkpt lat="43.5840817" lon="10.6691183"><ele>85.0</ele><time>2026-04-04T08:24:45.333Z</time></trkpt><trkpt lat="43.5840083" lon="10.6692367"><ele>85.0</ele><time>2026-04-04T08:24:47.333Z</time></trkpt><trkpt lat="43.5839517" lon="10.6692917"><ele>85.0</ele><time>2026-04-04T08:24:48.333Z</time></trkpt><trkpt lat="43.5838917" lon="10.6693517"><ele>85.0</ele><time>2026-04-04T08:24:49.333Z</time></trkpt><trkpt lat="43.583815" lon="10.6694067"><ele>85.0</ele><time>2026-04-04T08:24:50.333Z</time></trkpt><trkpt lat="43.5837383" lon="10.6694733"><ele>85.0</ele><time>2026-04-04T08:24:51.333Z</time></trkpt><trkpt lat="43.583645" lon="10.6695533"><ele>85.0</ele><time>2026-04-04T08:24:52.333Z</time></trkpt><trkpt lat="43.5835533" lon="10.6696283"><ele>85.0</ele><time>2026-04-04T08:24:53.333Z</time></trkpt><trkpt lat="43.5834733" lon="10.6696983"><ele>85.0</ele><time>2026-04-04T08:24:54.333Z</time></trkpt><trkpt lat="43.5833967" lon="10.669765"><ele>85.0</ele><time>2026-04-04T08:24:55.333Z</time></trkpt><trkpt lat="43.5833133" lon="10.6698217"><ele>85.0</ele><time>2026-04-04T08:24:56.333Z</time></trkpt><trkpt lat="43.5832217" lon="10.6698867"><ele>85.0</ele><time>2026-04-04T08:24:57.333Z</time></trkpt><trkpt lat="43.5831433" lon="10.6699617"><ele>85.0</ele><time>2026-04-04T08:24:58.333Z</time></trkpt><trkpt lat="43.5830717" lon="10.67006"><ele>85.0</ele><time>2026-04-04T08:24:59.333Z</time></trkpt><trkpt lat="43.5830083" lon="10.670145"><ele>85.0</ele><time>2026-04-04T08:25:00.333Z</time></trkpt><trkpt lat="43.5829517" lon="10.6702283"><ele>85.0</ele><time>2026-04-04T08:25:01.333Z</time></trkpt><trkpt lat="43.5828783" lon="10.6702917"><ele>85.0</ele><time>2026-04-04T08:25:02.333Z</time></trkpt><trkpt lat="43.5828083" lon="10.6703467"><ele>85.0</ele><time>2026-04-04T08:25:03.333Z</time></trkpt><trkpt lat="43.5827433" lon="10.670395"><ele>85.5</ele><time>2026-04-04T08:25:04.333Z</time></trkpt><trkpt lat="43.5826717" lon="10.67044"><ele>86.0</ele><time>2026-04-04T08:25:05.334Z</time></trkpt><trkpt lat="43.5826017" lon="10.67048"><ele>86.5</ele><time>2026-04-04T08:25:06.333Z</time></trkpt><trkpt lat="43.58253" lon="10.670525"><ele>87.0</ele><time>2026-04-04T08:25:07.334Z</time></trkpt><trkpt lat="43.58246" lon="10.6705767"><ele>87.5</ele><time>2026-04-04T08:25:08.333Z</time></trkpt><trkpt lat="43.5823933" lon="10.67064"><ele>88.0</ele><time>2026-04-04T08:25:09.333Z</time></trkpt><trkpt lat="43.58234" lon="10.6706983"><ele>88.0</ele><time>2026-04-04T08:25:10.333Z</time></trkpt><trkpt lat="43.5822783" lon="10.67077"><ele>88.0</ele><time>2026-04-04T08:25:11.333Z</time></trkpt><trkpt lat="43.5822217" lon="10.6708467"><ele>88.0</ele><time>2026-04-04T08:25:12.333Z</time></trkpt><trkpt lat="43.5821583" lon="10.67091"><ele>88.0</ele><time>2026-04-04T08:25:13.334Z</time></trkpt><trkpt lat="43.5820917" lon="10.6709633"><ele>88.0</ele><time>2026-04-04T08:25:14.333Z</time></trkpt><trkpt lat="43.5820267" lon="10.671"><ele>88.0</ele><time>2026-04-04T08:25:15.333Z</time></trkpt><trkpt lat="43.5819533" lon="10.6710333"><ele>87.83333333333333</ele><time>2026-04-04T08:25:16.333Z</time></trkpt><trkpt lat="43.5818733" lon="10.6710567"><ele>87.66666666666666</ele><time>2026-04-04T08:25:17.333Z</time></trkpt><trkpt lat="43.5817667" lon="10.671075"><ele>87.5</ele><time>2026-04-04T08:25:18.333Z</time></trkpt><trkpt lat="43.5816783" lon="10.6710933"><ele>87.33333333333333</ele><time>2026-04-04T08:25:19.333Z</time></trkpt><trkpt lat="43.5815967" lon="10.6711167"><ele>87.16666666666667</ele><time>2026-04-04T08:25:20.333Z</time></trkpt><trkpt lat="43.581525" lon="10.67115"><ele>87.0</ele><time>2026-04-04T08:25:21.334Z</time></trkpt><trkpt lat="43.5814433" lon="10.6712033"><ele>86.8</ele><time>2026-04-04T08:25:22.333Z</time></trkpt><trkpt lat="43.5813633" lon="10.6712783"><ele>86.6</ele><time>2026-04-04T08:25:23.333Z</time></trkpt><trkpt lat="43.5812933" lon="10.6713683"><ele>86.39999999999999</ele><time>2026-04-04T08:25:24.333Z</time></trkpt><trkpt lat="43.5812233" lon="10.6714667"><ele>86.19999999999999</ele><time>2026-04-04T08:25:25.333Z</time></trkpt><trkpt lat="43.581155" lon="10.6715667"><ele>86.0</ele><time>2026-04-04T08:25:26.333Z</time></trkpt><trkpt lat="43.5810967" lon="10.6716667"><ele>86.0</ele><time>2026-04-04T08:25:27.333Z</time></trkpt><trkpt lat="43.5810383" lon="10.6717583"><ele>86.0</ele><time>2026-04-04T08:25:28.333Z</time></trkpt><trkpt lat="43.5809867" lon="10.67183"><ele>86.0</ele><time>2026-04-04T08:25:29.333Z</time></trkpt><trkpt lat="43.5809317" lon="10.6719133"><ele>86.0</ele><time>2026-04-04T08:25:30.333Z</time></trkpt><trkpt lat="43.58087" lon="10.6719933"><ele>86.0</ele><time>2026-04-04T08:25:31.333Z</time></trkpt><trkpt lat="43.58081" lon="10.6720783"><ele>86.0</ele><time>2026-04-04T08:25:32.333Z</time></trkpt><trkpt lat="43.580755" lon="10.6721633"><ele>85.4</ele><time>2026-04-04T08:25:33.333Z</time></trkpt><trkpt lat="43.5807033" lon="10.6722467"><ele>84.8</ele><time>2026-04-04T08:25:34.334Z</time></trkpt><trkpt lat="43.5806483" lon="10.672345"><ele>84.2</ele><time>2026-04-04T08:25:35.334Z</time></trkpt><trkpt lat="43.58058" lon="10.6724633"><ele>83.60000000000001</ele><time>2026-04-04T08:25:36.333Z</time></trkpt><trkpt lat="43.5805083" lon="10.6725733"><ele>83.0</ele><time>2026-04-04T08:25:37.334Z</time></trkpt><trkpt lat="43.58043" lon="10.6726883"><ele>83.0</ele><time>2026-04-04T08:25:38.333Z</time></trkpt><trkpt lat="43.5803633" lon="10.6727717"><ele>83.0</ele><time>2026-04-04T08:25:39.333Z</time></trkpt><trkpt lat="43.5803017" lon="10.67285"><ele>83.0</ele><time>2026-04-04T08:25:41.333Z</time></trkpt><trkpt lat="43.5802183" lon="10.6727067"><ele>83.0</ele><time>2026-04-04T08:25:45.333Z</time></trkpt><trkpt lat="43.5801817" lon="10.6726"><ele>83.0</ele><time>2026-04-04T08:25:46.333Z</time></trkpt><trkpt lat="43.58014" lon="10.67249"><ele>83.60000000000001</ele><time>2026-04-04T08:25:47.334Z</time></trkpt><trkpt lat="43.58009" lon="10.6723767"><ele>84.2</ele><time>2026-04-04T08:25:48.333Z</time></trkpt><trkpt lat="43.5800183" lon="10.672265"><ele>84.8</ele><time>2026-04-04T08:25:49.334Z</time></trkpt><trkpt lat="43.5799617" lon="10.6721583"><ele>85.4</ele><time>2026-04-04T08:25:50.333Z</time></trkpt><trkpt lat="43.5799" lon="10.6720383"><ele>86.0</ele><time>2026-04-04T08:25:51.333Z</time></trkpt><trkpt lat="43.5798333" lon="10.67192"><ele>86.0</ele><time>2026-04-04T08:25:52.334Z</time></trkpt><trkpt lat="43.579765" lon="10.6718217"><ele>86.0</ele><time>2026-04-04T08:25:53.333Z</time></trkpt><trkpt lat="43.579705" lon="10.6717417"><ele>86.0</ele><time>2026-04-04T08:25:54.334Z</time></trkpt><trkpt lat="43.5796467" lon="10.6716817"><ele>86.0</ele><time>2026-04-04T08:25:55.333Z</time></trkpt><trkpt lat="43.57956" lon="10.67165"><ele>86.0</ele><time>2026-04-04T08:25:57.334Z</time></trkpt><trkpt lat="43.57948" lon="10.6717033"><ele>86.0</ele><time>2026-04-04T08:25:59.333Z</time></trkpt><trkpt lat="43.5794333" lon="10.671765"><ele>86.0</ele><time>2026-04-04T08:26:00.333Z</time></trkpt><trkpt lat="43.579395" lon="10.6718383"><ele>86.0</ele><time>2026-04-04T08:26:01.333Z</time></trkpt><trkpt lat="43.57936" lon="10.6719567"><ele>86.0</ele><time>2026-04-04T08:26:02.333Z</time></trkpt><trkpt lat="43.5793417" lon="10.6721183"><ele>86.0</ele><time>2026-04-04T08:26:03.333Z</time></trkpt><trkpt lat="43.579325" lon="10.67235"><ele>86.0</ele><time>2026-04-04T08:26:04.333Z</time></trkpt><trkpt lat="43.5793617" lon="10.67272"><ele>76.5</ele><time>2026-04-04T08:26:05.333Z</time></trkpt><trkpt lat="43.5793983" lon="10.6730583"><ele>67.0</ele><time>2026-04-04T08:26:06.333Z</time></trkpt><trkpt lat="43.5794667" lon="10.6734167"><ele>63.5</ele><time>2026-04-04T08:26:07.333Z</time></trkpt><trkpt lat="43.57948" lon="10.6737367"><ele>60.0</ele><time>2026-04-04T08:26:08.333Z</time></trkpt><trkpt lat="43.57951" lon="10.674085"><ele>65.5</ele><time>2026-04-04T08:26:09.333Z</time></trkpt><trkpt lat="43.5795517" lon="10.6744567"><ele>71.0</ele><time>2026-04-04T08:26:10.334Z</time></trkpt><trkpt lat="43.579575" lon="10.6747983"><ele>71.0</ele><time>2026-04-04T08:26:11.333Z</time></trkpt><trkpt lat="43.5795817" lon="10.675135"><ele>71.0</ele><time>2026-04-04T08:26:12.333Z</time></trkpt><trkpt lat="43.5795983" lon="10.6754683"><ele>67.0</ele><time>2026-04-04T08:26:13.333Z</time></trkpt><trkpt lat="43.57962" lon="10.6758"><ele>63.0</ele><time>2026-04-04T08:26:14.334Z</time></trkpt><trkpt lat="43.5796417" lon="10.6761217"><ele>59.5</ele><time>2026-04-04T08:26:15.333Z</time></trkpt><trkpt lat="43.57966" lon="10.6764433"><ele>56.0</ele><time>2026-04-04T08:26:16.334Z</time></trkpt><trkpt lat="43.579675" lon="10.6767567"><ele>55.66666666666667</ele><time>2026-04-04T08:26:17.333Z</time></trkpt><trkpt lat="43.57969" lon="10.67706"><ele>55.33333333333333</ele><time>2026-04-04T08:26:18.333Z</time></trkpt><trkpt lat="43.5797" lon="10.677355"><ele>55.0</ele><time>2026-04-04T08:26:19.333Z</time></trkpt><trkpt lat="43.57971" lon="10.677645"><ele>54.0</ele><time>2026-04-04T08:26:20.333Z</time></trkpt><trkpt lat="43.5797317" lon="10.6779383"><ele>53.0</ele><time>2026-04-04T08:26:21.333Z</time></trkpt><trkpt lat="43.5797467" lon="10.6782267"><ele>52.0</ele><time>2026-04-04T08:26:22.333Z</time></trkpt><trkpt lat="43.579755" lon="10.6785033"><ele>50.33333333333333</ele><time>2026-04-04T08:26:23.333Z</time></trkpt><trkpt lat="43.5797683" lon="10.678775"><ele>48.666666666666664</ele><time>2026-04-04T08:26:24.333Z</time></trkpt><trkpt lat="43.5797767" lon="10.679035"><ele>47.0</ele><time>2026-04-04T08:26:25.333Z</time></trkpt><trkpt lat="43.5797883" lon="10.6792917"><ele>45.33333333333333</ele><time>2026-04-04T08:26:26.333Z</time></trkpt><trkpt lat="43.5797967" lon="10.6795333"><ele>43.666666666666664</ele><time>2026-04-04T08:26:27.334Z</time></trkpt><trkpt lat="43.5798067" lon="10.6797683"><ele>42.0</ele><time>2026-04-04T08:26:28.333Z</time></trkpt><trkpt lat="43.57982" lon="10.67997"><ele>42.0</ele><time>2026-04-04T08:26:29.333Z</time></trkpt><trkpt lat="43.579825" lon="10.6801217"><ele>42.0</ele><time>2026-04-04T08:26:30.333Z</time></trkpt><trkpt lat="43.5798383" lon="10.6802483"><ele>42.0</ele><time>2026-04-04T08:26:31.333Z</time></trkpt><trkpt lat="43.579855" lon="10.6803483"><ele>42.0</ele><time>2026-04-04T08:26:32.333Z</time></trkpt><trkpt lat="43.5798683" lon="10.6804333"><ele>42.0</ele><time>2026-04-04T08:26:33.333Z</time></trkpt><trkpt lat="43.5798717" lon="10.68053"><ele>42.0</ele><time>2026-04-04T08:26:34.333Z</time></trkpt><trkpt lat="43.5798767" lon="10.68063"><ele>41.4</ele><time>2026-04-04T08:26:35.333Z</time></trkpt><trkpt lat="43.5798733" lon="10.680745"><ele>40.800000000000004</ele><time>2026-04-04T08:26:36.333Z</time></trkpt><trkpt lat="43.5798767" lon="10.6808833"><ele>40.2</ele><time>2026-04-04T08:26:37.333Z</time></trkpt><trkpt lat="43.5798883" lon="10.6810483"><ele>39.6</ele><time>2026-04-04T08:26:38.333Z</time></trkpt><trkpt lat="43.5798967" lon="10.6812483"><ele>39.0</ele><time>2026-04-04T08:26:39.333Z</time></trkpt><trkpt lat="43.5799017" lon="10.6814833"><ele>39.0</ele><time>2026-04-04T08:26:40.333Z</time></trkpt><trkpt lat="43.57994" lon="10.6817283"><ele>39.0</ele><time>2026-04-04T08:26:41.333Z</time></trkpt><trkpt lat="43.57996" lon="10.6819667"><ele>39.0</ele><time>2026-04-04T08:26:42.333Z</time></trkpt><trkpt lat="43.5799633" lon="10.6821717"><ele>39.0</ele><time>2026-04-04T08:26:43.333Z</time></trkpt><trkpt lat="43.57995" lon="10.6823483"><ele>39.0</ele><time>2026-04-04T08:26:44.334Z</time></trkpt><trkpt lat="43.5799267" lon="10.6824733"><ele>39.0</ele><time>2026-04-04T08:26:45.334Z</time></trkpt><trkpt lat="43.5799" lon="10.6825783"><ele>39.0</ele><time>2026-04-04T08:26:46.333Z</time></trkpt><trkpt lat="43.579865" lon="10.6826783"><ele>39.0</ele><time>2026-04-04T08:26:47.333Z</time></trkpt><trkpt lat="43.5798283" lon="10.6827883"><ele>38.8</ele><time>2026-04-04T08:26:48.333Z</time></trkpt><trkpt lat="43.579805" lon="10.68291"><ele>38.599999999999994</ele><time>2026-04-04T08:26:49.333Z</time></trkpt><trkpt lat="43.5798183" lon="10.6830367"><ele>38.4</ele><time>2026-04-04T08:26:50.333Z</time></trkpt><trkpt lat="43.5798733" lon="10.6831767"><ele>38.199999999999996</ele><time>2026-04-04T08:26:51.333Z</time></trkpt><trkpt lat="43.5799283" lon="10.6833517"><ele>38.0</ele><time>2026-04-04T08:26:52.334Z</time></trkpt><trkpt lat="43.5799667" lon="10.6835583"><ele>37.666666666666664</ele><time>2026-04-04T08:26:53.333Z</time></trkpt><trkpt lat="43.5800017" lon="10.6838217"><ele>37.333333333333336</ele><time>2026-04-04T08:26:54.333Z</time></trkpt><trkpt lat="43.5800217" lon="10.6841133"><ele>37.0</ele><time>2026-04-04T08:26:55.334Z</time></trkpt><trkpt lat="43.5800617" lon="10.6844283"><ele>38.0</ele><time>2026-04-04T08:26:56.333Z</time></trkpt><trkpt lat="43.5800817" lon="10.684755"><ele>39.0</ele><time>2026-04-04T08:26:57.333Z</time></trkpt><trkpt lat="43.580095" lon="10.6850767"><ele>38.5</ele><time>2026-04-04T08:26:58.334Z</time></trkpt><trkpt lat="43.58011" lon="10.6854167"><ele>38.0</ele><time>2026-04-04T08:26:59.333Z</time></trkpt><trkpt lat="43.5801233" lon="10.6857783"><ele>36.0</ele><time>2026-04-04T08:27:00.333Z</time></trkpt><trkpt lat="43.5801383" lon="10.6861217"><ele>34.0</ele><time>2026-04-04T08:27:01.333Z</time></trkpt><trkpt lat="43.5801583" lon="10.6864783"><ele>34.0</ele><time>2026-04-04T08:27:02.333Z</time></trkpt><trkpt lat="43.580165" lon="10.686835"><ele>34.0</ele><time>2026-04-04T08:27:03.334Z</time></trkpt><trkpt lat="43.5801633" lon="10.6871717"><ele>35.0</ele><time>2026-04-04T08:27:04.333Z</time></trkpt><trkpt lat="43.58018" lon="10.6874983"><ele>36.0</ele><time>2026-04-04T08:27:05.333Z</time></trkpt><trkpt lat="43.580195" lon="10.68782"><ele>36.0</ele><time>2026-04-04T08:27:06.333Z</time></trkpt><trkpt lat="43.580215" lon="10.6881433"><ele>36.0</ele><time>2026-04-04T08:27:07.333Z</time></trkpt><trkpt lat="43.5802317" lon="10.6884733"><ele>35.0</ele><time>2026-04-04T08:27:08.333Z</time></trkpt><trkpt lat="43.58025" lon="10.6887933"><ele>34.0</ele><time>2026-04-04T08:27:09.333Z</time></trkpt><trkpt lat="43.5802617" lon="10.6891167"><ele>34.5</ele><time>2026-04-04T08:27:10.333Z</time></trkpt><trkpt lat="43.5802717" lon="10.6894383"><ele>35.0</ele><time>2026-04-04T08:27:11.333Z</time></trkpt><trkpt lat="43.58029" lon="10.6897517"><ele>35.0</ele><time>2026-04-04T08:27:12.333Z</time></trkpt><trkpt lat="43.5803083" lon="10.690075"><ele>35.0</ele><time>2026-04-04T08:27:13.333Z</time></trkpt><trkpt lat="43.5803217" lon="10.69039"><ele>35.0</ele><time>2026-04-04T08:27:14.333Z</time></trkpt><trkpt lat="43.5803367" lon="10.690695"><ele>35.0</ele><time>2026-04-04T08:27:15.333Z</time></trkpt><trkpt lat="43.5803533" lon="10.690995"><ele>35.0</ele><time>2026-04-04T08:27:16.333Z</time></trkpt><trkpt lat="43.5803733" lon="10.6913033"><ele>35.0</ele><time>2026-04-04T08:27:17.334Z</time></trkpt><trkpt lat="43.580395" lon="10.6916117"><ele>35.0</ele><time>2026-04-04T08:27:18.333Z</time></trkpt><trkpt lat="43.580425" lon="10.69191"><ele>35.0</ele><time>2026-04-04T08:27:19.333Z</time></trkpt><trkpt lat="43.5804767" lon="10.6922117"><ele>35.0</ele><time>2026-04-04T08:27:20.333Z</time></trkpt><trkpt lat="43.580525" lon="10.6925133"><ele>35.0</ele><time>2026-04-04T08:27:21.333Z</time></trkpt><trkpt lat="43.5806083" lon="10.6928233"><ele>35.666666666666664</ele><time>2026-04-04T08:27:22.333Z</time></trkpt><trkpt lat="43.5806533" lon="10.6931117"><ele>36.333333333333336</ele><time>2026-04-04T08:27:23.333Z</time></trkpt><trkpt lat="43.5806933" lon="10.6934"><ele>37.0</ele><time>2026-04-04T08:27:24.333Z</time></trkpt><trkpt lat="43.5807117" lon="10.6936817"><ele>37.0</ele><time>2026-04-04T08:27:25.333Z</time></trkpt><trkpt lat="43.5807283" lon="10.6939667"><ele>37.0</ele><time>2026-04-04T08:27:26.333Z</time></trkpt><trkpt lat="43.5807233" lon="10.6942433"><ele>37.0</ele><time>2026-04-04T08:27:27.333Z</time></trkpt><trkpt lat="43.5807117" lon="10.6945167"><ele>36.66666666666667</ele><time>2026-04-04T08:27:28.334Z</time></trkpt><trkpt lat="43.5806817" lon="10.6947867"><ele>36.333333333333336</ele><time>2026-04-04T08:27:29.333Z</time></trkpt><trkpt lat="43.5806633" lon="10.6950683"><ele>36.0</ele><time>2026-04-04T08:27:30.333Z</time></trkpt><trkpt lat="43.580645" lon="10.6953433"><ele>36.0</ele><time>2026-04-04T08:27:31.333Z</time></trkpt><trkpt lat="43.5806383" lon="10.6956217"><ele>36.0</ele><time>2026-04-04T08:27:32.333Z</time></trkpt><trkpt lat="43.5806367" lon="10.6958983"><ele>36.0</ele><time>2026-04-04T08:27:33.333Z</time></trkpt><trkpt lat="43.5806433" lon="10.6961717"><ele>36.333333333333336</ele><time>2026-04-04T08:27:34.333Z</time></trkpt><trkpt lat="43.5806467" lon="10.6964183"><ele>36.66666666666667</ele><time>2026-04-04T08:27:35.333Z</time></trkpt><trkpt lat="43.5806533" lon="10.6966633"><ele>37.0</ele><time>2026-04-04T08:27:36.333Z</time></trkpt><trkpt lat="43.580655" lon="10.6969033"><ele>37.333333333333336</ele><time>2026-04-04T08:27:37.333Z</time></trkpt><trkpt lat="43.5806567" lon="10.69712"><ele>37.666666666666664</ele><time>2026-04-04T08:27:38.333Z</time></trkpt><trkpt lat="43.5806533" lon="10.6973167"><ele>38.0</ele><time>2026-04-04T08:27:39.333Z</time></trkpt><trkpt lat="43.580645" lon="10.6975317"><ele>37.666666666666664</ele><time>2026-04-04T08:27:40.333Z</time></trkpt><trkpt lat="43.58065" lon="10.6977567"><ele>37.333333333333336</ele><time>2026-04-04T08:27:41.333Z</time></trkpt><trkpt lat="43.580645" lon="10.6979983"><ele>37.0</ele><time>2026-04-04T08:27:42.333Z</time></trkpt><trkpt lat="43.5806417" lon="10.698255"><ele>37.0</ele><time>2026-04-04T08:27:43.334Z</time></trkpt><trkpt lat="43.580635" lon="10.698525"><ele>37.0</ele><time>2026-04-04T08:27:44.334Z</time></trkpt><trkpt lat="43.5806133" lon="10.6988283"><ele>37.0</ele><time>2026-04-04T08:27:45.333Z</time></trkpt><trkpt lat="43.5806033" lon="10.6991283"><ele>36.5</ele><time>2026-04-04T08:27:46.333Z</time></trkpt><trkpt lat="43.5806167" lon="10.6994517"><ele>36.0</ele><time>2026-04-04T08:27:47.333Z</time></trkpt><trkpt lat="43.5806133" lon="10.6997783"><ele>36.0</ele><time>2026-04-04T08:27:48.334Z</time></trkpt><trkpt lat="43.5806" lon="10.7000933"><ele>36.0</ele><time>2026-04-04T08:27:49.333Z</time></trkpt><trkpt lat="43.58058" lon="10.7004167"><ele>35.5</ele><time>2026-04-04T08:27:50.333Z</time></trkpt><trkpt lat="43.5805633" lon="10.700745"><ele>35.0</ele><time>2026-04-04T08:27:51.333Z</time></trkpt><trkpt lat="43.5805567" lon="10.701075"><ele>35.0</ele><time>2026-04-04T08:27:52.333Z</time></trkpt><trkpt lat="43.5805533" lon="10.7013967"><ele>35.0</ele><time>2026-04-04T08:27:53.333Z</time></trkpt><trkpt lat="43.5805567" lon="10.7017083"><ele>35.33333333333333</ele><time>2026-04-04T08:27:54.333Z</time></trkpt><trkpt lat="43.5805583" lon="10.7019967"><ele>35.666666666666664</ele><time>2026-04-04T08:27:55.334Z</time></trkpt><trkpt lat="43.5805567" lon="10.70227"><ele>36.0</ele><time>2026-04-04T08:27:56.333Z</time></trkpt><trkpt lat="43.5805567" lon="10.70253"><ele>36.0</ele><time>2026-04-04T08:27:57.333Z</time></trkpt><trkpt lat="43.5805567" lon="10.7027733"><ele>36.0</ele><time>2026-04-04T08:27:58.334Z</time></trkpt><trkpt lat="43.5805633" lon="10.7029983"><ele>36.0</ele><time>2026-04-04T08:27:59.333Z</time></trkpt><trkpt lat="43.58056" lon="10.7032167"><ele>36.0</ele><time>2026-04-04T08:28:00.333Z</time></trkpt><trkpt lat="43.5805617" lon="10.7034267"><ele>36.0</ele><time>2026-04-04T08:28:01.333Z</time></trkpt><trkpt lat="43.5805617" lon="10.7036283"><ele>36.0</ele><time>2026-04-04T08:28:02.334Z</time></trkpt><trkpt lat="43.5805483" lon="10.703805"><ele>36.0</ele><time>2026-04-04T08:28:03.333Z</time></trkpt><trkpt lat="43.58052" lon="10.70395"><ele>36.25</ele><time>2026-04-04T08:28:04.333Z</time></trkpt><trkpt lat="43.5804617" lon="10.7040717"><ele>36.5</ele><time>2026-04-04T08:28:05.333Z</time></trkpt><trkpt lat="43.5804117" lon="10.704205"><ele>36.75</ele><time>2026-04-04T08:28:06.333Z</time></trkpt><trkpt lat="43.5803683" lon="10.7043617"><ele>37.0</ele><time>2026-04-04T08:28:07.333Z</time></trkpt><trkpt lat="43.5803667" lon="10.7045233"><ele>37.0</ele><time>2026-04-04T08:28:08.333Z</time></trkpt><trkpt lat="43.5803967" lon="10.7046867"><ele>37.0</ele><time>2026-04-04T08:28:09.334Z</time></trkpt><trkpt lat="43.58045" lon="10.704865"><ele>37.0</ele><time>2026-04-04T08:28:10.333Z</time></trkpt><trkpt lat="43.5804883" lon="10.7050683"><ele>37.0</ele><time>2026-04-04T08:28:11.333Z</time></trkpt><trkpt lat="43.580515" lon="10.70526"><ele>37.0</ele><time>2026-04-04T08:28:12.333Z</time></trkpt><trkpt lat="43.5805133" lon="10.705485"><ele>37.0</ele><time>2026-04-04T08:28:13.333Z</time></trkpt><trkpt lat="43.58051" lon="10.7057283"><ele>37.0</ele><time>2026-04-04T08:28:14.333Z</time></trkpt><trkpt lat="43.5805017" lon="10.7059917"><ele>37.0</ele><time>2026-04-04T08:28:15.333Z</time></trkpt><trkpt lat="43.5805033" lon="10.7062633"><ele>37.0</ele><time>2026-04-04T08:28:16.333Z</time></trkpt><trkpt lat="43.5804967" lon="10.7065317"><ele>37.0</ele><time>2026-04-04T08:28:17.333Z</time></trkpt><trkpt lat="43.58049" lon="10.7067983"><ele>37.333333333333336</ele><time>2026-04-04T08:28:18.334Z</time></trkpt><trkpt lat="43.580485" lon="10.7070633"><ele>37.666666666666664</ele><time>2026-04-04T08:28:19.333Z</time></trkpt><trkpt lat="43.58048" lon="10.7073217"><ele>38.0</ele><time>2026-04-04T08:28:20.333Z</time></trkpt><trkpt lat="43.5804817" lon="10.70758"><ele>37.33333333333333</ele><time>2026-04-04T08:28:21.334Z</time></trkpt><trkpt lat="43.58048" lon="10.7078317"><ele>36.666666666666664</ele><time>2026-04-04T08:28:22.333Z</time></trkpt><trkpt lat="43.5804733" lon="10.7080867"><ele>36.0</ele><time>2026-04-04T08:28:23.333Z</time></trkpt><trkpt lat="43.5804683" lon="10.70835"><ele>35.666666666666664</ele><time>2026-04-04T08:28:24.333Z</time></trkpt><trkpt lat="43.58047" lon="10.7086183"><ele>35.33333333333333</ele><time>2026-04-04T08:28:25.333Z</time></trkpt><trkpt lat="43.5804667" lon="10.7088817"><ele>35.0</ele><time>2026-04-04T08:28:26.333Z</time></trkpt><trkpt lat="43.580455" lon="10.7091483"><ele>35.0</ele><time>2026-04-04T08:28:27.333Z</time></trkpt><trkpt lat="43.5804483" lon="10.7094233"><ele>35.0</ele><time>2026-04-04T08:28:28.334Z</time></trkpt><trkpt lat="43.58045" lon="10.709705"><ele>35.0</ele><time>2026-04-04T08:28:29.333Z</time></trkpt><trkpt lat="43.58045" lon="10.70998"><ele>35.666666666666664</ele><time>2026-04-04T08:28:30.333Z</time></trkpt><trkpt lat="43.58044" lon="10.7102617"><ele>36.333333333333336</ele><time>2026-04-04T08:28:31.333Z</time></trkpt><trkpt lat="43.5804317" lon="10.71054"><ele>37.0</ele><time>2026-04-04T08:28:32.333Z</time></trkpt><trkpt lat="43.5804217" lon="10.710805"><ele>36.66666666666667</ele><time>2026-04-04T08:28:33.333Z</time></trkpt><trkpt lat="43.5804133" lon="10.7110867"><ele>36.333333333333336</ele><time>2026-04-04T08:28:34.333Z</time></trkpt><trkpt lat="43.580415" lon="10.7113667"><ele>36.0</ele><time>2026-04-04T08:28:35.333Z</time></trkpt><trkpt lat="43.5804133" lon="10.7116517"><ele>36.0</ele><time>2026-04-04T08:28:36.333Z</time></trkpt><trkpt lat="43.580415" lon="10.7119333"><ele>36.0</ele><time>2026-04-04T08:28:37.333Z</time></trkpt><trkpt lat="43.58041" lon="10.712215"><ele>36.0</ele><time>2026-04-04T08:28:38.334Z</time></trkpt><trkpt lat="43.5804067" lon="10.7124817"><ele>36.666666666666664</ele><time>2026-04-04T08:28:39.333Z</time></trkpt><trkpt lat="43.5804117" lon="10.71276"><ele>37.33333333333333</ele><time>2026-04-04T08:28:40.333Z</time></trkpt><trkpt lat="43.5804167" lon="10.7130367"><ele>38.0</ele><time>2026-04-04T08:28:41.333Z</time></trkpt><trkpt lat="43.580415" lon="10.7133117"><ele>38.33333333333333</ele><time>2026-04-04T08:28:42.333Z</time></trkpt><trkpt lat="43.5804067" lon="10.71358"><ele>38.666666666666664</ele><time>2026-04-04T08:28:43.333Z</time></trkpt><trkpt lat="43.5804017" lon="10.713855"><ele>39.0</ele><time>2026-04-04T08:28:44.333Z</time></trkpt><trkpt lat="43.5803983" lon="10.7141283"><ele>39.0</ele><time>2026-04-04T08:28:45.333Z</time></trkpt><trkpt lat="43.5804" lon="10.7143983"><ele>39.0</ele><time>2026-04-04T08:28:46.333Z</time></trkpt><trkpt lat="43.5803933" lon="10.7146733"><ele>39.0</ele><time>2026-04-04T08:28:47.333Z</time></trkpt><trkpt lat="43.5803883" lon="10.714945"><ele>39.333333333333336</ele><time>2026-04-04T08:28:48.334Z</time></trkpt><trkpt lat="43.5804017" lon="10.7152083"><ele>39.66666666666667</ele><time>2026-04-04T08:28:49.333Z</time></trkpt><trkpt lat="43.580405" lon="10.7154583"><ele>40.0</ele><time>2026-04-04T08:28:50.333Z</time></trkpt><trkpt lat="43.5803967" lon="10.7156867"><ele>40.0</ele><time>2026-04-04T08:28:51.333Z</time></trkpt><trkpt lat="43.5803917" lon="10.715885"><ele>40.0</ele><time>2026-04-04T08:28:52.334Z</time></trkpt><trkpt lat="43.580385" lon="10.7160617"><ele>40.0</ele><time>2026-04-04T08:28:53.333Z</time></trkpt><trkpt lat="43.5803767" lon="10.7162167"><ele>40.0</ele><time>2026-04-04T08:28:54.334Z</time></trkpt><trkpt lat="43.5803733" lon="10.71635"><ele>40.0</ele><time>2026-04-04T08:28:55.333Z</time></trkpt><trkpt lat="43.5803717" lon="10.716455"><ele>40.0</ele><time>2026-04-04T08:28:56.333Z</time></trkpt><trkpt lat="43.58035" lon="10.716615"><ele>40.0</ele><time>2026-04-04T08:28:58.333Z</time></trkpt><trkpt lat="43.5802817" lon="10.7166617"><ele>40.0</ele><time>2026-04-04T08:28:59.333Z</time></trkpt><trkpt lat="43.5801967" lon="10.71668"><ele>40.0</ele><time>2026-04-04T08:29:00.333Z</time></trkpt><trkpt lat="43.580085" lon="10.71669"><ele>39.75</ele><time>2026-04-04T08:29:01.333Z</time></trkpt><trkpt lat="43.579955" lon="10.7167"><ele>39.5</ele><time>2026-04-04T08:29:02.334Z</time></trkpt><trkpt lat="43.5798183" lon="10.716705"><ele>39.25</ele><time>2026-04-04T08:29:03.334Z</time></trkpt><trkpt lat="43.5796733" lon="10.7167117"><ele>39.0</ele><time>2026-04-04T08:29:04.333Z</time></trkpt><trkpt lat="43.579525" lon="10.716725"><ele>39.0</ele><time>2026-04-04T08:29:05.334Z</time></trkpt><trkpt lat="43.5793667" lon="10.7167433"><ele>39.0</ele><time>2026-04-04T08:29:06.333Z</time></trkpt><trkpt lat="43.5791983" lon="10.716755"><ele>39.0</ele><time>2026-04-04T08:29:07.333Z</time></trkpt><trkpt lat="43.579045" lon="10.7167967"><ele>39.0</ele><time>2026-04-04T08:29:08.333Z</time></trkpt><trkpt lat="43.5788667" lon="10.7168017"><ele>39.0</ele><time>2026-04-04T08:29:09.333Z</time></trkpt><trkpt lat="43.5786833" lon="10.716815"><ele>39.0</ele><time>2026-04-04T08:29:10.333Z</time></trkpt><trkpt lat="43.578505" lon="10.71684"><ele>39.0</ele><time>2026-04-04T08:29:11.333Z</time></trkpt><trkpt lat="43.5783167" lon="10.7168617"><ele>39.0</ele><time>2026-04-04T08:29:12.333Z</time></trkpt><trkpt lat="43.578125" lon="10.7168783"><ele>39.0</ele><time>2026-04-04T08:29:13.333Z</time></trkpt><trkpt lat="43.5779417" lon="10.71691"><ele>39.333333333333336</ele><time>2026-04-04T08:29:14.334Z</time></trkpt><trkpt lat="43.57775" lon="10.7169367"><ele>39.66666666666667</ele><time>2026-04-04T08:29:15.333Z</time></trkpt><trkpt lat="43.5775483" lon="10.71696"><ele>40.0</ele><time>2026-04-04T08:29:16.333Z</time></trkpt><trkpt lat="43.5773517" lon="10.7169783"><ele>40.0</ele><time>2026-04-04T08:29:17.333Z</time></trkpt><trkpt lat="43.57715" lon="10.716995"><ele>40.0</ele><time>2026-04-04T08:29:18.334Z</time></trkpt><trkpt lat="43.5769483" lon="10.7170217"><ele>40.0</ele><time>2026-04-04T08:29:19.334Z</time></trkpt><trkpt lat="43.5767483" lon="10.71704"><ele>40.0</ele><time>2026-04-04T08:29:20.334Z</time></trkpt><trkpt lat="43.5765433" lon="10.717065"><ele>40.0</ele><time>2026-04-04T08:29:21.333Z</time></trkpt><trkpt lat="43.576335" lon="10.7171033"><ele>40.0</ele><time>2026-04-04T08:29:22.334Z</time></trkpt><trkpt lat="43.5761367" lon="10.717145"><ele>40.0</ele><time>2026-04-04T08:29:23.333Z</time></trkpt><trkpt lat="43.5759517" lon="10.7171917"><ele>40.0</ele><time>2026-04-04T08:29:24.333Z</time></trkpt><trkpt lat="43.5757683" lon="10.7172433"><ele>40.0</ele><time>2026-04-04T08:29:25.333Z</time></trkpt><trkpt lat="43.5755733" lon="10.717305"><ele>40.0</ele><time>2026-04-04T08:29:26.333Z</time></trkpt><trkpt lat="43.5753817" lon="10.7173633"><ele>40.0</ele><time>2026-04-04T08:29:27.334Z</time></trkpt><trkpt lat="43.5751933" lon="10.71742"><ele>40.0</ele><time>2026-04-04T08:29:28.333Z</time></trkpt><trkpt lat="43.5750067" lon="10.7174867"><ele>40.333333333333336</ele><time>2026-04-04T08:29:29.333Z</time></trkpt><trkpt lat="43.57481" lon="10.7175583"><ele>40.666666666666664</ele><time>2026-04-04T08:29:30.333Z</time></trkpt><trkpt lat="43.57463" lon="10.7176383"><ele>41.0</ele><time>2026-04-04T08:29:31.333Z</time></trkpt><trkpt lat="43.5744517" lon="10.7177117"><ele>41.0</ele><time>2026-04-04T08:29:32.333Z</time></trkpt><trkpt lat="43.57427" lon="10.7177733"><ele>41.0</ele><time>2026-04-04T08:29:33.333Z</time></trkpt><trkpt lat="43.574085" lon="10.717845"><ele>41.0</ele><time>2026-04-04T08:29:34.334Z</time></trkpt><trkpt lat="43.5739033" lon="10.7179217"><ele>41.0</ele><time>2026-04-04T08:29:35.333Z</time></trkpt><trkpt lat="43.5737217" lon="10.7179633"><ele>41.0</ele><time>2026-04-04T08:29:36.333Z</time></trkpt><trkpt lat="43.5735267" lon="10.7180083"><ele>41.0</ele><time>2026-04-04T08:29:37.333Z</time></trkpt><trkpt lat="43.5733283" lon="10.7180417"><ele>41.0</ele><time>2026-04-04T08:29:38.334Z</time></trkpt><trkpt lat="43.5731283" lon="10.7180783"><ele>41.0</ele><time>2026-04-04T08:29:39.333Z</time></trkpt><trkpt lat="43.5729183" lon="10.718115"><ele>41.0</ele><time>2026-04-04T08:29:40.333Z</time></trkpt><trkpt lat="43.5727233" lon="10.7181567"><ele>41.0</ele><time>2026-04-04T08:29:41.333Z</time></trkpt><trkpt lat="43.572545" lon="10.7182033"><ele>41.0</ele><time>2026-04-04T08:29:42.333Z</time></trkpt><trkpt lat="43.57236" lon="10.71824"><ele>41.0</ele><time>2026-04-04T08:29:43.334Z</time></trkpt><trkpt lat="43.57219" lon="10.7182783"><ele>41.0</ele><time>2026-04-04T08:29:44.333Z</time></trkpt><trkpt lat="43.5720217" lon="10.71834"><ele>41.0</ele><time>2026-04-04T08:29:45.333Z</time></trkpt><trkpt lat="43.5718533" lon="10.7183733"><ele>41.0</ele><time>2026-04-04T08:29:46.333Z</time></trkpt><trkpt lat="43.5717017" lon="10.7184083"><ele>41.0</ele><time>2026-04-04T08:29:47.333Z</time></trkpt><trkpt lat="43.5715633" lon="10.71844"><ele>41.0</ele><time>2026-04-04T08:29:48.333Z</time></trkpt><trkpt lat="43.571445" lon="10.718455"><ele>41.0</ele><time>2026-04-04T08:29:49.334Z</time></trkpt><trkpt lat="43.5713417" lon="10.71847"><ele>41.0</ele><time>2026-04-04T08:29:50.333Z</time></trkpt><trkpt lat="43.5712583" lon="10.7184817"><ele>41.0</ele><time>2026-04-04T08:29:51.333Z</time></trkpt><trkpt lat="43.5711917" lon="10.7184983"><ele>41.199999999999996</ele><time>2026-04-04T08:29:52.333Z</time></trkpt><trkpt lat="43.57113" lon="10.7185783"><ele>41.4</ele><time>2026-04-04T08:29:54.333Z</time></trkpt><trkpt lat="43.5711083" lon="10.71874"><ele>41.6</ele><time>2026-04-04T08:29:56.333Z</time></trkpt><trkpt lat="43.5710967" lon="10.7188483"><ele>41.8</ele><time>2026-04-04T08:29:57.333Z</time></trkpt><trkpt lat="43.5710933" lon="10.7189833"><ele>42.0</ele><time>2026-04-04T08:29:58.333Z</time></trkpt><trkpt lat="43.5710983" lon="10.719135"><ele>42.0</ele><time>2026-04-04T08:29:59.333Z</time></trkpt><trkpt lat="43.5711067" lon="10.719275"><ele>42.0</ele><time>2026-04-04T08:30:00.333Z</time></trkpt><trkpt lat="43.5711433" lon="10.7194267"><ele>42.0</ele><time>2026-04-04T08:30:01.333Z</time></trkpt><trkpt lat="43.571195" lon="10.719625"><ele>42.0</ele><time>2026-04-04T08:30:02.333Z</time></trkpt><trkpt lat="43.57125" lon="10.7198633"><ele>42.0</ele><time>2026-04-04T08:30:03.333Z</time></trkpt><trkpt lat="43.5713067" lon="10.7201083"><ele>42.0</ele><time>2026-04-04T08:30:04.334Z</time></trkpt><trkpt lat="43.57136" lon="10.7203467"><ele>42.0</ele><time>2026-04-04T08:30:05.334Z</time></trkpt><trkpt lat="43.5713967" lon="10.7205633"><ele>42.0</ele><time>2026-04-04T08:30:06.333Z</time></trkpt><trkpt lat="43.5714333" lon="10.7207633"><ele>42.0</ele><time>2026-04-04T08:30:07.334Z</time></trkpt><trkpt lat="43.5714667" lon="10.7209417"><ele>42.0</ele><time>2026-04-04T08:30:08.334Z</time></trkpt><trkpt lat="43.5715017" lon="10.7211"><ele>42.0</ele><time>2026-04-04T08:30:09.333Z</time></trkpt><trkpt lat="43.57154" lon="10.7212617"><ele>42.2</ele><time>2026-04-04T08:30:10.333Z</time></trkpt><trkpt lat="43.5715783" lon="10.7214183"><ele>42.400000000000006</ele><time>2026-04-04T08:30:11.333Z</time></trkpt><trkpt lat="43.5716083" lon="10.721565"><ele>42.599999999999994</ele><time>2026-04-04T08:30:12.333Z</time></trkpt><trkpt lat="43.5716333" lon="10.7216983"><ele>42.8</ele><time>2026-04-04T08:30:13.333Z</time></trkpt><trkpt lat="43.5716567" lon="10.7218283"><ele>43.0</ele><time>2026-04-04T08:30:14.333Z</time></trkpt><trkpt lat="43.5716667" lon="10.7219533"><ele>43.2</ele><time>2026-04-04T08:30:15.333Z</time></trkpt><trkpt lat="43.5716533" lon="10.7220683"><ele>43.4</ele><time>2026-04-04T08:30:16.333Z</time></trkpt><trkpt lat="43.57163" lon="10.7221783"><ele>43.6</ele><time>2026-04-04T08:30:17.333Z</time></trkpt><trkpt lat="43.5715767" lon="10.7222783"><ele>43.800000000000004</ele><time>2026-04-04T08:30:18.333Z</time></trkpt><trkpt lat="43.57152" lon="10.7223867"><ele>44.0</ele><time>2026-04-04T08:30:19.333Z</time></trkpt><trkpt lat="43.5714383" lon="10.7224767"><ele>44.0</ele><time>2026-04-04T08:30:20.333Z</time></trkpt><trkpt lat="43.571355" lon="10.722565"><ele>44.0</ele><time>2026-04-04T08:30:21.334Z</time></trkpt><trkpt lat="43.5712717" lon="10.72265"><ele>44.0</ele><time>2026-04-04T08:30:22.334Z</time></trkpt><trkpt lat="43.57119" lon="10.7227183"><ele>44.0</ele><time>2026-04-04T08:30:23.333Z</time></trkpt><trkpt lat="43.57111" lon="10.722775"><ele>44.0</ele><time>2026-04-04T08:30:24.333Z</time></trkpt><trkpt lat="43.5710167" lon="10.7227833"><ele>43.6</ele><time>2026-04-04T08:30:25.333Z</time></trkpt><trkpt lat="43.5709033" lon="10.7227783"><ele>43.2</ele><time>2026-04-04T08:30:26.333Z</time></trkpt><trkpt lat="43.570805" lon="10.7227917"><ele>42.800000000000004</ele><time>2026-04-04T08:30:27.333Z</time></trkpt><trkpt lat="43.57071" lon="10.7228133"><ele>42.400000000000006</ele><time>2026-04-04T08:30:28.334Z</time></trkpt><trkpt lat="43.57061" lon="10.72284"><ele>42.0</ele><time>2026-04-04T08:30:29.334Z</time></trkpt><trkpt lat="43.5705083" lon="10.7228683"><ele>42.0</ele><time>2026-04-04T08:30:30.333Z</time></trkpt><trkpt lat="43.5703983" lon="10.7229117"><ele>42.0</ele><time>2026-04-04T08:30:31.333Z</time></trkpt><trkpt lat="43.5702867" lon="10.722965"><ele>42.0</ele><time>2026-04-04T08:30:32.333Z</time></trkpt><trkpt lat="43.5701817" lon="10.7230033"><ele>42.0</ele><time>2026-04-04T08:30:33.333Z</time></trkpt><trkpt lat="43.570065" lon="10.72304"><ele>41.8</ele><time>2026-04-04T08:30:34.333Z</time></trkpt><trkpt lat="43.5699533" lon="10.7230983"><ele>41.6</ele><time>2026-04-04T08:30:35.333Z</time></trkpt><trkpt lat="43.5698433" lon="10.7231433"><ele>41.4</ele><time>2026-04-04T08:30:36.333Z</time></trkpt><trkpt lat="43.56974" lon="10.72317"><ele>41.199999999999996</ele><time>2026-04-04T08:30:37.333Z</time></trkpt><trkpt lat="43.5696367" lon="10.7232017"><ele>41.0</ele><time>2026-04-04T08:30:38.333Z</time></trkpt><trkpt lat="43.5695267" lon="10.723235"><ele>41.25</ele><time>2026-04-04T08:30:39.334Z</time></trkpt><trkpt lat="43.5693983" lon="10.723295"><ele>41.5</ele><time>2026-04-04T08:30:40.333Z</time></trkpt><trkpt lat="43.5692717" lon="10.72335"><ele>41.75</ele><time>2026-04-04T08:30:41.333Z</time></trkpt><trkpt lat="43.5691433" lon="10.7234117"><ele>42.0</ele><time>2026-04-04T08:30:42.333Z</time></trkpt><trkpt lat="43.56899" lon="10.7234767"><ele>42.0</ele><time>2026-04-04T08:30:43.333Z</time></trkpt><trkpt lat="43.568845" lon="10.7234833"><ele>42.0</ele><time>2026-04-04T08:30:44.333Z</time></trkpt><trkpt lat="43.5687133" lon="10.7234533"><ele>42.0</ele><time>2026-04-04T08:30:45.333Z</time></trkpt><trkpt lat="43.5685717" lon="10.7234183"><ele>42.0</ele><time>2026-04-04T08:30:46.333Z</time></trkpt><trkpt lat="43.5684367" lon="10.7233833"><ele>42.25</ele><time>2026-04-04T08:30:47.333Z</time></trkpt><trkpt lat="43.5683067" lon="10.7233383"><ele>42.5</ele><time>2026-04-04T08:30:48.333Z</time></trkpt><trkpt lat="43.56817" lon="10.72329"><ele>42.75</ele><time>2026-04-04T08:30:49.333Z</time></trkpt><trkpt lat="43.5680267" lon="10.7232317"><ele>43.0</ele><time>2026-04-04T08:30:50.333Z</time></trkpt><trkpt lat="43.56788" lon="10.72317"><ele>43.66666666666667</ele><time>2026-04-04T08:30:51.333Z</time></trkpt><trkpt lat="43.5677317" lon="10.7231183"><ele>44.333333333333336</ele><time>2026-04-04T08:30:52.333Z</time></trkpt><trkpt lat="43.5675817" lon="10.7230617"><ele>45.0</ele><time>2026-04-04T08:30:53.333Z</time></trkpt><trkpt lat="43.5674317" lon="10.723005"><ele>45.0</ele><time>2026-04-04T08:30:54.333Z</time></trkpt><trkpt lat="43.5672833" lon="10.722955"><ele>45.0</ele><time>2026-04-04T08:30:55.333Z</time></trkpt><trkpt lat="43.56714" lon="10.7229017"><ele>45.0</ele><time>2026-04-04T08:30:56.333Z</time></trkpt><trkpt lat="43.567" lon="10.7228433"><ele>45.0</ele><time>2026-04-04T08:30:57.333Z</time></trkpt><trkpt lat="43.5668517" lon="10.7228167"><ele>45.0</ele><time>2026-04-04T08:30:58.333Z</time></trkpt><trkpt lat="43.5667067" lon="10.7227467"><ele>45.0</ele><time>2026-04-04T08:30:59.334Z</time></trkpt><trkpt lat="43.56656" lon="10.7226683"><ele>45.0</ele><time>2026-04-04T08:31:00.333Z</time></trkpt><trkpt lat="43.5664183" lon="10.7226017"><ele>44.666666666666664</ele><time>2026-04-04T08:31:01.334Z</time></trkpt><trkpt lat="43.5662683" lon="10.7225367"><ele>44.33333333333333</ele><time>2026-04-04T08:31:02.333Z</time></trkpt><trkpt lat="43.56612" lon="10.72245"><ele>44.0</ele><time>2026-04-04T08:31:03.333Z</time></trkpt><trkpt lat="43.565965" lon="10.7223783"><ele>44.0</ele><time>2026-04-04T08:31:04.333Z</time></trkpt><trkpt lat="43.565815" lon="10.7222867"><ele>44.0</ele><time>2026-04-04T08:31:05.333Z</time></trkpt><trkpt lat="43.56566" lon="10.7221883"><ele>44.0</ele><time>2026-04-04T08:31:06.333Z</time></trkpt><trkpt lat="43.5655117" lon="10.7221217"><ele>43.666666666666664</ele><time>2026-04-04T08:31:07.333Z</time></trkpt><trkpt lat="43.56536" lon="10.72205"><ele>43.333333333333336</ele><time>2026-04-04T08:31:08.334Z</time></trkpt><trkpt lat="43.5652133" lon="10.7219583"><ele>43.0</ele><time>2026-04-04T08:31:09.333Z</time></trkpt><trkpt lat="43.5650683" lon="10.7218717"><ele>43.0</ele><time>2026-04-04T08:31:10.333Z</time></trkpt><trkpt lat="43.56491" lon="10.721775"><ele>43.0</ele><time>2026-04-04T08:31:11.333Z</time></trkpt><trkpt lat="43.5647667" lon="10.7216867"><ele>43.0</ele><time>2026-04-04T08:31:12.333Z</time></trkpt><trkpt lat="43.5646167" lon="10.7216117"><ele>42.66666666666667</ele><time>2026-04-04T08:31:13.333Z</time></trkpt><trkpt lat="43.564465" lon="10.7215267"><ele>42.333333333333336</ele><time>2026-04-04T08:31:14.333Z</time></trkpt><trkpt lat="43.5643133" lon="10.721445"><ele>42.0</ele><time>2026-04-04T08:31:15.333Z</time></trkpt><trkpt lat="43.5641633" lon="10.7213517"><ele>42.0</ele><time>2026-04-04T08:31:16.333Z</time></trkpt><trkpt lat="43.5640067" lon="10.7212667"><ele>42.0</ele><time>2026-04-04T08:31:17.333Z</time></trkpt><trkpt lat="43.5638617" lon="10.7211817"><ele>42.0</ele><time>2026-04-04T08:31:18.334Z</time></trkpt><trkpt lat="43.563715" lon="10.7210967"><ele>42.333333333333336</ele><time>2026-04-04T08:31:19.333Z</time></trkpt><trkpt lat="43.5635683" lon="10.7210183"><ele>42.66666666666667</ele><time>2026-04-04T08:31:20.334Z</time></trkpt><trkpt lat="43.5634267" lon="10.7209383"><ele>43.0</ele><time>2026-04-04T08:31:21.333Z</time></trkpt><trkpt lat="43.5632783" lon="10.7208567"><ele>43.0</ele><time>2026-04-04T08:31:22.333Z</time></trkpt><trkpt lat="43.5631383" lon="10.7207733"><ele>43.0</ele><time>2026-04-04T08:31:23.334Z</time></trkpt><trkpt lat="43.5630083" lon="10.7207017"><ele>43.0</ele><time>2026-04-04T08:31:24.333Z</time></trkpt><trkpt lat="43.5628867" lon="10.7206367"><ele>43.0</ele><time>2026-04-04T08:31:25.334Z</time></trkpt><trkpt lat="43.56277" lon="10.72057"><ele>43.2</ele><time>2026-04-04T08:31:26.333Z</time></trkpt><trkpt lat="43.5626617" lon="10.7205133"><ele>43.4</ele><time>2026-04-04T08:31:27.333Z</time></trkpt><trkpt lat="43.5625617" lon="10.7204567"><ele>43.6</ele><time>2026-04-04T08:31:28.333Z</time></trkpt><trkpt lat="43.562475" lon="10.7204083"><ele>43.800000000000004</ele><time>2026-04-04T08:31:29.333Z</time></trkpt><trkpt lat="43.5624017" lon="10.7203733"><ele>44.0</ele><time>2026-04-04T08:31:30.334Z</time></trkpt><trkpt lat="43.5623317" lon="10.7203267"><ele>44.0</ele><time>2026-04-04T08:31:31.334Z</time></trkpt><trkpt lat="43.56227" lon="10.7203017"><ele>44.0</ele><time>2026-04-04T08:31:32.333Z</time></trkpt><trkpt lat="43.5621533" lon="10.720305"><ele>44.0</ele><time>2026-04-04T08:31:34.333Z</time></trkpt><trkpt lat="43.5621017" lon="10.72036"><ele>44.0</ele><time>2026-04-04T08:31:35.333Z</time></trkpt><trkpt lat="43.5620417" lon="10.72043"><ele>44.0</ele><time>2026-04-04T08:31:36.333Z</time></trkpt><trkpt lat="43.5619717" lon="10.72053"><ele>44.0</ele><time>2026-04-04T08:31:37.333Z</time></trkpt><trkpt lat="43.561865" lon="10.7206383"><ele>45.666666666666664</ele><time>2026-04-04T08:31:38.333Z</time></trkpt><trkpt lat="43.5617267" lon="10.7207367"><ele>47.33333333333333</ele><time>2026-04-04T08:31:39.333Z</time></trkpt><trkpt lat="43.561595" lon="10.720835"><ele>49.0</ele><time>2026-04-04T08:31:40.334Z</time></trkpt><trkpt lat="43.5614533" lon="10.7209267"><ele>49.0</ele><time>2026-04-04T08:31:41.333Z</time></trkpt><trkpt lat="43.56131" lon="10.7210167"><ele>49.0</ele><time>2026-04-04T08:31:42.334Z</time></trkpt><trkpt lat="43.56117" lon="10.7211133"><ele>49.0</ele><time>2026-04-04T08:31:43.333Z</time></trkpt><trkpt lat="43.5610383" lon="10.7211967"><ele>48.666666666666664</ele><time>2026-04-04T08:31:44.334Z</time></trkpt><trkpt lat="43.56088" lon="10.7212733"><ele>48.33333333333333</ele><time>2026-04-04T08:31:45.333Z</time></trkpt><trkpt lat="43.560725" lon="10.7213533"><ele>48.0</ele><time>2026-04-04T08:31:46.333Z</time></trkpt><trkpt lat="43.5605783" lon="10.72141"><ele>48.0</ele><time>2026-04-04T08:31:47.333Z</time></trkpt><trkpt lat="43.5604467" lon="10.7214783"><ele>48.0</ele><time>2026-04-04T08:31:48.333Z</time></trkpt><trkpt lat="43.5603067" lon="10.721565"><ele>48.0</ele><time>2026-04-04T08:31:49.334Z</time></trkpt><trkpt lat="43.5601717" lon="10.7216333"><ele>48.0</ele><time>2026-04-04T08:31:50.333Z</time></trkpt><trkpt lat="43.5600417" lon="10.7216833"><ele>48.5</ele><time>2026-04-04T08:31:51.333Z</time></trkpt><trkpt lat="43.55992" lon="10.7217"><ele>49.0</ele><time>2026-04-04T08:31:52.333Z</time></trkpt><trkpt lat="43.5597933" lon="10.7217"><ele>49.5</ele><time>2026-04-04T08:31:53.334Z</time></trkpt><trkpt lat="43.5596583" lon="10.72167"><ele>50.0</ele><time>2026-04-04T08:31:54.333Z</time></trkpt><trkpt lat="43.5595267" lon="10.72162"><ele>50.25</ele><time>2026-04-04T08:31:55.333Z</time></trkpt><trkpt lat="43.5593833" lon="10.7215633"><ele>50.5</ele><time>2026-04-04T08:31:56.333Z</time></trkpt><trkpt lat="43.55924" lon="10.7215033"><ele>50.75</ele><time>2026-04-04T08:31:57.334Z</time></trkpt><trkpt lat="43.5591017" lon="10.721465"><ele>51.0</ele><time>2026-04-04T08:31:58.333Z</time></trkpt><trkpt lat="43.55897" lon="10.72142"><ele>51.0</ele><time>2026-04-04T08:31:59.333Z</time></trkpt><trkpt lat="43.55885" lon="10.721375"><ele>51.0</ele><time>2026-04-04T08:32:00.334Z</time></trkpt><trkpt lat="43.5587417" lon="10.7213317"><ele>51.0</ele><time>2026-04-04T08:32:01.333Z</time></trkpt><trkpt lat="43.55865" lon="10.72129"><ele>51.0</ele><time>2026-04-04T08:32:02.334Z</time></trkpt><trkpt lat="43.5585717" lon="10.7212533"><ele>51.0</ele><time>2026-04-04T08:32:03.333Z</time></trkpt><trkpt lat="43.5584833" lon="10.7212367"><ele>51.0</ele><time>2026-04-04T08:32:04.333Z</time></trkpt><trkpt lat="43.5584033" lon="10.7212417"><ele>51.0</ele><time>2026-04-04T08:32:05.334Z</time></trkpt><trkpt lat="43.5583117" lon="10.7212967"><ele>51.0</ele><time>2026-04-04T08:32:06.333Z</time></trkpt><trkpt lat="43.5582467" lon="10.72138"><ele>51.0</ele><time>2026-04-04T08:32:07.333Z</time></trkpt><trkpt lat="43.5582017" lon="10.7214933"><ele>51.0</ele><time>2026-04-04T08:32:08.334Z</time></trkpt><trkpt lat="43.5581883" lon="10.7216383"><ele>51.0</ele><time>2026-04-04T08:32:09.334Z</time></trkpt><trkpt lat="43.5581933" lon="10.7218033"><ele>51.0</ele><time>2026-04-04T08:32:10.333Z</time></trkpt><trkpt lat="43.5582133" lon="10.722"><ele>51.0</ele><time>2026-04-04T08:32:11.333Z</time></trkpt><trkpt lat="43.5582417" lon="10.7222183"><ele>51.0</ele><time>2026-04-04T08:32:12.333Z</time></trkpt><trkpt lat="43.558265" lon="10.7224183"><ele>51.33333333333333</ele><time>2026-04-04T08:32:13.333Z</time></trkpt><trkpt lat="43.55831" lon="10.722625"><ele>51.666666666666664</ele><time>2026-04-04T08:32:14.333Z</time></trkpt><trkpt lat="43.5583483" lon="10.7228283"><ele>52.0</ele><time>2026-04-04T08:32:15.334Z</time></trkpt><trkpt lat="43.55838" lon="10.7230383"><ele>52.0</ele><time>2026-04-04T08:32:16.334Z</time></trkpt><trkpt lat="43.5584067" lon="10.7232267"><ele>52.0</ele><time>2026-04-04T08:32:17.333Z</time></trkpt><trkpt lat="43.5584367" lon="10.723395"><ele>52.0</ele><time>2026-04-04T08:32:18.333Z</time></trkpt><trkpt lat="43.5584567" lon="10.7235717"><ele>52.0</ele><time>2026-04-04T08:32:19.333Z</time></trkpt><trkpt lat="43.5584783" lon="10.7237417"><ele>51.6</ele><time>2026-04-04T08:32:20.334Z</time></trkpt><trkpt lat="43.55848" lon="10.7239017"><ele>51.2</ele><time>2026-04-04T08:32:21.333Z</time></trkpt><trkpt lat="43.5584667" lon="10.72405"><ele>50.8</ele><time>2026-04-04T08:32:22.333Z</time></trkpt><trkpt lat="43.558425" lon="10.72418"><ele>50.4</ele><time>2026-04-04T08:32:23.333Z</time></trkpt><trkpt lat="43.55837" lon="10.7243183"><ele>50.0</ele><time>2026-04-04T08:32:24.333Z</time></trkpt><trkpt lat="43.55829" lon="10.7244683"><ele>50.0</ele><time>2026-04-04T08:32:25.333Z</time></trkpt><trkpt lat="43.5581983" lon="10.7246333"><ele>50.0</ele><time>2026-04-04T08:32:26.333Z</time></trkpt><trkpt lat="43.5581117" lon="10.7247767"><ele>50.0</ele><time>2026-04-04T08:32:27.333Z</time></trkpt><trkpt lat="43.5580383" lon="10.724905"><ele>50.0</ele><time>2026-04-04T08:32:28.333Z</time></trkpt><trkpt lat="43.55797" lon="10.7250383"><ele>50.00000000000001</ele><time>2026-04-04T08:32:29.333Z</time></trkpt><trkpt lat="43.5578967" lon="10.725135"><ele>50.0</ele><time>2026-04-04T08:32:30.333Z</time></trkpt><trkpt lat="43.5578333" lon="10.725205"><ele>50.0</ele><time>2026-04-04T08:32:31.334Z</time></trkpt><trkpt lat="43.5577817" lon="10.725285"><ele>50.0</ele><time>2026-04-04T08:32:32.333Z</time></trkpt><trkpt lat="43.5577333" lon="10.725345"><ele>50.00000000000001</ele><time>2026-04-04T08:32:33.333Z</time></trkpt><trkpt lat="43.5576483" lon="10.72539"><ele>50.0</ele><time>2026-04-04T08:32:35.333Z</time></trkpt><trkpt lat="43.5575383" lon="10.7253383"><ele>50.00000000000001</ele><time>2026-04-04T08:32:37.333Z</time></trkpt><trkpt lat="43.5574467" lon="10.72532"><ele>50.0</ele><time>2026-04-04T08:32:38.333Z</time></trkpt><trkpt lat="43.557355" lon="10.7253"><ele>50.0</ele><time>2026-04-04T08:32:39.334Z</time></trkpt><trkpt lat="43.5572733" lon="10.7253083"><ele>50.0</ele><time>2026-04-04T08:32:40.333Z</time></trkpt><trkpt lat="43.55721" lon="10.725305"><ele>50.00000000000001</ele><time>2026-04-04T08:32:41.333Z</time></trkpt><trkpt lat="43.557105" lon="10.725285"><ele>50.0</ele><time>2026-04-04T08:32:43.333Z</time></trkpt><trkpt lat="43.556975" lon="10.7252433"><ele>53.75</ele><time>2026-04-04T08:32:45.333Z</time></trkpt><trkpt lat="43.5568883" lon="10.7252"><ele>57.5</ele><time>2026-04-04T08:32:46.334Z</time></trkpt><trkpt lat="43.556785" lon="10.725145"><ele>61.25</ele><time>2026-04-04T08:32:47.333Z</time></trkpt><trkpt lat="43.55664" lon="10.72511"><ele>65.0</ele><time>2026-04-04T08:32:48.333Z</time></trkpt><trkpt lat="43.5564933" lon="10.725055"><ele>65.0</ele><time>2026-04-04T08:32:49.333Z</time></trkpt><trkpt lat="43.5563467" lon="10.7249983"><ele>65.0</ele><time>2026-04-04T08:32:50.333Z</time></trkpt><trkpt lat="43.5561883" lon="10.724935"><ele>65.0</ele><time>2026-04-04T08:32:51.333Z</time></trkpt><trkpt lat="43.5560217" lon="10.7248733"><ele>65.66666666666667</ele><time>2026-04-04T08:32:52.333Z</time></trkpt><trkpt lat="43.5558417" lon="10.724825"><ele>66.33333333333333</ele><time>2026-04-04T08:32:53.333Z</time></trkpt><trkpt lat="43.5556533" lon="10.7248067"><ele>67.0</ele><time>2026-04-04T08:32:54.333Z</time></trkpt><trkpt lat="43.5554533" lon="10.7247967"><ele>68.66666666666666</ele><time>2026-04-04T08:32:55.333Z</time></trkpt><trkpt lat="43.5552467" lon="10.7248"><ele>70.33333333333333</ele><time>2026-04-04T08:32:56.334Z</time></trkpt><trkpt lat="43.5550367" lon="10.724805"><ele>72.0</ele><time>2026-04-04T08:32:57.333Z</time></trkpt><trkpt lat="43.554815" lon="10.7248483"><ele>72.0</ele><time>2026-04-04T08:32:58.333Z</time></trkpt><trkpt lat="43.5546133" lon="10.7248817"><ele>72.0</ele><time>2026-04-04T08:32:59.333Z</time></trkpt><trkpt lat="43.5544167" lon="10.7248883"><ele>72.0</ele><time>2026-04-04T08:33:00.333Z</time></trkpt><trkpt lat="43.554225" lon="10.7248717"><ele>75.0</ele><time>2026-04-04T08:33:01.333Z</time></trkpt><trkpt lat="43.5540483" lon="10.7248483"><ele>78.0</ele><time>2026-04-04T08:33:02.333Z</time></trkpt><trkpt lat="43.5538767" lon="10.72481"><ele>81.0</ele><time>2026-04-04T08:33:03.333Z</time></trkpt><trkpt lat="43.5536733" lon="10.7247833"><ele>82.66666666666667</ele><time>2026-04-04T08:33:04.333Z</time></trkpt><trkpt lat="43.553475" lon="10.7247333"><ele>84.33333333333334</ele><time>2026-04-04T08:33:05.333Z</time></trkpt><trkpt lat="43.553275" lon="10.72469"><ele>86.0</ele><time>2026-04-04T08:33:06.333Z</time></trkpt><trkpt lat="43.5530817" lon="10.7246467"><ele>86.0</ele><time>2026-04-04T08:33:07.333Z</time></trkpt><trkpt lat="43.5528917" lon="10.7246067"><ele>86.0</ele><time>2026-04-04T08:33:08.333Z</time></trkpt><trkpt lat="43.5527083" lon="10.7245567"><ele>86.0</ele><time>2026-04-04T08:33:09.333Z</time></trkpt><trkpt lat="43.5525217" lon="10.7245267"><ele>89.0</ele><time>2026-04-04T08:33:10.334Z</time></trkpt><trkpt lat="43.5523383" lon="10.7245133"><ele>92.0</ele><time>2026-04-04T08:33:11.334Z</time></trkpt><trkpt lat="43.5521567" lon="10.72453"><ele>95.0</ele><time>2026-04-04T08:33:12.333Z</time></trkpt><trkpt lat="43.5519933" lon="10.7245717"><ele>97.0</ele><time>2026-04-04T08:33:13.333Z</time></trkpt><trkpt lat="43.5518317" lon="10.7245933"><ele>99.0</ele><time>2026-04-04T08:33:14.333Z</time></trkpt><trkpt lat="43.5516633" lon="10.7245983"><ele>101.0</ele><time>2026-04-04T08:33:15.334Z</time></trkpt><trkpt lat="43.5515083" lon="10.72457"><ele>101.0</ele><time>2026-04-04T08:33:16.333Z</time></trkpt><trkpt lat="43.551365" lon="10.7245033"><ele>101.0</ele><time>2026-04-04T08:33:17.334Z</time></trkpt><trkpt lat="43.5512267" lon="10.7244517"><ele>101.0</ele><time>2026-04-04T08:33:18.333Z</time></trkpt><trkpt lat="43.5510983" lon="10.7244033"><ele>101.0</ele><time>2026-04-04T08:33:19.333Z</time></trkpt><trkpt lat="43.55098" lon="10.7243683"><ele>107.25</ele><time>2026-04-04T08:33:20.333Z</time></trkpt><trkpt lat="43.55087" lon="10.724345"><ele>113.5</ele><time>2026-04-04T08:33:21.333Z</time></trkpt><trkpt lat="43.5507667" lon="10.7243217"><ele>119.75</ele><time>2026-04-04T08:33:22.334Z</time></trkpt><trkpt lat="43.55065" lon="10.7243017"><ele>126.0</ele><time>2026-04-04T08:33:23.333Z</time></trkpt><trkpt lat="43.5505283" lon="10.7243033"><ele>126.0</ele><time>2026-04-04T08:33:24.333Z</time></trkpt><trkpt lat="43.5504117" lon="10.724255"><ele>126.0</ele><time>2026-04-04T08:33:25.334Z</time></trkpt><trkpt lat="43.5503" lon="10.724215"><ele>126.0</ele><time>2026-04-04T08:33:26.333Z</time></trkpt><trkpt lat="43.5502033" lon="10.724175"><ele>126.0</ele><time>2026-04-04T08:33:27.334Z</time></trkpt><trkpt lat="43.5501233" lon="10.724135"><ele>126.0</ele><time>2026-04-04T08:33:28.333Z</time></trkpt><trkpt lat="43.550025" lon="10.724095"><ele>125.0</ele><time>2026-04-04T08:33:29.333Z</time></trkpt><trkpt lat="43.5499333" lon="10.7240383"><ele>124.0</ele><time>2026-04-04T08:33:30.333Z</time></trkpt><trkpt lat="43.5498867" lon="10.7239167"><ele>123.0</ele><time>2026-04-04T08:33:31.334Z</time></trkpt><trkpt lat="43.54984" lon="10.7236933"><ele>122.0</ele><time>2026-04-04T08:33:32.333Z</time></trkpt><trkpt lat="43.5498267" lon="10.7234683"><ele>124.75</ele><time>2026-04-04T08:33:33.333Z</time></trkpt><trkpt lat="43.54979" lon="10.723295"><ele>127.5</ele><time>2026-04-04T08:33:34.334Z</time></trkpt><trkpt lat="43.5497867" lon="10.7230833"><ele>130.25</ele><time>2026-04-04T08:33:35.333Z</time></trkpt><trkpt lat="43.5497733" lon="10.7229183"><ele>133.0</ele><time>2026-04-04T08:33:36.333Z</time></trkpt><trkpt lat="43.5498" lon="10.72274"><ele>133.6</ele><time>2026-04-04T08:33:37.333Z</time></trkpt><trkpt lat="43.5498183" lon="10.7225883"><ele>134.20000000000002</ele><time>2026-04-04T08:33:38.333Z</time></trkpt><trkpt lat="43.5498217" lon="10.7224367"><ele>134.8</ele><time>2026-04-04T08:33:39.333Z</time></trkpt><trkpt lat="43.549815" lon="10.722295"><ele>135.4</ele><time>2026-04-04T08:33:40.333Z</time></trkpt><trkpt lat="43.5498167" lon="10.722165"><ele>136.0</ele><time>2026-04-04T08:33:41.333Z</time></trkpt><trkpt lat="43.54981" lon="10.7220683"><ele>135.99999999999997</ele><time>2026-04-04T08:33:42.333Z</time></trkpt><trkpt lat="43.5498017" lon="10.721955"><ele>136.0</ele><time>2026-04-04T08:33:43.333Z</time></trkpt><trkpt lat="43.5497933" lon="10.7218517"><ele>136.0</ele><time>2026-04-04T08:33:44.334Z</time></trkpt><trkpt lat="43.5497883" lon="10.7217567"><ele>136.0</ele><time>2026-04-04T08:33:45.333Z</time></trkpt><trkpt lat="43.549775" lon="10.7216583"><ele>136.0</ele><time>2026-04-04T08:33:46.333Z</time></trkpt><trkpt lat="43.5497483" lon="10.7215683"><ele>135.99999999999997</ele><time>2026-04-04T08:33:48.333Z</time></trkpt><trkpt lat="43.5496933" lon="10.7215183"><ele>136.0</ele><time>2026-04-04T08:33:51.334Z</time></trkpt><trkpt lat="43.5496367" lon="10.7214267"><ele>135.6</ele><time>2026-04-04T08:33:56.333Z</time></trkpt><trkpt lat="43.5496133" lon="10.721335"><ele>135.2</ele><time>2026-04-04T08:33:58.333Z</time></trkpt><trkpt lat="43.5496333" lon="10.7212517"><ele>134.8</ele><time>2026-04-04T08:33:59.333Z</time></trkpt><trkpt lat="43.54965" lon="10.72102"><ele>134.4</ele><time>2026-04-04T08:34:01.334Z</time></trkpt><trkpt lat="43.5496617" lon="10.7208467"><ele>134.0</ele><time>2026-04-04T08:34:02.333Z</time></trkpt><trkpt lat="43.5496783" lon="10.7207067"><ele>132.8</ele><time>2026-04-04T08:34:03.334Z</time></trkpt><trkpt lat="43.54969" lon="10.7205667"><ele>131.60000000000002</ele><time>2026-04-04T08:34:04.333Z</time></trkpt><trkpt lat="43.549685" lon="10.72044"><ele>130.4</ele><time>2026-04-04T08:34:05.333Z</time></trkpt><trkpt lat="43.5496667" lon="10.7203"><ele>129.20000000000002</ele><time>2026-04-04T08:34:06.333Z</time></trkpt><trkpt lat="43.549655" lon="10.7201767"><ele>128.0</ele><time>2026-04-04T08:34:07.333Z</time></trkpt><trkpt lat="43.5496233" lon="10.72006"><ele>127.0</ele><time>2026-04-04T08:34:08.333Z</time></trkpt><trkpt lat="43.5495617" lon="10.719945"><ele>126.00000000000001</ele><time>2026-04-04T08:34:09.333Z</time></trkpt><trkpt lat="43.549505" lon="10.71983"><ele>125.00000000000001</ele><time>2026-04-04T08:34:10.333Z</time></trkpt><trkpt lat="43.5495033" lon="10.7197367"><ele>124.0</ele><time>2026-04-04T08:34:11.333Z</time></trkpt><trkpt lat="43.5494217" lon="10.71962"><ele>123.0</ele><time>2026-04-04T08:34:12.334Z</time></trkpt><trkpt lat="43.5493333" lon="10.7195"><ele>120.66666666666666</ele><time>2026-04-04T08:34:13.333Z</time></trkpt><trkpt lat="43.54923" lon="10.7193917"><ele>118.33333333333333</ele><time>2026-04-04T08:34:14.333Z</time></trkpt><trkpt lat="43.5490917" lon="10.7193"><ele>116.0</ele><time>2026-04-04T08:34:15.333Z</time></trkpt><trkpt lat="43.5489317" lon="10.7192367"><ele>116.0</ele><time>2026-04-04T08:34:16.333Z</time></trkpt><trkpt lat="43.5487683" lon="10.7191783"><ele>116.0</ele><time>2026-04-04T08:34:17.333Z</time></trkpt><trkpt lat="43.54862" lon="10.71911"><ele>116.0</ele><time>2026-04-04T08:34:18.333Z</time></trkpt><trkpt lat="43.5484533" lon="10.7191433"><ele>115.33333333333333</ele><time>2026-04-04T08:34:19.334Z</time></trkpt><trkpt lat="43.548305" lon="10.7191717"><ele>114.66666666666666</ele><time>2026-04-04T08:34:20.333Z</time></trkpt><trkpt lat="43.5481467" lon="10.7192"><ele>114.0</ele><time>2026-04-04T08:34:21.334Z</time></trkpt><trkpt lat="43.5480033" lon="10.719205"><ele>112.5</ele><time>2026-04-04T08:34:22.334Z</time></trkpt><trkpt lat="43.5478567" lon="10.7192117"><ele>111.0</ele><time>2026-04-04T08:34:23.333Z</time></trkpt><trkpt lat="43.5477217" lon="10.71923"><ele>109.5</ele><time>2026-04-04T08:34:24.333Z</time></trkpt><trkpt lat="43.5475967" lon="10.7192517"><ele>108.0</ele><time>2026-04-04T08:34:25.334Z</time></trkpt><trkpt lat="43.5474717" lon="10.7192683"><ele>108.0</ele><time>2026-04-04T08:34:26.333Z</time></trkpt><trkpt lat="43.5473533" lon="10.7192817"><ele>108.0</ele><time>2026-04-04T08:34:27.333Z</time></trkpt><trkpt lat="43.547245" lon="10.7193083"><ele>108.0</ele><time>2026-04-04T08:34:28.334Z</time></trkpt><trkpt lat="43.5471317" lon="10.71933"><ele>108.0</ele><time>2026-04-04T08:34:29.333Z</time></trkpt><trkpt lat="43.54701" lon="10.719335"><ele>108.33333333333333</ele><time>2026-04-04T08:34:30.333Z</time></trkpt><trkpt lat="43.546895" lon="10.7193333"><ele>108.66666666666666</ele><time>2026-04-04T08:34:31.333Z</time></trkpt><trkpt lat="43.54681" lon="10.7193383"><ele>109.0</ele><time>2026-04-04T08:34:32.333Z</time></trkpt><trkpt lat="43.54673" lon="10.7193367"><ele>109.33333333333333</ele><time>2026-04-04T08:34:33.333Z</time></trkpt><trkpt lat="43.54666" lon="10.7193217"><ele>109.66666666666666</ele><time>2026-04-04T08:34:34.333Z</time></trkpt><trkpt lat="43.54659" lon="10.7192933"><ele>110.0</ele><time>2026-04-04T08:34:35.334Z</time></trkpt><trkpt lat="43.546525" lon="10.7192767"><ele>110.0</ele><time>2026-04-04T08:34:36.333Z</time></trkpt><trkpt lat="43.5464567" lon="10.71928"><ele>110.0</ele><time>2026-04-04T08:34:37.333Z</time></trkpt><trkpt lat="43.546365" lon="10.7192967"><ele>110.0</ele><time>2026-04-04T08:34:38.334Z</time></trkpt><trkpt lat="43.546255" lon="10.7193383"><ele>110.0</ele><time>2026-04-04T08:34:39.333Z</time></trkpt><trkpt lat="43.5461267" lon="10.7194017"><ele>110.0</ele><time>2026-04-04T08:34:40.333Z</time></trkpt><trkpt lat="43.5459733" lon="10.7194833"><ele>113.0</ele><time>2026-04-04T08:34:41.333Z</time></trkpt><trkpt lat="43.5458133" lon="10.7195583"><ele>116.0</ele><time>2026-04-04T08:34:42.333Z</time></trkpt><trkpt lat="43.5456567" lon="10.71962"><ele>119.0</ele><time>2026-04-04T08:34:43.334Z</time></trkpt><trkpt lat="43.5455217" lon="10.7197"><ele>117.75</ele><time>2026-04-04T08:34:44.333Z</time></trkpt><trkpt lat="43.545375" lon="10.719755"><ele>116.5</ele><time>2026-04-04T08:34:45.333Z</time></trkpt><trkpt lat="43.5452417" lon="10.7198483"><ele>115.25</ele><time>2026-04-04T08:34:46.333Z</time></trkpt><trkpt lat="43.5451317" lon="10.7199817"><ele>114.0</ele><time>2026-04-04T08:34:47.333Z</time></trkpt><trkpt lat="43.5450117" lon="10.7201167"><ele>115.75</ele><time>2026-04-04T08:34:48.334Z</time></trkpt><trkpt lat="43.5449183" lon="10.7202483"><ele>117.5</ele><time>2026-04-04T08:34:49.334Z</time></trkpt><trkpt lat="43.5448467" lon="10.7203783"><ele>119.25</ele><time>2026-04-04T08:34:50.334Z</time></trkpt><trkpt lat="43.5447667" lon="10.7204883"><ele>121.0</ele><time>2026-04-04T08:34:51.333Z</time></trkpt><trkpt lat="43.544685" lon="10.7206033"><ele>121.0</ele><time>2026-04-04T08:34:52.333Z</time></trkpt><trkpt lat="43.544585" lon="10.7207083"><ele>121.0</ele><time>2026-04-04T08:34:53.334Z</time></trkpt><trkpt lat="43.54447" lon="10.7207983"><ele>121.0</ele><time>2026-04-04T08:34:54.333Z</time></trkpt><trkpt lat="43.544335" lon="10.7208717"><ele>121.0</ele><time>2026-04-04T08:34:55.333Z</time></trkpt><trkpt lat="43.54419" lon="10.7209433"><ele>120.75</ele><time>2026-04-04T08:34:56.333Z</time></trkpt><trkpt lat="43.5440433" lon="10.720995"><ele>120.5</ele><time>2026-04-04T08:34:57.333Z</time></trkpt><trkpt lat="43.5439017" lon="10.7210317"><ele>120.25</ele><time>2026-04-04T08:34:58.333Z</time></trkpt><trkpt lat="43.5437567" lon="10.721055"><ele>120.0</ele><time>2026-04-04T08:34:59.333Z</time></trkpt><trkpt lat="43.54361" lon="10.721065"><ele>119.66666666666666</ele><time>2026-04-04T08:35:00.333Z</time></trkpt><trkpt lat="43.543455" lon="10.721065"><ele>119.33333333333333</ele><time>2026-04-04T08:35:01.333Z</time></trkpt><trkpt lat="43.54328" lon="10.7210467"><ele>119.0</ele><time>2026-04-04T08:35:02.333Z</time></trkpt><trkpt lat="43.5431033" lon="10.7210183"><ele>119.0</ele><time>2026-04-04T08:35:03.333Z</time></trkpt><trkpt lat="43.5429467" lon="10.7210033"><ele>119.0</ele><time>2026-04-04T08:35:04.333Z</time></trkpt><trkpt lat="43.5428133" lon="10.720995"><ele>119.0</ele><time>2026-04-04T08:35:05.333Z</time></trkpt><trkpt lat="43.542695" lon="10.72101"><ele>119.0</ele><time>2026-04-04T08:35:06.333Z</time></trkpt><trkpt lat="43.5425833" lon="10.7210233"><ele>118.75</ele><time>2026-04-04T08:35:07.333Z</time></trkpt><trkpt lat="43.5424733" lon="10.72103"><ele>118.5</ele><time>2026-04-04T08:35:08.333Z</time></trkpt><trkpt lat="43.542365" lon="10.7210433"><ele>118.25</ele><time>2026-04-04T08:35:09.333Z</time></trkpt><trkpt lat="43.542245" lon="10.7210683"><ele>118.0</ele><time>2026-04-04T08:35:10.333Z</time></trkpt><trkpt lat="43.542125" lon="10.7210933"><ele>117.75</ele><time>2026-04-04T08:35:11.334Z</time></trkpt><trkpt lat="43.5420083" lon="10.7211067"><ele>117.5</ele><time>2026-04-04T08:35:12.333Z</time></trkpt><trkpt lat="43.5418817" lon="10.7211117"><ele>117.25</ele><time>2026-04-04T08:35:13.333Z</time></trkpt><trkpt lat="43.541745" lon="10.72112"><ele>117.0</ele><time>2026-04-04T08:35:14.333Z</time></trkpt><trkpt lat="43.541605" lon="10.72112"><ele>117.0</ele><time>2026-04-04T08:35:15.334Z</time></trkpt><trkpt lat="43.5414583" lon="10.7211183"><ele>117.0</ele><time>2026-04-04T08:35:16.333Z</time></trkpt><trkpt lat="43.5413017" lon="10.7211133"><ele>117.0</ele><time>2026-04-04T08:35:17.333Z</time></trkpt><trkpt lat="43.5411467" lon="10.7211067"><ele>118.66666666666666</ele><time>2026-04-04T08:35:18.334Z</time></trkpt><trkpt lat="43.5409883" lon="10.7210967"><ele>120.33333333333333</ele><time>2026-04-04T08:35:19.334Z</time></trkpt><trkpt lat="43.5408233" lon="10.721085"><ele>122.0</ele><time>2026-04-04T08:35:20.333Z</time></trkpt><trkpt lat="43.5406517" lon="10.7210683"><ele>122.0</ele><time>2026-04-04T08:35:21.333Z</time></trkpt><trkpt lat="43.5404667" lon="10.7210383"><ele>122.0</ele><time>2026-04-04T08:35:22.333Z</time></trkpt><trkpt lat="43.540285" lon="10.7210233"><ele>122.0</ele><time>2026-04-04T08:35:23.334Z</time></trkpt><trkpt lat="43.5401067" lon="10.721015"><ele>124.0</ele><time>2026-04-04T08:35:24.334Z</time></trkpt><trkpt lat="43.539915" lon="10.7210217"><ele>126.0</ele><time>2026-04-04T08:35:25.333Z</time></trkpt><trkpt lat="43.5397233" lon="10.7210483"><ele>128.0</ele><time>2026-04-04T08:35:26.334Z</time></trkpt><trkpt lat="43.53953" lon="10.7210783"><ele>128.0</ele><time>2026-04-04T08:35:27.333Z</time></trkpt><trkpt lat="43.53934" lon="10.72111"><ele>128.0</ele><time>2026-04-04T08:35:28.333Z</time></trkpt><trkpt lat="43.539145" lon="10.72114"><ele>128.0</ele><time>2026-04-04T08:35:29.333Z</time></trkpt><trkpt lat="43.5389667" lon="10.7211883"><ele>128.0</ele><time>2026-04-04T08:35:30.333Z</time></trkpt><trkpt lat="43.5388" lon="10.72124"><ele>128.0</ele><time>2026-04-04T08:35:31.333Z</time></trkpt><trkpt lat="43.53862" lon="10.7212883"><ele>128.0</ele><time>2026-04-04T08:35:32.333Z</time></trkpt><trkpt lat="43.5384333" lon="10.72133"><ele>130.33333333333331</ele><time>2026-04-04T08:35:33.333Z</time></trkpt><trkpt lat="43.53824" lon="10.7213533"><ele>132.66666666666666</ele><time>2026-04-04T08:35:34.333Z</time></trkpt><trkpt lat="43.5380567" lon="10.72135"><ele>135.0</ele><time>2026-04-04T08:35:35.334Z</time></trkpt><trkpt lat="43.5378783" lon="10.7213433"><ele>135.33333333333334</ele><time>2026-04-04T08:35:36.334Z</time></trkpt><trkpt lat="43.5377283" lon="10.7213533"><ele>135.66666666666669</ele><time>2026-04-04T08:35:37.334Z</time></trkpt><trkpt lat="43.537565" lon="10.72136"><ele>136.0</ele><time>2026-04-04T08:35:38.333Z</time></trkpt><trkpt lat="43.5373933" lon="10.7213633"><ele>136.0</ele><time>2026-04-04T08:35:39.333Z</time></trkpt><trkpt lat="43.5372333" lon="10.7213917"><ele>136.0</ele><time>2026-04-04T08:35:40.333Z</time></trkpt><trkpt lat="43.5370833" lon="10.72144"><ele>136.0</ele><time>2026-04-04T08:35:41.333Z</time></trkpt><trkpt lat="43.53695" lon="10.7214917"><ele>132.66666666666669</ele><time>2026-04-04T08:35:42.334Z</time></trkpt><trkpt lat="43.5368017" lon="10.72154"><ele>129.33333333333334</ele><time>2026-04-04T08:35:43.334Z</time></trkpt><trkpt lat="43.5366483" lon="10.7215433"><ele>126.0</ele><time>2026-04-04T08:35:44.333Z</time></trkpt><trkpt lat="43.5364767" lon="10.7215117"><ele>126.0</ele><time>2026-04-04T08:35:45.334Z</time></trkpt><trkpt lat="43.5362933" lon="10.7214483"><ele>126.0</ele><time>2026-04-04T08:35:46.333Z</time></trkpt><trkpt lat="43.5361117" lon="10.7213733"><ele>126.0</ele><time>2026-04-04T08:35:47.333Z</time></trkpt><trkpt lat="43.535935" lon="10.7213017"><ele>123.0</ele><time>2026-04-04T08:35:48.333Z</time></trkpt><trkpt lat="43.5357617" lon="10.7212383"><ele>120.0</ele><time>2026-04-04T08:35:49.334Z</time></trkpt><trkpt lat="43.5355867" lon="10.72121"><ele>117.0</ele><time>2026-04-04T08:35:50.333Z</time></trkpt><trkpt lat="43.535415" lon="10.7211567"><ele>118.33333333333334</ele><time>2026-04-04T08:35:51.333Z</time></trkpt><trkpt lat="43.53523" lon="10.7210833"><ele>119.66666666666667</ele><time>2026-04-04T08:35:52.334Z</time></trkpt><trkpt lat="43.5350467" lon="10.7209833"><ele>121.0</ele><time>2026-04-04T08:35:53.333Z</time></trkpt><trkpt lat="43.5348867" lon="10.7208717"><ele>121.66666666666667</ele><time>2026-04-04T08:35:54.333Z</time></trkpt><trkpt lat="43.5347117" lon="10.7207333"><ele>122.33333333333334</ele><time>2026-04-04T08:35:55.333Z</time></trkpt><trkpt lat="43.5345417" lon="10.7206167"><ele>123.0</ele><time>2026-04-04T08:35:56.333Z</time></trkpt><trkpt lat="43.534385" lon="10.7205217"><ele>124.5</ele><time>2026-04-04T08:35:57.333Z</time></trkpt><trkpt lat="43.5342383" lon="10.7204367"><ele>126.0</ele><time>2026-04-04T08:35:58.333Z</time></trkpt><trkpt lat="43.5341017" lon="10.7203667"><ele>127.5</ele><time>2026-04-04T08:35:59.333Z</time></trkpt><trkpt lat="43.53397" lon="10.7203133"><ele>129.0</ele><time>2026-04-04T08:36:00.333Z</time></trkpt><trkpt lat="43.5338467" lon="10.7202767"><ele>128.0</ele><time>2026-04-04T08:36:01.333Z</time></trkpt><trkpt lat="43.533715" lon="10.720285"><ele>127.0</ele><time>2026-04-04T08:36:02.333Z</time></trkpt><trkpt lat="43.5335817" lon="10.7203683"><ele>126.0</ele><time>2026-04-04T08:36:03.333Z</time></trkpt><trkpt lat="43.53341" lon="10.7203817"><ele>126.0</ele><time>2026-04-04T08:36:04.333Z</time></trkpt><trkpt lat="43.533235" lon="10.7204167"><ele>126.0</ele><time>2026-04-04T08:36:05.334Z</time></trkpt><trkpt lat="43.5330483" lon="10.7204783"><ele>126.0</ele><time>2026-04-04T08:36:06.333Z</time></trkpt><trkpt lat="43.5328533" lon="10.720565"><ele>123.66666666666666</ele><time>2026-04-04T08:36:07.333Z</time></trkpt><trkpt lat="43.53266" lon="10.7206683"><ele>121.33333333333333</ele><time>2026-04-04T08:36:08.333Z</time></trkpt><trkpt lat="43.53246" lon="10.7207683"><ele>119.0</ele><time>2026-04-04T08:36:09.333Z</time></trkpt><trkpt lat="43.532255" lon="10.72087"><ele>119.0</ele><time>2026-04-04T08:36:10.333Z</time></trkpt><trkpt lat="43.53206" lon="10.7209967"><ele>119.0</ele><time>2026-04-04T08:36:11.333Z</time></trkpt><trkpt lat="43.53186" lon="10.72112"><ele>119.0</ele><time>2026-04-04T08:36:12.334Z</time></trkpt><trkpt lat="43.531675" lon="10.7212367"><ele>118.66666666666666</ele><time>2026-04-04T08:36:13.333Z</time></trkpt><trkpt lat="43.5314967" lon="10.72135"><ele>118.33333333333334</ele><time>2026-04-04T08:36:14.333Z</time></trkpt><trkpt lat="43.5313133" lon="10.72147"><ele>118.0</ele><time>2026-04-04T08:36:15.333Z</time></trkpt><trkpt lat="43.5311567" lon="10.7215717"><ele>121.0</ele><time>2026-04-04T08:36:16.333Z</time></trkpt><trkpt lat="43.53099" lon="10.7216533"><ele>124.0</ele><time>2026-04-04T08:36:17.333Z</time></trkpt><trkpt lat="43.530835" lon="10.7217367"><ele>127.0</ele><time>2026-04-04T08:36:18.334Z</time></trkpt><trkpt lat="43.530695" lon="10.7218217"><ele>125.33333333333334</ele><time>2026-04-04T08:36:19.333Z</time></trkpt><trkpt lat="43.5305633" lon="10.7219567"><ele>123.66666666666666</ele><time>2026-04-04T08:36:20.333Z</time></trkpt><trkpt lat="43.5304467" lon="10.7220917"><ele>122.0</ele><time>2026-04-04T08:36:21.333Z</time></trkpt><trkpt lat="43.5303517" lon="10.7222567"><ele>124.0</ele><time>2026-04-04T08:36:22.333Z</time></trkpt><trkpt lat="43.5302683" lon="10.722445"><ele>126.0</ele><time>2026-04-04T08:36:23.334Z</time></trkpt><trkpt lat="43.53019" lon="10.72266"><ele>128.0</ele><time>2026-04-04T08:36:24.334Z</time></trkpt><trkpt lat="43.530125" lon="10.72287"><ele>128.0</ele><time>2026-04-04T08:36:25.334Z</time></trkpt><trkpt lat="43.5300467" lon="10.7230683"><ele>128.0</ele><time>2026-04-04T08:36:26.333Z</time></trkpt><trkpt lat="43.529965" lon="10.72325"><ele>128.0</ele><time>2026-04-04T08:36:27.333Z</time></trkpt><trkpt lat="43.529895" lon="10.7234083"><ele>127.5</ele><time>2026-04-04T08:36:28.333Z</time></trkpt><trkpt lat="43.5298217" lon="10.7235717"><ele>127.0</ele><time>2026-04-04T08:36:29.334Z</time></trkpt><trkpt lat="43.52975" lon="10.7237267"><ele>126.5</ele><time>2026-04-04T08:36:30.333Z</time></trkpt><trkpt lat="43.5296783" lon="10.7238867"><ele>126.0</ele><time>2026-04-04T08:36:31.333Z</time></trkpt><trkpt lat="43.5296133" lon="10.72406"><ele>124.0</ele><time>2026-04-04T08:36:32.333Z</time></trkpt><trkpt lat="43.5295483" lon="10.7242333"><ele>122.0</ele><time>2026-04-04T08:36:33.334Z</time></trkpt><trkpt lat="43.5295083" lon="10.724415"><ele>120.0</ele><time>2026-04-04T08:36:34.333Z</time></trkpt><trkpt lat="43.5295" lon="10.7246067"><ele>118.0</ele><time>2026-04-04T08:36:35.333Z</time></trkpt><trkpt lat="43.5295017" lon="10.72479"><ele>118.0</ele><time>2026-04-04T08:36:36.334Z</time></trkpt><trkpt lat="43.5295017" lon="10.7249583"><ele>118.0</ele><time>2026-04-04T08:36:37.334Z</time></trkpt><trkpt lat="43.5295167" lon="10.7251267"><ele>118.0</ele><time>2026-04-04T08:36:38.333Z</time></trkpt><trkpt lat="43.52953" lon="10.725295"><ele>118.0</ele><time>2026-04-04T08:36:39.333Z</time></trkpt><trkpt lat="43.5295317" lon="10.7254467"><ele>120.25</ele><time>2026-04-04T08:36:40.333Z</time></trkpt><trkpt lat="43.529525" lon="10.7256083"><ele>122.5</ele><time>2026-04-04T08:36:41.333Z</time></trkpt><trkpt lat="43.529505" lon="10.72575"><ele>124.75</ele><time>2026-04-04T08:36:42.333Z</time></trkpt><trkpt lat="43.52949" lon="10.7259017"><ele>127.0</ele><time>2026-04-04T08:36:43.333Z</time></trkpt><trkpt lat="43.529435" lon="10.7260533"><ele>129.0</ele><time>2026-04-04T08:36:44.333Z</time></trkpt><trkpt lat="43.52938" lon="10.72621"><ele>131.0</ele><time>2026-04-04T08:36:45.333Z</time></trkpt><trkpt lat="43.5292983" lon="10.7263483"><ele>133.0</ele><time>2026-04-04T08:36:46.334Z</time></trkpt><trkpt lat="43.5292083" lon="10.7264917"><ele>135.0</ele><time>2026-04-04T08:36:47.333Z</time></trkpt><trkpt lat="43.5291133" lon="10.7266317"><ele>135.0</ele><time>2026-04-04T08:36:48.333Z</time></trkpt><trkpt lat="43.5290167" lon="10.726775"><ele>135.0</ele><time>2026-04-04T08:36:49.334Z</time></trkpt><trkpt lat="43.5289283" lon="10.7269233"><ele>135.0</ele><time>2026-04-04T08:36:50.333Z</time></trkpt><trkpt lat="43.528835" lon="10.72708"><ele>135.0</ele><time>2026-04-04T08:36:51.333Z</time></trkpt><trkpt lat="43.5287283" lon="10.7272317"><ele>136.66666666666666</ele><time>2026-04-04T08:36:52.333Z</time></trkpt><trkpt lat="43.52863" lon="10.7273817"><ele>138.33333333333331</ele><time>2026-04-04T08:36:53.333Z</time></trkpt><trkpt lat="43.5285167" lon="10.7275383"><ele>140.0</ele><time>2026-04-04T08:36:54.333Z</time></trkpt><trkpt lat="43.528395" lon="10.7276967"><ele>140.0</ele><time>2026-04-04T08:36:55.333Z</time></trkpt><trkpt lat="43.5282917" lon="10.7278667"><ele>140.0</ele><time>2026-04-04T08:36:56.334Z</time></trkpt><trkpt lat="43.528185" lon="10.72804"><ele>140.0</ele><time>2026-04-04T08:36:57.333Z</time></trkpt><trkpt lat="43.5280583" lon="10.7282217"><ele>140.0</ele><time>2026-04-04T08:36:58.333Z</time></trkpt><trkpt lat="43.5279317" lon="10.7284067"><ele>140.0</ele><time>2026-04-04T08:36:59.334Z</time></trkpt><trkpt lat="43.52779" lon="10.7285633"><ele>140.0</ele><time>2026-04-04T08:37:00.334Z</time></trkpt><trkpt lat="43.5276367" lon="10.728715"><ele>139.33333333333331</ele><time>2026-04-04T08:37:01.333Z</time></trkpt><trkpt lat="43.5274983" lon="10.7288367"><ele>138.66666666666666</ele><time>2026-04-04T08:37:02.334Z</time></trkpt><trkpt lat="43.5273717" lon="10.72896"><ele>138.0</ele><time>2026-04-04T08:37:03.333Z</time></trkpt><trkpt lat="43.5272467" lon="10.7290883"><ele>138.0</ele><time>2026-04-04T08:37:04.333Z</time></trkpt><trkpt lat="43.5271283" lon="10.7292417"><ele>138.0</ele><time>2026-04-04T08:37:05.333Z</time></trkpt><trkpt lat="43.5270217" lon="10.7294133"><ele>138.0</ele><time>2026-04-04T08:37:06.333Z</time></trkpt><trkpt lat="43.52695" lon="10.7296"><ele>141.66666666666666</ele><time>2026-04-04T08:37:07.333Z</time></trkpt><trkpt lat="43.526875" lon="10.7297683"><ele>145.33333333333331</ele><time>2026-04-04T08:37:08.333Z</time></trkpt><trkpt lat="43.526825" lon="10.7299617"><ele>149.0</ele><time>2026-04-04T08:37:09.333Z</time></trkpt><trkpt lat="43.5267833" lon="10.7301767"><ele>149.66666666666666</ele><time>2026-04-04T08:37:10.333Z</time></trkpt><trkpt lat="43.5267533" lon="10.7303983"><ele>150.33333333333334</ele><time>2026-04-04T08:37:11.333Z</time></trkpt><trkpt lat="43.5267217" lon="10.73062"><ele>151.0</ele><time>2026-04-04T08:37:12.333Z</time></trkpt><trkpt lat="43.5266783" lon="10.73083"><ele>151.0</ele><time>2026-04-04T08:37:13.333Z</time></trkpt><trkpt lat="43.52662" lon="10.7310317"><ele>151.0</ele><time>2026-04-04T08:37:14.333Z</time></trkpt><trkpt lat="43.5265533" lon="10.731195"><ele>151.0</ele><time>2026-04-04T08:37:15.333Z</time></trkpt><trkpt lat="43.5264817" lon="10.7313483"><ele>151.0</ele><time>2026-04-04T08:37:16.333Z</time></trkpt><trkpt lat="43.526405" lon="10.7314733"><ele>150.75</ele><time>2026-04-04T08:37:17.333Z</time></trkpt><trkpt lat="43.5263283" lon="10.7315617"><ele>150.5</ele><time>2026-04-04T08:37:18.333Z</time></trkpt><trkpt lat="43.5262183" lon="10.7316183"><ele>150.25</ele><time>2026-04-04T08:37:19.333Z</time></trkpt><trkpt lat="43.5261083" lon="10.7316633"><ele>150.0</ele><time>2026-04-04T08:37:20.333Z</time></trkpt><trkpt lat="43.52599" lon="10.73167"><ele>150.0</ele><time>2026-04-04T08:37:21.333Z</time></trkpt><trkpt lat="43.5258817" lon="10.73164"><ele>150.0</ele><time>2026-04-04T08:37:22.333Z</time></trkpt><trkpt lat="43.5257533" lon="10.73157"><ele>150.0</ele><time>2026-04-04T08:37:23.334Z</time></trkpt><trkpt lat="43.525645" lon="10.7315"><ele>150.0</ele><time>2026-04-04T08:37:24.334Z</time></trkpt><trkpt lat="43.5255467" lon="10.73144"><ele>150.0</ele><time>2026-04-04T08:37:25.334Z</time></trkpt><trkpt lat="43.5254517" lon="10.7314133"><ele>150.0</ele><time>2026-04-04T08:37:26.333Z</time></trkpt><trkpt lat="43.5253633" lon="10.73144"><ele>150.0</ele><time>2026-04-04T08:37:27.334Z</time></trkpt><trkpt lat="43.5252617" lon="10.7315"><ele>150.0</ele><time>2026-04-04T08:37:28.333Z</time></trkpt><trkpt lat="43.5251683" lon="10.7316"><ele>150.0</ele><time>2026-04-04T08:37:29.334Z</time></trkpt><trkpt lat="43.5251033" lon="10.7317533"><ele>146.0</ele><time>2026-04-04T08:37:30.333Z</time></trkpt><trkpt lat="43.5250417" lon="10.7319567"><ele>142.0</ele><time>2026-04-04T08:37:31.333Z</time></trkpt><trkpt lat="43.5249617" lon="10.7322067"><ele>138.0</ele><time>2026-04-04T08:37:32.334Z</time></trkpt><trkpt lat="43.5248533" lon="10.7324383"><ele>138.0</ele><time>2026-04-04T08:37:33.333Z</time></trkpt><trkpt lat="43.52479" lon="10.732695"><ele>138.0</ele><time>2026-04-04T08:37:34.333Z</time></trkpt><trkpt lat="43.5247467" lon="10.73296"><ele>138.0</ele><time>2026-04-04T08:37:35.333Z</time></trkpt><trkpt lat="43.524725" lon="10.7332167"><ele>135.66666666666666</ele><time>2026-04-04T08:37:36.333Z</time></trkpt><trkpt lat="43.5246933" lon="10.7334583"><ele>133.33333333333331</ele><time>2026-04-04T08:37:37.333Z</time></trkpt><trkpt lat="43.5246667" lon="10.73369"><ele>131.0</ele><time>2026-04-04T08:37:38.333Z</time></trkpt><trkpt lat="43.5246333" lon="10.733905"><ele>130.66666666666666</ele><time>2026-04-04T08:37:39.333Z</time></trkpt><trkpt lat="43.5246033" lon="10.734115"><ele>130.33333333333334</ele><time>2026-04-04T08:37:40.333Z</time></trkpt><trkpt lat="43.5245717" lon="10.7343167"><ele>130.0</ele><time>2026-04-04T08:37:41.334Z</time></trkpt><trkpt lat="43.5245383" lon="10.7345283"><ele>133.0</ele><time>2026-04-04T08:37:42.333Z</time></trkpt><trkpt lat="43.524465" lon="10.7347183"><ele>136.0</ele><time>2026-04-04T08:37:43.333Z</time></trkpt><trkpt lat="43.5243667" lon="10.7349"><ele>139.0</ele><time>2026-04-04T08:37:44.334Z</time></trkpt><trkpt lat="43.5242317" lon="10.7350983"><ele>133.66666666666669</ele><time>2026-04-04T08:37:45.333Z</time></trkpt><trkpt lat="43.5241183" lon="10.7352933"><ele>128.33333333333334</ele><time>2026-04-04T08:37:46.334Z</time></trkpt><trkpt lat="43.5239917" lon="10.7354633"><ele>123.0</ele><time>2026-04-04T08:37:47.333Z</time></trkpt><trkpt lat="43.5238683" lon="10.735615"><ele>123.0</ele><time>2026-04-04T08:37:48.334Z</time></trkpt><trkpt lat="43.52375" lon="10.7357683"><ele>123.0</ele><time>2026-04-04T08:37:49.333Z</time></trkpt><trkpt lat="43.5236217" lon="10.73593"><ele>123.0</ele><time>2026-04-04T08:37:50.334Z</time></trkpt><trkpt lat="43.5234833" lon="10.7360767"><ele>124.0</ele><time>2026-04-04T08:37:51.333Z</time></trkpt><trkpt lat="43.523355" lon="10.7362"><ele>125.0</ele><time>2026-04-04T08:37:52.333Z</time></trkpt><trkpt lat="43.523235" lon="10.7363233"><ele>126.0</ele><time>2026-04-04T08:37:53.333Z</time></trkpt><trkpt lat="43.523085" lon="10.7364583"><ele>126.0</ele><time>2026-04-04T08:37:54.333Z</time></trkpt><trkpt lat="43.5229467" lon="10.736535"><ele>126.0</ele><time>2026-04-04T08:37:55.333Z</time></trkpt><trkpt lat="43.52281" lon="10.7366217"><ele>126.0</ele><time>2026-04-04T08:37:56.333Z</time></trkpt><trkpt lat="43.5226567" lon="10.7366917"><ele>127.5</ele><time>2026-04-04T08:37:57.334Z</time></trkpt><trkpt lat="43.522505" lon="10.736735"><ele>129.0</ele><time>2026-04-04T08:37:58.334Z</time></trkpt><trkpt lat="43.5223683" lon="10.73678"><ele>130.5</ele><time>2026-04-04T08:37:59.333Z</time></trkpt><trkpt lat="43.5222517" lon="10.7368667"><ele>132.0</ele><time>2026-04-04T08:38:00.333Z</time></trkpt><trkpt lat="43.5221467" lon="10.7369717"><ele>132.0</ele><time>2026-04-04T08:38:01.333Z</time></trkpt><trkpt lat="43.522085" lon="10.7371"><ele>132.0</ele><time>2026-04-04T08:38:02.334Z</time></trkpt><trkpt lat="43.5220333" lon="10.7372683"><ele>132.0</ele><time>2026-04-04T08:38:03.334Z</time></trkpt><trkpt lat="43.52199" lon="10.7374567"><ele>132.0</ele><time>2026-04-04T08:38:04.334Z</time></trkpt><trkpt lat="43.5219483" lon="10.737645"><ele>135.0</ele><time>2026-04-04T08:38:05.333Z</time></trkpt><trkpt lat="43.52188" lon="10.737805"><ele>138.0</ele><time>2026-04-04T08:38:06.333Z</time></trkpt><trkpt lat="43.5217833" lon="10.7379317"><ele>141.0</ele><time>2026-04-04T08:38:07.333Z</time></trkpt><trkpt lat="43.5216883" lon="10.7380317"><ele>144.0</ele><time>2026-04-04T08:38:08.333Z</time></trkpt><trkpt lat="43.5216167" lon="10.7381783"><ele>144.0</ele><time>2026-04-04T08:38:09.333Z</time></trkpt><trkpt lat="43.5215033" lon="10.7382467"><ele>144.0</ele><time>2026-04-04T08:38:10.334Z</time></trkpt><trkpt lat="43.5214417" lon="10.7383783"><ele>144.0</ele><time>2026-04-04T08:38:11.333Z</time></trkpt><trkpt lat="43.5214083" lon="10.738515"><ele>144.0</ele><time>2026-04-04T08:38:12.333Z</time></trkpt><trkpt lat="43.52141" lon="10.7386617"><ele>144.0</ele><time>2026-04-04T08:38:13.333Z</time></trkpt><trkpt lat="43.5214617" lon="10.73882"><ele>144.0</ele><time>2026-04-04T08:38:14.333Z</time></trkpt><trkpt lat="43.521515" lon="10.7390017"><ele>144.0</ele><time>2026-04-04T08:38:15.333Z</time></trkpt><trkpt lat="43.5215567" lon="10.7391967"><ele>144.0</ele><time>2026-04-04T08:38:16.332Z</time></trkpt><trkpt lat="43.5216033" lon="10.7394067"><ele>144.0</ele><time>2026-04-04T08:38:17.332Z</time></trkpt><trkpt lat="43.5216483" lon="10.7396417"><ele>143.33333333333334</ele><time>2026-04-04T08:38:18.333Z</time></trkpt><trkpt lat="43.52169" lon="10.7398483"><ele>142.66666666666669</ele><time>2026-04-04T08:38:19.333Z</time></trkpt><trkpt lat="43.5217283" lon="10.7400783"><ele>142.0</ele><time>2026-04-04T08:38:20.332Z</time></trkpt><trkpt lat="43.5217533" lon="10.740265"><ele>142.0</ele><time>2026-04-04T08:38:21.333Z</time></trkpt><trkpt lat="43.52172" lon="10.74045"><ele>142.0</ele><time>2026-04-04T08:38:22.332Z</time></trkpt><trkpt lat="43.5217167" lon="10.7406333"><ele>142.0</ele><time>2026-04-04T08:38:23.333Z</time></trkpt><trkpt lat="43.5216967" lon="10.7408"><ele>142.0</ele><time>2026-04-04T08:38:24.332Z</time></trkpt><trkpt lat="43.5216817" lon="10.7409817"><ele>141.0</ele><time>2026-04-04T08:38:25.332Z</time></trkpt><trkpt lat="43.521675" lon="10.7411617"><ele>140.0</ele><time>2026-04-04T08:38:26.333Z</time></trkpt><trkpt lat="43.5217133" lon="10.7413633"><ele>139.0</ele><time>2026-04-04T08:38:27.333Z</time></trkpt><trkpt lat="43.5217567" lon="10.7415633"><ele>138.0</ele><time>2026-04-04T08:38:28.332Z</time></trkpt><trkpt lat="43.5218067" lon="10.7417883"><ele>132.33333333333334</ele><time>2026-04-04T08:38:29.333Z</time></trkpt><trkpt lat="43.5218533" lon="10.7420183"><ele>126.66666666666667</ele><time>2026-04-04T08:38:30.332Z</time></trkpt><trkpt lat="43.5219" lon="10.742245"><ele>121.0</ele><time>2026-04-04T08:38:31.332Z</time></trkpt><trkpt lat="43.5219567" lon="10.7424733"><ele>121.0</ele><time>2026-04-04T08:38:32.332Z</time></trkpt><trkpt lat="43.522015" lon="10.7427017"><ele>121.0</ele><time>2026-04-04T08:38:33.333Z</time></trkpt><trkpt lat="43.52208" lon="10.7429267"><ele>121.0</ele><time>2026-04-04T08:38:34.332Z</time></trkpt><trkpt lat="43.52215" lon="10.743135"><ele>120.66666666666667</ele><time>2026-04-04T08:38:35.332Z</time></trkpt><trkpt lat="43.522225" lon="10.743325"><ele>120.33333333333334</ele><time>2026-04-04T08:38:36.333Z</time></trkpt><trkpt lat="43.5222983" lon="10.7435033"><ele>120.0</ele><time>2026-04-04T08:38:37.332Z</time></trkpt><trkpt lat="43.5223683" lon="10.7436783"><ele>120.0</ele><time>2026-04-04T08:38:38.333Z</time></trkpt><trkpt lat="43.5224283" lon="10.7438583"><ele>120.0</ele><time>2026-04-04T08:38:39.333Z</time></trkpt><trkpt lat="43.5224767" lon="10.74405"><ele>120.0</ele><time>2026-04-04T08:38:40.332Z</time></trkpt><trkpt lat="43.52249" lon="10.74425"><ele>120.0</ele><time>2026-04-04T08:38:41.332Z</time></trkpt><trkpt lat="43.5224783" lon="10.7444583"><ele>118.0</ele><time>2026-04-04T08:38:42.332Z</time></trkpt><trkpt lat="43.5224617" lon="10.7446683"><ele>116.0</ele><time>2026-04-04T08:38:43.332Z</time></trkpt><trkpt lat="43.522415" lon="10.7448717"><ele>114.0</ele><time>2026-04-04T08:38:44.332Z</time></trkpt><trkpt lat="43.5223733" lon="10.74511"><ele>112.66666666666666</ele><time>2026-04-04T08:38:45.332Z</time></trkpt><trkpt lat="43.5223217" lon="10.7453467"><ele>111.33333333333333</ele><time>2026-04-04T08:38:46.332Z</time></trkpt><trkpt lat="43.5222667" lon="10.7455867"><ele>110.0</ele><time>2026-04-04T08:38:47.332Z</time></trkpt><trkpt lat="43.522215" lon="10.7458283"><ele>111.0</ele><time>2026-04-04T08:38:48.332Z</time></trkpt><trkpt lat="43.5221617" lon="10.7460667"><ele>112.0</ele><time>2026-04-04T08:38:49.332Z</time></trkpt><trkpt lat="43.5221033" lon="10.7462933"><ele>113.0</ele><time>2026-04-04T08:38:50.333Z</time></trkpt><trkpt lat="43.5220233" lon="10.7465067"><ele>113.0</ele><time>2026-04-04T08:38:51.332Z</time></trkpt><trkpt lat="43.52198" lon="10.746715"><ele>113.0</ele><time>2026-04-04T08:38:52.332Z</time></trkpt><trkpt lat="43.52194" lon="10.7469083"><ele>113.0</ele><time>2026-04-04T08:38:53.332Z</time></trkpt><trkpt lat="43.5218917" lon="10.7470783"><ele>113.0</ele><time>2026-04-04T08:38:54.332Z</time></trkpt><trkpt lat="43.5218583" lon="10.7472083"><ele>113.99999999999999</ele><time>2026-04-04T08:38:55.332Z</time></trkpt><trkpt lat="43.5218083" lon="10.7473233"><ele>115.0</ele><time>2026-04-04T08:38:56.333Z</time></trkpt><trkpt lat="43.5217467" lon="10.74738"><ele>116.0</ele><time>2026-04-04T08:38:57.333Z</time></trkpt><trkpt lat="43.5216617" lon="10.7473917"><ele>117.0</ele><time>2026-04-04T08:38:58.332Z</time></trkpt><trkpt lat="43.5215767" lon="10.74738"><ele>117.99999999999999</ele><time>2026-04-04T08:38:59.333Z</time></trkpt><trkpt lat="43.5214933" lon="10.74736"><ele>119.0</ele><time>2026-04-04T08:39:00.332Z</time></trkpt><trkpt lat="43.5213983" lon="10.7473"><ele>119.0</ele><time>2026-04-04T08:39:01.332Z</time></trkpt><trkpt lat="43.5212867" lon="10.7472233"><ele>119.0</ele><time>2026-04-04T08:39:02.332Z</time></trkpt><trkpt lat="43.5212083" lon="10.7471317"><ele>119.0</ele><time>2026-04-04T08:39:03.332Z</time></trkpt><trkpt lat="43.5210867" lon="10.74698"><ele>119.0</ele><time>2026-04-04T08:39:04.332Z</time></trkpt><trkpt lat="43.520965" lon="10.7468717"><ele>121.0</ele><time>2026-04-04T08:39:05.333Z</time></trkpt><trkpt lat="43.52081" lon="10.7467267"><ele>123.0</ele><time>2026-04-04T08:39:06.333Z</time></trkpt><trkpt lat="43.52065" lon="10.74656"><ele>125.0</ele><time>2026-04-04T08:39:07.332Z</time></trkpt><trkpt lat="43.520495" lon="10.7463983"><ele>125.66666666666666</ele><time>2026-04-04T08:39:08.332Z</time></trkpt><trkpt lat="43.5203317" lon="10.7462567"><ele>126.33333333333334</ele><time>2026-04-04T08:39:09.332Z</time></trkpt><trkpt lat="43.5201633" lon="10.74614"><ele>127.0</ele><time>2026-04-04T08:39:10.332Z</time></trkpt><trkpt lat="43.5199967" lon="10.7460383"><ele>127.0</ele><time>2026-04-04T08:39:11.332Z</time></trkpt><trkpt lat="43.51983" lon="10.7459617"><ele>127.0</ele><time>2026-04-04T08:39:12.332Z</time></trkpt><trkpt lat="43.5196733" lon="10.7458917"><ele>127.0</ele><time>2026-04-04T08:39:13.332Z</time></trkpt><trkpt lat="43.5194933" lon="10.7457683"><ele>128.5</ele><time>2026-04-04T08:39:14.332Z</time></trkpt><trkpt lat="43.519345" lon="10.7457183"><ele>130.0</ele><time>2026-04-04T08:39:15.333Z</time></trkpt><trkpt lat="43.5192367" lon="10.745695"><ele>131.5</ele><time>2026-04-04T08:39:16.332Z</time></trkpt><trkpt lat="43.5191283" lon="10.74568"><ele>133.0</ele><time>2026-04-04T08:39:17.332Z</time></trkpt><trkpt lat="43.5190333" lon="10.7456833"><ele>133.0</ele><time>2026-04-04T08:39:18.332Z</time></trkpt><trkpt lat="43.51898" lon="10.7457583"><ele>133.0</ele><time>2026-04-04T08:39:19.332Z</time></trkpt><trkpt lat="43.5189233" lon="10.7458383"><ele>133.0</ele><time>2026-04-04T08:39:20.331Z</time></trkpt><trkpt lat="43.51888" lon="10.7459633"><ele>133.0</ele><time>2026-04-04T08:39:21.332Z</time></trkpt><trkpt lat="43.5188433" lon="10.7460967"><ele>133.0</ele><time>2026-04-04T08:39:22.332Z</time></trkpt><trkpt lat="43.5188533" lon="10.7463133"><ele>133.0</ele><time>2026-04-04T08:39:23.332Z</time></trkpt><trkpt lat="43.51884" lon="10.7465267"><ele>133.0</ele><time>2026-04-04T08:39:24.332Z</time></trkpt><trkpt lat="43.5188267" lon="10.7467667"><ele>133.0</ele><time>2026-04-04T08:39:25.332Z</time></trkpt><trkpt lat="43.5187983" lon="10.74701"><ele>133.0</ele><time>2026-04-04T08:39:26.332Z</time></trkpt><trkpt lat="43.5187583" lon="10.7472467"><ele>133.0</ele><time>2026-04-04T08:39:27.332Z</time></trkpt><trkpt lat="43.51872" lon="10.747475"><ele>133.0</ele><time>2026-04-04T08:39:28.332Z</time></trkpt><trkpt lat="43.5186783" lon="10.7476967"><ele>131.33333333333334</ele><time>2026-04-04T08:39:29.332Z</time></trkpt><trkpt lat="43.51863" lon="10.7479167"><ele>129.66666666666666</ele><time>2026-04-04T08:39:30.332Z</time></trkpt><trkpt lat="43.5185817" lon="10.748145"><ele>128.0</ele><time>2026-04-04T08:39:31.332Z</time></trkpt><trkpt lat="43.5185283" lon="10.7483683"><ele>128.66666666666666</ele><time>2026-04-04T08:39:32.332Z</time></trkpt><trkpt lat="43.5184783" lon="10.7485983"><ele>129.33333333333334</ele><time>2026-04-04T08:39:33.332Z</time></trkpt><trkpt lat="43.51842" lon="10.748825"><ele>130.0</ele><time>2026-04-04T08:39:34.332Z</time></trkpt><trkpt lat="43.5183633" lon="10.74902"><ele>130.0</ele><time>2026-04-04T08:39:35.332Z</time></trkpt><trkpt lat="43.5183133" lon="10.7492333"><ele>130.0</ele><time>2026-04-04T08:39:36.333Z</time></trkpt><trkpt lat="43.5182617" lon="10.7494317"><ele>130.0</ele><time>2026-04-04T08:39:37.332Z</time></trkpt><trkpt lat="43.518225" lon="10.7496417"><ele>130.33333333333334</ele><time>2026-04-04T08:39:38.332Z</time></trkpt><trkpt lat="43.5181783" lon="10.7498567"><ele>130.66666666666666</ele><time>2026-04-04T08:39:39.332Z</time></trkpt><trkpt lat="43.51814" lon="10.7500717"><ele>131.0</ele><time>2026-04-04T08:39:40.333Z</time></trkpt><trkpt lat="43.518095" lon="10.750275"><ele>130.33333333333331</ele><time>2026-04-04T08:39:41.333Z</time></trkpt><trkpt lat="43.51805" lon="10.7504683"><ele>129.66666666666666</ele><time>2026-04-04T08:39:42.332Z</time></trkpt><trkpt lat="43.5180017" lon="10.75067"><ele>129.0</ele><time>2026-04-04T08:39:43.332Z</time></trkpt><trkpt lat="43.5179483" lon="10.7508617"><ele>129.0</ele><time>2026-04-04T08:39:44.332Z</time></trkpt><trkpt lat="43.5179" lon="10.7510517"><ele>129.0</ele><time>2026-04-04T08:39:45.332Z</time></trkpt><trkpt lat="43.51786" lon="10.7512433"><ele>129.0</ele><time>2026-04-04T08:39:46.332Z</time></trkpt><trkpt lat="43.5178467" lon="10.7514433"><ele>129.0</ele><time>2026-04-04T08:39:47.332Z</time></trkpt><trkpt lat="43.5178483" lon="10.7516617"><ele>129.0</ele><time>2026-04-04T08:39:48.332Z</time></trkpt><trkpt lat="43.51785" lon="10.75189"><ele>129.0</ele><time>2026-04-04T08:39:49.332Z</time></trkpt><trkpt lat="43.5178617" lon="10.7521183"><ele>129.0</ele><time>2026-04-04T08:39:50.332Z</time></trkpt><trkpt lat="43.5178667" lon="10.7523333"><ele>129.0</ele><time>2026-04-04T08:39:51.332Z</time></trkpt><trkpt lat="43.5178767" lon="10.7525567"><ele>129.0</ele><time>2026-04-04T08:39:52.332Z</time></trkpt><trkpt lat="43.5178583" lon="10.7527833"><ele>129.0</ele><time>2026-04-04T08:39:53.333Z</time></trkpt><trkpt lat="43.5178333" lon="10.7529967"><ele>129.33333333333334</ele><time>2026-04-04T08:39:54.332Z</time></trkpt><trkpt lat="43.5177983" lon="10.7532067"><ele>129.66666666666669</ele><time>2026-04-04T08:39:55.332Z</time></trkpt><trkpt lat="43.5177583" lon="10.7534167"><ele>130.0</ele><time>2026-04-04T08:39:56.332Z</time></trkpt><trkpt lat="43.5177033" lon="10.7536"><ele>131.75</ele><time>2026-04-04T08:39:57.332Z</time></trkpt><trkpt lat="43.5176367" lon="10.7537717"><ele>133.5</ele><time>2026-04-04T08:39:58.332Z</time></trkpt><trkpt lat="43.517555" lon="10.7539317"><ele>135.25</ele><time>2026-04-04T08:39:59.332Z</time></trkpt><trkpt lat="43.5174583" lon="10.75408"><ele>137.0</ele><time>2026-04-04T08:40:00.332Z</time></trkpt><trkpt lat="43.5173667" lon="10.75422"><ele>137.0</ele><time>2026-04-04T08:40:01.332Z</time></trkpt><trkpt lat="43.5172733" lon="10.7543267"><ele>137.0</ele><time>2026-04-04T08:40:02.332Z</time></trkpt><trkpt lat="43.5171983" lon="10.754395"><ele>137.0</ele><time>2026-04-04T08:40:03.332Z</time></trkpt><trkpt lat="43.5171333" lon="10.7544683"><ele>137.0</ele><time>2026-04-04T08:40:04.332Z</time></trkpt><trkpt lat="43.5170683" lon="10.75454"><ele>137.0</ele><time>2026-04-04T08:40:05.332Z</time></trkpt><trkpt lat="43.5169967" lon="10.7546117"><ele>138.0</ele><time>2026-04-04T08:40:06.333Z</time></trkpt><trkpt lat="43.516915" lon="10.75471"><ele>139.0</ele><time>2026-04-04T08:40:07.332Z</time></trkpt><trkpt lat="43.5168267" lon="10.7548233"><ele>140.0</ele><time>2026-04-04T08:40:08.332Z</time></trkpt><trkpt lat="43.5167283" lon="10.75494"><ele>141.0</ele><time>2026-04-04T08:40:09.332Z</time></trkpt><trkpt lat="43.516635" lon="10.7550633"><ele>141.0</ele><time>2026-04-04T08:40:10.333Z</time></trkpt><trkpt lat="43.5165417" lon="10.75516"><ele>141.0</ele><time>2026-04-04T08:40:11.332Z</time></trkpt><trkpt lat="43.51644" lon="10.7552667"><ele>141.0</ele><time>2026-04-04T08:40:12.332Z</time></trkpt><trkpt lat="43.51633" lon="10.755375"><ele>141.0</ele><time>2026-04-04T08:40:13.332Z</time></trkpt><trkpt lat="43.5162017" lon="10.7554583"><ele>139.0</ele><time>2026-04-04T08:40:14.333Z</time></trkpt><trkpt lat="43.5160633" lon="10.7555217"><ele>137.0</ele><time>2026-04-04T08:40:15.333Z</time></trkpt><trkpt lat="43.5159067" lon="10.755545"><ele>135.0</ele><time>2026-04-04T08:40:16.332Z</time></trkpt><trkpt lat="43.5157367" lon="10.7555483"><ele>135.0</ele><time>2026-04-04T08:40:17.333Z</time></trkpt><trkpt lat="43.5155617" lon="10.7555467"><ele>135.0</ele><time>2026-04-04T08:40:18.332Z</time></trkpt><trkpt lat="43.5153933" lon="10.75556"><ele>135.0</ele><time>2026-04-04T08:40:19.332Z</time></trkpt><trkpt lat="43.5152283" lon="10.7555833"><ele>138.0</ele><time>2026-04-04T08:40:20.333Z</time></trkpt><trkpt lat="43.515075" lon="10.75561"><ele>141.0</ele><time>2026-04-04T08:40:21.332Z</time></trkpt><trkpt lat="43.5149167" lon="10.755635"><ele>144.0</ele><time>2026-04-04T08:40:22.332Z</time></trkpt><trkpt lat="43.5147717" lon="10.75565"><ele>144.0</ele><time>2026-04-04T08:40:23.333Z</time></trkpt><trkpt lat="43.5146183" lon="10.7556567"><ele>144.0</ele><time>2026-04-04T08:40:24.332Z</time></trkpt><trkpt lat="43.5144733" lon="10.755645"><ele>144.0</ele><time>2026-04-04T08:40:25.333Z</time></trkpt><trkpt lat="43.5143417" lon="10.7556167"><ele>144.0</ele><time>2026-04-04T08:40:26.332Z</time></trkpt><trkpt lat="43.5142233" lon="10.7555833"><ele>145.5</ele><time>2026-04-04T08:40:27.332Z</time></trkpt><trkpt lat="43.51412" lon="10.7555333"><ele>147.0</ele><time>2026-04-04T08:40:28.332Z</time></trkpt><trkpt lat="43.51402" lon="10.7554767"><ele>148.5</ele><time>2026-04-04T08:40:29.332Z</time></trkpt><trkpt lat="43.513895" lon="10.755475"><ele>150.0</ele><time>2026-04-04T08:40:30.332Z</time></trkpt><trkpt lat="43.513765" lon="10.755495"><ele>147.5</ele><time>2026-04-04T08:40:31.333Z</time></trkpt><trkpt lat="43.5136467" lon="10.7555617"><ele>145.0</ele><time>2026-04-04T08:40:32.333Z</time></trkpt><trkpt lat="43.5135383" lon="10.7556783"><ele>142.5</ele><time>2026-04-04T08:40:33.332Z</time></trkpt><trkpt lat="43.51342" lon="10.75584"><ele>140.0</ele><time>2026-04-04T08:40:34.332Z</time></trkpt><trkpt lat="43.513275" lon="10.7559683"><ele>139.66666666666666</ele><time>2026-04-04T08:40:35.332Z</time></trkpt><trkpt lat="43.5131183" lon="10.7560783"><ele>139.33333333333334</ele><time>2026-04-04T08:40:36.332Z</time></trkpt><trkpt lat="43.5129667" lon="10.756175"><ele>139.0</ele><time>2026-04-04T08:40:37.333Z</time></trkpt><trkpt lat="43.5128167" lon="10.7562483"><ele>139.0</ele><time>2026-04-04T08:40:38.332Z</time></trkpt><trkpt lat="43.51265" lon="10.7563083"><ele>139.0</ele><time>2026-04-04T08:40:39.332Z</time></trkpt><trkpt lat="43.5124767" lon="10.756365"><ele>139.0</ele><time>2026-04-04T08:40:40.332Z</time></trkpt><trkpt lat="43.5122933" lon="10.756445"><ele>139.0</ele><time>2026-04-04T08:40:41.332Z</time></trkpt><trkpt lat="43.5121167" lon="10.7564983"><ele>139.0</ele><time>2026-04-04T08:40:42.332Z</time></trkpt><trkpt lat="43.511945" lon="10.7565667"><ele>139.0</ele><time>2026-04-04T08:40:43.332Z</time></trkpt><trkpt lat="43.5117733" lon="10.7566267"><ele>139.66666666666669</ele><time>2026-04-04T08:40:44.332Z</time></trkpt><trkpt lat="43.5115983" lon="10.7566917"><ele>140.33333333333334</ele><time>2026-04-04T08:40:45.332Z</time></trkpt><trkpt lat="43.51143" lon="10.7567617"><ele>141.0</ele><time>2026-04-04T08:40:46.332Z</time></trkpt><trkpt lat="43.511265" lon="10.7568233"><ele>140.33333333333334</ele><time>2026-04-04T08:40:47.332Z</time></trkpt><trkpt lat="43.5111083" lon="10.7568833"><ele>139.66666666666669</ele><time>2026-04-04T08:40:48.332Z</time></trkpt><trkpt lat="43.5109567" lon="10.756945"><ele>139.0</ele><time>2026-04-04T08:40:49.332Z</time></trkpt><trkpt lat="43.510805" lon="10.756995"><ele>139.0</ele><time>2026-04-04T08:40:50.333Z</time></trkpt><trkpt lat="43.5106567" lon="10.75702"><ele>139.0</ele><time>2026-04-04T08:40:51.333Z</time></trkpt><trkpt lat="43.51051" lon="10.7570417"><ele>139.0</ele><time>2026-04-04T08:40:52.333Z</time></trkpt><trkpt lat="43.5103667" lon="10.75708"><ele>139.0</ele><time>2026-04-04T08:40:53.333Z</time></trkpt><trkpt lat="43.5102233" lon="10.7571167"><ele>142.0</ele><time>2026-04-04T08:40:54.333Z</time></trkpt><trkpt lat="43.5100617" lon="10.7571767"><ele>145.0</ele><time>2026-04-04T08:40:55.332Z</time></trkpt><trkpt lat="43.5098967" lon="10.75724"><ele>148.0</ele><time>2026-04-04T08:40:56.332Z</time></trkpt><trkpt lat="43.5097217" lon="10.75732"><ele>151.0</ele><time>2026-04-04T08:40:57.333Z</time></trkpt><trkpt lat="43.5095417" lon="10.7573933"><ele>154.0</ele><time>2026-04-04T08:40:58.332Z</time></trkpt><trkpt lat="43.5093917" lon="10.7574467"><ele>157.0</ele><time>2026-04-04T08:40:59.333Z</time></trkpt><trkpt lat="43.509275" lon="10.757475"><ele>157.0</ele><time>2026-04-04T08:41:00.332Z</time></trkpt><trkpt lat="43.5091683" lon="10.7574817"><ele>157.0</ele><time>2026-04-04T08:41:01.332Z</time></trkpt><trkpt lat="43.5090783" lon="10.7574483"><ele>157.0</ele><time>2026-04-04T08:41:02.332Z</time></trkpt><trkpt lat="43.5090133" lon="10.75739"><ele>157.0</ele><time>2026-04-04T08:41:03.332Z</time></trkpt><trkpt lat="43.5089183" lon="10.75732"><ele>157.0</ele><time>2026-04-04T08:41:04.332Z</time></trkpt><trkpt lat="43.50881" lon="10.75724"><ele>159.33333333333334</ele><time>2026-04-04T08:41:05.332Z</time></trkpt><trkpt lat="43.50869" lon="10.75714"><ele>161.66666666666666</ele><time>2026-04-04T08:41:06.332Z</time></trkpt><trkpt lat="43.5085467" lon="10.75705"><ele>164.0</ele><time>2026-04-04T08:41:07.332Z</time></trkpt><trkpt lat="43.5084" lon="10.756955"><ele>164.0</ele><time>2026-04-04T08:41:08.333Z</time></trkpt><trkpt lat="43.5082383" lon="10.75686"><ele>164.0</ele><time>2026-04-04T08:41:09.332Z</time></trkpt><trkpt lat="43.5080683" lon="10.7567467"><ele>164.0</ele><time>2026-04-04T08:41:10.332Z</time></trkpt><trkpt lat="43.507905" lon="10.756625"><ele>164.0</ele><time>2026-04-04T08:41:11.332Z</time></trkpt><trkpt lat="43.5077367" lon="10.7565133"><ele>164.0</ele><time>2026-04-04T08:41:12.332Z</time></trkpt><trkpt lat="43.5075783" lon="10.7564"><ele>164.0</ele><time>2026-04-04T08:41:13.333Z</time></trkpt><trkpt lat="43.5074017" lon="10.7563"><ele>164.0</ele><time>2026-04-04T08:41:14.332Z</time></trkpt><trkpt lat="43.5072233" lon="10.7561833"><ele>164.0</ele><time>2026-04-04T08:41:15.332Z</time></trkpt><trkpt lat="43.50706" lon="10.75606"><ele>164.0</ele><time>2026-04-04T08:41:16.332Z</time></trkpt><trkpt lat="43.50691" lon="10.7559617"><ele>164.0</ele><time>2026-04-04T08:41:17.332Z</time></trkpt><trkpt lat="43.50677" lon="10.7558683"><ele>164.0</ele><time>2026-04-04T08:41:18.332Z</time></trkpt><trkpt lat="43.5066383" lon="10.7557833"><ele>164.0</ele><time>2026-04-04T08:41:19.333Z</time></trkpt><trkpt lat="43.5065083" lon="10.7557217"><ele>164.0</ele><time>2026-04-04T08:41:20.332Z</time></trkpt><trkpt lat="43.5064033" lon="10.755645"><ele>164.0</ele><time>2026-04-04T08:41:21.332Z</time></trkpt><trkpt lat="43.5063033" lon="10.7556117"><ele>164.0</ele><time>2026-04-04T08:41:22.332Z</time></trkpt><trkpt lat="43.50621" lon="10.75562"><ele>164.0</ele><time>2026-04-04T08:41:23.332Z</time></trkpt><trkpt lat="43.5061317" lon="10.755615"><ele>164.0</ele><time>2026-04-04T08:41:24.332Z</time></trkpt><trkpt lat="43.5060517" lon="10.755615"><ele>164.0</ele><time>2026-04-04T08:41:25.332Z</time></trkpt><trkpt lat="43.5059633" lon="10.755585"><ele>164.0</ele><time>2026-04-04T08:41:26.332Z</time></trkpt><trkpt lat="43.5058833" lon="10.755505"><ele>164.25</ele><time>2026-04-04T08:41:27.332Z</time></trkpt><trkpt lat="43.5058183" lon="10.7553717"><ele>164.5</ele><time>2026-04-04T08:41:28.332Z</time></trkpt><trkpt lat="43.5057533" lon="10.7552317"><ele>164.75</ele><time>2026-04-04T08:41:29.332Z</time></trkpt><trkpt lat="43.5056967" lon="10.7550817"><ele>165.0</ele><time>2026-04-04T08:41:30.332Z</time></trkpt><trkpt lat="43.5056433" lon="10.7549383"><ele>165.0</ele><time>2026-04-04T08:41:31.333Z</time></trkpt><trkpt lat="43.5055867" lon="10.7548083"><ele>165.0</ele><time>2026-04-04T08:41:32.332Z</time></trkpt><trkpt lat="43.5055367" lon="10.7546733"><ele>165.0</ele><time>2026-04-04T08:41:33.332Z</time></trkpt><trkpt lat="43.5054817" lon="10.7545433"><ele>165.0</ele><time>2026-04-04T08:41:34.332Z</time></trkpt><trkpt lat="43.5054433" lon="10.7544067"><ele>165.0</ele><time>2026-04-04T08:41:35.332Z</time></trkpt><trkpt lat="43.5054083" lon="10.7542733"><ele>164.0</ele><time>2026-04-04T08:41:36.332Z</time></trkpt><trkpt lat="43.505375" lon="10.754115"><ele>163.0</ele><time>2026-04-04T08:41:37.332Z</time></trkpt><trkpt lat="43.505345" lon="10.7539383"><ele>162.0</ele><time>2026-04-04T08:41:38.332Z</time></trkpt><trkpt lat="43.5053183" lon="10.7537533"><ele>161.0</ele><time>2026-04-04T08:41:39.332Z</time></trkpt><trkpt lat="43.5052817" lon="10.7535717"><ele>161.75</ele><time>2026-04-04T08:41:40.332Z</time></trkpt><trkpt lat="43.50524" lon="10.75339"><ele>162.5</ele><time>2026-04-04T08:41:41.332Z</time></trkpt><trkpt lat="43.5051967" lon="10.753215"><ele>163.25</ele><time>2026-04-04T08:41:42.332Z</time></trkpt><trkpt lat="43.50514" lon="10.753035"><ele>164.0</ele><time>2026-04-04T08:41:43.333Z</time></trkpt><trkpt lat="43.5050833" lon="10.7528533"><ele>164.33333333333331</ele><time>2026-04-04T08:41:44.332Z</time></trkpt><trkpt lat="43.505025" lon="10.75266"><ele>164.66666666666666</ele><time>2026-04-04T08:41:45.332Z</time></trkpt><trkpt lat="43.5049717" lon="10.752435"><ele>165.0</ele><time>2026-04-04T08:41:46.332Z</time></trkpt><trkpt lat="43.504925" lon="10.7522033"><ele>165.0</ele><time>2026-04-04T08:41:47.332Z</time></trkpt><trkpt lat="43.504905" lon="10.751985"><ele>165.0</ele><time>2026-04-04T08:41:48.332Z</time></trkpt><trkpt lat="43.5048767" lon="10.751765"><ele>165.0</ele><time>2026-04-04T08:41:49.333Z</time></trkpt><trkpt lat="43.504845" lon="10.75156"><ele>164.5</ele><time>2026-04-04T08:41:50.333Z</time></trkpt><trkpt lat="43.5048167" lon="10.7513517"><ele>164.0</ele><time>2026-04-04T08:41:51.332Z</time></trkpt><trkpt lat="43.5047883" lon="10.7511617"><ele>163.5</ele><time>2026-04-04T08:41:52.332Z</time></trkpt><trkpt lat="43.504765" lon="10.75097"><ele>163.0</ele><time>2026-04-04T08:41:53.332Z</time></trkpt><trkpt lat="43.5047433" lon="10.7507967"><ele>163.0</ele><time>2026-04-04T08:41:54.332Z</time></trkpt><trkpt lat="43.5047167" lon="10.7506233"><ele>163.0</ele><time>2026-04-04T08:41:55.333Z</time></trkpt><trkpt lat="43.5046867" lon="10.75045"><ele>163.0</ele><time>2026-04-04T08:41:56.333Z</time></trkpt><trkpt lat="43.504665" lon="10.7502367"><ele>163.0</ele><time>2026-04-04T08:41:57.332Z</time></trkpt><trkpt lat="43.5046433" lon="10.7500517"><ele>162.0</ele><time>2026-04-04T08:41:58.333Z</time></trkpt><trkpt lat="43.5046233" lon="10.7498483"><ele>161.0</ele><time>2026-04-04T08:41:59.332Z</time></trkpt><trkpt lat="43.5045983" lon="10.749635"><ele>160.0</ele><time>2026-04-04T08:42:00.332Z</time></trkpt><trkpt lat="43.50457" lon="10.7494383"><ele>162.25</ele><time>2026-04-04T08:42:01.332Z</time></trkpt><trkpt lat="43.504545" lon="10.749255"><ele>164.5</ele><time>2026-04-04T08:42:02.332Z</time></trkpt><trkpt lat="43.5045183" lon="10.7490733"><ele>166.75</ele><time>2026-04-04T08:42:03.333Z</time></trkpt><trkpt lat="43.5044833" lon="10.7489033"><ele>169.0</ele><time>2026-04-04T08:42:04.332Z</time></trkpt><trkpt lat="43.5044217" lon="10.74877"><ele>169.0</ele><time>2026-04-04T08:42:05.332Z</time></trkpt><trkpt lat="43.50435" lon="10.748615"><ele>169.0</ele><time>2026-04-04T08:42:06.332Z</time></trkpt><trkpt lat="43.5042917" lon="10.7484867"><ele>169.0</ele><time>2026-04-04T08:42:07.332Z</time></trkpt><trkpt lat="43.50422" lon="10.7483433"><ele>169.0</ele><time>2026-04-04T08:42:08.333Z</time></trkpt><trkpt lat="43.5041567" lon="10.7482133"><ele>166.5</ele><time>2026-04-04T08:42:09.332Z</time></trkpt><trkpt lat="43.5041033" lon="10.7480717"><ele>164.0</ele><time>2026-04-04T08:42:10.332Z</time></trkpt><trkpt lat="43.504065" lon="10.747915"><ele>161.5</ele><time>2026-04-04T08:42:11.333Z</time></trkpt><trkpt lat="43.5040383" lon="10.7477567"><ele>159.0</ele><time>2026-04-04T08:42:12.332Z</time></trkpt><trkpt lat="43.5040133" lon="10.7475967"><ele>156.25</ele><time>2026-04-04T08:42:13.332Z</time></trkpt><trkpt lat="43.50399" lon="10.7474433"><ele>153.5</ele><time>2026-04-04T08:42:14.332Z</time></trkpt><trkpt lat="43.5039533" lon="10.7473017"><ele>150.75</ele><time>2026-04-04T08:42:15.332Z</time></trkpt><trkpt lat="43.50388" lon="10.7471717"><ele>148.0</ele><time>2026-04-04T08:42:16.333Z</time></trkpt><trkpt lat="43.5037867" lon="10.7470717"><ele>149.8</ele><time>2026-04-04T08:42:17.333Z</time></trkpt><trkpt lat="43.5036967" lon="10.7469983"><ele>151.60000000000002</ele><time>2026-04-04T08:42:18.332Z</time></trkpt><trkpt lat="43.5035983" lon="10.7469417"><ele>153.39999999999998</ele><time>2026-04-04T08:42:19.332Z</time></trkpt><trkpt lat="43.5035067" lon="10.74689"><ele>155.2</ele><time>2026-04-04T08:42:20.333Z</time></trkpt><trkpt lat="43.5034333" lon="10.746845"><ele>157.0</ele><time>2026-04-04T08:42:21.332Z</time></trkpt><trkpt lat="43.50334" lon="10.7468217"><ele>153.83333333333334</ele><time>2026-04-04T08:42:22.333Z</time></trkpt><trkpt lat="43.5032483" lon="10.7467967"><ele>150.66666666666669</ele><time>2026-04-04T08:42:23.333Z</time></trkpt><trkpt lat="43.503155" lon="10.7467883"><ele>147.5</ele><time>2026-04-04T08:42:24.333Z</time></trkpt><trkpt lat="43.5030667" lon="10.7467733"><ele>144.33333333333334</ele><time>2026-04-04T08:42:25.333Z</time></trkpt><trkpt lat="43.5029817" lon="10.7467733"><ele>141.16666666666666</ele><time>2026-04-04T08:42:26.332Z</time></trkpt><trkpt lat="43.502895" lon="10.746775"><ele>138.0</ele><time>2026-04-04T08:42:27.332Z</time></trkpt><trkpt lat="43.50282" lon="10.7467733"><ele>137.83333333333334</ele><time>2026-04-04T08:42:28.332Z</time></trkpt><trkpt lat="43.5027433" lon="10.7467767"><ele>137.66666666666666</ele><time>2026-04-04T08:42:29.332Z</time></trkpt><trkpt lat="43.5026667" lon="10.7467783"><ele>137.5</ele><time>2026-04-04T08:42:30.333Z</time></trkpt><trkpt lat="43.50259" lon="10.74679"><ele>137.33333333333331</ele><time>2026-04-04T08:42:31.333Z</time></trkpt><trkpt lat="43.5025117" lon="10.7468083"><ele>137.16666666666666</ele><time>2026-04-04T08:42:32.332Z</time></trkpt><trkpt lat="43.5024183" lon="10.7468383"><ele>137.0</ele><time>2026-04-04T08:42:33.332Z</time></trkpt><trkpt lat="43.50231" lon="10.7468467"><ele>137.0</ele><time>2026-04-04T08:42:34.332Z</time></trkpt><trkpt lat="43.5022067" lon="10.7468333"><ele>137.0</ele><time>2026-04-04T08:42:35.332Z</time></trkpt><trkpt lat="43.5021117" lon="10.7468333"><ele>137.0</ele><time>2026-04-04T08:42:36.332Z</time></trkpt><trkpt lat="43.5020183" lon="10.7468467"><ele>137.0</ele><time>2026-04-04T08:42:37.332Z</time></trkpt><trkpt lat="43.5019267" lon="10.7468633"><ele>137.0</ele><time>2026-04-04T08:42:38.332Z</time></trkpt><trkpt lat="43.501825" lon="10.7469017"><ele>138.0</ele><time>2026-04-04T08:42:39.332Z</time></trkpt><trkpt lat="43.5017267" lon="10.746945"><ele>139.0</ele><time>2026-04-04T08:42:40.332Z</time></trkpt><trkpt lat="43.50163" lon="10.74702"><ele>140.0</ele><time>2026-04-04T08:42:41.332Z</time></trkpt><trkpt lat="43.5015433" lon="10.7471117"><ele>141.0</ele><time>2026-04-04T08:42:42.332Z</time></trkpt><trkpt lat="43.5014533" lon="10.7472183"><ele>142.0</ele><time>2026-04-04T08:42:43.332Z</time></trkpt><trkpt lat="43.5013833" lon="10.747335"><ele>142.0</ele><time>2026-04-04T08:42:44.332Z</time></trkpt><trkpt lat="43.5013117" lon="10.7474483"><ele>142.0</ele><time>2026-04-04T08:42:45.332Z</time></trkpt><trkpt lat="43.5012717" lon="10.7475783"><ele>142.0</ele><time>2026-04-04T08:42:46.332Z</time></trkpt><trkpt lat="43.501225" lon="10.7477083"><ele>142.0</ele><time>2026-04-04T08:42:47.332Z</time></trkpt><trkpt lat="43.50119" lon="10.7478333"><ele>142.0</ele><time>2026-04-04T08:42:48.332Z</time></trkpt><trkpt lat="43.50116" lon="10.747955"><ele>138.83333333333334</ele><time>2026-04-04T08:42:49.333Z</time></trkpt><trkpt lat="43.5011217" lon="10.7480567"><ele>135.66666666666669</ele><time>2026-04-04T08:42:50.333Z</time></trkpt><trkpt lat="43.50109" lon="10.7481517"><ele>132.5</ele><time>2026-04-04T08:42:51.332Z</time></trkpt><trkpt lat="43.5010433" lon="10.7482367"><ele>129.33333333333334</ele><time>2026-04-04T08:42:52.332Z</time></trkpt><trkpt lat="43.500995" lon="10.7482983"><ele>126.16666666666667</ele><time>2026-04-04T08:42:53.332Z</time></trkpt><trkpt lat="43.500865" lon="10.7483167"><ele>123.0</ele><time>2026-04-04T08:42:55.332Z</time></trkpt><trkpt lat="43.5007717" lon="10.7483083"><ele>123.0</ele><time>2026-04-04T08:42:56.332Z</time></trkpt><trkpt lat="43.500685" lon="10.7482733"><ele>123.0</ele><time>2026-04-04T08:42:57.332Z</time></trkpt><trkpt lat="43.5006117" lon="10.7482533"><ele>123.0</ele><time>2026-04-04T08:42:58.332Z</time></trkpt><trkpt lat="43.5005517" lon="10.748215"><ele>123.0</ele><time>2026-04-04T08:42:59.332Z</time></trkpt><trkpt lat="43.5005267" lon="10.7480817"><ele>123.0</ele><time>2026-04-04T08:43:01.332Z</time></trkpt><trkpt lat="43.5005667" lon="10.747935"><ele>123.0</ele><time>2026-04-04T08:43:03.332Z</time></trkpt><trkpt lat="43.500685" lon="10.7477583"><ele>122.60000000000001</ele><time>2026-04-04T08:43:04.332Z</time></trkpt><trkpt lat="43.50075" lon="10.7476417"><ele>122.20000000000002</ele><time>2026-04-04T08:43:05.333Z</time></trkpt><trkpt lat="43.50079" lon="10.7475217"><ele>121.8</ele><time>2026-04-04T08:43:06.332Z</time></trkpt><trkpt lat="43.5008067" lon="10.7474333"><ele>121.4</ele><time>2026-04-04T08:43:07.332Z</time></trkpt><trkpt lat="43.5007967" lon="10.747345"><ele>121.0</ele><time>2026-04-04T08:43:09.332Z</time></trkpt><trkpt lat="43.5005983" lon="10.747365"><ele>121.0</ele><time>2026-04-04T08:43:11.332Z</time></trkpt><trkpt lat="43.5004367" lon="10.7473467"><ele>121.0</ele><time>2026-04-04T08:43:12.333Z</time></trkpt><trkpt lat="43.500325" lon="10.74731"><ele>121.0</ele><time>2026-04-04T08:43:13.332Z</time></trkpt><trkpt lat="43.50022" lon="10.7472733"><ele>121.0</ele><time>2026-04-04T08:43:14.333Z</time></trkpt><trkpt lat="43.500115" lon="10.7472183"><ele>117.5</ele><time>2026-04-04T08:43:15.332Z</time></trkpt><trkpt lat="43.5000117" lon="10.7471133"><ele>114.0</ele><time>2026-04-04T08:43:16.332Z</time></trkpt><trkpt lat="43.49992" lon="10.7469783"><ele>110.5</ele><time>2026-04-04T08:43:17.332Z</time></trkpt><trkpt lat="43.49985" lon="10.7467833"><ele>107.0</ele><time>2026-04-04T08:43:18.332Z</time></trkpt><trkpt lat="43.4997883" lon="10.7465717"><ele>107.0</ele><time>2026-04-04T08:43:19.332Z</time></trkpt><trkpt lat="43.4997367" lon="10.7463783"><ele>107.0</ele><time>2026-04-04T08:43:20.332Z</time></trkpt><trkpt lat="43.4996767" lon="10.7461983"><ele>107.0</ele><time>2026-04-04T08:43:21.332Z</time></trkpt><trkpt lat="43.4996167" lon="10.74602"><ele>107.0</ele><time>2026-04-04T08:43:22.332Z</time></trkpt><trkpt lat="43.499565" lon="10.7458633"><ele>106.19999999999999</ele><time>2026-04-04T08:43:23.332Z</time></trkpt><trkpt lat="43.49952" lon="10.7457067"><ele>105.39999999999999</ele><time>2026-04-04T08:43:24.333Z</time></trkpt><trkpt lat="43.499475" lon="10.7455617"><ele>104.6</ele><time>2026-04-04T08:43:25.332Z</time></trkpt><trkpt lat="43.4994217" lon="10.7454417"><ele>103.80000000000001</ele><time>2026-04-04T08:43:26.333Z</time></trkpt><trkpt lat="43.4993717" lon="10.7453483"><ele>103.0</ele><time>2026-04-04T08:43:27.332Z</time></trkpt><trkpt lat="43.4993067" lon="10.7452633"><ele>102.99999999999999</ele><time>2026-04-04T08:43:28.332Z</time></trkpt><trkpt lat="43.4992367" lon="10.7452"><ele>103.0</ele><time>2026-04-04T08:43:29.332Z</time></trkpt><trkpt lat="43.499165" lon="10.7451733"><ele>103.0</ele><time>2026-04-04T08:43:30.332Z</time></trkpt><trkpt lat="43.4990917" lon="10.74517"><ele>103.0</ele><time>2026-04-04T08:43:31.332Z</time></trkpt><trkpt lat="43.4990217" lon="10.7452217"><ele>103.0</ele><time>2026-04-04T08:43:32.333Z</time></trkpt><trkpt lat="43.4989717" lon="10.7452817"><ele>102.99999999999999</ele><time>2026-04-04T08:43:33.332Z</time></trkpt><trkpt lat="43.4989233" lon="10.7453533"><ele>103.0</ele><time>2026-04-04T08:43:34.332Z</time></trkpt><trkpt lat="43.49891" lon="10.7455067"><ele>103.0</ele><time>2026-04-04T08:43:35.332Z</time></trkpt><trkpt lat="43.4988983" lon="10.7456017"><ele>103.0</ele><time>2026-04-04T08:43:36.332Z</time></trkpt><trkpt lat="43.4990067" lon="10.7458333"><ele>103.0</ele><time>2026-04-04T08:43:37.333Z</time></trkpt><trkpt lat="43.4990767" lon="10.746005"><ele>103.0</ele><time>2026-04-04T08:43:38.333Z</time></trkpt><trkpt lat="43.4990983" lon="10.7461383"><ele>102.00000000000001</ele><time>2026-04-04T08:43:39.332Z</time></trkpt><trkpt lat="43.49911" lon="10.746255"><ele>101.0</ele><time>2026-04-04T08:43:40.332Z</time></trkpt><trkpt lat="43.49911" lon="10.746355"><ele>100.0</ele><time>2026-04-04T08:43:41.332Z</time></trkpt><trkpt lat="43.4991233" lon="10.7464617"><ele>99.0</ele><time>2026-04-04T08:43:42.332Z</time></trkpt><trkpt lat="43.4991467" lon="10.746575"><ele>98.00000000000001</ele><time>2026-04-04T08:43:43.332Z</time></trkpt><trkpt lat="43.4991683" lon="10.7466617"><ele>97.0</ele><time>2026-04-04T08:43:44.332Z</time></trkpt><trkpt lat="43.4992" lon="10.7467533"><ele>97.00000000000001</ele><time>2026-04-04T08:43:45.333Z</time></trkpt><trkpt lat="43.4992583" lon="10.7468467"><ele>97.0</ele><time>2026-04-04T08:43:46.332Z</time></trkpt><trkpt lat="43.4993133" lon="10.746915"><ele>97.0</ele><time>2026-04-04T08:43:47.332Z</time></trkpt><trkpt lat="43.4993667" lon="10.74697"><ele>97.0</ele><time>2026-04-04T08:43:48.333Z</time></trkpt><trkpt lat="43.4994267" lon="10.7470333"><ele>97.00000000000001</ele><time>2026-04-04T08:43:49.332Z</time></trkpt><trkpt lat="43.4994867" lon="10.7470983"><ele>97.0</ele><time>2026-04-04T08:43:50.332Z</time></trkpt><trkpt lat="43.49956" lon="10.7471767"><ele>98.33333333333334</ele><time>2026-04-04T08:43:51.332Z</time></trkpt><trkpt lat="43.4996183" lon="10.74724"><ele>99.66666666666667</ele><time>2026-04-04T08:43:52.332Z</time></trkpt><trkpt lat="43.4996767" lon="10.7473017"><ele>101.0</ele><time>2026-04-04T08:43:53.332Z</time></trkpt><trkpt lat="43.499715" lon="10.74738"><ele>102.33333333333334</ele><time>2026-04-04T08:43:54.332Z</time></trkpt><trkpt lat="43.49975" lon="10.7474617"><ele>103.66666666666667</ele><time>2026-04-04T08:43:55.332Z</time></trkpt><trkpt lat="43.499765" lon="10.747625"><ele>105.0</ele><time>2026-04-04T08:43:57.332Z</time></trkpt><trkpt lat="43.4997517" lon="10.747735"><ele>105.0</ele><time>2026-04-04T08:43:58.332Z</time></trkpt><trkpt lat="43.4997483" lon="10.7478367"><ele>105.0</ele><time>2026-04-04T08:43:59.332Z</time></trkpt><trkpt lat="43.4997383" lon="10.7479367"><ele>105.0</ele><time>2026-04-04T08:44:00.333Z</time></trkpt><trkpt lat="43.4997183" lon="10.7480283"><ele>105.0</ele><time>2026-04-04T08:44:01.332Z</time></trkpt><trkpt lat="43.499685" lon="10.748115"><ele>105.0</ele><time>2026-04-04T08:44:02.332Z</time></trkpt><trkpt lat="43.4996367" lon="10.7481783"><ele>105.0</ele><time>2026-04-04T08:44:03.332Z</time></trkpt><trkpt lat="43.4995567" lon="10.7482233"><ele>105.0</ele><time>2026-04-04T08:44:04.332Z</time></trkpt><trkpt lat="43.4994567" lon="10.7482433"><ele>100.8</ele><time>2026-04-04T08:44:05.333Z</time></trkpt><trkpt lat="43.49936" lon="10.7482783"><ele>96.6</ele><time>2026-04-04T08:44:06.332Z</time></trkpt><trkpt lat="43.4992533" lon="10.74832"><ele>92.4</ele><time>2026-04-04T08:44:07.332Z</time></trkpt><trkpt lat="43.499155" lon="10.7483733"><ele>88.2</ele><time>2026-04-04T08:44:08.332Z</time></trkpt><trkpt lat="43.4990717" lon="10.7484533"><ele>84.0</ele><time>2026-04-04T08:44:09.332Z</time></trkpt><trkpt lat="43.4990217" lon="10.7485617"><ele>83.66666666666667</ele><time>2026-04-04T08:44:10.332Z</time></trkpt><trkpt lat="43.49899" lon="10.748695"><ele>83.33333333333333</ele><time>2026-04-04T08:44:11.333Z</time></trkpt><trkpt lat="43.4989783" lon="10.7488267"><ele>83.0</ele><time>2026-04-04T08:44:12.333Z</time></trkpt><trkpt lat="43.498965" lon="10.748935"><ele>82.66666666666666</ele><time>2026-04-04T08:44:13.332Z</time></trkpt><trkpt lat="43.4989417" lon="10.7490267"><ele>82.33333333333333</ele><time>2026-04-04T08:44:14.332Z</time></trkpt><trkpt lat="43.4988467" lon="10.7490583"><ele>82.0</ele><time>2026-04-04T08:44:16.332Z</time></trkpt><trkpt lat="43.4987383" lon="10.7489433"><ele>79.39999999999999</ele><time>2026-04-04T08:44:18.333Z</time></trkpt><trkpt lat="43.4986833" lon="10.748845"><ele>76.8</ele><time>2026-04-04T08:44:19.332Z</time></trkpt><trkpt lat="43.4986433" lon="10.7487267"><ele>74.2</ele><time>2026-04-04T08:44:20.333Z</time></trkpt><trkpt lat="43.4986017" lon="10.74861"><ele>71.6</ele><time>2026-04-04T08:44:21.332Z</time></trkpt><trkpt lat="43.498565" lon="10.74848"><ele>69.0</ele><time>2026-04-04T08:44:22.332Z</time></trkpt><trkpt lat="43.4985317" lon="10.748345"><ele>69.0</ele><time>2026-04-04T08:44:23.332Z</time></trkpt><trkpt lat="43.498505" lon="10.7481883"><ele>69.0</ele><time>2026-04-04T08:44:24.332Z</time></trkpt><trkpt lat="43.49846" lon="10.7480483"><ele>69.0</ele><time>2026-04-04T08:44:25.332Z</time></trkpt><trkpt lat="43.49842" lon="10.7479417"><ele>69.0</ele><time>2026-04-04T08:44:26.332Z</time></trkpt><trkpt lat="43.4983517" lon="10.7478617"><ele>69.0</ele><time>2026-04-04T08:44:27.332Z</time></trkpt><trkpt lat="43.4982667" lon="10.7478033"><ele>69.0</ele><time>2026-04-04T08:44:28.332Z</time></trkpt><trkpt lat="43.4981683" lon="10.74779"><ele>69.0</ele><time>2026-04-04T08:44:29.332Z</time></trkpt><trkpt lat="43.4980333" lon="10.7478767"><ele>69.0</ele><time>2026-04-04T08:44:30.332Z</time></trkpt><trkpt lat="43.4979067" lon="10.74794"><ele>69.0</ele><time>2026-04-04T08:44:31.332Z</time></trkpt><trkpt lat="43.4977817" lon="10.747975"><ele>68.0</ele><time>2026-04-04T08:44:32.332Z</time></trkpt><trkpt lat="43.4976617" lon="10.748005"><ele>67.0</ele><time>2026-04-04T08:44:33.332Z</time></trkpt><trkpt lat="43.49755" lon="10.748015"><ele>66.0</ele><time>2026-04-04T08:44:34.333Z</time></trkpt><trkpt lat="43.497455" lon="10.7480017"><ele>65.0</ele><time>2026-04-04T08:44:35.332Z</time></trkpt><trkpt lat="43.49737" lon="10.7479717"><ele>64.0</ele><time>2026-04-04T08:44:36.332Z</time></trkpt><trkpt lat="43.49729" lon="10.7479233"><ele>63.99999999999999</ele><time>2026-04-04T08:44:37.332Z</time></trkpt><trkpt lat="43.4972333" lon="10.747855"><ele>64.0</ele><time>2026-04-04T08:44:38.332Z</time></trkpt><trkpt lat="43.4972467" lon="10.747755"><ele>64.0</ele><time>2026-04-04T08:44:39.332Z</time></trkpt><trkpt lat="43.4972433" lon="10.7476417"><ele>64.0</ele><time>2026-04-04T08:44:40.332Z</time></trkpt><trkpt lat="43.49728" lon="10.7475217"><ele>63.99999999999999</ele><time>2026-04-04T08:44:41.333Z</time></trkpt><trkpt lat="43.49731" lon="10.74738"><ele>64.0</ele><time>2026-04-04T08:44:42.332Z</time></trkpt><trkpt lat="43.4973317" lon="10.74723"><ele>64.0</ele><time>2026-04-04T08:44:43.332Z</time></trkpt><trkpt lat="43.4973367" lon="10.74707"><ele>64.0</ele><time>2026-04-04T08:44:44.333Z</time></trkpt><trkpt lat="43.4972883" lon="10.74691"><ele>64.0</ele><time>2026-04-04T08:44:45.332Z</time></trkpt><trkpt lat="43.49722" lon="10.74676"><ele>64.0</ele><time>2026-04-04T08:44:46.332Z</time></trkpt><trkpt lat="43.4971117" lon="10.7465967"><ele>63.0</ele><time>2026-04-04T08:44:47.332Z</time></trkpt><trkpt lat="43.4969783" lon="10.74641"><ele>62.0</ele><time>2026-04-04T08:44:48.332Z</time></trkpt><trkpt lat="43.4968633" lon="10.7462483"><ele>61.0</ele><time>2026-04-04T08:44:49.332Z</time></trkpt><trkpt lat="43.4967533" lon="10.7460933"><ele>61.0</ele><time>2026-04-04T08:44:50.332Z</time></trkpt><trkpt lat="43.49669" lon="10.7459333"><ele>61.0</ele><time>2026-04-04T08:44:51.332Z</time></trkpt><trkpt lat="43.4966617" lon="10.7457667"><ele>61.0</ele><time>2026-04-04T08:44:52.333Z</time></trkpt><trkpt lat="43.496645" lon="10.7455733"><ele>61.0</ele><time>2026-04-04T08:44:53.332Z</time></trkpt><trkpt lat="43.4965967" lon="10.7453817"><ele>61.0</ele><time>2026-04-04T08:44:54.332Z</time></trkpt><trkpt lat="43.4965233" lon="10.7451767"><ele>61.0</ele><time>2026-04-04T08:44:55.332Z</time></trkpt><trkpt lat="43.496445" lon="10.7449467"><ele>61.0</ele><time>2026-04-04T08:44:56.332Z</time></trkpt><trkpt lat="43.49636" lon="10.7446767"><ele>61.0</ele><time>2026-04-04T08:44:57.332Z</time></trkpt><trkpt lat="43.4962767" lon="10.7444017"><ele>61.0</ele><time>2026-04-04T08:44:58.333Z</time></trkpt><trkpt lat="43.4961917" lon="10.7441483"><ele>61.0</ele><time>2026-04-04T08:44:59.332Z</time></trkpt><trkpt lat="43.4961217" lon="10.7439133"><ele>61.0</ele><time>2026-04-04T08:45:00.332Z</time></trkpt><trkpt lat="43.4960717" lon="10.7437"><ele>61.0</ele><time>2026-04-04T08:45:01.332Z</time></trkpt><trkpt lat="43.4960217" lon="10.743505"><ele>61.0</ele><time>2026-04-04T08:45:02.333Z</time></trkpt><trkpt lat="43.4959633" lon="10.743325"><ele>61.0</ele><time>2026-04-04T08:45:03.332Z</time></trkpt><trkpt lat="43.4958783" lon="10.74316"><ele>61.0</ele><time>2026-04-04T08:45:04.333Z</time></trkpt><trkpt lat="43.495785" lon="10.7429933"><ele>61.0</ele><time>2026-04-04T08:45:05.332Z</time></trkpt><trkpt lat="43.4956917" lon="10.742865"><ele>61.0</ele><time>2026-04-04T08:45:06.332Z</time></trkpt><trkpt lat="43.4955933" lon="10.742785"><ele>61.0</ele><time>2026-04-04T08:45:07.333Z</time></trkpt><trkpt lat="43.4954833" lon="10.742775"><ele>61.0</ele><time>2026-04-04T08:45:08.333Z</time></trkpt><trkpt lat="43.4953633" lon="10.7428167"><ele>61.0</ele><time>2026-04-04T08:45:09.332Z</time></trkpt><trkpt lat="43.4952217" lon="10.74288"><ele>61.0</ele><time>2026-04-04T08:45:10.332Z</time></trkpt><trkpt lat="43.4951017" lon="10.7429267"><ele>60.75</ele><time>2026-04-04T08:45:11.332Z</time></trkpt><trkpt lat="43.4949867" lon="10.7429617"><ele>60.5</ele><time>2026-04-04T08:45:12.333Z</time></trkpt><trkpt lat="43.4948683" lon="10.74299"><ele>60.25</ele><time>2026-04-04T08:45:13.332Z</time></trkpt><trkpt lat="43.494755" lon="10.7429783"><ele>60.0</ele><time>2026-04-04T08:45:14.332Z</time></trkpt><trkpt lat="43.4946367" lon="10.7428733"><ele>59.75</ele><time>2026-04-04T08:45:15.332Z</time></trkpt><trkpt lat="43.4945383" lon="10.7427583"><ele>59.5</ele><time>2026-04-04T08:45:16.332Z</time></trkpt><trkpt lat="43.4944383" lon="10.7426433"><ele>59.25</ele><time>2026-04-04T08:45:17.332Z</time></trkpt><trkpt lat="43.4943367" lon="10.7425383"><ele>59.0</ele><time>2026-04-04T08:45:18.332Z</time></trkpt><trkpt lat="43.49424" lon="10.7424333"><ele>59.0</ele><time>2026-04-04T08:45:19.332Z</time></trkpt><trkpt lat="43.4941333" lon="10.7423733"><ele>59.0</ele><time>2026-04-04T08:45:20.332Z</time></trkpt><trkpt lat="43.49402" lon="10.7423517"><ele>59.0</ele><time>2026-04-04T08:45:21.332Z</time></trkpt><trkpt lat="43.4939183" lon="10.742355"><ele>59.0</ele><time>2026-04-04T08:45:22.332Z</time></trkpt><trkpt lat="43.493805" lon="10.742475"><ele>58.75</ele><time>2026-04-04T08:45:23.332Z</time></trkpt><trkpt lat="43.4937083" lon="10.7426433"><ele>58.5</ele><time>2026-04-04T08:45:24.332Z</time></trkpt><trkpt lat="43.4936283" lon="10.7427783"><ele>58.25</ele><time>2026-04-04T08:45:25.332Z</time></trkpt><trkpt lat="43.4935633" lon="10.74291"><ele>58.0</ele><time>2026-04-04T08:45:26.332Z</time></trkpt><trkpt lat="43.4935183" lon="10.743025"><ele>57.99999999999999</ele><time>2026-04-04T08:45:27.333Z</time></trkpt><trkpt lat="43.4934667" lon="10.74311"><ele>58.0</ele><time>2026-04-04T08:45:28.333Z</time></trkpt><trkpt lat="43.493395" lon="10.7431233"><ele>58.0</ele><time>2026-04-04T08:45:29.333Z</time></trkpt><trkpt lat="43.4933183" lon="10.743115"><ele>58.0</ele><time>2026-04-04T08:45:30.333Z</time></trkpt><trkpt lat="43.49327" lon="10.7430217"><ele>57.99999999999999</ele><time>2026-04-04T08:45:31.332Z</time></trkpt><trkpt lat="43.49321" lon="10.7428917"><ele>58.0</ele><time>2026-04-04T08:45:32.332Z</time></trkpt><trkpt lat="43.49315" lon="10.7427383"><ele>58.599999999999994</ele><time>2026-04-04T08:45:33.332Z</time></trkpt><trkpt lat="43.49309" lon="10.7426083"><ele>59.199999999999996</ele><time>2026-04-04T08:45:34.332Z</time></trkpt><trkpt lat="43.4930367" lon="10.74248"><ele>59.8</ele><time>2026-04-04T08:45:35.332Z</time></trkpt><trkpt lat="43.4930133" lon="10.74235"><ele>60.4</ele><time>2026-04-04T08:45:36.332Z</time></trkpt><trkpt lat="43.4930333" lon="10.7422217"><ele>61.0</ele><time>2026-04-04T08:45:37.332Z</time></trkpt><trkpt lat="43.4930667" lon="10.742095"><ele>61.0</ele><time>2026-04-04T08:45:38.333Z</time></trkpt><trkpt lat="43.49309" lon="10.7419683"><ele>60.99999999999999</ele><time>2026-04-04T08:45:39.333Z</time></trkpt><trkpt lat="43.49309" lon="10.74185"><ele>60.99999999999999</ele><time>2026-04-04T08:45:40.332Z</time></trkpt><trkpt lat="43.4930767" lon="10.7417433"><ele>61.0</ele><time>2026-04-04T08:45:41.333Z</time></trkpt><trkpt lat="43.4930483" lon="10.7416533"><ele>61.0</ele><time>2026-04-04T08:45:42.332Z</time></trkpt><trkpt lat="43.49297" lon="10.7415167"><ele>63.0</ele><time>2026-04-04T08:45:44.333Z</time></trkpt><trkpt lat="43.492875" lon="10.741465"><ele>65.0</ele><time>2026-04-04T08:45:45.332Z</time></trkpt><trkpt lat="43.4926333" lon="10.74138"><ele>67.0</ele><time>2026-04-04T08:45:46.332Z</time></trkpt><trkpt lat="43.4924617" lon="10.7412717"><ele>67.0</ele><time>2026-04-04T08:45:47.332Z</time></trkpt><trkpt lat="43.49228" lon="10.7411667"><ele>67.0</ele><time>2026-04-04T08:45:48.333Z</time></trkpt><trkpt lat="43.49213" lon="10.74107"><ele>67.0</ele><time>2026-04-04T08:45:49.332Z</time></trkpt><trkpt lat="43.4919933" lon="10.7409767"><ele>67.25</ele><time>2026-04-04T08:45:50.332Z</time></trkpt><trkpt lat="43.491865" lon="10.7408867"><ele>67.5</ele><time>2026-04-04T08:45:51.332Z</time></trkpt><trkpt lat="43.491745" lon="10.7408"><ele>67.75</ele><time>2026-04-04T08:45:52.332Z</time></trkpt><trkpt lat="43.49162" lon="10.7407283"><ele>68.0</ele><time>2026-04-04T08:45:53.332Z</time></trkpt><trkpt lat="43.4915217" lon="10.7406533"><ele>68.0</ele><time>2026-04-04T08:45:54.332Z</time></trkpt><trkpt lat="43.49143" lon="10.74059"><ele>68.0</ele><time>2026-04-04T08:45:55.332Z</time></trkpt><trkpt lat="43.4913517" lon="10.7405333"><ele>68.0</ele><time>2026-04-04T08:45:56.332Z</time></trkpt><trkpt lat="43.4912883" lon="10.7404767"><ele>68.0</ele><time>2026-04-04T08:45:57.332Z</time></trkpt><trkpt lat="43.4912267" lon="10.7404067"><ele>68.0</ele><time>2026-04-04T08:45:59.332Z</time></trkpt><trkpt lat="43.4911367" lon="10.74039"><ele>68.0</ele><time>2026-04-04T08:46:02.332Z</time></trkpt><trkpt lat="43.4910483" lon="10.7404"><ele>68.66666666666667</ele><time>2026-04-04T08:46:04.332Z</time></trkpt><trkpt lat="43.4909517" lon="10.74057"><ele>69.33333333333333</ele><time>2026-04-04T08:46:06.332Z</time></trkpt><trkpt lat="43.49086" lon="10.74073"><ele>70.0</ele><time>2026-04-04T08:46:07.333Z</time></trkpt><trkpt lat="43.490755" lon="10.7409033"><ele>69.33333333333333</ele><time>2026-04-04T08:46:08.332Z</time></trkpt><trkpt lat="43.4906317" lon="10.7410733"><ele>68.66666666666667</ele><time>2026-04-04T08:46:09.332Z</time></trkpt><trkpt lat="43.4904983" lon="10.74121"><ele>68.0</ele><time>2026-04-04T08:46:10.332Z</time></trkpt><trkpt lat="43.4903567" lon="10.7413383"><ele>69.33333333333334</ele><time>2026-04-04T08:46:11.332Z</time></trkpt><trkpt lat="43.4901883" lon="10.7414783"><ele>70.66666666666667</ele><time>2026-04-04T08:46:12.332Z</time></trkpt><trkpt lat="43.4900033" lon="10.7416167"><ele>72.0</ele><time>2026-04-04T08:46:13.332Z</time></trkpt><trkpt lat="43.4897567" lon="10.7418333"><ele>71.0</ele><time>2026-04-04T08:46:14.332Z</time></trkpt><trkpt lat="43.4895133" lon="10.7420067"><ele>70.0</ele><time>2026-04-04T08:46:15.332Z</time></trkpt><trkpt lat="43.489295" lon="10.74216"><ele>70.0</ele><time>2026-04-04T08:46:16.332Z</time></trkpt><trkpt lat="43.4890867" lon="10.7423117"><ele>70.0</ele><time>2026-04-04T08:46:17.333Z</time></trkpt><trkpt lat="43.4888933" lon="10.74247"><ele>70.5</ele><time>2026-04-04T08:46:18.332Z</time></trkpt><trkpt lat="43.488705" lon="10.7426483"><ele>71.0</ele><time>2026-04-04T08:46:19.332Z</time></trkpt><trkpt lat="43.488525" lon="10.7428367"><ele>71.0</ele><time>2026-04-04T08:46:20.332Z</time></trkpt><trkpt lat="43.4883583" lon="10.7430417"><ele>71.0</ele><time>2026-04-04T08:46:21.332Z</time></trkpt><trkpt lat="43.4882067" lon="10.7432967"><ele>69.0</ele><time>2026-04-04T08:46:22.332Z</time></trkpt><trkpt lat="43.4880533" lon="10.74356"><ele>67.0</ele><time>2026-04-04T08:46:23.332Z</time></trkpt><trkpt lat="43.4879083" lon="10.7438333"><ele>71.0</ele><time>2026-04-04T08:46:24.333Z</time></trkpt><trkpt lat="43.4877783" lon="10.7441183"><ele>75.0</ele><time>2026-04-04T08:46:25.332Z</time></trkpt><trkpt lat="43.4876583" lon="10.7443767"><ele>73.33333333333333</ele><time>2026-04-04T08:46:26.332Z</time></trkpt><trkpt lat="43.4875483" lon="10.7446233"><ele>71.66666666666666</ele><time>2026-04-04T08:46:27.333Z</time></trkpt><trkpt lat="43.4874233" lon="10.7448333"><ele>70.0</ele><time>2026-04-04T08:46:28.332Z</time></trkpt><trkpt lat="43.4872817" lon="10.745045"><ele>69.66666666666666</ele><time>2026-04-04T08:46:29.332Z</time></trkpt><trkpt lat="43.4871233" lon="10.7452583"><ele>69.33333333333333</ele><time>2026-04-04T08:46:30.333Z</time></trkpt><trkpt lat="43.4869383" lon="10.7454317"><ele>69.0</ele><time>2026-04-04T08:46:31.332Z</time></trkpt><trkpt lat="43.4867467" lon="10.7456367"><ele>68.5</ele><time>2026-04-04T08:46:32.332Z</time></trkpt><trkpt lat="43.48655" lon="10.74581"><ele>68.0</ele><time>2026-04-04T08:46:33.332Z</time></trkpt><trkpt lat="43.4863533" lon="10.7459683"><ele>68.0</ele><time>2026-04-04T08:46:34.333Z</time></trkpt><trkpt lat="43.486165" lon="10.7461217"><ele>68.0</ele><time>2026-04-04T08:46:35.332Z</time></trkpt><trkpt lat="43.4859917" lon="10.746305"><ele>68.0</ele><time>2026-04-04T08:46:36.332Z</time></trkpt><trkpt lat="43.4858167" lon="10.746495"><ele>68.0</ele><time>2026-04-04T08:46:37.332Z</time></trkpt><trkpt lat="43.4856617" lon="10.7466883"><ele>68.0</ele><time>2026-04-04T08:46:38.332Z</time></trkpt><trkpt lat="43.4855167" lon="10.7469067"><ele>68.0</ele><time>2026-04-04T08:46:39.332Z</time></trkpt><trkpt lat="43.4853933" lon="10.7471283"><ele>67.66666666666667</ele><time>2026-04-04T08:46:40.332Z</time></trkpt><trkpt lat="43.48527" lon="10.747365"><ele>67.33333333333333</ele><time>2026-04-04T08:46:41.332Z</time></trkpt><trkpt lat="43.485145" lon="10.7475833"><ele>67.0</ele><time>2026-04-04T08:46:42.332Z</time></trkpt><trkpt lat="43.4849933" lon="10.747775"><ele>67.0</ele><time>2026-04-04T08:46:43.332Z</time></trkpt><trkpt lat="43.4848383" lon="10.7479667"><ele>67.0</ele><time>2026-04-04T08:46:44.332Z</time></trkpt><trkpt lat="43.4846533" lon="10.748135"><ele>67.0</ele><time>2026-04-04T08:46:45.332Z</time></trkpt><trkpt lat="43.4844567" lon="10.7482883"><ele>66.33333333333333</ele><time>2026-04-04T08:46:46.332Z</time></trkpt><trkpt lat="43.4842483" lon="10.7484033"><ele>65.66666666666667</ele><time>2026-04-04T08:46:47.333Z</time></trkpt><trkpt lat="43.4840433" lon="10.7485283"><ele>65.0</ele><time>2026-04-04T08:46:48.333Z</time></trkpt><trkpt lat="43.4838517" lon="10.7486467"><ele>67.33333333333334</ele><time>2026-04-04T08:46:49.332Z</time></trkpt><trkpt lat="43.4836683" lon="10.7487817"><ele>69.66666666666667</ele><time>2026-04-04T08:46:50.332Z</time></trkpt><trkpt lat="43.4834917" lon="10.7489583"><ele>72.0</ele><time>2026-04-04T08:46:51.332Z</time></trkpt><trkpt lat="43.4833133" lon="10.7491317"><ele>72.0</ele><time>2026-04-04T08:46:52.333Z</time></trkpt><trkpt lat="43.4831583" lon="10.7493117"><ele>72.0</ele><time>2026-04-04T08:46:53.332Z</time></trkpt><trkpt lat="43.4829967" lon="10.7495"><ele>72.0</ele><time>2026-04-04T08:46:54.332Z</time></trkpt><trkpt lat="43.4828317" lon="10.7496967"><ele>72.33333333333333</ele><time>2026-04-04T08:46:55.332Z</time></trkpt><trkpt lat="43.482675" lon="10.749885"><ele>72.66666666666666</ele><time>2026-04-04T08:46:56.332Z</time></trkpt><trkpt lat="43.4825267" lon="10.7500767"><ele>73.0</ele><time>2026-04-04T08:46:57.332Z</time></trkpt><trkpt lat="43.48238" lon="10.750265"><ele>73.33333333333333</ele><time>2026-04-04T08:46:58.332Z</time></trkpt><trkpt lat="43.482225" lon="10.7504517"><ele>73.66666666666667</ele><time>2026-04-04T08:46:59.332Z</time></trkpt><trkpt lat="43.4820667" lon="10.7506383"><ele>74.0</ele><time>2026-04-04T08:47:00.332Z</time></trkpt><trkpt lat="43.481905" lon="10.7508267"><ele>74.0</ele><time>2026-04-04T08:47:01.332Z</time></trkpt><trkpt lat="43.4817433" lon="10.7510117"><ele>74.0</ele><time>2026-04-04T08:47:02.333Z</time></trkpt><trkpt lat="43.4815767" lon="10.7511983"><ele>74.0</ele><time>2026-04-04T08:47:03.332Z</time></trkpt><trkpt lat="43.4814183" lon="10.7513783"><ele>74.33333333333334</ele><time>2026-04-04T08:47:04.332Z</time></trkpt><trkpt lat="43.4812483" lon="10.751565"><ele>74.66666666666667</ele><time>2026-04-04T08:47:05.332Z</time></trkpt><trkpt lat="43.4810783" lon="10.75175"><ele>75.0</ele><time>2026-04-04T08:47:06.332Z</time></trkpt><trkpt lat="43.4809183" lon="10.751945"><ele>74.33333333333333</ele><time>2026-04-04T08:47:07.332Z</time></trkpt><trkpt lat="43.480765" lon="10.752135"><ele>73.66666666666666</ele><time>2026-04-04T08:47:08.332Z</time></trkpt><trkpt lat="43.48062" lon="10.7523333"><ele>73.0</ele><time>2026-04-04T08:47:09.332Z</time></trkpt><trkpt lat="43.480495" lon="10.75255"><ele>75.0</ele><time>2026-04-04T08:47:10.332Z</time></trkpt><trkpt lat="43.480395" lon="10.752785"><ele>77.0</ele><time>2026-04-04T08:47:11.333Z</time></trkpt><trkpt lat="43.4803" lon="10.7530033"><ele>79.0</ele><time>2026-04-04T08:47:12.333Z</time></trkpt><trkpt lat="43.4802017" lon="10.7532167"><ele>79.0</ele><time>2026-04-04T08:47:13.332Z</time></trkpt><trkpt lat="43.4801017" lon="10.7534283"><ele>79.0</ele><time>2026-04-04T08:47:14.332Z</time></trkpt><trkpt lat="43.47999" lon="10.7536217"><ele>79.0</ele><time>2026-04-04T08:47:15.332Z</time></trkpt><trkpt lat="43.4798817" lon="10.7538"><ele>80.33333333333333</ele><time>2026-04-04T08:47:16.332Z</time></trkpt><trkpt lat="43.47978" lon="10.75397"><ele>81.66666666666667</ele><time>2026-04-04T08:47:17.333Z</time></trkpt><trkpt lat="43.47968" lon="10.75414"><ele>83.0</ele><time>2026-04-04T08:47:18.332Z</time></trkpt><trkpt lat="43.4795783" lon="10.754295"><ele>81.0</ele><time>2026-04-04T08:47:19.333Z</time></trkpt><trkpt lat="43.4794833" lon="10.7544433"><ele>79.0</ele><time>2026-04-04T08:47:20.332Z</time></trkpt><trkpt lat="43.479395" lon="10.7545817"><ele>77.0</ele><time>2026-04-04T08:47:21.332Z</time></trkpt><trkpt lat="43.479315" lon="10.7547"><ele>75.0</ele><time>2026-04-04T08:47:22.332Z</time></trkpt><trkpt lat="43.4792483" lon="10.7547967"><ele>75.0</ele><time>2026-04-04T08:47:23.332Z</time></trkpt><trkpt lat="43.4791883" lon="10.7548617"><ele>75.0</ele><time>2026-04-04T08:47:24.333Z</time></trkpt><trkpt lat="43.4790817" lon="10.754885"><ele>75.0</ele><time>2026-04-04T08:47:27.332Z</time></trkpt><trkpt lat="43.4789783" lon="10.7548217"><ele>75.0</ele><time>2026-04-04T08:47:29.332Z</time></trkpt><trkpt lat="43.47891" lon="10.7547683"><ele>75.0</ele><time>2026-04-04T08:47:30.333Z</time></trkpt><trkpt lat="43.4788333" lon="10.754715"><ele>75.6</ele><time>2026-04-04T08:47:31.332Z</time></trkpt><trkpt lat="43.4787633" lon="10.75468"><ele>76.2</ele><time>2026-04-04T08:47:32.332Z</time></trkpt><trkpt lat="43.4786833" lon="10.7546583"><ele>76.8</ele><time>2026-04-04T08:47:33.333Z</time></trkpt><trkpt lat="43.4785833" lon="10.7546583"><ele>77.4</ele><time>2026-04-04T08:47:34.332Z</time></trkpt><trkpt lat="43.4784883" lon="10.7546833"><ele>78.0</ele><time>2026-04-04T08:47:35.332Z</time></trkpt><trkpt lat="43.4783833" lon="10.7547083"><ele>78.0</ele><time>2026-04-04T08:47:36.332Z</time></trkpt><trkpt lat="43.4783" lon="10.7547317"><ele>78.0</ele><time>2026-04-04T08:47:37.332Z</time></trkpt><trkpt lat="43.4782083" lon="10.7547433"><ele>78.0</ele><time>2026-04-04T08:47:38.332Z</time></trkpt><trkpt lat="43.4781217" lon="10.7547283"><ele>78.0</ele><time>2026-04-04T08:47:39.332Z</time></trkpt><trkpt lat="43.47804" lon="10.7546867"><ele>78.0</ele><time>2026-04-04T08:47:40.332Z</time></trkpt><trkpt lat="43.4779633" lon="10.754625"><ele>78.0</ele><time>2026-04-04T08:47:41.332Z</time></trkpt><trkpt lat="43.47789" lon="10.7545483"><ele>77.8</ele><time>2026-04-04T08:47:42.332Z</time></trkpt><trkpt lat="43.47784" lon="10.7544783"><ele>77.6</ele><time>2026-04-04T08:47:43.332Z</time></trkpt><trkpt lat="43.47779" lon="10.7544183"><ele>77.4</ele><time>2026-04-04T08:47:44.332Z</time></trkpt><trkpt lat="43.47772" lon="10.7542933"><ele>77.2</ele><time>2026-04-04T08:47:46.332Z</time></trkpt><trkpt lat="43.4776667" lon="10.7541367"><ele>77.0</ele><time>2026-04-04T08:47:48.332Z</time></trkpt><trkpt lat="43.47764" lon="10.7540383"><ele>78.5</ele><time>2026-04-04T08:47:49.332Z</time></trkpt><trkpt lat="43.4776167" lon="10.753945"><ele>80.0</ele><time>2026-04-04T08:47:50.332Z</time></trkpt><trkpt lat="43.4775817" lon="10.7538333"><ele>81.5</ele><time>2026-04-04T08:47:51.332Z</time></trkpt><trkpt lat="43.4775583" lon="10.7537283"><ele>83.0</ele><time>2026-04-04T08:47:52.333Z</time></trkpt><trkpt lat="43.477535" lon="10.7536183"><ele>84.5</ele><time>2026-04-04T08:47:53.332Z</time></trkpt><trkpt lat="43.4775317" lon="10.7535133"><ele>86.0</ele><time>2026-04-04T08:47:54.333Z</time></trkpt><trkpt lat="43.4775367" lon="10.7534133"><ele>87.33333333333334</ele><time>2026-04-04T08:47:55.332Z</time></trkpt><trkpt lat="43.477555" lon="10.75331"><ele>88.66666666666667</ele><time>2026-04-04T08:47:56.332Z</time></trkpt><trkpt lat="43.477585" lon="10.75321"><ele>90.0</ele><time>2026-04-04T08:47:57.332Z</time></trkpt><trkpt lat="43.4776167" lon="10.75311"><ele>91.33333333333333</ele><time>2026-04-04T08:47:58.333Z</time></trkpt><trkpt lat="43.4776517" lon="10.7530133"><ele>92.66666666666666</ele><time>2026-04-04T08:47:59.332Z</time></trkpt><trkpt lat="43.4776917" lon="10.7529067"><ele>94.0</ele><time>2026-04-04T08:48:00.332Z</time></trkpt><trkpt lat="43.4777433" lon="10.75281"><ele>94.0</ele><time>2026-04-04T08:48:01.333Z</time></trkpt><trkpt lat="43.4777983" lon="10.7527167"><ele>94.0</ele><time>2026-04-04T08:48:02.333Z</time></trkpt><trkpt lat="43.4778567" lon="10.7526217"><ele>94.0</ele><time>2026-04-04T08:48:03.332Z</time></trkpt><trkpt lat="43.4779183" lon="10.75253"><ele>94.0</ele><time>2026-04-04T08:48:04.332Z</time></trkpt><trkpt lat="43.477975" lon="10.752445"><ele>94.0</ele><time>2026-04-04T08:48:05.333Z</time></trkpt><trkpt lat="43.47803" lon="10.7523617"><ele>94.0</ele><time>2026-04-04T08:48:06.332Z</time></trkpt><trkpt lat="43.4780783" lon="10.7522717"><ele>96.66666666666666</ele><time>2026-04-04T08:48:07.332Z</time></trkpt><trkpt lat="43.4781333" lon="10.7521867"><ele>99.33333333333333</ele><time>2026-04-04T08:48:08.332Z</time></trkpt><trkpt lat="43.4781933" lon="10.7521083"><ele>102.0</ele><time>2026-04-04T08:48:09.332Z</time></trkpt><trkpt lat="43.4782467" lon="10.7520283"><ele>104.66666666666666</ele><time>2026-04-04T08:48:10.332Z</time></trkpt><trkpt lat="43.47829" lon="10.751955"><ele>107.33333333333333</ele><time>2026-04-04T08:48:11.332Z</time></trkpt><trkpt lat="43.4783367" lon="10.7518433"><ele>110.0</ele><time>2026-04-04T08:48:13.333Z</time></trkpt><trkpt lat="43.4783533" lon="10.7517533"><ele>111.0</ele><time>2026-04-04T08:48:15.332Z</time></trkpt><trkpt lat="43.4784017" lon="10.7516483"><ele>112.0</ele><time>2026-04-04T08:48:17.332Z</time></trkpt><trkpt lat="43.4784817" lon="10.7515617"><ele>113.0</ele><time>2026-04-04T08:48:19.333Z</time></trkpt><trkpt lat="43.4785917" lon="10.7514517"><ele>114.0</ele><time>2026-04-04T08:48:21.332Z</time></trkpt><trkpt lat="43.4786483" lon="10.75137"><ele>115.0</ele><time>2026-04-04T08:48:22.332Z</time></trkpt><trkpt lat="43.4787067" lon="10.7512767"><ele>115.0</ele><time>2026-04-04T08:48:23.332Z</time></trkpt><trkpt lat="43.47874" lon="10.75116"><ele>115.0</ele><time>2026-04-04T08:48:24.332Z</time></trkpt><trkpt lat="43.4787633" lon="10.751045"><ele>115.0</ele><time>2026-04-04T08:48:25.332Z</time></trkpt><trkpt lat="43.4787933" lon="10.7509317"><ele>115.0</ele><time>2026-04-04T08:48:26.332Z</time></trkpt><trkpt lat="43.4788167" lon="10.7507883"><ele>115.0</ele><time>2026-04-04T08:48:27.332Z</time></trkpt><trkpt lat="43.4788367" lon="10.7506383"><ele>114.66666666666667</ele><time>2026-04-04T08:48:28.332Z</time></trkpt><trkpt lat="43.4788533" lon="10.7505133"><ele>114.33333333333334</ele><time>2026-04-04T08:48:29.332Z</time></trkpt><trkpt lat="43.4788717" lon="10.7504"><ele>114.0</ele><time>2026-04-04T08:48:30.332Z</time></trkpt><trkpt lat="43.4788933" lon="10.75029"><ele>113.66666666666666</ele><time>2026-04-04T08:48:31.333Z</time></trkpt><trkpt lat="43.4789217" lon="10.750195"><ele>113.33333333333333</ele><time>2026-04-04T08:48:32.332Z</time></trkpt><trkpt lat="43.4789533" lon="10.7501017"><ele>113.0</ele><time>2026-04-04T08:48:33.332Z</time></trkpt><trkpt lat="43.47898" lon="10.7500133"><ele>112.99999999999999</ele><time>2026-04-04T08:48:34.332Z</time></trkpt><trkpt lat="43.4790017" lon="10.7499267"><ele>113.0</ele><time>2026-04-04T08:48:35.333Z</time></trkpt><trkpt lat="43.47904" lon="10.7497617"><ele>113.0</ele><time>2026-04-04T08:48:37.332Z</time></trkpt><trkpt lat="43.4790617" lon="10.7496733"><ele>113.0</ele><time>2026-04-04T08:48:38.332Z</time></trkpt><trkpt lat="43.4790817" lon="10.749575"><ele>112.99999999999999</ele><time>2026-04-04T08:48:39.332Z</time></trkpt><trkpt lat="43.4790983" lon="10.749455"><ele>113.0</ele><time>2026-04-04T08:48:40.332Z</time></trkpt><trkpt lat="43.4791167" lon="10.74935"><ele>113.33333333333333</ele><time>2026-04-04T08:48:41.332Z</time></trkpt><trkpt lat="43.479135" lon="10.749245"><ele>113.66666666666666</ele><time>2026-04-04T08:48:42.332Z</time></trkpt><trkpt lat="43.4791567" lon="10.7491433"><ele>114.0</ele><time>2026-04-04T08:48:43.332Z</time></trkpt><trkpt lat="43.47918" lon="10.7490333"><ele>114.33333333333334</ele><time>2026-04-04T08:48:44.333Z</time></trkpt><trkpt lat="43.4792017" lon="10.748925"><ele>114.66666666666667</ele><time>2026-04-04T08:48:45.333Z</time></trkpt><trkpt lat="43.4792317" lon="10.7488117"><ele>115.0</ele><time>2026-04-04T08:48:46.333Z</time></trkpt><trkpt lat="43.4792633" lon="10.7487033"><ele>115.00000000000001</ele><time>2026-04-04T08:48:47.332Z</time></trkpt><trkpt lat="43.4793" lon="10.748595"><ele>115.0</ele><time>2026-04-04T08:48:48.333Z</time></trkpt><trkpt lat="43.4793417" lon="10.74848"><ele>115.0</ele><time>2026-04-04T08:48:49.333Z</time></trkpt><trkpt lat="43.4793767" lon="10.74837"><ele>115.0</ele><time>2026-04-04T08:48:50.332Z</time></trkpt><trkpt lat="43.4794217" lon="10.748265"><ele>115.00000000000001</ele><time>2026-04-04T08:48:51.332Z</time></trkpt><trkpt lat="43.47947" lon="10.7481633"><ele>115.0</ele><time>2026-04-04T08:48:52.333Z</time></trkpt><trkpt lat="43.4795183" lon="10.7480533"><ele>115.2</ele><time>2026-04-04T08:48:53.332Z</time></trkpt><trkpt lat="43.479575" lon="10.747945"><ele>115.4</ele><time>2026-04-04T08:48:54.332Z</time></trkpt><trkpt lat="43.479625" lon="10.7478283"><ele>115.6</ele><time>2026-04-04T08:48:55.332Z</time></trkpt><trkpt lat="43.479675" lon="10.7477317"><ele>115.8</ele><time>2026-04-04T08:48:56.332Z</time></trkpt><trkpt lat="43.4797267" lon="10.7476417"><ele>116.0</ele><time>2026-04-04T08:48:57.332Z</time></trkpt><trkpt lat="43.4797733" lon="10.7475433"><ele>115.99999999999999</ele><time>2026-04-04T08:48:58.333Z</time></trkpt><trkpt lat="43.4798133" lon="10.7474433"><ele>116.0</ele><time>2026-04-04T08:48:59.332Z</time></trkpt><trkpt lat="43.47985" lon="10.7473467"><ele>116.0</ele><time>2026-04-04T08:49:00.332Z</time></trkpt><trkpt lat="43.47989" lon="10.7472417"><ele>116.0</ele><time>2026-04-04T08:49:01.332Z</time></trkpt><trkpt lat="43.4799283" lon="10.7471433"><ele>115.99999999999999</ele><time>2026-04-04T08:49:02.332Z</time></trkpt><trkpt lat="43.4799567" lon="10.7470483"><ele>116.0</ele><time>2026-04-04T08:49:03.332Z</time></trkpt><trkpt lat="43.4799867" lon="10.7469617"><ele>116.16666666666666</ele><time>2026-04-04T08:49:04.333Z</time></trkpt><trkpt lat="43.4800183" lon="10.7468767"><ele>116.33333333333333</ele><time>2026-04-04T08:49:05.332Z</time></trkpt><trkpt lat="43.480045" lon="10.746795"><ele>116.5</ele><time>2026-04-04T08:49:06.332Z</time></trkpt><trkpt lat="43.480075" lon="10.7467"><ele>116.66666666666666</ele><time>2026-04-04T08:49:07.332Z</time></trkpt><trkpt lat="43.480105" lon="10.7466"><ele>116.83333333333333</ele><time>2026-04-04T08:49:08.333Z</time></trkpt><trkpt lat="43.4801367" lon="10.7464933"><ele>117.0</ele><time>2026-04-04T08:49:09.333Z</time></trkpt><trkpt lat="43.48017" lon="10.746395"><ele>117.0</ele><time>2026-04-04T08:49:10.332Z</time></trkpt><trkpt lat="43.4802033" lon="10.7462867"><ele>116.99999999999999</ele><time>2026-04-04T08:49:11.333Z</time></trkpt><trkpt lat="43.48023" lon="10.7461767"><ele>116.99999999999999</ele><time>2026-04-04T08:49:12.332Z</time></trkpt><trkpt lat="43.4802667" lon="10.74607"><ele>117.0</ele><time>2026-04-04T08:49:13.333Z</time></trkpt><trkpt lat="43.4803083" lon="10.74595"><ele>117.0</ele><time>2026-04-04T08:49:14.332Z</time></trkpt><trkpt lat="43.480355" lon="10.7458217"><ele>117.0</ele><time>2026-04-04T08:49:15.333Z</time></trkpt><trkpt lat="43.4803983" lon="10.7456883"><ele>116.99999999999999</ele><time>2026-04-04T08:49:16.332Z</time></trkpt><trkpt lat="43.48044" lon="10.745555"><ele>116.99999999999999</ele><time>2026-04-04T08:49:17.333Z</time></trkpt><trkpt lat="43.480485" lon="10.7454267"><ele>117.0</ele><time>2026-04-04T08:49:18.332Z</time></trkpt><trkpt lat="43.4805267" lon="10.7453"><ele>117.0</ele><time>2026-04-04T08:49:19.332Z</time></trkpt><trkpt lat="43.4805633" lon="10.7451783"><ele>116.0</ele><time>2026-04-04T08:49:20.332Z</time></trkpt><trkpt lat="43.4805983" lon="10.7450617"><ele>114.99999999999999</ele><time>2026-04-04T08:49:21.332Z</time></trkpt><trkpt lat="43.480635" lon="10.74494"><ele>113.99999999999999</ele><time>2026-04-04T08:49:22.332Z</time></trkpt><trkpt lat="43.480675" lon="10.7448267"><ele>113.0</ele><time>2026-04-04T08:49:23.333Z</time></trkpt><trkpt lat="43.4807167" lon="10.74472"><ele>112.0</ele><time>2026-04-04T08:49:24.333Z</time></trkpt><trkpt lat="43.4807533" lon="10.744605"><ele>112.0</ele><time>2026-04-04T08:49:25.332Z</time></trkpt><trkpt lat="43.4807967" lon="10.7444883"><ele>111.99999999999999</ele><time>2026-04-04T08:49:26.332Z</time></trkpt><trkpt lat="43.4808333" lon="10.7443583"><ele>111.99999999999999</ele><time>2026-04-04T08:49:27.332Z</time></trkpt><trkpt lat="43.4808667" lon="10.7442333"><ele>112.0</ele><time>2026-04-04T08:49:28.332Z</time></trkpt><trkpt lat="43.4809" lon="10.7441033"><ele>112.0</ele><time>2026-04-04T08:49:29.332Z</time></trkpt><trkpt lat="43.480925" lon="10.7439883"><ele>112.16666666666667</ele><time>2026-04-04T08:49:30.332Z</time></trkpt><trkpt lat="43.4809467" lon="10.7438817"><ele>112.33333333333334</ele><time>2026-04-04T08:49:31.333Z</time></trkpt><trkpt lat="43.4809667" lon="10.7437717"><ele>112.5</ele><time>2026-04-04T08:49:32.332Z</time></trkpt><trkpt lat="43.4809917" lon="10.7436717"><ele>112.66666666666666</ele><time>2026-04-04T08:49:33.333Z</time></trkpt><trkpt lat="43.48102" lon="10.74356"><ele>112.83333333333333</ele><time>2026-04-04T08:49:34.332Z</time></trkpt><trkpt lat="43.4810567" lon="10.7434467"><ele>113.0</ele><time>2026-04-04T08:49:35.332Z</time></trkpt><trkpt lat="43.4810867" lon="10.743335"><ele>113.16666666666666</ele><time>2026-04-04T08:49:36.332Z</time></trkpt><trkpt lat="43.4811183" lon="10.7432333"><ele>113.33333333333333</ele><time>2026-04-04T08:49:37.332Z</time></trkpt><trkpt lat="43.4811567" lon="10.74313"><ele>113.5</ele><time>2026-04-04T08:49:38.332Z</time></trkpt><trkpt lat="43.4811917" lon="10.743025"><ele>113.66666666666666</ele><time>2026-04-04T08:49:39.332Z</time></trkpt><trkpt lat="43.48122" lon="10.7429317"><ele>113.83333333333333</ele><time>2026-04-04T08:49:40.332Z</time></trkpt><trkpt lat="43.4812467" lon="10.74285"><ele>114.0</ele><time>2026-04-04T08:49:41.333Z</time></trkpt><trkpt lat="43.4812833" lon="10.7427783"><ele>114.16666666666667</ele><time>2026-04-04T08:49:42.332Z</time></trkpt><trkpt lat="43.481335" lon="10.7426417"><ele>114.33333333333334</ele><time>2026-04-04T08:49:44.332Z</time></trkpt><trkpt lat="43.4813567" lon="10.74254"><ele>114.5</ele><time>2026-04-04T08:49:45.332Z</time></trkpt><trkpt lat="43.4813717" lon="10.7424333"><ele>114.66666666666667</ele><time>2026-04-04T08:49:46.332Z</time></trkpt><trkpt lat="43.48138" lon="10.7423283"><ele>114.83333333333334</ele><time>2026-04-04T08:49:47.332Z</time></trkpt><trkpt lat="43.481375" lon="10.7422167"><ele>115.0</ele><time>2026-04-04T08:49:48.332Z</time></trkpt><trkpt lat="43.4813667" lon="10.7421083"><ele>115.00000000000001</ele><time>2026-04-04T08:49:49.332Z</time></trkpt><trkpt lat="43.4813483" lon="10.7420117"><ele>115.0</ele><time>2026-04-04T08:49:50.332Z</time></trkpt><trkpt lat="43.48133" lon="10.74191"><ele>115.0</ele><time>2026-04-04T08:49:51.333Z</time></trkpt><trkpt lat="43.4813033" lon="10.741805"><ele>115.0</ele><time>2026-04-04T08:49:52.332Z</time></trkpt><trkpt lat="43.481275" lon="10.741705"><ele>115.00000000000001</ele><time>2026-04-04T08:49:53.332Z</time></trkpt><trkpt lat="43.4812433" lon="10.7416017"><ele>115.0</ele><time>2026-04-04T08:49:54.333Z</time></trkpt><trkpt lat="43.48121" lon="10.74149"><ele>115.66666666666667</ele><time>2026-04-04T08:49:55.333Z</time></trkpt><trkpt lat="43.481185" lon="10.7413733"><ele>116.33333333333334</ele><time>2026-04-04T08:49:56.332Z</time></trkpt><trkpt lat="43.48115" lon="10.7412683"><ele>117.0</ele><time>2026-04-04T08:49:57.333Z</time></trkpt><trkpt lat="43.4811233" lon="10.7411533"><ele>117.66666666666666</ele><time>2026-04-04T08:49:58.332Z</time></trkpt><trkpt lat="43.4810883" lon="10.7410267"><ele>118.33333333333333</ele><time>2026-04-04T08:49:59.333Z</time></trkpt><trkpt lat="43.4810633" lon="10.740915"><ele>119.0</ele><time>2026-04-04T08:50:00.332Z</time></trkpt><trkpt lat="43.48104" lon="10.7407967"><ele>119.0</ele><time>2026-04-04T08:50:01.332Z</time></trkpt><trkpt lat="43.48103" lon="10.7406683"><ele>119.0</ele><time>2026-04-04T08:50:02.332Z</time></trkpt><trkpt lat="43.48103" lon="10.7405367"><ele>119.0</ele><time>2026-04-04T08:50:03.332Z</time></trkpt><trkpt lat="43.4810317" lon="10.740405"><ele>119.0</ele><time>2026-04-04T08:50:04.333Z</time></trkpt><trkpt lat="43.4810417" lon="10.7402667"><ele>119.0</ele><time>2026-04-04T08:50:05.333Z</time></trkpt><trkpt lat="43.4810433" lon="10.7401383"><ele>118.99999999999999</ele><time>2026-04-04T08:50:06.332Z</time></trkpt><trkpt lat="43.4810417" lon="10.7400117"><ele>119.0</ele><time>2026-04-04T08:50:07.332Z</time></trkpt><trkpt lat="43.4810283" lon="10.7398967"><ele>119.0</ele><time>2026-04-04T08:50:08.332Z</time></trkpt><trkpt lat="43.4810083" lon="10.73978"><ele>119.0</ele><time>2026-04-04T08:50:09.332Z</time></trkpt><trkpt lat="43.48099" lon="10.7396717"><ele>118.99999999999999</ele><time>2026-04-04T08:50:10.332Z</time></trkpt><trkpt lat="43.4809667" lon="10.7395567"><ele>119.0</ele><time>2026-04-04T08:50:11.332Z</time></trkpt><trkpt lat="43.4809333" lon="10.73944"><ele>118.49999999999999</ele><time>2026-04-04T08:50:12.333Z</time></trkpt><trkpt lat="43.480905" lon="10.7393267"><ele>118.0</ele><time>2026-04-04T08:50:13.333Z</time></trkpt><trkpt lat="43.48088" lon="10.7392183"><ele>117.5</ele><time>2026-04-04T08:50:14.332Z</time></trkpt><trkpt lat="43.4808517" lon="10.7391"><ele>117.0</ele><time>2026-04-04T08:50:15.333Z</time></trkpt><trkpt lat="43.4808217" lon="10.7389833"><ele>116.49999999999999</ele><time>2026-04-04T08:50:16.332Z</time></trkpt><trkpt lat="43.4808017" lon="10.738875"><ele>116.0</ele><time>2026-04-04T08:50:17.332Z</time></trkpt><trkpt lat="43.4807917" lon="10.7387617"><ele>115.99999999999999</ele><time>2026-04-04T08:50:18.332Z</time></trkpt><trkpt lat="43.4807833" lon="10.7386467"><ele>116.0</ele><time>2026-04-04T08:50:19.332Z</time></trkpt><trkpt lat="43.480775" lon="10.7385467"><ele>116.0</ele><time>2026-04-04T08:50:20.332Z</time></trkpt><trkpt lat="43.4807733" lon="10.738425"><ele>116.0</ele><time>2026-04-04T08:50:21.332Z</time></trkpt><trkpt lat="43.48077" lon="10.7383183"><ele>115.99999999999999</ele><time>2026-04-04T08:50:22.332Z</time></trkpt><trkpt lat="43.480765" lon="10.738205"><ele>116.0</ele><time>2026-04-04T08:50:23.332Z</time></trkpt><trkpt lat="43.480755" lon="10.7381"><ele>116.16666666666666</ele><time>2026-04-04T08:50:24.332Z</time></trkpt><trkpt lat="43.4807517" lon="10.73798"><ele>116.33333333333333</ele><time>2026-04-04T08:50:25.332Z</time></trkpt><trkpt lat="43.4807417" lon="10.7378783"><ele>116.5</ele><time>2026-04-04T08:50:26.332Z</time></trkpt><trkpt lat="43.4807183" lon="10.7377767"><ele>116.66666666666666</ele><time>2026-04-04T08:50:27.332Z</time></trkpt><trkpt lat="43.4806817" lon="10.7376733"><ele>116.83333333333333</ele><time>2026-04-04T08:50:28.332Z</time></trkpt><trkpt lat="43.4806333" lon="10.7375867"><ele>117.0</ele><time>2026-04-04T08:50:29.332Z</time></trkpt><trkpt lat="43.4805783" lon="10.7375117"><ele>117.28571428571429</ele><time>2026-04-04T08:50:30.332Z</time></trkpt><trkpt lat="43.4805267" lon="10.7374517"><ele>117.57142857142858</ele><time>2026-04-04T08:50:31.331Z</time></trkpt><trkpt lat="43.4804733" lon="10.737385"><ele>117.85714285714286</ele><time>2026-04-04T08:50:32.331Z</time></trkpt><trkpt lat="43.4804083" lon="10.7373133"><ele>118.14285714285714</ele><time>2026-04-04T08:50:33.331Z</time></trkpt><trkpt lat="43.4803417" lon="10.7372583"><ele>118.42857142857143</ele><time>2026-04-04T08:50:34.331Z</time></trkpt><trkpt lat="43.4802767" lon="10.7372033"><ele>118.71428571428572</ele><time>2026-04-04T08:50:35.331Z</time></trkpt><trkpt lat="43.4802167" lon="10.7371517"><ele>119.0</ele><time>2026-04-04T08:50:36.331Z</time></trkpt><trkpt lat="43.4801533" lon="10.7370983"><ele>119.28571428571428</ele><time>2026-04-04T08:50:37.332Z</time></trkpt><trkpt lat="43.48009" lon="10.7370517"><ele>119.57142857142857</ele><time>2026-04-04T08:50:38.331Z</time></trkpt><trkpt lat="43.4800317" lon="10.7369967"><ele>119.85714285714286</ele><time>2026-04-04T08:50:39.331Z</time></trkpt><trkpt lat="43.4799733" lon="10.7369533"><ele>120.14285714285714</ele><time>2026-04-04T08:50:40.331Z</time></trkpt><trkpt lat="43.4799217" lon="10.7369033"><ele>120.42857142857142</ele><time>2026-04-04T08:50:41.332Z</time></trkpt><trkpt lat="43.479865" lon="10.7368517"><ele>120.71428571428571</ele><time>2026-04-04T08:50:42.332Z</time></trkpt><trkpt lat="43.4798133" lon="10.7367917"><ele>121.0</ele><time>2026-04-04T08:50:43.331Z</time></trkpt><trkpt lat="43.47976" lon="10.7367283"><ele>121.33333333333334</ele><time>2026-04-04T08:50:44.331Z</time></trkpt><trkpt lat="43.4797117" lon="10.73666"><ele>121.66666666666667</ele><time>2026-04-04T08:50:45.331Z</time></trkpt><trkpt lat="43.4796567" lon="10.736585"><ele>122.0</ele><time>2026-04-04T08:50:46.331Z</time></trkpt><trkpt lat="43.4796033" lon="10.7365"><ele>122.33333333333334</ele><time>2026-04-04T08:50:47.331Z</time></trkpt><trkpt lat="43.4795367" lon="10.7364333"><ele>122.66666666666667</ele><time>2026-04-04T08:50:48.332Z</time></trkpt><trkpt lat="43.479455" lon="10.7363667"><ele>123.0</ele><time>2026-04-04T08:50:49.331Z</time></trkpt><trkpt lat="43.47939" lon="10.7363183"><ele>123.83333333333333</ele><time>2026-04-04T08:50:50.331Z</time></trkpt><trkpt lat="43.4793233" lon="10.7362883"><ele>124.66666666666666</ele><time>2026-04-04T08:50:51.331Z</time></trkpt><trkpt lat="43.4792533" lon="10.7362433"><ele>125.5</ele><time>2026-04-04T08:50:52.332Z</time></trkpt><trkpt lat="43.4791867" lon="10.736205"><ele>126.33333333333333</ele><time>2026-04-04T08:50:53.332Z</time></trkpt><trkpt lat="43.4791167" lon="10.73616"><ele>127.16666666666666</ele><time>2026-04-04T08:50:54.331Z</time></trkpt><trkpt lat="43.4790517" lon="10.7361033"><ele>128.0</ele><time>2026-04-04T08:50:55.332Z</time></trkpt><trkpt lat="43.4789917" lon="10.736035"><ele>129.66666666666666</ele><time>2026-04-04T08:50:56.331Z</time></trkpt><trkpt lat="43.478945" lon="10.7359533"><ele>131.33333333333331</ele><time>2026-04-04T08:50:57.331Z</time></trkpt><trkpt lat="43.4789117" lon="10.7358683"><ele>133.0</ele><time>2026-04-04T08:50:58.331Z</time></trkpt><trkpt lat="43.47888" lon="10.7357767"><ele>134.66666666666666</ele><time>2026-04-04T08:50:59.332Z</time></trkpt><trkpt lat="43.47886" lon="10.7356767"><ele>136.33333333333334</ele><time>2026-04-04T08:51:00.331Z</time></trkpt><trkpt lat="43.478835" lon="10.735575"><ele>138.0</ele><time>2026-04-04T08:51:01.331Z</time></trkpt><trkpt lat="43.4788033" lon="10.7354533"><ele>138.0</ele><time>2026-04-04T08:51:02.331Z</time></trkpt><trkpt lat="43.47877" lon="10.73532"><ele>138.0</ele><time>2026-04-04T08:51:03.331Z</time></trkpt><trkpt lat="43.4787367" lon="10.7351767"><ele>138.0</ele><time>2026-04-04T08:51:04.331Z</time></trkpt><trkpt lat="43.4787083" lon="10.7350383"><ele>138.0</ele><time>2026-04-04T08:51:05.331Z</time></trkpt><trkpt lat="43.4786833" lon="10.7348933"><ele>138.0</ele><time>2026-04-04T08:51:06.332Z</time></trkpt><trkpt lat="43.4786583" lon="10.73472"><ele>142.0</ele><time>2026-04-04T08:51:07.331Z</time></trkpt><trkpt lat="43.478635" lon="10.7345167"><ele>146.0</ele><time>2026-04-04T08:51:08.331Z</time></trkpt><trkpt lat="43.4786283" lon="10.7343467"><ele>150.0</ele><time>2026-04-04T08:51:09.332Z</time></trkpt><trkpt lat="43.4786233" lon="10.7341983"><ele>154.0</ele><time>2026-04-04T08:51:10.332Z</time></trkpt><trkpt lat="43.4786033" lon="10.73406"><ele>155.2</ele><time>2026-04-04T08:51:11.331Z</time></trkpt><trkpt lat="43.4785617" lon="10.73393"><ele>156.4</ele><time>2026-04-04T08:51:12.331Z</time></trkpt><trkpt lat="43.4785217" lon="10.733805"><ele>157.6</ele><time>2026-04-04T08:51:13.332Z</time></trkpt><trkpt lat="43.4784883" lon="10.7337017"><ele>158.8</ele><time>2026-04-04T08:51:14.331Z</time></trkpt><trkpt lat="43.478465" lon="10.7336133"><ele>160.0</ele><time>2026-04-04T08:51:15.332Z</time></trkpt><trkpt lat="43.478415" lon="10.7334967"><ele>160.6</ele><time>2026-04-04T08:51:17.331Z</time></trkpt><trkpt lat="43.4783317" lon="10.7334167"><ele>161.2</ele><time>2026-04-04T08:51:19.331Z</time></trkpt><trkpt lat="43.47822" lon="10.7333083"><ele>161.8</ele><time>2026-04-04T08:51:21.331Z</time></trkpt><trkpt lat="43.4781633" lon="10.7332217"><ele>162.4</ele><time>2026-04-04T08:51:22.331Z</time></trkpt><trkpt lat="43.478115" lon="10.73313"><ele>163.0</ele><time>2026-04-04T08:51:23.331Z</time></trkpt><trkpt lat="43.4780667" lon="10.733025"><ele>163.0</ele><time>2026-04-04T08:51:24.331Z</time></trkpt><trkpt lat="43.47802" lon="10.732925"><ele>163.0</ele><time>2026-04-04T08:51:25.331Z</time></trkpt><trkpt lat="43.477965" lon="10.7328233"><ele>163.0</ele><time>2026-04-04T08:51:26.331Z</time></trkpt><trkpt lat="43.4779283" lon="10.7327483"><ele>163.0</ele><time>2026-04-04T08:51:27.332Z</time></trkpt><trkpt lat="43.4778767" lon="10.732615"><ele>163.0</ele><time>2026-04-04T08:51:29.331Z</time></trkpt><trkpt lat="43.47786" lon="10.7325233"><ele>163.0</ele><time>2026-04-04T08:51:30.331Z</time></trkpt><trkpt lat="43.4778417" lon="10.7324117"><ele>164.0</ele><time>2026-04-04T08:51:31.331Z</time></trkpt><trkpt lat="43.4778267" lon="10.7322967"><ele>165.0</ele><time>2026-04-04T08:51:32.331Z</time></trkpt><trkpt lat="43.4778117" lon="10.73219"><ele>166.0</ele><time>2026-04-04T08:51:33.331Z</time></trkpt><trkpt lat="43.4777917" lon="10.732055"><ele>167.0</ele><time>2026-04-04T08:51:35.331Z</time></trkpt><trkpt lat="43.477775" lon="10.7319583"><ele>168.0</ele><time>2026-04-04T08:51:53.331Z</time></trkpt><trkpt lat="43.4777083" lon="10.73191"><ele>169.0</ele><time>2026-04-04T08:51:54.331Z</time></trkpt><trkpt lat="43.4776267" lon="10.7318483"><ele>171.6</ele><time>2026-04-04T08:51:55.331Z</time></trkpt><trkpt lat="43.4775633" lon="10.73177"><ele>174.2</ele><time>2026-04-04T08:51:56.331Z</time></trkpt><trkpt lat="43.4775133" lon="10.7316933"><ele>176.79999999999998</ele><time>2026-04-04T08:51:57.332Z</time></trkpt><trkpt lat="43.4774833" lon="10.731585"><ele>179.39999999999998</ele><time>2026-04-04T08:51:59.332Z</time></trkpt><trkpt lat="43.4774567" lon="10.7314883"><ele>182.0</ele><time>2026-04-04T08:52:01.332Z</time></trkpt><trkpt lat="43.4774083" lon="10.73129"><ele>182.0</ele><time>2026-04-04T08:52:03.331Z</time></trkpt><trkpt lat="43.4774" lon="10.7311283"><ele>182.0</ele><time>2026-04-04T08:52:04.332Z</time></trkpt><trkpt lat="43.47739" lon="10.73096"><ele>182.0</ele><time>2026-04-04T08:52:05.331Z</time></trkpt><trkpt lat="43.4773767" lon="10.7307867"><ele>182.0</ele><time>2026-04-04T08:52:06.331Z</time></trkpt><trkpt lat="43.4773433" lon="10.7306133"><ele>184.0</ele><time>2026-04-04T08:52:07.331Z</time></trkpt><trkpt lat="43.4773017" lon="10.7304217"><ele>186.0</ele><time>2026-04-04T08:52:08.331Z</time></trkpt><trkpt lat="43.4772483" lon="10.7302433"><ele>188.0</ele><time>2026-04-04T08:52:09.331Z</time></trkpt><trkpt lat="43.4771933" lon="10.7300767"><ele>190.0</ele><time>2026-04-04T08:52:10.331Z</time></trkpt><trkpt lat="43.4771417" lon="10.729905"><ele>192.0</ele><time>2026-04-04T08:52:11.331Z</time></trkpt><trkpt lat="43.4771133" lon="10.729735"><ele>194.0</ele><time>2026-04-04T08:52:12.331Z</time></trkpt><trkpt lat="43.4770867" lon="10.729585"><ele>196.0</ele><time>2026-04-04T08:52:13.331Z</time></trkpt><trkpt lat="43.4770617" lon="10.7294417"><ele>198.0</ele><time>2026-04-04T08:52:14.331Z</time></trkpt><trkpt lat="43.4770317" lon="10.7293217"><ele>200.0</ele><time>2026-04-04T08:52:15.331Z</time></trkpt><trkpt lat="43.47699" lon="10.729215"><ele>201.2</ele><time>2026-04-04T08:52:16.331Z</time></trkpt><trkpt lat="43.4769317" lon="10.729145"><ele>202.4</ele><time>2026-04-04T08:52:17.332Z</time></trkpt><trkpt lat="43.47687" lon="10.7290767"><ele>203.60000000000002</ele><time>2026-04-04T08:52:18.331Z</time></trkpt><trkpt lat="43.4767833" lon="10.7290233"><ele>204.8</ele><time>2026-04-04T08:52:19.331Z</time></trkpt><trkpt lat="43.4766833" lon="10.7289833"><ele>206.0</ele><time>2026-04-04T08:52:20.331Z</time></trkpt><trkpt lat="43.47652" lon="10.729025"><ele>206.0</ele><time>2026-04-04T08:52:21.331Z</time></trkpt><trkpt lat="43.4764117" lon="10.7289983"><ele>206.0</ele><time>2026-04-04T08:52:22.331Z</time></trkpt><trkpt lat="43.4763167" lon="10.72893"><ele>206.0</ele><time>2026-04-04T08:52:23.331Z</time></trkpt><trkpt lat="43.4762283" lon="10.7288567"><ele>206.0</ele><time>2026-04-04T08:52:24.331Z</time></trkpt><trkpt lat="43.4761417" lon="10.7287833"><ele>206.0</ele><time>2026-04-04T08:52:25.331Z</time></trkpt><trkpt lat="43.4760733" lon="10.728675"><ele>205.83333333333334</ele><time>2026-04-04T08:52:26.331Z</time></trkpt><trkpt lat="43.4760167" lon="10.7285933"><ele>205.66666666666669</ele><time>2026-04-04T08:52:27.332Z</time></trkpt><trkpt lat="43.4759533" lon="10.72852"><ele>205.5</ele><time>2026-04-04T08:52:28.332Z</time></trkpt><trkpt lat="43.4759033" lon="10.7284483"><ele>205.33333333333331</ele><time>2026-04-04T08:52:29.331Z</time></trkpt><trkpt lat="43.4758133" lon="10.7283567"><ele>205.16666666666666</ele><time>2026-04-04T08:52:31.331Z</time></trkpt><trkpt lat="43.4757467" lon="10.728285"><ele>205.0</ele><time>2026-04-04T08:52:33.332Z</time></trkpt><trkpt lat="43.4757017" lon="10.728175"><ele>206.6</ele><time>2026-04-04T08:52:35.331Z</time></trkpt><trkpt lat="43.4756167" lon="10.72808"><ele>208.2</ele><time>2026-04-04T08:52:37.331Z</time></trkpt><trkpt lat="43.4755333" lon="10.727955"><ele>209.8</ele><time>2026-04-04T08:52:39.331Z</time></trkpt><trkpt lat="43.4754733" lon="10.7278533"><ele>211.4</ele><time>2026-04-04T08:52:41.331Z</time></trkpt><trkpt lat="43.4754367" lon="10.727715"><ele>213.0</ele><time>2026-04-04T08:52:43.332Z</time></trkpt><trkpt lat="43.475425" lon="10.727615"><ele>213.2</ele><time>2026-04-04T08:52:45.331Z</time></trkpt><trkpt lat="43.4754283" lon="10.7275"><ele>213.4</ele><time>2026-04-04T08:52:47.331Z</time></trkpt><trkpt lat="43.47541" lon="10.727365"><ele>213.59999999999997</ele><time>2026-04-04T08:52:49.331Z</time></trkpt><trkpt lat="43.47534" lon="10.7272267"><ele>213.79999999999998</ele><time>2026-04-04T08:52:50.331Z</time></trkpt><trkpt lat="43.4753083" lon="10.7270883"><ele>214.0</ele><time>2026-04-04T08:52:52.331Z</time></trkpt><trkpt lat="43.4753033" lon="10.72698"><ele>214.0</ele><time>2026-04-04T08:52:54.331Z</time></trkpt><trkpt lat="43.4752367" lon="10.7269417"><ele>213.99999999999997</ele><time>2026-04-04T08:52:55.331Z</time></trkpt><trkpt lat="43.4751483" lon="10.7268967"><ele>213.99999999999997</ele><time>2026-04-04T08:52:57.331Z</time></trkpt><trkpt lat="43.4750467" lon="10.72691"><ele>214.0</ele><time>2026-04-04T08:52:59.331Z</time></trkpt><trkpt lat="43.474985" lon="10.7269417"><ele>214.0</ele><time>2026-04-04T08:53:00.331Z</time></trkpt><trkpt lat="43.4748683" lon="10.7269567"><ele>213.99999999999997</ele><time>2026-04-04T08:53:02.332Z</time></trkpt><trkpt lat="43.4748" lon="10.7269417"><ele>214.0</ele><time>2026-04-04T08:53:03.331Z</time></trkpt><trkpt lat="43.4746817" lon="10.7268767"><ele>214.0</ele><time>2026-04-04T08:53:05.331Z</time></trkpt><trkpt lat="43.4746133" lon="10.726825"><ele>214.0</ele><time>2026-04-04T08:53:06.331Z</time></trkpt><trkpt lat="43.4745783" lon="10.7267283"><ele>213.99999999999997</ele><time>2026-04-04T08:53:07.331Z</time></trkpt><trkpt lat="43.47452" lon="10.7266333"><ele>214.0</ele><time>2026-04-04T08:53:08.331Z</time></trkpt><trkpt lat="43.47447" lon="10.7265"><ele>211.66666666666666</ele><time>2026-04-04T08:53:09.331Z</time></trkpt><trkpt lat="43.474445" lon="10.7263433"><ele>209.33333333333331</ele><time>2026-04-04T08:53:10.332Z</time></trkpt><trkpt lat="43.4744317" lon="10.7262267"><ele>207.0</ele><time>2026-04-04T08:53:11.332Z</time></trkpt><trkpt lat="43.4744" lon="10.7261133"><ele>204.66666666666669</ele><time>2026-04-04T08:53:12.331Z</time></trkpt><trkpt lat="43.4743483" lon="10.7260033"><ele>202.33333333333334</ele><time>2026-04-04T08:53:13.332Z</time></trkpt><trkpt lat="43.4743417" lon="10.7259167"><ele>200.0</ele><time>2026-04-04T08:53:14.332Z</time></trkpt><trkpt lat="43.47429" lon="10.725855"><ele>196.6</ele><time>2026-04-04T08:53:15.331Z</time></trkpt><trkpt lat="43.4742233" lon="10.7258217"><ele>193.2</ele><time>2026-04-04T08:53:16.331Z</time></trkpt><trkpt lat="43.4741433" lon="10.7258067"><ele>189.8</ele><time>2026-04-04T08:53:17.331Z</time></trkpt><trkpt lat="43.4740517" lon="10.7258233"><ele>186.4</ele><time>2026-04-04T08:53:18.331Z</time></trkpt><trkpt lat="43.4739417" lon="10.725855"><ele>183.0</ele><time>2026-04-04T08:53:19.331Z</time></trkpt><trkpt lat="43.473795" lon="10.72604"><ele>185.5</ele><time>2026-04-04T08:53:20.331Z</time></trkpt><trkpt lat="43.4736683" lon="10.7261467"><ele>188.0</ele><time>2026-04-04T08:53:21.332Z</time></trkpt><trkpt lat="43.4735583" lon="10.7262383"><ele>190.5</ele><time>2026-04-04T08:53:22.332Z</time></trkpt><trkpt lat="43.473415" lon="10.7263317"><ele>193.0</ele><time>2026-04-04T08:53:23.331Z</time></trkpt><trkpt lat="43.4733017" lon="10.72644"><ele>193.0</ele><time>2026-04-04T08:53:24.331Z</time></trkpt><trkpt lat="43.473195" lon="10.726505"><ele>193.0</ele><time>2026-04-04T08:53:25.332Z</time></trkpt><trkpt lat="43.47309" lon="10.7265517"><ele>193.0</ele><time>2026-04-04T08:53:26.332Z</time></trkpt><trkpt lat="43.4729883" lon="10.7265867"><ele>193.0</ele><time>2026-04-04T08:53:27.331Z</time></trkpt><trkpt lat="43.4728917" lon="10.726605"><ele>193.0</ele><time>2026-04-04T08:53:28.331Z</time></trkpt><trkpt lat="43.4727967" lon="10.726625"><ele>191.83333333333331</ele><time>2026-04-04T08:53:29.331Z</time></trkpt><trkpt lat="43.472705" lon="10.72665"><ele>190.66666666666666</ele><time>2026-04-04T08:53:30.331Z</time></trkpt><trkpt lat="43.47262" lon="10.726685"><ele>189.5</ele><time>2026-04-04T08:53:31.331Z</time></trkpt><trkpt lat="43.4725483" lon="10.7267317"><ele>188.33333333333331</ele><time>2026-04-04T08:53:32.331Z</time></trkpt><trkpt lat="43.472485" lon="10.72677"><ele>187.16666666666666</ele><time>2026-04-04T08:53:33.332Z</time></trkpt><trkpt lat="43.4723833" lon="10.7268317"><ele>186.0</ele><time>2026-04-04T08:53:35.331Z</time></trkpt><trkpt lat="43.4722983" lon="10.7268867"><ele>188.0</ele><time>2026-04-04T08:53:37.331Z</time></trkpt><trkpt lat="43.47221" lon="10.7270217"><ele>190.0</ele><time>2026-04-04T08:53:39.331Z</time></trkpt><trkpt lat="43.4721767" lon="10.7271283"><ele>192.0</ele><time>2026-04-04T08:53:40.331Z</time></trkpt><trkpt lat="43.4721417" lon="10.7272667"><ele>194.0</ele><time>2026-04-04T08:53:41.331Z</time></trkpt><trkpt lat="43.472105" lon="10.72741"><ele>196.0</ele><time>2026-04-04T08:53:42.331Z</time></trkpt><trkpt lat="43.4720617" lon="10.7275417"><ele>196.0</ele><time>2026-04-04T08:53:43.332Z</time></trkpt><trkpt lat="43.4720183" lon="10.7276783"><ele>196.0</ele><time>2026-04-04T08:53:44.332Z</time></trkpt><trkpt lat="43.4719833" lon="10.72779"><ele>196.0</ele><time>2026-04-04T08:53:45.332Z</time></trkpt><trkpt lat="43.4719533" lon="10.7278833"><ele>196.0</ele><time>2026-04-04T08:53:46.332Z</time></trkpt><trkpt lat="43.4719417" lon="10.7279733"><ele>196.0</ele><time>2026-04-04T08:53:47.331Z</time></trkpt><trkpt lat="43.4718933" lon="10.7281217"><ele>197.49999999999997</ele><time>2026-04-04T08:53:49.331Z</time></trkpt><trkpt lat="43.4718683" lon="10.72825"><ele>199.0</ele><time>2026-04-04T08:53:51.331Z</time></trkpt><trkpt lat="43.4718483" lon="10.7283467"><ele>200.5</ele><time>2026-04-04T08:53:53.331Z</time></trkpt><trkpt lat="43.471765" lon="10.7284183"><ele>202.0</ele><time>2026-04-04T08:53:55.331Z</time></trkpt><trkpt lat="43.471675" lon="10.728445"><ele>203.49999999999997</ele><time>2026-04-04T08:53:56.331Z</time></trkpt><trkpt lat="43.471595" lon="10.7284717"><ele>205.0</ele><time>2026-04-04T08:53:57.331Z</time></trkpt><trkpt lat="43.4715167" lon="10.7284967"><ele>204.99999999999997</ele><time>2026-04-04T08:53:58.331Z</time></trkpt><trkpt lat="43.471435" lon="10.72852"><ele>205.0</ele><time>2026-04-04T08:53:59.331Z</time></trkpt><trkpt lat="43.47135" lon="10.7285433"><ele>205.0</ele><time>2026-04-04T08:54:00.331Z</time></trkpt><trkpt lat="43.47128" lon="10.7285683"><ele>205.0</ele><time>2026-04-04T08:54:01.332Z</time></trkpt><trkpt lat="43.4712133" lon="10.728595"><ele>204.99999999999997</ele><time>2026-04-04T08:54:02.331Z</time></trkpt><trkpt lat="43.4710983" lon="10.7286533"><ele>205.0</ele><time>2026-04-04T08:54:04.331Z</time></trkpt><trkpt lat="43.4709883" lon="10.72873"><ele>204.8</ele><time>2026-04-04T08:54:06.331Z</time></trkpt><trkpt lat="43.470935" lon="10.7287767"><ele>204.6</ele><time>2026-04-04T08:54:07.331Z</time></trkpt><trkpt lat="43.470885" lon="10.72883"><ele>204.39999999999998</ele><time>2026-04-04T08:54:08.331Z</time></trkpt><trkpt lat="43.470795" lon="10.7289567"><ele>204.2</ele><time>2026-04-04T08:54:10.331Z</time></trkpt><trkpt lat="43.4706867" lon="10.72904"><ele>204.0</ele><time>2026-04-04T08:54:12.331Z</time></trkpt><trkpt lat="43.4705717" lon="10.7291117"><ele>204.0</ele><time>2026-04-04T08:54:14.331Z</time></trkpt><trkpt lat="43.4704833" lon="10.7291767"><ele>204.0</ele><time>2026-04-04T08:54:16.331Z</time></trkpt><trkpt lat="43.4704483" lon="10.72926"><ele>204.0</ele><time>2026-04-04T08:54:18.331Z</time></trkpt><trkpt lat="43.4704683" lon="10.729385"><ele>204.0</ele><time>2026-04-04T08:54:20.331Z</time></trkpt><trkpt lat="43.4704917" lon="10.7295017"><ele>204.0</ele><time>2026-04-04T08:54:21.331Z</time></trkpt><trkpt lat="43.4705283" lon="10.7296383"><ele>202.6</ele><time>2026-04-04T08:54:22.331Z</time></trkpt><trkpt lat="43.4705483" lon="10.7297817"><ele>201.2</ele><time>2026-04-04T08:54:23.331Z</time></trkpt><trkpt lat="43.470575" lon="10.7299167"><ele>199.79999999999998</ele><time>2026-04-04T08:54:24.331Z</time></trkpt><trkpt lat="43.4706033" lon="10.73007"><ele>198.39999999999998</ele><time>2026-04-04T08:54:25.331Z</time></trkpt><trkpt lat="43.4706383" lon="10.7302333"><ele>197.0</ele><time>2026-04-04T08:54:26.331Z</time></trkpt><trkpt lat="43.47066" lon="10.7303933"><ele>197.0</ele><time>2026-04-04T08:54:27.332Z</time></trkpt><trkpt lat="43.470685" lon="10.73051"><ele>197.0</ele><time>2026-04-04T08:54:28.331Z</time></trkpt><trkpt lat="43.47071" lon="10.7306183"><ele>197.0</ele><time>2026-04-04T08:54:29.332Z</time></trkpt><trkpt lat="43.470725" lon="10.730735"><ele>197.0</ele><time>2026-04-04T08:54:30.331Z</time></trkpt><trkpt lat="43.4707267" lon="10.7308667"><ele>197.0</ele><time>2026-04-04T08:54:31.331Z</time></trkpt><trkpt lat="43.4707383" lon="10.73101"><ele>196.83333333333334</ele><time>2026-04-04T08:54:32.331Z</time></trkpt><trkpt lat="43.47073" lon="10.7311417"><ele>196.66666666666669</ele><time>2026-04-04T08:54:33.331Z</time></trkpt><trkpt lat="43.4707117" lon="10.731265"><ele>196.5</ele><time>2026-04-04T08:54:34.331Z</time></trkpt><trkpt lat="43.4706983" lon="10.73138"><ele>196.33333333333331</ele><time>2026-04-04T08:54:35.331Z</time></trkpt><trkpt lat="43.47068" lon="10.7314967"><ele>196.16666666666666</ele><time>2026-04-04T08:54:36.332Z</time></trkpt><trkpt lat="43.47065" lon="10.731615"><ele>196.0</ele><time>2026-04-04T08:54:37.331Z</time></trkpt><trkpt lat="43.4706267" lon="10.731745"><ele>196.0</ele><time>2026-04-04T08:54:38.331Z</time></trkpt><trkpt lat="43.470615" lon="10.7318817"><ele>196.0</ele><time>2026-04-04T08:54:39.332Z</time></trkpt><trkpt lat="43.470595" lon="10.732015"><ele>196.0</ele><time>2026-04-04T08:54:40.331Z</time></trkpt><trkpt lat="43.4705617" lon="10.7321483"><ele>196.0</ele><time>2026-04-04T08:54:41.331Z</time></trkpt><trkpt lat="43.4705367" lon="10.7322767"><ele>196.0</ele><time>2026-04-04T08:54:42.331Z</time></trkpt><trkpt lat="43.4705033" lon="10.7324083"><ele>194.20000000000002</ele><time>2026-04-04T08:54:43.331Z</time></trkpt><trkpt lat="43.4704717" lon="10.732555"><ele>192.4</ele><time>2026-04-04T08:54:44.331Z</time></trkpt><trkpt lat="43.4704317" lon="10.7326967"><ele>190.6</ele><time>2026-04-04T08:54:45.332Z</time></trkpt><trkpt lat="43.4704133" lon="10.73285"><ele>188.8</ele><time>2026-04-04T08:54:46.331Z</time></trkpt><trkpt lat="43.4703983" lon="10.7330033"><ele>187.0</ele><time>2026-04-04T08:54:47.332Z</time></trkpt><trkpt lat="43.4703783" lon="10.7331383"><ele>185.2</ele><time>2026-04-04T08:54:48.331Z</time></trkpt><trkpt lat="43.4703633" lon="10.7332767"><ele>183.39999999999998</ele><time>2026-04-04T08:54:49.332Z</time></trkpt><trkpt lat="43.4703617" lon="10.7334267"><ele>181.60000000000002</ele><time>2026-04-04T08:54:50.331Z</time></trkpt><trkpt lat="43.470355" lon="10.7335783"><ele>179.8</ele><time>2026-04-04T08:54:51.331Z</time></trkpt><trkpt lat="43.4703483" lon="10.7337183"><ele>178.0</ele><time>2026-04-04T08:54:52.331Z</time></trkpt><trkpt lat="43.4703383" lon="10.733865"><ele>178.0</ele><time>2026-04-04T08:54:53.332Z</time></trkpt><trkpt lat="43.4703133" lon="10.7339933"><ele>178.0</ele><time>2026-04-04T08:54:54.331Z</time></trkpt><trkpt lat="43.4703" lon="10.734125"><ele>178.0</ele><time>2026-04-04T08:54:55.331Z</time></trkpt><trkpt lat="43.4702967" lon="10.7342583"><ele>178.0</ele><time>2026-04-04T08:54:56.332Z</time></trkpt><trkpt lat="43.470305" lon="10.7343883"><ele>178.0</ele><time>2026-04-04T08:54:57.331Z</time></trkpt><trkpt lat="43.4703233" lon="10.734505"><ele>178.0</ele><time>2026-04-04T08:54:58.331Z</time></trkpt><trkpt lat="43.47035" lon="10.734625"><ele>178.0</ele><time>2026-04-04T08:54:59.331Z</time></trkpt><trkpt lat="43.4703967" lon="10.7347617"><ele>178.0</ele><time>2026-04-04T08:55:00.332Z</time></trkpt><trkpt lat="43.4703983" lon="10.734905"><ele>178.0</ele><time>2026-04-04T08:55:01.331Z</time></trkpt><trkpt lat="43.4703867" lon="10.7350517"><ele>178.0</ele><time>2026-04-04T08:55:02.331Z</time></trkpt><trkpt lat="43.4703783" lon="10.7351983"><ele>174.8</ele><time>2026-04-04T08:55:03.331Z</time></trkpt><trkpt lat="43.4703383" lon="10.7353317"><ele>171.60000000000002</ele><time>2026-04-04T08:55:04.331Z</time></trkpt><trkpt lat="43.4702983" lon="10.7354733"><ele>168.39999999999998</ele><time>2026-04-04T08:55:05.331Z</time></trkpt><trkpt lat="43.47027" lon="10.7356167"><ele>165.2</ele><time>2026-04-04T08:55:06.331Z</time></trkpt><trkpt lat="43.4702617" lon="10.7357583"><ele>162.0</ele><time>2026-04-04T08:55:07.331Z</time></trkpt><trkpt lat="43.4702567" lon="10.73588"><ele>162.0</ele><time>2026-04-04T08:55:08.332Z</time></trkpt><trkpt lat="43.470255" lon="10.7359817"><ele>162.0</ele><time>2026-04-04T08:55:09.331Z</time></trkpt><trkpt lat="43.4702383" lon="10.7360683"><ele>162.0</ele><time>2026-04-04T08:55:10.331Z</time></trkpt><trkpt lat="43.4701767" lon="10.7362083"><ele>162.0</ele><time>2026-04-04T08:55:12.331Z</time></trkpt><trkpt lat="43.4701217" lon="10.736255"><ele>162.0</ele><time>2026-04-04T08:55:13.331Z</time></trkpt><trkpt lat="43.4700667" lon="10.7363217"><ele>162.0</ele><time>2026-04-04T08:55:14.331Z</time></trkpt><trkpt lat="43.4700217" lon="10.7363933"><ele>161.0</ele><time>2026-04-04T08:55:15.331Z</time></trkpt><trkpt lat="43.4699733" lon="10.7364617"><ele>160.0</ele><time>2026-04-04T08:55:16.332Z</time></trkpt><trkpt lat="43.4699367" lon="10.7365417"><ele>159.0</ele><time>2026-04-04T08:55:17.331Z</time></trkpt><trkpt lat="43.4699033" lon="10.7366217"><ele>158.0</ele><time>2026-04-04T08:55:18.331Z</time></trkpt><trkpt lat="43.46987" lon="10.7367033"><ele>157.0</ele><time>2026-04-04T08:55:19.331Z</time></trkpt><trkpt lat="43.4698333" lon="10.7367817"><ele>156.0</ele><time>2026-04-04T08:55:20.331Z</time></trkpt><trkpt lat="43.4697983" lon="10.7368667"><ele>155.0</ele><time>2026-04-04T08:55:21.331Z</time></trkpt><trkpt lat="43.4697817" lon="10.73697"><ele>154.0</ele><time>2026-04-04T08:55:22.331Z</time></trkpt><trkpt lat="43.46975" lon="10.7370633"><ele>153.0</ele><time>2026-04-04T08:55:23.332Z</time></trkpt><trkpt lat="43.46971" lon="10.7371483"><ele>152.0</ele><time>2026-04-04T08:55:24.331Z</time></trkpt><trkpt lat="43.4696667" lon="10.7372317"><ele>151.0</ele><time>2026-04-04T08:55:25.331Z</time></trkpt><trkpt lat="43.4696283" lon="10.7373233"><ele>150.0</ele><time>2026-04-04T08:55:26.332Z</time></trkpt><trkpt lat="43.4695883" lon="10.7374183"><ele>149.0</ele><time>2026-04-04T08:55:27.331Z</time></trkpt><trkpt lat="43.4695333" lon="10.737505"><ele>147.5</ele><time>2026-04-04T08:55:28.331Z</time></trkpt><trkpt lat="43.4694883" lon="10.7375883"><ele>146.0</ele><time>2026-04-04T08:55:29.331Z</time></trkpt><trkpt lat="43.46944" lon="10.7376667"><ele>144.5</ele><time>2026-04-04T08:55:30.332Z</time></trkpt><trkpt lat="43.4693983" lon="10.7377417"><ele>143.0</ele><time>2026-04-04T08:55:31.331Z</time></trkpt><trkpt lat="43.4693583" lon="10.7378117"><ele>141.5</ele><time>2026-04-04T08:55:32.331Z</time></trkpt><trkpt lat="43.469285" lon="10.73793"><ele>140.0</ele><time>2026-04-04T08:55:34.331Z</time></trkpt><trkpt lat="43.4691917" lon="10.7380133"><ele>140.0</ele><time>2026-04-04T08:55:36.332Z</time></trkpt><trkpt lat="43.46909" lon="10.7380717"><ele>140.0</ele><time>2026-04-04T08:55:38.332Z</time></trkpt><trkpt lat="43.4689733" lon="10.7381"><ele>140.0</ele><time>2026-04-04T08:55:40.332Z</time></trkpt><trkpt lat="43.4688617" lon="10.7380967"><ele>140.0</ele><time>2026-04-04T08:55:42.332Z</time></trkpt><trkpt lat="43.4687617" lon="10.7380933"><ele>140.0</ele><time>2026-04-04T08:55:44.331Z</time></trkpt><trkpt lat="43.468665" lon="10.7380917"><ele>139.4</ele><time>2026-04-04T08:55:46.331Z</time></trkpt><trkpt lat="43.4685833" lon="10.7381083"><ele>138.8</ele><time>2026-04-04T08:55:48.332Z</time></trkpt><trkpt lat="43.4684267" lon="10.7382067"><ele>138.2</ele><time>2026-04-04T09:14:10.329Z</time></trkpt><trkpt lat="43.4683533" lon="10.7382717"><ele>137.6</ele><time>2026-04-04T09:14:13.329Z</time></trkpt><trkpt lat="43.46827" lon="10.7383367"><ele>137.0</ele><time>2026-04-04T09:14:16.329Z</time></trkpt><trkpt lat="43.4682133" lon="10.738405"><ele>137.0</ele><time>2026-04-04T09:14:18.329Z</time></trkpt><trkpt lat="43.4681783" lon="10.7385083"><ele>137.0</ele><time>2026-04-04T09:14:20.329Z</time></trkpt><trkpt lat="43.4681817" lon="10.738665"><ele>137.0</ele><time>2026-04-04T09:14:22.329Z</time></trkpt><trkpt lat="43.468215" lon="10.738765"><ele>137.0</ele><time>2026-04-04T09:14:23.329Z</time></trkpt><trkpt lat="43.4682733" lon="10.73887"><ele>137.0</ele><time>2026-04-04T09:14:24.328Z</time></trkpt><trkpt lat="43.4683217" lon="10.7389683"><ele>136.33333333333331</ele><time>2026-04-04T09:14:25.328Z</time></trkpt><trkpt lat="43.4683633" lon="10.7390583"><ele>135.66666666666666</ele><time>2026-04-04T09:14:26.328Z</time></trkpt><trkpt lat="43.4684017" lon="10.739135"><ele>135.0</ele><time>2026-04-04T09:14:27.329Z</time></trkpt><trkpt lat="43.4684433" lon="10.73921"><ele>134.33333333333334</ele><time>2026-04-04T09:14:28.328Z</time></trkpt><trkpt lat="43.46849" lon="10.73934"><ele>133.66666666666669</ele><time>2026-04-04T09:14:30.328Z</time></trkpt><trkpt lat="43.46851" lon="10.7395067"><ele>133.0</ele><time>2026-04-04T09:14:32.328Z</time></trkpt><trkpt lat="43.4685233" lon="10.7396217"><ele>132.5</ele><time>2026-04-04T09:14:33.328Z</time></trkpt><trkpt lat="43.4685233" lon="10.7397883"><ele>132.0</ele><time>2026-04-04T09:14:34.329Z</time></trkpt><trkpt lat="43.46851" lon="10.7399917"><ele>131.5</ele><time>2026-04-04T09:14:35.329Z</time></trkpt><trkpt lat="43.4684917" lon="10.7401733"><ele>131.0</ele><time>2026-04-04T09:14:36.329Z</time></trkpt><trkpt lat="43.4684583" lon="10.740355"><ele>131.0</ele><time>2026-04-04T09:14:37.328Z</time></trkpt><trkpt lat="43.4684283" lon="10.7405167"><ele>131.0</ele><time>2026-04-04T09:14:38.328Z</time></trkpt><trkpt lat="43.4683767" lon="10.7406583"><ele>131.0</ele><time>2026-04-04T09:14:39.328Z</time></trkpt><trkpt lat="43.4683117" lon="10.74078"><ele>131.0</ele><time>2026-04-04T09:14:40.328Z</time></trkpt><trkpt lat="43.4682267" lon="10.7409033"><ele>131.0</ele><time>2026-04-04T09:14:41.329Z</time></trkpt><trkpt lat="43.468125" lon="10.7410383"><ele>131.0</ele><time>2026-04-04T09:14:42.328Z</time></trkpt><trkpt lat="43.46802" lon="10.7411717"><ele>131.0</ele><time>2026-04-04T09:14:43.328Z</time></trkpt><trkpt lat="43.4679267" lon="10.7413233"><ele>131.0</ele><time>2026-04-04T09:14:44.328Z</time></trkpt><trkpt lat="43.467835" lon="10.7415067"><ele>131.66666666666666</ele><time>2026-04-04T09:14:45.328Z</time></trkpt><trkpt lat="43.46775" lon="10.74173"><ele>132.33333333333334</ele><time>2026-04-04T09:14:46.328Z</time></trkpt><trkpt lat="43.46767" lon="10.7419283"><ele>133.0</ele><time>2026-04-04T09:14:47.328Z</time></trkpt><trkpt lat="43.4676183" lon="10.742105"><ele>133.0</ele><time>2026-04-04T09:14:48.328Z</time></trkpt><trkpt lat="43.4675583" lon="10.74227"><ele>133.0</ele><time>2026-04-04T09:14:49.328Z</time></trkpt><trkpt lat="43.4675067" lon="10.7424217"><ele>133.0</ele><time>2026-04-04T09:14:50.329Z</time></trkpt><trkpt lat="43.4674583" lon="10.7425683"><ele>133.0</ele><time>2026-04-04T09:14:51.328Z</time></trkpt><trkpt lat="43.4674183" lon="10.74269"><ele>132.5</ele><time>2026-04-04T09:14:52.328Z</time></trkpt><trkpt lat="43.4673783" lon="10.7427933"><ele>132.0</ele><time>2026-04-04T09:14:53.328Z</time></trkpt><trkpt lat="43.467355" lon="10.742885"><ele>131.5</ele><time>2026-04-04T09:14:54.328Z</time></trkpt><trkpt lat="43.4673467" lon="10.7429733"><ele>131.0</ele><time>2026-04-04T09:14:55.328Z</time></trkpt><trkpt lat="43.4673283" lon="10.7431267"><ele>130.5</ele><time>2026-04-04T09:14:57.328Z</time></trkpt><trkpt lat="43.4673183" lon="10.7432767"><ele>130.0</ele><time>2026-04-04T09:15:23.328Z</time></trkpt><trkpt lat="43.467305" lon="10.7434667"><ele>131.0</ele><time>2026-04-04T09:15:25.328Z</time></trkpt><trkpt lat="43.4672933" lon="10.7435883"><ele>132.0</ele><time>2026-04-04T09:15:26.328Z</time></trkpt><trkpt lat="43.46728" lon="10.74373"><ele>133.0</ele><time>2026-04-04T09:15:27.328Z</time></trkpt><trkpt lat="43.4672617" lon="10.74387"><ele>134.0</ele><time>2026-04-04T09:15:28.328Z</time></trkpt><trkpt lat="43.4672467" lon="10.744"><ele>135.0</ele><time>2026-04-04T09:15:29.328Z</time></trkpt><trkpt lat="43.4672567" lon="10.7441333"><ele>135.0</ele><time>2026-04-04T09:15:30.328Z</time></trkpt><trkpt lat="43.4672717" lon="10.7442617"><ele>135.0</ele><time>2026-04-04T09:15:31.328Z</time></trkpt><trkpt lat="43.46732" lon="10.7443567"><ele>135.0</ele><time>2026-04-04T09:15:32.328Z</time></trkpt><trkpt lat="43.4673833" lon="10.7444467"><ele>135.0</ele><time>2026-04-04T09:15:33.328Z</time></trkpt><trkpt lat="43.467475" lon="10.744505"><ele>135.0</ele><time>2026-04-04T09:15:34.329Z</time></trkpt><trkpt lat="43.4675717" lon="10.7445767"><ele>136.25</ele><time>2026-04-04T09:15:35.329Z</time></trkpt><trkpt lat="43.467675" lon="10.7446617"><ele>137.5</ele><time>2026-04-04T09:15:36.328Z</time></trkpt><trkpt lat="43.4677833" lon="10.7447367"><ele>138.75</ele><time>2026-04-04T09:15:37.328Z</time></trkpt><trkpt lat="43.4678783" lon="10.7448067"><ele>140.0</ele><time>2026-04-04T09:15:38.329Z</time></trkpt><trkpt lat="43.46797" lon="10.7448817"><ele>139.0</ele><time>2026-04-04T09:15:39.328Z</time></trkpt><trkpt lat="43.4680567" lon="10.7449667"><ele>138.0</ele><time>2026-04-04T09:15:40.329Z</time></trkpt><trkpt lat="43.46814" lon="10.745055"><ele>137.0</ele><time>2026-04-04T09:15:41.329Z</time></trkpt><trkpt lat="43.4682017" lon="10.7451483"><ele>136.0</ele><time>2026-04-04T09:15:42.328Z</time></trkpt><trkpt lat="43.4682617" lon="10.7452467"><ele>135.0</ele><time>2026-04-04T09:15:43.329Z</time></trkpt><trkpt lat="43.468315" lon="10.7453617"><ele>135.0</ele><time>2026-04-04T09:15:44.329Z</time></trkpt><trkpt lat="43.4683667" lon="10.7454917"><ele>135.0</ele><time>2026-04-04T09:15:45.328Z</time></trkpt><trkpt lat="43.4684117" lon="10.74564"><ele>135.0</ele><time>2026-04-04T09:15:46.328Z</time></trkpt><trkpt lat="43.468455" lon="10.74579"><ele>135.0</ele><time>2026-04-04T09:15:47.329Z</time></trkpt><trkpt lat="43.468495" lon="10.7459433"><ele>135.25</ele><time>2026-04-04T09:15:48.328Z</time></trkpt><trkpt lat="43.4685417" lon="10.7461083"><ele>135.5</ele><time>2026-04-04T09:15:49.329Z</time></trkpt><trkpt lat="43.4685817" lon="10.74626"><ele>135.75</ele><time>2026-04-04T09:15:50.328Z</time></trkpt><trkpt lat="43.468615" lon="10.74642"><ele>136.0</ele><time>2026-04-04T09:15:51.329Z</time></trkpt><trkpt lat="43.4686467" lon="10.7465583"><ele>136.0</ele><time>2026-04-04T09:15:52.328Z</time></trkpt><trkpt lat="43.4686967" lon="10.7466817"><ele>136.0</ele><time>2026-04-04T09:15:53.328Z</time></trkpt><trkpt lat="43.4687517" lon="10.7467933"><ele>136.0</ele><time>2026-04-04T09:15:54.329Z</time></trkpt><trkpt lat="43.4688183" lon="10.7469033"><ele>136.0</ele><time>2026-04-04T09:15:55.329Z</time></trkpt><trkpt lat="43.4689117" lon="10.7470133"><ele>136.0</ele><time>2026-04-04T09:15:56.329Z</time></trkpt><trkpt lat="43.4690067" lon="10.7471217"><ele>134.0</ele><time>2026-04-04T09:15:57.328Z</time></trkpt><trkpt lat="43.46912" lon="10.7472183"><ele>132.0</ele><time>2026-04-04T09:15:58.328Z</time></trkpt><trkpt lat="43.469235" lon="10.74732"><ele>130.0</ele><time>2026-04-04T09:15:59.328Z</time></trkpt><trkpt lat="43.4693617" lon="10.7474217"><ele>128.0</ele><time>2026-04-04T09:16:00.328Z</time></trkpt><trkpt lat="43.469475" lon="10.7475233"><ele>128.0</ele><time>2026-04-04T09:16:01.329Z</time></trkpt><trkpt lat="43.4695917" lon="10.7476333"><ele>128.0</ele><time>2026-04-04T09:16:02.328Z</time></trkpt><trkpt lat="43.469695" lon="10.7477517"><ele>128.0</ele><time>2026-04-04T09:16:03.328Z</time></trkpt><trkpt lat="43.4698117" lon="10.7478483"><ele>128.0</ele><time>2026-04-04T09:16:04.328Z</time></trkpt><trkpt lat="43.46993" lon="10.7479517"><ele>126.5</ele><time>2026-04-04T09:16:05.328Z</time></trkpt><trkpt lat="43.47005" lon="10.7480383"><ele>125.0</ele><time>2026-04-04T09:16:06.328Z</time></trkpt><trkpt lat="43.47018" lon="10.7481167"><ele>123.5</ele><time>2026-04-04T09:16:07.328Z</time></trkpt><trkpt lat="43.4703117" lon="10.7481917"><ele>122.0</ele><time>2026-04-04T09:16:08.328Z</time></trkpt><trkpt lat="43.4704417" lon="10.74827"><ele>122.0</ele><time>2026-04-04T09:16:09.329Z</time></trkpt><trkpt lat="43.4705717" lon="10.7483367"><ele>122.0</ele><time>2026-04-04T09:16:10.329Z</time></trkpt><trkpt lat="43.4706967" lon="10.7483967"><ele>122.0</ele><time>2026-04-04T09:16:11.329Z</time></trkpt><trkpt lat="43.470825" lon="10.74848"><ele>122.0</ele><time>2026-04-04T09:16:12.328Z</time></trkpt><trkpt lat="43.4709433" lon="10.74856"><ele>121.75</ele><time>2026-04-04T09:16:13.328Z</time></trkpt><trkpt lat="43.4710583" lon="10.7486583"><ele>121.5</ele><time>2026-04-04T09:16:14.328Z</time></trkpt><trkpt lat="43.4711683" lon="10.7487617"><ele>121.25</ele><time>2026-04-04T09:16:15.328Z</time></trkpt><trkpt lat="43.4712567" lon="10.7488833"><ele>121.0</ele><time>2026-04-04T09:16:16.329Z</time></trkpt><trkpt lat="43.471335" lon="10.74902"><ele>121.0</ele><time>2026-04-04T09:16:17.328Z</time></trkpt><trkpt lat="43.4714033" lon="10.7491633"><ele>121.0</ele><time>2026-04-04T09:16:18.328Z</time></trkpt><trkpt lat="43.4714567" lon="10.7493183"><ele>121.0</ele><time>2026-04-04T09:16:19.328Z</time></trkpt><trkpt lat="43.471515" lon="10.7494817"><ele>121.0</ele><time>2026-04-04T09:16:20.328Z</time></trkpt><trkpt lat="43.4715767" lon="10.74965"><ele>121.5</ele><time>2026-04-04T09:16:21.328Z</time></trkpt><trkpt lat="43.4716383" lon="10.749815"><ele>122.0</ele><time>2026-04-04T09:16:22.328Z</time></trkpt><trkpt lat="43.4716917" lon="10.7499633"><ele>122.5</ele><time>2026-04-04T09:16:23.329Z</time></trkpt><trkpt lat="43.4717383" lon="10.7501"><ele>123.0</ele><time>2026-04-04T09:16:24.328Z</time></trkpt><trkpt lat="43.47178" lon="10.75023"><ele>123.0</ele><time>2026-04-04T09:16:25.328Z</time></trkpt><trkpt lat="43.47182" lon="10.7503583"><ele>123.0</ele><time>2026-04-04T09:16:26.328Z</time></trkpt><trkpt lat="43.4718683" lon="10.750495"><ele>123.0</ele><time>2026-04-04T09:16:27.328Z</time></trkpt><trkpt lat="43.4719183" lon="10.7506567"><ele>123.0</ele><time>2026-04-04T09:16:28.328Z</time></trkpt><trkpt lat="43.4719683" lon="10.7508217"><ele>123.0</ele><time>2026-04-04T09:16:29.328Z</time></trkpt><trkpt lat="43.4720117" lon="10.7509917"><ele>123.0</ele><time>2026-04-04T09:16:30.328Z</time></trkpt><trkpt lat="43.47206" lon="10.7511633"><ele>123.0</ele><time>2026-04-04T09:16:31.328Z</time></trkpt><trkpt lat="43.4721033" lon="10.7513317"><ele>123.0</ele><time>2026-04-04T09:16:32.328Z</time></trkpt><trkpt lat="43.472145" lon="10.7515033"><ele>123.25</ele><time>2026-04-04T09:16:33.328Z</time></trkpt><trkpt lat="43.4721883" lon="10.751675"><ele>123.5</ele><time>2026-04-04T09:16:34.328Z</time></trkpt><trkpt lat="43.4722333" lon="10.75184"><ele>123.75</ele><time>2026-04-04T09:16:35.329Z</time></trkpt><trkpt lat="43.4722733" lon="10.7520017"><ele>124.0</ele><time>2026-04-04T09:16:36.329Z</time></trkpt><trkpt lat="43.472315" lon="10.7521617"><ele>124.5</ele><time>2026-04-04T09:16:37.328Z</time></trkpt><trkpt lat="43.4723567" lon="10.7523183"><ele>125.0</ele><time>2026-04-04T09:16:38.328Z</time></trkpt><trkpt lat="43.4724" lon="10.7524767"><ele>125.5</ele><time>2026-04-04T09:16:39.328Z</time></trkpt><trkpt lat="43.47244" lon="10.7526333"><ele>126.0</ele><time>2026-04-04T09:16:40.328Z</time></trkpt><trkpt lat="43.4724833" lon="10.7527967"><ele>126.0</ele><time>2026-04-04T09:16:41.328Z</time></trkpt><trkpt lat="43.4725233" lon="10.7529567"><ele>126.0</ele><time>2026-04-04T09:16:42.328Z</time></trkpt><trkpt lat="43.4725683" lon="10.753105"><ele>126.0</ele><time>2026-04-04T09:16:43.328Z</time></trkpt><trkpt lat="43.4726" lon="10.7532567"><ele>126.0</ele><time>2026-04-04T09:16:44.328Z</time></trkpt><trkpt lat="43.47264" lon="10.7534017"><ele>126.0</ele><time>2026-04-04T09:16:45.328Z</time></trkpt><trkpt lat="43.4726817" lon="10.7535333"><ele>126.0</ele><time>2026-04-04T09:16:46.328Z</time></trkpt><trkpt lat="43.4727217" lon="10.7536683"><ele>126.0</ele><time>2026-04-04T09:16:47.329Z</time></trkpt><trkpt lat="43.4727617" lon="10.7538117"><ele>126.0</ele><time>2026-04-04T09:16:48.328Z</time></trkpt><trkpt lat="43.4728033" lon="10.753955"><ele>126.0</ele><time>2026-04-04T09:16:49.328Z</time></trkpt><trkpt lat="43.4728367" lon="10.7540867"><ele>126.0</ele><time>2026-04-04T09:16:50.328Z</time></trkpt><trkpt lat="43.4728717" lon="10.754215"><ele>126.0</ele><time>2026-04-04T09:16:51.329Z</time></trkpt><trkpt lat="43.4729167" lon="10.754345"><ele>126.0</ele><time>2026-04-04T09:16:52.328Z</time></trkpt><trkpt lat="43.472965" lon="10.7544867"><ele>126.0</ele><time>2026-04-04T09:16:53.328Z</time></trkpt><trkpt lat="43.47301" lon="10.7546333"><ele>126.0</ele><time>2026-04-04T09:16:54.328Z</time></trkpt><trkpt lat="43.473065" lon="10.7547683"><ele>126.0</ele><time>2026-04-04T09:16:55.328Z</time></trkpt><trkpt lat="43.47312" lon="10.7548933"><ele>126.0</ele><time>2026-04-04T09:16:56.328Z</time></trkpt><trkpt lat="43.4731733" lon="10.7550217"><ele>126.0</ele><time>2026-04-04T09:16:57.328Z</time></trkpt><trkpt lat="43.4732283" lon="10.7551567"><ele>126.0</ele><time>2026-04-04T09:16:58.328Z</time></trkpt><trkpt lat="43.4732833" lon="10.75529"><ele>126.0</ele><time>2026-04-04T09:16:59.329Z</time></trkpt><trkpt lat="43.473335" lon="10.7554317"><ele>126.25</ele><time>2026-04-04T09:17:00.328Z</time></trkpt><trkpt lat="43.473385" lon="10.7555817"><ele>126.5</ele><time>2026-04-04T09:17:01.328Z</time></trkpt><trkpt lat="43.4734317" lon="10.755725"><ele>126.75</ele><time>2026-04-04T09:17:02.328Z</time></trkpt><trkpt lat="43.4734783" lon="10.7558683"><ele>127.0</ele><time>2026-04-04T09:17:03.328Z</time></trkpt><trkpt lat="43.4735217" lon="10.7560117"><ele>126.8</ele><time>2026-04-04T09:17:04.328Z</time></trkpt><trkpt lat="43.4735717" lon="10.7561467"><ele>126.6</ele><time>2026-04-04T09:17:05.328Z</time></trkpt><trkpt lat="43.4736167" lon="10.756285"><ele>126.39999999999999</ele><time>2026-04-04T09:17:06.329Z</time></trkpt><trkpt lat="43.4736583" lon="10.7564183"><ele>126.19999999999999</ele><time>2026-04-04T09:17:07.328Z</time></trkpt><trkpt lat="43.473695" lon="10.7565417"><ele>126.0</ele><time>2026-04-04T09:17:08.328Z</time></trkpt><trkpt lat="43.4737367" lon="10.7566633"><ele>125.8</ele><time>2026-04-04T09:17:09.328Z</time></trkpt><trkpt lat="43.4737833" lon="10.7567667"><ele>125.6</ele><time>2026-04-04T09:17:10.329Z</time></trkpt><trkpt lat="43.47384" lon="10.7568733"><ele>125.4</ele><time>2026-04-04T09:17:11.328Z</time></trkpt><trkpt lat="43.473905" lon="10.75697"><ele>125.2</ele><time>2026-04-04T09:17:12.328Z</time></trkpt><trkpt lat="43.47399" lon="10.7570733"><ele>125.0</ele><time>2026-04-04T09:17:13.328Z</time></trkpt><trkpt lat="43.474075" lon="10.757175"><ele>125.6</ele><time>2026-04-04T09:17:14.328Z</time></trkpt><trkpt lat="43.474165" lon="10.7572817"><ele>126.2</ele><time>2026-04-04T09:17:15.328Z</time></trkpt><trkpt lat="43.47425" lon="10.7573667"><ele>126.80000000000001</ele><time>2026-04-04T09:17:16.328Z</time></trkpt><trkpt lat="43.4743317" lon="10.7574433"><ele>127.4</ele><time>2026-04-04T09:17:17.328Z</time></trkpt><trkpt lat="43.4744233" lon="10.7575233"><ele>128.0</ele><time>2026-04-04T09:17:18.328Z</time></trkpt><trkpt lat="43.474505" lon="10.7576033"><ele>128.0</ele><time>2026-04-04T09:17:19.329Z</time></trkpt><trkpt lat="43.4745767" lon="10.757685"><ele>128.0</ele><time>2026-04-04T09:17:20.328Z</time></trkpt><trkpt lat="43.474655" lon="10.7577617"><ele>128.0</ele><time>2026-04-04T09:17:21.328Z</time></trkpt><trkpt lat="43.4747367" lon="10.75784"><ele>128.0</ele><time>2026-04-04T09:17:22.329Z</time></trkpt><trkpt lat="43.4748117" lon="10.7579133"><ele>128.0</ele><time>2026-04-04T09:17:23.328Z</time></trkpt><trkpt lat="43.4748783" lon="10.757985"><ele>126.83333333333333</ele><time>2026-04-04T09:17:24.328Z</time></trkpt><trkpt lat="43.4749433" lon="10.7580583"><ele>125.66666666666666</ele><time>2026-04-04T09:17:25.328Z</time></trkpt><trkpt lat="43.475005" lon="10.75814"><ele>124.5</ele><time>2026-04-04T09:17:26.328Z</time></trkpt><trkpt lat="43.47505" lon="10.7582433"><ele>123.33333333333334</ele><time>2026-04-04T09:17:27.329Z</time></trkpt><trkpt lat="43.47509" lon="10.7583633"><ele>122.16666666666667</ele><time>2026-04-04T09:17:28.328Z</time></trkpt><trkpt lat="43.4751167" lon="10.7584833"><ele>121.0</ele><time>2026-04-04T09:17:29.328Z</time></trkpt><trkpt lat="43.47515" lon="10.7586133"><ele>119.5</ele><time>2026-04-04T09:17:30.329Z</time></trkpt><trkpt lat="43.47518" lon="10.7587567"><ele>118.0</ele><time>2026-04-04T09:17:31.328Z</time></trkpt><trkpt lat="43.4752067" lon="10.758925"><ele>116.5</ele><time>2026-04-04T09:17:32.328Z</time></trkpt><trkpt lat="43.4752217" lon="10.7590867"><ele>115.0</ele><time>2026-04-04T09:17:33.328Z</time></trkpt><trkpt lat="43.4752467" lon="10.7592667"><ele>114.5</ele><time>2026-04-04T09:17:34.328Z</time></trkpt><trkpt lat="43.4752633" lon="10.759445"><ele>114.0</ele><time>2026-04-04T09:17:35.328Z</time></trkpt><trkpt lat="43.475265" lon="10.7596017"><ele>113.5</ele><time>2026-04-04T09:17:36.328Z</time></trkpt><trkpt lat="43.4752717" lon="10.7597517"><ele>113.0</ele><time>2026-04-04T09:17:37.329Z</time></trkpt><trkpt lat="43.475275" lon="10.7598967"><ele>113.0</ele><time>2026-04-04T09:17:38.328Z</time></trkpt><trkpt lat="43.4752817" lon="10.76005"><ele>113.0</ele><time>2026-04-04T09:17:39.329Z</time></trkpt><trkpt lat="43.4752833" lon="10.7602183"><ele>113.0</ele><time>2026-04-04T09:17:40.329Z</time></trkpt><trkpt lat="43.475275" lon="10.7603917"><ele>113.0</ele><time>2026-04-04T09:17:41.328Z</time></trkpt><trkpt lat="43.47527" lon="10.76056"><ele>111.5</ele><time>2026-04-04T09:17:42.328Z</time></trkpt><trkpt lat="43.4752567" lon="10.76072"><ele>110.0</ele><time>2026-04-04T09:17:43.328Z</time></trkpt><trkpt lat="43.47521" lon="10.7608617"><ele>108.5</ele><time>2026-04-04T09:17:44.328Z</time></trkpt><trkpt lat="43.4751467" lon="10.7610033"><ele>107.0</ele><time>2026-04-04T09:17:45.328Z</time></trkpt><trkpt lat="43.475075" lon="10.7611433"><ele>104.0</ele><time>2026-04-04T09:17:46.328Z</time></trkpt><trkpt lat="43.474995" lon="10.7612783"><ele>101.0</ele><time>2026-04-04T09:17:47.329Z</time></trkpt><trkpt lat="43.4748833" lon="10.7613883"><ele>98.0</ele><time>2026-04-04T09:17:48.328Z</time></trkpt><trkpt lat="43.47476" lon="10.761495"><ele>95.0</ele><time>2026-04-04T09:17:49.328Z</time></trkpt><trkpt lat="43.474625" lon="10.7615983"><ele>96.66666666666667</ele><time>2026-04-04T09:17:50.329Z</time></trkpt><trkpt lat="43.4744883" lon="10.7617167"><ele>98.33333333333334</ele><time>2026-04-04T09:17:51.328Z</time></trkpt><trkpt lat="43.4743367" lon="10.76183"><ele>100.0</ele><time>2026-04-04T09:17:52.328Z</time></trkpt><trkpt lat="43.4741883" lon="10.7619383"><ele>96.33333333333334</ele><time>2026-04-04T09:17:53.328Z</time></trkpt><trkpt lat="43.474045" lon="10.762055"><ele>92.66666666666667</ele><time>2026-04-04T09:17:54.328Z</time></trkpt><trkpt lat="43.4739033" lon="10.76218"><ele>89.0</ele><time>2026-04-04T09:17:55.328Z</time></trkpt><trkpt lat="43.4737617" lon="10.7622967"><ele>89.0</ele><time>2026-04-04T09:17:56.329Z</time></trkpt><trkpt lat="43.4736283" lon="10.762395"><ele>89.0</ele><time>2026-04-04T09:17:57.328Z</time></trkpt><trkpt lat="43.47351" lon="10.7624783"><ele>89.0</ele><time>2026-04-04T09:17:58.328Z</time></trkpt><trkpt lat="43.473395" lon="10.762555"><ele>89.0</ele><time>2026-04-04T09:17:59.328Z</time></trkpt><trkpt lat="43.47328" lon="10.7626467"><ele>87.80000000000001</ele><time>2026-04-04T09:18:00.328Z</time></trkpt><trkpt lat="43.4731817" lon="10.7627467"><ele>86.60000000000001</ele><time>2026-04-04T09:18:01.328Z</time></trkpt><trkpt lat="43.4731083" lon="10.7628667"><ele>85.4</ele><time>2026-04-04T09:18:02.328Z</time></trkpt><trkpt lat="43.4730617" lon="10.7629983"><ele>84.2</ele><time>2026-04-04T09:18:03.328Z</time></trkpt><trkpt lat="43.4730433" lon="10.763125"><ele>83.0</ele><time>2026-04-04T09:18:04.328Z</time></trkpt><trkpt lat="43.4730233" lon="10.7632167"><ele>83.0</ele><time>2026-04-04T09:18:05.328Z</time></trkpt><trkpt lat="43.472975" lon="10.7633383"><ele>83.0</ele><time>2026-04-04T09:18:07.328Z</time></trkpt><trkpt lat="43.4728333" lon="10.7633383"><ele>83.0</ele><time>2026-04-04T09:18:09.328Z</time></trkpt><trkpt lat="43.4727367" lon="10.7633117"><ele>83.0</ele><time>2026-04-04T09:18:10.328Z</time></trkpt><trkpt lat="43.4726267" lon="10.7632817"><ele>82.5</ele><time>2026-04-04T09:18:11.328Z</time></trkpt><trkpt lat="43.4724917" lon="10.763225"><ele>82.0</ele><time>2026-04-04T09:18:12.328Z</time></trkpt><trkpt lat="43.47237" lon="10.763185"><ele>81.5</ele><time>2026-04-04T09:18:13.328Z</time></trkpt><trkpt lat="43.47223" lon="10.7631117"><ele>81.0</ele><time>2026-04-04T09:18:14.329Z</time></trkpt><trkpt lat="43.4720783" lon="10.7630217"><ele>80.66666666666667</ele><time>2026-04-04T09:18:15.329Z</time></trkpt><trkpt lat="43.4719167" lon="10.7629367"><ele>80.33333333333334</ele><time>2026-04-04T09:18:16.328Z</time></trkpt><trkpt lat="43.47175" lon="10.7628383"><ele>80.0</ele><time>2026-04-04T09:18:17.328Z</time></trkpt><trkpt lat="43.4715733" lon="10.762735"><ele>81.0</ele><time>2026-04-04T09:18:18.328Z</time></trkpt><trkpt lat="43.4713883" lon="10.7626233"><ele>82.0</ele><time>2026-04-04T09:18:19.328Z</time></trkpt><trkpt lat="43.4712033" lon="10.7625017"><ele>83.0</ele><time>2026-04-04T09:18:20.328Z</time></trkpt><trkpt lat="43.471" lon="10.7623767"><ele>83.0</ele><time>2026-04-04T09:18:21.328Z</time></trkpt><trkpt lat="43.47081" lon="10.7622483"><ele>83.0</ele><time>2026-04-04T09:18:22.328Z</time></trkpt><trkpt lat="43.4706333" lon="10.7621267"><ele>83.0</ele><time>2026-04-04T09:18:23.329Z</time></trkpt><trkpt lat="43.47047" lon="10.76203"><ele>83.33333333333334</ele><time>2026-04-04T09:18:24.328Z</time></trkpt><trkpt lat="43.4703" lon="10.7619367"><ele>83.66666666666667</ele><time>2026-04-04T09:18:25.328Z</time></trkpt><trkpt lat="43.4701283" lon="10.7618417"><ele>84.0</ele><time>2026-04-04T09:18:26.329Z</time></trkpt><trkpt lat="43.4699617" lon="10.761765"><ele>84.0</ele><time>2026-04-04T09:18:27.328Z</time></trkpt><trkpt lat="43.4697867" lon="10.76169"><ele>84.0</ele><time>2026-04-04T09:18:28.329Z</time></trkpt><trkpt lat="43.4696067" lon="10.7616217"><ele>84.0</ele><time>2026-04-04T09:18:29.329Z</time></trkpt><trkpt lat="43.4694283" lon="10.7615583"><ele>84.0</ele><time>2026-04-04T09:18:30.329Z</time></trkpt><trkpt lat="43.46925" lon="10.7615"><ele>84.0</ele><time>2026-04-04T09:18:31.328Z</time></trkpt><trkpt lat="43.4690767" lon="10.7614533"><ele>84.0</ele><time>2026-04-04T09:18:32.328Z</time></trkpt><trkpt lat="43.4689083" lon="10.7613983"><ele>83.0</ele><time>2026-04-04T09:18:33.328Z</time></trkpt><trkpt lat="43.4687367" lon="10.7613383"><ele>82.0</ele><time>2026-04-04T09:18:34.328Z</time></trkpt><trkpt lat="43.4685817" lon="10.76128"><ele>81.0</ele><time>2026-04-04T09:18:35.329Z</time></trkpt><trkpt lat="43.4684283" lon="10.7612283"><ele>81.0</ele><time>2026-04-04T09:18:36.328Z</time></trkpt><trkpt lat="43.4682667" lon="10.7611833"><ele>81.0</ele><time>2026-04-04T09:18:37.328Z</time></trkpt><trkpt lat="43.4680983" lon="10.7611333"><ele>81.0</ele><time>2026-04-04T09:18:38.328Z</time></trkpt><trkpt lat="43.4679283" lon="10.7610867"><ele>81.0</ele><time>2026-04-04T09:18:39.329Z</time></trkpt><trkpt lat="43.46776" lon="10.7610333"><ele>81.0</ele><time>2026-04-04T09:18:40.328Z</time></trkpt><trkpt lat="43.46759" lon="10.760975"><ele>81.0</ele><time>2026-04-04T09:18:41.328Z</time></trkpt><trkpt lat="43.4674283" lon="10.760925"><ele>81.66666666666667</ele><time>2026-04-04T09:18:42.329Z</time></trkpt><trkpt lat="43.467275" lon="10.76088"><ele>82.33333333333334</ele><time>2026-04-04T09:18:43.328Z</time></trkpt><trkpt lat="43.4671317" lon="10.7608367"><ele>83.0</ele><time>2026-04-04T09:18:44.328Z</time></trkpt><trkpt lat="43.4669783" lon="10.76079"><ele>83.0</ele><time>2026-04-04T09:18:45.328Z</time></trkpt><trkpt lat="43.4668217" lon="10.7607467"><ele>83.0</ele><time>2026-04-04T09:18:46.328Z</time></trkpt><trkpt lat="43.466665" lon="10.7607017"><ele>83.0</ele><time>2026-04-04T09:18:47.328Z</time></trkpt><trkpt lat="43.4664983" lon="10.760645"><ele>83.0</ele><time>2026-04-04T09:18:48.328Z</time></trkpt><trkpt lat="43.4663283" lon="10.7605917"><ele>83.0</ele><time>2026-04-04T09:18:49.328Z</time></trkpt><trkpt lat="43.46616" lon="10.760535"><ele>83.0</ele><time>2026-04-04T09:18:50.328Z</time></trkpt><trkpt lat="43.4659933" lon="10.760485"><ele>82.33333333333334</ele><time>2026-04-04T09:18:51.329Z</time></trkpt><trkpt lat="43.4658367" lon="10.7604367"><ele>81.66666666666667</ele><time>2026-04-04T09:18:52.328Z</time></trkpt><trkpt lat="43.46566" lon="10.7604133"><ele>81.0</ele><time>2026-04-04T09:18:53.328Z</time></trkpt><trkpt lat="43.4654833" lon="10.7604133"><ele>81.33333333333333</ele><time>2026-04-04T09:18:54.328Z</time></trkpt><trkpt lat="43.465305" lon="10.760425"><ele>81.66666666666666</ele><time>2026-04-04T09:18:55.328Z</time></trkpt><trkpt lat="43.465125" lon="10.7604483"><ele>82.0</ele><time>2026-04-04T09:18:56.328Z</time></trkpt><trkpt lat="43.464945" lon="10.7604667"><ele>82.0</ele><time>2026-04-04T09:18:57.328Z</time></trkpt><trkpt lat="43.4647583" lon="10.760485"><ele>82.0</ele><time>2026-04-04T09:18:58.329Z</time></trkpt><trkpt lat="43.464575" lon="10.7605117"><ele>82.0</ele><time>2026-04-04T09:18:59.328Z</time></trkpt><trkpt lat="43.4643917" lon="10.760535"><ele>82.33333333333333</ele><time>2026-04-04T09:19:00.328Z</time></trkpt><trkpt lat="43.4642083" lon="10.7605817"><ele>82.66666666666667</ele><time>2026-04-04T09:19:01.328Z</time></trkpt><trkpt lat="43.464025" lon="10.7605983"><ele>83.0</ele><time>2026-04-04T09:19:02.328Z</time></trkpt><trkpt lat="43.4638417" lon="10.760605"><ele>84.0</ele><time>2026-04-04T09:19:03.329Z</time></trkpt><trkpt lat="43.4636583" lon="10.7606"><ele>85.0</ele><time>2026-04-04T09:19:04.328Z</time></trkpt><trkpt lat="43.463485" lon="10.7605783"><ele>86.0</ele><time>2026-04-04T09:19:05.328Z</time></trkpt><trkpt lat="43.4633183" lon="10.76057"><ele>86.0</ele><time>2026-04-04T09:19:06.328Z</time></trkpt><trkpt lat="43.46314" lon="10.7605683"><ele>86.0</ele><time>2026-04-04T09:19:07.328Z</time></trkpt><trkpt lat="43.46295" lon="10.760575"><ele>86.0</ele><time>2026-04-04T09:19:08.328Z</time></trkpt><trkpt lat="43.4627567" lon="10.7606283"><ele>86.66666666666667</ele><time>2026-04-04T09:19:09.328Z</time></trkpt><trkpt lat="43.4625683" lon="10.76069"><ele>87.33333333333333</ele><time>2026-04-04T09:19:10.328Z</time></trkpt><trkpt lat="43.4623967" lon="10.76074"><ele>88.0</ele><time>2026-04-04T09:19:11.328Z</time></trkpt><trkpt lat="43.4622367" lon="10.7607733"><ele>88.0</ele><time>2026-04-04T09:19:12.328Z</time></trkpt><trkpt lat="43.4620817" lon="10.7607783"><ele>88.0</ele><time>2026-04-04T09:19:13.329Z</time></trkpt><trkpt lat="43.4619183" lon="10.76076"><ele>88.0</ele><time>2026-04-04T09:19:14.329Z</time></trkpt><trkpt lat="43.4617667" lon="10.7607067"><ele>88.0</ele><time>2026-04-04T09:19:15.328Z</time></trkpt><trkpt lat="43.461605" lon="10.7606117"><ele>88.0</ele><time>2026-04-04T09:19:16.328Z</time></trkpt><trkpt lat="43.4614417" lon="10.7604883"><ele>88.0</ele><time>2026-04-04T09:19:17.329Z</time></trkpt><trkpt lat="43.4612667" lon="10.7603517"><ele>87.0</ele><time>2026-04-04T09:19:18.328Z</time></trkpt><trkpt lat="43.4610933" lon="10.7602283"><ele>86.0</ele><time>2026-04-04T09:19:19.328Z</time></trkpt><trkpt lat="43.460935" lon="10.7601067"><ele>85.0</ele><time>2026-04-04T09:19:20.329Z</time></trkpt><trkpt lat="43.4607633" lon="10.7599867"><ele>86.0</ele><time>2026-04-04T09:19:21.328Z</time></trkpt><trkpt lat="43.4605983" lon="10.7598783"><ele>87.0</ele><time>2026-04-04T09:19:22.328Z</time></trkpt><trkpt lat="43.460435" lon="10.7597667"><ele>88.0</ele><time>2026-04-04T09:19:23.328Z</time></trkpt><trkpt lat="43.4602817" lon="10.759655"><ele>88.0</ele><time>2026-04-04T09:19:24.328Z</time></trkpt><trkpt lat="43.4601317" lon="10.75956"><ele>88.0</ele><time>2026-04-04T09:19:25.329Z</time></trkpt><trkpt lat="43.460015" lon="10.7594833"><ele>88.0</ele><time>2026-04-04T09:19:26.328Z</time></trkpt><trkpt lat="43.4598783" lon="10.7594383"><ele>88.0</ele><time>2026-04-04T09:19:27.328Z</time></trkpt><trkpt lat="43.45974" lon="10.7594467"><ele>87.0</ele><time>2026-04-04T09:19:28.328Z</time></trkpt><trkpt lat="43.4596" lon="10.7595233"><ele>86.0</ele><time>2026-04-04T09:19:29.329Z</time></trkpt><trkpt lat="43.4594683" lon="10.7596383"><ele>85.0</ele><time>2026-04-04T09:19:30.328Z</time></trkpt><trkpt lat="43.4593283" lon="10.7597833"><ele>85.0</ele><time>2026-04-04T09:19:31.329Z</time></trkpt><trkpt lat="43.4592283" lon="10.7599867"><ele>85.0</ele><time>2026-04-04T09:19:32.328Z</time></trkpt><trkpt lat="43.4591417" lon="10.76024"><ele>85.0</ele><time>2026-04-04T09:19:33.328Z</time></trkpt><trkpt lat="43.4590617" lon="10.7605217"><ele>85.0</ele><time>2026-04-04T09:19:34.328Z</time></trkpt><trkpt lat="43.458975" lon="10.7607767"><ele>85.0</ele><time>2026-04-04T09:19:35.328Z</time></trkpt><trkpt lat="43.458855" lon="10.7610067"><ele>85.0</ele><time>2026-04-04T09:19:36.328Z</time></trkpt><trkpt lat="43.458775" lon="10.76125"><ele>86.33333333333333</ele><time>2026-04-04T09:19:37.328Z</time></trkpt><trkpt lat="43.4586883" lon="10.7614633"><ele>87.66666666666667</ele><time>2026-04-04T09:19:38.328Z</time></trkpt><trkpt lat="43.4586117" lon="10.761675"><ele>89.0</ele><time>2026-04-04T09:19:39.328Z</time></trkpt><trkpt lat="43.458545" lon="10.7618733"><ele>89.66666666666667</ele><time>2026-04-04T09:19:40.328Z</time></trkpt><trkpt lat="43.4584933" lon="10.7621033"><ele>90.33333333333333</ele><time>2026-04-04T09:19:41.328Z</time></trkpt><trkpt lat="43.458465" lon="10.76232"><ele>91.0</ele><time>2026-04-04T09:19:42.328Z</time></trkpt><trkpt lat="43.458445" lon="10.7625567"><ele>90.66666666666666</ele><time>2026-04-04T09:19:43.328Z</time></trkpt><trkpt lat="43.45845" lon="10.7628033"><ele>90.33333333333333</ele><time>2026-04-04T09:19:44.329Z</time></trkpt><trkpt lat="43.4584533" lon="10.7630283"><ele>90.0</ele><time>2026-04-04T09:19:45.328Z</time></trkpt><trkpt lat="43.4584483" lon="10.7632383"><ele>90.0</ele><time>2026-04-04T09:19:46.329Z</time></trkpt><trkpt lat="43.45843" lon="10.7634517"><ele>90.0</ele><time>2026-04-04T09:19:47.328Z</time></trkpt><trkpt lat="43.4583867" lon="10.7636433"><ele>90.0</ele><time>2026-04-04T09:19:48.329Z</time></trkpt><trkpt lat="43.4583033" lon="10.7637933"><ele>90.0</ele><time>2026-04-04T09:19:49.329Z</time></trkpt><trkpt lat="43.45818" lon="10.7639367"><ele>89.66666666666667</ele><time>2026-04-04T09:19:50.328Z</time></trkpt><trkpt lat="43.4580467" lon="10.7640783"><ele>89.33333333333334</ele><time>2026-04-04T09:19:51.328Z</time></trkpt><trkpt lat="43.4579117" lon="10.76423"><ele>89.0</ele><time>2026-04-04T09:19:52.328Z</time></trkpt><trkpt lat="43.45777" lon="10.764385"><ele>89.0</ele><time>2026-04-04T09:19:53.328Z</time></trkpt><trkpt lat="43.4576283" lon="10.7645583"><ele>89.0</ele><time>2026-04-04T09:19:54.329Z</time></trkpt><trkpt lat="43.457465" lon="10.7647267"><ele>89.0</ele><time>2026-04-04T09:19:55.328Z</time></trkpt><trkpt lat="43.4573067" lon="10.764905"><ele>89.0</ele><time>2026-04-04T09:19:56.329Z</time></trkpt><trkpt lat="43.457145" lon="10.7650833"><ele>89.0</ele><time>2026-04-04T09:19:57.328Z</time></trkpt><trkpt lat="43.4569717" lon="10.7652567"><ele>89.0</ele><time>2026-04-04T09:19:58.328Z</time></trkpt><trkpt lat="43.4568117" lon="10.7654333"><ele>89.33333333333334</ele><time>2026-04-04T09:19:59.329Z</time></trkpt><trkpt lat="43.4566583" lon="10.7656083"><ele>89.66666666666667</ele><time>2026-04-04T09:20:00.328Z</time></trkpt><trkpt lat="43.4565033" lon="10.7657817"><ele>90.0</ele><time>2026-04-04T09:20:01.328Z</time></trkpt><trkpt lat="43.456345" lon="10.7659567"><ele>90.66666666666667</ele><time>2026-04-04T09:20:02.328Z</time></trkpt><trkpt lat="43.4561967" lon="10.766125"><ele>91.33333333333334</ele><time>2026-04-04T09:20:03.328Z</time></trkpt><trkpt lat="43.456045" lon="10.7662883"><ele>92.0</ele><time>2026-04-04T09:20:04.328Z</time></trkpt><trkpt lat="43.4559067" lon="10.7664583"><ele>92.0</ele><time>2026-04-04T09:20:05.329Z</time></trkpt><trkpt lat="43.45577" lon="10.7666133"><ele>92.0</ele><time>2026-04-04T09:20:06.328Z</time></trkpt><trkpt lat="43.4556367" lon="10.7667567"><ele>92.0</ele><time>2026-04-04T09:20:07.329Z</time></trkpt><trkpt lat="43.4555083" lon="10.76691"><ele>93.0</ele><time>2026-04-04T09:20:08.328Z</time></trkpt><trkpt lat="43.455385" lon="10.767055"><ele>94.0</ele><time>2026-04-04T09:20:09.328Z</time></trkpt><trkpt lat="43.45526" lon="10.7671983"><ele>95.0</ele><time>2026-04-04T09:20:10.328Z</time></trkpt><trkpt lat="43.4551383" lon="10.7673433"><ele>95.0</ele><time>2026-04-04T09:20:11.329Z</time></trkpt><trkpt lat="43.4550267" lon="10.76749"><ele>95.0</ele><time>2026-04-04T09:20:12.329Z</time></trkpt><trkpt lat="43.4549083" lon="10.7676333"><ele>95.0</ele><time>2026-04-04T09:20:13.329Z</time></trkpt><trkpt lat="43.4547833" lon="10.7677783"><ele>95.33333333333334</ele><time>2026-04-04T09:20:14.328Z</time></trkpt><trkpt lat="43.45465" lon="10.7679217"><ele>95.66666666666667</ele><time>2026-04-04T09:20:15.328Z</time></trkpt><trkpt lat="43.4545133" lon="10.768055"><ele>96.0</ele><time>2026-04-04T09:20:16.328Z</time></trkpt><trkpt lat="43.4543617" lon="10.7681783"><ele>96.0</ele><time>2026-04-04T09:20:17.328Z</time></trkpt><trkpt lat="43.454215" lon="10.7682783"><ele>96.0</ele><time>2026-04-04T09:20:18.329Z</time></trkpt><trkpt lat="43.4540567" lon="10.7683767"><ele>96.0</ele><time>2026-04-04T09:20:19.328Z</time></trkpt><trkpt lat="43.4538817" lon="10.7684633"><ele>96.33333333333334</ele><time>2026-04-04T09:20:20.329Z</time></trkpt><trkpt lat="43.453705" lon="10.7685467"><ele>96.66666666666667</ele><time>2026-04-04T09:20:21.328Z</time></trkpt><trkpt lat="43.4535467" lon="10.7686333"><ele>97.0</ele><time>2026-04-04T09:20:22.328Z</time></trkpt><trkpt lat="43.453395" lon="10.7687117"><ele>97.0</ele><time>2026-04-04T09:20:23.328Z</time></trkpt><trkpt lat="43.4532433" lon="10.7687933"><ele>97.0</ele><time>2026-04-04T09:20:24.329Z</time></trkpt><trkpt lat="43.4531017" lon="10.7688733"><ele>97.0</ele><time>2026-04-04T09:20:25.328Z</time></trkpt><trkpt lat="43.45294" lon="10.7689567"><ele>97.66666666666667</ele><time>2026-04-04T09:20:26.328Z</time></trkpt><trkpt lat="43.4527817" lon="10.7690433"><ele>98.33333333333334</ele><time>2026-04-04T09:20:27.328Z</time></trkpt><trkpt lat="43.4526283" lon="10.7691383"><ele>99.0</ele><time>2026-04-04T09:20:28.329Z</time></trkpt><trkpt lat="43.4524783" lon="10.76923"><ele>99.0</ele><time>2026-04-04T09:20:29.328Z</time></trkpt><trkpt lat="43.4523283" lon="10.7693117"><ele>99.0</ele><time>2026-04-04T09:20:30.328Z</time></trkpt><trkpt lat="43.4521783" lon="10.7694"><ele>99.0</ele><time>2026-04-04T09:20:31.328Z</time></trkpt><trkpt lat="43.452025" lon="10.7694833"><ele>99.0</ele><time>2026-04-04T09:20:32.328Z</time></trkpt><trkpt lat="43.451875" lon="10.7695617"><ele>99.0</ele><time>2026-04-04T09:20:33.329Z</time></trkpt><trkpt lat="43.4517333" lon="10.76965"><ele>99.0</ele><time>2026-04-04T09:20:34.327Z</time></trkpt><trkpt lat="43.4515767" lon="10.7697333"><ele>99.0</ele><time>2026-04-04T09:20:35.327Z</time></trkpt><trkpt lat="43.451425" lon="10.76981"><ele>99.0</ele><time>2026-04-04T09:20:36.327Z</time></trkpt><trkpt lat="43.451265" lon="10.7698833"><ele>99.0</ele><time>2026-04-04T09:20:37.328Z</time></trkpt><trkpt lat="43.45111" lon="10.7699667"><ele>99.33333333333334</ele><time>2026-04-04T09:20:38.327Z</time></trkpt><trkpt lat="43.4509467" lon="10.7700617"><ele>99.66666666666667</ele><time>2026-04-04T09:20:39.327Z</time></trkpt><trkpt lat="43.4507733" lon="10.770155"><ele>100.0</ele><time>2026-04-04T09:20:40.327Z</time></trkpt><trkpt lat="43.4506167" lon="10.77024"><ele>100.0</ele><time>2026-04-04T09:20:41.327Z</time></trkpt><trkpt lat="43.4504633" lon="10.7703283"><ele>100.0</ele><time>2026-04-04T09:20:42.328Z</time></trkpt><trkpt lat="43.4503183" lon="10.7704133"><ele>100.0</ele><time>2026-04-04T09:20:43.327Z</time></trkpt><trkpt lat="43.4501817" lon="10.77051"><ele>100.25</ele><time>2026-04-04T09:20:44.327Z</time></trkpt><trkpt lat="43.45005" lon="10.7705917"><ele>100.5</ele><time>2026-04-04T09:20:45.327Z</time></trkpt><trkpt lat="43.4499483" lon="10.7707033"><ele>100.75</ele><time>2026-04-04T09:20:46.327Z</time></trkpt><trkpt lat="43.4498883" lon="10.7708617"><ele>101.0</ele><time>2026-04-04T09:20:47.327Z</time></trkpt><trkpt lat="43.4498817" lon="10.77105"><ele>100.5</ele><time>2026-04-04T09:20:48.328Z</time></trkpt><trkpt lat="43.449885" lon="10.77126"><ele>100.0</ele><time>2026-04-04T09:20:49.327Z</time></trkpt><trkpt lat="43.4499167" lon="10.7714567"><ele>99.5</ele><time>2026-04-04T09:20:50.327Z</time></trkpt><trkpt lat="43.4499333" lon="10.771655"><ele>99.0</ele><time>2026-04-04T09:20:51.328Z</time></trkpt><trkpt lat="43.449955" lon="10.7718467"><ele>98.75</ele><time>2026-04-04T09:20:52.327Z</time></trkpt><trkpt lat="43.44994" lon="10.7720233"><ele>98.5</ele><time>2026-04-04T09:20:53.327Z</time></trkpt><trkpt lat="43.44989" lon="10.772185"><ele>98.25</ele><time>2026-04-04T09:20:54.328Z</time></trkpt><trkpt lat="43.4497983" lon="10.772295"><ele>98.0</ele><time>2026-04-04T09:20:55.327Z</time></trkpt><trkpt lat="43.4496733" lon="10.7723367"><ele>99.0</ele><time>2026-04-04T09:20:56.327Z</time></trkpt><trkpt lat="43.4495467" lon="10.7723117"><ele>100.0</ele><time>2026-04-04T09:20:57.328Z</time></trkpt><trkpt lat="43.4494133" lon="10.7722617"><ele>101.0</ele><time>2026-04-04T09:20:58.327Z</time></trkpt><trkpt lat="43.4492517" lon="10.77223"><ele>102.0</ele><time>2026-04-04T09:20:59.327Z</time></trkpt><trkpt lat="43.4490933" lon="10.7722133"><ele>102.0</ele><time>2026-04-04T09:21:00.327Z</time></trkpt><trkpt lat="43.4489267" lon="10.7721917"><ele>102.0</ele><time>2026-04-04T09:21:01.327Z</time></trkpt><trkpt lat="43.4487683" lon="10.77216"><ele>102.0</ele><time>2026-04-04T09:21:02.327Z</time></trkpt><trkpt lat="43.448615" lon="10.7721517"><ele>104.33333333333334</ele><time>2026-04-04T09:21:03.327Z</time></trkpt><trkpt lat="43.448435" lon="10.772145"><ele>106.66666666666667</ele><time>2026-04-04T09:21:04.327Z</time></trkpt><trkpt lat="43.4482633" lon="10.7721683"><ele>109.0</ele><time>2026-04-04T09:21:05.327Z</time></trkpt><trkpt lat="43.4480867" lon="10.772205"><ele>109.0</ele><time>2026-04-04T09:21:06.327Z</time></trkpt><trkpt lat="43.447895" lon="10.77224"><ele>109.0</ele><time>2026-04-04T09:21:07.327Z</time></trkpt><trkpt lat="43.4477133" lon="10.77227"><ele>109.0</ele><time>2026-04-04T09:21:08.327Z</time></trkpt><trkpt lat="43.4475367" lon="10.7723017"><ele>109.0</ele><time>2026-04-04T09:21:09.328Z</time></trkpt><trkpt lat="43.44735" lon="10.77234"><ele>109.0</ele><time>2026-04-04T09:21:10.327Z</time></trkpt><trkpt lat="43.4471617" lon="10.7723667"><ele>109.0</ele><time>2026-04-04T09:21:11.327Z</time></trkpt><trkpt lat="43.4469683" lon="10.7724083"><ele>108.66666666666667</ele><time>2026-04-04T09:21:12.327Z</time></trkpt><trkpt lat="43.4467833" lon="10.772445"><ele>108.33333333333334</ele><time>2026-04-04T09:21:13.327Z</time></trkpt><trkpt lat="43.44661" lon="10.77249"><ele>108.0</ele><time>2026-04-04T09:21:14.327Z</time></trkpt><trkpt lat="43.44643" lon="10.77252"><ele>108.33333333333334</ele><time>2026-04-04T09:21:15.327Z</time></trkpt><trkpt lat="43.4462533" lon="10.7725433"><ele>108.66666666666667</ele><time>2026-04-04T09:21:16.327Z</time></trkpt><trkpt lat="43.4460767" lon="10.77256"><ele>109.0</ele><time>2026-04-04T09:21:17.327Z</time></trkpt><trkpt lat="43.4458967" lon="10.7725867"><ele>109.0</ele><time>2026-04-04T09:21:18.327Z</time></trkpt><trkpt lat="43.4457117" lon="10.7726017"><ele>109.0</ele><time>2026-04-04T09:21:19.327Z</time></trkpt><trkpt lat="43.445535" lon="10.7726067"><ele>109.0</ele><time>2026-04-04T09:21:20.328Z</time></trkpt><trkpt lat="43.445365" lon="10.772625"><ele>109.66666666666667</ele><time>2026-04-04T09:21:21.327Z</time></trkpt><trkpt lat="43.4451717" lon="10.772625"><ele>110.33333333333334</ele><time>2026-04-04T09:21:22.327Z</time></trkpt><trkpt lat="43.4449917" lon="10.772635"><ele>111.0</ele><time>2026-04-04T09:21:23.328Z</time></trkpt><trkpt lat="43.4448217" lon="10.7726367"><ele>111.0</ele><time>2026-04-04T09:21:24.327Z</time></trkpt><trkpt lat="43.4446517" lon="10.7726483"><ele>111.0</ele><time>2026-04-04T09:21:25.327Z</time></trkpt><trkpt lat="43.444485" lon="10.77266"><ele>111.0</ele><time>2026-04-04T09:21:26.328Z</time></trkpt><trkpt lat="43.4443283" lon="10.772675"><ele>111.0</ele><time>2026-04-04T09:21:27.327Z</time></trkpt><trkpt lat="43.4441617" lon="10.77268"><ele>111.0</ele><time>2026-04-04T09:21:28.327Z</time></trkpt><trkpt lat="43.4439967" lon="10.77269"><ele>111.0</ele><time>2026-04-04T09:21:29.327Z</time></trkpt><trkpt lat="43.44383" lon="10.7727017"><ele>111.33333333333334</ele><time>2026-04-04T09:21:30.328Z</time></trkpt><trkpt lat="43.4436733" lon="10.7727067"><ele>111.66666666666667</ele><time>2026-04-04T09:21:31.328Z</time></trkpt><trkpt lat="43.4435067" lon="10.7727067"><ele>112.0</ele><time>2026-04-04T09:21:32.328Z</time></trkpt><trkpt lat="43.4433417" lon="10.7726633"><ele>112.66666666666667</ele><time>2026-04-04T09:21:33.327Z</time></trkpt><trkpt lat="43.4431833" lon="10.7726067"><ele>113.33333333333334</ele><time>2026-04-04T09:21:34.327Z</time></trkpt><trkpt lat="43.4430167" lon="10.7725383"><ele>114.0</ele><time>2026-04-04T09:21:35.327Z</time></trkpt><trkpt lat="43.4428483" lon="10.772475"><ele>114.33333333333334</ele><time>2026-04-04T09:21:36.327Z</time></trkpt><trkpt lat="43.4426783" lon="10.7724033"><ele>114.66666666666667</ele><time>2026-04-04T09:21:37.327Z</time></trkpt><trkpt lat="43.4424933" lon="10.772335"><ele>115.0</ele><time>2026-04-04T09:21:38.327Z</time></trkpt><trkpt lat="43.4423233" lon="10.7722667"><ele>115.0</ele><time>2026-04-04T09:21:39.328Z</time></trkpt><trkpt lat="43.4421417" lon="10.77219"><ele>115.0</ele><time>2026-04-04T09:21:40.327Z</time></trkpt><trkpt lat="43.4419783" lon="10.7721167"><ele>115.0</ele><time>2026-04-04T09:21:41.327Z</time></trkpt><trkpt lat="43.4418183" lon="10.772045"><ele>114.33333333333334</ele><time>2026-04-04T09:21:42.327Z</time></trkpt><trkpt lat="43.4416617" lon="10.7719783"><ele>113.66666666666666</ele><time>2026-04-04T09:21:43.328Z</time></trkpt><trkpt lat="43.4415067" lon="10.7719117"><ele>113.0</ele><time>2026-04-04T09:21:44.327Z</time></trkpt><trkpt lat="43.441355" lon="10.7718467"><ele>114.66666666666666</ele><time>2026-04-04T09:21:45.327Z</time></trkpt><trkpt lat="43.4412017" lon="10.771775"><ele>116.33333333333334</ele><time>2026-04-04T09:21:46.328Z</time></trkpt><trkpt lat="43.441045" lon="10.7717083"><ele>118.0</ele><time>2026-04-04T09:21:47.327Z</time></trkpt><trkpt lat="43.44089" lon="10.7716483"><ele>118.0</ele><time>2026-04-04T09:21:48.327Z</time></trkpt><trkpt lat="43.4407183" lon="10.7715783"><ele>118.0</ele><time>2026-04-04T09:21:49.327Z</time></trkpt><trkpt lat="43.440555" lon="10.7714983"><ele>118.0</ele><time>2026-04-04T09:21:50.327Z</time></trkpt><trkpt lat="43.4404017" lon="10.771385"><ele>118.33333333333334</ele><time>2026-04-04T09:21:51.328Z</time></trkpt><trkpt lat="43.4402617" lon="10.7712533"><ele>118.66666666666666</ele><time>2026-04-04T09:21:52.327Z</time></trkpt><trkpt lat="43.44013" lon="10.7710833"><ele>119.0</ele><time>2026-04-04T09:21:53.327Z</time></trkpt><trkpt lat="43.4399967" lon="10.7709083"><ele>119.0</ele><time>2026-04-04T09:21:54.327Z</time></trkpt><trkpt lat="43.439865" lon="10.7707367"><ele>119.0</ele><time>2026-04-04T09:21:55.327Z</time></trkpt><trkpt lat="43.439725" lon="10.7705667"><ele>119.0</ele><time>2026-04-04T09:21:56.327Z</time></trkpt><trkpt lat="43.4395983" lon="10.770395"><ele>119.66666666666666</ele><time>2026-04-04T09:21:57.327Z</time></trkpt><trkpt lat="43.4394733" lon="10.7702267"><ele>120.33333333333334</ele><time>2026-04-04T09:21:58.327Z</time></trkpt><trkpt lat="43.43935" lon="10.77006"><ele>121.0</ele><time>2026-04-04T09:21:59.328Z</time></trkpt><trkpt lat="43.439225" lon="10.76987"><ele>121.0</ele><time>2026-04-04T09:22:00.327Z</time></trkpt><trkpt lat="43.4391" lon="10.7696883"><ele>121.0</ele><time>2026-04-04T09:22:01.327Z</time></trkpt><trkpt lat="43.4389733" lon="10.7695117"><ele>121.0</ele><time>2026-04-04T09:22:02.328Z</time></trkpt><trkpt lat="43.43885" lon="10.769335"><ele>121.66666666666667</ele><time>2026-04-04T09:22:03.328Z</time></trkpt><trkpt lat="43.4387233" lon="10.769165"><ele>122.33333333333334</ele><time>2026-04-04T09:22:04.327Z</time></trkpt><trkpt lat="43.4385967" lon="10.769"><ele>123.0</ele><time>2026-04-04T09:22:05.327Z</time></trkpt><trkpt lat="43.4384783" lon="10.768835"><ele>123.0</ele><time>2026-04-04T09:22:06.327Z</time></trkpt><trkpt lat="43.438355" lon="10.768665"><ele>123.0</ele><time>2026-04-04T09:22:07.327Z</time></trkpt><trkpt lat="43.4382283" lon="10.76851"><ele>123.0</ele><time>2026-04-04T09:22:08.327Z</time></trkpt><trkpt lat="43.4380983" lon="10.7683583"><ele>123.66666666666666</ele><time>2026-04-04T09:22:09.327Z</time></trkpt><trkpt lat="43.4379817" lon="10.7681983"><ele>124.33333333333333</ele><time>2026-04-04T09:22:10.327Z</time></trkpt><trkpt lat="43.4378667" lon="10.76803"><ele>125.0</ele><time>2026-04-04T09:22:11.328Z</time></trkpt><trkpt lat="43.4377417" lon="10.7678817"><ele>125.0</ele><time>2026-04-04T09:22:12.327Z</time></trkpt><trkpt lat="43.4376167" lon="10.7677133"><ele>125.0</ele><time>2026-04-04T09:22:13.327Z</time></trkpt><trkpt lat="43.4374933" lon="10.76755"><ele>125.0</ele><time>2026-04-04T09:22:14.327Z</time></trkpt><trkpt lat="43.4373733" lon="10.7674017"><ele>124.66666666666666</ele><time>2026-04-04T09:22:15.327Z</time></trkpt><trkpt lat="43.4372417" lon="10.7672267"><ele>124.33333333333334</ele><time>2026-04-04T09:22:16.327Z</time></trkpt><trkpt lat="43.437125" lon="10.7670667"><ele>124.0</ele><time>2026-04-04T09:22:17.327Z</time></trkpt><trkpt lat="43.4370117" lon="10.7668867"><ele>124.66666666666667</ele><time>2026-04-04T09:22:18.327Z</time></trkpt><trkpt lat="43.436905" lon="10.7666983"><ele>125.33333333333334</ele><time>2026-04-04T09:22:19.327Z</time></trkpt><trkpt lat="43.4368167" lon="10.7664933"><ele>126.0</ele><time>2026-04-04T09:22:20.327Z</time></trkpt><trkpt lat="43.4367367" lon="10.7662733"><ele>126.0</ele><time>2026-04-04T09:22:21.328Z</time></trkpt><trkpt lat="43.4366633" lon="10.7660433"><ele>126.0</ele><time>2026-04-04T09:22:22.327Z</time></trkpt><trkpt lat="43.4365833" lon="10.7657967"><ele>126.0</ele><time>2026-04-04T09:22:23.328Z</time></trkpt><trkpt lat="43.43649" lon="10.7655517"><ele>125.66666666666666</ele><time>2026-04-04T09:22:24.327Z</time></trkpt><trkpt lat="43.4364017" lon="10.76531"><ele>125.33333333333333</ele><time>2026-04-04T09:22:25.328Z</time></trkpt><trkpt lat="43.43631" lon="10.7650767"><ele>125.0</ele><time>2026-04-04T09:22:26.327Z</time></trkpt><trkpt lat="43.436215" lon="10.7648267"><ele>127.0</ele><time>2026-04-04T09:22:27.327Z</time></trkpt><trkpt lat="43.4361167" lon="10.764585"><ele>129.0</ele><time>2026-04-04T09:22:28.327Z</time></trkpt><trkpt lat="43.4360183" lon="10.76434"><ele>131.0</ele><time>2026-04-04T09:22:29.328Z</time></trkpt><trkpt lat="43.4359267" lon="10.7641017"><ele>131.0</ele><time>2026-04-04T09:22:30.327Z</time></trkpt><trkpt lat="43.43582" lon="10.7638817"><ele>131.0</ele><time>2026-04-04T09:22:31.327Z</time></trkpt><trkpt lat="43.4357283" lon="10.7636433"><ele>131.0</ele><time>2026-04-04T09:22:32.327Z</time></trkpt><trkpt lat="43.4356383" lon="10.7634117"><ele>130.33333333333331</ele><time>2026-04-04T09:22:33.328Z</time></trkpt><trkpt lat="43.435555" lon="10.7631783"><ele>129.66666666666666</ele><time>2026-04-04T09:22:34.327Z</time></trkpt><trkpt lat="43.4354717" lon="10.76294"><ele>129.0</ele><time>2026-04-04T09:22:35.328Z</time></trkpt><trkpt lat="43.4353767" lon="10.7627"><ele>130.33333333333334</ele><time>2026-04-04T09:22:36.327Z</time></trkpt><trkpt lat="43.4352833" lon="10.7624533"><ele>131.66666666666669</ele><time>2026-04-04T09:22:37.327Z</time></trkpt><trkpt lat="43.4351933" lon="10.7622067"><ele>133.0</ele><time>2026-04-04T09:22:38.327Z</time></trkpt><trkpt lat="43.4351083" lon="10.76196"><ele>132.66666666666669</ele><time>2026-04-04T09:22:39.327Z</time></trkpt><trkpt lat="43.4350183" lon="10.7617233"><ele>132.33333333333334</ele><time>2026-04-04T09:22:40.327Z</time></trkpt><trkpt lat="43.4349333" lon="10.7615"><ele>132.0</ele><time>2026-04-04T09:22:41.325Z</time></trkpt><trkpt lat="43.43484" lon="10.7612667"><ele>131.66666666666666</ele><time>2026-04-04T09:22:42.328Z</time></trkpt><trkpt lat="43.4347433" lon="10.7610317"><ele>131.33333333333331</ele><time>2026-04-04T09:22:43.327Z</time></trkpt><trkpt lat="43.434635" lon="10.760835"><ele>131.0</ele><time>2026-04-04T09:22:44.327Z</time></trkpt><trkpt lat="43.4345167" lon="10.7606517"><ele>132.0</ele><time>2026-04-04T09:22:45.328Z</time></trkpt><trkpt lat="43.4343783" lon="10.7604833"><ele>133.0</ele><time>2026-04-04T09:22:46.328Z</time></trkpt><trkpt lat="43.4342317" lon="10.7603217"><ele>134.0</ele><time>2026-04-04T09:22:47.328Z</time></trkpt><trkpt lat="43.43408" lon="10.7601567"><ele>134.0</ele><time>2026-04-04T09:22:48.327Z</time></trkpt><trkpt lat="43.4339417" lon="10.7599967"><ele>134.0</ele><time>2026-04-04T09:22:49.327Z</time></trkpt><trkpt lat="43.433805" lon="10.7598467"><ele>134.0</ele><time>2026-04-04T09:22:50.327Z</time></trkpt><trkpt lat="43.4336783" lon="10.7597217"><ele>136.0</ele><time>2026-04-04T09:22:51.327Z</time></trkpt><trkpt lat="43.4335483" lon="10.7596283"><ele>138.0</ele><time>2026-04-04T09:22:52.327Z</time></trkpt><trkpt lat="43.4333817" lon="10.7595467"><ele>140.0</ele><time>2026-04-04T09:22:53.328Z</time></trkpt><trkpt lat="43.4332267" lon="10.7594833"><ele>140.0</ele><time>2026-04-04T09:22:54.327Z</time></trkpt><trkpt lat="43.43307" lon="10.7594133"><ele>140.0</ele><time>2026-04-04T09:22:55.327Z</time></trkpt><trkpt lat="43.4328883" lon="10.7593617"><ele>140.0</ele><time>2026-04-04T09:22:56.327Z</time></trkpt><trkpt lat="43.4327117" lon="10.75932"><ele>139.5</ele><time>2026-04-04T09:22:57.327Z</time></trkpt><trkpt lat="43.43256" lon="10.7592983"><ele>139.0</ele><time>2026-04-04T09:22:58.327Z</time></trkpt><trkpt lat="43.4324217" lon="10.7592783"><ele>138.5</ele><time>2026-04-04T09:22:59.327Z</time></trkpt><trkpt lat="43.4322867" lon="10.7592683"><ele>138.0</ele><time>2026-04-04T09:23:00.328Z</time></trkpt><trkpt lat="43.43218" lon="10.7592733"><ele>138.83333333333334</ele><time>2026-04-04T09:23:01.327Z</time></trkpt><trkpt lat="43.432095" lon="10.75929"><ele>139.66666666666666</ele><time>2026-04-04T09:23:02.327Z</time></trkpt><trkpt lat="43.4320167" lon="10.759305"><ele>140.5</ele><time>2026-04-04T09:23:03.327Z</time></trkpt><trkpt lat="43.431955" lon="10.7593317"><ele>141.33333333333331</ele><time>2026-04-04T09:23:04.327Z</time></trkpt><trkpt lat="43.431855" lon="10.7593667"><ele>142.16666666666666</ele><time>2026-04-04T09:23:06.327Z</time></trkpt><trkpt lat="43.431785" lon="10.7593867"><ele>143.0</ele><time>2026-04-04T09:23:07.327Z</time></trkpt><trkpt lat="43.431695" lon="10.7594133"><ele>144.5</ele><time>2026-04-04T09:23:08.327Z</time></trkpt><trkpt lat="43.4315967" lon="10.7594467"><ele>146.0</ele><time>2026-04-04T09:23:09.327Z</time></trkpt><trkpt lat="43.431485" lon="10.7594683"><ele>147.5</ele><time>2026-04-04T09:23:10.327Z</time></trkpt><trkpt lat="43.4313567" lon="10.7594917"><ele>149.0</ele><time>2026-04-04T09:23:11.327Z</time></trkpt><trkpt lat="43.4312317" lon="10.7595267"><ele>149.0</ele><time>2026-04-04T09:23:12.327Z</time></trkpt><trkpt lat="43.4311017" lon="10.7595733"><ele>149.0</ele><time>2026-04-04T09:23:13.328Z</time></trkpt><trkpt lat="43.43096" lon="10.7596167"><ele>149.0</ele><time>2026-04-04T09:23:14.327Z</time></trkpt><trkpt lat="43.4308117" lon="10.759665"><ele>149.0</ele><time>2026-04-04T09:23:15.328Z</time></trkpt><trkpt lat="43.4306583" lon="10.7597133"><ele>149.0</ele><time>2026-04-04T09:23:16.328Z</time></trkpt><trkpt lat="43.4305083" lon="10.7597617"><ele>149.0</ele><time>2026-04-04T09:23:17.327Z</time></trkpt><trkpt lat="43.4303317" lon="10.759785"><ele>149.0</ele><time>2026-04-04T09:23:18.327Z</time></trkpt><trkpt lat="43.4301967" lon="10.7597717"><ele>148.5</ele><time>2026-04-04T09:23:19.327Z</time></trkpt><trkpt lat="43.43006" lon="10.759735"><ele>148.0</ele><time>2026-04-04T09:23:20.328Z</time></trkpt><trkpt lat="43.4299233" lon="10.75968"><ele>147.5</ele><time>2026-04-04T09:23:21.328Z</time></trkpt><trkpt lat="43.4297917" lon="10.759615"><ele>147.0</ele><time>2026-04-04T09:23:22.327Z</time></trkpt><trkpt lat="43.4296567" lon="10.759555"><ele>148.25</ele><time>2026-04-04T09:23:23.327Z</time></trkpt><trkpt lat="43.4295083" lon="10.759505"><ele>149.5</ele><time>2026-04-04T09:23:24.327Z</time></trkpt><trkpt lat="43.42937" lon="10.7594883"><ele>150.75</ele><time>2026-04-04T09:23:25.327Z</time></trkpt><trkpt lat="43.4292217" lon="10.7595133"><ele>152.0</ele><time>2026-04-04T09:23:26.327Z</time></trkpt><trkpt lat="43.4290733" lon="10.7595933"><ele>152.0</ele><time>2026-04-04T09:23:27.328Z</time></trkpt><trkpt lat="43.428925" lon="10.7597"><ele>152.0</ele><time>2026-04-04T09:23:28.327Z</time></trkpt><trkpt lat="43.4288133" lon="10.7598383"><ele>152.0</ele><time>2026-04-04T09:23:29.328Z</time></trkpt><trkpt lat="43.4286983" lon="10.7599733"><ele>154.0</ele><time>2026-04-04T09:23:30.327Z</time></trkpt><trkpt lat="43.4285667" lon="10.7600983"><ele>156.0</ele><time>2026-04-04T09:23:31.327Z</time></trkpt><trkpt lat="43.4284383" lon="10.7602"><ele>158.0</ele><time>2026-04-04T09:23:32.327Z</time></trkpt><trkpt lat="43.4283033" lon="10.7602683"><ele>158.0</ele><time>2026-04-04T09:23:33.327Z</time></trkpt><trkpt lat="43.42818" lon="10.7603133"><ele>158.0</ele><time>2026-04-04T09:23:34.327Z</time></trkpt><trkpt lat="43.4280433" lon="10.76038"><ele>158.0</ele><time>2026-04-04T09:23:35.328Z</time></trkpt><trkpt lat="43.427935" lon="10.7605283"><ele>158.0</ele><time>2026-04-04T09:23:36.327Z</time></trkpt><trkpt lat="43.42786" lon="10.7607117"><ele>156.33333333333331</ele><time>2026-04-04T09:23:37.327Z</time></trkpt><trkpt lat="43.4277633" lon="10.7609167"><ele>154.66666666666666</ele><time>2026-04-04T09:23:38.327Z</time></trkpt><trkpt lat="43.4276717" lon="10.7611217"><ele>153.0</ele><time>2026-04-04T09:23:39.327Z</time></trkpt><trkpt lat="43.42758" lon="10.76131"><ele>153.0</ele><time>2026-04-04T09:23:40.327Z</time></trkpt><trkpt lat="43.427505" lon="10.7614933"><ele>153.0</ele><time>2026-04-04T09:23:41.328Z</time></trkpt><trkpt lat="43.4274617" lon="10.7616867"><ele>153.0</ele><time>2026-04-04T09:23:42.327Z</time></trkpt><trkpt lat="43.42743" lon="10.76189"><ele>153.25</ele><time>2026-04-04T09:23:43.328Z</time></trkpt><trkpt lat="43.4274367" lon="10.762095"><ele>153.5</ele><time>2026-04-04T09:23:44.327Z</time></trkpt><trkpt lat="43.4274617" lon="10.7622767"><ele>153.75</ele><time>2026-04-04T09:23:45.327Z</time></trkpt><trkpt lat="43.42749" lon="10.76244"><ele>154.0</ele><time>2026-04-04T09:23:46.328Z</time></trkpt><trkpt lat="43.42749" lon="10.76259"><ele>154.75</ele><time>2026-04-04T09:23:47.327Z</time></trkpt><trkpt lat="43.4274617" lon="10.7627433"><ele>155.5</ele><time>2026-04-04T09:23:48.327Z</time></trkpt><trkpt lat="43.4273833" lon="10.762875"><ele>156.25</ele><time>2026-04-04T09:23:49.327Z</time></trkpt><trkpt lat="43.4272617" lon="10.76298"><ele>157.0</ele><time>2026-04-04T09:23:50.327Z</time></trkpt><trkpt lat="43.4271217" lon="10.7630317"><ele>154.0</ele><time>2026-04-04T09:23:51.328Z</time></trkpt><trkpt lat="43.4269717" lon="10.7630933"><ele>151.0</ele><time>2026-04-04T09:23:52.327Z</time></trkpt><trkpt lat="43.4268417" lon="10.76317"><ele>148.0</ele><time>2026-04-04T09:23:53.327Z</time></trkpt><trkpt lat="43.4267233" lon="10.763265"><ele>145.0</ele><time>2026-04-04T09:23:54.327Z</time></trkpt><trkpt lat="43.4266417" lon="10.7634233"><ele>145.75</ele><time>2026-04-04T09:23:55.327Z</time></trkpt><trkpt lat="43.4266133" lon="10.7636033"><ele>146.5</ele><time>2026-04-04T09:23:56.327Z</time></trkpt><trkpt lat="43.4265917" lon="10.7637917"><ele>147.25</ele><time>2026-04-04T09:23:57.327Z</time></trkpt><trkpt lat="43.4265717" lon="10.7639633"><ele>148.0</ele><time>2026-04-04T09:23:58.327Z</time></trkpt><trkpt lat="43.4265133" lon="10.7641083"><ele>148.0</ele><time>2026-04-04T09:23:59.327Z</time></trkpt><trkpt lat="43.4264383" lon="10.764225"><ele>148.0</ele><time>2026-04-04T09:24:00.328Z</time></trkpt><trkpt lat="43.42633" lon="10.76431"><ele>148.0</ele><time>2026-04-04T09:24:01.327Z</time></trkpt><trkpt lat="43.4262333" lon="10.764405"><ele>148.0</ele><time>2026-04-04T09:24:02.327Z</time></trkpt><trkpt lat="43.4261683" lon="10.7645467"><ele>145.0</ele><time>2026-04-04T09:24:03.327Z</time></trkpt><trkpt lat="43.42613" lon="10.764695"><ele>142.0</ele><time>2026-04-04T09:24:04.328Z</time></trkpt><trkpt lat="43.426125" lon="10.764875"><ele>139.0</ele><time>2026-04-04T09:24:05.327Z</time></trkpt><trkpt lat="43.4261083" lon="10.765085"><ele>136.0</ele><time>2026-04-04T09:24:06.328Z</time></trkpt><trkpt lat="43.426095" lon="10.7652783"><ele>136.0</ele><time>2026-04-04T09:24:07.327Z</time></trkpt><trkpt lat="43.426035" lon="10.765465"><ele>136.0</ele><time>2026-04-04T09:24:08.327Z</time></trkpt><trkpt lat="43.4259333" lon="10.7656217"><ele>136.0</ele><time>2026-04-04T09:24:09.327Z</time></trkpt><trkpt lat="43.4258033" lon="10.7657783"><ele>136.0</ele><time>2026-04-04T09:24:10.327Z</time></trkpt><trkpt lat="43.4257" lon="10.7659533"><ele>136.0</ele><time>2026-04-04T09:24:11.327Z</time></trkpt><trkpt lat="43.42559" lon="10.76615"><ele>136.0</ele><time>2026-04-04T09:24:12.328Z</time></trkpt><trkpt lat="43.4255017" lon="10.7663683"><ele>133.66666666666669</ele><time>2026-04-04T09:24:13.327Z</time></trkpt><trkpt lat="43.4254133" lon="10.7665733"><ele>131.33333333333334</ele><time>2026-04-04T09:24:14.327Z</time></trkpt><trkpt lat="43.4253267" lon="10.7667883"><ele>129.0</ele><time>2026-04-04T09:24:15.327Z</time></trkpt><trkpt lat="43.4252467" lon="10.76701"><ele>129.0</ele><time>2026-04-04T09:24:16.328Z</time></trkpt><trkpt lat="43.4251783" lon="10.7672183"><ele>129.0</ele><time>2026-04-04T09:24:17.328Z</time></trkpt><trkpt lat="43.4251167" lon="10.7674233"><ele>129.0</ele><time>2026-04-04T09:24:18.327Z</time></trkpt><trkpt lat="43.425035" lon="10.7676083"><ele>127.66666666666666</ele><time>2026-04-04T09:24:19.327Z</time></trkpt><trkpt lat="43.4249233" lon="10.76778"><ele>126.33333333333333</ele><time>2026-04-04T09:24:20.327Z</time></trkpt><trkpt lat="43.4247967" lon="10.7679317"><ele>125.0</ele><time>2026-04-04T09:24:21.327Z</time></trkpt><trkpt lat="43.4246583" lon="10.76808"><ele>125.0</ele><time>2026-04-04T09:24:22.327Z</time></trkpt><trkpt lat="43.42453" lon="10.7682333"><ele>125.0</ele><time>2026-04-04T09:24:23.327Z</time></trkpt><trkpt lat="43.4244033" lon="10.7683833"><ele>125.0</ele><time>2026-04-04T09:24:24.327Z</time></trkpt><trkpt lat="43.4242833" lon="10.7685417"><ele>124.0</ele><time>2026-04-04T09:24:25.328Z</time></trkpt><trkpt lat="43.4241733" lon="10.7687033"><ele>123.0</ele><time>2026-04-04T09:24:26.328Z</time></trkpt><trkpt lat="43.4240683" lon="10.7688367"><ele>122.0</ele><time>2026-04-04T09:24:27.327Z</time></trkpt><trkpt lat="43.4240083" lon="10.7689917"><ele>121.0</ele><time>2026-04-04T09:24:28.328Z</time></trkpt><trkpt lat="43.4239383" lon="10.7691167"><ele>121.0</ele><time>2026-04-04T09:24:29.327Z</time></trkpt><trkpt lat="43.4239017" lon="10.7692517"><ele>121.0</ele><time>2026-04-04T09:24:30.327Z</time></trkpt><trkpt lat="43.4239117" lon="10.7694"><ele>121.0</ele><time>2026-04-04T09:24:31.327Z</time></trkpt><trkpt lat="43.4239733" lon="10.769565"><ele>121.0</ele><time>2026-04-04T09:24:32.327Z</time></trkpt><trkpt lat="43.4240583" lon="10.769725"><ele>121.5</ele><time>2026-04-04T09:24:33.327Z</time></trkpt><trkpt lat="43.4241417" lon="10.7698783"><ele>122.0</ele><time>2026-04-04T09:24:34.327Z</time></trkpt><trkpt lat="43.424205" lon="10.7700417"><ele>122.5</ele><time>2026-04-04T09:24:35.327Z</time></trkpt><trkpt lat="43.4242633" lon="10.770215"><ele>123.0</ele><time>2026-04-04T09:24:36.327Z</time></trkpt><trkpt lat="43.4242883" lon="10.7703983"><ele>123.5</ele><time>2026-04-04T09:24:37.328Z</time></trkpt><trkpt lat="43.4243117" lon="10.77062"><ele>124.0</ele><time>2026-04-04T09:24:38.327Z</time></trkpt><trkpt lat="43.424265" lon="10.7707917"><ele>124.5</ele><time>2026-04-04T09:24:39.327Z</time></trkpt><trkpt lat="43.4241667" lon="10.7709433"><ele>125.0</ele><time>2026-04-04T09:24:40.327Z</time></trkpt><trkpt lat="43.424055" lon="10.771095"><ele>125.0</ele><time>2026-04-04T09:24:41.327Z</time></trkpt><trkpt lat="43.423955" lon="10.77126"><ele>125.0</ele><time>2026-04-04T09:24:42.327Z</time></trkpt><trkpt lat="43.42386" lon="10.77139"><ele>125.0</ele><time>2026-04-04T09:24:43.328Z</time></trkpt><trkpt lat="43.4237733" lon="10.7715317"><ele>125.0</ele><time>2026-04-04T09:24:44.328Z</time></trkpt><trkpt lat="43.423685" lon="10.7716367"><ele>124.8</ele><time>2026-04-04T09:24:45.328Z</time></trkpt><trkpt lat="43.423595" lon="10.771715"><ele>124.6</ele><time>2026-04-04T09:24:46.327Z</time></trkpt><trkpt lat="43.42352" lon="10.7717733"><ele>124.4</ele><time>2026-04-04T09:24:47.328Z</time></trkpt><trkpt lat="43.42345" lon="10.7718317"><ele>124.2</ele><time>2026-04-04T09:24:48.327Z</time></trkpt><trkpt lat="43.4233783" lon="10.7719"><ele>124.0</ele><time>2026-04-04T09:24:49.328Z</time></trkpt><trkpt lat="43.4233117" lon="10.77198"><ele>124.0</ele><time>2026-04-04T09:24:50.327Z</time></trkpt><trkpt lat="43.4232617" lon="10.772085"><ele>124.0</ele><time>2026-04-04T09:24:51.327Z</time></trkpt><trkpt lat="43.4232417" lon="10.772225"><ele>124.0</ele><time>2026-04-04T09:24:52.327Z</time></trkpt><trkpt lat="43.4232567" lon="10.7723917"><ele>124.0</ele><time>2026-04-04T09:24:53.327Z</time></trkpt><trkpt lat="43.42328" lon="10.7725483"><ele>124.0</ele><time>2026-04-04T09:24:54.327Z</time></trkpt><trkpt lat="43.4232883" lon="10.7727083"><ele>124.0</ele><time>2026-04-04T09:24:55.327Z</time></trkpt><trkpt lat="43.4232617" lon="10.7728733"><ele>124.0</ele><time>2026-04-04T09:24:56.327Z</time></trkpt><trkpt lat="43.4231933" lon="10.7730067"><ele>124.0</ele><time>2026-04-04T09:24:57.327Z</time></trkpt><trkpt lat="43.4231167" lon="10.7731217"><ele>124.0</ele><time>2026-04-04T09:24:58.328Z</time></trkpt><trkpt lat="43.4230333" lon="10.7732183"><ele>124.0</ele><time>2026-04-04T09:24:59.327Z</time></trkpt><trkpt lat="43.422945" lon="10.7733133"><ele>124.0</ele><time>2026-04-04T09:25:00.327Z</time></trkpt><trkpt lat="43.422865" lon="10.7734033"><ele>124.0</ele><time>2026-04-04T09:25:01.328Z</time></trkpt><trkpt lat="43.42279" lon="10.7734867"><ele>124.0</ele><time>2026-04-04T09:25:02.327Z</time></trkpt><trkpt lat="43.4227117" lon="10.7735667"><ele>124.0</ele><time>2026-04-04T09:25:03.328Z</time></trkpt><trkpt lat="43.4226267" lon="10.7736467"><ele>124.4</ele><time>2026-04-04T09:25:04.328Z</time></trkpt><trkpt lat="43.4225417" lon="10.77373"><ele>124.80000000000001</ele><time>2026-04-04T09:25:05.327Z</time></trkpt><trkpt lat="43.4224567" lon="10.773815"><ele>125.19999999999999</ele><time>2026-04-04T09:25:06.327Z</time></trkpt><trkpt lat="43.42236" lon="10.7739017"><ele>125.6</ele><time>2026-04-04T09:25:07.327Z</time></trkpt><trkpt lat="43.4222567" lon="10.773985"><ele>126.0</ele><time>2026-04-04T09:25:08.327Z</time></trkpt><trkpt lat="43.4221417" lon="10.774045"><ele>126.75</ele><time>2026-04-04T09:25:09.327Z</time></trkpt><trkpt lat="43.4220083" lon="10.7740783"><ele>127.5</ele><time>2026-04-04T09:25:10.327Z</time></trkpt><trkpt lat="43.421875" lon="10.7740867"><ele>128.25</ele><time>2026-04-04T09:25:11.327Z</time></trkpt><trkpt lat="43.421755" lon="10.7740733"><ele>129.0</ele><time>2026-04-04T09:25:12.328Z</time></trkpt><trkpt lat="43.42164" lon="10.7740517"><ele>129.0</ele><time>2026-04-04T09:25:13.327Z</time></trkpt><trkpt lat="43.4215183" lon="10.774015"><ele>129.0</ele><time>2026-04-04T09:25:14.327Z</time></trkpt><trkpt lat="43.421395" lon="10.77399"><ele>129.0</ele><time>2026-04-04T09:25:15.328Z</time></trkpt><trkpt lat="43.42128" lon="10.7739633"><ele>129.0</ele><time>2026-04-04T09:25:16.327Z</time></trkpt><trkpt lat="43.4211617" lon="10.7739367"><ele>129.4</ele><time>2026-04-04T09:25:17.328Z</time></trkpt><trkpt lat="43.4210567" lon="10.773915"><ele>129.8</ele><time>2026-04-04T09:25:18.327Z</time></trkpt><trkpt lat="43.4209467" lon="10.7738783"><ele>130.2</ele><time>2026-04-04T09:25:19.328Z</time></trkpt><trkpt lat="43.420845" lon="10.7738583"><ele>130.6</ele><time>2026-04-04T09:25:20.328Z</time></trkpt><trkpt lat="43.42074" lon="10.7738317"><ele>131.0</ele><time>2026-04-04T09:25:21.327Z</time></trkpt><trkpt lat="43.4206467" lon="10.77381"><ele>131.0</ele><time>2026-04-04T09:25:22.327Z</time></trkpt><trkpt lat="43.4205667" lon="10.773785"><ele>131.0</ele><time>2026-04-04T09:25:23.327Z</time></trkpt><trkpt lat="43.4204983" lon="10.7737617"><ele>131.0</ele><time>2026-04-04T09:25:24.327Z</time></trkpt><trkpt lat="43.4203917" lon="10.7737183"><ele>131.0</ele><time>2026-04-04T09:25:26.327Z</time></trkpt><trkpt lat="43.42033" lon="10.7736917"><ele>131.0</ele><time>2026-04-04T09:25:28.327Z</time></trkpt><trkpt lat="43.4202583" lon="10.7736833"><ele>131.0</ele><time>2026-04-04T09:25:33.327Z</time></trkpt><trkpt lat="43.4203267" lon="10.7737483"><ele>131.0</ele><time>2026-04-04T09:26:10.327Z</time></trkpt><trkpt lat="43.42039" lon="10.7737567"><ele>131.0</ele><time>2026-04-04T09:26:11.327Z</time></trkpt><trkpt lat="43.42048" lon="10.7737817"><ele>131.0</ele><time>2026-04-04T09:26:12.327Z</time></trkpt><trkpt lat="43.42061" lon="10.7738417"><ele>131.0</ele><time>2026-04-04T09:26:13.327Z</time></trkpt><trkpt lat="43.4207367" lon="10.7738883"><ele>131.0</ele><time>2026-04-04T09:26:14.327Z</time></trkpt><trkpt lat="43.4208767" lon="10.7739267"><ele>131.0</ele><time>2026-04-04T09:26:15.327Z</time></trkpt><trkpt lat="43.42102" lon="10.7739583"><ele>131.0</ele><time>2026-04-04T09:26:16.327Z</time></trkpt><trkpt lat="43.4211683" lon="10.77399"><ele>131.0</ele><time>2026-04-04T09:26:17.327Z</time></trkpt><trkpt lat="43.4213133" lon="10.7740133"><ele>131.0</ele><time>2026-04-04T09:26:18.327Z</time></trkpt><trkpt lat="43.42144" lon="10.7740283"><ele>130.6</ele><time>2026-04-04T09:26:19.327Z</time></trkpt><trkpt lat="43.4215517" lon="10.77404"><ele>130.2</ele><time>2026-04-04T09:26:20.327Z</time></trkpt><trkpt lat="43.421655" lon="10.77406"><ele>129.8</ele><time>2026-04-04T09:26:21.327Z</time></trkpt><trkpt lat="43.421755" lon="10.774075"><ele>129.4</ele><time>2026-04-04T09:26:22.327Z</time></trkpt><trkpt lat="43.4218483" lon="10.7740833"><ele>129.0</ele><time>2026-04-04T09:26:23.328Z</time></trkpt><trkpt lat="43.4219183" lon="10.7740867"><ele>129.0</ele><time>2026-04-04T09:26:24.327Z</time></trkpt><trkpt lat="43.4220333" lon="10.7740967"><ele>129.0</ele><time>2026-04-04T09:26:26.327Z</time></trkpt><trkpt lat="43.422105" lon="10.77411"><ele>129.0</ele><time>2026-04-04T09:26:28.327Z</time></trkpt><trkpt lat="43.4221683" lon="10.77417"><ele>129.0</ele><time>2026-04-04T09:26:39.327Z</time></trkpt><trkpt lat="43.4221967" lon="10.774275"><ele>129.0</ele><time>2026-04-04T09:26:41.327Z</time></trkpt><trkpt lat="43.4222583" lon="10.774445"><ele>129.0</ele><time>2026-04-04T09:26:43.327Z</time></trkpt><trkpt lat="43.4222983" lon="10.7745633"><ele>129.0</ele><time>2026-04-04T09:26:44.328Z</time></trkpt><trkpt lat="43.422345" lon="10.7746933"><ele>129.0</ele><time>2026-04-04T09:26:45.327Z</time></trkpt><trkpt lat="43.4223883" lon="10.7748117"><ele>129.0</ele><time>2026-04-04T09:26:46.327Z</time></trkpt><trkpt lat="43.4224333" lon="10.7749383"><ele>129.0</ele><time>2026-04-04T09:26:47.328Z</time></trkpt><trkpt lat="43.422475" lon="10.7750533"><ele>129.0</ele><time>2026-04-04T09:26:48.327Z</time></trkpt><trkpt lat="43.422505" lon="10.77516"><ele>129.0</ele><time>2026-04-04T09:26:49.327Z</time></trkpt><trkpt lat="43.4225417" lon="10.77527"><ele>129.0</ele><time>2026-04-04T09:26:50.327Z</time></trkpt><trkpt lat="43.4225783" lon="10.7753767"><ele>129.0</ele><time>2026-04-04T09:26:51.327Z</time></trkpt><trkpt lat="43.422615" lon="10.775485"><ele>129.0</ele><time>2026-04-04T09:26:52.328Z</time></trkpt><trkpt lat="43.4226583" lon="10.7755983"><ele>129.0</ele><time>2026-04-04T09:26:53.327Z</time></trkpt><trkpt lat="43.4226983" lon="10.7757117"><ele>129.33333333333334</ele><time>2026-04-04T09:26:54.327Z</time></trkpt><trkpt lat="43.4227367" lon="10.775825"><ele>129.66666666666666</ele><time>2026-04-04T09:26:55.327Z</time></trkpt><trkpt lat="43.42278" lon="10.7759367"><ele>130.0</ele><time>2026-04-04T09:26:56.327Z</time></trkpt><trkpt lat="43.4228233" lon="10.7760433"><ele>130.33333333333331</ele><time>2026-04-04T09:26:57.328Z</time></trkpt><trkpt lat="43.42286" lon="10.776135"><ele>130.66666666666666</ele><time>2026-04-04T09:26:58.327Z</time></trkpt><trkpt lat="43.422895" lon="10.7762133"><ele>131.0</ele><time>2026-04-04T09:26:59.327Z</time></trkpt><trkpt lat="43.4229533" lon="10.77628"><ele>131.16666666666666</ele><time>2026-04-04T09:27:00.327Z</time></trkpt><trkpt lat="43.4230183" lon="10.7763233"><ele>131.33333333333331</ele><time>2026-04-04T09:27:01.327Z</time></trkpt><trkpt lat="43.4231033" lon="10.77637"><ele>131.5</ele><time>2026-04-04T09:27:02.327Z</time></trkpt><trkpt lat="43.4231933" lon="10.7763933"><ele>131.66666666666666</ele><time>2026-04-04T09:27:03.327Z</time></trkpt><trkpt lat="43.4232867" lon="10.776405"><ele>131.83333333333334</ele><time>2026-04-04T09:27:04.327Z</time></trkpt><trkpt lat="43.4233817" lon="10.7764067"><ele>132.0</ele><time>2026-04-04T09:27:05.326Z</time></trkpt><trkpt lat="43.4234733" lon="10.7764117"><ele>132.0</ele><time>2026-04-04T09:27:06.326Z</time></trkpt><trkpt lat="43.4235667" lon="10.77641"><ele>132.0</ele><time>2026-04-04T09:27:07.327Z</time></trkpt><trkpt lat="43.4236483" lon="10.776385"><ele>132.0</ele><time>2026-04-04T09:27:08.326Z</time></trkpt><trkpt lat="43.4237233" lon="10.7763517"><ele>132.0</ele><time>2026-04-04T09:27:09.326Z</time></trkpt><trkpt lat="43.423795" lon="10.7763133"><ele>132.0</ele><time>2026-04-04T09:27:10.326Z</time></trkpt><trkpt lat="43.4238583" lon="10.776275"><ele>132.0</ele><time>2026-04-04T09:27:11.326Z</time></trkpt><trkpt lat="43.4239267" lon="10.7762283"><ele>133.28571428571428</ele><time>2026-04-04T09:27:12.326Z</time></trkpt><trkpt lat="43.4239917" lon="10.77619"><ele>134.57142857142858</ele><time>2026-04-04T09:27:13.326Z</time></trkpt><trkpt lat="43.4240617" lon="10.77614"><ele>135.85714285714286</ele><time>2026-04-04T09:27:14.327Z</time></trkpt><trkpt lat="43.4241283" lon="10.7760883"><ele>137.14285714285714</ele><time>2026-04-04T09:27:15.327Z</time></trkpt><trkpt lat="43.4241883" lon="10.776035"><ele>138.42857142857142</ele><time>2026-04-04T09:27:16.326Z</time></trkpt><trkpt lat="43.4242483" lon="10.7759717"><ele>139.71428571428572</ele><time>2026-04-04T09:27:17.326Z</time></trkpt><trkpt lat="43.4242883" lon="10.7758883"><ele>141.0</ele><time>2026-04-04T09:27:18.326Z</time></trkpt><trkpt lat="43.42431" lon="10.7757967"><ele>141.0</ele><time>2026-04-04T09:27:19.326Z</time></trkpt><trkpt lat="43.4243333" lon="10.7756933"><ele>141.0</ele><time>2026-04-04T09:27:20.326Z</time></trkpt><trkpt lat="43.4243617" lon="10.7755783"><ele>141.0</ele><time>2026-04-04T09:27:21.327Z</time></trkpt><trkpt lat="43.4243867" lon="10.77546"><ele>141.0</ele><time>2026-04-04T09:27:22.326Z</time></trkpt><trkpt lat="43.4244133" lon="10.7753467"><ele>141.0</ele><time>2026-04-04T09:27:23.326Z</time></trkpt><trkpt lat="43.4244583" lon="10.775235"><ele>141.0</ele><time>2026-04-04T09:27:24.327Z</time></trkpt><trkpt lat="43.4244933" lon="10.7751383"><ele>140.33333333333334</ele><time>2026-04-04T09:27:25.327Z</time></trkpt><trkpt lat="43.4245233" lon="10.7750567"><ele>139.66666666666666</ele><time>2026-04-04T09:27:26.326Z</time></trkpt><trkpt lat="43.4245917" lon="10.7749183"><ele>139.0</ele><time>2026-04-04T09:27:28.327Z</time></trkpt><trkpt lat="43.424635" lon="10.7748533"><ele>138.33333333333331</ele><time>2026-04-04T09:27:29.326Z</time></trkpt><trkpt lat="43.4246817" lon="10.774785"><ele>137.66666666666666</ele><time>2026-04-04T09:27:30.327Z</time></trkpt><trkpt lat="43.424735" lon="10.774715"><ele>137.0</ele><time>2026-04-04T09:27:31.326Z</time></trkpt><trkpt lat="43.4247867" lon="10.7746533"><ele>139.0</ele><time>2026-04-04T09:27:32.326Z</time></trkpt><trkpt lat="43.4249" lon="10.7745933"><ele>141.0</ele><time>2026-04-04T09:27:34.326Z</time></trkpt><trkpt lat="43.4249683" lon="10.774605"><ele>143.0</ele><time>2026-04-04T09:27:35.326Z</time></trkpt><trkpt lat="43.425025" lon="10.7746467"><ele>145.0</ele><time>2026-04-04T09:27:36.326Z</time></trkpt><trkpt lat="43.4250717" lon="10.77471"><ele>147.0</ele><time>2026-04-04T09:27:37.326Z</time></trkpt><trkpt lat="43.4251083" lon="10.7748733"><ele>149.0</ele><time>2026-04-04T09:27:39.326Z</time></trkpt><trkpt lat="43.42512" lon="10.7749717"><ele>149.0</ele><time>2026-04-04T09:27:40.327Z</time></trkpt><trkpt lat="43.42513" lon="10.77507"><ele>149.0</ele><time>2026-04-04T09:27:41.326Z</time></trkpt><trkpt lat="43.4251383" lon="10.7751783"><ele>149.0</ele><time>2026-04-04T09:27:42.326Z</time></trkpt><trkpt lat="43.4251383" lon="10.7753"><ele>149.0</ele><time>2026-04-04T09:27:43.326Z</time></trkpt><trkpt lat="43.4251417" lon="10.7754233"><ele>149.0</ele><time>2026-04-04T09:27:44.326Z</time></trkpt><trkpt lat="43.425145" lon="10.775535"><ele>149.0</ele><time>2026-04-04T09:27:45.327Z</time></trkpt><trkpt lat="43.4251467" lon="10.7756367"><ele>150.0</ele><time>2026-04-04T09:27:46.326Z</time></trkpt><trkpt lat="43.4251517" lon="10.77573"><ele>151.0</ele><time>2026-04-04T09:27:47.326Z</time></trkpt><trkpt lat="43.4251633" lon="10.7758233"><ele>152.0</ele><time>2026-04-04T09:27:48.326Z</time></trkpt><trkpt lat="43.4251717" lon="10.7759367"><ele>153.0</ele><time>2026-04-04T09:27:49.326Z</time></trkpt><trkpt lat="43.425185" lon="10.7760383"><ele>154.0</ele><time>2026-04-04T09:27:50.326Z</time></trkpt><trkpt lat="43.4251917" lon="10.7761367"><ele>155.0</ele><time>2026-04-04T09:27:51.326Z</time></trkpt><trkpt lat="43.42518" lon="10.77625"><ele>156.0</ele><time>2026-04-04T09:27:52.326Z</time></trkpt><trkpt lat="43.42516" lon="10.7763617"><ele>157.33333333333334</ele><time>2026-04-04T09:27:53.326Z</time></trkpt><trkpt lat="43.4251367" lon="10.7764583"><ele>158.66666666666666</ele><time>2026-04-04T09:27:54.326Z</time></trkpt><trkpt lat="43.4251033" lon="10.776555"><ele>160.0</ele><time>2026-04-04T09:27:55.326Z</time></trkpt><trkpt lat="43.4250617" lon="10.776645"><ele>161.33333333333331</ele><time>2026-04-04T09:27:56.326Z</time></trkpt><trkpt lat="43.4250167" lon="10.7767367"><ele>162.66666666666666</ele><time>2026-04-04T09:27:57.326Z</time></trkpt><trkpt lat="43.4249633" lon="10.7768233"><ele>164.0</ele><time>2026-04-04T09:27:58.326Z</time></trkpt><trkpt lat="43.4249183" lon="10.7769183"><ele>165.16666666666666</ele><time>2026-04-04T09:27:59.326Z</time></trkpt><trkpt lat="43.424875" lon="10.7770167"><ele>166.33333333333331</ele><time>2026-04-04T09:28:00.326Z</time></trkpt><trkpt lat="43.4248317" lon="10.777115"><ele>167.5</ele><time>2026-04-04T09:28:01.326Z</time></trkpt><trkpt lat="43.4247933" lon="10.7772133"><ele>168.66666666666666</ele><time>2026-04-04T09:28:02.326Z</time></trkpt><trkpt lat="43.4247567" lon="10.7773133"><ele>169.83333333333334</ele><time>2026-04-04T09:28:03.326Z</time></trkpt><trkpt lat="43.42473" lon="10.7774217"><ele>171.0</ele><time>2026-04-04T09:28:04.326Z</time></trkpt><trkpt lat="43.4247067" lon="10.7775383"><ele>171.0</ele><time>2026-04-04T09:28:05.326Z</time></trkpt><trkpt lat="43.4246867" lon="10.77766"><ele>171.0</ele><time>2026-04-04T09:28:06.326Z</time></trkpt><trkpt lat="43.4246683" lon="10.7777867"><ele>171.0</ele><time>2026-04-04T09:28:07.326Z</time></trkpt><trkpt lat="43.4246583" lon="10.7779067"><ele>171.0</ele><time>2026-04-04T09:28:08.327Z</time></trkpt><trkpt lat="43.42465" lon="10.778035"><ele>171.0</ele><time>2026-04-04T09:28:09.326Z</time></trkpt><trkpt lat="43.4246533" lon="10.7781583"><ele>172.0</ele><time>2026-04-04T09:28:10.326Z</time></trkpt><trkpt lat="43.4246583" lon="10.778285"><ele>173.0</ele><time>2026-04-04T09:28:11.326Z</time></trkpt><trkpt lat="43.424675" lon="10.7784117"><ele>174.0</ele><time>2026-04-04T09:28:12.326Z</time></trkpt><trkpt lat="43.4247133" lon="10.7785083"><ele>175.0</ele><time>2026-04-04T09:28:13.327Z</time></trkpt><trkpt lat="43.42476" lon="10.7786117"><ele>176.0</ele><time>2026-04-04T09:28:14.326Z</time></trkpt><trkpt lat="43.4248183" lon="10.778705"><ele>177.0</ele><time>2026-04-04T09:28:15.327Z</time></trkpt><trkpt lat="43.42487" lon="10.7788033"><ele>177.0</ele><time>2026-04-04T09:28:16.326Z</time></trkpt><trkpt lat="43.42492" lon="10.7789083"><ele>177.0</ele><time>2026-04-04T09:28:17.326Z</time></trkpt><trkpt lat="43.4249733" lon="10.77901"><ele>177.0</ele><time>2026-04-04T09:28:18.326Z</time></trkpt><trkpt lat="43.4250233" lon="10.7791"><ele>177.0</ele><time>2026-04-04T09:28:19.326Z</time></trkpt><trkpt lat="43.4250833" lon="10.7792117"><ele>177.0</ele><time>2026-04-04T09:28:20.326Z</time></trkpt><trkpt lat="43.4251433" lon="10.779315"><ele>175.6</ele><time>2026-04-04T09:28:21.327Z</time></trkpt><trkpt lat="43.4251917" lon="10.7794217"><ele>174.2</ele><time>2026-04-04T09:28:22.327Z</time></trkpt><trkpt lat="43.4252517" lon="10.779525"><ele>172.8</ele><time>2026-04-04T09:28:23.326Z</time></trkpt><trkpt lat="43.4253133" lon="10.7796317"><ele>171.4</ele><time>2026-04-04T09:28:24.327Z</time></trkpt><trkpt lat="43.425385" lon="10.7797233"><ele>170.0</ele><time>2026-04-04T09:28:25.326Z</time></trkpt><trkpt lat="43.4254517" lon="10.77979"><ele>173.0</ele><time>2026-04-04T09:28:26.326Z</time></trkpt><trkpt lat="43.4255167" lon="10.77986"><ele>176.0</ele><time>2026-04-04T09:28:27.327Z</time></trkpt><trkpt lat="43.4255917" lon="10.7799333"><ele>179.0</ele><time>2026-04-04T09:28:28.327Z</time></trkpt><trkpt lat="43.42566" lon="10.7800033"><ele>182.0</ele><time>2026-04-04T09:28:29.326Z</time></trkpt><trkpt lat="43.4257283" lon="10.7800633"><ele>185.0</ele><time>2026-04-04T09:28:30.327Z</time></trkpt><trkpt lat="43.4258" lon="10.7801083"><ele>188.0</ele><time>2026-04-04T09:28:31.326Z</time></trkpt><trkpt lat="43.4258767" lon="10.7801717"><ele>187.66666666666666</ele><time>2026-04-04T09:28:32.327Z</time></trkpt><trkpt lat="43.425955" lon="10.780215"><ele>187.33333333333331</ele><time>2026-04-04T09:28:33.326Z</time></trkpt><trkpt lat="43.42603" lon="10.7802617"><ele>187.0</ele><time>2026-04-04T09:28:34.326Z</time></trkpt><trkpt lat="43.426105" lon="10.7803"><ele>186.66666666666666</ele><time>2026-04-04T09:28:35.326Z</time></trkpt><trkpt lat="43.42618" lon="10.780325"><ele>186.33333333333334</ele><time>2026-04-04T09:28:36.327Z</time></trkpt><trkpt lat="43.426265" lon="10.78035"><ele>186.0</ele><time>2026-04-04T09:28:37.326Z</time></trkpt><trkpt lat="43.4263567" lon="10.7803633"><ele>186.0</ele><time>2026-04-04T09:28:38.327Z</time></trkpt><trkpt lat="43.4264483" lon="10.780375"><ele>186.0</ele><time>2026-04-04T09:28:39.326Z</time></trkpt><trkpt lat="43.4265317" lon="10.780395"><ele>186.0</ele><time>2026-04-04T09:28:40.326Z</time></trkpt><trkpt lat="43.4266167" lon="10.78041"><ele>186.0</ele><time>2026-04-04T09:28:41.326Z</time></trkpt><trkpt lat="43.4266983" lon="10.7804233"><ele>186.0</ele><time>2026-04-04T09:28:42.326Z</time></trkpt><trkpt lat="43.4267717" lon="10.78047"><ele>186.0</ele><time>2026-04-04T09:28:43.326Z</time></trkpt><trkpt lat="43.4268467" lon="10.78052"><ele>186.0</ele><time>2026-04-04T09:28:44.326Z</time></trkpt><trkpt lat="43.4269133" lon="10.780575"><ele>186.0</ele><time>2026-04-04T09:28:45.326Z</time></trkpt><trkpt lat="43.4269717" lon="10.7806367"><ele>186.0</ele><time>2026-04-04T09:28:46.326Z</time></trkpt><trkpt lat="43.4270183" lon="10.7807067"><ele>186.0</ele><time>2026-04-04T09:28:47.327Z</time></trkpt><trkpt lat="43.427095" lon="10.7808433"><ele>186.0</ele><time>2026-04-04T09:28:49.326Z</time></trkpt><trkpt lat="43.42717" lon="10.7809783"><ele>187.16666666666666</ele><time>2026-04-04T09:28:51.326Z</time></trkpt><trkpt lat="43.4272067" lon="10.7810633"><ele>188.33333333333331</ele><time>2026-04-04T09:28:52.326Z</time></trkpt><trkpt lat="43.4272567" lon="10.78115"><ele>189.5</ele><time>2026-04-04T09:28:53.326Z</time></trkpt><trkpt lat="43.4273017" lon="10.7812383"><ele>190.66666666666666</ele><time>2026-04-04T09:28:54.327Z</time></trkpt><trkpt lat="43.4273533" lon="10.7813283"><ele>191.83333333333331</ele><time>2026-04-04T09:28:55.326Z</time></trkpt><trkpt lat="43.4274117" lon="10.7814117"><ele>193.0</ele><time>2026-04-04T09:28:56.326Z</time></trkpt><trkpt lat="43.4274683" lon="10.78149"><ele>192.99999999999997</ele><time>2026-04-04T09:28:57.326Z</time></trkpt><trkpt lat="43.4275233" lon="10.7815667"><ele>193.0</ele><time>2026-04-04T09:28:58.326Z</time></trkpt><trkpt lat="43.4275783" lon="10.7816467"><ele>193.0</ele><time>2026-04-04T09:28:59.327Z</time></trkpt><trkpt lat="43.4276383" lon="10.7817383"><ele>193.0</ele><time>2026-04-04T09:29:00.327Z</time></trkpt><trkpt lat="43.4276983" lon="10.7818367"><ele>192.99999999999997</ele><time>2026-04-04T09:29:01.326Z</time></trkpt><trkpt lat="43.4277683" lon="10.7819383"><ele>193.0</ele><time>2026-04-04T09:29:02.326Z</time></trkpt><trkpt lat="43.4278433" lon="10.782045"><ele>194.4</ele><time>2026-04-04T09:29:03.326Z</time></trkpt><trkpt lat="43.42792" lon="10.7821517"><ele>195.8</ele><time>2026-04-04T09:29:04.326Z</time></trkpt><trkpt lat="43.4279883" lon="10.782255"><ele>197.2</ele><time>2026-04-04T09:29:05.326Z</time></trkpt><trkpt lat="43.4280583" lon="10.7823767"><ele>198.6</ele><time>2026-04-04T09:29:06.326Z</time></trkpt><trkpt lat="43.4281317" lon="10.782505"><ele>200.0</ele><time>2026-04-04T09:29:07.327Z</time></trkpt><trkpt lat="43.4281983" lon="10.7826367"><ele>200.2</ele><time>2026-04-04T09:29:08.327Z</time></trkpt><trkpt lat="43.4282667" lon="10.782765"><ele>200.4</ele><time>2026-04-04T09:29:09.327Z</time></trkpt><trkpt lat="43.4283267" lon="10.7829017"><ele>200.60000000000002</ele><time>2026-04-04T09:29:10.326Z</time></trkpt><trkpt lat="43.4283717" lon="10.7830317"><ele>200.8</ele><time>2026-04-04T09:29:11.326Z</time></trkpt><trkpt lat="43.42841" lon="10.7831617"><ele>201.0</ele><time>2026-04-04T09:29:12.327Z</time></trkpt><trkpt lat="43.4284433" lon="10.7832967"><ele>201.0</ele><time>2026-04-04T09:29:13.326Z</time></trkpt><trkpt lat="43.4284817" lon="10.783435"><ele>201.0</ele><time>2026-04-04T09:29:14.326Z</time></trkpt><trkpt lat="43.4285083" lon="10.7835733"><ele>201.0</ele><time>2026-04-04T09:29:15.326Z</time></trkpt><trkpt lat="43.4285267" lon="10.7837033"><ele>201.0</ele><time>2026-04-04T09:29:16.327Z</time></trkpt><trkpt lat="43.4285467" lon="10.783825"><ele>201.0</ele><time>2026-04-04T09:29:17.326Z</time></trkpt><trkpt lat="43.4285633" lon="10.7839433"><ele>199.4</ele><time>2026-04-04T09:29:18.326Z</time></trkpt><trkpt lat="43.4285783" lon="10.784065"><ele>197.8</ele><time>2026-04-04T09:29:19.327Z</time></trkpt><trkpt lat="43.4286" lon="10.7841983"><ele>196.20000000000002</ele><time>2026-04-04T09:29:20.326Z</time></trkpt><trkpt lat="43.4286233" lon="10.7843267"><ele>194.60000000000002</ele><time>2026-04-04T09:29:21.326Z</time></trkpt><trkpt lat="43.4286467" lon="10.7844733"><ele>193.0</ele><time>2026-04-04T09:29:22.326Z</time></trkpt><trkpt lat="43.42867" lon="10.784625"><ele>193.60000000000002</ele><time>2026-04-04T09:29:23.326Z</time></trkpt><trkpt lat="43.4286867" lon="10.7847683"><ele>194.20000000000002</ele><time>2026-04-04T09:29:24.327Z</time></trkpt><trkpt lat="43.4287133" lon="10.78491"><ele>194.8</ele><time>2026-04-04T09:29:25.326Z</time></trkpt><trkpt lat="43.4287333" lon="10.7850417"><ele>195.4</ele><time>2026-04-04T09:29:26.326Z</time></trkpt><trkpt lat="43.4287333" lon="10.7851633"><ele>196.0</ele><time>2026-04-04T09:29:27.326Z</time></trkpt><trkpt lat="43.428745" lon="10.7852917"><ele>196.0</ele><time>2026-04-04T09:29:28.326Z</time></trkpt><trkpt lat="43.4287333" lon="10.7854283"><ele>196.0</ele><time>2026-04-04T09:29:29.327Z</time></trkpt><trkpt lat="43.42871" lon="10.7855583"><ele>196.0</ele><time>2026-04-04T09:29:30.326Z</time></trkpt><trkpt lat="43.4286717" lon="10.78569"><ele>196.0</ele><time>2026-04-04T09:29:31.326Z</time></trkpt><trkpt lat="43.4286217" lon="10.7858083"><ele>196.0</ele><time>2026-04-04T09:29:32.326Z</time></trkpt><trkpt lat="43.4285667" lon="10.7859367"><ele>198.20000000000002</ele><time>2026-04-04T09:29:33.327Z</time></trkpt><trkpt lat="43.4285" lon="10.78606"><ele>200.4</ele><time>2026-04-04T09:29:34.326Z</time></trkpt><trkpt lat="43.4284333" lon="10.78618"><ele>202.6</ele><time>2026-04-04T09:29:35.326Z</time></trkpt><trkpt lat="43.428355" lon="10.7863017"><ele>204.8</ele><time>2026-04-04T09:29:36.326Z</time></trkpt><trkpt lat="43.4282883" lon="10.7864067"><ele>207.0</ele><time>2026-04-04T09:29:37.326Z</time></trkpt><trkpt lat="43.428225" lon="10.786505"><ele>207.0</ele><time>2026-04-04T09:29:38.326Z</time></trkpt><trkpt lat="43.4281667" lon="10.7865833"><ele>207.0</ele><time>2026-04-04T09:29:39.327Z</time></trkpt><trkpt lat="43.428095" lon="10.7866683"><ele>207.0</ele><time>2026-04-04T09:29:40.327Z</time></trkpt><trkpt lat="43.4280267" lon="10.7867517"><ele>207.0</ele><time>2026-04-04T09:29:41.326Z</time></trkpt><trkpt lat="43.4279567" lon="10.78683"><ele>207.0</ele><time>2026-04-04T09:29:42.326Z</time></trkpt><trkpt lat="43.4278817" lon="10.7869067"><ele>206.0</ele><time>2026-04-04T09:29:43.326Z</time></trkpt><trkpt lat="43.4278" lon="10.7869817"><ele>205.0</ele><time>2026-04-04T09:29:44.326Z</time></trkpt><trkpt lat="43.4277217" lon="10.787065"><ele>204.0</ele><time>2026-04-04T09:29:45.326Z</time></trkpt><trkpt lat="43.4276483" lon="10.7871533"><ele>203.0</ele><time>2026-04-04T09:29:46.326Z</time></trkpt><trkpt lat="43.4275833" lon="10.7872317"><ele>202.0</ele><time>2026-04-04T09:29:47.326Z</time></trkpt><trkpt lat="43.42752" lon="10.78731"><ele>202.0</ele><time>2026-04-04T09:29:48.326Z</time></trkpt><trkpt lat="43.4274567" lon="10.7873983"><ele>202.0</ele><time>2026-04-04T09:29:49.326Z</time></trkpt><trkpt lat="43.4273883" lon="10.7874967"><ele>202.0</ele><time>2026-04-04T09:29:50.326Z</time></trkpt><trkpt lat="43.427325" lon="10.7875983"><ele>202.0</ele><time>2026-04-04T09:29:51.327Z</time></trkpt><trkpt lat="43.427265" lon="10.7877117"><ele>202.0</ele><time>2026-04-04T09:29:52.326Z</time></trkpt><trkpt lat="43.4272067" lon="10.7878183"><ele>201.6</ele><time>2026-04-04T09:29:53.326Z</time></trkpt><trkpt lat="43.4271433" lon="10.787925"><ele>201.2</ele><time>2026-04-04T09:29:54.326Z</time></trkpt><trkpt lat="43.4270867" lon="10.7880283"><ele>200.8</ele><time>2026-04-04T09:29:55.326Z</time></trkpt><trkpt lat="43.42703" lon="10.78813"><ele>200.4</ele><time>2026-04-04T09:29:56.326Z</time></trkpt><trkpt lat="43.42698" lon="10.7882317"><ele>200.0</ele><time>2026-04-04T09:29:57.327Z</time></trkpt><trkpt lat="43.4269367" lon="10.7883333"><ele>200.00000000000003</ele><time>2026-04-04T09:29:58.326Z</time></trkpt><trkpt lat="43.4268983" lon="10.78844"><ele>200.0</ele><time>2026-04-04T09:29:59.326Z</time></trkpt><trkpt lat="43.4268783" lon="10.7885533"><ele>200.0</ele><time>2026-04-04T09:30:00.326Z</time></trkpt><trkpt lat="43.4268567" lon="10.7886683"><ele>200.0</ele><time>2026-04-04T09:30:01.326Z</time></trkpt><trkpt lat="43.4268417" lon="10.7887833"><ele>200.00000000000003</ele><time>2026-04-04T09:30:02.326Z</time></trkpt><trkpt lat="43.4268333" lon="10.7888983"><ele>200.0</ele><time>2026-04-04T09:30:03.327Z</time></trkpt><trkpt lat="43.4268283" lon="10.78901"><ele>198.50000000000003</ele><time>2026-04-04T09:30:04.326Z</time></trkpt><trkpt lat="43.42683" lon="10.7891217"><ele>197.0</ele><time>2026-04-04T09:30:05.326Z</time></trkpt><trkpt lat="43.4268233" lon="10.7892283"><ele>195.5</ele><time>2026-04-04T09:30:06.326Z</time></trkpt><trkpt lat="43.426825" lon="10.7893433"><ele>194.0</ele><time>2026-04-04T09:30:07.326Z</time></trkpt><trkpt lat="43.4268233" lon="10.7894533"><ele>192.5</ele><time>2026-04-04T09:30:08.326Z</time></trkpt><trkpt lat="43.4268217" lon="10.7895733"><ele>191.0</ele><time>2026-04-04T09:30:09.326Z</time></trkpt><trkpt lat="43.4268233" lon="10.7896917"><ele>190.5</ele><time>2026-04-04T09:30:10.327Z</time></trkpt><trkpt lat="43.4268217" lon="10.7898033"><ele>190.0</ele><time>2026-04-04T09:30:11.327Z</time></trkpt><trkpt lat="43.426825" lon="10.789915"><ele>189.5</ele><time>2026-04-04T09:30:12.326Z</time></trkpt><trkpt lat="43.4268317" lon="10.79002"><ele>189.0</ele><time>2026-04-04T09:30:13.326Z</time></trkpt><trkpt lat="43.426835" lon="10.790125"><ele>188.5</ele><time>2026-04-04T09:30:14.326Z</time></trkpt><trkpt lat="43.4268367" lon="10.7902267"><ele>188.0</ele><time>2026-04-04T09:30:15.326Z</time></trkpt><trkpt lat="43.426835" lon="10.7903233"><ele>187.57142857142856</ele><time>2026-04-04T09:30:16.326Z</time></trkpt><trkpt lat="43.42683" lon="10.7904233"><ele>187.14285714285714</ele><time>2026-04-04T09:30:17.327Z</time></trkpt><trkpt lat="43.4268317" lon="10.7905167"><ele>186.71428571428572</ele><time>2026-04-04T09:30:18.326Z</time></trkpt><trkpt lat="43.426835" lon="10.7906117"><ele>186.28571428571428</ele><time>2026-04-04T09:30:19.326Z</time></trkpt><trkpt lat="43.4268283" lon="10.7907"><ele>185.85714285714286</ele><time>2026-04-04T09:30:20.327Z</time></trkpt><trkpt lat="43.42682" lon="10.7907883"><ele>185.42857142857142</ele><time>2026-04-04T09:30:21.326Z</time></trkpt><trkpt lat="43.4268167" lon="10.79089"><ele>185.0</ele><time>2026-04-04T09:30:22.326Z</time></trkpt><trkpt lat="43.426815" lon="10.79098"><ele>184.7142857142857</ele><time>2026-04-04T09:30:23.327Z</time></trkpt><trkpt lat="43.4268133" lon="10.79107"><ele>184.42857142857142</ele><time>2026-04-04T09:30:24.326Z</time></trkpt><trkpt lat="43.42681" lon="10.7911617"><ele>184.14285714285714</ele><time>2026-04-04T09:30:25.327Z</time></trkpt><trkpt lat="43.4268067" lon="10.7912533"><ele>183.85714285714283</ele><time>2026-04-04T09:30:26.326Z</time></trkpt><trkpt lat="43.4268083" lon="10.7913483"><ele>183.57142857142858</ele><time>2026-04-04T09:30:27.326Z</time></trkpt><trkpt lat="43.4268033" lon="10.7914383"><ele>183.28571428571428</ele><time>2026-04-04T09:30:28.326Z</time></trkpt><trkpt lat="43.4268" lon="10.7915733"><ele>183.0</ele><time>2026-04-04T09:30:30.327Z</time></trkpt><trkpt lat="43.4268033" lon="10.79173"><ele>181.8</ele><time>2026-04-04T09:30:32.327Z</time></trkpt><trkpt lat="43.4267933" lon="10.79189"><ele>180.60000000000002</ele><time>2026-04-04T09:30:34.326Z</time></trkpt><trkpt lat="43.4267867" lon="10.7920433"><ele>179.39999999999998</ele><time>2026-04-04T09:30:36.326Z</time></trkpt><trkpt lat="43.426775" lon="10.792155"><ele>178.2</ele><time>2026-04-04T09:30:38.327Z</time></trkpt><trkpt lat="43.4267717" lon="10.7922783"><ele>177.0</ele><time>2026-04-04T09:30:55.326Z</time></trkpt><trkpt lat="43.4267817" lon="10.7924467"><ele>177.0</ele><time>2026-04-04T09:30:57.326Z</time></trkpt><trkpt lat="43.4267983" lon="10.7925583"><ele>177.0</ele><time>2026-04-04T09:30:58.326Z</time></trkpt><trkpt lat="43.4267867" lon="10.79273"><ele>177.0</ele><time>2026-04-04T09:30:59.327Z</time></trkpt><trkpt lat="43.42677" lon="10.7929317"><ele>177.0</ele><time>2026-04-04T09:31:00.326Z</time></trkpt><trkpt lat="43.4267667" lon="10.7931033"><ele>175.75</ele><time>2026-04-04T09:31:01.326Z</time></trkpt><trkpt lat="43.4267567" lon="10.7932667"><ele>174.5</ele><time>2026-04-04T09:31:02.327Z</time></trkpt><trkpt lat="43.4267383" lon="10.7934517"><ele>173.25</ele><time>2026-04-04T09:31:03.326Z</time></trkpt><trkpt lat="43.4267367" lon="10.7936283"><ele>172.0</ele><time>2026-04-04T09:31:04.326Z</time></trkpt><trkpt lat="43.4267283" lon="10.793795"><ele>171.25</ele><time>2026-04-04T09:31:05.326Z</time></trkpt><trkpt lat="43.42672" lon="10.7939467"><ele>170.5</ele><time>2026-04-04T09:31:06.326Z</time></trkpt><trkpt lat="43.42671" lon="10.7941"><ele>169.75</ele><time>2026-04-04T09:31:07.326Z</time></trkpt><trkpt lat="43.4266933" lon="10.79426"><ele>169.0</ele><time>2026-04-04T09:31:08.326Z</time></trkpt><trkpt lat="43.4266867" lon="10.7944283"><ele>168.6</ele><time>2026-04-04T09:31:09.326Z</time></trkpt><trkpt lat="43.4267033" lon="10.7945783"><ele>168.2</ele><time>2026-04-04T09:31:10.326Z</time></trkpt><trkpt lat="43.4267383" lon="10.7947517"><ele>167.79999999999998</ele><time>2026-04-04T09:31:11.327Z</time></trkpt><trkpt lat="43.4267733" lon="10.794895"><ele>167.39999999999998</ele><time>2026-04-04T09:31:12.327Z</time></trkpt><trkpt lat="43.42681" lon="10.7950183"><ele>167.0</ele><time>2026-04-04T09:31:13.326Z</time></trkpt><trkpt lat="43.4268667" lon="10.7951467"><ele>167.39999999999998</ele><time>2026-04-04T09:31:14.326Z</time></trkpt><trkpt lat="43.4269267" lon="10.7952667"><ele>167.79999999999998</ele><time>2026-04-04T09:31:15.327Z</time></trkpt><trkpt lat="43.4269917" lon="10.7953783"><ele>168.2</ele><time>2026-04-04T09:31:16.326Z</time></trkpt><trkpt lat="43.4270733" lon="10.7954733"><ele>168.6</ele><time>2026-04-04T09:31:17.327Z</time></trkpt><trkpt lat="43.4271633" lon="10.79556"><ele>169.0</ele><time>2026-04-04T09:31:18.326Z</time></trkpt><trkpt lat="43.42727" lon="10.7956283"><ele>165.5</ele><time>2026-04-04T09:31:19.327Z</time></trkpt><trkpt lat="43.4273833" lon="10.7956917"><ele>162.0</ele><time>2026-04-04T09:31:20.326Z</time></trkpt><trkpt lat="43.4275" lon="10.7957517"><ele>158.5</ele><time>2026-04-04T09:31:21.326Z</time></trkpt><trkpt lat="43.4276067" lon="10.795815"><ele>155.0</ele><time>2026-04-04T09:31:22.326Z</time></trkpt><trkpt lat="43.4277183" lon="10.7958717"><ele>155.0</ele><time>2026-04-04T09:31:23.326Z</time></trkpt><trkpt lat="43.4278283" lon="10.7959317"><ele>155.0</ele><time>2026-04-04T09:31:24.326Z</time></trkpt><trkpt lat="43.4279383" lon="10.7959917"><ele>155.0</ele><time>2026-04-04T09:31:25.327Z</time></trkpt><trkpt lat="43.4280433" lon="10.7960267"><ele>155.0</ele><time>2026-04-04T09:31:26.326Z</time></trkpt><trkpt lat="43.428155" lon="10.7960883"><ele>154.5</ele><time>2026-04-04T09:31:27.326Z</time></trkpt><trkpt lat="43.4282533" lon="10.7961433"><ele>154.0</ele><time>2026-04-04T09:31:28.326Z</time></trkpt><trkpt lat="43.4283517" lon="10.7961983"><ele>153.5</ele><time>2026-04-04T09:31:29.326Z</time></trkpt><trkpt lat="43.4284517" lon="10.79627"><ele>153.0</ele><time>2026-04-04T09:31:30.327Z</time></trkpt><trkpt lat="43.4285633" lon="10.79636"><ele>153.0</ele><time>2026-04-04T09:31:31.326Z</time></trkpt><trkpt lat="43.4286467" lon="10.7964583"><ele>153.0</ele><time>2026-04-04T09:31:32.326Z</time></trkpt><trkpt lat="43.4287367" lon="10.7965617"><ele>153.0</ele><time>2026-04-04T09:31:33.326Z</time></trkpt><trkpt lat="43.4288233" lon="10.7966533"><ele>153.0</ele><time>2026-04-04T09:31:34.326Z</time></trkpt><trkpt lat="43.4289183" lon="10.7967367"><ele>153.0</ele><time>2026-04-04T09:31:35.326Z</time></trkpt><trkpt lat="43.4290167" lon="10.79682"><ele>149.5</ele><time>2026-04-04T09:31:36.326Z</time></trkpt><trkpt lat="43.42912" lon="10.7969167"><ele>146.0</ele><time>2026-04-04T09:31:37.326Z</time></trkpt><trkpt lat="43.42922" lon="10.7970217"><ele>142.5</ele><time>2026-04-04T09:31:38.326Z</time></trkpt><trkpt lat="43.4293217" lon="10.797145"><ele>139.0</ele><time>2026-04-04T09:31:39.326Z</time></trkpt><trkpt lat="43.4294117" lon="10.7972767"><ele>139.0</ele><time>2026-04-04T09:31:40.326Z</time></trkpt><trkpt lat="43.4295017" lon="10.797425"><ele>139.0</ele><time>2026-04-04T09:31:41.326Z</time></trkpt><trkpt lat="43.429595" lon="10.797565"><ele>139.0</ele><time>2026-04-04T09:31:42.326Z</time></trkpt><trkpt lat="43.4296933" lon="10.7977117"><ele>139.0</ele><time>2026-04-04T09:31:43.326Z</time></trkpt><trkpt lat="43.42979" lon="10.7978517"><ele>137.25</ele><time>2026-04-04T09:31:44.326Z</time></trkpt><trkpt lat="43.42987" lon="10.7980033"><ele>135.5</ele><time>2026-04-04T09:31:45.326Z</time></trkpt><trkpt lat="43.4299333" lon="10.7981533"><ele>133.75</ele><time>2026-04-04T09:31:46.326Z</time></trkpt><trkpt lat="43.430005" lon="10.798295"><ele>132.0</ele><time>2026-04-04T09:31:47.326Z</time></trkpt><trkpt lat="43.4300783" lon="10.798425"><ele>132.79999999999998</ele><time>2026-04-04T09:31:48.326Z</time></trkpt><trkpt lat="43.4301583" lon="10.7985417"><ele>133.6</ele><time>2026-04-04T09:31:49.327Z</time></trkpt><trkpt lat="43.430245" lon="10.79865"><ele>134.39999999999998</ele><time>2026-04-04T09:31:50.327Z</time></trkpt><trkpt lat="43.4303217" lon="10.7987383"><ele>135.2</ele><time>2026-04-04T09:31:51.327Z</time></trkpt><trkpt lat="43.4303867" lon="10.798835"><ele>136.0</ele><time>2026-04-04T09:31:52.326Z</time></trkpt><trkpt lat="43.4304483" lon="10.7989517"><ele>133.6</ele><time>2026-04-04T09:31:53.326Z</time></trkpt><trkpt lat="43.4304983" lon="10.799075"><ele>131.2</ele><time>2026-04-04T09:31:54.326Z</time></trkpt><trkpt lat="43.4305433" lon="10.7991983"><ele>128.8</ele><time>2026-04-04T09:31:55.327Z</time></trkpt><trkpt lat="43.4305717" lon="10.7993233"><ele>126.4</ele><time>2026-04-04T09:31:56.326Z</time></trkpt><trkpt lat="43.4305883" lon="10.7994567"><ele>124.0</ele><time>2026-04-04T09:31:57.326Z</time></trkpt><trkpt lat="43.4305933" lon="10.7996"><ele>123.0</ele><time>2026-04-04T09:31:58.326Z</time></trkpt><trkpt lat="43.4306" lon="10.7997417"><ele>122.0</ele><time>2026-04-04T09:31:59.327Z</time></trkpt><trkpt lat="43.430575" lon="10.7998683"><ele>121.0</ele><time>2026-04-04T09:32:00.326Z</time></trkpt><trkpt lat="43.4305417" lon="10.7999817"><ele>120.0</ele><time>2026-04-04T09:32:01.326Z</time></trkpt><trkpt lat="43.4305083" lon="10.8000817"><ele>119.0</ele><time>2026-04-04T09:32:02.326Z</time></trkpt><trkpt lat="43.4304617" lon="10.8001783"><ele>118.0</ele><time>2026-04-04T09:32:03.327Z</time></trkpt><trkpt lat="43.43039" lon="10.80024"><ele>117.0</ele><time>2026-04-04T09:32:04.326Z</time></trkpt><trkpt lat="43.4303083" lon="10.8002967"><ele>116.0</ele><time>2026-04-04T09:32:05.326Z</time></trkpt><trkpt lat="43.4302133" lon="10.80035"><ele>115.0</ele><time>2026-04-04T09:32:06.326Z</time></trkpt><trkpt lat="43.43011" lon="10.8003833"><ele>114.0</ele><time>2026-04-04T09:32:07.326Z</time></trkpt><trkpt lat="43.430005" lon="10.8004317"><ele>114.0</ele><time>2026-04-04T09:32:08.326Z</time></trkpt><trkpt lat="43.4299033" lon="10.80046"><ele>114.0</ele><time>2026-04-04T09:32:09.326Z</time></trkpt><trkpt lat="43.4298033" lon="10.8004917"><ele>114.0</ele><time>2026-04-04T09:32:10.326Z</time></trkpt><trkpt lat="43.4296983" lon="10.800515"><ele>114.0</ele><time>2026-04-04T09:32:11.326Z</time></trkpt><trkpt lat="43.4295867" lon="10.800525"><ele>114.0</ele><time>2026-04-04T09:32:12.326Z</time></trkpt><trkpt lat="43.4294733" lon="10.80053"><ele>114.25</ele><time>2026-04-04T09:32:13.327Z</time></trkpt><trkpt lat="43.4293533" lon="10.800525"><ele>114.5</ele><time>2026-04-04T09:32:14.326Z</time></trkpt><trkpt lat="43.4292317" lon="10.8005183"><ele>114.75</ele><time>2026-04-04T09:32:15.326Z</time></trkpt><trkpt lat="43.42911" lon="10.800515"><ele>115.0</ele><time>2026-04-04T09:32:16.326Z</time></trkpt><trkpt lat="43.4289867" lon="10.8005067"><ele>115.0</ele><time>2026-04-04T09:32:17.326Z</time></trkpt><trkpt lat="43.4288733" lon="10.8004867"><ele>115.0</ele><time>2026-04-04T09:32:18.326Z</time></trkpt><trkpt lat="43.428765" lon="10.8004883"><ele>115.0</ele><time>2026-04-04T09:32:19.326Z</time></trkpt><trkpt lat="43.4286567" lon="10.8004833"><ele>115.0</ele><time>2026-04-04T09:32:20.326Z</time></trkpt><trkpt lat="43.4285517" lon="10.8004867"><ele>115.0</ele><time>2026-04-04T09:32:21.326Z</time></trkpt><trkpt lat="43.4284317" lon="10.8004917"><ele>115.0</ele><time>2026-04-04T09:32:22.326Z</time></trkpt><trkpt lat="43.4283167" lon="10.8005067"><ele>115.0</ele><time>2026-04-04T09:32:23.326Z</time></trkpt><trkpt lat="43.4282117" lon="10.800525"><ele>115.0</ele><time>2026-04-04T09:32:24.327Z</time></trkpt><trkpt lat="43.4281117" lon="10.8005517"><ele>115.0</ele><time>2026-04-04T09:32:25.327Z</time></trkpt><trkpt lat="43.4280283" lon="10.8005933"><ele>115.0</ele><time>2026-04-04T09:32:26.326Z</time></trkpt><trkpt lat="43.42794" lon="10.80064"><ele>114.5</ele><time>2026-04-04T09:32:27.327Z</time></trkpt><trkpt lat="43.4278533" lon="10.8007283"><ele>114.0</ele><time>2026-04-04T09:32:28.326Z</time></trkpt><trkpt lat="43.4277717" lon="10.800835"><ele>113.5</ele><time>2026-04-04T09:32:29.327Z</time></trkpt><trkpt lat="43.42772" lon="10.8009867"><ele>113.0</ele><time>2026-04-04T09:32:30.326Z</time></trkpt><trkpt lat="43.4276867" lon="10.8011433"><ele>113.0</ele><time>2026-04-04T09:32:31.327Z</time></trkpt><trkpt lat="43.4276633" lon="10.801315"><ele>113.0</ele><time>2026-04-04T09:32:32.326Z</time></trkpt><trkpt lat="43.4276533" lon="10.8014983"><ele>113.0</ele><time>2026-04-04T09:32:33.326Z</time></trkpt><trkpt lat="43.4276233" lon="10.8016783"><ele>113.0</ele><time>2026-04-04T09:32:34.326Z</time></trkpt><trkpt lat="43.4276017" lon="10.8018517"><ele>112.60000000000001</ele><time>2026-04-04T09:32:35.326Z</time></trkpt><trkpt lat="43.4275833" lon="10.8020267"><ele>112.20000000000002</ele><time>2026-04-04T09:32:36.327Z</time></trkpt><trkpt lat="43.4275617" lon="10.8021667"><ele>111.8</ele><time>2026-04-04T09:32:37.326Z</time></trkpt><trkpt lat="43.4275333" lon="10.8023"><ele>111.4</ele><time>2026-04-04T09:32:38.326Z</time></trkpt><trkpt lat="43.4275067" lon="10.80244"><ele>111.0</ele><time>2026-04-04T09:32:39.326Z</time></trkpt><trkpt lat="43.4274933" lon="10.80257"><ele>111.83333333333333</ele><time>2026-04-04T09:32:40.327Z</time></trkpt><trkpt lat="43.4274983" lon="10.8026933"><ele>112.66666666666666</ele><time>2026-04-04T09:32:41.327Z</time></trkpt><trkpt lat="43.42751" lon="10.80282"><ele>113.5</ele><time>2026-04-04T09:32:42.327Z</time></trkpt><trkpt lat="43.4275517" lon="10.8029133"><ele>114.33333333333333</ele><time>2026-04-04T09:32:43.327Z</time></trkpt><trkpt lat="43.4275883" lon="10.8030033"><ele>115.16666666666666</ele><time>2026-04-04T09:32:44.326Z</time></trkpt><trkpt lat="43.427635" lon="10.803065"><ele>116.0</ele><time>2026-04-04T09:32:45.326Z</time></trkpt><trkpt lat="43.427705" lon="10.8030967"><ele>116.0</ele><time>2026-04-04T09:32:46.326Z</time></trkpt><trkpt lat="43.4277833" lon="10.8030917"><ele>116.0</ele><time>2026-04-04T09:32:47.326Z</time></trkpt><trkpt lat="43.4278667" lon="10.8030783"><ele>116.0</ele><time>2026-04-04T09:32:48.325Z</time></trkpt><trkpt lat="43.4279717" lon="10.8030517"><ele>116.0</ele><time>2026-04-04T09:32:49.325Z</time></trkpt><trkpt lat="43.4280917" lon="10.8030217"><ele>116.0</ele><time>2026-04-04T09:32:50.325Z</time></trkpt><trkpt lat="43.4282033" lon="10.8030133"><ele>117.0</ele><time>2026-04-04T09:32:51.325Z</time></trkpt><trkpt lat="43.4283017" lon="10.8030167"><ele>118.0</ele><time>2026-04-04T09:32:52.325Z</time></trkpt><trkpt lat="43.4283933" lon="10.8030417"><ele>119.0</ele><time>2026-04-04T09:32:53.325Z</time></trkpt><trkpt lat="43.428485" lon="10.8030867"><ele>120.0</ele><time>2026-04-04T09:32:54.325Z</time></trkpt><trkpt lat="43.4285583" lon="10.8031583"><ele>121.0</ele><time>2026-04-04T09:32:55.326Z</time></trkpt><trkpt lat="43.4286333" lon="10.8032583"><ele>121.0</ele><time>2026-04-04T09:32:56.325Z</time></trkpt><trkpt lat="43.4287" lon="10.8033583"><ele>121.0</ele><time>2026-04-04T09:32:57.326Z</time></trkpt><trkpt lat="43.4287683" lon="10.8034633"><ele>121.0</ele><time>2026-04-04T09:32:58.325Z</time></trkpt><trkpt lat="43.4288283" lon="10.8035617"><ele>121.0</ele><time>2026-04-04T09:32:59.326Z</time></trkpt><trkpt lat="43.4288917" lon="10.803655"><ele>121.0</ele><time>2026-04-04T09:33:00.325Z</time></trkpt><trkpt lat="43.42896" lon="10.8037267"><ele>123.33333333333334</ele><time>2026-04-04T09:33:01.325Z</time></trkpt><trkpt lat="43.4290317" lon="10.8037867"><ele>125.66666666666667</ele><time>2026-04-04T09:33:02.325Z</time></trkpt><trkpt lat="43.4291083" lon="10.8038317"><ele>128.0</ele><time>2026-04-04T09:33:03.325Z</time></trkpt><trkpt lat="43.4291917" lon="10.8038583"><ele>130.33333333333334</ele><time>2026-04-04T09:33:04.326Z</time></trkpt><trkpt lat="43.4292883" lon="10.8038867"><ele>132.66666666666666</ele><time>2026-04-04T09:33:05.325Z</time></trkpt><trkpt lat="43.4293783" lon="10.80389"><ele>135.0</ele><time>2026-04-04T09:33:06.325Z</time></trkpt><trkpt lat="43.4294617" lon="10.8039267"><ele>135.0</ele><time>2026-04-04T09:33:07.325Z</time></trkpt><trkpt lat="43.429545" lon="10.8039683"><ele>135.0</ele><time>2026-04-04T09:33:08.325Z</time></trkpt><trkpt lat="43.4296183" lon="10.8040167"><ele>135.0</ele><time>2026-04-04T09:33:09.325Z</time></trkpt><trkpt lat="43.4296833" lon="10.8040667"><ele>135.0</ele><time>2026-04-04T09:33:10.325Z</time></trkpt><trkpt lat="43.42975" lon="10.8041383"><ele>135.0</ele><time>2026-04-04T09:33:11.325Z</time></trkpt><trkpt lat="43.4297967" lon="10.8042267"><ele>135.0</ele><time>2026-04-04T09:33:12.326Z</time></trkpt><trkpt lat="43.42983" lon="10.8043417"><ele>134.4</ele><time>2026-04-04T09:33:13.325Z</time></trkpt><trkpt lat="43.4298567" lon="10.8045"><ele>133.8</ele><time>2026-04-04T09:33:14.326Z</time></trkpt><trkpt lat="43.4298767" lon="10.8046433"><ele>133.2</ele><time>2026-04-04T09:33:15.325Z</time></trkpt><trkpt lat="43.429875" lon="10.8047783"><ele>132.6</ele><time>2026-04-04T09:33:16.326Z</time></trkpt><trkpt lat="43.42986" lon="10.8049"><ele>132.0</ele><time>2026-04-04T09:33:17.325Z</time></trkpt><trkpt lat="43.4298467" lon="10.80503"><ele>133.0</ele><time>2026-04-04T09:33:18.325Z</time></trkpt><trkpt lat="43.429795" lon="10.805175"><ele>134.0</ele><time>2026-04-04T09:33:19.326Z</time></trkpt><trkpt lat="43.429745" lon="10.805295"><ele>135.0</ele><time>2026-04-04T09:33:20.326Z</time></trkpt><trkpt lat="43.429685" lon="10.8054233"><ele>136.0</ele><time>2026-04-04T09:33:21.325Z</time></trkpt><trkpt lat="43.42964" lon="10.805555"><ele>137.0</ele><time>2026-04-04T09:33:22.325Z</time></trkpt><trkpt lat="43.4296" lon="10.805685"><ele>139.6</ele><time>2026-04-04T09:33:23.325Z</time></trkpt><trkpt lat="43.42955" lon="10.8058067"><ele>142.2</ele><time>2026-04-04T09:33:24.325Z</time></trkpt><trkpt lat="43.4295033" lon="10.80592"><ele>144.8</ele><time>2026-04-04T09:33:25.325Z</time></trkpt><trkpt lat="43.42946" lon="10.806035"><ele>147.4</ele><time>2026-04-04T09:33:26.325Z</time></trkpt><trkpt lat="43.429425" lon="10.8061567"><ele>150.0</ele><time>2026-04-04T09:33:27.326Z</time></trkpt><trkpt lat="43.4293917" lon="10.8062617"><ele>150.5</ele><time>2026-04-04T09:33:28.325Z</time></trkpt><trkpt lat="43.4293717" lon="10.8063583"><ele>151.0</ele><time>2026-04-04T09:33:29.325Z</time></trkpt><trkpt lat="43.4293517" lon="10.80645"><ele>151.5</ele><time>2026-04-04T09:33:30.325Z</time></trkpt><trkpt lat="43.4293233" lon="10.8065333"><ele>152.0</ele><time>2026-04-04T09:33:31.325Z</time></trkpt><trkpt lat="43.429275" lon="10.8066867"><ele>152.5</ele><time>2026-04-04T09:33:33.325Z</time></trkpt><trkpt lat="43.42925" lon="10.8067783"><ele>153.0</ele><time>2026-04-04T09:33:34.325Z</time></trkpt><trkpt lat="43.4292183" lon="10.80687"><ele>153.5</ele><time>2026-04-04T09:33:35.326Z</time></trkpt><trkpt lat="43.4291933" lon="10.8069733"><ele>154.0</ele><time>2026-04-04T09:33:36.325Z</time></trkpt><trkpt lat="43.4291633" lon="10.8070783"><ele>154.5</ele><time>2026-04-04T09:33:37.325Z</time></trkpt><trkpt lat="43.42913" lon="10.8071883"><ele>155.0</ele><time>2026-04-04T09:33:38.325Z</time></trkpt><trkpt lat="43.4290967" lon="10.8073083"><ele>155.5</ele><time>2026-04-04T09:33:39.325Z</time></trkpt><trkpt lat="43.4290683" lon="10.8074267"><ele>156.0</ele><time>2026-04-04T09:33:40.325Z</time></trkpt><trkpt lat="43.4290333" lon="10.8075383"><ele>156.0</ele><time>2026-04-04T09:33:41.326Z</time></trkpt><trkpt lat="43.428985" lon="10.8076417"><ele>156.0</ele><time>2026-04-04T09:33:42.325Z</time></trkpt><trkpt lat="43.4289317" lon="10.807745"><ele>156.0</ele><time>2026-04-04T09:33:43.325Z</time></trkpt><trkpt lat="43.428865" lon="10.80785"><ele>156.0</ele><time>2026-04-04T09:33:44.326Z</time></trkpt><trkpt lat="43.4287933" lon="10.8079567"><ele>156.0</ele><time>2026-04-04T09:33:45.325Z</time></trkpt><trkpt lat="43.4287267" lon="10.80805"><ele>158.0</ele><time>2026-04-04T09:33:46.325Z</time></trkpt><trkpt lat="43.428665" lon="10.8081167"><ele>160.0</ele><time>2026-04-04T09:33:47.325Z</time></trkpt><trkpt lat="43.428615" lon="10.808185"><ele>162.0</ele><time>2026-04-04T09:33:48.325Z</time></trkpt><trkpt lat="43.4285633" lon="10.8082617"><ele>164.0</ele><time>2026-04-04T09:33:49.325Z</time></trkpt><trkpt lat="43.428515" lon="10.8083433"><ele>166.0</ele><time>2026-04-04T09:33:50.325Z</time></trkpt><trkpt lat="43.4284717" lon="10.8084333"><ele>168.0</ele><time>2026-04-04T09:33:51.325Z</time></trkpt><trkpt lat="43.4284333" lon="10.8085283"><ele>168.28571428571428</ele><time>2026-04-04T09:33:52.326Z</time></trkpt><trkpt lat="43.4284167" lon="10.80862"><ele>168.57142857142856</ele><time>2026-04-04T09:33:53.326Z</time></trkpt><trkpt lat="43.42841" lon="10.8087217"><ele>168.85714285714286</ele><time>2026-04-04T09:33:54.325Z</time></trkpt><trkpt lat="43.4284017" lon="10.8088217"><ele>169.14285714285714</ele><time>2026-04-04T09:33:55.325Z</time></trkpt><trkpt lat="43.4283933" lon="10.80892"><ele>169.42857142857142</ele><time>2026-04-04T09:33:56.325Z</time></trkpt><trkpt lat="43.428385" lon="10.80902"><ele>169.71428571428572</ele><time>2026-04-04T09:33:57.325Z</time></trkpt><trkpt lat="43.4283833" lon="10.8091333"><ele>170.0</ele><time>2026-04-04T09:33:58.325Z</time></trkpt><trkpt lat="43.42838" lon="10.80925"><ele>170.8</ele><time>2026-04-04T09:33:59.325Z</time></trkpt><trkpt lat="43.42838" lon="10.8093667"><ele>171.6</ele><time>2026-04-04T09:34:00.326Z</time></trkpt><trkpt lat="43.4283733" lon="10.8094817"><ele>172.39999999999998</ele><time>2026-04-04T09:34:01.325Z</time></trkpt><trkpt lat="43.42836" lon="10.8096067"><ele>173.2</ele><time>2026-04-04T09:34:02.325Z</time></trkpt><trkpt lat="43.42835" lon="10.8097383"><ele>174.0</ele><time>2026-04-04T09:34:03.325Z</time></trkpt><trkpt lat="43.42834" lon="10.80987"><ele>174.0</ele><time>2026-04-04T09:34:04.325Z</time></trkpt><trkpt lat="43.428335" lon="10.81001"><ele>174.0</ele><time>2026-04-04T09:34:05.325Z</time></trkpt><trkpt lat="43.4283333" lon="10.8101467"><ele>174.0</ele><time>2026-04-04T09:34:06.325Z</time></trkpt><trkpt lat="43.4283317" lon="10.8102733"><ele>174.0</ele><time>2026-04-04T09:34:07.325Z</time></trkpt><trkpt lat="43.4283267" lon="10.8103983"><ele>174.0</ele><time>2026-04-04T09:34:08.326Z</time></trkpt><trkpt lat="43.42832" lon="10.810535"><ele>175.0</ele><time>2026-04-04T09:34:09.325Z</time></trkpt><trkpt lat="43.42831" lon="10.81067"><ele>176.0</ele><time>2026-04-04T09:34:10.325Z</time></trkpt><trkpt lat="43.4283" lon="10.8108017"><ele>177.0</ele><time>2026-04-04T09:34:11.325Z</time></trkpt><trkpt lat="43.4282933" lon="10.810925"><ele>178.0</ele><time>2026-04-04T09:34:12.325Z</time></trkpt><trkpt lat="43.4282917" lon="10.8110333"><ele>179.0</ele><time>2026-04-04T09:34:13.325Z</time></trkpt><trkpt lat="43.4283067" lon="10.8111383"><ele>180.0</ele><time>2026-04-04T09:34:14.325Z</time></trkpt><trkpt lat="43.4283383" lon="10.811255"><ele>180.0</ele><time>2026-04-04T09:34:15.325Z</time></trkpt><trkpt lat="43.4283767" lon="10.8113583"><ele>180.0</ele><time>2026-04-04T09:34:16.325Z</time></trkpt><trkpt lat="43.4284133" lon="10.8114667"><ele>180.0</ele><time>2026-04-04T09:34:17.326Z</time></trkpt><trkpt lat="43.4284517" lon="10.8115583"><ele>180.0</ele><time>2026-04-04T09:34:18.325Z</time></trkpt><trkpt lat="43.4284933" lon="10.81165"><ele>180.0</ele><time>2026-04-04T09:34:19.326Z</time></trkpt><trkpt lat="43.42854" lon="10.8117333"><ele>180.0</ele><time>2026-04-04T09:34:20.326Z</time></trkpt><trkpt lat="43.4285833" lon="10.81182"><ele>178.66666666666666</ele><time>2026-04-04T09:34:21.326Z</time></trkpt><trkpt lat="43.4286233" lon="10.8119083"><ele>177.33333333333334</ele><time>2026-04-04T09:34:22.326Z</time></trkpt><trkpt lat="43.4286583" lon="10.812005"><ele>176.0</ele><time>2026-04-04T09:34:23.325Z</time></trkpt><trkpt lat="43.42869" lon="10.81209"><ele>174.66666666666669</ele><time>2026-04-04T09:34:24.326Z</time></trkpt><trkpt lat="43.42872" lon="10.812185"><ele>173.33333333333334</ele><time>2026-04-04T09:34:25.325Z</time></trkpt><trkpt lat="43.428755" lon="10.812285"><ele>172.0</ele><time>2026-04-04T09:34:26.325Z</time></trkpt><trkpt lat="43.428795" lon="10.8124067"><ele>176.2</ele><time>2026-04-04T09:34:27.325Z</time></trkpt><trkpt lat="43.4288233" lon="10.8125217"><ele>180.39999999999998</ele><time>2026-04-04T09:34:28.325Z</time></trkpt><trkpt lat="43.42885" lon="10.8126433"><ele>184.60000000000002</ele><time>2026-04-04T09:34:29.325Z</time></trkpt><trkpt lat="43.4288767" lon="10.8127667"><ele>188.8</ele><time>2026-04-04T09:34:30.326Z</time></trkpt><trkpt lat="43.4289" lon="10.8129067"><ele>193.0</ele><time>2026-04-04T09:34:31.325Z</time></trkpt><trkpt lat="43.428925" lon="10.8130433"><ele>193.0</ele><time>2026-04-04T09:34:32.326Z</time></trkpt><trkpt lat="43.428945" lon="10.8131767"><ele>193.0</ele><time>2026-04-04T09:34:33.325Z</time></trkpt><trkpt lat="43.42897" lon="10.81331"><ele>193.0</ele><time>2026-04-04T09:34:34.325Z</time></trkpt><trkpt lat="43.429" lon="10.81344"><ele>193.0</ele><time>2026-04-04T09:34:35.325Z</time></trkpt><trkpt lat="43.4290333" lon="10.8135667"><ele>193.0</ele><time>2026-04-04T09:34:36.325Z</time></trkpt><trkpt lat="43.4290783" lon="10.81369"><ele>191.60000000000002</ele><time>2026-04-04T09:34:37.325Z</time></trkpt><trkpt lat="43.4291317" lon="10.8137983"><ele>190.20000000000002</ele><time>2026-04-04T09:34:38.325Z</time></trkpt><trkpt lat="43.4291867" lon="10.813905"><ele>188.8</ele><time>2026-04-04T09:34:39.325Z</time></trkpt><trkpt lat="43.4292717" lon="10.81402"><ele>187.4</ele><time>2026-04-04T09:34:40.325Z</time></trkpt><trkpt lat="43.4293617" lon="10.8141133"><ele>186.0</ele><time>2026-04-04T09:34:41.325Z</time></trkpt><trkpt lat="43.429435" lon="10.814195"><ele>186.0</ele><time>2026-04-04T09:34:42.326Z</time></trkpt><trkpt lat="43.429515" lon="10.8142717"><ele>186.0</ele><time>2026-04-04T09:34:43.325Z</time></trkpt><trkpt lat="43.4295933" lon="10.8143417"><ele>186.0</ele><time>2026-04-04T09:34:44.325Z</time></trkpt><trkpt lat="43.4296733" lon="10.8144133"><ele>186.0</ele><time>2026-04-04T09:34:45.325Z</time></trkpt><trkpt lat="43.42976" lon="10.8144917"><ele>186.0</ele><time>2026-04-04T09:34:46.325Z</time></trkpt><trkpt lat="43.4298433" lon="10.8145717"><ele>186.60000000000002</ele><time>2026-04-04T09:34:47.325Z</time></trkpt><trkpt lat="43.4299217" lon="10.8146883"><ele>187.2</ele><time>2026-04-04T09:34:48.325Z</time></trkpt><trkpt lat="43.4299933" lon="10.8147817"><ele>187.8</ele><time>2026-04-04T09:34:49.325Z</time></trkpt><trkpt lat="43.4300483" lon="10.814875"><ele>188.39999999999998</ele><time>2026-04-04T09:34:50.325Z</time></trkpt><trkpt lat="43.43009" lon="10.8149683"><ele>189.0</ele><time>2026-04-04T09:34:51.325Z</time></trkpt><trkpt lat="43.4301167" lon="10.8150633"><ele>189.5</ele><time>2026-04-04T09:34:52.326Z</time></trkpt><trkpt lat="43.4301333" lon="10.8151683"><ele>190.0</ele><time>2026-04-04T09:34:53.325Z</time></trkpt><trkpt lat="43.4301483" lon="10.8152733"><ele>190.5</ele><time>2026-04-04T09:34:54.326Z</time></trkpt><trkpt lat="43.430165" lon="10.815375"><ele>191.0</ele><time>2026-04-04T09:34:55.325Z</time></trkpt><trkpt lat="43.4301867" lon="10.815485"><ele>191.5</ele><time>2026-04-04T09:34:56.325Z</time></trkpt><trkpt lat="43.430205" lon="10.81559"><ele>192.0</ele><time>2026-04-04T09:34:57.325Z</time></trkpt><trkpt lat="43.43022" lon="10.8156883"><ele>192.0</ele><time>2026-04-04T09:34:58.325Z</time></trkpt><trkpt lat="43.4302383" lon="10.8157817"><ele>192.0</ele><time>2026-04-04T09:34:59.326Z</time></trkpt><trkpt lat="43.4302617" lon="10.8159217"><ele>192.0</ele><time>2026-04-04T09:35:01.325Z</time></trkpt><trkpt lat="43.4303167" lon="10.81601"><ele>192.0</ele><time>2026-04-04T09:35:55.325Z</time></trkpt><trkpt lat="43.4303533" lon="10.8161283"><ele>192.0</ele><time>2026-04-04T09:35:57.325Z</time></trkpt><trkpt lat="43.4303967" lon="10.8162183"><ele>192.0</ele><time>2026-04-04T09:35:58.325Z</time></trkpt><trkpt lat="43.4304583" lon="10.8163233"><ele>193.0</ele><time>2026-04-04T09:35:59.325Z</time></trkpt><trkpt lat="43.430515" lon="10.816425"><ele>194.0</ele><time>2026-04-04T09:36:00.326Z</time></trkpt><trkpt lat="43.4305767" lon="10.8165367"><ele>195.0</ele><time>2026-04-04T09:36:01.325Z</time></trkpt><trkpt lat="43.4306417" lon="10.81664"><ele>196.0</ele><time>2026-04-04T09:36:02.325Z</time></trkpt><trkpt lat="43.4307017" lon="10.816745"><ele>197.0</ele><time>2026-04-04T09:36:03.325Z</time></trkpt><trkpt lat="43.430785" lon="10.8168633"><ele>200.39999999999998</ele><time>2026-04-04T09:36:04.325Z</time></trkpt><trkpt lat="43.4308717" lon="10.81697"><ele>203.79999999999998</ele><time>2026-04-04T09:36:05.325Z</time></trkpt><trkpt lat="43.4309483" lon="10.8170817"><ele>207.2</ele><time>2026-04-04T09:36:06.326Z</time></trkpt><trkpt lat="43.4310217" lon="10.8171933"><ele>210.6</ele><time>2026-04-04T09:36:07.326Z</time></trkpt><trkpt lat="43.43108" lon="10.8173033"><ele>214.0</ele><time>2026-04-04T09:36:08.325Z</time></trkpt><trkpt lat="43.4311267" lon="10.81742"><ele>214.0</ele><time>2026-04-04T09:36:09.326Z</time></trkpt><trkpt lat="43.431175" lon="10.8175367"><ele>213.99999999999997</ele><time>2026-04-04T09:36:10.326Z</time></trkpt><trkpt lat="43.4312467" lon="10.8176733"><ele>213.99999999999997</ele><time>2026-04-04T09:36:11.326Z</time></trkpt><trkpt lat="43.4312733" lon="10.8178083"><ele>214.0</ele><time>2026-04-04T09:36:12.325Z</time></trkpt><trkpt lat="43.4313183" lon="10.8179567"><ele>214.0</ele><time>2026-04-04T09:36:13.325Z</time></trkpt><trkpt lat="43.4313417" lon="10.8180867"><ele>214.83333333333331</ele><time>2026-04-04T09:36:14.325Z</time></trkpt><trkpt lat="43.4313683" lon="10.8182033"><ele>215.66666666666666</ele><time>2026-04-04T09:36:15.326Z</time></trkpt><trkpt lat="43.4314083" lon="10.8183133"><ele>216.5</ele><time>2026-04-04T09:36:16.326Z</time></trkpt><trkpt lat="43.4314517" lon="10.8184183"><ele>217.33333333333331</ele><time>2026-04-04T09:36:17.325Z</time></trkpt><trkpt lat="43.4315033" lon="10.8185183"><ele>218.16666666666666</ele><time>2026-04-04T09:36:18.325Z</time></trkpt><trkpt lat="43.4315667" lon="10.8186067"><ele>219.0</ele><time>2026-04-04T09:36:19.325Z</time></trkpt><trkpt lat="43.4316567" lon="10.8186867"><ele>216.79999999999998</ele><time>2026-04-04T09:36:20.325Z</time></trkpt><trkpt lat="43.43175" lon="10.8187683"><ele>214.59999999999997</ele><time>2026-04-04T09:36:21.325Z</time></trkpt><trkpt lat="43.4318433" lon="10.8188583"><ele>212.4</ele><time>2026-04-04T09:36:22.325Z</time></trkpt><trkpt lat="43.4319217" lon="10.8189383"><ele>210.2</ele><time>2026-04-04T09:36:23.326Z</time></trkpt><trkpt lat="43.43201" lon="10.8190283"><ele>208.0</ele><time>2026-04-04T09:36:24.326Z</time></trkpt><trkpt lat="43.43209" lon="10.8191217"><ele>209.60000000000002</ele><time>2026-04-04T09:36:25.325Z</time></trkpt><trkpt lat="43.4321733" lon="10.8192167"><ele>211.20000000000002</ele><time>2026-04-04T09:36:26.325Z</time></trkpt><trkpt lat="43.4322483" lon="10.81931"><ele>212.8</ele><time>2026-04-04T09:36:27.325Z</time></trkpt><trkpt lat="43.4323283" lon="10.8194183"><ele>214.4</ele><time>2026-04-04T09:36:28.325Z</time></trkpt><trkpt lat="43.4323917" lon="10.81952"><ele>216.0</ele><time>2026-04-04T09:36:29.325Z</time></trkpt><trkpt lat="43.4324467" lon="10.8196183"><ele>216.5</ele><time>2026-04-04T09:36:30.325Z</time></trkpt><trkpt lat="43.4324983" lon="10.8197033"><ele>217.0</ele><time>2026-04-04T09:36:31.325Z</time></trkpt><trkpt lat="43.432535" lon="10.8197867"><ele>217.5</ele><time>2026-04-04T09:36:32.325Z</time></trkpt><trkpt lat="43.432575" lon="10.8198683"><ele>218.0</ele><time>2026-04-04T09:36:34.325Z</time></trkpt><trkpt lat="43.43262" lon="10.81995"><ele>218.5</ele><time>2026-04-04T09:38:03.326Z</time></trkpt><trkpt lat="43.432665" lon="10.8200383"><ele>219.0</ele><time>2026-04-04T09:38:04.326Z</time></trkpt><trkpt lat="43.4327167" lon="10.8201367"><ele>219.0</ele><time>2026-04-04T09:38:05.326Z</time></trkpt><trkpt lat="43.4327833" lon="10.8202467"><ele>218.99999999999997</ele><time>2026-04-04T09:38:06.325Z</time></trkpt><trkpt lat="43.4328567" lon="10.8203533"><ele>218.99999999999997</ele><time>2026-04-04T09:38:07.325Z</time></trkpt><trkpt lat="43.43294" lon="10.820445"><ele>219.0</ele><time>2026-04-04T09:38:08.325Z</time></trkpt><trkpt lat="43.4330267" lon="10.8205383"><ele>219.0</ele><time>2026-04-04T09:38:09.326Z</time></trkpt><trkpt lat="43.4331333" lon="10.820635"><ele>220.25</ele><time>2026-04-04T09:38:10.325Z</time></trkpt><trkpt lat="43.4332417" lon="10.8207367"><ele>221.5</ele><time>2026-04-04T09:38:11.325Z</time></trkpt><trkpt lat="43.43337" lon="10.82082"><ele>222.75</ele><time>2026-04-04T09:38:12.326Z</time></trkpt><trkpt lat="43.4335017" lon="10.8209017"><ele>224.0</ele><time>2026-04-04T09:38:13.325Z</time></trkpt><trkpt lat="43.4336267" lon="10.8209917"><ele>222.0</ele><time>2026-04-04T09:38:14.325Z</time></trkpt><trkpt lat="43.433735" lon="10.8210633"><ele>219.99999999999997</ele><time>2026-04-04T09:38:15.325Z</time></trkpt><trkpt lat="43.43383" lon="10.8211317"><ele>217.99999999999997</ele><time>2026-04-04T09:38:16.325Z</time></trkpt><trkpt lat="43.43392" lon="10.8211967"><ele>216.0</ele><time>2026-04-04T09:38:17.325Z</time></trkpt><trkpt lat="43.4340017" lon="10.8212583"><ele>214.0</ele><time>2026-04-04T09:38:18.325Z</time></trkpt><trkpt lat="43.4340767" lon="10.8213167"><ele>213.99999999999997</ele><time>2026-04-04T09:38:19.325Z</time></trkpt><trkpt lat="43.4341483" lon="10.821365"><ele>214.0</ele><time>2026-04-04T09:38:20.325Z</time></trkpt><trkpt lat="43.43422" lon="10.821425"><ele>214.0</ele><time>2026-04-04T09:38:21.326Z</time></trkpt><trkpt lat="43.4342967" lon="10.821475"><ele>214.0</ele><time>2026-04-04T09:38:22.325Z</time></trkpt><trkpt lat="43.4343817" lon="10.8215283"><ele>213.99999999999997</ele><time>2026-04-04T09:38:23.325Z</time></trkpt><trkpt lat="43.4344783" lon="10.82159"><ele>214.0</ele><time>2026-04-04T09:38:24.324Z</time></trkpt><trkpt lat="43.4345933" lon="10.8216617"><ele>215.25</ele><time>2026-04-04T09:38:25.324Z</time></trkpt><trkpt lat="43.43471" lon="10.8217417"><ele>216.5</ele><time>2026-04-04T09:38:26.324Z</time></trkpt><trkpt lat="43.4348183" lon="10.8218283"><ele>217.75</ele><time>2026-04-04T09:38:27.324Z</time></trkpt><trkpt lat="43.4349233" lon="10.8219167"><ele>219.0</ele><time>2026-04-04T09:38:28.324Z</time></trkpt><trkpt lat="43.43502" lon="10.822015"><ele>219.0</ele><time>2026-04-04T09:38:29.324Z</time></trkpt><trkpt lat="43.43511" lon="10.822125"><ele>219.0</ele><time>2026-04-04T09:38:30.324Z</time></trkpt><trkpt lat="43.43519" lon="10.8222517"><ele>219.0</ele><time>2026-04-04T09:38:31.324Z</time></trkpt><trkpt lat="43.4352733" lon="10.8224167"><ele>219.0</ele><time>2026-04-04T09:38:32.324Z</time></trkpt><trkpt lat="43.4353167" lon="10.8225817"><ele>218.75</ele><time>2026-04-04T09:38:33.324Z</time></trkpt><trkpt lat="43.435375" lon="10.8227517"><ele>218.5</ele><time>2026-04-04T09:38:34.324Z</time></trkpt><trkpt lat="43.4354467" lon="10.8229183"><ele>218.25</ele><time>2026-04-04T09:38:35.325Z</time></trkpt><trkpt lat="43.4355217" lon="10.823075"><ele>218.0</ele><time>2026-04-04T09:38:36.325Z</time></trkpt><trkpt lat="43.4355883" lon="10.82323"><ele>218.0</ele><time>2026-04-04T09:38:37.324Z</time></trkpt><trkpt lat="43.4356417" lon="10.8233783"><ele>218.0</ele><time>2026-04-04T09:38:38.324Z</time></trkpt><trkpt lat="43.4356783" lon="10.8235283"><ele>218.0</ele><time>2026-04-04T09:38:39.324Z</time></trkpt><trkpt lat="43.4357217" lon="10.8236833"><ele>218.0</ele><time>2026-04-04T09:38:40.324Z</time></trkpt><trkpt lat="43.4357433" lon="10.82382"><ele>218.0</ele><time>2026-04-04T09:38:41.324Z</time></trkpt><trkpt lat="43.435765" lon="10.8239567"><ele>218.0</ele><time>2026-04-04T09:38:42.325Z</time></trkpt><trkpt lat="43.4358033" lon="10.8240917"><ele>218.0</ele><time>2026-04-04T09:38:43.324Z</time></trkpt><trkpt lat="43.435875" lon="10.8242033"><ele>218.0</ele><time>2026-04-04T09:38:44.325Z</time></trkpt><trkpt lat="43.4359533" lon="10.824295"><ele>218.0</ele><time>2026-04-04T09:38:45.324Z</time></trkpt><trkpt lat="43.4360117" lon="10.8243933"><ele>216.8</ele><time>2026-04-04T09:38:46.324Z</time></trkpt><trkpt lat="43.4360617" lon="10.8244933"><ele>215.60000000000002</ele><time>2026-04-04T09:38:47.324Z</time></trkpt><trkpt lat="43.4361167" lon="10.8246083"><ele>214.39999999999998</ele><time>2026-04-04T09:38:48.324Z</time></trkpt><trkpt lat="43.4361467" lon="10.8247367"><ele>213.2</ele><time>2026-04-04T09:38:49.325Z</time></trkpt><trkpt lat="43.4361517" lon="10.82486"><ele>212.0</ele><time>2026-04-04T09:38:50.324Z</time></trkpt><trkpt lat="43.436145" lon="10.824995"><ele>212.0</ele><time>2026-04-04T09:38:51.324Z</time></trkpt><trkpt lat="43.43613" lon="10.82514"><ele>212.0</ele><time>2026-04-04T09:38:52.324Z</time></trkpt><trkpt lat="43.436115" lon="10.8252783"><ele>212.0</ele><time>2026-04-04T09:38:53.324Z</time></trkpt><trkpt lat="43.4361067" lon="10.8254183"><ele>212.0</ele><time>2026-04-04T09:38:54.324Z</time></trkpt><trkpt lat="43.4361083" lon="10.8255583"><ele>212.0</ele><time>2026-04-04T09:38:55.324Z</time></trkpt><trkpt lat="43.4361383" lon="10.825695"><ele>211.5</ele><time>2026-04-04T09:38:56.324Z</time></trkpt><trkpt lat="43.4361717" lon="10.82585"><ele>211.0</ele><time>2026-04-04T09:38:57.324Z</time></trkpt><trkpt lat="43.4361967" lon="10.8260233"><ele>210.5</ele><time>2026-04-04T09:38:58.324Z</time></trkpt><trkpt lat="43.4362183" lon="10.8261883"><ele>210.0</ele><time>2026-04-04T09:38:59.324Z</time></trkpt><trkpt lat="43.43622" lon="10.8263517"><ele>210.0</ele><time>2026-04-04T09:39:00.324Z</time></trkpt><trkpt lat="43.436205" lon="10.8265"><ele>210.0</ele><time>2026-04-04T09:39:01.325Z</time></trkpt><trkpt lat="43.4361667" lon="10.8266367"><ele>210.0</ele><time>2026-04-04T09:39:02.324Z</time></trkpt><trkpt lat="43.4361083" lon="10.826765"><ele>210.0</ele><time>2026-04-04T09:39:03.324Z</time></trkpt><trkpt lat="43.436025" lon="10.8268817"><ele>210.0</ele><time>2026-04-04T09:39:04.324Z</time></trkpt><trkpt lat="43.4359283" lon="10.8269917"><ele>210.75</ele><time>2026-04-04T09:39:05.324Z</time></trkpt><trkpt lat="43.435835" lon="10.8271117"><ele>211.5</ele><time>2026-04-04T09:39:06.324Z</time></trkpt><trkpt lat="43.4357367" lon="10.82724"><ele>212.25</ele><time>2026-04-04T09:39:07.324Z</time></trkpt><trkpt lat="43.4356367" lon="10.8273683"><ele>213.0</ele><time>2026-04-04T09:39:08.324Z</time></trkpt><trkpt lat="43.4355483" lon="10.8275033"><ele>211.25</ele><time>2026-04-04T09:39:09.324Z</time></trkpt><trkpt lat="43.4354733" lon="10.8276467"><ele>209.5</ele><time>2026-04-04T09:39:10.324Z</time></trkpt><trkpt lat="43.435405" lon="10.8278067"><ele>207.75</ele><time>2026-04-04T09:39:11.324Z</time></trkpt><trkpt lat="43.4353483" lon="10.82797"><ele>206.0</ele><time>2026-04-04T09:39:12.324Z</time></trkpt><trkpt lat="43.4352967" lon="10.8281333"><ele>211.5</ele><time>2026-04-04T09:39:13.324Z</time></trkpt><trkpt lat="43.4352617" lon="10.8283133"><ele>217.0</ele><time>2026-04-04T09:39:14.325Z</time></trkpt><trkpt lat="43.4352317" lon="10.8284917"><ele>222.5</ele><time>2026-04-04T09:39:15.324Z</time></trkpt><trkpt lat="43.4351967" lon="10.82866"><ele>228.0</ele><time>2026-04-04T09:39:16.324Z</time></trkpt><trkpt lat="43.4351517" lon="10.8288083"><ele>228.0</ele><time>2026-04-04T09:39:17.324Z</time></trkpt><trkpt lat="43.4351383" lon="10.8289767"><ele>228.0</ele><time>2026-04-04T09:39:18.325Z</time></trkpt><trkpt lat="43.4351433" lon="10.829155"><ele>228.0</ele><time>2026-04-04T09:39:19.324Z</time></trkpt><trkpt lat="43.4351567" lon="10.8293333"><ele>228.0</ele><time>2026-04-04T09:39:20.324Z</time></trkpt><trkpt lat="43.4351833" lon="10.8295067"><ele>225.25</ele><time>2026-04-04T09:39:21.324Z</time></trkpt><trkpt lat="43.4352267" lon="10.8296817"><ele>222.5</ele><time>2026-04-04T09:39:22.324Z</time></trkpt><trkpt lat="43.4352883" lon="10.8298467"><ele>219.75</ele><time>2026-04-04T09:39:23.324Z</time></trkpt><trkpt lat="43.4353583" lon="10.8299983"><ele>217.0</ele><time>2026-04-04T09:39:24.324Z</time></trkpt><trkpt lat="43.43545" lon="10.8301433"><ele>219.75</ele><time>2026-04-04T09:39:25.325Z</time></trkpt><trkpt lat="43.435555" lon="10.8302783"><ele>222.5</ele><time>2026-04-04T09:39:26.325Z</time></trkpt><trkpt lat="43.4356483" lon="10.8304217"><ele>225.25</ele><time>2026-04-04T09:39:27.325Z</time></trkpt><trkpt lat="43.4357233" lon="10.8305533"><ele>228.0</ele><time>2026-04-04T09:39:28.324Z</time></trkpt><trkpt lat="43.4357933" lon="10.830695"><ele>228.0</ele><time>2026-04-04T09:39:29.325Z</time></trkpt><trkpt lat="43.4358467" lon="10.8308517"><ele>228.0</ele><time>2026-04-04T09:39:30.324Z</time></trkpt><trkpt lat="43.43588" lon="10.8310233"><ele>228.0</ele><time>2026-04-04T09:39:31.324Z</time></trkpt><trkpt lat="43.4359" lon="10.83121"><ele>228.0</ele><time>2026-04-04T09:39:32.324Z</time></trkpt><trkpt lat="43.4359183" lon="10.8314067"><ele>229.0</ele><time>2026-04-04T09:39:33.324Z</time></trkpt><trkpt lat="43.4359167" lon="10.831615"><ele>230.0</ele><time>2026-04-04T09:39:34.324Z</time></trkpt><trkpt lat="43.4359267" lon="10.8318333"><ele>231.0</ele><time>2026-04-04T09:39:35.324Z</time></trkpt><trkpt lat="43.4359417" lon="10.83204"><ele>231.0</ele><time>2026-04-04T09:39:36.324Z</time></trkpt><trkpt lat="43.4359483" lon="10.832215"><ele>231.00000000000003</ele><time>2026-04-04T09:39:37.324Z</time></trkpt><trkpt lat="43.435945" lon="10.8323533"><ele>231.00000000000003</ele><time>2026-04-04T09:39:38.324Z</time></trkpt><trkpt lat="43.435925" lon="10.832485"><ele>231.0</ele><time>2026-04-04T09:39:39.325Z</time></trkpt><trkpt lat="43.4358717" lon="10.8325933"><ele>231.0</ele><time>2026-04-04T09:39:40.325Z</time></trkpt><trkpt lat="43.4358133" lon="10.832685"><ele>229.66666666666666</ele><time>2026-04-04T09:39:41.325Z</time></trkpt><trkpt lat="43.4357567" lon="10.8327483"><ele>228.33333333333331</ele><time>2026-04-04T09:39:42.325Z</time></trkpt><trkpt lat="43.4356917" lon="10.8327967"><ele>227.0</ele><time>2026-04-04T09:39:43.325Z</time></trkpt><trkpt lat="43.4356067" lon="10.8328283"><ele>225.66666666666666</ele><time>2026-04-04T09:39:44.324Z</time></trkpt><trkpt lat="43.4355167" lon="10.8328133"><ele>224.33333333333331</ele><time>2026-04-04T09:39:45.324Z</time></trkpt><trkpt lat="43.4354033" lon="10.8327917"><ele>223.0</ele><time>2026-04-04T09:39:46.324Z</time></trkpt><trkpt lat="43.4352683" lon="10.8327667"><ele>223.0</ele><time>2026-04-04T09:39:47.324Z</time></trkpt><trkpt lat="43.4351467" lon="10.8327567"><ele>223.0</ele><time>2026-04-04T09:39:48.324Z</time></trkpt><trkpt lat="43.4350417" lon="10.8327717"><ele>223.0</ele><time>2026-04-04T09:39:49.324Z</time></trkpt><trkpt lat="43.4349333" lon="10.8328233"><ele>223.0</ele><time>2026-04-04T09:39:50.324Z</time></trkpt><trkpt lat="43.4348433" lon="10.832905"><ele>223.0</ele><time>2026-04-04T09:39:51.324Z</time></trkpt><trkpt lat="43.4347633" lon="10.832995"><ele>223.0</ele><time>2026-04-04T09:39:52.324Z</time></trkpt><trkpt lat="43.4347033" lon="10.833115"><ele>223.0</ele><time>2026-04-04T09:39:53.324Z</time></trkpt><trkpt lat="43.43465" lon="10.8332583"><ele>223.0</ele><time>2026-04-04T09:39:54.324Z</time></trkpt><trkpt lat="43.4346017" lon="10.83341"><ele>223.0</ele><time>2026-04-04T09:39:55.324Z</time></trkpt><trkpt lat="43.4345433" lon="10.83357"><ele>223.25</ele><time>2026-04-04T09:39:56.324Z</time></trkpt><trkpt lat="43.4344867" lon="10.83371"><ele>223.5</ele><time>2026-04-04T09:39:57.324Z</time></trkpt><trkpt lat="43.43443" lon="10.8338517"><ele>223.75</ele><time>2026-04-04T09:39:58.324Z</time></trkpt><trkpt lat="43.434365" lon="10.8339883"><ele>224.0</ele><time>2026-04-04T09:39:59.324Z</time></trkpt><trkpt lat="43.434285" lon="10.83411"><ele>224.0</ele><time>2026-04-04T09:40:00.324Z</time></trkpt><trkpt lat="43.43419" lon="10.8342233"><ele>224.0</ele><time>2026-04-04T09:40:01.324Z</time></trkpt><trkpt lat="43.4340917" lon="10.8343233"><ele>224.0</ele><time>2026-04-04T09:40:02.324Z</time></trkpt><trkpt lat="43.4340067" lon="10.83442"><ele>224.0</ele><time>2026-04-04T09:40:03.324Z</time></trkpt><trkpt lat="43.43392" lon="10.83451"><ele>221.6</ele><time>2026-04-04T09:40:04.325Z</time></trkpt><trkpt lat="43.43384" lon="10.83458"><ele>219.2</ele><time>2026-04-04T09:40:05.325Z</time></trkpt><trkpt lat="43.4337633" lon="10.8346517"><ele>216.79999999999998</ele><time>2026-04-04T09:40:06.324Z</time></trkpt><trkpt lat="43.4336917" lon="10.8347433"><ele>214.39999999999998</ele><time>2026-04-04T09:40:07.325Z</time></trkpt><trkpt lat="43.433635" lon="10.8348517"><ele>212.0</ele><time>2026-04-04T09:40:08.324Z</time></trkpt><trkpt lat="43.4336133" lon="10.8349683"><ele>212.0</ele><time>2026-04-04T09:40:09.325Z</time></trkpt><trkpt lat="43.433605" lon="10.8351183"><ele>212.0</ele><time>2026-04-04T09:40:10.324Z</time></trkpt><trkpt lat="43.4336033" lon="10.8352767"><ele>212.0</ele><time>2026-04-04T09:40:11.324Z</time></trkpt><trkpt lat="43.433585" lon="10.8354483"><ele>212.0</ele><time>2026-04-04T09:40:12.324Z</time></trkpt><trkpt lat="43.4335483" lon="10.8356217"><ele>212.0</ele><time>2026-04-04T09:40:13.324Z</time></trkpt><trkpt lat="43.433495" lon="10.8357867"><ele>212.0</ele><time>2026-04-04T09:40:14.324Z</time></trkpt><trkpt lat="43.4334333" lon="10.8359583"><ele>212.0</ele><time>2026-04-04T09:40:15.325Z</time></trkpt><trkpt lat="43.43337" lon="10.8361167"><ele>212.0</ele><time>2026-04-04T09:40:16.324Z</time></trkpt><trkpt lat="43.4333067" lon="10.8362617"><ele>213.2</ele><time>2026-04-04T09:40:17.325Z</time></trkpt><trkpt lat="43.4332583" lon="10.836395"><ele>214.39999999999998</ele><time>2026-04-04T09:40:18.324Z</time></trkpt><trkpt lat="43.4332183" lon="10.836535"><ele>215.60000000000002</ele><time>2026-04-04T09:40:19.324Z</time></trkpt><trkpt lat="43.4332083" lon="10.8366733"><ele>216.8</ele><time>2026-04-04T09:40:20.324Z</time></trkpt><trkpt lat="43.4332133" lon="10.8368183"><ele>218.0</ele><time>2026-04-04T09:40:21.324Z</time></trkpt><trkpt lat="43.433235" lon="10.8369583"><ele>220.8</ele><time>2026-04-04T09:40:22.324Z</time></trkpt><trkpt lat="43.4332783" lon="10.8370817"><ele>223.60000000000002</ele><time>2026-04-04T09:40:23.324Z</time></trkpt><trkpt lat="43.4333417" lon="10.83719"><ele>226.39999999999998</ele><time>2026-04-04T09:40:24.324Z</time></trkpt><trkpt lat="43.4334317" lon="10.8372867"><ele>229.2</ele><time>2026-04-04T09:40:25.324Z</time></trkpt><trkpt lat="43.43353" lon="10.83736"><ele>232.0</ele><time>2026-04-04T09:40:26.324Z</time></trkpt><trkpt lat="43.4336317" lon="10.8374383"><ele>232.0</ele><time>2026-04-04T09:40:27.324Z</time></trkpt><trkpt lat="43.4337317" lon="10.8375183"><ele>232.0</ele><time>2026-04-04T09:40:28.324Z</time></trkpt><trkpt lat="43.4338367" lon="10.8376"><ele>232.0</ele><time>2026-04-04T09:40:29.324Z</time></trkpt><trkpt lat="43.433945" lon="10.83769"><ele>232.0</ele><time>2026-04-04T09:40:30.324Z</time></trkpt><trkpt lat="43.434055" lon="10.8377817"><ele>233.6</ele><time>2026-04-04T09:40:31.324Z</time></trkpt><trkpt lat="43.4341633" lon="10.8378767"><ele>235.2</ele><time>2026-04-04T09:40:32.324Z</time></trkpt><trkpt lat="43.43424" lon="10.8379817"><ele>236.8</ele><time>2026-04-04T09:40:33.324Z</time></trkpt><trkpt lat="43.434295" lon="10.8380883"><ele>238.4</ele><time>2026-04-04T09:40:34.324Z</time></trkpt><trkpt lat="43.4343417" lon="10.838195"><ele>240.0</ele><time>2026-04-04T09:40:35.324Z</time></trkpt><trkpt lat="43.43437" lon="10.8383033"><ele>240.0</ele><time>2026-04-04T09:40:36.324Z</time></trkpt><trkpt lat="43.4343767" lon="10.8384183"><ele>240.0</ele><time>2026-04-04T09:40:37.324Z</time></trkpt><trkpt lat="43.43436" lon="10.8385317"><ele>240.0</ele><time>2026-04-04T09:40:38.325Z</time></trkpt><trkpt lat="43.4343267" lon="10.838635"><ele>240.0</ele><time>2026-04-04T09:40:39.324Z</time></trkpt><trkpt lat="43.4342417" lon="10.8387233"><ele>240.0</ele><time>2026-04-04T09:40:40.324Z</time></trkpt><trkpt lat="43.4341583" lon="10.8387833"><ele>238.0</ele><time>2026-04-04T09:40:41.324Z</time></trkpt><trkpt lat="43.4340583" lon="10.8388183"><ele>236.0</ele><time>2026-04-04T09:40:42.324Z</time></trkpt><trkpt lat="43.4339467" lon="10.838835"><ele>234.0</ele><time>2026-04-04T09:40:43.324Z</time></trkpt><trkpt lat="43.4338017" lon="10.8388717"><ele>232.0</ele><time>2026-04-04T09:40:44.324Z</time></trkpt><trkpt lat="43.43365" lon="10.8389083"><ele>232.0</ele><time>2026-04-04T09:40:45.324Z</time></trkpt><trkpt lat="43.4334983" lon="10.83897"><ele>232.0</ele><time>2026-04-04T09:40:46.324Z</time></trkpt><trkpt lat="43.4333533" lon="10.83903"><ele>232.0</ele><time>2026-04-04T09:40:47.324Z</time></trkpt><trkpt lat="43.4332133" lon="10.8390783"><ele>232.0</ele><time>2026-04-04T09:40:48.324Z</time></trkpt><trkpt lat="43.433075" lon="10.8391183"><ele>232.0</ele><time>2026-04-04T09:40:49.324Z</time></trkpt><trkpt lat="43.4329567" lon="10.8391667"><ele>232.0</ele><time>2026-04-04T09:40:50.324Z</time></trkpt><trkpt lat="43.4328533" lon="10.8392217"><ele>232.0</ele><time>2026-04-04T09:40:51.325Z</time></trkpt><trkpt lat="43.4327533" lon="10.8392717"><ele>229.0</ele><time>2026-04-04T09:40:52.324Z</time></trkpt><trkpt lat="43.43265" lon="10.8393717"><ele>226.0</ele><time>2026-04-04T09:40:53.324Z</time></trkpt><trkpt lat="43.4325383" lon="10.8394867"><ele>223.0</ele><time>2026-04-04T09:40:54.324Z</time></trkpt><trkpt lat="43.43242" lon="10.8396083"><ele>220.0</ele><time>2026-04-04T09:40:55.325Z</time></trkpt><trkpt lat="43.432305" lon="10.8397367"><ele>220.0</ele><time>2026-04-04T09:40:56.325Z</time></trkpt><trkpt lat="43.4321817" lon="10.839875"><ele>220.0</ele><time>2026-04-04T09:40:57.324Z</time></trkpt><trkpt lat="43.43207" lon="10.84002"><ele>220.0</ele><time>2026-04-04T09:40:58.324Z</time></trkpt><trkpt lat="43.431965" lon="10.84015"><ele>224.75</ele><time>2026-04-04T09:40:59.324Z</time></trkpt><trkpt lat="43.4318617" lon="10.8402817"><ele>229.5</ele><time>2026-04-04T09:41:00.324Z</time></trkpt><trkpt lat="43.4317567" lon="10.8404033"><ele>234.25</ele><time>2026-04-04T09:41:01.324Z</time></trkpt><trkpt lat="43.43166" lon="10.8405183"><ele>239.0</ele><time>2026-04-04T09:41:02.324Z</time></trkpt><trkpt lat="43.4315767" lon="10.8406117"><ele>239.0</ele><time>2026-04-04T09:41:03.324Z</time></trkpt><trkpt lat="43.431505" lon="10.8407017"><ele>238.99999999999997</ele><time>2026-04-04T09:41:04.324Z</time></trkpt><trkpt lat="43.4314467" lon="10.840785"><ele>238.99999999999997</ele><time>2026-04-04T09:41:05.324Z</time></trkpt><trkpt lat="43.4313983" lon="10.840905"><ele>239.0</ele><time>2026-04-04T09:41:06.324Z</time></trkpt><trkpt lat="43.4313717" lon="10.8410317"><ele>239.0</ele><time>2026-04-04T09:41:07.324Z</time></trkpt><trkpt lat="43.4313617" lon="10.8411683"><ele>240.75</ele><time>2026-04-04T09:41:08.324Z</time></trkpt><trkpt lat="43.431335" lon="10.841285"><ele>242.5</ele><time>2026-04-04T09:41:09.325Z</time></trkpt><trkpt lat="43.4313317" lon="10.8415117"><ele>244.25</ele><time>2026-04-04T09:41:10.324Z</time></trkpt><trkpt lat="43.4313283" lon="10.8417083"><ele>246.0</ele><time>2026-04-04T09:41:11.325Z</time></trkpt><trkpt lat="43.4313633" lon="10.841845"><ele>248.25</ele><time>2026-04-04T09:41:12.325Z</time></trkpt><trkpt lat="43.431425" lon="10.8419567"><ele>250.5</ele><time>2026-04-04T09:41:13.324Z</time></trkpt><trkpt lat="43.4314917" lon="10.8420283"><ele>252.75</ele><time>2026-04-04T09:41:14.324Z</time></trkpt><trkpt lat="43.4317167" lon="10.8420467"><ele>255.0</ele><time>2026-04-04T09:41:15.324Z</time></trkpt><trkpt lat="43.4319283" lon="10.8420717"><ele>255.0</ele><time>2026-04-04T09:41:16.324Z</time></trkpt><trkpt lat="43.4320533" lon="10.8421117"><ele>255.0</ele><time>2026-04-04T09:41:17.324Z</time></trkpt><trkpt lat="43.43219" lon="10.8421533"><ele>255.0</ele><time>2026-04-04T09:41:18.324Z</time></trkpt><trkpt lat="43.4323233" lon="10.842195"><ele>255.0</ele><time>2026-04-04T09:41:19.324Z</time></trkpt><trkpt lat="43.4324583" lon="10.842235"><ele>254.4</ele><time>2026-04-04T09:41:20.324Z</time></trkpt><trkpt lat="43.4325583" lon="10.8422883"><ele>253.8</ele><time>2026-04-04T09:41:21.324Z</time></trkpt><trkpt lat="43.43265" lon="10.8423617"><ele>253.2</ele><time>2026-04-04T09:41:22.324Z</time></trkpt><trkpt lat="43.43272" lon="10.842415"><ele>252.6</ele><time>2026-04-04T09:41:23.324Z</time></trkpt><trkpt lat="43.432775" lon="10.8424933"><ele>252.0</ele><time>2026-04-04T09:41:24.325Z</time></trkpt><trkpt lat="43.4328267" lon="10.8425783"><ele>251.0</ele><time>2026-04-04T09:41:25.324Z</time></trkpt><trkpt lat="43.4328433" lon="10.842665"><ele>250.0</ele><time>2026-04-04T09:41:26.325Z</time></trkpt><trkpt lat="43.43283" lon="10.8427533"><ele>249.0</ele><time>2026-04-04T09:41:27.325Z</time></trkpt><trkpt lat="43.4327883" lon="10.8429"><ele>248.0</ele><time>2026-04-04T09:41:29.324Z</time></trkpt><trkpt lat="43.43272" lon="10.8429383"><ele>247.0</ele><time>2026-04-04T09:41:31.324Z</time></trkpt><trkpt lat="43.4326317" lon="10.8429133"><ele>246.0</ele><time>2026-04-04T09:41:32.324Z</time></trkpt><trkpt lat="43.4325367" lon="10.8428933"><ele>246.0</ele><time>2026-04-04T09:41:33.324Z</time></trkpt><trkpt lat="43.432415" lon="10.8428867"><ele>246.0</ele><time>2026-04-04T09:41:34.324Z</time></trkpt><trkpt lat="43.4322667" lon="10.8429067"><ele>246.0</ele><time>2026-04-04T09:41:35.324Z</time></trkpt><trkpt lat="43.4320717" lon="10.843"><ele>249.0</ele><time>2026-04-04T09:41:36.324Z</time></trkpt><trkpt lat="43.4318983" lon="10.843085"><ele>252.0</ele><time>2026-04-04T09:41:37.324Z</time></trkpt><trkpt lat="43.431705" lon="10.8432067"><ele>255.0</ele><time>2026-04-04T09:41:38.324Z</time></trkpt><trkpt lat="43.4315017" lon="10.8433567"><ele>257.3333333333333</ele><time>2026-04-04T09:41:39.325Z</time></trkpt><trkpt lat="43.4313233" lon="10.84347"><ele>259.66666666666663</ele><time>2026-04-04T09:41:40.324Z</time></trkpt><trkpt lat="43.43115" lon="10.8435533"><ele>262.0</ele><time>2026-04-04T09:41:41.325Z</time></trkpt><trkpt lat="43.430995" lon="10.843645"><ele>262.0</ele><time>2026-04-04T09:41:42.324Z</time></trkpt><trkpt lat="43.4308433" lon="10.84371"><ele>262.0</ele><time>2026-04-04T09:41:43.324Z</time></trkpt><trkpt lat="43.4307183" lon="10.843735"><ele>262.0</ele><time>2026-04-04T09:41:44.324Z</time></trkpt><trkpt lat="43.4305833" lon="10.843715"><ele>262.0</ele><time>2026-04-04T09:41:45.324Z</time></trkpt><trkpt lat="43.4304283" lon="10.8436717"><ele>261.5</ele><time>2026-04-04T09:41:46.325Z</time></trkpt><trkpt lat="43.4303033" lon="10.84357"><ele>261.0</ele><time>2026-04-04T09:41:47.325Z</time></trkpt><trkpt lat="43.4301817" lon="10.8434583"><ele>260.5</ele><time>2026-04-04T09:41:48.325Z</time></trkpt><trkpt lat="43.43007" lon="10.843355"><ele>260.0</ele><time>2026-04-04T09:41:49.325Z</time></trkpt><trkpt lat="43.4299467" lon="10.8432367"><ele>260.0</ele><time>2026-04-04T09:41:50.325Z</time></trkpt><trkpt lat="43.4298367" lon="10.8431"><ele>260.0</ele><time>2026-04-04T09:41:51.325Z</time></trkpt><trkpt lat="43.4297533" lon="10.8429233"><ele>260.0</ele><time>2026-04-04T09:41:52.324Z</time></trkpt><trkpt lat="43.4296767" lon="10.8427383"><ele>256.33333333333337</ele><time>2026-04-04T09:41:53.324Z</time></trkpt><trkpt lat="43.4295883" lon="10.842545"><ele>252.66666666666669</ele><time>2026-04-04T09:41:54.324Z</time></trkpt><trkpt lat="43.429485" lon="10.8423317"><ele>249.0</ele><time>2026-04-04T09:41:55.324Z</time></trkpt><trkpt lat="43.429375" lon="10.842105"><ele>249.0</ele><time>2026-04-04T09:41:56.324Z</time></trkpt><trkpt lat="43.4292417" lon="10.8419033"><ele>249.0</ele><time>2026-04-04T09:41:57.324Z</time></trkpt><trkpt lat="43.4291067" lon="10.8417067"><ele>249.0</ele><time>2026-04-04T09:41:58.325Z</time></trkpt><trkpt lat="43.428965" lon="10.8415333"><ele>247.66666666666669</ele><time>2026-04-04T09:41:59.324Z</time></trkpt><trkpt lat="43.4288283" lon="10.841355"><ele>246.33333333333334</ele><time>2026-04-04T09:42:00.325Z</time></trkpt><trkpt lat="43.428705" lon="10.8411683"><ele>245.0</ele><time>2026-04-04T09:42:01.324Z</time></trkpt><trkpt lat="43.42861" lon="10.84096"><ele>249.5</ele><time>2026-04-04T09:42:02.324Z</time></trkpt><trkpt lat="43.42853" lon="10.8407667"><ele>254.0</ele><time>2026-04-04T09:42:03.324Z</time></trkpt><trkpt lat="43.4284517" lon="10.8406083"><ele>258.5</ele><time>2026-04-04T09:42:04.325Z</time></trkpt><trkpt lat="43.428375" lon="10.8404767"><ele>263.0</ele><time>2026-04-04T09:42:05.325Z</time></trkpt><trkpt lat="43.4282567" lon="10.8404167"><ele>263.0</ele><time>2026-04-04T09:42:06.324Z</time></trkpt><trkpt lat="43.4281133" lon="10.8403917"><ele>263.0</ele><time>2026-04-04T09:42:07.324Z</time></trkpt><trkpt lat="43.427945" lon="10.8403667"><ele>263.0</ele><time>2026-04-04T09:42:08.324Z</time></trkpt><trkpt lat="43.427775" lon="10.8403317"><ele>261.0</ele><time>2026-04-04T09:42:09.324Z</time></trkpt><trkpt lat="43.4276133" lon="10.8402767"><ele>259.0</ele><time>2026-04-04T09:42:10.324Z</time></trkpt><trkpt lat="43.4274667" lon="10.8402117"><ele>257.0</ele><time>2026-04-04T09:42:11.324Z</time></trkpt><trkpt lat="43.4273267" lon="10.8401517"><ele>258.33333333333337</ele><time>2026-04-04T09:42:12.324Z</time></trkpt><trkpt lat="43.4271817" lon="10.8401017"><ele>259.6666666666667</ele><time>2026-04-04T09:42:13.324Z</time></trkpt><trkpt lat="43.4270233" lon="10.8401417"><ele>261.0</ele><time>2026-04-04T09:42:14.325Z</time></trkpt><trkpt lat="43.4268667" lon="10.8402033"><ele>261.0</ele><time>2026-04-04T09:42:15.324Z</time></trkpt><trkpt lat="43.4266883" lon="10.840305"><ele>261.0</ele><time>2026-04-04T09:42:16.325Z</time></trkpt><trkpt lat="43.4264967" lon="10.8404183"><ele>261.0</ele><time>2026-04-04T09:42:17.325Z</time></trkpt><trkpt lat="43.4262983" lon="10.8405333"><ele>263.3333333333333</ele><time>2026-04-04T09:42:18.325Z</time></trkpt><trkpt lat="43.426095" lon="10.84064"><ele>265.66666666666663</ele><time>2026-04-04T09:42:19.324Z</time></trkpt><trkpt lat="43.4259017" lon="10.8407533"><ele>268.0</ele><time>2026-04-04T09:42:20.324Z</time></trkpt><trkpt lat="43.4255667" lon="10.8409917"><ele>271.66666666666663</ele><time>2026-04-04T09:42:22.324Z</time></trkpt><trkpt lat="43.42543" lon="10.8411517"><ele>275.3333333333333</ele><time>2026-04-04T09:42:23.324Z</time></trkpt><trkpt lat="43.4253217" lon="10.8413483"><ele>279.0</ele><time>2026-04-04T09:42:24.324Z</time></trkpt><trkpt lat="43.425245" lon="10.8415233"><ele>279.0</ele><time>2026-04-04T09:42:25.324Z</time></trkpt><trkpt lat="43.42516" lon="10.8416717"><ele>279.0</ele><time>2026-04-04T09:42:26.325Z</time></trkpt><trkpt lat="43.4251" lon="10.8417817"><ele>279.0</ele><time>2026-04-04T09:42:27.324Z</time></trkpt><trkpt lat="43.4250267" lon="10.8418217"><ele>279.0</ele><time>2026-04-04T09:42:28.324Z</time></trkpt><trkpt lat="43.424935" lon="10.8418067"><ele>279.0</ele><time>2026-04-04T09:42:29.324Z</time></trkpt><trkpt lat="43.42483" lon="10.8417233"><ele>279.0</ele><time>2026-04-04T09:42:30.324Z</time></trkpt><trkpt lat="43.42473" lon="10.8415983"><ele>279.0</ele><time>2026-04-04T09:42:31.324Z</time></trkpt><trkpt lat="43.42462" lon="10.841435"><ele>279.0</ele><time>2026-04-04T09:42:32.324Z</time></trkpt><trkpt lat="43.424505" lon="10.8412483"><ele>280.0</ele><time>2026-04-04T09:42:33.325Z</time></trkpt><trkpt lat="43.4243867" lon="10.8410517"><ele>281.0</ele><time>2026-04-04T09:42:34.324Z</time></trkpt><trkpt lat="43.4242483" lon="10.8408833"><ele>282.0</ele><time>2026-04-04T09:42:35.324Z</time></trkpt><trkpt lat="43.4241017" lon="10.8407367"><ele>282.0</ele><time>2026-04-04T09:42:36.325Z</time></trkpt><trkpt lat="43.42395" lon="10.8406267"><ele>282.0</ele><time>2026-04-04T09:42:37.324Z</time></trkpt><trkpt lat="43.4238017" lon="10.8405367"><ele>282.0</ele><time>2026-04-04T09:42:38.324Z</time></trkpt><trkpt lat="43.42365" lon="10.84042"><ele>283.0</ele><time>2026-04-04T09:42:39.325Z</time></trkpt><trkpt lat="43.423505" lon="10.8402917"><ele>284.0</ele><time>2026-04-04T09:42:40.325Z</time></trkpt><trkpt lat="43.4233583" lon="10.8401917"><ele>285.0</ele><time>2026-04-04T09:42:41.325Z</time></trkpt><trkpt lat="43.423205" lon="10.8400833"><ele>285.0</ele><time>2026-04-04T09:42:42.324Z</time></trkpt><trkpt lat="43.4230517" lon="10.8399883"><ele>285.0</ele><time>2026-04-04T09:42:43.324Z</time></trkpt><trkpt lat="43.4228967" lon="10.839935"><ele>285.0</ele><time>2026-04-04T09:42:44.324Z</time></trkpt><trkpt lat="43.42272" lon="10.8399067"><ele>283.6666666666667</ele><time>2026-04-04T09:42:45.324Z</time></trkpt><trkpt lat="43.4225367" lon="10.8399083"><ele>282.33333333333337</ele><time>2026-04-04T09:42:46.324Z</time></trkpt><trkpt lat="43.4223367" lon="10.8399517"><ele>281.0</ele><time>2026-04-04T09:42:47.324Z</time></trkpt><trkpt lat="43.4221633" lon="10.8400083"><ele>281.6666666666667</ele><time>2026-04-04T09:42:48.324Z</time></trkpt><trkpt lat="43.421995" lon="10.8400583"><ele>282.3333333333333</ele><time>2026-04-04T09:42:49.324Z</time></trkpt><trkpt lat="43.421835" lon="10.8401117"><ele>283.0</ele><time>2026-04-04T09:42:50.324Z</time></trkpt><trkpt lat="43.421695" lon="10.8401867"><ele>279.66666666666663</ele><time>2026-04-04T09:42:51.324Z</time></trkpt><trkpt lat="43.4215633" lon="10.840295"><ele>276.3333333333333</ele><time>2026-04-04T09:42:52.325Z</time></trkpt><trkpt lat="43.42143" lon="10.8404183"><ele>273.0</ele><time>2026-04-04T09:42:53.324Z</time></trkpt><trkpt lat="43.4212917" lon="10.8405583"><ele>273.0</ele><time>2026-04-04T09:42:54.325Z</time></trkpt><trkpt lat="43.42116" lon="10.8406917"><ele>273.0</ele><time>2026-04-04T09:42:55.324Z</time></trkpt><trkpt lat="43.42105" lon="10.8408317"><ele>273.0</ele><time>2026-04-04T09:42:56.324Z</time></trkpt><trkpt lat="43.42094" lon="10.84099"><ele>274.6666666666667</ele><time>2026-04-04T09:42:57.324Z</time></trkpt><trkpt lat="43.4208367" lon="10.8411583"><ele>276.33333333333337</ele><time>2026-04-04T09:42:58.325Z</time></trkpt><trkpt lat="43.4207367" lon="10.84133"><ele>278.0</ele><time>2026-04-04T09:42:59.325Z</time></trkpt><trkpt lat="43.4206317" lon="10.8415017"><ele>278.0</ele><time>2026-04-04T09:43:00.324Z</time></trkpt><trkpt lat="43.4205367" lon="10.8416633"><ele>278.0</ele><time>2026-04-04T09:43:01.324Z</time></trkpt><trkpt lat="43.4204633" lon="10.8418317"><ele>278.0</ele><time>2026-04-04T09:43:02.325Z</time></trkpt><trkpt lat="43.42043" lon="10.8420417"><ele>282.6666666666667</ele><time>2026-04-04T09:43:03.324Z</time></trkpt><trkpt lat="43.4204133" lon="10.8422533"><ele>287.3333333333333</ele><time>2026-04-04T09:43:04.324Z</time></trkpt><trkpt lat="43.4204383" lon="10.8424817"><ele>292.0</ele><time>2026-04-04T09:43:05.324Z</time></trkpt><trkpt lat="43.420445" lon="10.8427017"><ele>294.0</ele><time>2026-04-04T09:43:06.325Z</time></trkpt><trkpt lat="43.4204383" lon="10.842915"><ele>296.0</ele><time>2026-04-04T09:43:07.324Z</time></trkpt><trkpt lat="43.4204067" lon="10.8431283"><ele>298.0</ele><time>2026-04-04T09:43:08.324Z</time></trkpt><trkpt lat="43.4203667" lon="10.8433367"><ele>296.0</ele><time>2026-04-04T09:43:09.325Z</time></trkpt><trkpt lat="43.420325" lon="10.8435017"><ele>294.0</ele><time>2026-04-04T09:43:10.323Z</time></trkpt><trkpt lat="43.4202833" lon="10.8436283"><ele>292.0</ele><time>2026-04-04T09:43:11.324Z</time></trkpt><trkpt lat="43.4202067" lon="10.843785"><ele>290.0</ele><time>2026-04-04T09:43:12.323Z</time></trkpt><trkpt lat="43.4201217" lon="10.8439167"><ele>290.0</ele><time>2026-04-04T09:43:13.323Z</time></trkpt><trkpt lat="43.4200267" lon="10.8440367"><ele>290.0</ele><time>2026-04-04T09:43:14.323Z</time></trkpt><trkpt lat="43.41991" lon="10.8441167"><ele>290.0</ele><time>2026-04-04T09:43:15.323Z</time></trkpt><trkpt lat="43.4197633" lon="10.844165"><ele>290.0</ele><time>2026-04-04T09:43:16.323Z</time></trkpt><trkpt lat="43.4196183" lon="10.8442133"><ele>291.0</ele><time>2026-04-04T09:43:17.323Z</time></trkpt><trkpt lat="43.4194817" lon="10.844295"><ele>292.0</ele><time>2026-04-04T09:43:18.323Z</time></trkpt><trkpt lat="43.419355" lon="10.84439"><ele>293.0</ele><time>2026-04-04T09:43:19.323Z</time></trkpt><trkpt lat="43.419235" lon="10.8445017"><ele>294.0</ele><time>2026-04-04T09:43:20.323Z</time></trkpt><trkpt lat="43.4191183" lon="10.844605"><ele>294.0</ele><time>2026-04-04T09:43:21.324Z</time></trkpt><trkpt lat="43.4190033" lon="10.8446983"><ele>294.0</ele><time>2026-04-04T09:43:22.324Z</time></trkpt><trkpt lat="43.4188883" lon="10.8447983"><ele>294.0</ele><time>2026-04-04T09:43:23.323Z</time></trkpt><trkpt lat="43.4187967" lon="10.8448833"><ele>294.0</ele><time>2026-04-04T09:43:24.323Z</time></trkpt><trkpt lat="43.4187217" lon="10.8449867"><ele>293.0</ele><time>2026-04-04T09:43:25.323Z</time></trkpt><trkpt lat="43.41866" lon="10.845115"><ele>292.0</ele><time>2026-04-04T09:43:26.323Z</time></trkpt><trkpt lat="43.41862" lon="10.8452483"><ele>291.0</ele><time>2026-04-04T09:43:27.323Z</time></trkpt><trkpt lat="43.4186033" lon="10.845375"><ele>290.0</ele><time>2026-04-04T09:43:28.323Z</time></trkpt><trkpt lat="43.418595" lon="10.8455167"><ele>289.0</ele><time>2026-04-04T09:43:29.324Z</time></trkpt><trkpt lat="43.4185817" lon="10.845655"><ele>291.8</ele><time>2026-04-04T09:43:30.324Z</time></trkpt><trkpt lat="43.418575" lon="10.8458"><ele>294.59999999999997</ele><time>2026-04-04T09:43:31.323Z</time></trkpt><trkpt lat="43.4185533" lon="10.8459617"><ele>297.4</ele><time>2026-04-04T09:43:32.323Z</time></trkpt><trkpt lat="43.418515" lon="10.84611"><ele>300.2</ele><time>2026-04-04T09:43:33.323Z</time></trkpt><trkpt lat="43.418475" lon="10.846235"><ele>303.0</ele><time>2026-04-04T09:43:34.323Z</time></trkpt><trkpt lat="43.418425" lon="10.8463433"><ele>304.6666666666667</ele><time>2026-04-04T09:43:35.323Z</time></trkpt><trkpt lat="43.4183783" lon="10.846465"><ele>306.3333333333333</ele><time>2026-04-04T09:43:36.323Z</time></trkpt><trkpt lat="43.41835" lon="10.8465867"><ele>308.0</ele><time>2026-04-04T09:43:37.323Z</time></trkpt><trkpt lat="43.41834" lon="10.8467133"><ele>309.66666666666663</ele><time>2026-04-04T09:43:38.323Z</time></trkpt><trkpt lat="43.4183367" lon="10.8468233"><ele>311.3333333333333</ele><time>2026-04-04T09:43:39.324Z</time></trkpt><trkpt lat="43.41832" lon="10.8469167"><ele>313.0</ele><time>2026-04-04T09:43:40.323Z</time></trkpt><trkpt lat="43.418285" lon="10.8470067"><ele>313.0</ele><time>2026-04-04T09:43:41.323Z</time></trkpt><trkpt lat="43.4182233" lon="10.8470767"><ele>313.0</ele><time>2026-04-04T09:43:42.323Z</time></trkpt><trkpt lat="43.41815" lon="10.84715"><ele>313.0</ele><time>2026-04-04T09:43:43.323Z</time></trkpt><trkpt lat="43.4180867" lon="10.8472167"><ele>313.0</ele><time>2026-04-04T09:43:44.323Z</time></trkpt><trkpt lat="43.4180233" lon="10.8472867"><ele>313.0</ele><time>2026-04-04T09:43:45.324Z</time></trkpt><trkpt lat="43.4179733" lon="10.84736"><ele>313.0</ele><time>2026-04-04T09:43:46.323Z</time></trkpt><trkpt lat="43.4179317" lon="10.8474533"><ele>319.75</ele><time>2026-04-04T09:43:47.323Z</time></trkpt><trkpt lat="43.4179067" lon="10.8475833"><ele>326.5</ele><time>2026-04-04T09:43:48.324Z</time></trkpt><trkpt lat="43.4178967" lon="10.8477367"><ele>333.25</ele><time>2026-04-04T09:43:49.323Z</time></trkpt><trkpt lat="43.4179133" lon="10.84793"><ele>340.0</ele><time>2026-04-04T09:43:50.323Z</time></trkpt><trkpt lat="43.4179333" lon="10.8481267"><ele>339.25</ele><time>2026-04-04T09:43:51.323Z</time></trkpt><trkpt lat="43.4179567" lon="10.8483117"><ele>338.5</ele><time>2026-04-04T09:43:52.323Z</time></trkpt><trkpt lat="43.4179783" lon="10.8484783"><ele>337.75</ele><time>2026-04-04T09:43:53.323Z</time></trkpt><trkpt lat="43.4180167" lon="10.84864"><ele>337.0</ele><time>2026-04-04T09:43:54.324Z</time></trkpt><trkpt lat="43.4180733" lon="10.8487833"><ele>337.0</ele><time>2026-04-04T09:43:55.323Z</time></trkpt><trkpt lat="43.4181467" lon="10.8489083"><ele>337.0</ele><time>2026-04-04T09:43:56.324Z</time></trkpt><trkpt lat="43.41822" lon="10.8490233"><ele>337.0</ele><time>2026-04-04T09:43:57.323Z</time></trkpt><trkpt lat="43.4182933" lon="10.8491383"><ele>337.0</ele><time>2026-04-04T09:43:58.323Z</time></trkpt><trkpt lat="43.4183433" lon="10.8492667"><ele>337.0</ele><time>2026-04-04T09:43:59.323Z</time></trkpt><trkpt lat="43.4183733" lon="10.8494183"><ele>340.0</ele><time>2026-04-04T09:44:00.323Z</time></trkpt><trkpt lat="43.4183883" lon="10.849605"><ele>343.0</ele><time>2026-04-04T09:44:01.323Z</time></trkpt><trkpt lat="43.4183883" lon="10.849835"><ele>346.0</ele><time>2026-04-04T09:44:02.323Z</time></trkpt><trkpt lat="43.4183917" lon="10.8501033"><ele>349.0</ele><time>2026-04-04T09:44:03.323Z</time></trkpt><trkpt lat="43.418425" lon="10.8503783"><ele>352.0</ele><time>2026-04-04T09:44:04.324Z</time></trkpt><trkpt lat="43.418445" lon="10.8506417"><ele>355.0</ele><time>2026-04-04T09:44:05.323Z</time></trkpt><trkpt lat="43.4184483" lon="10.850915"><ele>356.66666666666663</ele><time>2026-04-04T09:44:06.323Z</time></trkpt><trkpt lat="43.418445" lon="10.8511733"><ele>358.3333333333333</ele><time>2026-04-04T09:44:07.324Z</time></trkpt><trkpt lat="43.4184283" lon="10.8514067"><ele>360.0</ele><time>2026-04-04T09:44:08.323Z</time></trkpt><trkpt lat="43.4184017" lon="10.8516283"><ele>361.25</ele><time>2026-04-04T09:44:09.324Z</time></trkpt><trkpt lat="43.4184033" lon="10.85182"><ele>362.5</ele><time>2026-04-04T09:44:10.323Z</time></trkpt><trkpt lat="43.4184167" lon="10.851995"><ele>363.75</ele><time>2026-04-04T09:44:11.323Z</time></trkpt><trkpt lat="43.4184517" lon="10.8521483"><ele>365.0</ele><time>2026-04-04T09:44:12.324Z</time></trkpt><trkpt lat="43.41853" lon="10.8522933"><ele>365.0</ele><time>2026-04-04T09:44:13.324Z</time></trkpt><trkpt lat="43.4186" lon="10.8524433"><ele>365.0</ele><time>2026-04-04T09:44:14.323Z</time></trkpt><trkpt lat="43.4186567" lon="10.8525917"><ele>365.0</ele><time>2026-04-04T09:44:15.323Z</time></trkpt><trkpt lat="43.418705" lon="10.8527383"><ele>365.0</ele><time>2026-04-04T09:44:16.323Z</time></trkpt><trkpt lat="43.4187333" lon="10.8529"><ele>368.0</ele><time>2026-04-04T09:44:17.323Z</time></trkpt><trkpt lat="43.4187483" lon="10.8530767"><ele>371.0</ele><time>2026-04-04T09:44:18.324Z</time></trkpt><trkpt lat="43.4187667" lon="10.8532383"><ele>374.0</ele><time>2026-04-04T09:44:19.323Z</time></trkpt><trkpt lat="43.418785" lon="10.8534017"><ele>377.0</ele><time>2026-04-04T09:44:20.323Z</time></trkpt><trkpt lat="43.4187733" lon="10.853545"><ele>377.0</ele><time>2026-04-04T09:44:21.323Z</time></trkpt><trkpt lat="43.4187417" lon="10.8536783"><ele>377.0</ele><time>2026-04-04T09:44:22.323Z</time></trkpt><trkpt lat="43.4187083" lon="10.85381"><ele>377.0</ele><time>2026-04-04T09:44:23.323Z</time></trkpt><trkpt lat="43.4186717" lon="10.8539517"><ele>377.0</ele><time>2026-04-04T09:44:24.323Z</time></trkpt><trkpt lat="43.4186417" lon="10.8541083"><ele>377.0</ele><time>2026-04-04T09:44:25.323Z</time></trkpt><trkpt lat="43.4186283" lon="10.8542733"><ele>377.0</ele><time>2026-04-04T09:44:26.324Z</time></trkpt><trkpt lat="43.4186067" lon="10.8544417"><ele>377.0</ele><time>2026-04-04T09:44:27.323Z</time></trkpt><trkpt lat="43.4185917" lon="10.854615"><ele>377.0</ele><time>2026-04-04T09:44:28.323Z</time></trkpt><trkpt lat="43.41858" lon="10.85477"><ele>377.0</ele><time>2026-04-04T09:44:29.323Z</time></trkpt><trkpt lat="43.4185783" lon="10.8549467"><ele>377.0</ele><time>2026-04-04T09:44:30.323Z</time></trkpt><trkpt lat="43.41858" lon="10.8551117"><ele>377.0</ele><time>2026-04-04T09:44:31.324Z</time></trkpt><trkpt lat="43.4185833" lon="10.8552733"><ele>377.0</ele><time>2026-04-04T09:44:32.324Z</time></trkpt><trkpt lat="43.4185833" lon="10.8554233"><ele>377.0</ele><time>2026-04-04T09:44:33.323Z</time></trkpt><trkpt lat="43.418575" lon="10.8555633"><ele>377.0</ele><time>2026-04-04T09:44:34.324Z</time></trkpt><trkpt lat="43.4185683" lon="10.8556817"><ele>375.6666666666667</ele><time>2026-04-04T09:44:35.323Z</time></trkpt><trkpt lat="43.4185433" lon="10.8557933"><ele>374.33333333333337</ele><time>2026-04-04T09:44:36.323Z</time></trkpt><trkpt lat="43.4185033" lon="10.8558817"><ele>373.0</ele><time>2026-04-04T09:44:37.323Z</time></trkpt><trkpt lat="43.4184483" lon="10.8559533"><ele>371.6666666666667</ele><time>2026-04-04T09:44:38.323Z</time></trkpt><trkpt lat="43.41839" lon="10.8560467"><ele>370.3333333333333</ele><time>2026-04-04T09:44:39.323Z</time></trkpt><trkpt lat="43.4183417" lon="10.8561283"><ele>369.0</ele><time>2026-04-04T09:44:40.323Z</time></trkpt><trkpt lat="43.418265" lon="10.8561817"><ele>369.0</ele><time>2026-04-04T09:44:41.324Z</time></trkpt><trkpt lat="43.4182033" lon="10.856265"><ele>369.0</ele><time>2026-04-04T09:44:42.323Z</time></trkpt><trkpt lat="43.4181217" lon="10.8563333"><ele>369.0</ele><time>2026-04-04T09:44:43.324Z</time></trkpt><trkpt lat="43.4180483" lon="10.8564217"><ele>369.0</ele><time>2026-04-04T09:44:44.323Z</time></trkpt><trkpt lat="43.4179833" lon="10.8564983"><ele>369.0</ele><time>2026-04-04T09:44:45.323Z</time></trkpt><trkpt lat="43.4179333" lon="10.8565867"><ele>369.0</ele><time>2026-04-04T09:44:46.323Z</time></trkpt><trkpt lat="43.4179133" lon="10.8566817"><ele>362.79999999999995</ele><time>2026-04-04T09:44:47.323Z</time></trkpt><trkpt lat="43.4178867" lon="10.8568267"><ele>356.59999999999997</ele><time>2026-04-04T09:44:49.323Z</time></trkpt><trkpt lat="43.4178267" lon="10.8569433"><ele>350.4</ele><time>2026-04-04T09:44:51.323Z</time></trkpt><trkpt lat="43.4177233" lon="10.8569767"><ele>344.2</ele><time>2026-04-04T09:44:53.323Z</time></trkpt><trkpt lat="43.4176567" lon="10.8569583"><ele>338.0</ele><time>2026-04-04T09:44:54.324Z</time></trkpt><trkpt lat="43.41758" lon="10.8569117"><ele>338.0</ele><time>2026-04-04T09:44:55.324Z</time></trkpt><trkpt lat="43.4175083" lon="10.8568483"><ele>338.0</ele><time>2026-04-04T09:44:56.323Z</time></trkpt><trkpt lat="43.4174383" lon="10.85676"><ele>338.0</ele><time>2026-04-04T09:44:57.323Z</time></trkpt><trkpt lat="43.41739" lon="10.8566317"><ele>338.0</ele><time>2026-04-04T09:44:58.323Z</time></trkpt><trkpt lat="43.41735" lon="10.8565"><ele>338.0</ele><time>2026-04-04T09:44:59.323Z</time></trkpt><trkpt lat="43.417315" lon="10.8563667"><ele>345.75</ele><time>2026-04-04T09:45:00.323Z</time></trkpt><trkpt lat="43.41729" lon="10.8562217"><ele>353.5</ele><time>2026-04-04T09:45:01.324Z</time></trkpt><trkpt lat="43.4172783" lon="10.8560567"><ele>361.25</ele><time>2026-04-04T09:45:02.324Z</time></trkpt><trkpt lat="43.4172867" lon="10.855815"><ele>369.0</ele><time>2026-04-04T09:45:03.323Z</time></trkpt><trkpt lat="43.417275" lon="10.85558"><ele>373.3333333333333</ele><time>2026-04-04T09:45:04.323Z</time></trkpt><trkpt lat="43.4172567" lon="10.8553267"><ele>377.66666666666663</ele><time>2026-04-04T09:45:05.323Z</time></trkpt><trkpt lat="43.4172233" lon="10.8550717"><ele>382.0</ele><time>2026-04-04T09:45:06.323Z</time></trkpt><trkpt lat="43.4171817" lon="10.8548183"><ele>381.66666666666663</ele><time>2026-04-04T09:45:07.323Z</time></trkpt><trkpt lat="43.41713" lon="10.8546017"><ele>381.3333333333333</ele><time>2026-04-04T09:45:08.323Z</time></trkpt><trkpt lat="43.41707" lon="10.8544033"><ele>381.0</ele><time>2026-04-04T09:45:09.323Z</time></trkpt><trkpt lat="43.4170117" lon="10.8541867"><ele>381.0</ele><time>2026-04-04T09:45:10.323Z</time></trkpt><trkpt lat="43.4169667" lon="10.8540167"><ele>381.0</ele><time>2026-04-04T09:45:11.323Z</time></trkpt><trkpt lat="43.4169383" lon="10.8538667"><ele>381.0</ele><time>2026-04-04T09:45:12.323Z</time></trkpt><trkpt lat="43.4169267" lon="10.8537083"><ele>381.0</ele><time>2026-04-04T09:45:13.323Z</time></trkpt><trkpt lat="43.416925" lon="10.8535433"><ele>385.4</ele><time>2026-04-04T09:45:14.324Z</time></trkpt><trkpt lat="43.4169267" lon="10.853395"><ele>389.8</ele><time>2026-04-04T09:45:15.323Z</time></trkpt><trkpt lat="43.4169133" lon="10.8532467"><ele>394.2</ele><time>2026-04-04T09:45:16.323Z</time></trkpt><trkpt lat="43.4168817" lon="10.853135"><ele>398.59999999999997</ele><time>2026-04-04T09:45:17.323Z</time></trkpt><trkpt lat="43.4168083" lon="10.8530517"><ele>403.0</ele><time>2026-04-04T09:45:18.323Z</time></trkpt><trkpt lat="43.4167233" lon="10.8529733"><ele>403.0</ele><time>2026-04-04T09:45:19.323Z</time></trkpt><trkpt lat="43.4166367" lon="10.8529033"><ele>403.0</ele><time>2026-04-04T09:45:20.323Z</time></trkpt><trkpt lat="43.416555" lon="10.8528383"><ele>403.0</ele><time>2026-04-04T09:45:21.323Z</time></trkpt><trkpt lat="43.416465" lon="10.852755"><ele>403.0</ele><time>2026-04-04T09:45:22.323Z</time></trkpt><trkpt lat="43.4163817" lon="10.8526633"><ele>403.0</ele><time>2026-04-04T09:45:23.323Z</time></trkpt><trkpt lat="43.41631" lon="10.852525"><ele>403.0</ele><time>2026-04-04T09:45:24.323Z</time></trkpt><trkpt lat="43.416235" lon="10.8523633"><ele>403.0</ele><time>2026-04-04T09:45:25.323Z</time></trkpt><trkpt lat="43.416155" lon="10.8522067"><ele>403.0</ele><time>2026-04-04T09:45:26.323Z</time></trkpt><trkpt lat="43.416065" lon="10.8520517"><ele>403.0</ele><time>2026-04-04T09:45:27.323Z</time></trkpt><trkpt lat="43.4159683" lon="10.8518983"><ele>404.75</ele><time>2026-04-04T09:45:28.323Z</time></trkpt><trkpt lat="43.41586" lon="10.8517733"><ele>406.5</ele><time>2026-04-04T09:45:29.323Z</time></trkpt><trkpt lat="43.4157267" lon="10.8516717"><ele>408.25</ele><time>2026-04-04T09:45:30.323Z</time></trkpt><trkpt lat="43.4155933" lon="10.8515667"><ele>410.0</ele><time>2026-04-04T09:45:31.323Z</time></trkpt><trkpt lat="43.415465" lon="10.8514517"><ele>410.0</ele><time>2026-04-04T09:45:32.323Z</time></trkpt><trkpt lat="43.4153483" lon="10.8513317"><ele>410.0</ele><time>2026-04-04T09:45:33.324Z</time></trkpt><trkpt lat="43.4152317" lon="10.8512167"><ele>410.0</ele><time>2026-04-04T09:45:34.323Z</time></trkpt><trkpt lat="43.4151167" lon="10.8511217"><ele>410.0</ele><time>2026-04-04T09:45:35.323Z</time></trkpt><trkpt lat="43.414995" lon="10.8510433"><ele>410.0</ele><time>2026-04-04T09:45:36.323Z</time></trkpt><trkpt lat="43.41487" lon="10.8509883"><ele>410.0</ele><time>2026-04-04T09:45:37.323Z</time></trkpt><trkpt lat="43.414745" lon="10.8509867"><ele>410.0</ele><time>2026-04-04T09:45:38.323Z</time></trkpt><trkpt lat="43.4146317" lon="10.85103"><ele>410.0</ele><time>2026-04-04T09:45:39.324Z</time></trkpt><trkpt lat="43.414535" lon="10.851095"><ele>415.75</ele><time>2026-04-04T09:45:40.323Z</time></trkpt><trkpt lat="43.4144483" lon="10.8511733"><ele>421.5</ele><time>2026-04-04T09:45:41.323Z</time></trkpt><trkpt lat="43.4143633" lon="10.8512817"><ele>427.25</ele><time>2026-04-04T09:45:42.323Z</time></trkpt><trkpt lat="43.4142933" lon="10.8514033"><ele>433.0</ele><time>2026-04-04T09:45:43.323Z</time></trkpt><trkpt lat="43.414235" lon="10.85156"><ele>433.0</ele><time>2026-04-04T09:45:44.323Z</time></trkpt><trkpt lat="43.4141867" lon="10.851735"><ele>433.0</ele><time>2026-04-04T09:45:45.323Z</time></trkpt><trkpt lat="43.414145" lon="10.8519217"><ele>433.0</ele><time>2026-04-04T09:45:46.324Z</time></trkpt><trkpt lat="43.41409" lon="10.8521083"><ele>433.0</ele><time>2026-04-04T09:45:47.323Z</time></trkpt><trkpt lat="43.414035" lon="10.852305"><ele>431.75</ele><time>2026-04-04T09:45:48.323Z</time></trkpt><trkpt lat="43.413985" lon="10.8524917"><ele>430.5</ele><time>2026-04-04T09:45:49.324Z</time></trkpt><trkpt lat="43.4139267" lon="10.8526533"><ele>429.25</ele><time>2026-04-04T09:45:50.323Z</time></trkpt><trkpt lat="43.413855" lon="10.8528017"><ele>428.0</ele><time>2026-04-04T09:45:51.323Z</time></trkpt><trkpt lat="43.413775" lon="10.852915"><ele>427.66666666666663</ele><time>2026-04-04T09:45:52.324Z</time></trkpt><trkpt lat="43.41369" lon="10.8530033"><ele>427.3333333333333</ele><time>2026-04-04T09:45:53.324Z</time></trkpt><trkpt lat="43.4136083" lon="10.8530533"><ele>427.0</ele><time>2026-04-04T09:45:54.324Z</time></trkpt><trkpt lat="43.4135317" lon="10.853055"><ele>426.66666666666663</ele><time>2026-04-04T09:45:55.323Z</time></trkpt><trkpt lat="43.4134583" lon="10.8530333"><ele>426.3333333333333</ele><time>2026-04-04T09:45:56.323Z</time></trkpt><trkpt lat="43.4133883" lon="10.8529467"><ele>426.0</ele><time>2026-04-04T09:45:57.323Z</time></trkpt><trkpt lat="43.41332" lon="10.852865"><ele>426.0</ele><time>2026-04-04T09:45:58.323Z</time></trkpt><trkpt lat="43.4132467" lon="10.852755"><ele>426.0</ele><time>2026-04-04T09:45:59.324Z</time></trkpt><trkpt lat="43.4131767" lon="10.8526233"><ele>426.0</ele><time>2026-04-04T09:46:00.323Z</time></trkpt><trkpt lat="43.413085" lon="10.85249"><ele>426.0</ele><time>2026-04-04T09:46:01.323Z</time></trkpt><trkpt lat="43.4130067" lon="10.8523583"><ele>426.0</ele><time>2026-04-04T09:46:02.323Z</time></trkpt><trkpt lat="43.41293" lon="10.8522317"><ele>426.0</ele><time>2026-04-04T09:46:03.323Z</time></trkpt><trkpt lat="43.41286" lon="10.8521017"><ele>426.0</ele><time>2026-04-04T09:46:04.323Z</time></trkpt><trkpt lat="43.4127883" lon="10.8520017"><ele>426.0</ele><time>2026-04-04T09:46:05.323Z</time></trkpt><trkpt lat="43.4127083" lon="10.8519067"><ele>426.0</ele><time>2026-04-04T09:46:06.323Z</time></trkpt><trkpt lat="43.4126283" lon="10.8518067"><ele>429.3333333333333</ele><time>2026-04-04T09:46:07.324Z</time></trkpt><trkpt lat="43.412545" lon="10.8517483"><ele>432.66666666666663</ele><time>2026-04-04T09:46:08.323Z</time></trkpt><trkpt lat="43.4124633" lon="10.8517033"><ele>436.0</ele><time>2026-04-04T09:46:09.323Z</time></trkpt><trkpt lat="43.4123817" lon="10.8516633"><ele>439.3333333333333</ele><time>2026-04-04T09:46:10.323Z</time></trkpt><trkpt lat="43.41231" lon="10.8516233"><ele>442.66666666666663</ele><time>2026-04-04T09:46:11.323Z</time></trkpt><trkpt lat="43.41224" lon="10.851595"><ele>446.0</ele><time>2026-04-04T09:46:12.323Z</time></trkpt><trkpt lat="43.412175" lon="10.851595"><ele>447.8333333333333</ele><time>2026-04-04T09:46:13.323Z</time></trkpt><trkpt lat="43.4120717" lon="10.8516683"><ele>449.66666666666663</ele><time>2026-04-04T09:46:15.323Z</time></trkpt><trkpt lat="43.4120183" lon="10.85172"><ele>451.5</ele><time>2026-04-04T09:46:16.324Z</time></trkpt><trkpt lat="43.4119533" lon="10.8517617"><ele>453.33333333333337</ele><time>2026-04-04T09:46:17.324Z</time></trkpt><trkpt lat="43.4118567" lon="10.851815"><ele>455.1666666666667</ele><time>2026-04-04T09:46:19.323Z</time></trkpt><trkpt lat="43.41181" lon="10.8518933"><ele>457.0</ele><time>2026-04-04T09:46:24.323Z</time></trkpt><trkpt lat="43.4117383" lon="10.851905"><ele>453.40000000000003</ele><time>2026-04-04T09:46:27.323Z</time></trkpt><trkpt lat="43.4116433" lon="10.8519417"><ele>449.80000000000007</ele><time>2026-04-04T09:46:29.323Z</time></trkpt><trkpt lat="43.411525" lon="10.8519917"><ele>446.2</ele><time>2026-04-04T09:46:31.323Z</time></trkpt><trkpt lat="43.41146" lon="10.8520267"><ele>442.6</ele><time>2026-04-04T09:46:32.323Z</time></trkpt><trkpt lat="43.41138" lon="10.8520567"><ele>439.0</ele><time>2026-04-04T09:46:33.324Z</time></trkpt><trkpt lat="43.41128" lon="10.85207"><ele>439.0</ele><time>2026-04-04T09:46:34.323Z</time></trkpt><trkpt lat="43.4111717" lon="10.8520717"><ele>439.0</ele><time>2026-04-04T09:46:35.323Z</time></trkpt><trkpt lat="43.41106" lon="10.8520617"><ele>439.0</ele><time>2026-04-04T09:46:36.324Z</time></trkpt><trkpt lat="43.4109467" lon="10.8520533"><ele>439.0</ele><time>2026-04-04T09:46:37.323Z</time></trkpt><trkpt lat="43.4108167" lon="10.8520383"><ele>439.0</ele><time>2026-04-04T09:46:38.323Z</time></trkpt><trkpt lat="43.410685" lon="10.85203"><ele>439.0</ele><time>2026-04-04T09:46:39.323Z</time></trkpt><trkpt lat="43.410555" lon="10.852025"><ele>439.0</ele><time>2026-04-04T09:46:40.323Z</time></trkpt><trkpt lat="43.4104317" lon="10.8520217"><ele>439.0</ele><time>2026-04-04T09:46:41.323Z</time></trkpt><trkpt lat="43.410315" lon="10.8520083"><ele>440.0</ele><time>2026-04-04T09:46:42.323Z</time></trkpt><trkpt lat="43.410215" lon="10.8520083"><ele>441.0</ele><time>2026-04-04T09:46:43.324Z</time></trkpt><trkpt lat="43.41012" lon="10.8520167"><ele>442.0</ele><time>2026-04-04T09:46:44.323Z</time></trkpt><trkpt lat="43.410035" lon="10.852025"><ele>443.0</ele><time>2026-04-04T09:46:45.323Z</time></trkpt><trkpt lat="43.409945" lon="10.85204"><ele>444.0</ele><time>2026-04-04T09:46:46.323Z</time></trkpt><trkpt lat="43.4098483" lon="10.85206"><ele>444.0</ele><time>2026-04-04T09:46:47.323Z</time></trkpt><trkpt lat="43.4097383" lon="10.8520883"><ele>444.0</ele><time>2026-04-04T09:46:48.324Z</time></trkpt><trkpt lat="43.409605" lon="10.8521367"><ele>444.0</ele><time>2026-04-04T09:46:49.324Z</time></trkpt><trkpt lat="43.409465" lon="10.8521583"><ele>444.0</ele><time>2026-04-04T09:46:50.323Z</time></trkpt><trkpt lat="43.4093333" lon="10.8521817"><ele>446.1666666666667</ele><time>2026-04-04T09:46:51.323Z</time></trkpt><trkpt lat="43.40922" lon="10.852205"><ele>448.33333333333337</ele><time>2026-04-04T09:46:52.324Z</time></trkpt><trkpt lat="43.4091183" lon="10.8522333"><ele>450.5</ele><time>2026-04-04T09:46:53.323Z</time></trkpt><trkpt lat="43.4090367" lon="10.85226"><ele>452.6666666666667</ele><time>2026-04-04T09:46:54.324Z</time></trkpt><trkpt lat="43.4089667" lon="10.85229"><ele>454.83333333333337</ele><time>2026-04-04T09:46:55.324Z</time></trkpt><trkpt lat="43.4089033" lon="10.85231"><ele>457.0</ele><time>2026-04-04T09:46:56.324Z</time></trkpt><trkpt lat="43.4088017" lon="10.8523667"><ele>459.40000000000003</ele><time>2026-04-04T09:46:58.323Z</time></trkpt><trkpt lat="43.4087133" lon="10.852455"><ele>461.80000000000007</ele><time>2026-04-04T09:47:00.324Z</time></trkpt><trkpt lat="43.4086383" lon="10.8525633"><ele>464.2</ele><time>2026-04-04T09:47:02.323Z</time></trkpt><trkpt lat="43.4085467" lon="10.8526683"><ele>466.6</ele><time>2026-04-04T09:47:04.323Z</time></trkpt><trkpt lat="43.408495" lon="10.85273"><ele>469.0</ele><time>2026-04-04T09:47:05.324Z</time></trkpt><trkpt lat="43.4084533" lon="10.8528"><ele>469.57142857142856</ele><time>2026-04-04T09:47:06.323Z</time></trkpt><trkpt lat="43.4084217" lon="10.8528817"><ele>470.1428571428571</ele><time>2026-04-04T09:47:07.323Z</time></trkpt><trkpt lat="43.40839" lon="10.852975"><ele>470.7142857142857</ele><time>2026-04-04T09:47:08.323Z</time></trkpt><trkpt lat="43.4083783" lon="10.8530617"><ele>471.2857142857143</ele><time>2026-04-04T09:47:09.323Z</time></trkpt><trkpt lat="43.4083517" lon="10.8531483"><ele>471.85714285714283</ele><time>2026-04-04T09:47:10.323Z</time></trkpt><trkpt lat="43.4083117" lon="10.8532367"><ele>472.42857142857144</ele><time>2026-04-04T09:47:11.323Z</time></trkpt><trkpt lat="43.408255" lon="10.8533317"><ele>473.0</ele><time>2026-04-04T09:47:12.324Z</time></trkpt><trkpt lat="43.408195" lon="10.85343"><ele>473.5</ele><time>2026-04-04T09:47:13.323Z</time></trkpt><trkpt lat="43.4081083" lon="10.8535067"><ele>474.0</ele><time>2026-04-04T09:47:14.323Z</time></trkpt><trkpt lat="43.4079917" lon="10.8535583"><ele>474.5</ele><time>2026-04-04T09:47:15.323Z</time></trkpt><trkpt lat="43.40786" lon="10.8536"><ele>475.0</ele><time>2026-04-04T09:47:16.324Z</time></trkpt><trkpt lat="43.4077367" lon="10.8536367"><ele>475.8</ele><time>2026-04-04T09:47:17.323Z</time></trkpt><trkpt lat="43.4076283" lon="10.8536717"><ele>476.6</ele><time>2026-04-04T09:47:18.323Z</time></trkpt><trkpt lat="43.4075217" lon="10.8537083"><ele>477.4</ele><time>2026-04-04T09:47:19.324Z</time></trkpt><trkpt lat="43.4074317" lon="10.853745"><ele>478.2</ele><time>2026-04-04T09:47:20.324Z</time></trkpt><trkpt lat="43.4073383" lon="10.85378"><ele>479.0</ele><time>2026-04-04T09:47:21.323Z</time></trkpt><trkpt lat="43.407245" lon="10.853805"><ele>479.8333333333333</ele><time>2026-04-04T09:47:22.323Z</time></trkpt><trkpt lat="43.407155" lon="10.8538217"><ele>480.66666666666663</ele><time>2026-04-04T09:47:23.323Z</time></trkpt><trkpt lat="43.4070667" lon="10.85384"><ele>481.5</ele><time>2026-04-04T09:47:24.323Z</time></trkpt><trkpt lat="43.406985" lon="10.8538617"><ele>482.33333333333337</ele><time>2026-04-04T09:47:25.323Z</time></trkpt><trkpt lat="43.4068983" lon="10.8538883"><ele>483.1666666666667</ele><time>2026-04-04T09:47:26.323Z</time></trkpt><trkpt lat="43.4068267" lon="10.8539217"><ele>484.0</ele><time>2026-04-04T09:47:27.324Z</time></trkpt><trkpt lat="43.406755" lon="10.8539533"><ele>484.00000000000006</ele><time>2026-04-04T09:47:28.323Z</time></trkpt><trkpt lat="43.4066817" lon="10.8539767"><ele>484.0</ele><time>2026-04-04T09:47:29.323Z</time></trkpt><trkpt lat="43.4066083" lon="10.854005"><ele>484.0</ele><time>2026-04-04T09:47:30.323Z</time></trkpt><trkpt lat="43.4065317" lon="10.8540333"><ele>484.0</ele><time>2026-04-04T09:47:31.324Z</time></trkpt><trkpt lat="43.406455" lon="10.8540733"><ele>484.00000000000006</ele><time>2026-04-04T09:47:32.324Z</time></trkpt><trkpt lat="43.406375" lon="10.8541233"><ele>484.0</ele><time>2026-04-04T09:47:33.323Z</time></trkpt><trkpt lat="43.4063017" lon="10.8541833"><ele>485.6666666666667</ele><time>2026-04-04T09:47:34.323Z</time></trkpt><trkpt lat="43.406225" lon="10.8542483"><ele>487.33333333333337</ele><time>2026-04-04T09:47:35.323Z</time></trkpt><trkpt lat="43.4061517" lon="10.8543267"><ele>489.0</ele><time>2026-04-04T09:47:36.323Z</time></trkpt><trkpt lat="43.40608" lon="10.8543933"><ele>490.66666666666663</ele><time>2026-04-04T09:47:37.323Z</time></trkpt><trkpt lat="43.4060117" lon="10.8544683"><ele>492.3333333333333</ele><time>2026-04-04T09:47:38.323Z</time></trkpt><trkpt lat="43.405945" lon="10.8545533"><ele>494.0</ele><time>2026-04-04T09:47:39.323Z</time></trkpt><trkpt lat="43.4058783" lon="10.8546183"><ele>493.99999999999994</ele><time>2026-04-04T09:47:40.323Z</time></trkpt><trkpt lat="43.4058217" lon="10.8546883"><ele>494.0</ele><time>2026-04-04T09:47:41.323Z</time></trkpt><trkpt lat="43.4057633" lon="10.8547517"><ele>494.0</ele><time>2026-04-04T09:47:42.323Z</time></trkpt><trkpt lat="43.4057" lon="10.8548283"><ele>494.0</ele><time>2026-04-04T09:47:43.323Z</time></trkpt><trkpt lat="43.405645" lon="10.8548967"><ele>493.99999999999994</ele><time>2026-04-04T09:47:44.323Z</time></trkpt><trkpt lat="43.4055933" lon="10.8549583"><ele>494.0</ele><time>2026-04-04T09:47:45.323Z</time></trkpt><trkpt lat="43.4055133" lon="10.8550417"><ele>496.16666666666663</ele><time>2026-04-04T09:47:47.323Z</time></trkpt><trkpt lat="43.4054467" lon="10.8551"><ele>498.3333333333333</ele><time>2026-04-04T09:47:49.324Z</time></trkpt><trkpt lat="43.40536" lon="10.8551317"><ele>500.5</ele><time>2026-04-04T09:47:52.323Z</time></trkpt><trkpt lat="43.4052817" lon="10.85511"><ele>502.66666666666663</ele><time>2026-04-04T09:47:55.323Z</time></trkpt><trkpt lat="43.405215" lon="10.8550883"><ele>504.8333333333333</ele><time>2026-04-04T09:47:59.323Z</time></trkpt><trkpt lat="43.4051417" lon="10.8550433"><ele>507.0</ele><time>2026-04-04T09:48:11.324Z</time></trkpt><trkpt lat="43.4050633" lon="10.855065"><ele>507.0</ele><time>2026-04-04T09:48:13.324Z</time></trkpt><trkpt lat="43.4049983" lon="10.8550917"><ele>507.0</ele><time>2026-04-04T09:48:14.323Z</time></trkpt><trkpt lat="43.4050183" lon="10.85523"><ele>507.0</ele><time>2026-04-04T09:48:17.323Z</time></trkpt><trkpt lat="43.405055" lon="10.8553167"><ele>507.0</ele><time>2026-04-04T09:48:18.323Z</time></trkpt><trkpt lat="43.4050683" lon="10.855425"><ele>507.0</ele><time>2026-04-04T09:48:19.323Z</time></trkpt><trkpt lat="43.4050883" lon="10.8555233"><ele>507.0</ele><time>2026-04-04T09:48:20.324Z</time></trkpt><trkpt lat="43.4050983" lon="10.8556183"><ele>507.1666666666667</ele><time>2026-04-04T09:48:21.323Z</time></trkpt><trkpt lat="43.4050967" lon="10.8557083"><ele>507.33333333333337</ele><time>2026-04-04T09:48:22.323Z</time></trkpt><trkpt lat="43.405085" lon="10.85588"><ele>507.5</ele><time>2026-04-04T09:48:24.323Z</time></trkpt><trkpt lat="43.4050733" lon="10.8559683"><ele>507.6666666666667</ele><time>2026-04-04T09:48:25.324Z</time></trkpt><trkpt lat="43.405045" lon="10.8560533"><ele>507.83333333333337</ele><time>2026-04-04T09:48:26.324Z</time></trkpt><trkpt lat="43.405005" lon="10.85613"><ele>508.0</ele><time>2026-04-04T09:48:27.323Z</time></trkpt><trkpt lat="43.40496" lon="10.856205"><ele>507.1666666666667</ele><time>2026-04-04T09:48:28.323Z</time></trkpt><trkpt lat="43.404895" lon="10.8563017"><ele>506.33333333333337</ele><time>2026-04-04T09:48:29.322Z</time></trkpt><trkpt lat="43.4048317" lon="10.8563933"><ele>505.5</ele><time>2026-04-04T09:48:30.322Z</time></trkpt><trkpt lat="43.4047667" lon="10.8564817"><ele>504.66666666666663</ele><time>2026-04-04T09:48:31.322Z</time></trkpt><trkpt lat="43.40471" lon="10.856565"><ele>503.8333333333333</ele><time>2026-04-04T09:48:32.322Z</time></trkpt><trkpt lat="43.4046683" lon="10.8566633"><ele>503.0</ele><time>2026-04-04T09:48:33.323Z</time></trkpt><trkpt lat="43.4046217" lon="10.856755"><ele>504.4</ele><time>2026-04-04T09:48:34.323Z</time></trkpt><trkpt lat="43.404575" lon="10.8568483"><ele>505.79999999999995</ele><time>2026-04-04T09:48:35.323Z</time></trkpt><trkpt lat="43.4045083" lon="10.8569433"><ele>507.2</ele><time>2026-04-04T09:48:36.322Z</time></trkpt><trkpt lat="43.4044333" lon="10.8570667"><ele>508.6</ele><time>2026-04-04T09:48:37.322Z</time></trkpt><trkpt lat="43.40438" lon="10.85717"><ele>510.0</ele><time>2026-04-04T09:48:38.322Z</time></trkpt><trkpt lat="43.404335" lon="10.8572867"><ele>510.0</ele><time>2026-04-04T09:48:39.322Z</time></trkpt><trkpt lat="43.4043" lon="10.8573983"><ele>510.0</ele><time>2026-04-04T09:48:40.323Z</time></trkpt><trkpt lat="43.4042717" lon="10.8575117"><ele>510.0</ele><time>2026-04-04T09:48:41.322Z</time></trkpt><trkpt lat="43.4042517" lon="10.85764"><ele>510.0</ele><time>2026-04-04T09:48:42.322Z</time></trkpt><trkpt lat="43.4042267" lon="10.8577583"><ele>510.0</ele><time>2026-04-04T09:48:43.322Z</time></trkpt><trkpt lat="43.4041967" lon="10.857875"><ele>508.8333333333333</ele><time>2026-04-04T09:48:44.322Z</time></trkpt><trkpt lat="43.4041783" lon="10.8580017"><ele>507.66666666666663</ele><time>2026-04-04T09:48:45.323Z</time></trkpt><trkpt lat="43.4041667" lon="10.8581217"><ele>506.5</ele><time>2026-04-04T09:48:46.322Z</time></trkpt><trkpt lat="43.4041633" lon="10.858245"><ele>505.3333333333333</ele><time>2026-04-04T09:48:47.322Z</time></trkpt><trkpt lat="43.4041683" lon="10.858365"><ele>504.16666666666663</ele><time>2026-04-04T09:48:48.322Z</time></trkpt><trkpt lat="43.4041733" lon="10.8584717"><ele>503.0</ele><time>2026-04-04T09:48:49.323Z</time></trkpt><trkpt lat="43.4041817" lon="10.8585633"><ele>502.5714285714286</ele><time>2026-04-04T09:48:50.322Z</time></trkpt><trkpt lat="43.4041817" lon="10.85865"><ele>502.1428571428572</ele><time>2026-04-04T09:48:51.322Z</time></trkpt><trkpt lat="43.4041683" lon="10.85879"><ele>501.7142857142857</ele><time>2026-04-04T09:48:53.323Z</time></trkpt><trkpt lat="43.4041483" lon="10.8588767"><ele>501.28571428571433</ele><time>2026-04-04T09:48:55.323Z</time></trkpt><trkpt lat="43.4041733" lon="10.8589867"><ele>500.8571428571429</ele><time>2026-04-04T09:48:57.322Z</time></trkpt><trkpt lat="43.4041733" lon="10.8590817"><ele>500.42857142857144</ele><time>2026-04-04T09:48:59.322Z</time></trkpt><trkpt lat="43.4041683" lon="10.8591683"><ele>500.0</ele><time>2026-04-04T09:49:01.322Z</time></trkpt><trkpt lat="43.4041783" lon="10.8592733"><ele>500.2</ele><time>2026-04-04T09:49:08.323Z</time></trkpt><trkpt lat="43.40418" lon="10.859435"><ele>500.4</ele><time>2026-04-04T09:49:10.322Z</time></trkpt><trkpt lat="43.40417" lon="10.8595567"><ele>500.6</ele><time>2026-04-04T09:49:11.322Z</time></trkpt><trkpt lat="43.4041417" lon="10.8597083"><ele>500.8</ele><time>2026-04-04T09:49:12.322Z</time></trkpt><trkpt lat="43.4041267" lon="10.859855"><ele>501.0</ele><time>2026-04-04T09:49:13.322Z</time></trkpt><trkpt lat="43.4041083" lon="10.859985"><ele>501.0</ele><time>2026-04-04T09:49:14.322Z</time></trkpt><trkpt lat="43.4041033" lon="10.8600967"><ele>501.0</ele><time>2026-04-04T09:49:15.322Z</time></trkpt><trkpt lat="43.4041017" lon="10.860185"><ele>501.0</ele><time>2026-04-04T09:49:16.322Z</time></trkpt><trkpt lat="43.40411" lon="10.860325"><ele>501.0</ele><time>2026-04-04T09:49:18.323Z</time></trkpt><trkpt lat="43.4041217" lon="10.8604933"><ele>501.0</ele><time>2026-04-04T09:49:20.322Z</time></trkpt><trkpt lat="43.4041283" lon="10.8606467"><ele>502.28571428571433</ele><time>2026-04-04T09:49:22.322Z</time></trkpt><trkpt lat="43.40414" lon="10.8607383"><ele>503.57142857142856</ele><time>2026-04-04T09:49:24.322Z</time></trkpt><trkpt lat="43.4041333" lon="10.8608417"><ele>504.8571428571429</ele><time>2026-04-04T09:49:28.322Z</time></trkpt><trkpt lat="43.4041083" lon="10.8609217"><ele>506.14285714285717</ele><time>2026-04-04T09:49:32.322Z</time></trkpt><trkpt lat="43.4040717" lon="10.8610083"><ele>507.42857142857144</ele><time>2026-04-04T09:49:39.323Z</time></trkpt><trkpt lat="43.4040783" lon="10.8611033"><ele>508.7142857142857</ele><time>2026-04-04T09:49:41.322Z</time></trkpt><trkpt lat="43.4041067" lon="10.8612283"><ele>510.0</ele><time>2026-04-04T09:49:43.322Z</time></trkpt><trkpt lat="43.4041583" lon="10.8612933"><ele>511.0</ele><time>2026-04-04T09:49:45.322Z</time></trkpt><trkpt lat="43.404235" lon="10.8612567"><ele>512.0</ele><time>2026-04-04T09:49:47.322Z</time></trkpt><trkpt lat="43.4043367" lon="10.8611983"><ele>513.0</ele><time>2026-04-04T09:49:49.322Z</time></trkpt><trkpt lat="43.4044483" lon="10.861135"><ele>514.0</ele><time>2026-04-04T09:49:51.323Z</time></trkpt><trkpt lat="43.4045133" lon="10.861095"><ele>515.0</ele><time>2026-04-04T09:49:52.322Z</time></trkpt><trkpt lat="43.4045717" lon="10.861045"><ele>515.0</ele><time>2026-04-04T09:49:53.322Z</time></trkpt><trkpt lat="43.4046267" lon="10.8609917"><ele>515.0</ele><time>2026-04-04T09:49:54.323Z</time></trkpt><trkpt lat="43.4047267" lon="10.8609217"><ele>515.0</ele><time>2026-04-04T09:49:56.322Z</time></trkpt><trkpt lat="43.4047883" lon="10.8609033"><ele>515.0</ele><time>2026-04-04T09:49:57.322Z</time></trkpt><trkpt lat="43.404855" lon="10.8608533"><ele>515.0</ele><time>2026-04-04T09:49:58.322Z</time></trkpt><trkpt lat="43.4049217" lon="10.8607967"><ele>515.0</ele><time>2026-04-04T09:49:59.322Z</time></trkpt><trkpt lat="43.404995" lon="10.86076"><ele>512.8333333333333</ele><time>2026-04-04T09:50:00.322Z</time></trkpt><trkpt lat="43.405065" lon="10.860705"><ele>510.66666666666663</ele><time>2026-04-04T09:50:01.323Z</time></trkpt><trkpt lat="43.40514" lon="10.86065"><ele>508.5</ele><time>2026-04-04T09:50:02.323Z</time></trkpt><trkpt lat="43.4052267" lon="10.8606067"><ele>506.33333333333337</ele><time>2026-04-04T09:50:03.322Z</time></trkpt><trkpt lat="43.405315" lon="10.8605733"><ele>504.1666666666667</ele><time>2026-04-04T09:50:04.322Z</time></trkpt><trkpt lat="43.405395" lon="10.8605517"><ele>502.0</ele><time>2026-04-04T09:50:05.322Z</time></trkpt><trkpt lat="43.405525" lon="10.8605717"><ele>500.6666666666667</ele><time>2026-04-04T09:50:07.322Z</time></trkpt><trkpt lat="43.4056117" lon="10.8606183"><ele>499.33333333333337</ele><time>2026-04-04T09:50:08.322Z</time></trkpt><trkpt lat="43.40567" lon="10.8606617"><ele>498.0</ele><time>2026-04-04T09:50:09.322Z</time></trkpt><trkpt lat="43.40573" lon="10.8607217"><ele>496.66666666666663</ele><time>2026-04-04T09:50:10.323Z</time></trkpt><trkpt lat="43.4057933" lon="10.86078"><ele>495.3333333333333</ele><time>2026-04-04T09:50:11.322Z</time></trkpt><trkpt lat="43.4058567" lon="10.860845"><ele>494.0</ele><time>2026-04-04T09:50:12.322Z</time></trkpt><trkpt lat="43.4059183" lon="10.8609017"><ele>492.6</ele><time>2026-04-04T09:50:13.322Z</time></trkpt><trkpt lat="43.4059783" lon="10.860975"><ele>491.2</ele><time>2026-04-04T09:50:14.322Z</time></trkpt><trkpt lat="43.4060467" lon="10.86101"><ele>489.80000000000007</ele><time>2026-04-04T09:50:15.322Z</time></trkpt><trkpt lat="43.4061333" lon="10.86103"><ele>488.40000000000003</ele><time>2026-04-04T09:50:16.322Z</time></trkpt><trkpt lat="43.40623" lon="10.8610183"><ele>487.0</ele><time>2026-04-04T09:50:17.322Z</time></trkpt><trkpt lat="43.4063333" lon="10.8609367"><ele>486.25</ele><time>2026-04-04T09:50:18.322Z</time></trkpt><trkpt lat="43.4064267" lon="10.8608333"><ele>485.5</ele><time>2026-04-04T09:50:19.322Z</time></trkpt><trkpt lat="43.4065117" lon="10.8607133"><ele>484.75</ele><time>2026-04-04T09:50:20.322Z</time></trkpt><trkpt lat="43.4065817" lon="10.8605883"><ele>484.0</ele><time>2026-04-04T09:50:21.322Z</time></trkpt><trkpt lat="43.406655" lon="10.86047"><ele>484.0</ele><time>2026-04-04T09:50:22.322Z</time></trkpt><trkpt lat="43.40672" lon="10.86035"><ele>484.0</ele><time>2026-04-04T09:50:23.322Z</time></trkpt><trkpt lat="43.4067867" lon="10.8602367"><ele>484.0</ele><time>2026-04-04T09:50:24.323Z</time></trkpt><trkpt lat="43.4068483" lon="10.86013"><ele>484.0</ele><time>2026-04-04T09:50:25.322Z</time></trkpt><trkpt lat="43.4068983" lon="10.8600367"><ele>484.0</ele><time>2026-04-04T09:50:26.322Z</time></trkpt><trkpt lat="43.4069467" lon="10.8599367"><ele>484.33333333333337</ele><time>2026-04-04T09:50:27.322Z</time></trkpt><trkpt lat="43.4070017" lon="10.8598417"><ele>484.6666666666667</ele><time>2026-04-04T09:50:28.323Z</time></trkpt><trkpt lat="43.40706" lon="10.8597617"><ele>485.0</ele><time>2026-04-04T09:50:29.322Z</time></trkpt><trkpt lat="43.4071333" lon="10.8596967"><ele>485.33333333333337</ele><time>2026-04-04T09:50:30.323Z</time></trkpt><trkpt lat="43.4072117" lon="10.8596567"><ele>485.6666666666667</ele><time>2026-04-04T09:50:31.322Z</time></trkpt><trkpt lat="43.4072867" lon="10.8596433"><ele>486.0</ele><time>2026-04-04T09:50:32.322Z</time></trkpt><trkpt lat="43.40737" lon="10.8596717"><ele>484.0</ele><time>2026-04-04T09:50:33.322Z</time></trkpt><trkpt lat="43.40744" lon="10.859755"><ele>482.0</ele><time>2026-04-04T09:50:34.322Z</time></trkpt><trkpt lat="43.4075" lon="10.859845"><ele>480.0</ele><time>2026-04-04T09:50:35.323Z</time></trkpt><trkpt lat="43.4075467" lon="10.8599683"><ele>478.0</ele><time>2026-04-04T09:50:36.322Z</time></trkpt><trkpt lat="43.4075533" lon="10.860095"><ele>476.0</ele><time>2026-04-04T09:50:37.323Z</time></trkpt><trkpt lat="43.4075367" lon="10.8602733"><ele>475.75</ele><time>2026-04-04T09:50:38.322Z</time></trkpt><trkpt lat="43.4075267" lon="10.86045"><ele>475.5</ele><time>2026-04-04T09:50:39.323Z</time></trkpt><trkpt lat="43.4074533" lon="10.860615"><ele>475.25</ele><time>2026-04-04T09:50:40.322Z</time></trkpt><trkpt lat="43.40738" lon="10.8607583"><ele>475.0</ele><time>2026-04-04T09:50:41.322Z</time></trkpt><trkpt lat="43.40733" lon="10.8608583"><ele>472.6</ele><time>2026-04-04T09:50:42.323Z</time></trkpt><trkpt lat="43.4072633" lon="10.8609583"><ele>470.2</ele><time>2026-04-04T09:50:43.322Z</time></trkpt><trkpt lat="43.4072233" lon="10.86103"><ele>467.79999999999995</ele><time>2026-04-04T09:50:44.322Z</time></trkpt><trkpt lat="43.4071783" lon="10.8611283"><ele>465.4</ele><time>2026-04-04T09:50:45.322Z</time></trkpt><trkpt lat="43.4072267" lon="10.8612517"><ele>463.0</ele><time>2026-04-04T09:50:47.322Z</time></trkpt><trkpt lat="43.40733" lon="10.8613217"><ele>463.0</ele><time>2026-04-04T09:50:48.322Z</time></trkpt><trkpt lat="43.4074217" lon="10.8613767"><ele>462.99999999999994</ele><time>2026-04-04T09:50:49.322Z</time></trkpt><trkpt lat="43.4075167" lon="10.8614383"><ele>462.99999999999994</ele><time>2026-04-04T09:50:50.322Z</time></trkpt><trkpt lat="43.4076217" lon="10.8614917"><ele>463.0</ele><time>2026-04-04T09:50:51.322Z</time></trkpt><trkpt lat="43.4077283" lon="10.8615583"><ele>463.0</ele><time>2026-04-04T09:50:52.322Z</time></trkpt><trkpt lat="43.40782" lon="10.8616317"><ele>463.0</ele><time>2026-04-04T09:50:53.322Z</time></trkpt><trkpt lat="43.4079117" lon="10.86171"><ele>462.99999999999994</ele><time>2026-04-04T09:50:54.323Z</time></trkpt><trkpt lat="43.4080033" lon="10.8617867"><ele>462.99999999999994</ele><time>2026-04-04T09:50:55.322Z</time></trkpt><trkpt lat="43.4080933" lon="10.861845"><ele>463.0</ele><time>2026-04-04T09:50:56.323Z</time></trkpt><trkpt lat="43.4081983" lon="10.8619117"><ele>463.0</ele><time>2026-04-04T09:50:57.322Z</time></trkpt><trkpt lat="43.4083033" lon="10.8619933"><ele>461.5</ele><time>2026-04-04T09:50:58.322Z</time></trkpt><trkpt lat="43.408415" lon="10.8620717"><ele>460.0</ele><time>2026-04-04T09:50:59.322Z</time></trkpt><trkpt lat="43.4085367" lon="10.8621617"><ele>458.5</ele><time>2026-04-04T09:51:00.322Z</time></trkpt><trkpt lat="43.4086233" lon="10.8622417"><ele>457.0</ele><time>2026-04-04T09:51:01.322Z</time></trkpt><trkpt lat="43.408705" lon="10.8623283"><ele>457.0</ele><time>2026-04-04T09:51:02.322Z</time></trkpt><trkpt lat="43.4087783" lon="10.8624183"><ele>457.00000000000006</ele><time>2026-04-04T09:51:03.322Z</time></trkpt><trkpt lat="43.40884" lon="10.8625133"><ele>457.00000000000006</ele><time>2026-04-04T09:51:04.323Z</time></trkpt><trkpt lat="43.4088933" lon="10.862605"><ele>457.0</ele><time>2026-04-04T09:51:05.322Z</time></trkpt><trkpt lat="43.4089283" lon="10.8627267"><ele>457.0</ele><time>2026-04-04T09:51:06.322Z</time></trkpt><trkpt lat="43.4089383" lon="10.86286"><ele>457.1666666666667</ele><time>2026-04-04T09:51:07.323Z</time></trkpt><trkpt lat="43.4089133" lon="10.8630217"><ele>457.33333333333337</ele><time>2026-04-04T09:51:08.322Z</time></trkpt><trkpt lat="43.4089" lon="10.8631733"><ele>457.5</ele><time>2026-04-04T09:51:09.322Z</time></trkpt><trkpt lat="43.4089133" lon="10.86326"><ele>457.66666666666663</ele><time>2026-04-04T09:51:10.323Z</time></trkpt><trkpt lat="43.4089367" lon="10.8633483"><ele>457.8333333333333</ele><time>2026-04-04T09:51:11.322Z</time></trkpt><trkpt lat="43.40896" lon="10.8634467"><ele>458.0</ele><time>2026-04-04T09:51:12.322Z</time></trkpt><trkpt lat="43.4089817" lon="10.863545"><ele>452.4</ele><time>2026-04-04T09:51:13.323Z</time></trkpt><trkpt lat="43.409025" lon="10.8636467"><ele>446.79999999999995</ele><time>2026-04-04T09:51:14.322Z</time></trkpt><trkpt lat="43.4090733" lon="10.8637283"><ele>441.2</ele><time>2026-04-04T09:51:15.322Z</time></trkpt><trkpt lat="43.4091917" lon="10.8638"><ele>435.6</ele><time>2026-04-04T09:51:17.322Z</time></trkpt><trkpt lat="43.4092767" lon="10.8638267"><ele>430.0</ele><time>2026-04-04T09:51:18.323Z</time></trkpt><trkpt lat="43.4093767" lon="10.8638333"><ele>430.0</ele><time>2026-04-04T09:51:19.322Z</time></trkpt><trkpt lat="43.409485" lon="10.8638267"><ele>430.0</ele><time>2026-04-04T09:51:20.323Z</time></trkpt><trkpt lat="43.4095933" lon="10.8638167"><ele>430.0</ele><time>2026-04-04T09:51:21.323Z</time></trkpt><trkpt lat="43.409685" lon="10.8637667"><ele>430.0</ele><time>2026-04-04T09:51:22.322Z</time></trkpt><trkpt lat="43.4097683" lon="10.8636917"><ele>430.0</ele><time>2026-04-04T09:51:23.322Z</time></trkpt><trkpt lat="43.40983" lon="10.86358"><ele>433.0</ele><time>2026-04-04T09:51:24.322Z</time></trkpt><trkpt lat="43.409895" lon="10.8634467"><ele>436.0</ele><time>2026-04-04T09:51:25.323Z</time></trkpt><trkpt lat="43.409975" lon="10.86334"><ele>439.0</ele><time>2026-04-04T09:51:26.322Z</time></trkpt><trkpt lat="43.4100467" lon="10.86324"><ele>442.0</ele><time>2026-04-04T09:51:27.322Z</time></trkpt><trkpt lat="43.4101167" lon="10.86314"><ele>445.0</ele><time>2026-04-04T09:51:28.322Z</time></trkpt><trkpt lat="43.4101867" lon="10.8630333"><ele>445.0</ele><time>2026-04-04T09:51:29.323Z</time></trkpt><trkpt lat="43.410265" lon="10.8629133"><ele>445.0</ele><time>2026-04-04T09:51:30.322Z</time></trkpt><trkpt lat="43.4103567" lon="10.862835"><ele>445.0</ele><time>2026-04-04T09:51:31.322Z</time></trkpt><trkpt lat="43.4104467" lon="10.86279"><ele>445.0</ele><time>2026-04-04T09:51:32.323Z</time></trkpt><trkpt lat="43.4105433" lon="10.8627933"><ele>445.0</ele><time>2026-04-04T09:51:33.322Z</time></trkpt><trkpt lat="43.4106433" lon="10.8629483"><ele>441.5</ele><time>2026-04-04T09:51:34.323Z</time></trkpt><trkpt lat="43.4107417" lon="10.86306"><ele>438.0</ele><time>2026-04-04T09:51:35.322Z</time></trkpt><trkpt lat="43.41084" lon="10.8631683"><ele>434.5</ele><time>2026-04-04T09:51:36.322Z</time></trkpt><trkpt lat="43.4109367" lon="10.86328"><ele>431.0</ele><time>2026-04-04T09:51:37.323Z</time></trkpt><trkpt lat="43.4110217" lon="10.863395"><ele>432.0</ele><time>2026-04-04T09:51:38.322Z</time></trkpt><trkpt lat="43.411105" lon="10.8635133"><ele>433.0</ele><time>2026-04-04T09:51:39.322Z</time></trkpt><trkpt lat="43.4112033" lon="10.863635"><ele>434.0</ele><time>2026-04-04T09:51:40.323Z</time></trkpt><trkpt lat="43.4112867" lon="10.8637717"><ele>435.0</ele><time>2026-04-04T09:51:41.322Z</time></trkpt><trkpt lat="43.4113633" lon="10.8639233"><ele>431.8</ele><time>2026-04-04T09:51:42.322Z</time></trkpt><trkpt lat="43.41143" lon="10.8640733"><ele>428.6</ele><time>2026-04-04T09:51:43.323Z</time></trkpt><trkpt lat="43.4115083" lon="10.8641883"><ele>425.4</ele><time>2026-04-04T09:51:44.322Z</time></trkpt><trkpt lat="43.4115917" lon="10.8642917"><ele>422.2</ele><time>2026-04-04T09:51:45.322Z</time></trkpt><trkpt lat="43.4116783" lon="10.8643417"><ele>419.0</ele><time>2026-04-04T09:51:46.323Z</time></trkpt><trkpt lat="43.4117683" lon="10.8643967"><ele>419.0</ele><time>2026-04-04T09:51:47.323Z</time></trkpt><trkpt lat="43.4118883" lon="10.8643883"><ele>419.0</ele><time>2026-04-04T09:51:48.322Z</time></trkpt><trkpt lat="43.4120083" lon="10.86439"><ele>419.0</ele><time>2026-04-04T09:51:49.322Z</time></trkpt><trkpt lat="43.4121417" lon="10.8643717"><ele>419.0</ele><time>2026-04-04T09:51:50.322Z</time></trkpt><trkpt lat="43.412285" lon="10.8643267"><ele>415.25</ele><time>2026-04-04T09:51:51.322Z</time></trkpt><trkpt lat="43.4124183" lon="10.8642783"><ele>411.5</ele><time>2026-04-04T09:51:52.323Z</time></trkpt><trkpt lat="43.4125333" lon="10.8642417"><ele>407.75</ele><time>2026-04-04T09:51:53.322Z</time></trkpt><trkpt lat="43.4126617" lon="10.864205"><ele>404.0</ele><time>2026-04-04T09:51:54.322Z</time></trkpt><trkpt lat="43.4128" lon="10.8641767"><ele>404.0</ele><time>2026-04-04T09:51:55.322Z</time></trkpt><trkpt lat="43.412935" lon="10.864175"><ele>404.0</ele><time>2026-04-04T09:51:56.322Z</time></trkpt><trkpt lat="43.413065" lon="10.8641867"><ele>404.0</ele><time>2026-04-04T09:51:57.322Z</time></trkpt><trkpt lat="43.4131983" lon="10.8642033"><ele>404.0</ele><time>2026-04-04T09:51:58.322Z</time></trkpt><trkpt lat="43.41334" lon="10.8642433"><ele>402.3333333333333</ele><time>2026-04-04T09:51:59.322Z</time></trkpt><trkpt lat="43.4134817" lon="10.8643"><ele>400.66666666666663</ele><time>2026-04-04T09:52:00.322Z</time></trkpt><trkpt lat="43.413635" lon="10.8643417"><ele>399.0</ele><time>2026-04-04T09:52:01.323Z</time></trkpt><trkpt lat="43.41378" lon="10.86438"><ele>396.66666666666663</ele><time>2026-04-04T09:52:02.322Z</time></trkpt><trkpt lat="43.4139317" lon="10.86441"><ele>394.3333333333333</ele><time>2026-04-04T09:52:03.322Z</time></trkpt><trkpt lat="43.414075" lon="10.8644883"><ele>392.0</ele><time>2026-04-04T09:52:04.322Z</time></trkpt><trkpt lat="43.41422" lon="10.8644933"><ele>392.0</ele><time>2026-04-04T09:52:05.322Z</time></trkpt><trkpt lat="43.414355" lon="10.864495"><ele>392.0</ele><time>2026-04-04T09:52:06.323Z</time></trkpt><trkpt lat="43.4144867" lon="10.8645"><ele>392.0</ele><time>2026-04-04T09:52:07.322Z</time></trkpt><trkpt lat="43.414615" lon="10.864505"><ele>392.0</ele><time>2026-04-04T09:52:08.322Z</time></trkpt><trkpt lat="43.4147483" lon="10.8645167"><ele>391.0</ele><time>2026-04-04T09:52:09.322Z</time></trkpt><trkpt lat="43.4148667" lon="10.8645383"><ele>390.0</ele><time>2026-04-04T09:52:10.322Z</time></trkpt><trkpt lat="43.414995" lon="10.8645633"><ele>389.0</ele><time>2026-04-04T09:52:11.322Z</time></trkpt><trkpt lat="43.41512" lon="10.8645783"><ele>388.0</ele><time>2026-04-04T09:52:12.322Z</time></trkpt><trkpt lat="43.4152433" lon="10.86459"><ele>388.0</ele><time>2026-04-04T09:52:13.322Z</time></trkpt><trkpt lat="43.41536" lon="10.8646083"><ele>388.0</ele><time>2026-04-04T09:52:14.323Z</time></trkpt><trkpt lat="43.41548" lon="10.8646133"><ele>388.0</ele><time>2026-04-04T09:52:15.322Z</time></trkpt><trkpt lat="43.41559" lon="10.86463"><ele>388.0</ele><time>2026-04-04T09:52:16.322Z</time></trkpt><trkpt lat="43.415705" lon="10.86469"><ele>384.0</ele><time>2026-04-04T09:52:17.322Z</time></trkpt><trkpt lat="43.4158033" lon="10.8647817"><ele>380.0</ele><time>2026-04-04T09:52:18.322Z</time></trkpt><trkpt lat="43.41591" lon="10.86486"><ele>376.0</ele><time>2026-04-04T09:52:19.322Z</time></trkpt><trkpt lat="43.416005" lon="10.8649583"><ele>372.0</ele><time>2026-04-04T09:52:20.322Z</time></trkpt><trkpt lat="43.4161017" lon="10.8650567"><ele>370.5</ele><time>2026-04-04T09:52:21.322Z</time></trkpt><trkpt lat="43.4161983" lon="10.8651617"><ele>369.0</ele><time>2026-04-04T09:52:22.322Z</time></trkpt><trkpt lat="43.416295" lon="10.86527"><ele>367.5</ele><time>2026-04-04T09:52:23.322Z</time></trkpt><trkpt lat="43.4163817" lon="10.86538"><ele>366.0</ele><time>2026-04-04T09:52:24.322Z</time></trkpt><trkpt lat="43.4164733" lon="10.8654817"><ele>363.5</ele><time>2026-04-04T09:52:25.322Z</time></trkpt><trkpt lat="43.4165617" lon="10.8655783"><ele>361.0</ele><time>2026-04-04T09:52:26.322Z</time></trkpt><trkpt lat="43.4166317" lon="10.8656683"><ele>358.5</ele><time>2026-04-04T09:52:27.323Z</time></trkpt><trkpt lat="43.4167033" lon="10.8657333"><ele>356.0</ele><time>2026-04-04T09:52:28.322Z</time></trkpt><trkpt lat="43.4167717" lon="10.865765"><ele>353.5</ele><time>2026-04-04T09:52:29.323Z</time></trkpt><trkpt lat="43.4168433" lon="10.865775"><ele>351.0</ele><time>2026-04-04T09:52:30.322Z</time></trkpt><trkpt lat="43.416885" lon="10.8656817"><ele>351.0</ele><time>2026-04-04T09:52:31.323Z</time></trkpt><trkpt lat="43.4168833" lon="10.865595"><ele>351.0</ele><time>2026-04-04T09:52:32.322Z</time></trkpt><trkpt lat="43.4168683" lon="10.8655067"><ele>351.0</ele><time>2026-04-04T09:52:33.322Z</time></trkpt><trkpt lat="43.4167767" lon="10.8654383"><ele>351.0</ele><time>2026-04-04T09:52:34.322Z</time></trkpt><trkpt lat="43.4166817" lon="10.8653817"><ele>351.0</ele><time>2026-04-04T09:52:35.323Z</time></trkpt><trkpt lat="43.416605" lon="10.8653233"><ele>351.0</ele><time>2026-04-04T09:52:36.323Z</time></trkpt><trkpt lat="43.4165367" lon="10.865285"><ele>351.0</ele><time>2026-04-04T09:52:37.322Z</time></trkpt><trkpt lat="43.416495" lon="10.865155"><ele>351.0</ele><time>2026-04-04T09:52:39.323Z</time></trkpt><trkpt lat="43.4165717" lon="10.86514"><ele>351.0</ele><time>2026-04-04T09:52:40.323Z</time></trkpt><trkpt lat="43.4166483" lon="10.8651533"><ele>351.0</ele><time>2026-04-04T09:52:41.322Z</time></trkpt><trkpt lat="43.4167467" lon="10.8651917"><ele>351.0</ele><time>2026-04-04T09:52:42.322Z</time></trkpt><trkpt lat="43.41685" lon="10.8652567"><ele>351.0</ele><time>2026-04-04T09:52:43.323Z</time></trkpt><trkpt lat="43.4169617" lon="10.8653633"><ele>351.0</ele><time>2026-04-04T09:52:44.322Z</time></trkpt><trkpt lat="43.41705" lon="10.86551"><ele>351.0</ele><time>2026-04-04T09:52:45.322Z</time></trkpt><trkpt lat="43.4171033" lon="10.86565"><ele>351.0</ele><time>2026-04-04T09:52:46.322Z</time></trkpt><trkpt lat="43.4171233" lon="10.8657867"><ele>351.0</ele><time>2026-04-04T09:52:47.322Z</time></trkpt><trkpt lat="43.4171233" lon="10.865915"><ele>351.0</ele><time>2026-04-04T09:52:48.322Z</time></trkpt><trkpt lat="43.4170917" lon="10.8660267"><ele>351.0</ele><time>2026-04-04T09:52:49.322Z</time></trkpt><trkpt lat="43.417025" lon="10.8661267"><ele>351.0</ele><time>2026-04-04T09:52:50.322Z</time></trkpt><trkpt lat="43.4169133" lon="10.866205"><ele>351.0</ele><time>2026-04-04T09:52:51.323Z</time></trkpt><trkpt lat="43.416785" lon="10.866265"><ele>350.75</ele><time>2026-04-04T09:52:52.322Z</time></trkpt><trkpt lat="43.41664" lon="10.8662967"><ele>350.5</ele><time>2026-04-04T09:52:53.322Z</time></trkpt><trkpt lat="43.4165083" lon="10.866305"><ele>350.25</ele><time>2026-04-04T09:52:54.323Z</time></trkpt><trkpt lat="43.416405" lon="10.8663433"><ele>350.0</ele><time>2026-04-04T09:52:55.322Z</time></trkpt><trkpt lat="43.4162983" lon="10.866395"><ele>350.0</ele><time>2026-04-04T09:52:56.322Z</time></trkpt><trkpt lat="43.416195" lon="10.8664533"><ele>350.0</ele><time>2026-04-04T09:52:57.322Z</time></trkpt><trkpt lat="43.4161017" lon="10.8665183"><ele>350.0</ele><time>2026-04-04T09:52:58.322Z</time></trkpt><trkpt lat="43.4160033" lon="10.8666117"><ele>350.0</ele><time>2026-04-04T09:52:59.322Z</time></trkpt><trkpt lat="43.415915" lon="10.8667133"><ele>348.6666666666667</ele><time>2026-04-04T09:53:00.323Z</time></trkpt><trkpt lat="43.4158467" lon="10.866785"><ele>347.33333333333337</ele><time>2026-04-04T09:53:01.323Z</time></trkpt><trkpt lat="43.415835" lon="10.8668767"><ele>346.0</ele><time>2026-04-04T09:53:02.322Z</time></trkpt><trkpt lat="43.4158783" lon="10.8669717"><ele>344.6666666666667</ele><time>2026-04-04T09:53:03.322Z</time></trkpt><trkpt lat="43.415965" lon="10.8670517"><ele>343.3333333333333</ele><time>2026-04-04T09:53:04.323Z</time></trkpt><trkpt lat="43.4160633" lon="10.867115"><ele>342.0</ele><time>2026-04-04T09:53:05.322Z</time></trkpt><trkpt lat="43.416185" lon="10.8671483"><ele>339.3333333333333</ele><time>2026-04-04T09:53:06.322Z</time></trkpt><trkpt lat="43.4163467" lon="10.8671583"><ele>336.66666666666663</ele><time>2026-04-04T09:53:07.322Z</time></trkpt><trkpt lat="43.4164817" lon="10.86718"><ele>334.0</ele><time>2026-04-04T09:53:08.323Z</time></trkpt><trkpt lat="43.4166383" lon="10.8671883"><ele>334.0</ele><time>2026-04-04T09:53:09.323Z</time></trkpt><trkpt lat="43.41678" lon="10.8672117"><ele>334.0</ele><time>2026-04-04T09:53:10.322Z</time></trkpt><trkpt lat="43.4169033" lon="10.8672367"><ele>334.0</ele><time>2026-04-04T09:53:11.322Z</time></trkpt><trkpt lat="43.4170283" lon="10.867265"><ele>334.0</ele><time>2026-04-04T09:53:12.322Z</time></trkpt><trkpt lat="43.4171483" lon="10.86731"><ele>328.5</ele><time>2026-04-04T09:53:13.322Z</time></trkpt><trkpt lat="43.4172583" lon="10.8673617"><ele>323.0</ele><time>2026-04-04T09:53:14.322Z</time></trkpt><trkpt lat="43.4173833" lon="10.8675"><ele>317.5</ele><time>2026-04-04T09:53:15.323Z</time></trkpt><trkpt lat="43.4174767" lon="10.8676317"><ele>312.0</ele><time>2026-04-04T09:53:16.322Z</time></trkpt><trkpt lat="43.4175617" lon="10.8677533"><ele>310.5</ele><time>2026-04-04T09:53:17.322Z</time></trkpt><trkpt lat="43.41764" lon="10.8678683"><ele>309.0</ele><time>2026-04-04T09:53:18.322Z</time></trkpt><trkpt lat="43.4177317" lon="10.867975"><ele>307.5</ele><time>2026-04-04T09:53:19.322Z</time></trkpt><trkpt lat="43.4178317" lon="10.8680633"><ele>306.0</ele><time>2026-04-04T09:53:20.323Z</time></trkpt><trkpt lat="43.417945" lon="10.8681333"><ele>305.5</ele><time>2026-04-04T09:53:21.322Z</time></trkpt><trkpt lat="43.4180733" lon="10.8681733"><ele>305.0</ele><time>2026-04-04T09:53:22.322Z</time></trkpt><trkpt lat="43.4182083" lon="10.8682083"><ele>304.5</ele><time>2026-04-04T09:53:23.323Z</time></trkpt><trkpt lat="43.4183433" lon="10.8682267"><ele>304.0</ele><time>2026-04-04T09:53:24.323Z</time></trkpt><trkpt lat="43.4184917" lon="10.8682233"><ele>304.0</ele><time>2026-04-04T09:53:25.322Z</time></trkpt><trkpt lat="43.418655" lon="10.868205"><ele>304.0</ele><time>2026-04-04T09:53:26.322Z</time></trkpt><trkpt lat="43.4187967" lon="10.8682"><ele>304.0</ele><time>2026-04-04T09:53:27.322Z</time></trkpt><trkpt lat="43.41893" lon="10.8681983"><ele>304.0</ele><time>2026-04-04T09:53:28.322Z</time></trkpt><trkpt lat="43.4190583" lon="10.868195"><ele>304.0</ele><time>2026-04-04T09:53:29.322Z</time></trkpt><trkpt lat="43.4191867" lon="10.868215"><ele>304.0</ele><time>2026-04-04T09:53:30.322Z</time></trkpt><trkpt lat="43.4193033" lon="10.8682567"><ele>304.0</ele><time>2026-04-04T09:53:31.322Z</time></trkpt><trkpt lat="43.4194217" lon="10.8683033"><ele>304.0</ele><time>2026-04-04T09:53:32.322Z</time></trkpt><trkpt lat="43.41953" lon="10.868345"><ele>304.0</ele><time>2026-04-04T09:53:33.322Z</time></trkpt><trkpt lat="43.41964" lon="10.86838"><ele>304.0</ele><time>2026-04-04T09:53:34.322Z</time></trkpt><trkpt lat="43.4197517" lon="10.8683683"><ele>304.0</ele><time>2026-04-04T09:53:35.322Z</time></trkpt><trkpt lat="43.4198533" lon="10.8683317"><ele>304.0</ele><time>2026-04-04T09:53:36.323Z</time></trkpt><trkpt lat="43.4199417" lon="10.8682583"><ele>304.0</ele><time>2026-04-04T09:53:37.322Z</time></trkpt><trkpt lat="43.4200067" lon="10.868165"><ele>302.5</ele><time>2026-04-04T09:53:38.323Z</time></trkpt><trkpt lat="43.4200333" lon="10.86801"><ele>301.0</ele><time>2026-04-04T09:53:39.322Z</time></trkpt><trkpt lat="43.4200333" lon="10.8678283"><ele>299.5</ele><time>2026-04-04T09:53:40.323Z</time></trkpt><trkpt lat="43.4200317" lon="10.8676317"><ele>298.0</ele><time>2026-04-04T09:53:41.322Z</time></trkpt><trkpt lat="43.420025" lon="10.8674583"><ele>297.4</ele><time>2026-04-04T09:53:42.322Z</time></trkpt><trkpt lat="43.4200217" lon="10.867285"><ele>296.8</ele><time>2026-04-04T09:53:43.322Z</time></trkpt><trkpt lat="43.4200233" lon="10.86714"><ele>296.2</ele><time>2026-04-04T09:53:44.322Z</time></trkpt><trkpt lat="43.4200317" lon="10.867035"><ele>295.6</ele><time>2026-04-04T09:53:45.322Z</time></trkpt><trkpt lat="43.4200583" lon="10.8669333"><ele>295.0</ele><time>2026-04-04T09:53:46.322Z</time></trkpt><trkpt lat="43.4201133" lon="10.8668717"><ele>295.0</ele><time>2026-04-04T09:53:47.322Z</time></trkpt><trkpt lat="43.4201917" lon="10.8668483"><ele>295.0</ele><time>2026-04-04T09:53:48.322Z</time></trkpt><trkpt lat="43.4202733" lon="10.8668817"><ele>295.0</ele><time>2026-04-04T09:53:49.322Z</time></trkpt><trkpt lat="43.4203383" lon="10.8670233"><ele>295.0</ele><time>2026-04-04T09:53:50.322Z</time></trkpt><trkpt lat="43.4203817" lon="10.8671467"><ele>295.0</ele><time>2026-04-04T09:53:51.322Z</time></trkpt><trkpt lat="43.420405" lon="10.86726"><ele>295.0</ele><time>2026-04-04T09:53:52.322Z</time></trkpt><trkpt lat="43.4204" lon="10.8673733"><ele>295.0</ele><time>2026-04-04T09:53:53.322Z</time></trkpt><trkpt lat="43.4203717" lon="10.86751"><ele>295.0</ele><time>2026-04-04T09:53:54.323Z</time></trkpt><trkpt lat="43.4203033" lon="10.867685"><ele>295.0</ele><time>2026-04-04T09:53:55.322Z</time></trkpt><trkpt lat="43.42028" lon="10.8678667"><ele>295.75</ele><time>2026-04-04T09:53:56.322Z</time></trkpt><trkpt lat="43.4202867" lon="10.8680417"><ele>296.5</ele><time>2026-04-04T09:53:57.322Z</time></trkpt><trkpt lat="43.4203067" lon="10.8682167"><ele>297.25</ele><time>2026-04-04T09:53:58.322Z</time></trkpt><trkpt lat="43.4203267" lon="10.868365"><ele>298.0</ele><time>2026-04-04T09:53:59.321Z</time></trkpt><trkpt lat="43.420355" lon="10.868475"><ele>298.0</ele><time>2026-04-04T09:54:00.321Z</time></trkpt><trkpt lat="43.4204133" lon="10.8685867"><ele>298.0</ele><time>2026-04-04T09:54:02.321Z</time></trkpt><trkpt lat="43.420505" lon="10.868585"><ele>298.0</ele><time>2026-04-04T09:54:04.321Z</time></trkpt><trkpt lat="43.4205167" lon="10.8683917"><ele>298.0</ele><time>2026-04-04T09:54:06.321Z</time></trkpt><trkpt lat="43.4204633" lon="10.8681667"><ele>298.0</ele><time>2026-04-04T09:54:07.321Z</time></trkpt><trkpt lat="43.4204583" lon="10.8679833"><ele>298.0</ele><time>2026-04-04T09:54:08.321Z</time></trkpt><trkpt lat="43.4204883" lon="10.8678167"><ele>298.0</ele><time>2026-04-04T09:54:09.322Z</time></trkpt><trkpt lat="43.4205517" lon="10.8676783"><ele>298.0</ele><time>2026-04-04T09:54:10.321Z</time></trkpt><trkpt lat="43.4206267" lon="10.8675433"><ele>293.0</ele><time>2026-04-04T09:54:11.321Z</time></trkpt><trkpt lat="43.4207367" lon="10.8674767"><ele>288.0</ele><time>2026-04-04T09:54:12.321Z</time></trkpt><trkpt lat="43.4208483" lon="10.8674417"><ele>283.0</ele><time>2026-04-04T09:54:13.321Z</time></trkpt><trkpt lat="43.4209733" lon="10.8674167"><ele>278.0</ele><time>2026-04-04T09:54:14.321Z</time></trkpt><trkpt lat="43.4210967" lon="10.867375"><ele>278.0</ele><time>2026-04-04T09:54:15.321Z</time></trkpt><trkpt lat="43.421215" lon="10.8673133"><ele>278.0</ele><time>2026-04-04T09:54:16.321Z</time></trkpt><trkpt lat="43.4213283" lon="10.8672467"><ele>278.0</ele><time>2026-04-04T09:54:17.321Z</time></trkpt><trkpt lat="43.421425" lon="10.8671883"><ele>278.0</ele><time>2026-04-04T09:54:18.321Z</time></trkpt><trkpt lat="43.4215083" lon="10.867095"><ele>274.8</ele><time>2026-04-04T09:54:19.321Z</time></trkpt><trkpt lat="43.4215533" lon="10.8669783"><ele>271.6</ele><time>2026-04-04T09:54:20.321Z</time></trkpt><trkpt lat="43.42159" lon="10.8668267"><ele>268.4</ele><time>2026-04-04T09:54:21.321Z</time></trkpt><trkpt lat="43.421595" lon="10.8666683"><ele>265.2</ele><time>2026-04-04T09:54:22.322Z</time></trkpt><trkpt lat="43.421595" lon="10.8665067"><ele>262.0</ele><time>2026-04-04T09:54:23.322Z</time></trkpt><trkpt lat="43.4215867" lon="10.8663583"><ele>262.0</ele><time>2026-04-04T09:54:24.321Z</time></trkpt><trkpt lat="43.4215567" lon="10.8662283"><ele>262.0</ele><time>2026-04-04T09:54:25.321Z</time></trkpt><trkpt lat="43.4215183" lon="10.8661217"><ele>262.0</ele><time>2026-04-04T09:54:26.321Z</time></trkpt><trkpt lat="43.42149" lon="10.8660333"><ele>262.0</ele><time>2026-04-04T09:54:27.321Z</time></trkpt><trkpt lat="43.4215117" lon="10.8659183"><ele>262.0</ele><time>2026-04-04T09:54:29.321Z</time></trkpt><trkpt lat="43.4215733" lon="10.8658733"><ele>262.0</ele><time>2026-04-04T09:54:31.322Z</time></trkpt><trkpt lat="43.4216883" lon="10.86597"><ele>262.0</ele><time>2026-04-04T09:54:33.321Z</time></trkpt><trkpt lat="43.4217467" lon="10.8660417"><ele>262.0</ele><time>2026-04-04T09:54:34.321Z</time></trkpt><trkpt lat="43.4217967" lon="10.866125"><ele>262.0</ele><time>2026-04-04T09:54:35.321Z</time></trkpt><trkpt lat="43.4218483" lon="10.8662167"><ele>262.0</ele><time>2026-04-04T09:54:36.321Z</time></trkpt><trkpt lat="43.4218917" lon="10.86635"><ele>262.0</ele><time>2026-04-04T09:54:37.322Z</time></trkpt><trkpt lat="43.4219333" lon="10.8665117"><ele>262.0</ele><time>2026-04-04T09:54:38.322Z</time></trkpt><trkpt lat="43.4219783" lon="10.8666617"><ele>262.0</ele><time>2026-04-04T09:54:39.321Z</time></trkpt><trkpt lat="43.4220217" lon="10.8668"><ele>262.0</ele><time>2026-04-04T09:54:40.321Z</time></trkpt><trkpt lat="43.42204" lon="10.86694"><ele>262.0</ele><time>2026-04-04T09:54:41.322Z</time></trkpt><trkpt lat="43.4220533" lon="10.867075"><ele>262.0</ele><time>2026-04-04T09:54:42.321Z</time></trkpt><trkpt lat="43.4220633" lon="10.86721"><ele>261.6</ele><time>2026-04-04T09:54:43.321Z</time></trkpt><trkpt lat="43.4220617" lon="10.8673467"><ele>261.2</ele><time>2026-04-04T09:54:44.321Z</time></trkpt><trkpt lat="43.4220667" lon="10.8674817"><ele>260.8</ele><time>2026-04-04T09:54:45.321Z</time></trkpt><trkpt lat="43.4220717" lon="10.8676033"><ele>260.4</ele><time>2026-04-04T09:54:46.321Z</time></trkpt><trkpt lat="43.4220867" lon="10.86773"><ele>260.0</ele><time>2026-04-04T09:54:47.321Z</time></trkpt><trkpt lat="43.42213" lon="10.8678467"><ele>255.5</ele><time>2026-04-04T09:54:48.321Z</time></trkpt><trkpt lat="43.422195" lon="10.867955"><ele>251.0</ele><time>2026-04-04T09:54:49.321Z</time></trkpt><trkpt lat="43.422285" lon="10.86805"><ele>246.5</ele><time>2026-04-04T09:54:50.322Z</time></trkpt><trkpt lat="43.4223883" lon="10.8681283"><ele>242.0</ele><time>2026-04-04T09:54:51.321Z</time></trkpt><trkpt lat="43.4225017" lon="10.868215"><ele>242.0</ele><time>2026-04-04T09:54:52.321Z</time></trkpt><trkpt lat="43.4226033" lon="10.8682817"><ele>242.0</ele><time>2026-04-04T09:54:53.321Z</time></trkpt><trkpt lat="43.4226967" lon="10.8683583"><ele>242.0</ele><time>2026-04-04T09:54:54.321Z</time></trkpt><trkpt lat="43.4227633" lon="10.8684867"><ele>242.0</ele><time>2026-04-04T09:54:55.321Z</time></trkpt><trkpt lat="43.4228217" lon="10.8686517"><ele>244.5</ele><time>2026-04-04T09:54:56.321Z</time></trkpt><trkpt lat="43.4228883" lon="10.8688267"><ele>247.0</ele><time>2026-04-04T09:54:57.321Z</time></trkpt><trkpt lat="43.4229733" lon="10.8690067"><ele>249.5</ele><time>2026-04-04T09:54:58.321Z</time></trkpt><trkpt lat="43.4230583" lon="10.8691683"><ele>252.0</ele><time>2026-04-04T09:54:59.321Z</time></trkpt><trkpt lat="43.4231483" lon="10.8693333"><ele>246.75</ele><time>2026-04-04T09:55:00.321Z</time></trkpt><trkpt lat="43.42323" lon="10.8694967"><ele>241.5</ele><time>2026-04-04T09:55:01.321Z</time></trkpt><trkpt lat="43.4232967" lon="10.8696767"><ele>236.25</ele><time>2026-04-04T09:55:02.321Z</time></trkpt><trkpt lat="43.4233667" lon="10.8698567"><ele>231.0</ele><time>2026-04-04T09:55:03.321Z</time></trkpt><trkpt lat="43.4234217" lon="10.8700267"><ele>231.8</ele><time>2026-04-04T09:55:04.321Z</time></trkpt><trkpt lat="43.4234683" lon="10.8701817"><ele>232.60000000000002</ele><time>2026-04-04T09:55:05.321Z</time></trkpt><trkpt lat="43.4235067" lon="10.8703367"><ele>233.4</ele><time>2026-04-04T09:55:06.322Z</time></trkpt><trkpt lat="43.42356" lon="10.8704783"><ele>234.2</ele><time>2026-04-04T09:55:07.321Z</time></trkpt><trkpt lat="43.423605" lon="10.8705833"><ele>235.0</ele><time>2026-04-04T09:55:08.321Z</time></trkpt><trkpt lat="43.4236483" lon="10.8706633"><ele>235.0</ele><time>2026-04-04T09:55:09.321Z</time></trkpt><trkpt lat="43.4237417" lon="10.87072"><ele>235.0</ele><time>2026-04-04T09:55:11.321Z</time></trkpt><trkpt lat="43.423815" lon="10.8706217"><ele>235.0</ele><time>2026-04-04T09:55:13.321Z</time></trkpt><trkpt lat="43.4238233" lon="10.8704917"><ele>235.0</ele><time>2026-04-04T09:55:14.321Z</time></trkpt><trkpt lat="43.42381" lon="10.87032"><ele>235.0</ele><time>2026-04-04T09:55:15.321Z</time></trkpt><trkpt lat="43.4237633" lon="10.8700533"><ele>233.66666666666666</ele><time>2026-04-04T09:55:16.321Z</time></trkpt><trkpt lat="43.423745" lon="10.8698367"><ele>232.33333333333331</ele><time>2026-04-04T09:55:17.321Z</time></trkpt><trkpt lat="43.4237133" lon="10.8696283"><ele>231.0</ele><time>2026-04-04T09:55:18.321Z</time></trkpt><trkpt lat="43.4236783" lon="10.8694217"><ele>229.8</ele><time>2026-04-04T09:55:19.321Z</time></trkpt><trkpt lat="43.4236383" lon="10.86926"><ele>228.60000000000002</ele><time>2026-04-04T09:55:20.321Z</time></trkpt><trkpt lat="43.4236183" lon="10.8691233"><ele>227.4</ele><time>2026-04-04T09:55:21.321Z</time></trkpt><trkpt lat="43.4236117" lon="10.8690083"><ele>226.2</ele><time>2026-04-04T09:55:22.321Z</time></trkpt><trkpt lat="43.4236383" lon="10.86891"><ele>225.0</ele><time>2026-04-04T09:55:23.321Z</time></trkpt><trkpt lat="43.4237333" lon="10.868895"><ele>225.0</ele><time>2026-04-04T09:55:25.321Z</time></trkpt><trkpt lat="43.423775" lon="10.8689933"><ele>225.0</ele><time>2026-04-04T09:55:26.321Z</time></trkpt><trkpt lat="43.423815" lon="10.8691217"><ele>225.0</ele><time>2026-04-04T09:55:27.321Z</time></trkpt><trkpt lat="43.4238467" lon="10.8692917"><ele>225.0</ele><time>2026-04-04T09:55:28.321Z</time></trkpt><trkpt lat="43.4238933" lon="10.8694683"><ele>225.0</ele><time>2026-04-04T09:55:29.321Z</time></trkpt><trkpt lat="43.4239467" lon="10.8696417"><ele>221.25</ele><time>2026-04-04T09:55:30.321Z</time></trkpt><trkpt lat="43.42401" lon="10.8698117"><ele>217.5</ele><time>2026-04-04T09:55:31.321Z</time></trkpt><trkpt lat="43.4240767" lon="10.8699667"><ele>213.75</ele><time>2026-04-04T09:55:32.321Z</time></trkpt><trkpt lat="43.4241467" lon="10.8701233"><ele>210.0</ele><time>2026-04-04T09:55:33.322Z</time></trkpt><trkpt lat="43.42422" lon="10.8702733"><ele>210.0</ele><time>2026-04-04T09:55:34.322Z</time></trkpt><trkpt lat="43.424285" lon="10.8704317"><ele>210.0</ele><time>2026-04-04T09:55:35.321Z</time></trkpt><trkpt lat="43.4243317" lon="10.870595"><ele>210.0</ele><time>2026-04-04T09:55:36.321Z</time></trkpt><trkpt lat="43.4243717" lon="10.8707567"><ele>210.0</ele><time>2026-04-04T09:55:37.321Z</time></trkpt><trkpt lat="43.424415" lon="10.8709183"><ele>209.25</ele><time>2026-04-04T09:55:38.322Z</time></trkpt><trkpt lat="43.4244717" lon="10.8710817"><ele>208.5</ele><time>2026-04-04T09:55:39.321Z</time></trkpt><trkpt lat="43.4245267" lon="10.8712417"><ele>207.75</ele><time>2026-04-04T09:55:40.321Z</time></trkpt><trkpt lat="43.4245933" lon="10.8713983"><ele>207.0</ele><time>2026-04-04T09:55:41.322Z</time></trkpt><trkpt lat="43.4246733" lon="10.8715667"><ele>201.33333333333334</ele><time>2026-04-04T09:55:42.321Z</time></trkpt><trkpt lat="43.42478" lon="10.8717317"><ele>195.66666666666669</ele><time>2026-04-04T09:55:43.322Z</time></trkpt><trkpt lat="43.4249217" lon="10.871905"><ele>190.0</ele><time>2026-04-04T09:55:44.322Z</time></trkpt><trkpt lat="43.4250833" lon="10.8720767"><ele>190.0</ele><time>2026-04-04T09:55:45.322Z</time></trkpt><trkpt lat="43.4252233" lon="10.8722267"><ele>190.0</ele><time>2026-04-04T09:55:46.321Z</time></trkpt><trkpt lat="43.42533" lon="10.87237"><ele>190.0</ele><time>2026-04-04T09:55:47.321Z</time></trkpt><trkpt lat="43.4254217" lon="10.8724967"><ele>188.33333333333334</ele><time>2026-04-04T09:55:48.322Z</time></trkpt><trkpt lat="43.4255" lon="10.8725983"><ele>186.66666666666669</ele><time>2026-04-04T09:55:49.321Z</time></trkpt><trkpt lat="43.4255567" lon="10.872695"><ele>185.0</ele><time>2026-04-04T09:55:50.321Z</time></trkpt><trkpt lat="43.4255983" lon="10.872785"><ele>183.33333333333334</ele><time>2026-04-04T09:55:51.321Z</time></trkpt><trkpt lat="43.4256117" lon="10.8728767"><ele>181.66666666666666</ele><time>2026-04-04T09:55:52.321Z</time></trkpt><trkpt lat="43.4255833" lon="10.872965"><ele>180.0</ele><time>2026-04-04T09:55:53.321Z</time></trkpt><trkpt lat="43.425505" lon="10.8730133"><ele>181.2</ele><time>2026-04-04T09:55:54.321Z</time></trkpt><trkpt lat="43.4254383" lon="10.8730617"><ele>182.4</ele><time>2026-04-04T09:55:55.322Z</time></trkpt><trkpt lat="43.425355" lon="10.8731067"><ele>183.60000000000002</ele><time>2026-04-04T09:55:56.321Z</time></trkpt><trkpt lat="43.4252633" lon="10.8731783"><ele>184.8</ele><time>2026-04-04T09:55:57.321Z</time></trkpt><trkpt lat="43.425165" lon="10.8732717"><ele>186.0</ele><time>2026-04-04T09:55:58.321Z</time></trkpt><trkpt lat="43.4250883" lon="10.87337"><ele>183.0</ele><time>2026-04-04T09:55:59.321Z</time></trkpt><trkpt lat="43.4250317" lon="10.8734717"><ele>180.0</ele><time>2026-04-04T09:56:00.321Z</time></trkpt><trkpt lat="43.424995" lon="10.8735917"><ele>177.0</ele><time>2026-04-04T09:56:01.321Z</time></trkpt><trkpt lat="43.424955" lon="10.8737083"><ele>174.0</ele><time>2026-04-04T09:56:02.321Z</time></trkpt><trkpt lat="43.4249017" lon="10.8738283"><ele>171.0</ele><time>2026-04-04T09:56:03.321Z</time></trkpt><trkpt lat="43.424845" lon="10.8739417"><ele>171.0</ele><time>2026-04-04T09:56:04.321Z</time></trkpt><trkpt lat="43.4247617" lon="10.87407"><ele>171.0</ele><time>2026-04-04T09:56:05.321Z</time></trkpt><trkpt lat="43.424675" lon="10.8742133"><ele>171.0</ele><time>2026-04-04T09:56:06.322Z</time></trkpt><trkpt lat="43.4245917" lon="10.874355"><ele>171.0</ele><time>2026-04-04T09:56:07.321Z</time></trkpt><trkpt lat="43.4245183" lon="10.8744883"><ele>170.25</ele><time>2026-04-04T09:56:08.321Z</time></trkpt><trkpt lat="43.4244383" lon="10.87462"><ele>169.5</ele><time>2026-04-04T09:56:09.321Z</time></trkpt><trkpt lat="43.4243667" lon="10.8747517"><ele>168.75</ele><time>2026-04-04T09:56:10.322Z</time></trkpt><trkpt lat="43.4242967" lon="10.8748983"><ele>168.0</ele><time>2026-04-04T09:56:11.321Z</time></trkpt><trkpt lat="43.424255" lon="10.87505"><ele>167.0</ele><time>2026-04-04T09:56:12.322Z</time></trkpt><trkpt lat="43.4242133" lon="10.8752033"><ele>166.0</ele><time>2026-04-04T09:56:13.321Z</time></trkpt><trkpt lat="43.4241883" lon="10.87535"><ele>165.0</ele><time>2026-04-04T09:56:14.321Z</time></trkpt><trkpt lat="43.42417" lon="10.8755033"><ele>164.0</ele><time>2026-04-04T09:56:15.321Z</time></trkpt><trkpt lat="43.4241617" lon="10.8756517"><ele>163.0</ele><time>2026-04-04T09:56:16.322Z</time></trkpt><trkpt lat="43.42416" lon="10.8757967"><ele>163.0</ele><time>2026-04-04T09:56:17.321Z</time></trkpt><trkpt lat="43.4241617" lon="10.8759117"><ele>163.0</ele><time>2026-04-04T09:56:18.322Z</time></trkpt><trkpt lat="43.42418" lon="10.8760183"><ele>163.0</ele><time>2026-04-04T09:56:19.322Z</time></trkpt><trkpt lat="43.4242083" lon="10.8761133"><ele>163.0</ele><time>2026-04-04T09:56:20.322Z</time></trkpt><trkpt lat="43.42425" lon="10.8762067"><ele>163.0</ele><time>2026-04-04T09:56:21.321Z</time></trkpt><trkpt lat="43.424305" lon="10.87629"><ele>163.0</ele><time>2026-04-04T09:56:22.321Z</time></trkpt><trkpt lat="43.424385" lon="10.87637"><ele>162.83333333333334</ele><time>2026-04-04T09:56:23.322Z</time></trkpt><trkpt lat="43.42447" lon="10.876445"><ele>162.66666666666669</ele><time>2026-04-04T09:56:24.321Z</time></trkpt><trkpt lat="43.4245733" lon="10.8764967"><ele>162.5</ele><time>2026-04-04T09:56:25.321Z</time></trkpt><trkpt lat="43.4246767" lon="10.8765183"><ele>162.33333333333334</ele><time>2026-04-04T09:56:26.321Z</time></trkpt><trkpt lat="43.424745" lon="10.8765267"><ele>162.16666666666666</ele><time>2026-04-04T09:56:27.321Z</time></trkpt><trkpt lat="43.42481" lon="10.8765233"><ele>162.0</ele><time>2026-04-04T09:56:28.322Z</time></trkpt><trkpt lat="43.4248783" lon="10.8764867"><ele>161.2</ele><time>2026-04-04T09:56:30.321Z</time></trkpt><trkpt lat="43.424965" lon="10.87647"><ele>160.39999999999998</ele><time>2026-04-04T09:56:39.321Z</time></trkpt><trkpt lat="43.4250267" lon="10.876435"><ele>159.60000000000002</ele><time>2026-04-04T09:56:41.322Z</time></trkpt><trkpt lat="43.4251367" lon="10.87638"><ele>158.8</ele><time>2026-04-04T09:56:43.321Z</time></trkpt><trkpt lat="43.4252783" lon="10.876415"><ele>158.0</ele><time>2026-04-04T09:56:45.321Z</time></trkpt><trkpt lat="43.425365" lon="10.8764517"><ele>158.0</ele><time>2026-04-04T09:56:46.321Z</time></trkpt><trkpt lat="43.4254667" lon="10.8765117"><ele>158.0</ele><time>2026-04-04T09:56:47.321Z</time></trkpt><trkpt lat="43.4255783" lon="10.876595"><ele>158.0</ele><time>2026-04-04T09:56:48.321Z</time></trkpt><trkpt lat="43.425695" lon="10.87668"><ele>158.0</ele><time>2026-04-04T09:56:49.321Z</time></trkpt><trkpt lat="43.42582" lon="10.8767833"><ele>157.66666666666666</ele><time>2026-04-04T09:56:50.321Z</time></trkpt><trkpt lat="43.4259433" lon="10.8768633"><ele>157.33333333333334</ele><time>2026-04-04T09:56:51.322Z</time></trkpt><trkpt lat="43.4260783" lon="10.87695"><ele>157.0</ele><time>2026-04-04T09:56:52.321Z</time></trkpt><trkpt lat="43.4262317" lon="10.8770783"><ele>154.66666666666669</ele><time>2026-04-04T09:56:53.322Z</time></trkpt><trkpt lat="43.4263867" lon="10.8771917"><ele>152.33333333333334</ele><time>2026-04-04T09:56:54.321Z</time></trkpt><trkpt lat="43.42655" lon="10.8772867"><ele>150.0</ele><time>2026-04-04T09:56:55.322Z</time></trkpt><trkpt lat="43.4267217" lon="10.8773933"><ele>150.0</ele><time>2026-04-04T09:56:56.321Z</time></trkpt><trkpt lat="43.4268967" lon="10.87752"><ele>150.0</ele><time>2026-04-04T09:56:57.321Z</time></trkpt><trkpt lat="43.427055" lon="10.877635"><ele>150.0</ele><time>2026-04-04T09:56:58.322Z</time></trkpt><trkpt lat="43.4272067" lon="10.8777433"><ele>150.0</ele><time>2026-04-04T09:56:59.321Z</time></trkpt><trkpt lat="43.4273417" lon="10.87785"><ele>150.0</ele><time>2026-04-04T09:57:00.321Z</time></trkpt><trkpt lat="43.42748" lon="10.877965"><ele>150.0</ele><time>2026-04-04T09:57:01.321Z</time></trkpt><trkpt lat="43.4276067" lon="10.8780867"><ele>150.0</ele><time>2026-04-04T09:57:02.321Z</time></trkpt><trkpt lat="43.4277017" lon="10.878235"><ele>150.0</ele><time>2026-04-04T09:57:03.321Z</time></trkpt><trkpt lat="43.4278" lon="10.8783967"><ele>150.0</ele><time>2026-04-04T09:57:04.321Z</time></trkpt><trkpt lat="43.42788" lon="10.8785717"><ele>150.0</ele><time>2026-04-04T09:57:05.321Z</time></trkpt><trkpt lat="43.427935" lon="10.8787783"><ele>150.0</ele><time>2026-04-04T09:57:06.322Z</time></trkpt><trkpt lat="43.4279917" lon="10.8789917"><ele>150.0</ele><time>2026-04-04T09:57:07.321Z</time></trkpt><trkpt lat="43.4280567" lon="10.87919"><ele>150.0</ele><time>2026-04-04T09:57:08.321Z</time></trkpt><trkpt lat="43.42811" lon="10.87939"><ele>151.0</ele><time>2026-04-04T09:57:09.322Z</time></trkpt><trkpt lat="43.4281733" lon="10.879595"><ele>152.0</ele><time>2026-04-04T09:57:10.321Z</time></trkpt><trkpt lat="43.428225" lon="10.8797883"><ele>153.0</ele><time>2026-04-04T09:57:11.322Z</time></trkpt><trkpt lat="43.4282767" lon="10.879975"><ele>155.0</ele><time>2026-04-04T09:57:12.321Z</time></trkpt><trkpt lat="43.428335" lon="10.8801733"><ele>157.0</ele><time>2026-04-04T09:57:13.321Z</time></trkpt><trkpt lat="43.4283917" lon="10.8803667"><ele>159.0</ele><time>2026-04-04T09:57:14.322Z</time></trkpt><trkpt lat="43.428445" lon="10.88056"><ele>159.0</ele><time>2026-04-04T09:57:15.321Z</time></trkpt><trkpt lat="43.4285017" lon="10.8807617"><ele>159.0</ele><time>2026-04-04T09:57:16.321Z</time></trkpt><trkpt lat="43.4285633" lon="10.88096"><ele>159.0</ele><time>2026-04-04T09:57:17.322Z</time></trkpt><trkpt lat="43.4286183" lon="10.8811667"><ele>161.0</ele><time>2026-04-04T09:57:18.321Z</time></trkpt><trkpt lat="43.4286767" lon="10.8813733"><ele>163.0</ele><time>2026-04-04T09:57:19.322Z</time></trkpt><trkpt lat="43.4287467" lon="10.8815617"><ele>165.0</ele><time>2026-04-04T09:57:20.321Z</time></trkpt><trkpt lat="43.4288083" lon="10.8817667"><ele>162.0</ele><time>2026-04-04T09:57:21.321Z</time></trkpt><trkpt lat="43.4288683" lon="10.8819683"><ele>159.0</ele><time>2026-04-04T09:57:22.322Z</time></trkpt><trkpt lat="43.4289217" lon="10.8821917"><ele>156.0</ele><time>2026-04-04T09:57:23.322Z</time></trkpt><trkpt lat="43.4289667" lon="10.88241"><ele>157.0</ele><time>2026-04-04T09:57:24.322Z</time></trkpt><trkpt lat="43.4290317" lon="10.882635"><ele>158.0</ele><time>2026-04-04T09:57:25.321Z</time></trkpt><trkpt lat="43.4291017" lon="10.8828517"><ele>159.0</ele><time>2026-04-04T09:57:26.321Z</time></trkpt><trkpt lat="43.4291633" lon="10.8830733"><ele>159.0</ele><time>2026-04-04T09:57:27.322Z</time></trkpt><trkpt lat="43.42921" lon="10.8832767"><ele>159.0</ele><time>2026-04-04T09:57:28.321Z</time></trkpt><trkpt lat="43.4292633" lon="10.8834767"><ele>159.0</ele><time>2026-04-04T09:57:29.321Z</time></trkpt><trkpt lat="43.4293217" lon="10.8836817"><ele>161.0</ele><time>2026-04-04T09:57:30.322Z</time></trkpt><trkpt lat="43.4293783" lon="10.8838867"><ele>163.0</ele><time>2026-04-04T09:57:31.322Z</time></trkpt><trkpt lat="43.42943" lon="10.8840833"><ele>165.0</ele><time>2026-04-04T09:57:32.321Z</time></trkpt><trkpt lat="43.42949" lon="10.8842883"><ele>166.5</ele><time>2026-04-04T09:57:33.321Z</time></trkpt><trkpt lat="43.4295433" lon="10.8844967"><ele>168.0</ele><time>2026-04-04T09:57:34.322Z</time></trkpt><trkpt lat="43.429595" lon="10.8846867"><ele>169.5</ele><time>2026-04-04T09:57:35.321Z</time></trkpt><trkpt lat="43.4296483" lon="10.8848583"><ele>171.0</ele><time>2026-04-04T09:57:36.321Z</time></trkpt><trkpt lat="43.4296933" lon="10.8850233"><ele>168.5</ele><time>2026-04-04T09:57:37.321Z</time></trkpt><trkpt lat="43.4297333" lon="10.885175"><ele>166.0</ele><time>2026-04-04T09:57:38.321Z</time></trkpt><trkpt lat="43.4297633" lon="10.8853233"><ele>163.5</ele><time>2026-04-04T09:57:39.321Z</time></trkpt><trkpt lat="43.4297933" lon="10.88549"><ele>161.0</ele><time>2026-04-04T09:57:40.321Z</time></trkpt><trkpt lat="43.4297917" lon="10.88568"><ele>161.0</ele><time>2026-04-04T09:57:41.321Z</time></trkpt><trkpt lat="43.42977" lon="10.885875"><ele>161.0</ele><time>2026-04-04T09:57:42.321Z</time></trkpt><trkpt lat="43.4297383" lon="10.8860717"><ele>161.0</ele><time>2026-04-04T09:57:43.321Z</time></trkpt><trkpt lat="43.429705" lon="10.886265"><ele>161.0</ele><time>2026-04-04T09:57:44.321Z</time></trkpt><trkpt lat="43.42967" lon="10.8864567"><ele>164.5</ele><time>2026-04-04T09:57:45.322Z</time></trkpt><trkpt lat="43.429615" lon="10.8866667"><ele>168.0</ele><time>2026-04-04T09:57:46.321Z</time></trkpt><trkpt lat="43.4295917" lon="10.8868433"><ele>171.5</ele><time>2026-04-04T09:57:47.321Z</time></trkpt><trkpt lat="43.4295367" lon="10.8870167"><ele>175.0</ele><time>2026-04-04T09:57:48.321Z</time></trkpt><trkpt lat="43.429535" lon="10.8871567"><ele>175.0</ele><time>2026-04-04T09:57:49.321Z</time></trkpt><trkpt lat="43.4295517" lon="10.8872833"><ele>175.0</ele><time>2026-04-04T09:57:50.321Z</time></trkpt><trkpt lat="43.429575" lon="10.887385"><ele>175.0</ele><time>2026-04-04T09:57:51.321Z</time></trkpt><trkpt lat="43.4296167" lon="10.8874833"><ele>175.0</ele><time>2026-04-04T09:57:52.321Z</time></trkpt><trkpt lat="43.42967" lon="10.8875817"><ele>175.0</ele><time>2026-04-04T09:57:53.322Z</time></trkpt><trkpt lat="43.429745" lon="10.8876917"><ele>174.25</ele><time>2026-04-04T09:57:54.321Z</time></trkpt><trkpt lat="43.429845" lon="10.88779"><ele>173.5</ele><time>2026-04-04T09:57:55.321Z</time></trkpt><trkpt lat="43.4299667" lon="10.8878883"><ele>172.75</ele><time>2026-04-04T09:57:56.321Z</time></trkpt><trkpt lat="43.4300917" lon="10.8879833"><ele>172.0</ele><time>2026-04-04T09:57:57.321Z</time></trkpt><trkpt lat="43.43023" lon="10.888075"><ele>172.0</ele><time>2026-04-04T09:57:58.321Z</time></trkpt><trkpt lat="43.43036" lon="10.888195"><ele>172.0</ele><time>2026-04-04T09:57:59.321Z</time></trkpt><trkpt lat="43.4304917" lon="10.88831"><ele>172.0</ele><time>2026-04-04T09:58:00.321Z</time></trkpt><trkpt lat="43.43064" lon="10.8884317"><ele>171.33333333333334</ele><time>2026-04-04T09:58:01.321Z</time></trkpt><trkpt lat="43.430805" lon="10.8885633"><ele>170.66666666666666</ele><time>2026-04-04T09:58:02.321Z</time></trkpt><trkpt lat="43.4309483" lon="10.8886867"><ele>170.0</ele><time>2026-04-04T09:58:03.322Z</time></trkpt><trkpt lat="43.43109" lon="10.888815"><ele>170.0</ele><time>2026-04-04T09:58:04.322Z</time></trkpt><trkpt lat="43.4312217" lon="10.8889483"><ele>170.0</ele><time>2026-04-04T09:58:05.321Z</time></trkpt><trkpt lat="43.4313433" lon="10.88911"><ele>170.0</ele><time>2026-04-04T09:58:06.322Z</time></trkpt><trkpt lat="43.4314417" lon="10.8892683"><ele>170.0</ele><time>2026-04-04T09:58:07.321Z</time></trkpt><trkpt lat="43.4315317" lon="10.8894533"><ele>170.0</ele><time>2026-04-04T09:58:08.321Z</time></trkpt><trkpt lat="43.4316067" lon="10.88965"><ele>170.0</ele><time>2026-04-04T09:58:09.321Z</time></trkpt><trkpt lat="43.4316633" lon="10.8898667"><ele>170.66666666666666</ele><time>2026-04-04T09:58:10.321Z</time></trkpt><trkpt lat="43.4317083" lon="10.8900983"><ele>171.33333333333334</ele><time>2026-04-04T09:58:11.321Z</time></trkpt><trkpt lat="43.4317483" lon="10.8903367"><ele>172.0</ele><time>2026-04-04T09:58:12.322Z</time></trkpt><trkpt lat="43.431785" lon="10.8905667"><ele>172.0</ele><time>2026-04-04T09:58:13.321Z</time></trkpt><trkpt lat="43.4318133" lon="10.89079"><ele>172.0</ele><time>2026-04-04T09:58:14.321Z</time></trkpt><trkpt lat="43.4318183" lon="10.8910033"><ele>172.0</ele><time>2026-04-04T09:58:15.321Z</time></trkpt><trkpt lat="43.4318233" lon="10.8911967"><ele>172.75</ele><time>2026-04-04T09:58:16.322Z</time></trkpt><trkpt lat="43.431815" lon="10.8914017"><ele>173.5</ele><time>2026-04-04T09:58:17.321Z</time></trkpt><trkpt lat="43.4318167" lon="10.89159"><ele>174.25</ele><time>2026-04-04T09:58:18.321Z</time></trkpt><trkpt lat="43.4318067" lon="10.8917933"><ele>175.0</ele><time>2026-04-04T09:58:19.322Z</time></trkpt><trkpt lat="43.4317867" lon="10.892005"><ele>175.4</ele><time>2026-04-04T09:58:20.322Z</time></trkpt><trkpt lat="43.431775" lon="10.8921783"><ele>175.8</ele><time>2026-04-04T09:58:21.321Z</time></trkpt><trkpt lat="43.4317583" lon="10.8923183"><ele>176.2</ele><time>2026-04-04T09:58:22.321Z</time></trkpt><trkpt lat="43.4317483" lon="10.8924567"><ele>176.6</ele><time>2026-04-04T09:58:23.321Z</time></trkpt><trkpt lat="43.4317483" lon="10.8925683"><ele>177.0</ele><time>2026-04-04T09:58:24.321Z</time></trkpt><trkpt lat="43.431765" lon="10.892705"><ele>177.16666666666666</ele><time>2026-04-04T09:58:26.321Z</time></trkpt><trkpt lat="43.4317833" lon="10.8928033"><ele>177.33333333333334</ele><time>2026-04-04T09:58:32.321Z</time></trkpt><trkpt lat="43.4318167" lon="10.8928867"><ele>177.5</ele><time>2026-04-04T09:58:47.321Z</time></trkpt><trkpt lat="43.4318733" lon="10.8929367"><ele>177.66666666666669</ele><time>2026-04-04T09:58:51.322Z</time></trkpt><trkpt lat="43.4319567" lon="10.8929533"><ele>177.83333333333334</ele><time>2026-04-04T09:58:54.321Z</time></trkpt><trkpt lat="43.4320233" lon="10.8929467"><ele>178.0</ele><time>2026-04-04T09:58:56.322Z</time></trkpt><trkpt lat="43.4321167" lon="10.8929267"><ele>177.16666666666669</ele><time>2026-04-04T09:58:58.322Z</time></trkpt><trkpt lat="43.4321817" lon="10.8929233"><ele>176.33333333333334</ele><time>2026-04-04T09:58:59.321Z</time></trkpt><trkpt lat="43.432255" lon="10.892915"><ele>175.5</ele><time>2026-04-04T09:59:00.321Z</time></trkpt><trkpt lat="43.4323283" lon="10.8929167"><ele>174.66666666666666</ele><time>2026-04-04T09:59:01.32Z</time></trkpt><trkpt lat="43.4324383" lon="10.8928833"><ele>173.83333333333331</ele><time>2026-04-04T09:59:03.32Z</time></trkpt><trkpt lat="43.4325017" lon="10.89286"><ele>173.0</ele><time>2026-04-04T09:59:04.32Z</time></trkpt><trkpt lat="43.432575" lon="10.89283"><ele>173.0</ele><time>2026-04-04T09:59:05.32Z</time></trkpt><trkpt lat="43.4326467" lon="10.892795"><ele>173.0</ele><time>2026-04-04T09:59:06.321Z</time></trkpt><trkpt lat="43.4327233" lon="10.892765"><ele>173.0</ele><time>2026-04-04T09:59:07.32Z</time></trkpt><trkpt lat="43.4328" lon="10.8927333"><ele>173.0</ele><time>2026-04-04T09:59:08.32Z</time></trkpt><trkpt lat="43.432875" lon="10.89271"><ele>173.0</ele><time>2026-04-04T09:59:09.32Z</time></trkpt><trkpt lat="43.4329433" lon="10.8927017"><ele>173.0</ele><time>2026-04-04T09:59:10.32Z</time></trkpt><trkpt lat="43.4330233" lon="10.89268"><ele>173.83333333333331</ele><time>2026-04-04T09:59:11.32Z</time></trkpt><trkpt lat="43.4330917" lon="10.8926667"><ele>174.66666666666666</ele><time>2026-04-04T09:59:12.321Z</time></trkpt><trkpt lat="43.4332067" lon="10.8926667"><ele>175.5</ele><time>2026-04-04T09:59:14.32Z</time></trkpt><trkpt lat="43.4332817" lon="10.8927067"><ele>176.33333333333334</ele><time>2026-04-04T09:59:15.321Z</time></trkpt><trkpt lat="43.4333517" lon="10.892745"><ele>177.16666666666669</ele><time>2026-04-04T09:59:16.32Z</time></trkpt><trkpt lat="43.4334117" lon="10.8927983"><ele>178.0</ele><time>2026-04-04T09:59:17.32Z</time></trkpt><trkpt lat="43.43347" lon="10.8928617"><ele>178.0</ele><time>2026-04-04T09:59:18.32Z</time></trkpt><trkpt lat="43.4335267" lon="10.8929217"><ele>178.0</ele><time>2026-04-04T09:59:19.32Z</time></trkpt><trkpt lat="43.4335867" lon="10.89296"><ele>178.0</ele><time>2026-04-04T09:59:20.32Z</time></trkpt><trkpt lat="43.433655" lon="10.8930317"><ele>178.0</ele><time>2026-04-04T09:59:21.32Z</time></trkpt><trkpt lat="43.433735" lon="10.8931033"><ele>178.0</ele><time>2026-04-04T09:59:22.321Z</time></trkpt><trkpt lat="43.4338233" lon="10.8931783"><ele>178.0</ele><time>2026-04-04T09:59:23.32Z</time></trkpt><trkpt lat="43.4339133" lon="10.8932433"><ele>178.60000000000002</ele><time>2026-04-04T09:59:24.32Z</time></trkpt><trkpt lat="43.434005" lon="10.893305"><ele>179.20000000000002</ele><time>2026-04-04T09:59:25.32Z</time></trkpt><trkpt lat="43.4340917" lon="10.8933633"><ele>179.8</ele><time>2026-04-04T09:59:26.32Z</time></trkpt><trkpt lat="43.4341967" lon="10.893445"><ele>180.4</ele><time>2026-04-04T09:59:27.32Z</time></trkpt><trkpt lat="43.4342967" lon="10.8935383"><ele>181.0</ele><time>2026-04-04T09:59:28.32Z</time></trkpt><trkpt lat="43.4343833" lon="10.8936267"><ele>181.0</ele><time>2026-04-04T09:59:29.32Z</time></trkpt><trkpt lat="43.43444" lon="10.89371"><ele>181.0</ele><time>2026-04-04T09:59:30.32Z</time></trkpt><trkpt lat="43.4344967" lon="10.8938317"><ele>181.0</ele><time>2026-04-04T09:59:32.32Z</time></trkpt><trkpt lat="43.4345433" lon="10.89391"><ele>181.0</ele><time>2026-04-04T09:59:34.32Z</time></trkpt><trkpt lat="43.4346067" lon="10.8939617"><ele>181.0</ele><time>2026-04-04T09:59:37.32Z</time></trkpt><trkpt lat="43.4346833" lon="10.893985"><ele>181.0</ele><time>2026-04-04T09:59:40.32Z</time></trkpt><trkpt lat="43.434735" lon="10.8938933"><ele>183.33333333333334</ele><time>2026-04-04T09:59:43.321Z</time></trkpt><trkpt lat="43.4347383" lon="10.893785"><ele>185.66666666666669</ele><time>2026-04-04T09:59:45.321Z</time></trkpt><trkpt lat="43.4347283" lon="10.893625"><ele>188.0</ele><time>2026-04-04T09:59:47.321Z</time></trkpt><trkpt lat="43.4347183" lon="10.89353"><ele>190.33333333333334</ele><time>2026-04-04T09:59:48.32Z</time></trkpt><trkpt lat="43.434705" lon="10.89343"><ele>192.66666666666666</ele><time>2026-04-04T09:59:49.321Z</time></trkpt><trkpt lat="43.4346933" lon="10.8933067"><ele>195.0</ele><time>2026-04-04T09:59:50.32Z</time></trkpt><trkpt lat="43.4346933" lon="10.8931817"><ele>195.4</ele><time>2026-04-04T09:59:51.32Z</time></trkpt><trkpt lat="43.434695" lon="10.89304"><ele>195.8</ele><time>2026-04-04T09:59:52.321Z</time></trkpt><trkpt lat="43.434685" lon="10.89291"><ele>196.2</ele><time>2026-04-04T09:59:53.321Z</time></trkpt><trkpt lat="43.4346617" lon="10.8927867"><ele>196.6</ele><time>2026-04-04T09:59:54.32Z</time></trkpt><trkpt lat="43.4346283" lon="10.892675"><ele>197.0</ele><time>2026-04-04T09:59:55.32Z</time></trkpt><trkpt lat="43.4345867" lon="10.89258"><ele>197.00000000000003</ele><time>2026-04-04T09:59:56.321Z</time></trkpt><trkpt lat="43.4345367" lon="10.8924783"><ele>197.0</ele><time>2026-04-04T09:59:57.32Z</time></trkpt><trkpt lat="43.4344983" lon="10.89238"><ele>197.0</ele><time>2026-04-04T09:59:58.32Z</time></trkpt><trkpt lat="43.4344667" lon="10.892285"><ele>197.0</ele><time>2026-04-04T09:59:59.32Z</time></trkpt><trkpt lat="43.434445" lon="10.892185"><ele>197.00000000000003</ele><time>2026-04-04T10:00:00.321Z</time></trkpt><trkpt lat="43.4344333" lon="10.8920833"><ele>197.0</ele><time>2026-04-04T10:00:01.32Z</time></trkpt><trkpt lat="43.43443" lon="10.8919767"><ele>197.00000000000003</ele><time>2026-04-04T10:00:02.32Z</time></trkpt><trkpt lat="43.4344433" lon="10.8918833"><ele>197.0</ele><time>2026-04-04T10:00:03.321Z</time></trkpt><trkpt lat="43.4344667" lon="10.8917967"><ele>197.0</ele><time>2026-04-04T10:00:04.32Z</time></trkpt><trkpt lat="43.4345183" lon="10.89165"><ele>197.0</ele><time>2026-04-04T10:00:06.32Z</time></trkpt><trkpt lat="43.4345883" lon="10.8915483"><ele>197.00000000000003</ele><time>2026-04-04T10:00:08.32Z</time></trkpt><trkpt lat="43.4346733" lon="10.8915067"><ele>197.0</ele><time>2026-04-04T10:00:10.321Z</time></trkpt><trkpt lat="43.4347583" lon="10.8915667"><ele>199.33333333333334</ele><time>2026-04-04T10:00:12.32Z</time></trkpt><trkpt lat="43.4348167" lon="10.8917"><ele>201.66666666666669</ele><time>2026-04-04T10:00:14.32Z</time></trkpt><trkpt lat="43.434835" lon="10.8917883"><ele>204.0</ele><time>2026-04-04T10:00:15.32Z</time></trkpt><trkpt lat="43.4348517" lon="10.8918917"><ele>206.33333333333331</ele><time>2026-04-04T10:00:16.32Z</time></trkpt><trkpt lat="43.4348883" lon="10.8919917"><ele>208.66666666666666</ele><time>2026-04-04T10:00:17.32Z</time></trkpt><trkpt lat="43.4349267" lon="10.892095"><ele>211.0</ele><time>2026-04-04T10:00:18.32Z</time></trkpt><trkpt lat="43.43498" lon="10.8921967"><ele>211.0</ele><time>2026-04-04T10:00:19.32Z</time></trkpt><trkpt lat="43.4350433" lon="10.8922883"><ele>211.0</ele><time>2026-04-04T10:00:20.32Z</time></trkpt><trkpt lat="43.43511" lon="10.892375"><ele>211.0</ele><time>2026-04-04T10:00:21.32Z</time></trkpt><trkpt lat="43.4351817" lon="10.8924617"><ele>211.0</ele><time>2026-04-04T10:00:22.321Z</time></trkpt><trkpt lat="43.43526" lon="10.8925383"><ele>211.0</ele><time>2026-04-04T10:00:23.32Z</time></trkpt><trkpt lat="43.4353433" lon="10.8926283"><ele>209.8</ele><time>2026-04-04T10:00:24.321Z</time></trkpt><trkpt lat="43.4354233" lon="10.8927233"><ele>208.60000000000002</ele><time>2026-04-04T10:00:25.321Z</time></trkpt><trkpt lat="43.4355033" lon="10.8928267"><ele>207.4</ele><time>2026-04-04T10:00:26.32Z</time></trkpt><trkpt lat="43.435575" lon="10.892935"><ele>206.2</ele><time>2026-04-04T10:00:27.32Z</time></trkpt><trkpt lat="43.43564" lon="10.8930317"><ele>205.0</ele><time>2026-04-04T10:00:28.32Z</time></trkpt><trkpt lat="43.4357" lon="10.893125"><ele>205.99999999999997</ele><time>2026-04-04T10:00:29.32Z</time></trkpt><trkpt lat="43.4357717" lon="10.893215"><ele>207.0</ele><time>2026-04-04T10:00:30.32Z</time></trkpt><trkpt lat="43.4358333" lon="10.8933"><ele>208.0</ele><time>2026-04-04T10:00:31.32Z</time></trkpt><trkpt lat="43.43589" lon="10.8933867"><ele>209.0</ele><time>2026-04-04T10:00:32.32Z</time></trkpt><trkpt lat="43.4359433" lon="10.8934667"><ele>209.99999999999997</ele><time>2026-04-04T10:00:33.321Z</time></trkpt><trkpt lat="43.4359933" lon="10.89355"><ele>211.0</ele><time>2026-04-04T10:00:34.32Z</time></trkpt><trkpt lat="43.4360467" lon="10.8936217"><ele>211.0</ele><time>2026-04-04T10:00:35.32Z</time></trkpt><trkpt lat="43.4361617" lon="10.8937183"><ele>211.0</ele><time>2026-04-04T10:00:37.32Z</time></trkpt><trkpt lat="43.4362233" lon="10.8937483"><ele>211.0</ele><time>2026-04-04T10:00:38.321Z</time></trkpt><trkpt lat="43.43629" lon="10.8937917"><ele>211.0</ele><time>2026-04-04T10:00:39.32Z</time></trkpt><trkpt lat="43.4364083" lon="10.8938267"><ele>211.0</ele><time>2026-04-04T10:00:41.32Z</time></trkpt><trkpt lat="43.4365133" lon="10.89385"><ele>212.4</ele><time>2026-04-04T10:00:43.32Z</time></trkpt><trkpt lat="43.43664" lon="10.8938883"><ele>213.8</ele><time>2026-04-04T10:00:45.32Z</time></trkpt><trkpt lat="43.436725" lon="10.893915"><ele>215.20000000000002</ele><time>2026-04-04T10:00:46.32Z</time></trkpt><trkpt lat="43.4368233" lon="10.8939383"><ele>216.60000000000002</ele><time>2026-04-04T10:00:47.32Z</time></trkpt><trkpt lat="43.436925" lon="10.8939783"><ele>218.0</ele><time>2026-04-04T10:00:48.32Z</time></trkpt><trkpt lat="43.437025" lon="10.89403"><ele>218.0</ele><time>2026-04-04T10:00:49.32Z</time></trkpt><trkpt lat="43.437125" lon="10.8941"><ele>218.0</ele><time>2026-04-04T10:00:50.32Z</time></trkpt><trkpt lat="43.43722" lon="10.89418"><ele>218.0</ele><time>2026-04-04T10:00:51.321Z</time></trkpt><trkpt lat="43.4373" lon="10.89427"><ele>218.0</ele><time>2026-04-04T10:00:52.32Z</time></trkpt><trkpt lat="43.4373933" lon="10.89438"><ele>220.25</ele><time>2026-04-04T10:00:53.32Z</time></trkpt><trkpt lat="43.4374817" lon="10.89449"><ele>222.5</ele><time>2026-04-04T10:00:54.32Z</time></trkpt><trkpt lat="43.4375517" lon="10.8946133"><ele>224.75</ele><time>2026-04-04T10:00:55.321Z</time></trkpt><trkpt lat="43.4376083" lon="10.894745"><ele>227.0</ele><time>2026-04-04T10:00:56.32Z</time></trkpt><trkpt lat="43.437655" lon="10.8948833"><ele>227.0</ele><time>2026-04-04T10:00:57.321Z</time></trkpt><trkpt lat="43.4377133" lon="10.8950233"><ele>227.0</ele><time>2026-04-04T10:00:58.32Z</time></trkpt><trkpt lat="43.4377733" lon="10.8951617"><ele>227.0</ele><time>2026-04-04T10:00:59.321Z</time></trkpt><trkpt lat="43.4378317" lon="10.8952967"><ele>227.0</ele><time>2026-04-04T10:01:00.32Z</time></trkpt><trkpt lat="43.43788" lon="10.8954267"><ele>227.33333333333334</ele><time>2026-04-04T10:01:01.32Z</time></trkpt><trkpt lat="43.43794" lon="10.8955317"><ele>227.66666666666669</ele><time>2026-04-04T10:01:02.32Z</time></trkpt><trkpt lat="43.4380083" lon="10.8956117"><ele>228.0</ele><time>2026-04-04T10:01:03.32Z</time></trkpt><trkpt lat="43.4380817" lon="10.8956817"><ele>228.33333333333331</ele><time>2026-04-04T10:01:04.321Z</time></trkpt><trkpt lat="43.438125" lon="10.895755"><ele>228.66666666666666</ele><time>2026-04-04T10:01:05.32Z</time></trkpt><trkpt lat="43.4381633" lon="10.89584"><ele>229.0</ele><time>2026-04-04T10:01:06.32Z</time></trkpt><trkpt lat="43.4381867" lon="10.895935"><ele>229.6</ele><time>2026-04-04T10:01:07.32Z</time></trkpt><trkpt lat="43.4381983" lon="10.8960467"><ele>230.2</ele><time>2026-04-04T10:01:08.32Z</time></trkpt><trkpt lat="43.438205" lon="10.896165"><ele>230.79999999999998</ele><time>2026-04-04T10:01:09.321Z</time></trkpt><trkpt lat="43.4382083" lon="10.8963083"><ele>231.39999999999998</ele><time>2026-04-04T10:01:10.32Z</time></trkpt><trkpt lat="43.4382283" lon="10.896465"><ele>232.0</ele><time>2026-04-04T10:01:11.321Z</time></trkpt><trkpt lat="43.4382517" lon="10.89662"><ele>233.75</ele><time>2026-04-04T10:01:12.32Z</time></trkpt><trkpt lat="43.4382883" lon="10.8967767"><ele>235.5</ele><time>2026-04-04T10:01:13.32Z</time></trkpt><trkpt lat="43.4383217" lon="10.896935"><ele>237.25</ele><time>2026-04-04T10:01:14.321Z</time></trkpt><trkpt lat="43.4383483" lon="10.8971"><ele>239.0</ele><time>2026-04-04T10:01:15.32Z</time></trkpt><trkpt lat="43.438375" lon="10.89725"><ele>239.0</ele><time>2026-04-04T10:01:16.321Z</time></trkpt><trkpt lat="43.4383833" lon="10.89741"><ele>238.99999999999997</ele><time>2026-04-04T10:01:17.32Z</time></trkpt><trkpt lat="43.4383967" lon="10.8975533"><ele>238.99999999999997</ele><time>2026-04-04T10:01:18.32Z</time></trkpt><trkpt lat="43.438425" lon="10.8976783"><ele>239.0</ele><time>2026-04-04T10:01:19.32Z</time></trkpt><trkpt lat="43.438475" lon="10.8977933"><ele>239.0</ele><time>2026-04-04T10:01:20.32Z</time></trkpt><trkpt lat="43.4385367" lon="10.8979083"><ele>240.6</ele><time>2026-04-04T10:01:21.32Z</time></trkpt><trkpt lat="43.43859" lon="10.898015"><ele>242.2</ele><time>2026-04-04T10:01:22.32Z</time></trkpt><trkpt lat="43.43864" lon="10.8981267"><ele>243.79999999999998</ele><time>2026-04-04T10:01:23.321Z</time></trkpt><trkpt lat="43.4386933" lon="10.8982567"><ele>245.39999999999998</ele><time>2026-04-04T10:01:24.32Z</time></trkpt><trkpt lat="43.4387383" lon="10.8984"><ele>247.0</ele><time>2026-04-04T10:01:25.32Z</time></trkpt><trkpt lat="43.4387917" lon="10.8985333"><ele>247.8</ele><time>2026-04-04T10:01:26.32Z</time></trkpt><trkpt lat="43.4388467" lon="10.8986583"><ele>248.6</ele><time>2026-04-04T10:01:27.32Z</time></trkpt><trkpt lat="43.4389183" lon="10.89878"><ele>249.40000000000003</ele><time>2026-04-04T10:01:28.32Z</time></trkpt><trkpt lat="43.43899" lon="10.8988933"><ele>250.20000000000002</ele><time>2026-04-04T10:01:29.32Z</time></trkpt><trkpt lat="43.439065" lon="10.8989967"><ele>251.0</ele><time>2026-04-04T10:01:30.32Z</time></trkpt><trkpt lat="43.4391417" lon="10.89908"><ele>251.0</ele><time>2026-04-04T10:01:31.32Z</time></trkpt><trkpt lat="43.4392217" lon="10.8991583"><ele>251.00000000000003</ele><time>2026-04-04T10:01:32.32Z</time></trkpt><trkpt lat="43.4392883" lon="10.8992267"><ele>251.00000000000003</ele><time>2026-04-04T10:01:33.321Z</time></trkpt><trkpt lat="43.4393383" lon="10.899295"><ele>251.0</ele><time>2026-04-04T10:01:34.32Z</time></trkpt><trkpt lat="43.439435" lon="10.8993967"><ele>251.0</ele><time>2026-04-04T10:01:36.32Z</time></trkpt><trkpt lat="43.4395267" lon="10.8994883"><ele>250.33333333333334</ele><time>2026-04-04T10:01:38.321Z</time></trkpt><trkpt lat="43.43958" lon="10.8995417"><ele>249.66666666666669</ele><time>2026-04-04T10:01:39.321Z</time></trkpt><trkpt lat="43.4396383" lon="10.8996183"><ele>249.0</ele><time>2026-04-04T10:01:40.321Z</time></trkpt><trkpt lat="43.4396833" lon="10.89972"><ele>248.33333333333331</ele><time>2026-04-04T10:01:41.321Z</time></trkpt><trkpt lat="43.4397217" lon="10.8998317"><ele>247.66666666666666</ele><time>2026-04-04T10:01:42.32Z</time></trkpt><trkpt lat="43.4397483" lon="10.8999367"><ele>247.0</ele><time>2026-04-04T10:01:43.32Z</time></trkpt><trkpt lat="43.4397633" lon="10.9000633"><ele>247.0</ele><time>2026-04-04T10:01:44.32Z</time></trkpt><trkpt lat="43.4397383" lon="10.9002233"><ele>247.0</ele><time>2026-04-04T10:01:45.321Z</time></trkpt><trkpt lat="43.4396917" lon="10.900385"><ele>247.0</ele><time>2026-04-04T10:01:46.32Z</time></trkpt><trkpt lat="43.43965" lon="10.9005317"><ele>247.0</ele><time>2026-04-04T10:01:47.32Z</time></trkpt><trkpt lat="43.4396433" lon="10.9006617"><ele>246.99999999999997</ele><time>2026-04-04T10:01:48.32Z</time></trkpt><trkpt lat="43.439635" lon="10.9007833"><ele>247.0</ele><time>2026-04-04T10:01:49.32Z</time></trkpt><trkpt lat="43.439635" lon="10.9009017"><ele>247.0</ele><time>2026-04-04T10:01:50.32Z</time></trkpt><trkpt lat="43.4396217" lon="10.90103"><ele>247.0</ele><time>2026-04-04T10:01:51.32Z</time></trkpt><trkpt lat="43.4396333" lon="10.901145"><ele>246.99999999999997</ele><time>2026-04-04T10:01:52.32Z</time></trkpt><trkpt lat="43.4396583" lon="10.9012617"><ele>247.0</ele><time>2026-04-04T10:01:53.32Z</time></trkpt><trkpt lat="43.4397" lon="10.9013817"><ele>247.6</ele><time>2026-04-04T10:01:54.32Z</time></trkpt><trkpt lat="43.4397617" lon="10.9015067"><ele>248.2</ele><time>2026-04-04T10:01:55.32Z</time></trkpt><trkpt lat="43.43983" lon="10.90162"><ele>248.8</ele><time>2026-04-04T10:01:56.32Z</time></trkpt><trkpt lat="43.4398983" lon="10.9017317"><ele>249.4</ele><time>2026-04-04T10:01:57.321Z</time></trkpt><trkpt lat="43.4399483" lon="10.901835"><ele>250.0</ele><time>2026-04-04T10:01:58.32Z</time></trkpt><trkpt lat="43.44" lon="10.901925"><ele>250.8</ele><time>2026-04-04T10:01:59.321Z</time></trkpt><trkpt lat="43.4400667" lon="10.9020433"><ele>251.6</ele><time>2026-04-04T10:02:00.321Z</time></trkpt><trkpt lat="43.4401217" lon="10.9021433"><ele>252.39999999999998</ele><time>2026-04-04T10:02:01.321Z</time></trkpt><trkpt lat="43.4401983" lon="10.9022333"><ele>253.2</ele><time>2026-04-04T10:02:02.32Z</time></trkpt><trkpt lat="43.44028" lon="10.902325"><ele>254.0</ele><time>2026-04-04T10:02:03.32Z</time></trkpt><trkpt lat="43.440365" lon="10.902405"><ele>254.0</ele><time>2026-04-04T10:02:04.32Z</time></trkpt><trkpt lat="43.4404633" lon="10.902475"><ele>254.0</ele><time>2026-04-04T10:02:05.32Z</time></trkpt><trkpt lat="43.4405667" lon="10.9025417"><ele>254.0</ele><time>2026-04-04T10:02:06.32Z</time></trkpt><trkpt lat="43.44067" lon="10.9025967"><ele>254.0</ele><time>2026-04-04T10:02:07.321Z</time></trkpt><trkpt lat="43.4407883" lon="10.9026417"><ele>252.0</ele><time>2026-04-04T10:02:08.32Z</time></trkpt><trkpt lat="43.4408917" lon="10.90267"><ele>249.99999999999997</ele><time>2026-04-04T10:02:09.321Z</time></trkpt><trkpt lat="43.4409967" lon="10.9026917"><ele>247.99999999999997</ele><time>2026-04-04T10:02:10.32Z</time></trkpt><trkpt lat="43.441105" lon="10.9027017"><ele>246.0</ele><time>2026-04-04T10:02:11.32Z</time></trkpt><trkpt lat="43.4412217" lon="10.90271"><ele>244.0</ele><time>2026-04-04T10:02:12.32Z</time></trkpt><trkpt lat="43.4413433" lon="10.9027167"><ele>244.0</ele><time>2026-04-04T10:02:13.32Z</time></trkpt><trkpt lat="43.44147" lon="10.9027167"><ele>244.0</ele><time>2026-04-04T10:02:14.32Z</time></trkpt><trkpt lat="43.4415933" lon="10.902735"><ele>244.0</ele><time>2026-04-04T10:02:15.32Z</time></trkpt><trkpt lat="43.441715" lon="10.9027733"><ele>244.0</ele><time>2026-04-04T10:02:16.321Z</time></trkpt><trkpt lat="43.4418383" lon="10.9028283"><ele>244.0</ele><time>2026-04-04T10:02:17.321Z</time></trkpt><trkpt lat="43.4419683" lon="10.90291"><ele>244.0</ele><time>2026-04-04T10:02:18.321Z</time></trkpt><trkpt lat="43.4420933" lon="10.9029917"><ele>244.0</ele><time>2026-04-04T10:02:19.32Z</time></trkpt><trkpt lat="43.4421983" lon="10.9030767"><ele>244.0</ele><time>2026-04-04T10:02:20.321Z</time></trkpt><trkpt lat="43.4423067" lon="10.903165"><ele>244.5</ele><time>2026-04-04T10:02:21.32Z</time></trkpt><trkpt lat="43.4424133" lon="10.9032617"><ele>245.0</ele><time>2026-04-04T10:02:22.321Z</time></trkpt><trkpt lat="43.4425183" lon="10.9033667"><ele>245.5</ele><time>2026-04-04T10:02:23.321Z</time></trkpt><trkpt lat="43.4426217" lon="10.9034667"><ele>246.0</ele><time>2026-04-04T10:02:24.32Z</time></trkpt><trkpt lat="43.4427233" lon="10.9035633"><ele>245.75</ele><time>2026-04-04T10:02:25.32Z</time></trkpt><trkpt lat="43.4428233" lon="10.9036533"><ele>245.5</ele><time>2026-04-04T10:02:26.32Z</time></trkpt><trkpt lat="43.4429233" lon="10.9037433"><ele>245.25</ele><time>2026-04-04T10:02:27.321Z</time></trkpt><trkpt lat="43.4430217" lon="10.9038267"><ele>245.0</ele><time>2026-04-04T10:02:28.32Z</time></trkpt><trkpt lat="43.443125" lon="10.9039183"><ele>245.0</ele><time>2026-04-04T10:02:29.321Z</time></trkpt><trkpt lat="43.4432267" lon="10.9040233"><ele>245.0</ele><time>2026-04-04T10:02:30.32Z</time></trkpt><trkpt lat="43.4433283" lon="10.904125"><ele>245.0</ele><time>2026-04-04T10:02:31.321Z</time></trkpt><trkpt lat="43.443435" lon="10.9042267"><ele>245.0</ele><time>2026-04-04T10:02:32.321Z</time></trkpt><trkpt lat="43.443545" lon="10.9043333"><ele>243.75</ele><time>2026-04-04T10:02:33.32Z</time></trkpt><trkpt lat="43.44366" lon="10.9044433"><ele>242.5</ele><time>2026-04-04T10:02:34.32Z</time></trkpt><trkpt lat="43.4437767" lon="10.9045533"><ele>241.25</ele><time>2026-04-04T10:02:35.32Z</time></trkpt><trkpt lat="43.4438833" lon="10.904645"><ele>240.0</ele><time>2026-04-04T10:02:36.32Z</time></trkpt><trkpt lat="43.443985" lon="10.904745"><ele>241.6</ele><time>2026-04-04T10:02:37.321Z</time></trkpt><trkpt lat="43.444085" lon="10.9048567"><ele>243.2</ele><time>2026-04-04T10:02:38.32Z</time></trkpt><trkpt lat="43.4441783" lon="10.904955"><ele>244.8</ele><time>2026-04-04T10:02:39.32Z</time></trkpt><trkpt lat="43.4442533" lon="10.9050517"><ele>246.4</ele><time>2026-04-04T10:02:40.32Z</time></trkpt><trkpt lat="43.4443117" lon="10.9051533"><ele>248.0</ele><time>2026-04-04T10:02:41.32Z</time></trkpt><trkpt lat="43.4443583" lon="10.9052417"><ele>248.0</ele><time>2026-04-04T10:02:42.32Z</time></trkpt><trkpt lat="43.4444" lon="10.9053317"><ele>248.0</ele><time>2026-04-04T10:02:43.32Z</time></trkpt><trkpt lat="43.444445" lon="10.9054283"><ele>248.0</ele><time>2026-04-04T10:02:44.32Z</time></trkpt><trkpt lat="43.4444967" lon="10.905525"><ele>248.0</ele><time>2026-04-04T10:02:45.32Z</time></trkpt><trkpt lat="43.44455" lon="10.905635"><ele>248.0</ele><time>2026-04-04T10:02:46.32Z</time></trkpt><trkpt lat="43.44462" lon="10.9057567"><ele>248.25</ele><time>2026-04-04T10:02:47.32Z</time></trkpt><trkpt lat="43.4446917" lon="10.9058833"><ele>248.5</ele><time>2026-04-04T10:02:48.32Z</time></trkpt><trkpt lat="43.44478" lon="10.905995"><ele>248.75</ele><time>2026-04-04T10:02:49.32Z</time></trkpt><trkpt lat="43.44487" lon="10.90611"><ele>249.0</ele><time>2026-04-04T10:02:50.321Z</time></trkpt><trkpt lat="43.444955" lon="10.9062317"><ele>249.75</ele><time>2026-04-04T10:02:51.321Z</time></trkpt><trkpt lat="43.4450433" lon="10.9063433"><ele>250.5</ele><time>2026-04-04T10:02:52.32Z</time></trkpt><trkpt lat="43.4451317" lon="10.9064617"><ele>251.25</ele><time>2026-04-04T10:02:53.32Z</time></trkpt><trkpt lat="43.4452167" lon="10.9065733"><ele>252.0</ele><time>2026-04-04T10:02:54.32Z</time></trkpt><trkpt lat="43.4452933" lon="10.9066967"><ele>251.75</ele><time>2026-04-04T10:02:55.32Z</time></trkpt><trkpt lat="43.4453733" lon="10.9068267"><ele>251.5</ele><time>2026-04-04T10:02:56.32Z</time></trkpt><trkpt lat="43.4454483" lon="10.9069717"><ele>251.25</ele><time>2026-04-04T10:02:57.32Z</time></trkpt><trkpt lat="43.44553" lon="10.9071267"><ele>251.0</ele><time>2026-04-04T10:02:58.32Z</time></trkpt><trkpt lat="43.445605" lon="10.9072533"><ele>252.0</ele><time>2026-04-04T10:02:59.32Z</time></trkpt><trkpt lat="43.4456767" lon="10.9073867"><ele>253.0</ele><time>2026-04-04T10:03:00.321Z</time></trkpt><trkpt lat="43.4457583" lon="10.90751"><ele>254.0</ele><time>2026-04-04T10:03:01.321Z</time></trkpt><trkpt lat="43.44583" lon="10.9076333"><ele>255.0</ele><time>2026-04-04T10:03:02.32Z</time></trkpt><trkpt lat="43.4459083" lon="10.907775"><ele>255.5</ele><time>2026-04-04T10:03:03.32Z</time></trkpt><trkpt lat="43.445975" lon="10.9079067"><ele>256.0</ele><time>2026-04-04T10:03:04.321Z</time></trkpt><trkpt lat="43.446025" lon="10.9080517"><ele>256.5</ele><time>2026-04-04T10:03:05.32Z</time></trkpt><trkpt lat="43.44606" lon="10.908205"><ele>257.0</ele><time>2026-04-04T10:03:06.321Z</time></trkpt><trkpt lat="43.446095" lon="10.908375"><ele>256.2</ele><time>2026-04-04T10:03:07.32Z</time></trkpt><trkpt lat="43.4461417" lon="10.9085267"><ele>255.39999999999998</ele><time>2026-04-04T10:03:08.32Z</time></trkpt><trkpt lat="43.4461783" lon="10.90866"><ele>254.60000000000002</ele><time>2026-04-04T10:03:09.32Z</time></trkpt><trkpt lat="43.44621" lon="10.90877"><ele>253.8</ele><time>2026-04-04T10:03:10.32Z</time></trkpt><trkpt lat="43.4462433" lon="10.9088567"><ele>253.0</ele><time>2026-04-04T10:03:11.32Z</time></trkpt><trkpt lat="43.4462817" lon="10.908945"><ele>253.83333333333331</ele><time>2026-04-04T10:03:12.32Z</time></trkpt><trkpt lat="43.4463383" lon="10.9090883"><ele>254.66666666666666</ele><time>2026-04-04T10:03:14.32Z</time></trkpt><trkpt lat="43.4463783" lon="10.9091733"><ele>255.5</ele><time>2026-04-04T10:03:15.32Z</time></trkpt><trkpt lat="43.4464217" lon="10.9092517"><ele>256.3333333333333</ele><time>2026-04-04T10:03:16.321Z</time></trkpt><trkpt lat="43.4464833" lon="10.9093217"><ele>257.1666666666667</ele><time>2026-04-04T10:03:17.32Z</time></trkpt><trkpt lat="43.44655" lon="10.9093783"><ele>258.0</ele><time>2026-04-04T10:03:18.321Z</time></trkpt><trkpt lat="43.4466183" lon="10.9094233"><ele>258.6</ele><time>2026-04-04T10:03:19.32Z</time></trkpt><trkpt lat="43.446745" lon="10.9094783"><ele>259.20000000000005</ele><time>2026-04-04T10:03:21.32Z</time></trkpt><trkpt lat="43.4468183" lon="10.9095083"><ele>259.8</ele><time>2026-04-04T10:03:22.321Z</time></trkpt><trkpt lat="43.4469017" lon="10.9095433"><ele>260.40000000000003</ele><time>2026-04-04T10:03:23.321Z</time></trkpt><trkpt lat="43.446995" lon="10.9095767"><ele>261.0</ele><time>2026-04-04T10:03:24.321Z</time></trkpt><trkpt lat="43.4470817" lon="10.90962"><ele>262.2</ele><time>2026-04-04T10:03:25.32Z</time></trkpt><trkpt lat="43.4471833" lon="10.9096633"><ele>263.40000000000003</ele><time>2026-04-04T10:03:26.32Z</time></trkpt><trkpt lat="43.44728" lon="10.9097167"><ele>264.6</ele><time>2026-04-04T10:03:27.319Z</time></trkpt><trkpt lat="43.447385" lon="10.90978"><ele>265.8</ele><time>2026-04-04T10:03:28.319Z</time></trkpt><trkpt lat="43.4474933" lon="10.90985"><ele>267.0</ele><time>2026-04-04T10:03:29.32Z</time></trkpt><trkpt lat="43.4476" lon="10.909915"><ele>267.0</ele><time>2026-04-04T10:03:30.319Z</time></trkpt><trkpt lat="43.447715" lon="10.909985"><ele>267.0</ele><time>2026-04-04T10:03:31.319Z</time></trkpt><trkpt lat="43.44784" lon="10.9100583"><ele>267.0</ele><time>2026-04-04T10:03:32.319Z</time></trkpt><trkpt lat="43.4479433" lon="10.910135"><ele>267.0</ele><time>2026-04-04T10:03:33.319Z</time></trkpt><trkpt lat="43.4480417" lon="10.9102"><ele>268.0</ele><time>2026-04-04T10:03:34.32Z</time></trkpt><trkpt lat="43.4481367" lon="10.9102533"><ele>269.0</ele><time>2026-04-04T10:03:35.319Z</time></trkpt><trkpt lat="43.4482333" lon="10.910315"><ele>270.0</ele><time>2026-04-04T10:03:36.319Z</time></trkpt><trkpt lat="43.4483083" lon="10.9103867"><ele>271.0</ele><time>2026-04-04T10:03:37.319Z</time></trkpt><trkpt lat="43.4484" lon="10.9104633"><ele>272.0</ele><time>2026-04-04T10:03:38.319Z</time></trkpt><trkpt lat="43.448485" lon="10.910525"><ele>272.0</ele><time>2026-04-04T10:03:39.319Z</time></trkpt><trkpt lat="43.4485733" lon="10.9105817"><ele>272.0</ele><time>2026-04-04T10:03:40.319Z</time></trkpt><trkpt lat="43.4486533" lon="10.9106467"><ele>272.0</ele><time>2026-04-04T10:03:41.32Z</time></trkpt><trkpt lat="43.448745" lon="10.9107"><ele>272.0</ele><time>2026-04-04T10:03:42.319Z</time></trkpt><trkpt lat="43.448825" lon="10.9107533"><ele>272.0</ele><time>2026-04-04T10:03:43.319Z</time></trkpt><trkpt lat="43.4489033" lon="10.9107933"><ele>272.1666666666667</ele><time>2026-04-04T10:03:44.319Z</time></trkpt><trkpt lat="43.4489767" lon="10.9108217"><ele>272.33333333333337</ele><time>2026-04-04T10:03:45.319Z</time></trkpt><trkpt lat="43.44905" lon="10.910845"><ele>272.5</ele><time>2026-04-04T10:03:46.319Z</time></trkpt><trkpt lat="43.44913" lon="10.91087"><ele>272.6666666666667</ele><time>2026-04-04T10:03:47.32Z</time></trkpt><trkpt lat="43.4492083" lon="10.9109017"><ele>272.8333333333333</ele><time>2026-04-04T10:03:48.319Z</time></trkpt><trkpt lat="43.4492833" lon="10.9109283"><ele>273.0</ele><time>2026-04-04T10:03:49.32Z</time></trkpt><trkpt lat="43.4493533" lon="10.9109583"><ele>273.0</ele><time>2026-04-04T10:03:50.319Z</time></trkpt><trkpt lat="43.4494267" lon="10.9109883"><ele>273.0</ele><time>2026-04-04T10:03:51.319Z</time></trkpt><trkpt lat="43.4495067" lon="10.911025"><ele>273.0</ele><time>2026-04-04T10:03:52.319Z</time></trkpt><trkpt lat="43.4495867" lon="10.9110717"><ele>273.0</ele><time>2026-04-04T10:03:53.319Z</time></trkpt><trkpt lat="43.4496783" lon="10.9111083"><ele>273.0</ele><time>2026-04-04T10:03:54.319Z</time></trkpt><trkpt lat="43.4497717" lon="10.9111567"><ele>273.0</ele><time>2026-04-04T10:03:55.319Z</time></trkpt><trkpt lat="43.4498633" lon="10.9112067"><ele>274.0</ele><time>2026-04-04T10:03:56.32Z</time></trkpt><trkpt lat="43.449965" lon="10.91127"><ele>275.0</ele><time>2026-04-04T10:03:57.319Z</time></trkpt><trkpt lat="43.45007" lon="10.911335"><ele>276.0</ele><time>2026-04-04T10:03:58.319Z</time></trkpt><trkpt lat="43.4501733" lon="10.9114033"><ele>277.0</ele><time>2026-04-04T10:03:59.319Z</time></trkpt><trkpt lat="43.4502717" lon="10.9114633"><ele>278.0</ele><time>2026-04-04T10:04:00.319Z</time></trkpt><trkpt lat="43.4503683" lon="10.911525"><ele>278.0</ele><time>2026-04-04T10:04:01.32Z</time></trkpt><trkpt lat="43.45045" lon="10.91158"><ele>278.0</ele><time>2026-04-04T10:04:02.319Z</time></trkpt><trkpt lat="43.45053" lon="10.9116417"><ele>278.0</ele><time>2026-04-04T10:04:03.319Z</time></trkpt><trkpt lat="43.4505917" lon="10.9117067"><ele>278.0</ele><time>2026-04-04T10:04:04.319Z</time></trkpt><trkpt lat="43.450655" lon="10.911785"><ele>278.0</ele><time>2026-04-04T10:04:05.319Z</time></trkpt><trkpt lat="43.4507117" lon="10.9118683"><ele>278.0</ele><time>2026-04-04T10:04:06.32Z</time></trkpt><trkpt lat="43.4507683" lon="10.9119417"><ele>279.0</ele><time>2026-04-04T10:04:07.319Z</time></trkpt><trkpt lat="43.4508267" lon="10.9119933"><ele>280.0</ele><time>2026-04-04T10:04:08.319Z</time></trkpt><trkpt lat="43.4509483" lon="10.912015"><ele>281.0</ele><time>2026-04-04T10:04:10.319Z</time></trkpt><trkpt lat="43.451035" lon="10.91199"><ele>282.0</ele><time>2026-04-04T10:04:11.319Z</time></trkpt><trkpt lat="43.4511333" lon="10.9119817"><ele>283.0</ele><time>2026-04-04T10:04:12.319Z</time></trkpt><trkpt lat="43.4512367" lon="10.9119967"><ele>284.0</ele><time>2026-04-04T10:04:13.319Z</time></trkpt><trkpt lat="43.4513483" lon="10.9120367"><ele>285.0</ele><time>2026-04-04T10:04:14.319Z</time></trkpt><trkpt lat="43.4514517" lon="10.912075"><ele>286.0</ele><time>2026-04-04T10:04:15.319Z</time></trkpt><trkpt lat="43.451565" lon="10.9121133"><ele>287.0</ele><time>2026-04-04T10:04:16.319Z</time></trkpt><trkpt lat="43.4516783" lon="10.9121367"><ele>287.0</ele><time>2026-04-04T10:04:17.319Z</time></trkpt><trkpt lat="43.4517917" lon="10.9121467"><ele>287.0</ele><time>2026-04-04T10:04:18.319Z</time></trkpt><trkpt lat="43.4518917" lon="10.9121383"><ele>287.0</ele><time>2026-04-04T10:04:19.319Z</time></trkpt><trkpt lat="43.4520017" lon="10.9121467"><ele>287.0</ele><time>2026-04-04T10:04:20.32Z</time></trkpt><trkpt lat="43.4521" lon="10.9121533"><ele>287.0</ele><time>2026-04-04T10:04:21.319Z</time></trkpt><trkpt lat="43.4521867" lon="10.91216"><ele>288.0</ele><time>2026-04-04T10:04:22.319Z</time></trkpt><trkpt lat="43.4522783" lon="10.912175"><ele>289.0</ele><time>2026-04-04T10:04:23.32Z</time></trkpt><trkpt lat="43.4523767" lon="10.9122033"><ele>290.0</ele><time>2026-04-04T10:04:24.319Z</time></trkpt><trkpt lat="43.452465" lon="10.9122433"><ele>291.0</ele><time>2026-04-04T10:04:25.319Z</time></trkpt><trkpt lat="43.4525533" lon="10.9122917"><ele>292.0</ele><time>2026-04-04T10:04:26.319Z</time></trkpt><trkpt lat="43.452635" lon="10.9123167"><ele>292.0</ele><time>2026-04-04T10:04:27.319Z</time></trkpt><trkpt lat="43.4527333" lon="10.9123333"><ele>292.0</ele><time>2026-04-04T10:04:28.319Z</time></trkpt><trkpt lat="43.452845" lon="10.91232"><ele>292.0</ele><time>2026-04-04T10:04:29.32Z</time></trkpt><trkpt lat="43.4529367" lon="10.9123"><ele>292.0</ele><time>2026-04-04T10:04:30.319Z</time></trkpt><trkpt lat="43.4530283" lon="10.9122783"><ele>292.0</ele><time>2026-04-04T10:04:31.319Z</time></trkpt><trkpt lat="43.4531283" lon="10.9122517"><ele>292.3333333333333</ele><time>2026-04-04T10:04:32.319Z</time></trkpt><trkpt lat="43.45322" lon="10.9122333"><ele>292.66666666666663</ele><time>2026-04-04T10:04:33.319Z</time></trkpt><trkpt lat="43.4533083" lon="10.9122133"><ele>293.0</ele><time>2026-04-04T10:04:34.319Z</time></trkpt><trkpt lat="43.45339" lon="10.9121833"><ele>293.3333333333333</ele><time>2026-04-04T10:04:35.319Z</time></trkpt><trkpt lat="43.4534733" lon="10.91215"><ele>293.6666666666667</ele><time>2026-04-04T10:04:36.319Z</time></trkpt><trkpt lat="43.4535517" lon="10.9121317"><ele>294.0</ele><time>2026-04-04T10:04:37.319Z</time></trkpt><trkpt lat="43.4536167" lon="10.9121317"><ele>294.0</ele><time>2026-04-04T10:04:38.319Z</time></trkpt><trkpt lat="43.4536817" lon="10.9121333"><ele>294.0</ele><time>2026-04-04T10:04:39.32Z</time></trkpt><trkpt lat="43.453765" lon="10.91215"><ele>294.0</ele><time>2026-04-04T10:04:40.319Z</time></trkpt><trkpt lat="43.4538283" lon="10.9121767"><ele>294.0</ele><time>2026-04-04T10:04:41.319Z</time></trkpt><trkpt lat="43.4538933" lon="10.912205"><ele>294.0</ele><time>2026-04-04T10:04:42.32Z</time></trkpt><trkpt lat="43.453955" lon="10.9122333"><ele>294.0</ele><time>2026-04-04T10:04:43.319Z</time></trkpt><trkpt lat="43.45408" lon="10.9122783"><ele>293.6666666666667</ele><time>2026-04-04T10:04:45.319Z</time></trkpt><trkpt lat="43.454145" lon="10.912295"><ele>293.3333333333333</ele><time>2026-04-04T10:04:46.319Z</time></trkpt><trkpt lat="43.454215" lon="10.9123067"><ele>293.0</ele><time>2026-04-04T10:04:47.319Z</time></trkpt><trkpt lat="43.4543533" lon="10.91229"><ele>292.66666666666663</ele><time>2026-04-04T10:04:49.32Z</time></trkpt><trkpt lat="43.454435" lon="10.9122817"><ele>292.3333333333333</ele><time>2026-04-04T10:04:50.319Z</time></trkpt><trkpt lat="43.4545167" lon="10.912265"><ele>292.0</ele><time>2026-04-04T10:04:51.32Z</time></trkpt><trkpt lat="43.4546017" lon="10.9122333"><ele>290.3333333333333</ele><time>2026-04-04T10:04:52.319Z</time></trkpt><trkpt lat="43.454685" lon="10.9121983"><ele>288.66666666666663</ele><time>2026-04-04T10:04:53.32Z</time></trkpt><trkpt lat="43.454755" lon="10.91214"><ele>287.0</ele><time>2026-04-04T10:04:54.319Z</time></trkpt><trkpt lat="43.4548233" lon="10.9120967"><ele>285.3333333333333</ele><time>2026-04-04T10:04:55.319Z</time></trkpt><trkpt lat="43.45489" lon="10.9120517"><ele>283.6666666666667</ele><time>2026-04-04T10:04:56.319Z</time></trkpt><trkpt lat="43.4549617" lon="10.91201"><ele>282.0</ele><time>2026-04-04T10:04:57.319Z</time></trkpt><trkpt lat="43.4550333" lon="10.911975"><ele>282.0</ele><time>2026-04-04T10:04:58.319Z</time></trkpt><trkpt lat="43.4551067" lon="10.9119633"><ele>282.0</ele><time>2026-04-04T10:04:59.319Z</time></trkpt><trkpt lat="43.4551767" lon="10.9119683"><ele>282.0</ele><time>2026-04-04T10:05:00.319Z</time></trkpt><trkpt lat="43.4552533" lon="10.9119683"><ele>282.0</ele><time>2026-04-04T10:05:01.319Z</time></trkpt><trkpt lat="43.455325" lon="10.9119583"><ele>282.0</ele><time>2026-04-04T10:05:02.319Z</time></trkpt><trkpt lat="43.4554" lon="10.911955"><ele>282.0</ele><time>2026-04-04T10:05:03.319Z</time></trkpt><trkpt lat="43.4554733" lon="10.9119383"><ele>282.0</ele><time>2026-04-04T10:05:04.319Z</time></trkpt><trkpt lat="43.4555467" lon="10.9119217"><ele>280.6666666666667</ele><time>2026-04-04T10:05:05.319Z</time></trkpt><trkpt lat="43.4556217" lon="10.911895"><ele>279.3333333333333</ele><time>2026-04-04T10:05:06.319Z</time></trkpt><trkpt lat="43.4556933" lon="10.9118683"><ele>278.0</ele><time>2026-04-04T10:05:07.32Z</time></trkpt><trkpt lat="43.4557633" lon="10.911835"><ele>276.66666666666663</ele><time>2026-04-04T10:05:08.319Z</time></trkpt><trkpt lat="43.4558367" lon="10.9118033"><ele>275.3333333333333</ele><time>2026-04-04T10:05:09.319Z</time></trkpt><trkpt lat="43.4559133" lon="10.9117683"><ele>274.0</ele><time>2026-04-04T10:05:10.319Z</time></trkpt><trkpt lat="43.45598" lon="10.9117283"><ele>274.0</ele><time>2026-04-04T10:05:11.319Z</time></trkpt><trkpt lat="43.4560483" lon="10.9116933"><ele>274.0</ele><time>2026-04-04T10:05:12.319Z</time></trkpt><trkpt lat="43.456115" lon="10.9116567"><ele>274.0</ele><time>2026-04-04T10:05:13.32Z</time></trkpt><trkpt lat="43.4561817" lon="10.9116167"><ele>274.0</ele><time>2026-04-04T10:05:14.319Z</time></trkpt><trkpt lat="43.4562433" lon="10.9115783"><ele>274.0</ele><time>2026-04-04T10:05:15.32Z</time></trkpt><trkpt lat="43.4563367" lon="10.9115408"><ele>274.0</ele><time>2026-04-04T10:05:17.319Z</time></trkpt><trkpt lat="43.4563483" lon="10.9114133"><ele>274.0</ele><time>2026-04-04T10:05:22.32Z</time></trkpt><trkpt lat="43.4563067" lon="10.9113217"><ele>274.0</ele><time>2026-04-04T10:05:25.319Z</time></trkpt><trkpt lat="43.4562383" lon="10.9112283"><ele>274.0</ele><time>2026-04-04T10:05:28.319Z</time></trkpt><trkpt lat="43.4561817" lon="10.9111117"><ele>274.0</ele><time>2026-04-04T10:05:30.319Z</time></trkpt><trkpt lat="43.4561533" lon="10.9110333"><ele>274.0</ele><time>2026-04-04T10:05:31.319Z</time></trkpt><trkpt lat="43.4561167" lon="10.9108783"><ele>274.14285714285717</ele><time>2026-04-04T10:05:33.319Z</time></trkpt><trkpt lat="43.456095" lon="10.9107967"><ele>274.2857142857143</ele><time>2026-04-04T10:05:34.319Z</time></trkpt><trkpt lat="43.456075" lon="10.9107017"><ele>274.42857142857144</ele><time>2026-04-04T10:05:35.319Z</time></trkpt><trkpt lat="43.45605" lon="10.910615"><ele>274.57142857142856</ele><time>2026-04-04T10:05:36.319Z</time></trkpt><trkpt lat="43.4560283" lon="10.910515"><ele>274.7142857142857</ele><time>2026-04-04T10:05:37.319Z</time></trkpt><trkpt lat="43.4560117" lon="10.910415"><ele>274.8571428571429</ele><time>2026-04-04T10:05:38.32Z</time></trkpt><trkpt lat="43.4559833" lon="10.9103033"><ele>275.0</ele><time>2026-04-04T10:05:39.319Z</time></trkpt><trkpt lat="43.4559533" lon="10.910205"><ele>275.0</ele><time>2026-04-04T10:05:40.319Z</time></trkpt><trkpt lat="43.4559233" lon="10.9100967"><ele>275.0</ele><time>2026-04-04T10:05:41.32Z</time></trkpt><trkpt lat="43.4558967" lon="10.9099867"><ele>275.0</ele><time>2026-04-04T10:05:42.32Z</time></trkpt><trkpt lat="43.4558683" lon="10.909885"><ele>275.0</ele><time>2026-04-04T10:05:43.319Z</time></trkpt><trkpt lat="43.4558483" lon="10.9097833"><ele>275.0</ele><time>2026-04-04T10:05:44.319Z</time></trkpt><trkpt lat="43.4558233" lon="10.9096817"><ele>275.0</ele><time>2026-04-04T10:05:45.319Z</time></trkpt><trkpt lat="43.4557983" lon="10.90958"><ele>275.1666666666667</ele><time>2026-04-04T10:05:46.32Z</time></trkpt><trkpt lat="43.4557733" lon="10.9094783"><ele>275.33333333333337</ele><time>2026-04-04T10:05:47.32Z</time></trkpt><trkpt lat="43.455745" lon="10.9093683"><ele>275.5</ele><time>2026-04-04T10:05:48.319Z</time></trkpt><trkpt lat="43.4557133" lon="10.909255"><ele>275.6666666666667</ele><time>2026-04-04T10:05:49.319Z</time></trkpt><trkpt lat="43.4556867" lon="10.9091483"><ele>275.8333333333333</ele><time>2026-04-04T10:05:50.319Z</time></trkpt><trkpt lat="43.4556617" lon="10.9090367"><ele>276.0</ele><time>2026-04-04T10:05:51.319Z</time></trkpt><trkpt lat="43.4556283" lon="10.9089317"><ele>276.2857142857143</ele><time>2026-04-04T10:05:52.319Z</time></trkpt><trkpt lat="43.4555983" lon="10.9088217"><ele>276.5714285714286</ele><time>2026-04-04T10:05:53.319Z</time></trkpt><trkpt lat="43.4555783" lon="10.90872"><ele>276.8571428571429</ele><time>2026-04-04T10:05:54.32Z</time></trkpt><trkpt lat="43.4555567" lon="10.9086283"><ele>277.14285714285717</ele><time>2026-04-04T10:05:55.319Z</time></trkpt><trkpt lat="43.4555317" lon="10.9085417"><ele>277.42857142857144</ele><time>2026-04-04T10:05:56.319Z</time></trkpt><trkpt lat="43.4555033" lon="10.9084483"><ele>277.7142857142857</ele><time>2026-04-04T10:05:57.319Z</time></trkpt><trkpt lat="43.4554767" lon="10.9083533"><ele>278.0</ele><time>2026-04-04T10:05:58.319Z</time></trkpt><trkpt lat="43.4554483" lon="10.9082567"><ele>280.0</ele><time>2026-04-04T10:05:59.319Z</time></trkpt><trkpt lat="43.4554233" lon="10.9081483"><ele>282.0</ele><time>2026-04-04T10:06:00.32Z</time></trkpt><trkpt lat="43.4554083" lon="10.908045"><ele>284.0</ele><time>2026-04-04T10:06:01.319Z</time></trkpt><trkpt lat="43.455395" lon="10.9079367"><ele>286.0</ele><time>2026-04-04T10:06:02.319Z</time></trkpt><trkpt lat="43.45539" lon="10.9078283"><ele>288.0</ele><time>2026-04-04T10:06:03.32Z</time></trkpt><trkpt lat="43.4553867" lon="10.9077267"><ele>290.0</ele><time>2026-04-04T10:06:04.319Z</time></trkpt><trkpt lat="43.4553917" lon="10.9076333"><ele>290.5</ele><time>2026-04-04T10:06:05.319Z</time></trkpt><trkpt lat="43.4554033" lon="10.9075333"><ele>291.0</ele><time>2026-04-04T10:06:06.319Z</time></trkpt><trkpt lat="43.4554233" lon="10.9074267"><ele>291.5</ele><time>2026-04-04T10:06:07.319Z</time></trkpt><trkpt lat="43.4554433" lon="10.9073233"><ele>292.0</ele><time>2026-04-04T10:06:08.319Z</time></trkpt><trkpt lat="43.4554633" lon="10.9072317"><ele>292.5</ele><time>2026-04-04T10:06:09.319Z</time></trkpt><trkpt lat="43.4555" lon="10.9070767"><ele>293.0</ele><time>2026-04-04T10:06:11.32Z</time></trkpt><trkpt lat="43.4555183" lon="10.9069883"><ele>292.2</ele><time>2026-04-04T10:06:12.319Z</time></trkpt><trkpt lat="43.4555617" lon="10.90682"><ele>291.4</ele><time>2026-04-04T10:06:14.319Z</time></trkpt><trkpt lat="43.4555917" lon="10.9066683"><ele>290.59999999999997</ele><time>2026-04-04T10:06:16.319Z</time></trkpt><trkpt lat="43.4556283" lon="10.9065083"><ele>289.8</ele><time>2026-04-04T10:06:18.319Z</time></trkpt><trkpt lat="43.4556483" lon="10.9064183"><ele>289.0</ele><time>2026-04-04T10:06:19.319Z</time></trkpt><trkpt lat="43.4556667" lon="10.9063317"><ele>289.0</ele><time>2026-04-04T10:06:20.319Z</time></trkpt><trkpt lat="43.4556833" lon="10.906235"><ele>289.0</ele><time>2026-04-04T10:06:21.319Z</time></trkpt><trkpt lat="43.4557" lon="10.90614"><ele>289.0</ele><time>2026-04-04T10:06:22.319Z</time></trkpt><trkpt lat="43.455725" lon="10.906025"><ele>289.0</ele><time>2026-04-04T10:06:23.319Z</time></trkpt><trkpt lat="43.4557517" lon="10.9059"><ele>289.0</ele><time>2026-04-04T10:06:24.319Z</time></trkpt><trkpt lat="43.4557867" lon="10.9057633"><ele>289.0</ele><time>2026-04-04T10:06:25.319Z</time></trkpt><trkpt lat="43.455815" lon="10.9056067"><ele>289.59999999999997</ele><time>2026-04-04T10:06:26.319Z</time></trkpt><trkpt lat="43.4558417" lon="10.9054533"><ele>290.2</ele><time>2026-04-04T10:06:27.319Z</time></trkpt><trkpt lat="43.4558633" lon="10.905315"><ele>290.79999999999995</ele><time>2026-04-04T10:06:28.319Z</time></trkpt><trkpt lat="43.455885" lon="10.905175"><ele>291.4</ele><time>2026-04-04T10:06:29.319Z</time></trkpt><trkpt lat="43.455915" lon="10.9050333"><ele>292.0</ele><time>2026-04-04T10:06:30.32Z</time></trkpt><trkpt lat="43.455945" lon="10.90491"><ele>292.4</ele><time>2026-04-04T10:06:31.319Z</time></trkpt><trkpt lat="43.4559967" lon="10.9048067"><ele>292.79999999999995</ele><time>2026-04-04T10:06:32.319Z</time></trkpt><trkpt lat="43.4560483" lon="10.9047167"><ele>293.2</ele><time>2026-04-04T10:06:33.32Z</time></trkpt><trkpt lat="43.4561167" lon="10.90463"><ele>293.59999999999997</ele><time>2026-04-04T10:06:34.319Z</time></trkpt><trkpt lat="43.4562083" lon="10.9045767"><ele>294.0</ele><time>2026-04-04T10:06:35.319Z</time></trkpt><trkpt lat="43.456315" lon="10.9045517"><ele>294.0</ele><time>2026-04-04T10:06:36.319Z</time></trkpt><trkpt lat="43.4564267" lon="10.904515"><ele>294.0</ele><time>2026-04-04T10:06:37.319Z</time></trkpt><trkpt lat="43.4565317" lon="10.9044717"><ele>294.0</ele><time>2026-04-04T10:06:38.319Z</time></trkpt><trkpt lat="43.4566283" lon="10.904435"><ele>294.0</ele><time>2026-04-04T10:06:39.319Z</time></trkpt><trkpt lat="43.456715" lon="10.9044"><ele>294.0</ele><time>2026-04-04T10:06:40.319Z</time></trkpt><trkpt lat="43.4568067" lon="10.9043567"><ele>294.0</ele><time>2026-04-04T10:06:41.319Z</time></trkpt><trkpt lat="43.4568983" lon="10.904315"><ele>294.0</ele><time>2026-04-04T10:06:42.32Z</time></trkpt><trkpt lat="43.4569933" lon="10.904275"><ele>294.0</ele><time>2026-04-04T10:06:43.32Z</time></trkpt><trkpt lat="43.4570933" lon="10.9042333"><ele>294.0</ele><time>2026-04-04T10:06:44.319Z</time></trkpt><trkpt lat="43.4571917" lon="10.9041883"><ele>294.0</ele><time>2026-04-04T10:06:45.319Z</time></trkpt><trkpt lat="43.457285" lon="10.9041333"><ele>295.5</ele><time>2026-04-04T10:06:46.319Z</time></trkpt><trkpt lat="43.4573667" lon="10.9041"><ele>297.0</ele><time>2026-04-04T10:06:47.319Z</time></trkpt><trkpt lat="43.4574433" lon="10.9040683"><ele>298.5</ele><time>2026-04-04T10:06:48.319Z</time></trkpt><trkpt lat="43.4575183" lon="10.90403"><ele>300.0</ele><time>2026-04-04T10:06:49.32Z</time></trkpt><trkpt lat="43.4575767" lon="10.903985"><ele>301.5</ele><time>2026-04-04T10:06:50.319Z</time></trkpt><trkpt lat="43.4576333" lon="10.9039283"><ele>303.0</ele><time>2026-04-04T10:06:51.319Z</time></trkpt><trkpt lat="43.4576933" lon="10.9038567"><ele>303.0</ele><time>2026-04-04T10:06:52.319Z</time></trkpt><trkpt lat="43.45773" lon="10.9037583"><ele>303.0</ele><time>2026-04-04T10:06:53.319Z</time></trkpt><trkpt lat="43.4577683" lon="10.90368"><ele>303.0</ele><time>2026-04-04T10:06:54.319Z</time></trkpt><trkpt lat="43.4578" lon="10.9036033"><ele>303.0</ele><time>2026-04-04T10:06:55.319Z</time></trkpt><trkpt lat="43.4578283" lon="10.90352"><ele>303.0</ele><time>2026-04-04T10:06:56.32Z</time></trkpt><trkpt lat="43.4578417" lon="10.9034333"><ele>303.0</ele><time>2026-04-04T10:06:57.32Z</time></trkpt><trkpt lat="43.45786" lon="10.9033367"><ele>303.0</ele><time>2026-04-04T10:06:58.319Z</time></trkpt><trkpt lat="43.457865" lon="10.9031533"><ele>303.1666666666667</ele><time>2026-04-04T10:07:00.319Z</time></trkpt><trkpt lat="43.4578217" lon="10.902995"><ele>303.3333333333333</ele><time>2026-04-04T10:07:02.319Z</time></trkpt><trkpt lat="43.4577917" lon="10.902915"><ele>303.5</ele><time>2026-04-04T10:07:03.319Z</time></trkpt><trkpt lat="43.4577683" lon="10.9028283"><ele>303.66666666666663</ele><time>2026-04-04T10:07:04.32Z</time></trkpt><trkpt lat="43.45774" lon="10.9027317"><ele>303.8333333333333</ele><time>2026-04-04T10:07:05.319Z</time></trkpt><trkpt lat="43.4577033" lon="10.9026267"><ele>304.0</ele><time>2026-04-04T10:07:06.32Z</time></trkpt><trkpt lat="43.4576717" lon="10.902535"><ele>302.5</ele><time>2026-04-04T10:07:07.319Z</time></trkpt><trkpt lat="43.45763" lon="10.9024367"><ele>301.0</ele><time>2026-04-04T10:07:08.319Z</time></trkpt><trkpt lat="43.4575867" lon="10.9023283"><ele>299.5</ele><time>2026-04-04T10:07:09.319Z</time></trkpt><trkpt lat="43.4575467" lon="10.90222"><ele>298.0</ele><time>2026-04-04T10:07:10.319Z</time></trkpt><trkpt lat="43.4575017" lon="10.9021183"><ele>296.5</ele><time>2026-04-04T10:07:11.319Z</time></trkpt><trkpt lat="43.457455" lon="10.9020217"><ele>295.0</ele><time>2026-04-04T10:07:12.32Z</time></trkpt><trkpt lat="43.457395" lon="10.90193"><ele>295.0</ele><time>2026-04-04T10:07:13.319Z</time></trkpt><trkpt lat="43.4573317" lon="10.9018367"><ele>295.0</ele><time>2026-04-04T10:07:14.319Z</time></trkpt><trkpt lat="43.45727" lon="10.9017367"><ele>295.0</ele><time>2026-04-04T10:07:15.319Z</time></trkpt><trkpt lat="43.4572017" lon="10.9016483"><ele>295.0</ele><time>2026-04-04T10:07:16.319Z</time></trkpt><trkpt lat="43.4571367" lon="10.9015767"><ele>295.0</ele><time>2026-04-04T10:07:17.319Z</time></trkpt><trkpt lat="43.4570783" lon="10.90151"><ele>295.0</ele><time>2026-04-04T10:07:18.319Z</time></trkpt><trkpt lat="43.4570233" lon="10.9014333"><ele>294.6</ele><time>2026-04-04T10:07:19.319Z</time></trkpt><trkpt lat="43.4569567" lon="10.9013567"><ele>294.2</ele><time>2026-04-04T10:07:20.319Z</time></trkpt><trkpt lat="43.45689" lon="10.90127"><ele>293.8</ele><time>2026-04-04T10:07:21.319Z</time></trkpt><trkpt lat="43.4568283" lon="10.9011717"><ele>293.4</ele><time>2026-04-04T10:07:22.319Z</time></trkpt><trkpt lat="43.4567583" lon="10.9010933"><ele>293.0</ele><time>2026-04-04T10:07:23.319Z</time></trkpt><trkpt lat="43.4567017" lon="10.9009683"><ele>290.8</ele><time>2026-04-04T10:07:24.32Z</time></trkpt><trkpt lat="43.4566317" lon="10.900845"><ele>288.6</ele><time>2026-04-04T10:07:25.319Z</time></trkpt><trkpt lat="43.4565683" lon="10.9007383"><ele>286.4</ele><time>2026-04-04T10:07:26.319Z</time></trkpt><trkpt lat="43.4564983" lon="10.9006283"><ele>284.2</ele><time>2026-04-04T10:07:27.319Z</time></trkpt><trkpt lat="43.45643" lon="10.9005133"><ele>282.0</ele><time>2026-04-04T10:07:28.319Z</time></trkpt><trkpt lat="43.4563683" lon="10.9004033"><ele>282.0</ele><time>2026-04-04T10:07:29.319Z</time></trkpt><trkpt lat="43.4562967" lon="10.90031"><ele>282.0</ele><time>2026-04-04T10:07:30.32Z</time></trkpt><trkpt lat="43.45623" lon="10.9002217"><ele>282.0</ele><time>2026-04-04T10:07:31.319Z</time></trkpt><trkpt lat="43.45616" lon="10.9001267"><ele>282.0</ele><time>2026-04-04T10:07:32.319Z</time></trkpt><trkpt lat="43.456085" lon="10.9000233"><ele>282.0</ele><time>2026-04-04T10:07:33.318Z</time></trkpt><trkpt lat="43.4560117" lon="10.89993"><ele>282.6</ele><time>2026-04-04T10:07:34.318Z</time></trkpt><trkpt lat="43.4559383" lon="10.8998267"><ele>283.2</ele><time>2026-04-04T10:07:35.318Z</time></trkpt><trkpt lat="43.4558633" lon="10.899735"><ele>283.8</ele><time>2026-04-04T10:07:36.319Z</time></trkpt><trkpt lat="43.4557867" lon="10.8996333"><ele>284.4</ele><time>2026-04-04T10:07:37.318Z</time></trkpt><trkpt lat="43.4557083" lon="10.8995283"><ele>285.0</ele><time>2026-04-04T10:07:38.318Z</time></trkpt><trkpt lat="43.4556317" lon="10.8994183"><ele>285.0</ele><time>2026-04-04T10:07:39.318Z</time></trkpt><trkpt lat="43.455555" lon="10.899315"><ele>285.0</ele><time>2026-04-04T10:07:40.318Z</time></trkpt><trkpt lat="43.4554783" lon="10.8992133"><ele>285.0</ele><time>2026-04-04T10:07:41.318Z</time></trkpt><trkpt lat="43.4554" lon="10.89911"><ele>285.0</ele><time>2026-04-04T10:07:42.318Z</time></trkpt><trkpt lat="43.4553383" lon="10.8989817"><ele>285.0</ele><time>2026-04-04T10:07:43.319Z</time></trkpt><trkpt lat="43.4552783" lon="10.8988567"><ele>285.5</ele><time>2026-04-04T10:07:44.319Z</time></trkpt><trkpt lat="43.4552383" lon="10.8987217"><ele>286.0</ele><time>2026-04-04T10:07:45.319Z</time></trkpt><trkpt lat="43.4552133" lon="10.8985533"><ele>286.5</ele><time>2026-04-04T10:07:46.318Z</time></trkpt><trkpt lat="43.4552033" lon="10.89839"><ele>287.0</ele><time>2026-04-04T10:07:47.318Z</time></trkpt><trkpt lat="43.4552067" lon="10.898225"><ele>287.0</ele><time>2026-04-04T10:07:48.318Z</time></trkpt><trkpt lat="43.4552133" lon="10.8980633"><ele>287.0</ele><time>2026-04-04T10:07:49.319Z</time></trkpt><trkpt lat="43.4552183" lon="10.897905"><ele>287.0</ele><time>2026-04-04T10:07:50.319Z</time></trkpt><trkpt lat="43.4552383" lon="10.8977783"><ele>287.0</ele><time>2026-04-04T10:07:51.318Z</time></trkpt><trkpt lat="43.4552733" lon="10.8976483"><ele>287.0</ele><time>2026-04-04T10:07:52.318Z</time></trkpt><trkpt lat="43.45527" lon="10.897515"><ele>287.0</ele><time>2026-04-04T10:07:53.318Z</time></trkpt><trkpt lat="43.4552733" lon="10.89738"><ele>287.0</ele><time>2026-04-04T10:07:54.318Z</time></trkpt><trkpt lat="43.455285" lon="10.89724"><ele>287.0</ele><time>2026-04-04T10:07:55.319Z</time></trkpt><trkpt lat="43.455295" lon="10.89711"><ele>287.0</ele><time>2026-04-04T10:07:56.318Z</time></trkpt><trkpt lat="43.45531" lon="10.89698"><ele>287.0</ele><time>2026-04-04T10:07:57.319Z</time></trkpt><trkpt lat="43.4553133" lon="10.8968567"><ele>286.5</ele><time>2026-04-04T10:07:58.318Z</time></trkpt><trkpt lat="43.4553217" lon="10.8967467"><ele>286.0</ele><time>2026-04-04T10:07:59.318Z</time></trkpt><trkpt lat="43.4553283" lon="10.896645"><ele>285.5</ele><time>2026-04-04T10:08:00.318Z</time></trkpt><trkpt lat="43.4553333" lon="10.89654"><ele>285.0</ele><time>2026-04-04T10:08:01.319Z</time></trkpt><trkpt lat="43.4553383" lon="10.8964333"><ele>284.5</ele><time>2026-04-04T10:08:02.318Z</time></trkpt><trkpt lat="43.4553433" lon="10.8963133"><ele>284.0</ele><time>2026-04-04T10:08:03.319Z</time></trkpt><trkpt lat="43.45534" lon="10.896185"><ele>284.0</ele><time>2026-04-04T10:08:04.319Z</time></trkpt><trkpt lat="43.455325" lon="10.8960433"><ele>284.0</ele><time>2026-04-04T10:08:05.318Z</time></trkpt><trkpt lat="43.455305" lon="10.8959083"><ele>284.0</ele><time>2026-04-04T10:08:06.319Z</time></trkpt><trkpt lat="43.4553" lon="10.895775"><ele>284.0</ele><time>2026-04-04T10:08:07.319Z</time></trkpt><trkpt lat="43.455295" lon="10.8956383"><ele>284.0</ele><time>2026-04-04T10:08:08.318Z</time></trkpt><trkpt lat="43.4553017" lon="10.89551"><ele>283.8</ele><time>2026-04-04T10:08:09.318Z</time></trkpt><trkpt lat="43.4553133" lon="10.8953617"><ele>283.59999999999997</ele><time>2026-04-04T10:08:10.318Z</time></trkpt><trkpt lat="43.455315" lon="10.895225"><ele>283.4</ele><time>2026-04-04T10:08:11.318Z</time></trkpt><trkpt lat="43.4553233" lon="10.8951017"><ele>283.2</ele><time>2026-04-04T10:08:12.318Z</time></trkpt><trkpt lat="43.4553317" lon="10.89498"><ele>283.0</ele><time>2026-04-04T10:08:13.318Z</time></trkpt><trkpt lat="43.455345" lon="10.8948483"><ele>282.4</ele><time>2026-04-04T10:08:14.318Z</time></trkpt><trkpt lat="43.455345" lon="10.8947133"><ele>281.8</ele><time>2026-04-04T10:08:15.318Z</time></trkpt><trkpt lat="43.4553283" lon="10.8945767"><ele>281.2</ele><time>2026-04-04T10:08:16.319Z</time></trkpt><trkpt lat="43.455315" lon="10.8944333"><ele>280.6</ele><time>2026-04-04T10:08:17.318Z</time></trkpt><trkpt lat="43.4553033" lon="10.8943133"><ele>280.0</ele><time>2026-04-04T10:08:18.319Z</time></trkpt><trkpt lat="43.4553" lon="10.8941967"><ele>278.8</ele><time>2026-04-04T10:08:19.318Z</time></trkpt><trkpt lat="43.4553133" lon="10.894075"><ele>277.6</ele><time>2026-04-04T10:08:20.318Z</time></trkpt><trkpt lat="43.45531" lon="10.893945"><ele>276.4</ele><time>2026-04-04T10:08:21.318Z</time></trkpt><trkpt lat="43.4552933" lon="10.8938217"><ele>275.2</ele><time>2026-04-04T10:08:22.318Z</time></trkpt><trkpt lat="43.4552783" lon="10.8936917"><ele>274.0</ele><time>2026-04-04T10:08:23.318Z</time></trkpt><trkpt lat="43.4552583" lon="10.89358"><ele>274.0</ele><time>2026-04-04T10:08:24.318Z</time></trkpt><trkpt lat="43.45522" lon="10.893475"><ele>274.0</ele><time>2026-04-04T10:08:25.318Z</time></trkpt><trkpt lat="43.455195" lon="10.89337"><ele>274.0</ele><time>2026-04-04T10:08:26.318Z</time></trkpt><trkpt lat="43.45516" lon="10.8932583"><ele>274.0</ele><time>2026-04-04T10:08:27.318Z</time></trkpt><trkpt lat="43.4551217" lon="10.89314"><ele>274.0</ele><time>2026-04-04T10:08:28.318Z</time></trkpt><trkpt lat="43.4550883" lon="10.8930283"><ele>274.0</ele><time>2026-04-04T10:08:29.319Z</time></trkpt><trkpt lat="43.4550467" lon="10.892915"><ele>272.3333333333333</ele><time>2026-04-04T10:08:30.318Z</time></trkpt><trkpt lat="43.45502" lon="10.8928233"><ele>270.66666666666663</ele><time>2026-04-04T10:08:31.318Z</time></trkpt><trkpt lat="43.454985" lon="10.8927267"><ele>269.0</ele><time>2026-04-04T10:08:32.319Z</time></trkpt><trkpt lat="43.45494" lon="10.892635"><ele>267.3333333333333</ele><time>2026-04-04T10:08:33.318Z</time></trkpt><trkpt lat="43.45488" lon="10.8925583"><ele>265.6666666666667</ele><time>2026-04-04T10:08:34.318Z</time></trkpt><trkpt lat="43.4548217" lon="10.8924867"><ele>264.0</ele><time>2026-04-04T10:08:35.318Z</time></trkpt><trkpt lat="43.45476" lon="10.8924233"><ele>262.8333333333333</ele><time>2026-04-04T10:08:36.318Z</time></trkpt><trkpt lat="43.454695" lon="10.8923783"><ele>261.6666666666667</ele><time>2026-04-04T10:08:37.319Z</time></trkpt><trkpt lat="43.4546267" lon="10.8923483"><ele>260.5</ele><time>2026-04-04T10:08:38.319Z</time></trkpt><trkpt lat="43.4545533" lon="10.89234"><ele>259.33333333333337</ele><time>2026-04-04T10:08:39.318Z</time></trkpt><trkpt lat="43.4544817" lon="10.89233"><ele>258.1666666666667</ele><time>2026-04-04T10:08:40.318Z</time></trkpt><trkpt lat="43.4543583" lon="10.8923083"><ele>257.0</ele><time>2026-04-04T10:08:42.318Z</time></trkpt><trkpt lat="43.45429" lon="10.8923033"><ele>256.83333333333337</ele><time>2026-04-04T10:08:43.318Z</time></trkpt><trkpt lat="43.4542233" lon="10.8923017"><ele>256.6666666666667</ele><time>2026-04-04T10:08:44.318Z</time></trkpt><trkpt lat="43.4541533" lon="10.8922917"><ele>256.5</ele><time>2026-04-04T10:08:45.318Z</time></trkpt><trkpt lat="43.4540883" lon="10.8922867"><ele>256.3333333333333</ele><time>2026-04-04T10:08:46.318Z</time></trkpt><trkpt lat="43.4539733" lon="10.892315"><ele>256.16666666666663</ele><time>2026-04-04T10:08:48.318Z</time></trkpt><trkpt lat="43.45387" lon="10.8924133"><ele>256.0</ele><time>2026-04-04T10:08:50.318Z</time></trkpt><trkpt lat="43.4538317" lon="10.8924967"><ele>255.99999999999997</ele><time>2026-04-04T10:08:51.318Z</time></trkpt><trkpt lat="43.4538067" lon="10.8925867"><ele>256.0</ele><time>2026-04-04T10:08:52.318Z</time></trkpt><trkpt lat="43.45378" lon="10.892675"><ele>256.0</ele><time>2026-04-04T10:08:53.319Z</time></trkpt><trkpt lat="43.4537583" lon="10.892765"><ele>256.0</ele><time>2026-04-04T10:08:54.318Z</time></trkpt><trkpt lat="43.4536783" lon="10.892895"><ele>255.99999999999997</ele><time>2026-04-04T10:08:56.318Z</time></trkpt><trkpt lat="43.453615" lon="10.8929367"><ele>256.0</ele><time>2026-04-04T10:08:57.318Z</time></trkpt><trkpt lat="43.4535433" lon="10.89296"><ele>255.83333333333331</ele><time>2026-04-04T10:08:58.319Z</time></trkpt><trkpt lat="43.4534683" lon="10.8929533"><ele>255.66666666666666</ele><time>2026-04-04T10:08:59.318Z</time></trkpt><trkpt lat="43.4533883" lon="10.89293"><ele>255.5</ele><time>2026-04-04T10:09:00.318Z</time></trkpt><trkpt lat="43.4532917" lon="10.8928783"><ele>255.33333333333331</ele><time>2026-04-04T10:09:01.319Z</time></trkpt><trkpt lat="43.4532083" lon="10.8928283"><ele>255.16666666666666</ele><time>2026-04-04T10:09:02.319Z</time></trkpt><trkpt lat="43.45313" lon="10.892795"><ele>255.0</ele><time>2026-04-04T10:09:03.318Z</time></trkpt><trkpt lat="43.4530467" lon="10.8927833"><ele>255.0</ele><time>2026-04-04T10:09:04.318Z</time></trkpt><trkpt lat="43.45296" lon="10.8928"><ele>255.0</ele><time>2026-04-04T10:09:05.318Z</time></trkpt><trkpt lat="43.4528633" lon="10.8928333"><ele>255.0</ele><time>2026-04-04T10:09:06.318Z</time></trkpt><trkpt lat="43.4527767" lon="10.89288"><ele>255.0</ele><time>2026-04-04T10:09:07.318Z</time></trkpt><trkpt lat="43.4526867" lon="10.8929283"><ele>255.0</ele><time>2026-04-04T10:09:08.318Z</time></trkpt><trkpt lat="43.4526" lon="10.8929683"><ele>253.16666666666666</ele><time>2026-04-04T10:09:09.318Z</time></trkpt><trkpt lat="43.4525267" lon="10.8930083"><ele>251.33333333333331</ele><time>2026-04-04T10:09:10.318Z</time></trkpt><trkpt lat="43.4524567" lon="10.89305"><ele>249.5</ele><time>2026-04-04T10:09:11.318Z</time></trkpt><trkpt lat="43.4523967" lon="10.8930783"><ele>247.66666666666666</ele><time>2026-04-04T10:09:12.318Z</time></trkpt><trkpt lat="43.452285" lon="10.8931133"><ele>245.83333333333331</ele><time>2026-04-04T10:09:14.318Z</time></trkpt><trkpt lat="43.4521733" lon="10.893095"><ele>244.0</ele><time>2026-04-04T10:09:16.318Z</time></trkpt><trkpt lat="43.4521133" lon="10.8930633"><ele>241.0</ele><time>2026-04-04T10:09:17.318Z</time></trkpt><trkpt lat="43.4520583" lon="10.89301"><ele>237.99999999999997</ele><time>2026-04-04T10:09:18.318Z</time></trkpt><trkpt lat="43.452025" lon="10.8929267"><ele>234.99999999999997</ele><time>2026-04-04T10:09:19.318Z</time></trkpt><trkpt lat="43.4520083" lon="10.8928367"><ele>232.0</ele><time>2026-04-04T10:09:20.318Z</time></trkpt><trkpt lat="43.45199" lon="10.892665"><ele>229.0</ele><time>2026-04-04T10:09:22.318Z</time></trkpt><trkpt lat="43.4519983" lon="10.8924983"><ele>228.6</ele><time>2026-04-04T10:09:24.318Z</time></trkpt><trkpt lat="43.4520117" lon="10.892335"><ele>228.2</ele><time>2026-04-04T10:09:26.319Z</time></trkpt><trkpt lat="43.4520167" lon="10.8922483"><ele>227.79999999999998</ele><time>2026-04-04T10:09:27.318Z</time></trkpt><trkpt lat="43.4520017" lon="10.8920933"><ele>227.39999999999998</ele><time>2026-04-04T10:09:29.318Z</time></trkpt><trkpt lat="43.45196" lon="10.8919433"><ele>227.0</ele><time>2026-04-04T10:09:31.318Z</time></trkpt><trkpt lat="43.4519317" lon="10.891865"><ele>226.66666666666669</ele><time>2026-04-04T10:09:32.318Z</time></trkpt><trkpt lat="43.4518617" lon="10.8917367"><ele>226.33333333333334</ele><time>2026-04-04T10:09:34.318Z</time></trkpt><trkpt lat="43.4518083" lon="10.8916717"><ele>226.0</ele><time>2026-04-04T10:09:35.318Z</time></trkpt><trkpt lat="43.4517483" lon="10.8916067"><ele>225.66666666666669</ele><time>2026-04-04T10:09:36.318Z</time></trkpt><trkpt lat="43.45169" lon="10.891545"><ele>225.33333333333334</ele><time>2026-04-04T10:09:37.318Z</time></trkpt><trkpt lat="43.4516217" lon="10.8914917"><ele>225.0</ele><time>2026-04-04T10:09:38.319Z</time></trkpt><trkpt lat="43.4515583" lon="10.89143"><ele>225.0</ele><time>2026-04-04T10:09:39.319Z</time></trkpt><trkpt lat="43.4514933" lon="10.8913717"><ele>225.0</ele><time>2026-04-04T10:09:40.319Z</time></trkpt><trkpt lat="43.451415" lon="10.8913117"><ele>225.0</ele><time>2026-04-04T10:09:41.318Z</time></trkpt><trkpt lat="43.4513333" lon="10.8912217"><ele>225.0</ele><time>2026-04-04T10:09:42.318Z</time></trkpt><trkpt lat="43.4512383" lon="10.8911383"><ele>225.0</ele><time>2026-04-04T10:09:43.318Z</time></trkpt><trkpt lat="43.4511417" lon="10.8910383"><ele>223.25</ele><time>2026-04-04T10:09:44.318Z</time></trkpt><trkpt lat="43.45104" lon="10.8909417"><ele>221.5</ele><time>2026-04-04T10:09:45.318Z</time></trkpt><trkpt lat="43.4509417" lon="10.89085"><ele>219.75</ele><time>2026-04-04T10:09:46.318Z</time></trkpt><trkpt lat="43.4508433" lon="10.8907633"><ele>218.0</ele><time>2026-04-04T10:09:47.318Z</time></trkpt><trkpt lat="43.4507467" lon="10.89067"><ele>218.0</ele><time>2026-04-04T10:09:48.318Z</time></trkpt><trkpt lat="43.45064" lon="10.890575"><ele>218.0</ele><time>2026-04-04T10:09:49.318Z</time></trkpt><trkpt lat="43.4505367" lon="10.8904767"><ele>218.0</ele><time>2026-04-04T10:09:50.318Z</time></trkpt><trkpt lat="43.450435" lon="10.8903783"><ele>218.0</ele><time>2026-04-04T10:09:51.318Z</time></trkpt><trkpt lat="43.450345" lon="10.89029"><ele>217.25</ele><time>2026-04-04T10:09:52.318Z</time></trkpt><trkpt lat="43.4502517" lon="10.890205"><ele>216.5</ele><time>2026-04-04T10:09:53.318Z</time></trkpt><trkpt lat="43.4501583" lon="10.8901217"><ele>215.75</ele><time>2026-04-04T10:09:54.318Z</time></trkpt><trkpt lat="43.4500667" lon="10.8900283"><ele>215.0</ele><time>2026-04-04T10:09:55.319Z</time></trkpt><trkpt lat="43.449965" lon="10.889925"><ele>215.0</ele><time>2026-04-04T10:09:56.318Z</time></trkpt><trkpt lat="43.4498667" lon="10.8898367"><ele>215.0</ele><time>2026-04-04T10:09:57.318Z</time></trkpt><trkpt lat="43.4497617" lon="10.8897433"><ele>215.0</ele><time>2026-04-04T10:09:58.318Z</time></trkpt><trkpt lat="43.4496667" lon="10.8896633"><ele>215.0</ele><time>2026-04-04T10:09:59.318Z</time></trkpt><trkpt lat="43.4495733" lon="10.8895667"><ele>214.75</ele><time>2026-04-04T10:10:00.318Z</time></trkpt><trkpt lat="43.44948" lon="10.889455"><ele>214.5</ele><time>2026-04-04T10:10:01.318Z</time></trkpt><trkpt lat="43.4493883" lon="10.8893367"><ele>214.25</ele><time>2026-04-04T10:10:02.319Z</time></trkpt><trkpt lat="43.4492983" lon="10.88921"><ele>214.0</ele><time>2026-04-04T10:10:03.318Z</time></trkpt><trkpt lat="43.44921" lon="10.88908"><ele>214.0</ele><time>2026-04-04T10:10:04.318Z</time></trkpt><trkpt lat="43.4491367" lon="10.8889417"><ele>214.0</ele><time>2026-04-04T10:10:05.318Z</time></trkpt><trkpt lat="43.449065" lon="10.8888183"><ele>214.0</ele><time>2026-04-04T10:10:06.319Z</time></trkpt><trkpt lat="43.4490033" lon="10.8886867"><ele>214.0</ele><time>2026-04-04T10:10:07.318Z</time></trkpt><trkpt lat="43.4489567" lon="10.8885467"><ele>215.75</ele><time>2026-04-04T10:10:08.318Z</time></trkpt><trkpt lat="43.4488933" lon="10.8884033"><ele>217.5</ele><time>2026-04-04T10:10:09.318Z</time></trkpt><trkpt lat="43.4488317" lon="10.8882667"><ele>219.25</ele><time>2026-04-04T10:10:10.319Z</time></trkpt><trkpt lat="43.4487683" lon="10.8881483"><ele>221.0</ele><time>2026-04-04T10:10:11.319Z</time></trkpt><trkpt lat="43.448715" lon="10.88802"><ele>221.0</ele><time>2026-04-04T10:10:12.318Z</time></trkpt><trkpt lat="43.4486583" lon="10.8879067"><ele>221.00000000000003</ele><time>2026-04-04T10:10:13.318Z</time></trkpt><trkpt lat="43.4486017" lon="10.8878033"><ele>221.00000000000003</ele><time>2026-04-04T10:10:14.318Z</time></trkpt><trkpt lat="43.4485467" lon="10.8877117"><ele>221.0</ele><time>2026-04-04T10:10:15.319Z</time></trkpt><trkpt lat="43.4484817" lon="10.8876333"><ele>221.0</ele><time>2026-04-04T10:10:16.318Z</time></trkpt><trkpt lat="43.448405" lon="10.8875383"><ele>219.60000000000002</ele><time>2026-04-04T10:10:17.319Z</time></trkpt><trkpt lat="43.4483283" lon="10.887445"><ele>218.20000000000002</ele><time>2026-04-04T10:10:18.318Z</time></trkpt><trkpt lat="43.4482417" lon="10.8873633"><ele>216.79999999999998</ele><time>2026-04-04T10:10:19.318Z</time></trkpt><trkpt lat="43.4481567" lon="10.8873017"><ele>215.39999999999998</ele><time>2026-04-04T10:10:20.318Z</time></trkpt><trkpt lat="43.4480667" lon="10.887235"><ele>214.0</ele><time>2026-04-04T10:10:21.318Z</time></trkpt><trkpt lat="43.4479817" lon="10.887165"><ele>215.79999999999998</ele><time>2026-04-04T10:10:22.318Z</time></trkpt><trkpt lat="43.4479017" lon="10.8870917"><ele>217.59999999999997</ele><time>2026-04-04T10:10:23.318Z</time></trkpt><trkpt lat="43.447825" lon="10.887015"><ele>219.4</ele><time>2026-04-04T10:10:24.318Z</time></trkpt><trkpt lat="43.447745" lon="10.8869433"><ele>221.2</ele><time>2026-04-04T10:10:25.318Z</time></trkpt><trkpt lat="43.447665" lon="10.886855"><ele>223.0</ele><time>2026-04-04T10:10:26.318Z</time></trkpt><trkpt lat="43.4475983" lon="10.8867683"><ele>221.0</ele><time>2026-04-04T10:10:27.318Z</time></trkpt><trkpt lat="43.4475333" lon="10.886665"><ele>219.0</ele><time>2026-04-04T10:10:28.318Z</time></trkpt><trkpt lat="43.4474767" lon="10.8865433"><ele>217.0</ele><time>2026-04-04T10:10:29.318Z</time></trkpt><trkpt lat="43.4474167" lon="10.8864067"><ele>215.0</ele><time>2026-04-04T10:10:30.318Z</time></trkpt><trkpt lat="43.44738" lon="10.8862767"><ele>213.0</ele><time>2026-04-04T10:10:31.319Z</time></trkpt><trkpt lat="43.4473483" lon="10.8861467"><ele>213.0</ele><time>2026-04-04T10:10:32.318Z</time></trkpt><trkpt lat="43.4473167" lon="10.886025"><ele>213.0</ele><time>2026-04-04T10:10:33.319Z</time></trkpt><trkpt lat="43.447285" lon="10.8859133"><ele>213.0</ele><time>2026-04-04T10:10:34.318Z</time></trkpt><trkpt lat="43.4472517" lon="10.8858"><ele>213.0</ele><time>2026-04-04T10:10:35.318Z</time></trkpt><trkpt lat="43.4472267" lon="10.8856917"><ele>213.0</ele><time>2026-04-04T10:10:36.318Z</time></trkpt><trkpt lat="43.447195" lon="10.885585"><ele>213.0</ele><time>2026-04-04T10:10:37.318Z</time></trkpt><trkpt lat="43.44717" lon="10.8854833"><ele>211.5</ele><time>2026-04-04T10:10:38.318Z</time></trkpt><trkpt lat="43.4471467" lon="10.8853833"><ele>210.0</ele><time>2026-04-04T10:10:39.319Z</time></trkpt><trkpt lat="43.4471333" lon="10.8852867"><ele>208.5</ele><time>2026-04-04T10:10:40.318Z</time></trkpt><trkpt lat="43.447105" lon="10.8851817"><ele>207.0</ele><time>2026-04-04T10:10:41.318Z</time></trkpt><trkpt lat="43.44708" lon="10.8850733"><ele>205.5</ele><time>2026-04-04T10:10:42.318Z</time></trkpt><trkpt lat="43.4470567" lon="10.884975"><ele>204.0</ele><time>2026-04-04T10:10:43.318Z</time></trkpt><trkpt lat="43.4470317" lon="10.8848783"><ele>203.16666666666666</ele><time>2026-04-04T10:10:44.319Z</time></trkpt><trkpt lat="43.447015" lon="10.8847733"><ele>202.33333333333331</ele><time>2026-04-04T10:10:45.318Z</time></trkpt><trkpt lat="43.4469867" lon="10.8846667"><ele>201.5</ele><time>2026-04-04T10:10:46.318Z</time></trkpt><trkpt lat="43.44695" lon="10.8845717"><ele>200.66666666666666</ele><time>2026-04-04T10:10:47.318Z</time></trkpt><trkpt lat="43.4469233" lon="10.8844683"><ele>199.83333333333331</ele><time>2026-04-04T10:10:48.318Z</time></trkpt><trkpt lat="43.4468933" lon="10.8843583"><ele>199.0</ele><time>2026-04-04T10:10:49.318Z</time></trkpt><trkpt lat="43.4468683" lon="10.8842417"><ele>198.79999999999998</ele><time>2026-04-04T10:10:50.319Z</time></trkpt><trkpt lat="43.4468417" lon="10.88413"><ele>198.6</ele><time>2026-04-04T10:10:51.318Z</time></trkpt><trkpt lat="43.4468167" lon="10.8840117"><ele>198.4</ele><time>2026-04-04T10:10:52.318Z</time></trkpt><trkpt lat="43.4467933" lon="10.8838933"><ele>198.2</ele><time>2026-04-04T10:10:53.318Z</time></trkpt><trkpt lat="43.4467767" lon="10.88376"><ele>198.0</ele><time>2026-04-04T10:10:54.318Z</time></trkpt><trkpt lat="43.4467633" lon="10.8836217"><ele>198.0</ele><time>2026-04-04T10:10:55.319Z</time></trkpt><trkpt lat="43.44675" lon="10.88348"><ele>198.0</ele><time>2026-04-04T10:10:56.319Z</time></trkpt><trkpt lat="43.44673" lon="10.8833217"><ele>198.0</ele><time>2026-04-04T10:10:57.318Z</time></trkpt><trkpt lat="43.4467083" lon="10.88317"><ele>198.0</ele><time>2026-04-04T10:10:58.318Z</time></trkpt><trkpt lat="43.4467" lon="10.8829933"><ele>197.0</ele><time>2026-04-04T10:10:59.318Z</time></trkpt><trkpt lat="43.4466867" lon="10.8828267"><ele>196.0</ele><time>2026-04-04T10:11:00.319Z</time></trkpt><trkpt lat="43.446665" lon="10.8826767"><ele>195.0</ele><time>2026-04-04T10:11:01.319Z</time></trkpt><trkpt lat="43.4466433" lon="10.88251"><ele>194.0</ele><time>2026-04-04T10:11:02.319Z</time></trkpt><trkpt lat="43.44664" lon="10.8823417"><ele>192.0</ele><time>2026-04-04T10:11:03.318Z</time></trkpt><trkpt lat="43.4466217" lon="10.882185"><ele>190.0</ele><time>2026-04-04T10:11:04.318Z</time></trkpt><trkpt lat="43.44661" lon="10.8820183"><ele>188.0</ele><time>2026-04-04T10:11:05.318Z</time></trkpt><trkpt lat="43.4465983" lon="10.8818483"><ele>186.0</ele><time>2026-04-04T10:11:06.318Z</time></trkpt><trkpt lat="43.4465967" lon="10.8816867"><ele>185.25</ele><time>2026-04-04T10:11:07.318Z</time></trkpt><trkpt lat="43.44658" lon="10.8815083"><ele>184.5</ele><time>2026-04-04T10:11:08.318Z</time></trkpt><trkpt lat="43.4465667" lon="10.8813517"><ele>183.75</ele><time>2026-04-04T10:11:09.318Z</time></trkpt><trkpt lat="43.4465633" lon="10.881185"><ele>183.0</ele><time>2026-04-04T10:11:10.319Z</time></trkpt><trkpt lat="43.446565" lon="10.8810233"><ele>182.4</ele><time>2026-04-04T10:11:11.318Z</time></trkpt><trkpt lat="43.4465667" lon="10.880885"><ele>181.8</ele><time>2026-04-04T10:11:12.318Z</time></trkpt><trkpt lat="43.446575" lon="10.880745"><ele>181.2</ele><time>2026-04-04T10:11:13.318Z</time></trkpt><trkpt lat="43.44658" lon="10.8805933"><ele>180.6</ele><time>2026-04-04T10:11:14.318Z</time></trkpt><trkpt lat="43.4465833" lon="10.88047"><ele>180.0</ele><time>2026-04-04T10:11:15.318Z</time></trkpt><trkpt lat="43.44659" lon="10.88034"><ele>180.0</ele><time>2026-04-04T10:11:16.318Z</time></trkpt><trkpt lat="43.4466067" lon="10.8802133"><ele>180.0</ele><time>2026-04-04T10:11:17.318Z</time></trkpt><trkpt lat="43.4466267" lon="10.88008"><ele>180.0</ele><time>2026-04-04T10:11:18.318Z</time></trkpt><trkpt lat="43.4466417" lon="10.87997"><ele>180.0</ele><time>2026-04-04T10:11:19.318Z</time></trkpt><trkpt lat="43.4466417" lon="10.8798583"><ele>180.0</ele><time>2026-04-04T10:11:20.318Z</time></trkpt><trkpt lat="43.4466417" lon="10.879735"><ele>180.0</ele><time>2026-04-04T10:11:21.318Z</time></trkpt><trkpt lat="43.44662" lon="10.8796217"><ele>179.0</ele><time>2026-04-04T10:11:22.318Z</time></trkpt><trkpt lat="43.4465817" lon="10.87951"><ele>178.0</ele><time>2026-04-04T10:11:23.318Z</time></trkpt><trkpt lat="43.4465283" lon="10.8793917"><ele>177.0</ele><time>2026-04-04T10:11:24.318Z</time></trkpt><trkpt lat="43.4464667" lon="10.879275"><ele>176.0</ele><time>2026-04-04T10:11:25.318Z</time></trkpt><trkpt lat="43.4464183" lon="10.8791617"><ele>175.0</ele><time>2026-04-04T10:11:26.319Z</time></trkpt><trkpt lat="43.44636" lon="10.8790533"><ele>174.8</ele><time>2026-04-04T10:11:27.318Z</time></trkpt><trkpt lat="43.44632" lon="10.8789483"><ele>174.6</ele><time>2026-04-04T10:11:28.318Z</time></trkpt><trkpt lat="43.4462933" lon="10.8788233"><ele>174.39999999999998</ele><time>2026-04-04T10:11:29.318Z</time></trkpt><trkpt lat="43.4462717" lon="10.8787"><ele>174.2</ele><time>2026-04-04T10:11:30.317Z</time></trkpt><trkpt lat="43.4462583" lon="10.8785733"><ele>174.0</ele><time>2026-04-04T10:11:31.317Z</time></trkpt><trkpt lat="43.4462483" lon="10.878445"><ele>170.79999999999998</ele><time>2026-04-04T10:11:32.317Z</time></trkpt><trkpt lat="43.4462283" lon="10.8783133"><ele>167.6</ele><time>2026-04-04T10:11:33.318Z</time></trkpt><trkpt lat="43.44621" lon="10.8781783"><ele>164.4</ele><time>2026-04-04T10:11:34.317Z</time></trkpt><trkpt lat="43.4462117" lon="10.8780317"><ele>161.2</ele><time>2026-04-04T10:11:35.317Z</time></trkpt><trkpt lat="43.4462083" lon="10.877895"><ele>158.0</ele><time>2026-04-04T10:11:36.317Z</time></trkpt><trkpt lat="43.4462267" lon="10.8777833"><ele>158.0</ele><time>2026-04-04T10:11:37.317Z</time></trkpt><trkpt lat="43.446255" lon="10.8776733"><ele>158.0</ele><time>2026-04-04T10:11:38.317Z</time></trkpt><trkpt lat="43.4462817" lon="10.87756"><ele>158.0</ele><time>2026-04-04T10:11:39.317Z</time></trkpt><trkpt lat="43.4463233" lon="10.877455"><ele>158.0</ele><time>2026-04-04T10:11:40.317Z</time></trkpt><trkpt lat="43.4463883" lon="10.8773483"><ele>158.0</ele><time>2026-04-04T10:11:41.318Z</time></trkpt><trkpt lat="43.4464717" lon="10.8772683"><ele>158.8</ele><time>2026-04-04T10:11:42.318Z</time></trkpt><trkpt lat="43.4465583" lon="10.87719"><ele>159.60000000000002</ele><time>2026-04-04T10:11:43.317Z</time></trkpt><trkpt lat="43.4466533" lon="10.8771233"><ele>160.39999999999998</ele><time>2026-04-04T10:11:44.317Z</time></trkpt><trkpt lat="43.4467583" lon="10.8770733"><ele>161.2</ele><time>2026-04-04T10:11:45.317Z</time></trkpt><trkpt lat="43.4468667" lon="10.8770167"><ele>162.0</ele><time>2026-04-04T10:11:46.317Z</time></trkpt><trkpt lat="43.4469767" lon="10.8769683"><ele>162.0</ele><time>2026-04-04T10:11:47.317Z</time></trkpt><trkpt lat="43.4470883" lon="10.876935"><ele>162.0</ele><time>2026-04-04T10:11:48.318Z</time></trkpt><trkpt lat="43.4472017" lon="10.8769033"><ele>162.0</ele><time>2026-04-04T10:11:49.318Z</time></trkpt><trkpt lat="43.4473033" lon="10.876885"><ele>162.0</ele><time>2026-04-04T10:11:50.317Z</time></trkpt><trkpt lat="43.4474083" lon="10.8768433"><ele>162.0</ele><time>2026-04-04T10:11:51.318Z</time></trkpt><trkpt lat="43.4475133" lon="10.87681"><ele>161.8</ele><time>2026-04-04T10:11:52.317Z</time></trkpt><trkpt lat="43.447615" lon="10.8767917"><ele>161.6</ele><time>2026-04-04T10:11:53.317Z</time></trkpt><trkpt lat="43.4477167" lon="10.8767767"><ele>161.4</ele><time>2026-04-04T10:11:54.318Z</time></trkpt><trkpt lat="43.4478167" lon="10.876765"><ele>161.20000000000002</ele><time>2026-04-04T10:11:55.317Z</time></trkpt><trkpt lat="43.447905" lon="10.876755"><ele>161.0</ele><time>2026-04-04T10:11:56.317Z</time></trkpt><trkpt lat="43.4479933" lon="10.8767667"><ele>159.33333333333331</ele><time>2026-04-04T10:11:57.317Z</time></trkpt><trkpt lat="43.4480783" lon="10.8768033"><ele>157.66666666666666</ele><time>2026-04-04T10:11:58.317Z</time></trkpt><trkpt lat="43.448155" lon="10.8768533"><ele>156.0</ele><time>2026-04-04T10:11:59.317Z</time></trkpt><trkpt lat="43.44823" lon="10.8769067"><ele>154.33333333333334</ele><time>2026-04-04T10:12:00.318Z</time></trkpt><trkpt lat="43.4482967" lon="10.8769617"><ele>152.66666666666669</ele><time>2026-04-04T10:12:01.318Z</time></trkpt><trkpt lat="43.4483567" lon="10.8770067"><ele>151.0</ele><time>2026-04-04T10:12:02.317Z</time></trkpt><trkpt lat="43.4484767" lon="10.8770317"><ele>151.0</ele><time>2026-04-04T10:12:04.317Z</time></trkpt><trkpt lat="43.4485617" lon="10.876975"><ele>151.0</ele><time>2026-04-04T10:12:05.317Z</time></trkpt><trkpt lat="43.4486367" lon="10.8768883"><ele>151.0</ele><time>2026-04-04T10:12:06.317Z</time></trkpt><trkpt lat="43.4487133" lon="10.876785"><ele>151.0</ele><time>2026-04-04T10:12:07.317Z</time></trkpt><trkpt lat="43.44879" lon="10.8766717"><ele>151.0</ele><time>2026-04-04T10:12:08.317Z</time></trkpt><trkpt lat="43.4488567" lon="10.8765333"><ele>149.6</ele><time>2026-04-04T10:12:09.317Z</time></trkpt><trkpt lat="43.44891" lon="10.8764067"><ele>148.2</ele><time>2026-04-04T10:12:10.317Z</time></trkpt><trkpt lat="43.4489633" lon="10.8762667"><ele>146.8</ele><time>2026-04-04T10:12:11.317Z</time></trkpt><trkpt lat="43.44902" lon="10.8761317"><ele>145.4</ele><time>2026-04-04T10:12:12.317Z</time></trkpt><trkpt lat="43.44907" lon="10.8759917"><ele>144.0</ele><time>2026-04-04T10:12:13.317Z</time></trkpt><trkpt lat="43.449115" lon="10.8758583"><ele>143.6</ele><time>2026-04-04T10:12:14.317Z</time></trkpt><trkpt lat="43.44916" lon="10.8757283"><ele>143.2</ele><time>2026-04-04T10:12:15.317Z</time></trkpt><trkpt lat="43.4491983" lon="10.8755883"><ele>142.79999999999998</ele><time>2026-04-04T10:12:16.317Z</time></trkpt><trkpt lat="43.44924" lon="10.8754533"><ele>142.4</ele><time>2026-04-04T10:12:17.317Z</time></trkpt><trkpt lat="43.4492883" lon="10.8753117"><ele>142.0</ele><time>2026-04-04T10:12:18.317Z</time></trkpt><trkpt lat="43.4493433" lon="10.8751733"><ele>141.5</ele><time>2026-04-04T10:12:19.318Z</time></trkpt><trkpt lat="43.4493917" lon="10.875025"><ele>141.0</ele><time>2026-04-04T10:12:20.318Z</time></trkpt><trkpt lat="43.4494417" lon="10.8748717"><ele>140.5</ele><time>2026-04-04T10:12:21.317Z</time></trkpt><trkpt lat="43.44949" lon="10.8747217"><ele>140.0</ele><time>2026-04-04T10:12:22.317Z</time></trkpt><trkpt lat="43.44954" lon="10.874555"><ele>140.0</ele><time>2026-04-04T10:12:23.318Z</time></trkpt><trkpt lat="43.4495917" lon="10.8744033"><ele>140.0</ele><time>2026-04-04T10:12:24.317Z</time></trkpt><trkpt lat="43.4496467" lon="10.8742667"><ele>140.0</ele><time>2026-04-04T10:12:25.317Z</time></trkpt><trkpt lat="43.4497017" lon="10.874135"><ele>140.0</ele><time>2026-04-04T10:12:26.318Z</time></trkpt><trkpt lat="43.44977" lon="10.8740217"><ele>140.8</ele><time>2026-04-04T10:12:27.318Z</time></trkpt><trkpt lat="43.4498333" lon="10.87391"><ele>141.6</ele><time>2026-04-04T10:12:28.318Z</time></trkpt><trkpt lat="43.4499067" lon="10.8738067"><ele>142.4</ele><time>2026-04-04T10:12:29.317Z</time></trkpt><trkpt lat="43.4499733" lon="10.8737133"><ele>143.2</ele><time>2026-04-04T10:12:30.317Z</time></trkpt><trkpt lat="43.450045" lon="10.8736183"><ele>144.0</ele><time>2026-04-04T10:12:31.317Z</time></trkpt><trkpt lat="43.4501133" lon="10.8735133"><ele>142.25</ele><time>2026-04-04T10:12:32.317Z</time></trkpt><trkpt lat="43.4501917" lon="10.8734"><ele>140.5</ele><time>2026-04-04T10:12:33.317Z</time></trkpt><trkpt lat="43.450275" lon="10.8732917"><ele>138.75</ele><time>2026-04-04T10:12:34.317Z</time></trkpt><trkpt lat="43.4503583" lon="10.8731767"><ele>137.0</ele><time>2026-04-04T10:12:35.317Z</time></trkpt><trkpt lat="43.4504417" lon="10.8730567"><ele>136.75</ele><time>2026-04-04T10:12:36.318Z</time></trkpt><trkpt lat="43.45053" lon="10.8729417"><ele>136.5</ele><time>2026-04-04T10:12:37.317Z</time></trkpt><trkpt lat="43.4506133" lon="10.872835"><ele>136.25</ele><time>2026-04-04T10:12:38.317Z</time></trkpt><trkpt lat="43.4507033" lon="10.872715"><ele>136.0</ele><time>2026-04-04T10:12:39.317Z</time></trkpt><trkpt lat="43.4507883" lon="10.8726"><ele>136.0</ele><time>2026-04-04T10:12:40.317Z</time></trkpt><trkpt lat="43.4508667" lon="10.8724783"><ele>136.0</ele><time>2026-04-04T10:12:41.317Z</time></trkpt><trkpt lat="43.4509533" lon="10.8723683"><ele>136.0</ele><time>2026-04-04T10:12:42.317Z</time></trkpt><trkpt lat="43.4510433" lon="10.8722517"><ele>136.0</ele><time>2026-04-04T10:12:43.317Z</time></trkpt><trkpt lat="43.4511217" lon="10.87213"><ele>136.0</ele><time>2026-04-04T10:12:44.317Z</time></trkpt><trkpt lat="43.451205" lon="10.872025"><ele>136.0</ele><time>2026-04-04T10:12:45.317Z</time></trkpt><trkpt lat="43.451295" lon="10.8719133"><ele>136.0</ele><time>2026-04-04T10:12:46.317Z</time></trkpt><trkpt lat="43.4513933" lon="10.8718067"><ele>136.0</ele><time>2026-04-04T10:12:47.317Z</time></trkpt><trkpt lat="43.4514917" lon="10.8717167"><ele>136.5</ele><time>2026-04-04T10:12:48.317Z</time></trkpt><trkpt lat="43.45159" lon="10.87162"><ele>137.0</ele><time>2026-04-04T10:12:49.317Z</time></trkpt><trkpt lat="43.45169" lon="10.871535"><ele>137.5</ele><time>2026-04-04T10:12:50.317Z</time></trkpt><trkpt lat="43.4517883" lon="10.8714433"><ele>138.0</ele><time>2026-04-04T10:12:51.317Z</time></trkpt><trkpt lat="43.4519083" lon="10.8713467"><ele>138.0</ele><time>2026-04-04T10:12:52.317Z</time></trkpt><trkpt lat="43.4520133" lon="10.87125"><ele>138.0</ele><time>2026-04-04T10:12:53.317Z</time></trkpt><trkpt lat="43.4521017" lon="10.871145"><ele>138.0</ele><time>2026-04-04T10:12:54.317Z</time></trkpt><trkpt lat="43.4521933" lon="10.8710367"><ele>138.0</ele><time>2026-04-04T10:12:55.317Z</time></trkpt><trkpt lat="43.452295" lon="10.870935"><ele>137.6</ele><time>2026-04-04T10:12:56.317Z</time></trkpt><trkpt lat="43.4523917" lon="10.8708433"><ele>137.20000000000002</ele><time>2026-04-04T10:12:57.317Z</time></trkpt><trkpt lat="43.452485" lon="10.8707433"><ele>136.8</ele><time>2026-04-04T10:12:58.318Z</time></trkpt><trkpt lat="43.4525717" lon="10.8706517"><ele>136.4</ele><time>2026-04-04T10:12:59.317Z</time></trkpt><trkpt lat="43.4526533" lon="10.8705633"><ele>136.0</ele><time>2026-04-04T10:13:00.317Z</time></trkpt><trkpt lat="43.45274" lon="10.8704583"><ele>136.0</ele><time>2026-04-04T10:13:01.318Z</time></trkpt><trkpt lat="43.4528267" lon="10.8703633"><ele>136.0</ele><time>2026-04-04T10:13:02.317Z</time></trkpt><trkpt lat="43.45289" lon="10.870245"><ele>136.0</ele><time>2026-04-04T10:13:03.318Z</time></trkpt><trkpt lat="43.4529383" lon="10.8701083"><ele>136.0</ele><time>2026-04-04T10:13:04.318Z</time></trkpt><trkpt lat="43.4529617" lon="10.8699617"><ele>136.0</ele><time>2026-04-04T10:13:05.317Z</time></trkpt><trkpt lat="43.4529833" lon="10.8698183"><ele>135.4</ele><time>2026-04-04T10:13:06.317Z</time></trkpt><trkpt lat="43.4530017" lon="10.86966"><ele>134.8</ele><time>2026-04-04T10:13:07.317Z</time></trkpt><trkpt lat="43.4530183" lon="10.8695067"><ele>134.20000000000002</ele><time>2026-04-04T10:13:08.318Z</time></trkpt><trkpt lat="43.4530317" lon="10.8693533"><ele>133.6</ele><time>2026-04-04T10:13:09.317Z</time></trkpt><trkpt lat="43.453045" lon="10.8692117"><ele>133.0</ele><time>2026-04-04T10:13:10.318Z</time></trkpt><trkpt lat="43.4530683" lon="10.8690683"><ele>133.0</ele><time>2026-04-04T10:13:11.317Z</time></trkpt><trkpt lat="43.4530867" lon="10.8689283"><ele>133.0</ele><time>2026-04-04T10:13:12.317Z</time></trkpt><trkpt lat="43.4531133" lon="10.8687917"><ele>133.0</ele><time>2026-04-04T10:13:13.317Z</time></trkpt><trkpt lat="43.453145" lon="10.8686517"><ele>133.0</ele><time>2026-04-04T10:13:14.318Z</time></trkpt><trkpt lat="43.453185" lon="10.86852"><ele>133.0</ele><time>2026-04-04T10:13:15.318Z</time></trkpt><trkpt lat="43.4532367" lon="10.8683767"><ele>133.0</ele><time>2026-04-04T10:13:16.317Z</time></trkpt><trkpt lat="43.453295" lon="10.868225"><ele>133.0</ele><time>2026-04-04T10:13:17.317Z</time></trkpt><trkpt lat="43.4533567" lon="10.868085"><ele>133.0</ele><time>2026-04-04T10:13:18.317Z</time></trkpt><trkpt lat="43.4534183" lon="10.86794"><ele>133.0</ele><time>2026-04-04T10:13:19.317Z</time></trkpt><trkpt lat="43.4534867" lon="10.8677933"><ele>133.0</ele><time>2026-04-04T10:13:20.317Z</time></trkpt><trkpt lat="43.45355" lon="10.8676567"><ele>133.0</ele><time>2026-04-04T10:13:21.317Z</time></trkpt><trkpt lat="43.453605" lon="10.8675017"><ele>133.0</ele><time>2026-04-04T10:13:22.317Z</time></trkpt><trkpt lat="43.45366" lon="10.8673483"><ele>133.0</ele><time>2026-04-04T10:13:23.317Z</time></trkpt><trkpt lat="43.4537183" lon="10.8671983"><ele>133.25</ele><time>2026-04-04T10:13:24.317Z</time></trkpt><trkpt lat="43.4537717" lon="10.8670383"><ele>133.5</ele><time>2026-04-04T10:13:25.317Z</time></trkpt><trkpt lat="43.453825" lon="10.8668617"><ele>133.75</ele><time>2026-04-04T10:13:26.317Z</time></trkpt><trkpt lat="43.4538517" lon="10.86671"><ele>134.0</ele><time>2026-04-04T10:13:27.318Z</time></trkpt><trkpt lat="43.453875" lon="10.8665633"><ele>134.0</ele><time>2026-04-04T10:13:28.317Z</time></trkpt><trkpt lat="43.4538933" lon="10.8664133"><ele>134.0</ele><time>2026-04-04T10:13:29.317Z</time></trkpt><trkpt lat="43.4539017" lon="10.86624"><ele>134.0</ele><time>2026-04-04T10:13:30.318Z</time></trkpt><trkpt lat="43.453915" lon="10.8660567"><ele>134.0</ele><time>2026-04-04T10:13:31.318Z</time></trkpt><trkpt lat="43.4539333" lon="10.86587"><ele>132.75</ele><time>2026-04-04T10:13:32.317Z</time></trkpt><trkpt lat="43.4539483" lon="10.8656817"><ele>131.5</ele><time>2026-04-04T10:13:33.317Z</time></trkpt><trkpt lat="43.4539683" lon="10.86549"><ele>130.25</ele><time>2026-04-04T10:13:34.317Z</time></trkpt><trkpt lat="43.45398" lon="10.8653017"><ele>129.0</ele><time>2026-04-04T10:13:35.317Z</time></trkpt><trkpt lat="43.4539983" lon="10.8651133"><ele>127.75</ele><time>2026-04-04T10:13:36.317Z</time></trkpt><trkpt lat="43.4540083" lon="10.8649267"><ele>126.5</ele><time>2026-04-04T10:13:37.317Z</time></trkpt><trkpt lat="43.4540117" lon="10.8647433"><ele>125.25</ele><time>2026-04-04T10:13:38.317Z</time></trkpt><trkpt lat="43.4540017" lon="10.864565"><ele>124.0</ele><time>2026-04-04T10:13:39.317Z</time></trkpt><trkpt lat="43.4539833" lon="10.864365"><ele>123.33333333333334</ele><time>2026-04-04T10:13:40.317Z</time></trkpt><trkpt lat="43.4539417" lon="10.8641467"><ele>122.66666666666666</ele><time>2026-04-04T10:13:41.317Z</time></trkpt><trkpt lat="43.4538967" lon="10.8638933"><ele>122.0</ele><time>2026-04-04T10:13:42.318Z</time></trkpt><trkpt lat="43.4538483" lon="10.8636283"><ele>122.33333333333333</ele><time>2026-04-04T10:13:43.317Z</time></trkpt><trkpt lat="43.4537967" lon="10.863355"><ele>122.66666666666666</ele><time>2026-04-04T10:13:44.317Z</time></trkpt><trkpt lat="43.4537467" lon="10.8630833"><ele>123.0</ele><time>2026-04-04T10:13:45.317Z</time></trkpt><trkpt lat="43.4536967" lon="10.8628417"><ele>122.66666666666666</ele><time>2026-04-04T10:13:46.318Z</time></trkpt><trkpt lat="43.4536417" lon="10.8626067"><ele>122.33333333333333</ele><time>2026-04-04T10:13:47.318Z</time></trkpt><trkpt lat="43.4536" lon="10.862385"><ele>122.0</ele><time>2026-04-04T10:13:48.317Z</time></trkpt><trkpt lat="43.4535617" lon="10.8621833"><ele>122.0</ele><time>2026-04-04T10:13:49.318Z</time></trkpt><trkpt lat="43.45352" lon="10.8619867"><ele>122.0</ele><time>2026-04-04T10:13:50.317Z</time></trkpt><trkpt lat="43.4534883" lon="10.8617983"><ele>122.0</ele><time>2026-04-04T10:13:51.317Z</time></trkpt><trkpt lat="43.4534533" lon="10.86163"><ele>122.0</ele><time>2026-04-04T10:13:52.317Z</time></trkpt><trkpt lat="43.4534233" lon="10.8614667"><ele>122.0</ele><time>2026-04-04T10:13:53.317Z</time></trkpt><trkpt lat="43.453395" lon="10.8613117"><ele>121.99999999999999</ele><time>2026-04-04T10:13:54.317Z</time></trkpt><trkpt lat="43.453365" lon="10.8611767"><ele>121.99999999999999</ele><time>2026-04-04T10:13:55.317Z</time></trkpt><trkpt lat="43.4533333" lon="10.861045"><ele>122.0</ele><time>2026-04-04T10:13:56.317Z</time></trkpt><trkpt lat="43.4533067" lon="10.86093"><ele>122.0</ele><time>2026-04-04T10:13:57.318Z</time></trkpt><trkpt lat="43.45329" lon="10.8608167"><ele>122.33333333333333</ele><time>2026-04-04T10:13:58.318Z</time></trkpt><trkpt lat="43.4532733" lon="10.860705"><ele>122.66666666666666</ele><time>2026-04-04T10:14:00.317Z</time></trkpt><trkpt lat="43.4533433" lon="10.8606783"><ele>123.0</ele><time>2026-04-04T10:14:03.317Z</time></trkpt><trkpt lat="43.4534283" lon="10.8607033"><ele>123.33333333333334</ele><time>2026-04-04T10:14:05.317Z</time></trkpt><trkpt lat="43.45354" lon="10.860735"><ele>123.66666666666667</ele><time>2026-04-04T10:14:07.317Z</time></trkpt><trkpt lat="43.4536017" lon="10.860755"><ele>124.0</ele><time>2026-04-04T10:14:08.317Z</time></trkpt><trkpt lat="43.4536667" lon="10.860765"><ele>124.0</ele><time>2026-04-04T10:14:09.317Z</time></trkpt><trkpt lat="43.4537333" lon="10.8607617"><ele>124.00000000000001</ele><time>2026-04-04T10:14:10.317Z</time></trkpt><trkpt lat="43.4538033" lon="10.8607567"><ele>124.0</ele><time>2026-04-04T10:14:11.317Z</time></trkpt><trkpt lat="43.4538667" lon="10.86074"><ele>124.0</ele><time>2026-04-04T10:14:12.317Z</time></trkpt><trkpt lat="43.4539467" lon="10.8607133"><ele>124.00000000000001</ele><time>2026-04-04T10:14:13.317Z</time></trkpt><trkpt lat="43.45402" lon="10.8606783"><ele>124.0</ele><time>2026-04-04T10:14:14.317Z</time></trkpt><trkpt lat="43.4541033" lon="10.8606783"><ele>124.0</ele><time>2026-04-04T10:14:15.317Z</time></trkpt><trkpt lat="43.4542083" lon="10.8606933"><ele>124.80000000000001</ele><time>2026-04-04T10:14:16.317Z</time></trkpt><trkpt lat="43.4543067" lon="10.860735"><ele>125.60000000000001</ele><time>2026-04-04T10:14:17.318Z</time></trkpt><trkpt lat="43.454415" lon="10.8607883"><ele>126.4</ele><time>2026-04-04T10:14:18.317Z</time></trkpt><trkpt lat="43.4545217" lon="10.860845"><ele>127.2</ele><time>2026-04-04T10:14:19.317Z</time></trkpt><trkpt lat="43.4546217" lon="10.8609033"><ele>128.0</ele><time>2026-04-04T10:14:20.317Z</time></trkpt><trkpt lat="43.4547183" lon="10.8609483"><ele>128.0</ele><time>2026-04-04T10:14:21.317Z</time></trkpt><trkpt lat="43.4548117" lon="10.8610017"><ele>128.0</ele><time>2026-04-04T10:14:22.317Z</time></trkpt><trkpt lat="43.4549083" lon="10.8610567"><ele>128.0</ele><time>2026-04-04T10:14:23.318Z</time></trkpt><trkpt lat="43.4550067" lon="10.861105"><ele>128.0</ele><time>2026-04-04T10:14:24.317Z</time></trkpt><trkpt lat="43.4551017" lon="10.861145"><ele>128.0</ele><time>2026-04-04T10:14:25.317Z</time></trkpt><trkpt lat="43.4552017" lon="10.8611733"><ele>128.0</ele><time>2026-04-04T10:14:26.317Z</time></trkpt><trkpt lat="43.4552917" lon="10.861185"><ele>128.0</ele><time>2026-04-04T10:14:27.317Z</time></trkpt><trkpt lat="43.4553867" lon="10.8611917"><ele>128.0</ele><time>2026-04-04T10:14:28.317Z</time></trkpt><trkpt lat="43.4554817" lon="10.861195"><ele>128.0</ele><time>2026-04-04T10:14:29.318Z</time></trkpt><trkpt lat="43.4555683" lon="10.8612283"><ele>128.0</ele><time>2026-04-04T10:14:30.318Z</time></trkpt><trkpt lat="43.4556533" lon="10.86129"><ele>128.5</ele><time>2026-04-04T10:14:31.317Z</time></trkpt><trkpt lat="43.4557267" lon="10.86137"><ele>129.0</ele><time>2026-04-04T10:14:32.318Z</time></trkpt><trkpt lat="43.455785" lon="10.861455"><ele>129.5</ele><time>2026-04-04T10:14:33.317Z</time></trkpt><trkpt lat="43.455845" lon="10.8615283"><ele>130.0</ele><time>2026-04-04T10:14:34.317Z</time></trkpt><trkpt lat="43.4559083" lon="10.8616033"><ele>130.5</ele><time>2026-04-04T10:14:35.317Z</time></trkpt><trkpt lat="43.455975" lon="10.8616933"><ele>131.0</ele><time>2026-04-04T10:14:36.318Z</time></trkpt><trkpt lat="43.4560417" lon="10.8617817"><ele>130.66666666666666</ele><time>2026-04-04T10:14:37.318Z</time></trkpt><trkpt lat="43.4561067" lon="10.8618733"><ele>130.33333333333331</ele><time>2026-04-04T10:14:38.317Z</time></trkpt><trkpt lat="43.4561633" lon="10.8619583"><ele>130.0</ele><time>2026-04-04T10:14:39.317Z</time></trkpt><trkpt lat="43.4562133" lon="10.862045"><ele>129.66666666666666</ele><time>2026-04-04T10:14:40.317Z</time></trkpt><trkpt lat="43.4562633" lon="10.8621167"><ele>129.33333333333334</ele><time>2026-04-04T10:14:41.317Z</time></trkpt><trkpt lat="43.4563117" lon="10.8621767"><ele>129.0</ele><time>2026-04-04T10:14:42.318Z</time></trkpt><trkpt lat="43.45636" lon="10.862235"><ele>129.0</ele><time>2026-04-04T10:14:43.317Z</time></trkpt><trkpt lat="43.45641" lon="10.8622883"><ele>129.0</ele><time>2026-04-04T10:14:44.317Z</time></trkpt><trkpt lat="43.4565017" lon="10.8623667"><ele>129.0</ele><time>2026-04-04T10:14:46.317Z</time></trkpt><trkpt lat="43.456595" lon="10.8624267"><ele>129.0</ele><time>2026-04-04T10:14:48.317Z</time></trkpt><trkpt lat="43.456675" lon="10.8624717"><ele>129.0</ele><time>2026-04-04T10:14:50.317Z</time></trkpt><trkpt lat="43.4567967" lon="10.8624817"><ele>129.0</ele><time>2026-04-04T10:14:52.317Z</time></trkpt><trkpt lat="43.4568683" lon="10.8624917"><ele>129.0</ele><time>2026-04-04T10:14:53.317Z</time></trkpt><trkpt lat="43.456935" lon="10.8624933"><ele>129.0</ele><time>2026-04-04T10:14:54.317Z</time></trkpt><trkpt lat="43.4570167" lon="10.8625017"><ele>129.0</ele><time>2026-04-04T10:14:55.317Z</time></trkpt><trkpt lat="43.4570967" lon="10.8625267"><ele>129.0</ele><time>2026-04-04T10:14:56.318Z</time></trkpt><trkpt lat="43.4571767" lon="10.862555"><ele>129.0</ele><time>2026-04-04T10:14:57.318Z</time></trkpt><trkpt lat="43.4572617" lon="10.8625967"><ele>128.83333333333334</ele><time>2026-04-04T10:14:58.317Z</time></trkpt><trkpt lat="43.45733" lon="10.8626583"><ele>128.66666666666666</ele><time>2026-04-04T10:14:59.317Z</time></trkpt><trkpt lat="43.4574067" lon="10.862725"><ele>128.5</ele><time>2026-04-04T10:15:00.317Z</time></trkpt><trkpt lat="43.4574717" lon="10.8627767"><ele>128.33333333333331</ele><time>2026-04-04T10:15:01.317Z</time></trkpt><trkpt lat="43.4575283" lon="10.8628467"><ele>128.16666666666666</ele><time>2026-04-04T10:15:02.317Z</time></trkpt><trkpt lat="43.4575933" lon="10.8629183"><ele>128.0</ele><time>2026-04-04T10:15:03.318Z</time></trkpt><trkpt lat="43.4576583" lon="10.8629717"><ele>127.99999999999999</ele><time>2026-04-04T10:15:04.317Z</time></trkpt><trkpt lat="43.4577317" lon="10.8630167"><ele>128.0</ele><time>2026-04-04T10:15:05.318Z</time></trkpt><trkpt lat="43.457805" lon="10.86305"><ele>128.0</ele><time>2026-04-04T10:15:06.317Z</time></trkpt><trkpt lat="43.4578867" lon="10.863075"><ele>128.0</ele><time>2026-04-04T10:15:07.318Z</time></trkpt><trkpt lat="43.457975" lon="10.86309"><ele>127.99999999999999</ele><time>2026-04-04T10:15:08.317Z</time></trkpt><trkpt lat="43.4580533" lon="10.8630933"><ele>128.0</ele><time>2026-04-04T10:15:09.317Z</time></trkpt><trkpt lat="43.4581383" lon="10.863095"><ele>128.83333333333331</ele><time>2026-04-04T10:15:10.317Z</time></trkpt><trkpt lat="43.4582133" lon="10.8631167"><ele>129.66666666666666</ele><time>2026-04-04T10:15:11.317Z</time></trkpt><trkpt lat="43.4582817" lon="10.8631483"><ele>130.5</ele><time>2026-04-04T10:15:12.317Z</time></trkpt><trkpt lat="43.4583583" lon="10.8631967"><ele>131.33333333333334</ele><time>2026-04-04T10:15:13.318Z</time></trkpt><trkpt lat="43.4584333" lon="10.8632683"><ele>132.16666666666669</ele><time>2026-04-04T10:15:14.317Z</time></trkpt><trkpt lat="43.4585" lon="10.8633483"><ele>133.0</ele><time>2026-04-04T10:15:15.318Z</time></trkpt><trkpt lat="43.4585517" lon="10.86344"><ele>132.33333333333334</ele><time>2026-04-04T10:15:16.317Z</time></trkpt><trkpt lat="43.4585967" lon="10.8635333"><ele>131.66666666666669</ele><time>2026-04-04T10:15:17.317Z</time></trkpt><trkpt lat="43.4586217" lon="10.8636317"><ele>131.0</ele><time>2026-04-04T10:15:18.316Z</time></trkpt><trkpt lat="43.4586517" lon="10.86375"><ele>130.33333333333334</ele><time>2026-04-04T10:15:19.316Z</time></trkpt><trkpt lat="43.45868" lon="10.8638667"><ele>129.66666666666666</ele><time>2026-04-04T10:15:20.316Z</time></trkpt><trkpt lat="43.4587083" lon="10.8639817"><ele>129.0</ele><time>2026-04-04T10:15:21.317Z</time></trkpt><trkpt lat="43.458755" lon="10.8640933"><ele>129.8</ele><time>2026-04-04T10:15:22.317Z</time></trkpt><trkpt lat="43.458805" lon="10.8641933"><ele>130.60000000000002</ele><time>2026-04-04T10:15:23.317Z</time></trkpt><trkpt lat="43.458865" lon="10.8642883"><ele>131.4</ele><time>2026-04-04T10:15:24.316Z</time></trkpt><trkpt lat="43.4589367" lon="10.86437"><ele>132.20000000000002</ele><time>2026-04-04T10:15:25.316Z</time></trkpt><trkpt lat="43.4590117" lon="10.864445"><ele>133.0</ele><time>2026-04-04T10:15:26.316Z</time></trkpt><trkpt lat="43.459085" lon="10.8645233"><ele>133.0</ele><time>2026-04-04T10:15:27.317Z</time></trkpt><trkpt lat="43.45916" lon="10.8646083"><ele>133.0</ele><time>2026-04-04T10:15:28.316Z</time></trkpt><trkpt lat="43.459235" lon="10.8647083"><ele>133.0</ele><time>2026-04-04T10:15:29.316Z</time></trkpt><trkpt lat="43.4593067" lon="10.8648"><ele>133.0</ele><time>2026-04-04T10:15:30.317Z</time></trkpt><trkpt lat="43.45938" lon="10.86489"><ele>133.0</ele><time>2026-04-04T10:15:31.316Z</time></trkpt><trkpt lat="43.45945" lon="10.8649717"><ele>133.0</ele><time>2026-04-04T10:15:32.316Z</time></trkpt><trkpt lat="43.4595183" lon="10.8650583"><ele>133.0</ele><time>2026-04-04T10:15:33.316Z</time></trkpt><trkpt lat="43.4595967" lon="10.86515"><ele>133.0</ele><time>2026-04-04T10:15:34.316Z</time></trkpt><trkpt lat="43.4596767" lon="10.865245"><ele>133.0</ele><time>2026-04-04T10:15:35.317Z</time></trkpt><trkpt lat="43.4597533" lon="10.8653283"><ele>133.0</ele><time>2026-04-04T10:15:36.316Z</time></trkpt><trkpt lat="43.45983" lon="10.8654167"><ele>133.6</ele><time>2026-04-04T10:15:37.317Z</time></trkpt><trkpt lat="43.4599117" lon="10.8655017"><ele>134.20000000000002</ele><time>2026-04-04T10:15:38.316Z</time></trkpt><trkpt lat="43.45999" lon="10.8655817"><ele>134.8</ele><time>2026-04-04T10:15:39.317Z</time></trkpt><trkpt lat="43.4600567" lon="10.8656717"><ele>135.4</ele><time>2026-04-04T10:15:40.316Z</time></trkpt><trkpt lat="43.460135" lon="10.865745"><ele>136.0</ele><time>2026-04-04T10:15:41.316Z</time></trkpt><trkpt lat="43.460215" lon="10.86582"><ele>136.0</ele><time>2026-04-04T10:15:42.316Z</time></trkpt><trkpt lat="43.4602983" lon="10.865905"><ele>136.0</ele><time>2026-04-04T10:15:43.316Z</time></trkpt><trkpt lat="43.4603667" lon="10.8659817"><ele>136.0</ele><time>2026-04-04T10:15:44.316Z</time></trkpt><trkpt lat="43.4604417" lon="10.86606"><ele>136.0</ele><time>2026-04-04T10:15:45.316Z</time></trkpt><trkpt lat="43.4605133" lon="10.866135"><ele>136.0</ele><time>2026-04-04T10:15:46.317Z</time></trkpt><trkpt lat="43.460585" lon="10.8662067"><ele>135.4</ele><time>2026-04-04T10:15:47.316Z</time></trkpt><trkpt lat="43.46065" lon="10.866275"><ele>134.8</ele><time>2026-04-04T10:15:48.317Z</time></trkpt><trkpt lat="43.4607217" lon="10.8663483"><ele>134.20000000000002</ele><time>2026-04-04T10:15:49.316Z</time></trkpt><trkpt lat="43.4607917" lon="10.8664383"><ele>133.6</ele><time>2026-04-04T10:15:50.316Z</time></trkpt><trkpt lat="43.4608833" lon="10.866535"><ele>133.0</ele><time>2026-04-04T10:15:51.316Z</time></trkpt><trkpt lat="43.4609733" lon="10.866645"><ele>133.0</ele><time>2026-04-04T10:15:52.316Z</time></trkpt><trkpt lat="43.4610517" lon="10.8667633"><ele>133.0</ele><time>2026-04-04T10:15:53.316Z</time></trkpt><trkpt lat="43.4611317" lon="10.8668867"><ele>133.0</ele><time>2026-04-04T10:15:54.317Z</time></trkpt><trkpt lat="43.46121" lon="10.8670083"><ele>133.0</ele><time>2026-04-04T10:15:55.316Z</time></trkpt><trkpt lat="43.4612883" lon="10.8671317"><ele>133.8</ele><time>2026-04-04T10:15:56.316Z</time></trkpt><trkpt lat="43.461365" lon="10.8672483"><ele>134.60000000000002</ele><time>2026-04-04T10:15:57.316Z</time></trkpt><trkpt lat="43.4614383" lon="10.86736"><ele>135.39999999999998</ele><time>2026-04-04T10:15:58.317Z</time></trkpt><trkpt lat="43.4615117" lon="10.867465"><ele>136.2</ele><time>2026-04-04T10:15:59.316Z</time></trkpt><trkpt lat="43.4615833" lon="10.867565"><ele>137.0</ele><time>2026-04-04T10:16:00.316Z</time></trkpt><trkpt lat="43.4616567" lon="10.8676517"><ele>137.0</ele><time>2026-04-04T10:16:01.316Z</time></trkpt><trkpt lat="43.4617333" lon="10.8677283"><ele>137.0</ele><time>2026-04-04T10:16:02.317Z</time></trkpt><trkpt lat="43.461795" lon="10.8677867"><ele>137.0</ele><time>2026-04-04T10:16:03.316Z</time></trkpt><trkpt lat="43.4618583" lon="10.8678467"><ele>137.0</ele><time>2026-04-04T10:16:04.316Z</time></trkpt><trkpt lat="43.4619233" lon="10.867905"><ele>137.0</ele><time>2026-04-04T10:16:05.316Z</time></trkpt><trkpt lat="43.4619917" lon="10.867965"><ele>137.0</ele><time>2026-04-04T10:16:06.316Z</time></trkpt><trkpt lat="43.4620633" lon="10.868035"><ele>138.83333333333331</ele><time>2026-04-04T10:16:07.317Z</time></trkpt><trkpt lat="43.4621433" lon="10.8680967"><ele>140.66666666666666</ele><time>2026-04-04T10:16:08.316Z</time></trkpt><trkpt lat="43.4622183" lon="10.868165"><ele>142.5</ele><time>2026-04-04T10:16:09.316Z</time></trkpt><trkpt lat="43.4622883" lon="10.868235"><ele>144.33333333333334</ele><time>2026-04-04T10:16:10.316Z</time></trkpt><trkpt lat="43.4623583" lon="10.8682933"><ele>146.16666666666669</ele><time>2026-04-04T10:16:11.316Z</time></trkpt><trkpt lat="43.4624217" lon="10.868355"><ele>148.0</ele><time>2026-04-04T10:16:12.316Z</time></trkpt><trkpt lat="43.46249" lon="10.8684083"><ele>146.5</ele><time>2026-04-04T10:16:13.316Z</time></trkpt><trkpt lat="43.4625633" lon="10.86845"><ele>145.0</ele><time>2026-04-04T10:16:14.316Z</time></trkpt><trkpt lat="43.462635" lon="10.868485"><ele>143.5</ele><time>2026-04-04T10:16:15.316Z</time></trkpt><trkpt lat="43.462705" lon="10.8685167"><ele>142.0</ele><time>2026-04-04T10:16:16.317Z</time></trkpt><trkpt lat="43.4627817" lon="10.86855"><ele>140.5</ele><time>2026-04-04T10:16:17.316Z</time></trkpt><trkpt lat="43.4628583" lon="10.868575"><ele>139.0</ele><time>2026-04-04T10:16:18.317Z</time></trkpt><trkpt lat="43.46293" lon="10.8685883"><ele>139.83333333333334</ele><time>2026-04-04T10:16:19.316Z</time></trkpt><trkpt lat="43.462995" lon="10.8685917"><ele>140.66666666666669</ele><time>2026-04-04T10:16:20.317Z</time></trkpt><trkpt lat="43.4631217" lon="10.8685717"><ele>141.5</ele><time>2026-04-04T10:16:22.317Z</time></trkpt><trkpt lat="43.4631817" lon="10.868545"><ele>142.33333333333334</ele><time>2026-04-04T10:16:23.316Z</time></trkpt><trkpt lat="43.4632367" lon="10.8684967"><ele>143.16666666666666</ele><time>2026-04-04T10:16:24.317Z</time></trkpt><trkpt lat="43.4632983" lon="10.8684483"><ele>144.0</ele><time>2026-04-04T10:16:25.316Z</time></trkpt><trkpt lat="43.46336" lon="10.8683917"><ele>146.33333333333334</ele><time>2026-04-04T10:16:26.317Z</time></trkpt><trkpt lat="43.4634233" lon="10.8683217"><ele>148.66666666666666</ele><time>2026-04-04T10:16:27.316Z</time></trkpt><trkpt lat="43.4634867" lon="10.8682433"><ele>151.0</ele><time>2026-04-04T10:16:28.316Z</time></trkpt><trkpt lat="43.463555" lon="10.8681783"><ele>153.33333333333331</ele><time>2026-04-04T10:16:29.317Z</time></trkpt><trkpt lat="43.4636283" lon="10.868115"><ele>155.66666666666666</ele><time>2026-04-04T10:16:30.317Z</time></trkpt><trkpt lat="43.4637017" lon="10.8680483"><ele>158.0</ele><time>2026-04-04T10:16:31.316Z</time></trkpt><trkpt lat="43.46378" lon="10.8679783"><ele>157.4</ele><time>2026-04-04T10:16:32.316Z</time></trkpt><trkpt lat="43.463845" lon="10.8679017"><ele>156.8</ele><time>2026-04-04T10:16:33.316Z</time></trkpt><trkpt lat="43.463925" lon="10.86784"><ele>156.2</ele><time>2026-04-04T10:16:34.316Z</time></trkpt><trkpt lat="43.4640133" lon="10.86778"><ele>155.6</ele><time>2026-04-04T10:16:35.317Z</time></trkpt><trkpt lat="43.4641" lon="10.8677533"><ele>155.0</ele><time>2026-04-04T10:16:36.316Z</time></trkpt><trkpt lat="43.4641933" lon="10.8677467"><ele>155.0</ele><time>2026-04-04T10:16:37.317Z</time></trkpt><trkpt lat="43.4642917" lon="10.8677483"><ele>155.0</ele><time>2026-04-04T10:16:38.316Z</time></trkpt><trkpt lat="43.4643933" lon="10.867755"><ele>155.0</ele><time>2026-04-04T10:16:39.316Z</time></trkpt><trkpt lat="43.4644967" lon="10.86776"><ele>155.0</ele><time>2026-04-04T10:16:40.316Z</time></trkpt><trkpt lat="43.4645917" lon="10.8677683"><ele>155.0</ele><time>2026-04-04T10:16:41.316Z</time></trkpt><trkpt lat="43.4646833" lon="10.8677633"><ele>155.83333333333331</ele><time>2026-04-04T10:16:42.316Z</time></trkpt><trkpt lat="43.4647717" lon="10.8677617"><ele>156.66666666666666</ele><time>2026-04-04T10:16:43.316Z</time></trkpt><trkpt lat="43.4648567" lon="10.8677517"><ele>157.5</ele><time>2026-04-04T10:16:44.317Z</time></trkpt><trkpt lat="43.464945" lon="10.8677367"><ele>158.33333333333334</ele><time>2026-04-04T10:16:45.316Z</time></trkpt><trkpt lat="43.4650317" lon="10.8677267"><ele>159.16666666666669</ele><time>2026-04-04T10:16:46.316Z</time></trkpt><trkpt lat="43.4651233" lon="10.8677217"><ele>160.0</ele><time>2026-04-04T10:16:47.316Z</time></trkpt><trkpt lat="43.4652117" lon="10.8677117"><ele>160.0</ele><time>2026-04-04T10:16:48.317Z</time></trkpt><trkpt lat="43.4653033" lon="10.867705"><ele>160.0</ele><time>2026-04-04T10:16:49.317Z</time></trkpt><trkpt lat="43.4653933" lon="10.8676817"><ele>160.0</ele><time>2026-04-04T10:16:50.316Z</time></trkpt><trkpt lat="43.46549" lon="10.8676567"><ele>160.0</ele><time>2026-04-04T10:16:51.317Z</time></trkpt><trkpt lat="43.465585" lon="10.867635"><ele>160.0</ele><time>2026-04-04T10:16:52.316Z</time></trkpt><trkpt lat="43.4656833" lon="10.86762"><ele>163.0</ele><time>2026-04-04T10:16:53.316Z</time></trkpt><trkpt lat="43.4657817" lon="10.8676017"><ele>166.0</ele><time>2026-04-04T10:16:54.316Z</time></trkpt><trkpt lat="43.465875" lon="10.867565"><ele>169.0</ele><time>2026-04-04T10:16:55.317Z</time></trkpt><trkpt lat="43.4659633" lon="10.8675383"><ele>172.0</ele><time>2026-04-04T10:16:56.316Z</time></trkpt><trkpt lat="43.4660583" lon="10.8674983"><ele>175.0</ele><time>2026-04-04T10:16:57.316Z</time></trkpt><trkpt lat="43.4661467" lon="10.8674633"><ele>175.0</ele><time>2026-04-04T10:16:58.316Z</time></trkpt><trkpt lat="43.46624" lon="10.8674283"><ele>175.0</ele><time>2026-04-04T10:16:59.316Z</time></trkpt><trkpt lat="43.4663333" lon="10.8674"><ele>175.0</ele><time>2026-04-04T10:17:00.316Z</time></trkpt><trkpt lat="43.46643" lon="10.8673667"><ele>175.0</ele><time>2026-04-04T10:17:01.316Z</time></trkpt><trkpt lat="43.4665267" lon="10.8673417"><ele>175.0</ele><time>2026-04-04T10:17:02.316Z</time></trkpt><trkpt lat="43.4666317" lon="10.86732"><ele>176.2</ele><time>2026-04-04T10:17:03.317Z</time></trkpt><trkpt lat="43.4667383" lon="10.8672967"><ele>177.4</ele><time>2026-04-04T10:17:04.316Z</time></trkpt><trkpt lat="43.4668533" lon="10.86727"><ele>178.60000000000002</ele><time>2026-04-04T10:17:05.317Z</time></trkpt><trkpt lat="43.4669633" lon="10.8672433"><ele>179.8</ele><time>2026-04-04T10:17:06.316Z</time></trkpt><trkpt lat="43.4670617" lon="10.8672167"><ele>181.0</ele><time>2026-04-04T10:17:07.316Z</time></trkpt><trkpt lat="43.4671683" lon="10.8671967"><ele>181.60000000000002</ele><time>2026-04-04T10:17:08.316Z</time></trkpt><trkpt lat="43.4672717" lon="10.8671783"><ele>182.2</ele><time>2026-04-04T10:17:09.316Z</time></trkpt><trkpt lat="43.467375" lon="10.8671583"><ele>182.8</ele><time>2026-04-04T10:17:10.316Z</time></trkpt><trkpt lat="43.46748" lon="10.86713"><ele>183.39999999999998</ele><time>2026-04-04T10:17:11.316Z</time></trkpt><trkpt lat="43.4675833" lon="10.8671033"><ele>184.0</ele><time>2026-04-04T10:17:12.316Z</time></trkpt><trkpt lat="43.46769" lon="10.8670767"><ele>184.0</ele><time>2026-04-04T10:17:13.316Z</time></trkpt><trkpt lat="43.467795" lon="10.8670567"><ele>184.0</ele><time>2026-04-04T10:17:14.316Z</time></trkpt><trkpt lat="43.4679" lon="10.8670383"><ele>184.0</ele><time>2026-04-04T10:17:15.316Z</time></trkpt><trkpt lat="43.4680067" lon="10.8670183"><ele>184.0</ele><time>2026-04-04T10:17:16.316Z</time></trkpt><trkpt lat="43.4681183" lon="10.8670017"><ele>184.0</ele><time>2026-04-04T10:17:17.316Z</time></trkpt><trkpt lat="43.4682267" lon="10.866975"><ele>183.0</ele><time>2026-04-04T10:17:18.317Z</time></trkpt><trkpt lat="43.4683417" lon="10.8669467"><ele>182.0</ele><time>2026-04-04T10:17:19.316Z</time></trkpt><trkpt lat="43.468445" lon="10.8669017"><ele>181.0</ele><time>2026-04-04T10:17:20.316Z</time></trkpt><trkpt lat="43.4685383" lon="10.8668367"><ele>180.0</ele><time>2026-04-04T10:17:21.316Z</time></trkpt><trkpt lat="43.4686317" lon="10.8667617"><ele>179.0</ele><time>2026-04-04T10:17:22.316Z</time></trkpt><trkpt lat="43.4687217" lon="10.8667"><ele>181.0</ele><time>2026-04-04T10:17:23.316Z</time></trkpt><trkpt lat="43.4688117" lon="10.8666317"><ele>183.0</ele><time>2026-04-04T10:17:24.316Z</time></trkpt><trkpt lat="43.4688917" lon="10.8665683"><ele>185.0</ele><time>2026-04-04T10:17:25.316Z</time></trkpt><trkpt lat="43.4689767" lon="10.86652"><ele>187.0</ele><time>2026-04-04T10:17:26.316Z</time></trkpt><trkpt lat="43.4690733" lon="10.866465"><ele>189.0</ele><time>2026-04-04T10:17:27.316Z</time></trkpt><trkpt lat="43.4691717" lon="10.866435"><ele>189.0</ele><time>2026-04-04T10:17:28.316Z</time></trkpt><trkpt lat="43.46927" lon="10.8664133"><ele>189.0</ele><time>2026-04-04T10:17:29.317Z</time></trkpt><trkpt lat="43.4693783" lon="10.8663967"><ele>189.0</ele><time>2026-04-04T10:17:30.316Z</time></trkpt><trkpt lat="43.4694833" lon="10.8663867"><ele>189.0</ele><time>2026-04-04T10:17:31.316Z</time></trkpt><trkpt lat="43.4695867" lon="10.8663783"><ele>189.0</ele><time>2026-04-04T10:17:32.316Z</time></trkpt><trkpt lat="43.4696833" lon="10.8663733"><ele>189.6</ele><time>2026-04-04T10:17:33.317Z</time></trkpt><trkpt lat="43.469785" lon="10.8663733"><ele>190.2</ele><time>2026-04-04T10:17:34.316Z</time></trkpt><trkpt lat="43.4698917" lon="10.8663667"><ele>190.79999999999998</ele><time>2026-04-04T10:17:35.317Z</time></trkpt><trkpt lat="43.4700067" lon="10.8663683"><ele>191.39999999999998</ele><time>2026-04-04T10:17:36.316Z</time></trkpt><trkpt lat="43.4701167" lon="10.866375"><ele>192.0</ele><time>2026-04-04T10:17:37.316Z</time></trkpt><trkpt lat="43.4702267" lon="10.86638"><ele>192.0</ele><time>2026-04-04T10:17:38.316Z</time></trkpt><trkpt lat="43.4703467" lon="10.8663917"><ele>192.0</ele><time>2026-04-04T10:17:39.316Z</time></trkpt><trkpt lat="43.4704667" lon="10.866405"><ele>192.0</ele><time>2026-04-04T10:17:40.316Z</time></trkpt><trkpt lat="43.4705767" lon="10.8664133"><ele>192.0</ele><time>2026-04-04T10:17:41.316Z</time></trkpt><trkpt lat="43.4706833" lon="10.8664333"><ele>192.2</ele><time>2026-04-04T10:17:42.316Z</time></trkpt><trkpt lat="43.470795" lon="10.8664433"><ele>192.39999999999998</ele><time>2026-04-04T10:17:43.316Z</time></trkpt><trkpt lat="43.470905" lon="10.8664617"><ele>192.60000000000002</ele><time>2026-04-04T10:17:44.317Z</time></trkpt><trkpt lat="43.4710183" lon="10.8664767"><ele>192.8</ele><time>2026-04-04T10:17:45.317Z</time></trkpt><trkpt lat="43.47113" lon="10.8664917"><ele>193.0</ele><time>2026-04-04T10:17:46.316Z</time></trkpt><trkpt lat="43.4712417" lon="10.8665033"><ele>194.2</ele><time>2026-04-04T10:17:47.316Z</time></trkpt><trkpt lat="43.471345" lon="10.8665233"><ele>195.4</ele><time>2026-04-04T10:17:48.316Z</time></trkpt><trkpt lat="43.4714533" lon="10.86655"><ele>196.6</ele><time>2026-04-04T10:17:49.317Z</time></trkpt><trkpt lat="43.4715683" lon="10.866565"><ele>197.79999999999998</ele><time>2026-04-04T10:17:50.316Z</time></trkpt><trkpt lat="43.4716833" lon="10.8665767"><ele>199.0</ele><time>2026-04-04T10:17:51.316Z</time></trkpt><trkpt lat="43.471805" lon="10.8665883"><ele>199.0</ele><time>2026-04-04T10:17:52.316Z</time></trkpt><trkpt lat="43.4719183" lon="10.866605"><ele>199.0</ele><time>2026-04-04T10:17:53.317Z</time></trkpt><trkpt lat="43.472025" lon="10.8666233"><ele>199.0</ele><time>2026-04-04T10:17:54.316Z</time></trkpt><trkpt lat="43.472135" lon="10.8666433"><ele>199.0</ele><time>2026-04-04T10:17:55.316Z</time></trkpt><trkpt lat="43.4722483" lon="10.8666617"><ele>199.0</ele><time>2026-04-04T10:17:56.316Z</time></trkpt><trkpt lat="43.4723667" lon="10.8666867"><ele>200.0</ele><time>2026-04-04T10:17:57.316Z</time></trkpt><trkpt lat="43.4724733" lon="10.866705"><ele>201.0</ele><time>2026-04-04T10:17:58.316Z</time></trkpt><trkpt lat="43.4725767" lon="10.866725"><ele>202.0</ele><time>2026-04-04T10:17:59.316Z</time></trkpt><trkpt lat="43.4726833" lon="10.8667383"><ele>203.0</ele><time>2026-04-04T10:18:00.317Z</time></trkpt><trkpt lat="43.4727817" lon="10.8667433"><ele>204.0</ele><time>2026-04-04T10:18:01.316Z</time></trkpt><trkpt lat="43.4728833" lon="10.8667483"><ele>205.2</ele><time>2026-04-04T10:18:02.317Z</time></trkpt><trkpt lat="43.4729917" lon="10.86674"><ele>206.39999999999998</ele><time>2026-04-04T10:18:03.316Z</time></trkpt><trkpt lat="43.47309" lon="10.8667133"><ele>207.6</ele><time>2026-04-04T10:18:04.317Z</time></trkpt><trkpt lat="43.4731967" lon="10.86669"><ele>208.8</ele><time>2026-04-04T10:18:05.316Z</time></trkpt><trkpt lat="43.4732833" lon="10.8666667"><ele>210.0</ele><time>2026-04-04T10:18:06.316Z</time></trkpt><trkpt lat="43.47336" lon="10.86666"><ele>210.0</ele><time>2026-04-04T10:18:07.316Z</time></trkpt><trkpt lat="43.473465" lon="10.8665967"><ele>210.0</ele><time>2026-04-04T10:18:09.316Z</time></trkpt><trkpt lat="43.4735333" lon="10.8665067"><ele>210.0</ele><time>2026-04-04T10:18:11.316Z</time></trkpt><trkpt lat="43.4735567" lon="10.8663983"><ele>210.0</ele><time>2026-04-04T10:18:13.316Z</time></trkpt><trkpt lat="43.4735833" lon="10.8663133"><ele>210.0</ele><time>2026-04-04T10:18:15.316Z</time></trkpt><trkpt lat="43.47359" lon="10.8662267"><ele>210.0</ele><time>2026-04-04T10:18:17.316Z</time></trkpt><trkpt lat="43.473515" lon="10.8660867"><ele>210.0</ele><time>2026-04-04T10:18:19.317Z</time></trkpt><trkpt lat="43.4734483" lon="10.8659983"><ele>210.0</ele><time>2026-04-04T10:18:20.317Z</time></trkpt><trkpt lat="43.4733717" lon="10.8658917"><ele>210.0</ele><time>2026-04-04T10:18:21.317Z</time></trkpt><trkpt lat="43.47329" lon="10.8657617"><ele>210.0</ele><time>2026-04-04T10:18:22.316Z</time></trkpt><trkpt lat="43.4732017" lon="10.86561"><ele>210.33333333333331</ele><time>2026-04-04T10:18:23.316Z</time></trkpt><trkpt lat="43.4731" lon="10.865445"><ele>210.66666666666666</ele><time>2026-04-04T10:18:24.317Z</time></trkpt><trkpt lat="43.4729967" lon="10.8652767"><ele>211.0</ele><time>2026-04-04T10:18:25.316Z</time></trkpt><trkpt lat="43.4729033" lon="10.86511"><ele>211.0</ele><time>2026-04-04T10:18:26.316Z</time></trkpt><trkpt lat="43.4728067" lon="10.86495"><ele>211.0</ele><time>2026-04-04T10:18:27.316Z</time></trkpt><trkpt lat="43.4727133" lon="10.8647933"><ele>211.0</ele><time>2026-04-04T10:18:28.316Z</time></trkpt><trkpt lat="43.4726283" lon="10.8646483"><ele>211.0</ele><time>2026-04-04T10:18:29.316Z</time></trkpt><trkpt lat="43.4725483" lon="10.8645083"><ele>211.0</ele><time>2026-04-04T10:18:30.317Z</time></trkpt><trkpt lat="43.47246" lon="10.864365"><ele>211.0</ele><time>2026-04-04T10:18:31.316Z</time></trkpt><trkpt lat="43.4723683" lon="10.8642133"><ele>211.0</ele><time>2026-04-04T10:18:32.316Z</time></trkpt><trkpt lat="43.4722867" lon="10.8640567"><ele>211.0</ele><time>2026-04-04T10:18:33.316Z</time></trkpt><trkpt lat="43.4722117" lon="10.86389"><ele>209.66666666666666</ele><time>2026-04-04T10:18:34.316Z</time></trkpt><trkpt lat="43.4721533" lon="10.8636867"><ele>208.33333333333331</ele><time>2026-04-04T10:18:35.317Z</time></trkpt><trkpt lat="43.47212" lon="10.8634517"><ele>207.0</ele><time>2026-04-04T10:18:36.316Z</time></trkpt><trkpt lat="43.4721117" lon="10.8632367"><ele>205.33333333333331</ele><time>2026-04-04T10:18:37.316Z</time></trkpt><trkpt lat="43.4721083" lon="10.8630083"><ele>203.66666666666666</ele><time>2026-04-04T10:18:38.316Z</time></trkpt><trkpt lat="43.4721217" lon="10.862785"><ele>202.0</ele><time>2026-04-04T10:18:39.317Z</time></trkpt><trkpt lat="43.4721333" lon="10.8625667"><ele>201.75</ele><time>2026-04-04T10:18:40.316Z</time></trkpt><trkpt lat="43.4721433" lon="10.8623667"><ele>201.5</ele><time>2026-04-04T10:18:41.316Z</time></trkpt><trkpt lat="43.4721467" lon="10.8621633"><ele>201.25</ele><time>2026-04-04T10:18:42.316Z</time></trkpt><trkpt lat="43.472145" lon="10.86196"><ele>201.0</ele><time>2026-04-04T10:18:43.316Z</time></trkpt><trkpt lat="43.4721483" lon="10.8617533"><ele>202.0</ele><time>2026-04-04T10:18:44.316Z</time></trkpt><trkpt lat="43.4721467" lon="10.8615417"><ele>203.0</ele><time>2026-04-04T10:18:45.316Z</time></trkpt><trkpt lat="43.4721367" lon="10.86134"><ele>204.0</ele><time>2026-04-04T10:18:46.317Z</time></trkpt><trkpt lat="43.4721083" lon="10.8611217"><ele>206.0</ele><time>2026-04-04T10:18:47.316Z</time></trkpt><trkpt lat="43.47208" lon="10.860915"><ele>208.0</ele><time>2026-04-04T10:18:48.316Z</time></trkpt><trkpt lat="43.4720233" lon="10.8607133"><ele>210.0</ele><time>2026-04-04T10:18:49.317Z</time></trkpt><trkpt lat="43.4719517" lon="10.8605133"><ele>210.0</ele><time>2026-04-04T10:18:50.316Z</time></trkpt><trkpt lat="43.471875" lon="10.860315"><ele>210.0</ele><time>2026-04-04T10:18:51.317Z</time></trkpt><trkpt lat="43.4718" lon="10.8601133"><ele>210.0</ele><time>2026-04-04T10:18:52.316Z</time></trkpt><trkpt lat="43.471735" lon="10.8599033"><ele>209.0</ele><time>2026-04-04T10:18:53.317Z</time></trkpt><trkpt lat="43.47166" lon="10.8596967"><ele>208.0</ele><time>2026-04-04T10:18:54.317Z</time></trkpt><trkpt lat="43.4715967" lon="10.8594733"><ele>207.0</ele><time>2026-04-04T10:18:55.316Z</time></trkpt><trkpt lat="43.4715333" lon="10.8592417"><ele>206.0</ele><time>2026-04-04T10:18:56.315Z</time></trkpt><trkpt lat="43.47149" lon="10.8590183"><ele>205.0</ele><time>2026-04-04T10:18:57.316Z</time></trkpt><trkpt lat="43.471445" lon="10.858775"><ele>204.0</ele><time>2026-04-04T10:18:58.315Z</time></trkpt><trkpt lat="43.4713917" lon="10.8585533"><ele>203.66666666666669</ele><time>2026-04-04T10:18:59.315Z</time></trkpt><trkpt lat="43.471345" lon="10.85833"><ele>203.33333333333334</ele><time>2026-04-04T10:19:00.315Z</time></trkpt><trkpt lat="43.4712983" lon="10.85811"><ele>203.0</ele><time>2026-04-04T10:19:01.315Z</time></trkpt><trkpt lat="43.4712517" lon="10.8579067"><ele>202.66666666666669</ele><time>2026-04-04T10:19:02.315Z</time></trkpt><trkpt lat="43.4712083" lon="10.8577033"><ele>202.33333333333331</ele><time>2026-04-04T10:19:03.316Z</time></trkpt><trkpt lat="43.4711683" lon="10.857495"><ele>202.0</ele><time>2026-04-04T10:19:04.315Z</time></trkpt><trkpt lat="43.4711533" lon="10.8572717"><ele>202.0</ele><time>2026-04-04T10:19:05.315Z</time></trkpt><trkpt lat="43.47115" lon="10.8570433"><ele>202.0</ele><time>2026-04-04T10:19:06.315Z</time></trkpt><trkpt lat="43.471155" lon="10.856805"><ele>202.0</ele><time>2026-04-04T10:19:07.315Z</time></trkpt><trkpt lat="43.47117" lon="10.8565567"><ele>204.0</ele><time>2026-04-04T10:19:08.315Z</time></trkpt><trkpt lat="43.4711833" lon="10.8563167"><ele>206.0</ele><time>2026-04-04T10:19:09.315Z</time></trkpt><trkpt lat="43.4712017" lon="10.8560667"><ele>208.0</ele><time>2026-04-04T10:19:10.316Z</time></trkpt><trkpt lat="43.4712167" lon="10.8558133"><ele>209.33333333333331</ele><time>2026-04-04T10:19:11.315Z</time></trkpt><trkpt lat="43.4712067" lon="10.8555833"><ele>210.66666666666669</ele><time>2026-04-04T10:19:12.316Z</time></trkpt><trkpt lat="43.47118" lon="10.8553667"><ele>212.0</ele><time>2026-04-04T10:19:13.315Z</time></trkpt><trkpt lat="43.4711417" lon="10.8551667"><ele>211.33333333333334</ele><time>2026-04-04T10:19:14.316Z</time></trkpt><trkpt lat="43.4711117" lon="10.8549467"><ele>210.66666666666669</ele><time>2026-04-04T10:19:15.315Z</time></trkpt><trkpt lat="43.4710783" lon="10.8547383"><ele>210.0</ele><time>2026-04-04T10:19:16.316Z</time></trkpt><trkpt lat="43.4710417" lon="10.8545417"><ele>210.0</ele><time>2026-04-04T10:19:17.315Z</time></trkpt><trkpt lat="43.4710083" lon="10.8543567"><ele>210.0</ele><time>2026-04-04T10:19:18.315Z</time></trkpt><trkpt lat="43.4709883" lon="10.8541467"><ele>210.0</ele><time>2026-04-04T10:19:19.316Z</time></trkpt><trkpt lat="43.470985" lon="10.8539233"><ele>207.66666666666669</ele><time>2026-04-04T10:19:20.315Z</time></trkpt><trkpt lat="43.4710067" lon="10.853705"><ele>205.33333333333334</ele><time>2026-04-04T10:19:21.315Z</time></trkpt><trkpt lat="43.4710517" lon="10.8534967"><ele>203.0</ele><time>2026-04-04T10:19:22.315Z</time></trkpt><trkpt lat="43.4710917" lon="10.8532767"><ele>201.33333333333334</ele><time>2026-04-04T10:19:23.315Z</time></trkpt><trkpt lat="43.4711333" lon="10.8530533"><ele>199.66666666666669</ele><time>2026-04-04T10:19:24.315Z</time></trkpt><trkpt lat="43.4711833" lon="10.852825"><ele>198.0</ele><time>2026-04-04T10:19:25.315Z</time></trkpt><trkpt lat="43.4712317" lon="10.8525983"><ele>197.0</ele><time>2026-04-04T10:19:26.315Z</time></trkpt><trkpt lat="43.4712683" lon="10.852405"><ele>196.0</ele><time>2026-04-04T10:19:27.315Z</time></trkpt><trkpt lat="43.4713" lon="10.8522017"><ele>195.0</ele><time>2026-04-04T10:19:28.315Z</time></trkpt><trkpt lat="43.4713167" lon="10.8519833"><ele>196.0</ele><time>2026-04-04T10:19:29.315Z</time></trkpt><trkpt lat="43.4713017" lon="10.8517617"><ele>197.0</ele><time>2026-04-04T10:19:30.315Z</time></trkpt><trkpt lat="43.47127" lon="10.8515067"><ele>198.0</ele><time>2026-04-04T10:19:31.315Z</time></trkpt><trkpt lat="43.4712283" lon="10.8512533"><ele>195.33333333333334</ele><time>2026-04-04T10:19:32.316Z</time></trkpt><trkpt lat="43.4711683" lon="10.8510117"><ele>192.66666666666669</ele><time>2026-04-04T10:19:33.316Z</time></trkpt><trkpt lat="43.4711117" lon="10.8507817"><ele>190.0</ele><time>2026-04-04T10:19:34.315Z</time></trkpt><trkpt lat="43.471055" lon="10.8505467"><ele>190.0</ele><time>2026-04-04T10:19:35.316Z</time></trkpt><trkpt lat="43.4710167" lon="10.8503183"><ele>190.0</ele><time>2026-04-04T10:19:36.315Z</time></trkpt><trkpt lat="43.4709633" lon="10.85009"><ele>190.0</ele><time>2026-04-04T10:19:37.316Z</time></trkpt><trkpt lat="43.470905" lon="10.849875"><ele>191.66666666666669</ele><time>2026-04-04T10:19:38.315Z</time></trkpt><trkpt lat="43.4708533" lon="10.849645"><ele>193.33333333333334</ele><time>2026-04-04T10:19:39.315Z</time></trkpt><trkpt lat="43.470795" lon="10.849405"><ele>195.0</ele><time>2026-04-04T10:19:40.315Z</time></trkpt><trkpt lat="43.4707317" lon="10.84918"><ele>197.33333333333331</ele><time>2026-04-04T10:19:41.315Z</time></trkpt><trkpt lat="43.4706733" lon="10.848955"><ele>199.66666666666666</ele><time>2026-04-04T10:19:42.315Z</time></trkpt><trkpt lat="43.4706167" lon="10.848735"><ele>202.0</ele><time>2026-04-04T10:19:43.315Z</time></trkpt><trkpt lat="43.4705567" lon="10.84853"><ele>203.0</ele><time>2026-04-04T10:19:44.315Z</time></trkpt><trkpt lat="43.4704933" lon="10.8483317"><ele>204.0</ele><time>2026-04-04T10:19:45.315Z</time></trkpt><trkpt lat="43.4704333" lon="10.848135"><ele>205.0</ele><time>2026-04-04T10:19:46.315Z</time></trkpt><trkpt lat="43.4703667" lon="10.8479417"><ele>200.0</ele><time>2026-04-04T10:19:47.315Z</time></trkpt><trkpt lat="43.4703" lon="10.8477317"><ele>195.0</ele><time>2026-04-04T10:19:48.315Z</time></trkpt><trkpt lat="43.4702317" lon="10.8475333"><ele>190.0</ele><time>2026-04-04T10:19:49.315Z</time></trkpt><trkpt lat="43.4701567" lon="10.84734"><ele>190.0</ele><time>2026-04-04T10:19:50.315Z</time></trkpt><trkpt lat="43.4700767" lon="10.8471533"><ele>190.0</ele><time>2026-04-04T10:19:51.315Z</time></trkpt><trkpt lat="43.4699817" lon="10.846965"><ele>190.0</ele><time>2026-04-04T10:19:52.316Z</time></trkpt><trkpt lat="43.46989" lon="10.846775"><ele>192.66666666666669</ele><time>2026-04-04T10:19:53.315Z</time></trkpt><trkpt lat="43.4697867" lon="10.846595"><ele>195.33333333333334</ele><time>2026-04-04T10:19:54.316Z</time></trkpt><trkpt lat="43.46969" lon="10.84642"><ele>198.0</ele><time>2026-04-04T10:19:55.315Z</time></trkpt><trkpt lat="43.4696017" lon="10.846235"><ele>192.66666666666666</ele><time>2026-04-04T10:19:56.315Z</time></trkpt><trkpt lat="43.4695267" lon="10.8460383"><ele>187.33333333333331</ele><time>2026-04-04T10:19:57.316Z</time></trkpt><trkpt lat="43.469475" lon="10.84583"><ele>182.0</ele><time>2026-04-04T10:19:58.315Z</time></trkpt><trkpt lat="43.4694583" lon="10.8456083"><ele>182.0</ele><time>2026-04-04T10:19:59.315Z</time></trkpt><trkpt lat="43.469455" lon="10.8454233"><ele>182.0</ele><time>2026-04-04T10:20:00.315Z</time></trkpt><trkpt lat="43.46948" lon="10.8452"><ele>182.0</ele><time>2026-04-04T10:20:01.315Z</time></trkpt><trkpt lat="43.469515" lon="10.844965"><ele>183.0</ele><time>2026-04-04T10:20:02.316Z</time></trkpt><trkpt lat="43.4695383" lon="10.8447533"><ele>184.0</ele><time>2026-04-04T10:20:03.315Z</time></trkpt><trkpt lat="43.4695633" lon="10.844545"><ele>185.0</ele><time>2026-04-04T10:20:04.315Z</time></trkpt><trkpt lat="43.46956" lon="10.84432"><ele>184.0</ele><time>2026-04-04T10:20:05.315Z</time></trkpt><trkpt lat="43.46956" lon="10.8440817"><ele>183.0</ele><time>2026-04-04T10:20:06.316Z</time></trkpt><trkpt lat="43.4695483" lon="10.8438467"><ele>182.0</ele><time>2026-04-04T10:20:07.315Z</time></trkpt><trkpt lat="43.4695233" lon="10.843615"><ele>185.0</ele><time>2026-04-04T10:20:08.315Z</time></trkpt><trkpt lat="43.46948" lon="10.8433883"><ele>188.0</ele><time>2026-04-04T10:20:09.315Z</time></trkpt><trkpt lat="43.4694267" lon="10.84317"><ele>191.0</ele><time>2026-04-04T10:20:10.315Z</time></trkpt><trkpt lat="43.4693733" lon="10.8429633"><ele>191.0</ele><time>2026-04-04T10:20:11.315Z</time></trkpt><trkpt lat="43.4693233" lon="10.8427617"><ele>191.0</ele><time>2026-04-04T10:20:12.316Z</time></trkpt><trkpt lat="43.4692683" lon="10.8425767"><ele>191.0</ele><time>2026-04-04T10:20:13.315Z</time></trkpt><trkpt lat="43.4692133" lon="10.8424067"><ele>191.0</ele><time>2026-04-04T10:20:14.315Z</time></trkpt><trkpt lat="43.4691767" lon="10.842225"><ele>191.25</ele><time>2026-04-04T10:20:15.316Z</time></trkpt><trkpt lat="43.4691483" lon="10.8420483"><ele>191.5</ele><time>2026-04-04T10:20:16.315Z</time></trkpt><trkpt lat="43.4691367" lon="10.841865"><ele>191.75</ele><time>2026-04-04T10:20:17.315Z</time></trkpt><trkpt lat="43.4691517" lon="10.8416733"><ele>192.0</ele><time>2026-04-04T10:20:18.316Z</time></trkpt><trkpt lat="43.4692333" lon="10.8414983"><ele>192.25</ele><time>2026-04-04T10:20:19.316Z</time></trkpt><trkpt lat="43.4693233" lon="10.8413117"><ele>192.5</ele><time>2026-04-04T10:20:20.315Z</time></trkpt><trkpt lat="43.4693867" lon="10.8411317"><ele>192.75</ele><time>2026-04-04T10:20:21.315Z</time></trkpt><trkpt lat="43.4694183" lon="10.8409483"><ele>193.0</ele><time>2026-04-04T10:20:22.315Z</time></trkpt><trkpt lat="43.4694167" lon="10.8407633"><ele>194.66666666666666</ele><time>2026-04-04T10:20:23.315Z</time></trkpt><trkpt lat="43.4693767" lon="10.8405667"><ele>196.33333333333331</ele><time>2026-04-04T10:20:24.316Z</time></trkpt><trkpt lat="43.46933" lon="10.8403517"><ele>198.0</ele><time>2026-04-04T10:20:25.315Z</time></trkpt><trkpt lat="43.469255" lon="10.840145"><ele>195.66666666666666</ele><time>2026-04-04T10:20:26.316Z</time></trkpt><trkpt lat="43.4691767" lon="10.8399467"><ele>193.33333333333331</ele><time>2026-04-04T10:20:27.315Z</time></trkpt><trkpt lat="43.4691067" lon="10.83973"><ele>191.0</ele><time>2026-04-04T10:20:28.315Z</time></trkpt><trkpt lat="43.4690333" lon="10.8395117"><ele>186.66666666666666</ele><time>2026-04-04T10:20:29.315Z</time></trkpt><trkpt lat="43.468965" lon="10.839295"><ele>182.33333333333334</ele><time>2026-04-04T10:20:30.315Z</time></trkpt><trkpt lat="43.4689" lon="10.839085"><ele>178.0</ele><time>2026-04-04T10:20:31.315Z</time></trkpt><trkpt lat="43.4688433" lon="10.8388767"><ele>178.0</ele><time>2026-04-04T10:20:32.315Z</time></trkpt><trkpt lat="43.4687867" lon="10.8386767"><ele>178.0</ele><time>2026-04-04T10:20:33.315Z</time></trkpt><trkpt lat="43.468725" lon="10.8384767"><ele>178.0</ele><time>2026-04-04T10:20:34.316Z</time></trkpt><trkpt lat="43.468665" lon="10.8382983"><ele>178.5</ele><time>2026-04-04T10:20:35.315Z</time></trkpt><trkpt lat="43.4685967" lon="10.8381167"><ele>179.0</ele><time>2026-04-04T10:20:36.315Z</time></trkpt><trkpt lat="43.468525" lon="10.83795"><ele>179.5</ele><time>2026-04-04T10:20:37.315Z</time></trkpt><trkpt lat="43.4684433" lon="10.8377817"><ele>180.0</ele><time>2026-04-04T10:20:38.315Z</time></trkpt><trkpt lat="43.468345" lon="10.8376267"><ele>180.0</ele><time>2026-04-04T10:20:39.315Z</time></trkpt><trkpt lat="43.4682383" lon="10.837475"><ele>180.0</ele><time>2026-04-04T10:20:40.315Z</time></trkpt><trkpt lat="43.4681217" lon="10.8373317"><ele>180.0</ele><time>2026-04-04T10:20:41.315Z</time></trkpt><trkpt lat="43.467995" lon="10.8371967"><ele>182.66666666666666</ele><time>2026-04-04T10:20:42.315Z</time></trkpt><trkpt lat="43.4678583" lon="10.83707"><ele>185.33333333333331</ele><time>2026-04-04T10:20:43.315Z</time></trkpt><trkpt lat="43.4677083" lon="10.836975"><ele>188.0</ele><time>2026-04-04T10:20:44.315Z</time></trkpt><trkpt lat="43.4675517" lon="10.8368867"><ele>184.66666666666666</ele><time>2026-04-04T10:20:45.316Z</time></trkpt><trkpt lat="43.467405" lon="10.8367767"><ele>181.33333333333334</ele><time>2026-04-04T10:20:46.315Z</time></trkpt><trkpt lat="43.467255" lon="10.8367117"><ele>178.0</ele><time>2026-04-04T10:20:47.316Z</time></trkpt><trkpt lat="43.4670767" lon="10.83666"><ele>178.0</ele><time>2026-04-04T10:20:48.315Z</time></trkpt><trkpt lat="43.466905" lon="10.836615"><ele>178.0</ele><time>2026-04-04T10:20:49.315Z</time></trkpt><trkpt lat="43.46676" lon="10.8365283"><ele>178.0</ele><time>2026-04-04T10:20:50.315Z</time></trkpt><trkpt lat="43.466605" lon="10.83642"><ele>178.0</ele><time>2026-04-04T10:20:51.316Z</time></trkpt><trkpt lat="43.466465" lon="10.8362767"><ele>178.0</ele><time>2026-04-04T10:20:52.315Z</time></trkpt><trkpt lat="43.4663383" lon="10.836115"><ele>178.0</ele><time>2026-04-04T10:20:53.315Z</time></trkpt><trkpt lat="43.466205" lon="10.8359517"><ele>177.0</ele><time>2026-04-04T10:20:54.315Z</time></trkpt><trkpt lat="43.4660817" lon="10.8357833"><ele>176.0</ele><time>2026-04-04T10:20:55.315Z</time></trkpt><trkpt lat="43.4659733" lon="10.8355733"><ele>175.0</ele><time>2026-04-04T10:20:56.315Z</time></trkpt><trkpt lat="43.4658833" lon="10.8353833"><ele>175.0</ele><time>2026-04-04T10:20:57.315Z</time></trkpt><trkpt lat="43.4657917" lon="10.8351817"><ele>175.0</ele><time>2026-04-04T10:20:58.315Z</time></trkpt><trkpt lat="43.4657" lon="10.834995"><ele>175.0</ele><time>2026-04-04T10:20:59.315Z</time></trkpt><trkpt lat="43.465605" lon="10.8348067"><ele>172.33333333333334</ele><time>2026-04-04T10:21:00.315Z</time></trkpt><trkpt lat="43.465515" lon="10.8346133"><ele>169.66666666666666</ele><time>2026-04-04T10:21:01.316Z</time></trkpt><trkpt lat="43.4654233" lon="10.8344267"><ele>167.0</ele><time>2026-04-04T10:21:02.316Z</time></trkpt><trkpt lat="43.4653333" lon="10.83424"><ele>165.66666666666666</ele><time>2026-04-04T10:21:03.316Z</time></trkpt><trkpt lat="43.4652383" lon="10.8340517"><ele>164.33333333333334</ele><time>2026-04-04T10:21:04.315Z</time></trkpt><trkpt lat="43.4651433" lon="10.833855"><ele>163.0</ele><time>2026-04-04T10:21:05.316Z</time></trkpt><trkpt lat="43.4650417" lon="10.8336567"><ele>162.0</ele><time>2026-04-04T10:21:06.315Z</time></trkpt><trkpt lat="43.464955" lon="10.83346"><ele>161.0</ele><time>2026-04-04T10:21:07.315Z</time></trkpt><trkpt lat="43.46486" lon="10.8332783"><ele>160.0</ele><time>2026-04-04T10:21:08.315Z</time></trkpt><trkpt lat="43.46476" lon="10.8331033"><ele>160.0</ele><time>2026-04-04T10:21:09.316Z</time></trkpt><trkpt lat="43.4646533" lon="10.8329333"><ele>160.0</ele><time>2026-04-04T10:21:10.315Z</time></trkpt><trkpt lat="43.4645267" lon="10.8327833"><ele>160.0</ele><time>2026-04-04T10:21:11.315Z</time></trkpt><trkpt lat="43.4643983" lon="10.8326517"><ele>159.0</ele><time>2026-04-04T10:21:12.316Z</time></trkpt><trkpt lat="43.4642667" lon="10.832545"><ele>158.0</ele><time>2026-04-04T10:21:13.315Z</time></trkpt><trkpt lat="43.464115" lon="10.8324533"><ele>157.0</ele><time>2026-04-04T10:21:14.316Z</time></trkpt><trkpt lat="43.463955" lon="10.8323767"><ele>157.0</ele><time>2026-04-04T10:21:15.315Z</time></trkpt><trkpt lat="43.4637967" lon="10.832305"><ele>157.0</ele><time>2026-04-04T10:21:16.315Z</time></trkpt><trkpt lat="43.463645" lon="10.8322567"><ele>157.0</ele><time>2026-04-04T10:21:17.315Z</time></trkpt><trkpt lat="43.4634767" lon="10.832225"><ele>154.0</ele><time>2026-04-04T10:21:18.315Z</time></trkpt><trkpt lat="43.4633267" lon="10.832165"><ele>151.0</ele><time>2026-04-04T10:21:19.316Z</time></trkpt><trkpt lat="43.4631667" lon="10.8321483"><ele>148.0</ele><time>2026-04-04T10:21:20.315Z</time></trkpt><trkpt lat="43.463" lon="10.8321317"><ele>143.33333333333334</ele><time>2026-04-04T10:21:21.315Z</time></trkpt><trkpt lat="43.46283" lon="10.8320883"><ele>138.66666666666666</ele><time>2026-04-04T10:21:22.316Z</time></trkpt><trkpt lat="43.4626633" lon="10.8320417"><ele>134.0</ele><time>2026-04-04T10:21:23.315Z</time></trkpt><trkpt lat="43.4624867" lon="10.8319817"><ele>134.0</ele><time>2026-04-04T10:21:24.315Z</time></trkpt><trkpt lat="43.4623383" lon="10.8319117"><ele>134.0</ele><time>2026-04-04T10:21:25.315Z</time></trkpt><trkpt lat="43.46219" lon="10.831845"><ele>134.0</ele><time>2026-04-04T10:21:26.315Z</time></trkpt><trkpt lat="43.462035" lon="10.8317783"><ele>133.33333333333331</ele><time>2026-04-04T10:21:27.316Z</time></trkpt><trkpt lat="43.4618783" lon="10.8317167"><ele>132.66666666666666</ele><time>2026-04-04T10:21:28.315Z</time></trkpt><trkpt lat="43.461725" lon="10.831635"><ele>132.0</ele><time>2026-04-04T10:21:29.315Z</time></trkpt><trkpt lat="43.4615633" lon="10.8315767"><ele>132.0</ele><time>2026-04-04T10:21:30.315Z</time></trkpt><trkpt lat="43.4614083" lon="10.83152"><ele>132.0</ele><time>2026-04-04T10:21:31.316Z</time></trkpt><trkpt lat="43.4612517" lon="10.8314633"><ele>132.0</ele><time>2026-04-04T10:21:32.315Z</time></trkpt><trkpt lat="43.46111" lon="10.831405"><ele>132.0</ele><time>2026-04-04T10:21:33.315Z</time></trkpt><trkpt lat="43.460975" lon="10.83135"><ele>132.0</ele><time>2026-04-04T10:21:34.315Z</time></trkpt><trkpt lat="43.4608483" lon="10.8313017"><ele>132.0</ele><time>2026-04-04T10:21:35.315Z</time></trkpt><trkpt lat="43.460735" lon="10.83125"><ele>132.0</ele><time>2026-04-04T10:21:36.315Z</time></trkpt><trkpt lat="43.4606383" lon="10.8312033"><ele>132.0</ele><time>2026-04-04T10:21:37.315Z</time></trkpt><trkpt lat="43.4605617" lon="10.8311683"><ele>132.0</ele><time>2026-04-04T10:21:38.315Z</time></trkpt><trkpt lat="43.46051" lon="10.8311117"><ele>132.0</ele><time>2026-04-04T10:21:39.315Z</time></trkpt><trkpt lat="43.4604983" lon="10.8309633"><ele>132.0</ele><time>2026-04-04T10:21:41.315Z</time></trkpt><trkpt lat="43.460535" lon="10.8308667"><ele>132.0</ele><time>2026-04-04T10:21:42.316Z</time></trkpt><trkpt lat="43.4605917" lon="10.830755"><ele>132.0</ele><time>2026-04-04T10:21:43.315Z</time></trkpt><trkpt lat="43.460645" lon="10.8306183"><ele>130.25</ele><time>2026-04-04T10:21:44.316Z</time></trkpt><trkpt lat="43.4606817" lon="10.8304517"><ele>128.5</ele><time>2026-04-04T10:21:45.315Z</time></trkpt><trkpt lat="43.460705" lon="10.8302733"><ele>126.75</ele><time>2026-04-04T10:21:46.316Z</time></trkpt><trkpt lat="43.46074" lon="10.83009"><ele>125.0</ele><time>2026-04-04T10:21:47.315Z</time></trkpt><trkpt lat="43.4607917" lon="10.8299133"><ele>124.75</ele><time>2026-04-04T10:21:48.315Z</time></trkpt><trkpt lat="43.4608817" lon="10.829735"><ele>124.5</ele><time>2026-04-04T10:21:49.315Z</time></trkpt><trkpt lat="43.4609833" lon="10.8295883"><ele>124.25</ele><time>2026-04-04T10:21:50.315Z</time></trkpt><trkpt lat="43.4611" lon="10.8294733"><ele>124.0</ele><time>2026-04-04T10:21:51.316Z</time></trkpt><trkpt lat="43.461235" lon="10.8293667"><ele>128.0</ele><time>2026-04-04T10:21:52.316Z</time></trkpt><trkpt lat="43.461385" lon="10.8292933"><ele>132.0</ele><time>2026-04-04T10:21:53.316Z</time></trkpt><trkpt lat="43.461545" lon="10.82922"><ele>136.0</ele><time>2026-04-04T10:21:54.316Z</time></trkpt><trkpt lat="43.4617117" lon="10.8291433"><ele>136.0</ele><time>2026-04-04T10:21:55.315Z</time></trkpt><trkpt lat="43.4618683" lon="10.8290767"><ele>136.0</ele><time>2026-04-04T10:21:56.316Z</time></trkpt><trkpt lat="43.4620283" lon="10.8290067"><ele>136.0</ele><time>2026-04-04T10:21:57.316Z</time></trkpt><trkpt lat="43.46219" lon="10.8289333"><ele>139.0</ele><time>2026-04-04T10:21:58.315Z</time></trkpt><trkpt lat="43.4623467" lon="10.8288917"><ele>142.0</ele><time>2026-04-04T10:21:59.316Z</time></trkpt><trkpt lat="43.4625033" lon="10.82884"><ele>145.0</ele><time>2026-04-04T10:22:00.315Z</time></trkpt><trkpt lat="43.46266" lon="10.8287817"><ele>145.0</ele><time>2026-04-04T10:22:01.315Z</time></trkpt><trkpt lat="43.4628133" lon="10.8287367"><ele>145.0</ele><time>2026-04-04T10:22:02.315Z</time></trkpt><trkpt lat="43.462975" lon="10.8287"><ele>145.0</ele><time>2026-04-04T10:22:03.315Z</time></trkpt><trkpt lat="43.463125" lon="10.8286633"><ele>144.5</ele><time>2026-04-04T10:22:04.315Z</time></trkpt><trkpt lat="43.4632783" lon="10.8286"><ele>144.0</ele><time>2026-04-04T10:22:05.316Z</time></trkpt><trkpt lat="43.4634033" lon="10.8285217"><ele>143.5</ele><time>2026-04-04T10:22:06.315Z</time></trkpt><trkpt lat="43.46353" lon="10.828435"><ele>143.0</ele><time>2026-04-04T10:22:07.315Z</time></trkpt><trkpt lat="43.4636367" lon="10.8283467"><ele>141.0</ele><time>2026-04-04T10:22:08.315Z</time></trkpt><trkpt lat="43.4637367" lon="10.828265"><ele>139.0</ele><time>2026-04-04T10:22:09.315Z</time></trkpt><trkpt lat="43.4638317" lon="10.8282167"><ele>137.0</ele><time>2026-04-04T10:22:10.315Z</time></trkpt><trkpt lat="43.4639217" lon="10.8282017"><ele>135.0</ele><time>2026-04-04T10:22:11.315Z</time></trkpt><trkpt lat="43.464035" lon="10.8282517"><ele>133.0</ele><time>2026-04-04T10:22:12.315Z</time></trkpt><trkpt lat="43.464135" lon="10.8283583"><ele>132.75</ele><time>2026-04-04T10:22:13.315Z</time></trkpt><trkpt lat="43.4642467" lon="10.8284967"><ele>132.5</ele><time>2026-04-04T10:22:14.315Z</time></trkpt><trkpt lat="43.4643483" lon="10.828625"><ele>132.25</ele><time>2026-04-04T10:22:15.315Z</time></trkpt><trkpt lat="43.4644383" lon="10.8287467"><ele>132.0</ele><time>2026-04-04T10:22:16.315Z</time></trkpt><trkpt lat="43.4645233" lon="10.8288733"><ele>132.0</ele><time>2026-04-04T10:22:17.315Z</time></trkpt><trkpt lat="43.4646017" lon="10.8289983"><ele>132.0</ele><time>2026-04-04T10:22:18.315Z</time></trkpt><trkpt lat="43.4646833" lon="10.8291033"><ele>132.0</ele><time>2026-04-04T10:22:19.315Z</time></trkpt><trkpt lat="43.4647767" lon="10.8291783"><ele>132.0</ele><time>2026-04-04T10:22:20.315Z</time></trkpt><trkpt lat="43.4648667" lon="10.829205"><ele>132.0</ele><time>2026-04-04T10:22:21.316Z</time></trkpt><trkpt lat="43.4649767" lon="10.82919"><ele>131.0</ele><time>2026-04-04T10:22:22.315Z</time></trkpt><trkpt lat="43.4650683" lon="10.8291183"><ele>130.0</ele><time>2026-04-04T10:22:23.315Z</time></trkpt><trkpt lat="43.4651417" lon="10.8289983"><ele>129.0</ele><time>2026-04-04T10:22:24.315Z</time></trkpt><trkpt lat="43.465195" lon="10.8288317"><ele>128.0</ele><time>2026-04-04T10:22:25.315Z</time></trkpt><trkpt lat="43.4652333" lon="10.828625"><ele>125.66666666666666</ele><time>2026-04-04T10:22:26.316Z</time></trkpt><trkpt lat="43.4652517" lon="10.8284017"><ele>123.33333333333334</ele><time>2026-04-04T10:22:27.316Z</time></trkpt><trkpt lat="43.46529" lon="10.8281833"><ele>121.0</ele><time>2026-04-04T10:22:28.315Z</time></trkpt><trkpt lat="43.4653317" lon="10.82799"><ele>121.0</ele><time>2026-04-04T10:22:29.315Z</time></trkpt><trkpt lat="43.4653733" lon="10.82781"><ele>121.0</ele><time>2026-04-04T10:22:30.316Z</time></trkpt><trkpt lat="43.4654233" lon="10.8276433"><ele>121.0</ele><time>2026-04-04T10:22:31.315Z</time></trkpt><trkpt lat="43.4654817" lon="10.8275133"><ele>121.0</ele><time>2026-04-04T10:22:32.316Z</time></trkpt><trkpt lat="43.465565" lon="10.8274117"><ele>121.0</ele><time>2026-04-04T10:22:33.316Z</time></trkpt><trkpt lat="43.4656717" lon="10.827365"><ele>121.0</ele><time>2026-04-04T10:22:34.315Z</time></trkpt><trkpt lat="43.4657917" lon="10.827375"><ele>121.0</ele><time>2026-04-04T10:22:35.315Z</time></trkpt><trkpt lat="43.4659167" lon="10.8274133"><ele>121.0</ele><time>2026-04-04T10:22:36.316Z</time></trkpt><trkpt lat="43.466055" lon="10.827455"><ele>121.0</ele><time>2026-04-04T10:22:37.315Z</time></trkpt><trkpt lat="43.4661867" lon="10.8274967"><ele>121.0</ele><time>2026-04-04T10:22:38.315Z</time></trkpt><trkpt lat="43.466325" lon="10.82753"><ele>121.0</ele><time>2026-04-04T10:22:39.315Z</time></trkpt><trkpt lat="43.4664567" lon="10.827575"><ele>121.0</ele><time>2026-04-04T10:22:40.315Z</time></trkpt><trkpt lat="43.466585" lon="10.8276533"><ele>122.5</ele><time>2026-04-04T10:22:41.315Z</time></trkpt><trkpt lat="43.466715" lon="10.8277667"><ele>124.0</ele><time>2026-04-04T10:22:42.315Z</time></trkpt><trkpt lat="43.46683" lon="10.827895"><ele>125.5</ele><time>2026-04-04T10:22:43.315Z</time></trkpt><trkpt lat="43.4669383" lon="10.8280167"><ele>127.0</ele><time>2026-04-04T10:22:44.315Z</time></trkpt><trkpt lat="43.467035" lon="10.82813"><ele>124.25</ele><time>2026-04-04T10:22:45.314Z</time></trkpt><trkpt lat="43.4671433" lon="10.8281933"><ele>121.5</ele><time>2026-04-04T10:22:46.314Z</time></trkpt><trkpt lat="43.4672817" lon="10.8282067"><ele>118.75</ele><time>2026-04-04T10:22:47.315Z</time></trkpt><trkpt lat="43.4674033" lon="10.8281717"><ele>116.0</ele><time>2026-04-04T10:22:48.314Z</time></trkpt><trkpt lat="43.4675367" lon="10.8281067"><ele>116.0</ele><time>2026-04-04T10:22:49.314Z</time></trkpt><trkpt lat="43.4676967" lon="10.8281167"><ele>116.0</ele><time>2026-04-04T10:22:50.314Z</time></trkpt><trkpt lat="43.4678667" lon="10.8281217"><ele>116.0</ele><time>2026-04-04T10:22:51.315Z</time></trkpt><trkpt lat="43.4680433" lon="10.828115"><ele>115.33333333333333</ele><time>2026-04-04T10:22:52.314Z</time></trkpt><trkpt lat="43.4682117" lon="10.8281033"><ele>114.66666666666666</ele><time>2026-04-04T10:22:53.314Z</time></trkpt><trkpt lat="43.4683633" lon="10.8280733"><ele>114.0</ele><time>2026-04-04T10:22:54.315Z</time></trkpt><trkpt lat="43.4685033" lon="10.8280483"><ele>114.0</ele><time>2026-04-04T10:22:55.314Z</time></trkpt><trkpt lat="43.468645" lon="10.828035"><ele>114.0</ele><time>2026-04-04T10:22:56.314Z</time></trkpt><trkpt lat="43.468795" lon="10.8280567"><ele>114.0</ele><time>2026-04-04T10:22:57.315Z</time></trkpt><trkpt lat="43.4689433" lon="10.8281217"><ele>114.0</ele><time>2026-04-04T10:22:58.314Z</time></trkpt><trkpt lat="43.4690833" lon="10.82824"><ele>116.0</ele><time>2026-04-04T10:22:59.314Z</time></trkpt><trkpt lat="43.469225" lon="10.8283783"><ele>118.0</ele><time>2026-04-04T10:23:00.314Z</time></trkpt><trkpt lat="43.469375" lon="10.82852"><ele>120.0</ele><time>2026-04-04T10:23:01.314Z</time></trkpt><trkpt lat="43.4695083" lon="10.8286533"><ele>121.66666666666666</ele><time>2026-04-04T10:23:02.315Z</time></trkpt><trkpt lat="43.4696317" lon="10.8287967"><ele>123.33333333333333</ele><time>2026-04-04T10:23:03.314Z</time></trkpt><trkpt lat="43.4697467" lon="10.8289367"><ele>125.0</ele><time>2026-04-04T10:23:04.314Z</time></trkpt><trkpt lat="43.4698517" lon="10.82909"><ele>125.0</ele><time>2026-04-04T10:23:05.314Z</time></trkpt><trkpt lat="43.4699317" lon="10.82928"><ele>125.0</ele><time>2026-04-04T10:23:06.314Z</time></trkpt><trkpt lat="43.4699767" lon="10.8294967"><ele>125.0</ele><time>2026-04-04T10:23:07.314Z</time></trkpt><trkpt lat="43.4700067" lon="10.8297333"><ele>124.33333333333333</ele><time>2026-04-04T10:23:08.315Z</time></trkpt><trkpt lat="43.4700433" lon="10.8299783"><ele>123.66666666666666</ele><time>2026-04-04T10:23:09.314Z</time></trkpt><trkpt lat="43.4700817" lon="10.8302083"><ele>123.0</ele><time>2026-04-04T10:23:10.314Z</time></trkpt><trkpt lat="43.4701333" lon="10.8304183"><ele>123.25</ele><time>2026-04-04T10:23:11.314Z</time></trkpt><trkpt lat="43.4701983" lon="10.8306033"><ele>123.5</ele><time>2026-04-04T10:23:12.315Z</time></trkpt><trkpt lat="43.4702683" lon="10.830755"><ele>123.75</ele><time>2026-04-04T10:23:13.315Z</time></trkpt><trkpt lat="43.4703567" lon="10.8309033"><ele>124.0</ele><time>2026-04-04T10:23:14.314Z</time></trkpt><trkpt lat="43.47047" lon="10.8310383"><ele>124.0</ele><time>2026-04-04T10:23:15.314Z</time></trkpt><trkpt lat="43.47062" lon="10.83114"><ele>124.0</ele><time>2026-04-04T10:23:16.314Z</time></trkpt><trkpt lat="43.470775" lon="10.8312533"><ele>124.0</ele><time>2026-04-04T10:23:17.315Z</time></trkpt><trkpt lat="43.4709417" lon="10.8313633"><ele>124.0</ele><time>2026-04-04T10:23:18.315Z</time></trkpt><trkpt lat="43.4711217" lon="10.8314833"><ele>124.0</ele><time>2026-04-04T10:23:19.314Z</time></trkpt><trkpt lat="43.4712933" lon="10.8316"><ele>124.0</ele><time>2026-04-04T10:23:20.314Z</time></trkpt><trkpt lat="43.4714583" lon="10.8317217"><ele>124.33333333333334</ele><time>2026-04-04T10:23:21.314Z</time></trkpt><trkpt lat="43.4716233" lon="10.831825"><ele>124.66666666666666</ele><time>2026-04-04T10:23:22.315Z</time></trkpt><trkpt lat="43.471785" lon="10.8319217"><ele>125.0</ele><time>2026-04-04T10:23:23.314Z</time></trkpt><trkpt lat="43.4719483" lon="10.8320333"><ele>126.33333333333333</ele><time>2026-04-04T10:23:24.315Z</time></trkpt><trkpt lat="43.4721133" lon="10.8321267"><ele>127.66666666666666</ele><time>2026-04-04T10:23:25.314Z</time></trkpt><trkpt lat="43.47227" lon="10.8322067"><ele>129.0</ele><time>2026-04-04T10:23:26.314Z</time></trkpt><trkpt lat="43.472425" lon="10.832265"><ele>129.0</ele><time>2026-04-04T10:23:27.314Z</time></trkpt><trkpt lat="43.47257" lon="10.8323067"><ele>129.0</ele><time>2026-04-04T10:23:28.314Z</time></trkpt><trkpt lat="43.4727167" lon="10.8323233"><ele>129.0</ele><time>2026-04-04T10:23:29.314Z</time></trkpt><trkpt lat="43.47287" lon="10.8323383"><ele>129.0</ele><time>2026-04-04T10:23:30.314Z</time></trkpt><trkpt lat="43.4730233" lon="10.8323283"><ele>130.66666666666666</ele><time>2026-04-04T10:23:31.314Z</time></trkpt><trkpt lat="43.4731633" lon="10.8322917"><ele>132.33333333333331</ele><time>2026-04-04T10:23:32.314Z</time></trkpt><trkpt lat="43.47332" lon="10.8322033"><ele>134.0</ele><time>2026-04-04T10:23:33.314Z</time></trkpt><trkpt lat="43.4734617" lon="10.8320883"><ele>134.0</ele><time>2026-04-04T10:23:34.314Z</time></trkpt><trkpt lat="43.473595" lon="10.8319567"><ele>134.0</ele><time>2026-04-04T10:23:35.314Z</time></trkpt><trkpt lat="43.4737333" lon="10.8318283"><ele>134.0</ele><time>2026-04-04T10:23:36.314Z</time></trkpt><trkpt lat="43.4738717" lon="10.8317067"><ele>138.0</ele><time>2026-04-04T10:23:37.314Z</time></trkpt><trkpt lat="43.4740083" lon="10.8315817"><ele>142.0</ele><time>2026-04-04T10:23:38.314Z</time></trkpt><trkpt lat="43.4741533" lon="10.8314583"><ele>146.0</ele><time>2026-04-04T10:23:39.314Z</time></trkpt><trkpt lat="43.4742867" lon="10.8313467"><ele>146.0</ele><time>2026-04-04T10:23:40.315Z</time></trkpt><trkpt lat="43.4744167" lon="10.831225"><ele>146.0</ele><time>2026-04-04T10:23:41.315Z</time></trkpt><trkpt lat="43.4745517" lon="10.831105"><ele>146.0</ele><time>2026-04-04T10:23:42.315Z</time></trkpt><trkpt lat="43.47469" lon="10.8309833"><ele>149.0</ele><time>2026-04-04T10:23:43.314Z</time></trkpt><trkpt lat="43.4748367" lon="10.8308633"><ele>152.0</ele><time>2026-04-04T10:23:44.314Z</time></trkpt><trkpt lat="43.474985" lon="10.8307283"><ele>155.0</ele><time>2026-04-04T10:23:45.315Z</time></trkpt><trkpt lat="43.4751383" lon="10.8306"><ele>155.0</ele><time>2026-04-04T10:23:46.315Z</time></trkpt><trkpt lat="43.4752983" lon="10.83048"><ele>155.0</ele><time>2026-04-04T10:23:47.314Z</time></trkpt><trkpt lat="43.475445" lon="10.8303617"><ele>155.0</ele><time>2026-04-04T10:23:48.314Z</time></trkpt><trkpt lat="43.4755767" lon="10.8302567"><ele>155.0</ele><time>2026-04-04T10:23:49.314Z</time></trkpt><trkpt lat="43.4757167" lon="10.830175"><ele>155.0</ele><time>2026-04-04T10:23:50.314Z</time></trkpt><trkpt lat="43.4758483" lon="10.8300767"><ele>155.0</ele><time>2026-04-04T10:23:51.314Z</time></trkpt><trkpt lat="43.475975" lon="10.8299783"><ele>155.0</ele><time>2026-04-04T10:23:52.314Z</time></trkpt><trkpt lat="43.476095" lon="10.829875"><ele>155.0</ele><time>2026-04-04T10:23:53.314Z</time></trkpt><trkpt lat="43.4762183" lon="10.8297733"><ele>155.0</ele><time>2026-04-04T10:23:54.314Z</time></trkpt><trkpt lat="43.4763417" lon="10.8297"><ele>155.0</ele><time>2026-04-04T10:23:55.315Z</time></trkpt><trkpt lat="43.47648" lon="10.829685"><ele>155.0</ele><time>2026-04-04T10:23:56.314Z</time></trkpt><trkpt lat="43.47661" lon="10.8296733"><ele>155.0</ele><time>2026-04-04T10:23:57.315Z</time></trkpt><trkpt lat="43.47675" lon="10.8296967"><ele>155.0</ele><time>2026-04-04T10:23:58.314Z</time></trkpt><trkpt lat="43.476885" lon="10.8297167"><ele>155.0</ele><time>2026-04-04T10:23:59.314Z</time></trkpt><trkpt lat="43.4770283" lon="10.8296783"><ele>155.0</ele><time>2026-04-04T10:24:00.314Z</time></trkpt><trkpt lat="43.4771867" lon="10.8296117"><ele>157.33333333333331</ele><time>2026-04-04T10:24:01.314Z</time></trkpt><trkpt lat="43.4773617" lon="10.8295167"><ele>159.66666666666666</ele><time>2026-04-04T10:24:02.315Z</time></trkpt><trkpt lat="43.4775367" lon="10.8294167"><ele>162.0</ele><time>2026-04-04T10:24:03.315Z</time></trkpt><trkpt lat="43.4777067" lon="10.8293083"><ele>164.66666666666666</ele><time>2026-04-04T10:24:04.315Z</time></trkpt><trkpt lat="43.4778633" lon="10.8291833"><ele>167.33333333333331</ele><time>2026-04-04T10:24:05.314Z</time></trkpt><trkpt lat="43.4780117" lon="10.829085"><ele>170.0</ele><time>2026-04-04T10:24:06.315Z</time></trkpt><trkpt lat="43.478165" lon="10.8290033"><ele>170.33333333333331</ele><time>2026-04-04T10:24:07.315Z</time></trkpt><trkpt lat="43.47831" lon="10.8289483"><ele>170.66666666666666</ele><time>2026-04-04T10:24:08.314Z</time></trkpt><trkpt lat="43.4784583" lon="10.82891"><ele>171.0</ele><time>2026-04-04T10:24:09.314Z</time></trkpt><trkpt lat="43.4786033" lon="10.828845"><ele>171.0</ele><time>2026-04-04T10:24:10.314Z</time></trkpt><trkpt lat="43.478735" lon="10.82878"><ele>171.0</ele><time>2026-04-04T10:24:11.315Z</time></trkpt><trkpt lat="43.4788567" lon="10.828705"><ele>171.0</ele><time>2026-04-04T10:24:12.314Z</time></trkpt><trkpt lat="43.4789717" lon="10.82862"><ele>171.0</ele><time>2026-04-04T10:24:13.314Z</time></trkpt><trkpt lat="43.4790867" lon="10.8285517"><ele>173.25</ele><time>2026-04-04T10:24:14.314Z</time></trkpt><trkpt lat="43.4792067" lon="10.8285117"><ele>175.5</ele><time>2026-04-04T10:24:15.314Z</time></trkpt><trkpt lat="43.479335" lon="10.828505"><ele>177.75</ele><time>2026-04-04T10:24:16.314Z</time></trkpt><trkpt lat="43.4794633" lon="10.8285317"><ele>180.0</ele><time>2026-04-04T10:24:17.315Z</time></trkpt><trkpt lat="43.479605" lon="10.8286317"><ele>180.66666666666666</ele><time>2026-04-04T10:24:18.315Z</time></trkpt><trkpt lat="43.4797467" lon="10.8287233"><ele>181.33333333333331</ele><time>2026-04-04T10:24:19.314Z</time></trkpt><trkpt lat="43.4798933" lon="10.8288183"><ele>182.0</ele><time>2026-04-04T10:24:20.314Z</time></trkpt><trkpt lat="43.48004" lon="10.8289067"><ele>182.0</ele><time>2026-04-04T10:24:21.314Z</time></trkpt><trkpt lat="43.4802017" lon="10.8289783"><ele>182.0</ele><time>2026-04-04T10:24:22.315Z</time></trkpt><trkpt lat="43.480355" lon="10.8290733"><ele>182.0</ele><time>2026-04-04T10:24:23.314Z</time></trkpt><trkpt lat="43.480505" lon="10.82916"><ele>184.0</ele><time>2026-04-04T10:24:24.314Z</time></trkpt><trkpt lat="43.480655" lon="10.82925"><ele>186.0</ele><time>2026-04-04T10:24:25.314Z</time></trkpt><trkpt lat="43.4808" lon="10.8293367"><ele>188.0</ele><time>2026-04-04T10:24:26.315Z</time></trkpt><trkpt lat="43.4809367" lon="10.8294167"><ele>189.0</ele><time>2026-04-04T10:24:27.315Z</time></trkpt><trkpt lat="43.481055" lon="10.8294883"><ele>190.0</ele><time>2026-04-04T10:24:28.314Z</time></trkpt><trkpt lat="43.48116" lon="10.8295467"><ele>191.0</ele><time>2026-04-04T10:24:29.314Z</time></trkpt><trkpt lat="43.481245" lon="10.8296067"><ele>192.0</ele><time>2026-04-04T10:24:30.314Z</time></trkpt><trkpt lat="43.481315" lon="10.8296583"><ele>193.0</ele><time>2026-04-04T10:24:31.314Z</time></trkpt><trkpt lat="43.481375" lon="10.8297017"><ele>193.49999999999997</ele><time>2026-04-04T10:24:32.314Z</time></trkpt><trkpt lat="43.48147" lon="10.8297767"><ele>194.0</ele><time>2026-04-04T10:24:34.315Z</time></trkpt><trkpt lat="43.4815283" lon="10.8298383"><ele>194.5</ele><time>2026-04-04T10:24:37.314Z</time></trkpt><trkpt lat="43.4815867" lon="10.8299217"><ele>195.0</ele><time>2026-04-04T10:24:40.314Z</time></trkpt><trkpt lat="43.4816267" lon="10.8300417"><ele>195.49999999999997</ele><time>2026-04-04T10:24:42.314Z</time></trkpt><trkpt lat="43.481685" lon="10.8301267"><ele>196.0</ele><time>2026-04-04T10:24:44.314Z</time></trkpt><trkpt lat="43.4817767" lon="10.8301433"><ele>196.0</ele><time>2026-04-04T10:24:46.315Z</time></trkpt><trkpt lat="43.4818383" lon="10.8301033"><ele>196.0</ele><time>2026-04-04T10:24:48.314Z</time></trkpt><trkpt lat="43.4819217" lon="10.830005"><ele>196.0</ele><time>2026-04-04T10:24:49.314Z</time></trkpt><trkpt lat="43.482015" lon="10.8298917"><ele>196.0</ele><time>2026-04-04T10:24:50.314Z</time></trkpt><trkpt lat="43.48217" lon="10.8297383"><ele>193.66666666666666</ele><time>2026-04-04T10:24:51.315Z</time></trkpt><trkpt lat="43.48233" lon="10.8296383"><ele>191.33333333333331</ele><time>2026-04-04T10:24:52.314Z</time></trkpt><trkpt lat="43.4825" lon="10.8295667"><ele>189.0</ele><time>2026-04-04T10:24:53.314Z</time></trkpt><trkpt lat="43.4826417" lon="10.8295033"><ele>189.0</ele><time>2026-04-04T10:24:54.314Z</time></trkpt><trkpt lat="43.48276" lon="10.829445"><ele>189.0</ele><time>2026-04-04T10:24:55.314Z</time></trkpt><trkpt lat="43.4828617" lon="10.8293533"><ele>189.0</ele><time>2026-04-04T10:24:56.315Z</time></trkpt><trkpt lat="43.48292" lon="10.8292233"><ele>189.0</ele><time>2026-04-04T10:24:57.315Z</time></trkpt><trkpt lat="43.48296" lon="10.829115"><ele>189.0</ele><time>2026-04-04T10:24:58.314Z</time></trkpt><trkpt lat="43.4829967" lon="10.8290017"><ele>191.0</ele><time>2026-04-04T10:24:59.314Z</time></trkpt><trkpt lat="43.482915" lon="10.8288483"><ele>193.0</ele><time>2026-04-04T10:25:00.315Z</time></trkpt><trkpt lat="43.4828317" lon="10.8287017"><ele>195.0</ele><time>2026-04-04T10:25:01.314Z</time></trkpt><trkpt lat="43.482765" lon="10.82858"><ele>197.0</ele><time>2026-04-04T10:25:02.315Z</time></trkpt><trkpt lat="43.48267" lon="10.8284517"><ele>197.0</ele><time>2026-04-04T10:25:03.314Z</time></trkpt><trkpt lat="43.4826083" lon="10.8283233"><ele>197.0</ele><time>2026-04-04T10:25:04.314Z</time></trkpt><trkpt lat="43.4825667" lon="10.82822"><ele>197.0</ele><time>2026-04-04T10:25:05.315Z</time></trkpt><trkpt lat="43.4825183" lon="10.8281183"><ele>197.0</ele><time>2026-04-04T10:25:06.314Z</time></trkpt><trkpt lat="43.482475" lon="10.82802"><ele>197.0</ele><time>2026-04-04T10:25:07.314Z</time></trkpt><trkpt lat="43.4824333" lon="10.827915"><ele>197.0</ele><time>2026-04-04T10:25:08.315Z</time></trkpt><trkpt lat="43.482395" lon="10.8278"><ele>197.0</ele><time>2026-04-04T10:25:09.314Z</time></trkpt><trkpt lat="43.4823733" lon="10.827675"><ele>197.0</ele><time>2026-04-04T10:25:10.314Z</time></trkpt><trkpt lat="43.48237" lon="10.8275183"><ele>197.0</ele><time>2026-04-04T10:25:11.314Z</time></trkpt><trkpt lat="43.4823717" lon="10.8273567"><ele>197.0</ele><time>2026-04-04T10:25:12.314Z</time></trkpt><trkpt lat="43.4823783" lon="10.8271917"><ele>195.25</ele><time>2026-04-04T10:25:13.314Z</time></trkpt><trkpt lat="43.4824183" lon="10.8269967"><ele>193.5</ele><time>2026-04-04T10:25:14.314Z</time></trkpt><trkpt lat="43.4824467" lon="10.8267917"><ele>191.75</ele><time>2026-04-04T10:25:15.314Z</time></trkpt><trkpt lat="43.4824767" lon="10.82659"><ele>190.0</ele><time>2026-04-04T10:25:16.314Z</time></trkpt><trkpt lat="43.4825017" lon="10.826395"><ele>189.0</ele><time>2026-04-04T10:25:17.314Z</time></trkpt><trkpt lat="43.482525" lon="10.8262083"><ele>188.0</ele><time>2026-04-04T10:25:18.314Z</time></trkpt><trkpt lat="43.4825467" lon="10.8260217"><ele>187.0</ele><time>2026-04-04T10:25:19.314Z</time></trkpt><trkpt lat="43.48258" lon="10.825835"><ele>186.0</ele><time>2026-04-04T10:25:20.314Z</time></trkpt><trkpt lat="43.4826067" lon="10.8256417"><ele>184.75</ele><time>2026-04-04T10:25:21.314Z</time></trkpt><trkpt lat="43.4826433" lon="10.8254467"><ele>183.5</ele><time>2026-04-04T10:25:22.314Z</time></trkpt><trkpt lat="43.4826717" lon="10.825245"><ele>182.25</ele><time>2026-04-04T10:25:23.314Z</time></trkpt><trkpt lat="43.482695" lon="10.8250383"><ele>181.0</ele><time>2026-04-04T10:25:24.314Z</time></trkpt><trkpt lat="43.48271" lon="10.8248317"><ele>178.75</ele><time>2026-04-04T10:25:25.314Z</time></trkpt><trkpt lat="43.4827083" lon="10.82463"><ele>176.5</ele><time>2026-04-04T10:25:26.314Z</time></trkpt><trkpt lat="43.4827033" lon="10.8244233"><ele>174.25</ele><time>2026-04-04T10:25:27.314Z</time></trkpt><trkpt lat="43.4826933" lon="10.824225"><ele>172.0</ele><time>2026-04-04T10:25:28.314Z</time></trkpt><trkpt lat="43.4826867" lon="10.8240183"><ele>171.5</ele><time>2026-04-04T10:25:29.314Z</time></trkpt><trkpt lat="43.4826767" lon="10.8238133"><ele>171.0</ele><time>2026-04-04T10:25:30.315Z</time></trkpt><trkpt lat="43.4826733" lon="10.8236183"><ele>170.5</ele><time>2026-04-04T10:25:31.315Z</time></trkpt><trkpt lat="43.4826767" lon="10.8234417"><ele>170.0</ele><time>2026-04-04T10:25:32.314Z</time></trkpt><trkpt lat="43.4826883" lon="10.8232817"><ele>170.0</ele><time>2026-04-04T10:25:33.314Z</time></trkpt><trkpt lat="43.4827067" lon="10.8231133"><ele>170.0</ele><time>2026-04-04T10:25:34.314Z</time></trkpt><trkpt lat="43.48274" lon="10.8229517"><ele>170.0</ele><time>2026-04-04T10:25:35.314Z</time></trkpt><trkpt lat="43.4827667" lon="10.8227917"><ele>170.0</ele><time>2026-04-04T10:25:36.315Z</time></trkpt><trkpt lat="43.4827833" lon="10.8226017"><ele>169.75</ele><time>2026-04-04T10:25:37.315Z</time></trkpt><trkpt lat="43.4827733" lon="10.8224083"><ele>169.5</ele><time>2026-04-04T10:25:38.315Z</time></trkpt><trkpt lat="43.4827567" lon="10.8222217"><ele>169.25</ele><time>2026-04-04T10:25:39.315Z</time></trkpt><trkpt lat="43.4827267" lon="10.822045"><ele>169.0</ele><time>2026-04-04T10:25:40.314Z</time></trkpt><trkpt lat="43.48271" lon="10.8218567"><ele>167.33333333333334</ele><time>2026-04-04T10:25:41.314Z</time></trkpt><trkpt lat="43.4826917" lon="10.82166"><ele>165.66666666666666</ele><time>2026-04-04T10:25:42.314Z</time></trkpt><trkpt lat="43.4826633" lon="10.82146"><ele>164.0</ele><time>2026-04-04T10:25:43.314Z</time></trkpt><trkpt lat="43.4826383" lon="10.8212417"><ele>164.0</ele><time>2026-04-04T10:25:44.314Z</time></trkpt><trkpt lat="43.4826283" lon="10.8210217"><ele>164.0</ele><time>2026-04-04T10:25:45.314Z</time></trkpt><trkpt lat="43.4826167" lon="10.8208233"><ele>164.0</ele><time>2026-04-04T10:25:46.314Z</time></trkpt><trkpt lat="43.4826133" lon="10.8206133"><ele>163.66666666666666</ele><time>2026-04-04T10:25:47.314Z</time></trkpt><trkpt lat="43.482615" lon="10.8203883"><ele>163.33333333333334</ele><time>2026-04-04T10:25:48.314Z</time></trkpt><trkpt lat="43.48263" lon="10.8201683"><ele>163.0</ele><time>2026-04-04T10:25:49.315Z</time></trkpt><trkpt lat="43.48264" lon="10.8199567"><ele>162.66666666666669</ele><time>2026-04-04T10:25:50.314Z</time></trkpt><trkpt lat="43.48265" lon="10.8197417"><ele>162.33333333333334</ele><time>2026-04-04T10:25:51.315Z</time></trkpt><trkpt lat="43.4826483" lon="10.8195333"><ele>162.0</ele><time>2026-04-04T10:25:52.315Z</time></trkpt><trkpt lat="43.4826367" lon="10.8193317"><ele>161.5</ele><time>2026-04-04T10:25:53.315Z</time></trkpt><trkpt lat="43.482625" lon="10.819125"><ele>161.0</ele><time>2026-04-04T10:25:54.314Z</time></trkpt><trkpt lat="43.482605" lon="10.8189217"><ele>160.5</ele><time>2026-04-04T10:25:55.314Z</time></trkpt><trkpt lat="43.4825933" lon="10.81872"><ele>160.0</ele><time>2026-04-04T10:25:56.314Z</time></trkpt><trkpt lat="43.4825733" lon="10.8185"><ele>158.5</ele><time>2026-04-04T10:25:57.314Z</time></trkpt><trkpt lat="43.482555" lon="10.8183"><ele>157.0</ele><time>2026-04-04T10:25:58.315Z</time></trkpt><trkpt lat="43.482525" lon="10.8181217"><ele>155.5</ele><time>2026-04-04T10:25:59.315Z</time></trkpt><trkpt lat="43.4824967" lon="10.817955"><ele>154.0</ele><time>2026-04-04T10:26:00.314Z</time></trkpt><trkpt lat="43.4824733" lon="10.8177883"><ele>152.0</ele><time>2026-04-04T10:26:01.314Z</time></trkpt><trkpt lat="43.4824367" lon="10.8176267"><ele>150.0</ele><time>2026-04-04T10:26:02.314Z</time></trkpt><trkpt lat="43.4824083" lon="10.8174683"><ele>148.0</ele><time>2026-04-04T10:26:03.314Z</time></trkpt><trkpt lat="43.4823783" lon="10.81732"><ele>146.0</ele><time>2026-04-04T10:26:04.314Z</time></trkpt><trkpt lat="43.4823617" lon="10.8171767"><ele>146.0</ele><time>2026-04-04T10:26:05.314Z</time></trkpt><trkpt lat="43.48236" lon="10.8170233"><ele>146.0</ele><time>2026-04-04T10:26:06.314Z</time></trkpt><trkpt lat="43.4823867" lon="10.816865"><ele>146.0</ele><time>2026-04-04T10:26:07.314Z</time></trkpt><trkpt lat="43.4824333" lon="10.8167"><ele>146.0</ele><time>2026-04-04T10:26:08.314Z</time></trkpt><trkpt lat="43.4824933" lon="10.8165133"><ele>144.33333333333331</ele><time>2026-04-04T10:26:09.315Z</time></trkpt><trkpt lat="43.4825567" lon="10.8163133"><ele>142.66666666666666</ele><time>2026-04-04T10:26:10.314Z</time></trkpt><trkpt lat="43.4826267" lon="10.8161167"><ele>141.0</ele><time>2026-04-04T10:26:11.314Z</time></trkpt><trkpt lat="43.4826883" lon="10.8159183"><ele>140.0</ele><time>2026-04-04T10:26:12.314Z</time></trkpt><trkpt lat="43.48277" lon="10.8157033"><ele>139.0</ele><time>2026-04-04T10:26:13.314Z</time></trkpt><trkpt lat="43.4828467" lon="10.81549"><ele>138.0</ele><time>2026-04-04T10:26:14.314Z</time></trkpt><trkpt lat="43.4829317" lon="10.8152767"><ele>136.33333333333334</ele><time>2026-04-04T10:26:15.315Z</time></trkpt><trkpt lat="43.4830183" lon="10.8150533"><ele>134.66666666666669</ele><time>2026-04-04T10:26:16.314Z</time></trkpt><trkpt lat="43.4831033" lon="10.814835"><ele>133.0</ele><time>2026-04-04T10:26:17.314Z</time></trkpt><trkpt lat="43.4831867" lon="10.8146167"><ele>133.0</ele><time>2026-04-04T10:26:18.314Z</time></trkpt><trkpt lat="43.483265" lon="10.8143983"><ele>133.0</ele><time>2026-04-04T10:26:19.314Z</time></trkpt><trkpt lat="43.4833467" lon="10.8141767"><ele>133.0</ele><time>2026-04-04T10:26:20.314Z</time></trkpt><trkpt lat="43.48343" lon="10.8139667"><ele>134.0</ele><time>2026-04-04T10:26:21.314Z</time></trkpt><trkpt lat="43.4835183" lon="10.8137783"><ele>135.0</ele><time>2026-04-04T10:26:22.314Z</time></trkpt><trkpt lat="43.483635" lon="10.81359"><ele>136.0</ele><time>2026-04-04T10:26:23.314Z</time></trkpt><trkpt lat="43.4837733" lon="10.8134417"><ele>136.33333333333334</ele><time>2026-04-04T10:26:24.314Z</time></trkpt><trkpt lat="43.48392" lon="10.81331"><ele>136.66666666666666</ele><time>2026-04-04T10:26:25.314Z</time></trkpt><trkpt lat="43.4840783" lon="10.8131783"><ele>137.0</ele><time>2026-04-04T10:26:26.315Z</time></trkpt><trkpt lat="43.4842217" lon="10.8130367"><ele>137.0</ele><time>2026-04-04T10:26:27.314Z</time></trkpt><trkpt lat="43.4843533" lon="10.8129017"><ele>137.0</ele><time>2026-04-04T10:26:28.315Z</time></trkpt><trkpt lat="43.4845" lon="10.8127517"><ele>137.0</ele><time>2026-04-04T10:26:29.314Z</time></trkpt><trkpt lat="43.4846233" lon="10.8126217"><ele>137.33333333333331</ele><time>2026-04-04T10:26:30.314Z</time></trkpt><trkpt lat="43.48474" lon="10.81246"><ele>137.66666666666666</ele><time>2026-04-04T10:26:31.314Z</time></trkpt><trkpt lat="43.4848433" lon="10.8122817"><ele>138.0</ele><time>2026-04-04T10:26:32.314Z</time></trkpt><trkpt lat="43.484925" lon="10.8120767"><ele>138.0</ele><time>2026-04-04T10:26:33.314Z</time></trkpt><trkpt lat="43.4850033" lon="10.81186"><ele>138.0</ele><time>2026-04-04T10:26:34.314Z</time></trkpt><trkpt lat="43.4850767" lon="10.8116167"><ele>138.0</ele><time>2026-04-04T10:26:35.314Z</time></trkpt><trkpt lat="43.48515" lon="10.8113767"><ele>138.33333333333334</ele><time>2026-04-04T10:26:36.315Z</time></trkpt><trkpt lat="43.4852233" lon="10.8111533"><ele>138.66666666666669</ele><time>2026-04-04T10:26:37.314Z</time></trkpt><trkpt lat="43.4853017" lon="10.81092"><ele>139.0</ele><time>2026-04-04T10:26:38.314Z</time></trkpt><trkpt lat="43.485375" lon="10.81068"><ele>136.33333333333334</ele><time>2026-04-04T10:26:39.314Z</time></trkpt><trkpt lat="43.4854383" lon="10.8104433"><ele>133.66666666666666</ele><time>2026-04-04T10:26:40.315Z</time></trkpt><trkpt lat="43.4855033" lon="10.8101933"><ele>131.0</ele><time>2026-04-04T10:26:41.314Z</time></trkpt><trkpt lat="43.4855583" lon="10.8099483"><ele>131.0</ele><time>2026-04-04T10:26:42.313Z</time></trkpt><trkpt lat="43.485615" lon="10.8097167"><ele>131.0</ele><time>2026-04-04T10:26:43.314Z</time></trkpt><trkpt lat="43.4856667" lon="10.8094883"><ele>131.0</ele><time>2026-04-04T10:26:44.313Z</time></trkpt><trkpt lat="43.4857117" lon="10.8092567"><ele>132.33333333333331</ele><time>2026-04-04T10:26:45.313Z</time></trkpt><trkpt lat="43.485755" lon="10.8090283"><ele>133.66666666666666</ele><time>2026-04-04T10:26:46.313Z</time></trkpt><trkpt lat="43.4857967" lon="10.8087917"><ele>135.0</ele><time>2026-04-04T10:26:47.313Z</time></trkpt><trkpt lat="43.4858283" lon="10.8085483"><ele>135.66666666666666</ele><time>2026-04-04T10:26:48.314Z</time></trkpt><trkpt lat="43.4858517" lon="10.808295"><ele>136.33333333333331</ele><time>2026-04-04T10:26:49.314Z</time></trkpt><trkpt lat="43.4858617" lon="10.8080467"><ele>137.0</ele><time>2026-04-04T10:26:50.313Z</time></trkpt><trkpt lat="43.48586" lon="10.8077967"><ele>137.66666666666666</ele><time>2026-04-04T10:26:51.314Z</time></trkpt><trkpt lat="43.48584" lon="10.8075583"><ele>138.33333333333334</ele><time>2026-04-04T10:26:52.313Z</time></trkpt><trkpt lat="43.48581" lon="10.8073367"><ele>139.0</ele><time>2026-04-04T10:26:53.313Z</time></trkpt><trkpt lat="43.4857733" lon="10.8071183"><ele>139.0</ele><time>2026-04-04T10:26:54.313Z</time></trkpt><trkpt lat="43.4856983" lon="10.8068933"><ele>139.0</ele><time>2026-04-04T10:26:55.314Z</time></trkpt><trkpt lat="43.48563" lon="10.8066717"><ele>139.0</ele><time>2026-04-04T10:26:56.314Z</time></trkpt><trkpt lat="43.48555" lon="10.8064633"><ele>138.66666666666669</ele><time>2026-04-04T10:26:57.313Z</time></trkpt><trkpt lat="43.485475" lon="10.8062717"><ele>138.33333333333334</ele><time>2026-04-04T10:26:58.313Z</time></trkpt><trkpt lat="43.48539" lon="10.8060917"><ele>138.0</ele><time>2026-04-04T10:26:59.313Z</time></trkpt><trkpt lat="43.4853083" lon="10.805895"><ele>137.0</ele><time>2026-04-04T10:27:00.313Z</time></trkpt><trkpt lat="43.48521" lon="10.8056833"><ele>136.0</ele><time>2026-04-04T10:27:01.313Z</time></trkpt><trkpt lat="43.485135" lon="10.8054717"><ele>135.0</ele><time>2026-04-04T10:27:02.313Z</time></trkpt><trkpt lat="43.4850567" lon="10.8052533"><ele>136.33333333333334</ele><time>2026-04-04T10:27:03.313Z</time></trkpt><trkpt lat="43.4849833" lon="10.805025"><ele>137.66666666666669</ele><time>2026-04-04T10:27:04.313Z</time></trkpt><trkpt lat="43.4849183" lon="10.8047817"><ele>139.0</ele><time>2026-04-04T10:27:05.314Z</time></trkpt><trkpt lat="43.4848583" lon="10.8045233"><ele>140.0</ele><time>2026-04-04T10:27:06.313Z</time></trkpt><trkpt lat="43.4848117" lon="10.804285"><ele>141.0</ele><time>2026-04-04T10:27:07.313Z</time></trkpt><trkpt lat="43.4847967" lon="10.8040533"><ele>142.0</ele><time>2026-04-04T10:27:08.313Z</time></trkpt><trkpt lat="43.4847883" lon="10.8038267"><ele>142.0</ele><time>2026-04-04T10:27:09.313Z</time></trkpt><trkpt lat="43.4847833" lon="10.80361"><ele>142.0</ele><time>2026-04-04T10:27:10.313Z</time></trkpt><trkpt lat="43.484785" lon="10.8033867"><ele>142.0</ele><time>2026-04-04T10:27:11.313Z</time></trkpt><trkpt lat="43.4848083" lon="10.8031567"><ele>142.0</ele><time>2026-04-04T10:27:12.313Z</time></trkpt><trkpt lat="43.48486" lon="10.8029267"><ele>142.0</ele><time>2026-04-04T10:27:13.314Z</time></trkpt><trkpt lat="43.484935" lon="10.8027067"><ele>142.0</ele><time>2026-04-04T10:27:14.314Z</time></trkpt><trkpt lat="43.4850083" lon="10.8025167"><ele>142.0</ele><time>2026-04-04T10:27:15.314Z</time></trkpt><trkpt lat="43.4850933" lon="10.8023283"><ele>142.0</ele><time>2026-04-04T10:27:16.313Z</time></trkpt><trkpt lat="43.4852" lon="10.8021317"><ele>142.0</ele><time>2026-04-04T10:27:17.313Z</time></trkpt><trkpt lat="43.4853033" lon="10.8019417"><ele>142.0</ele><time>2026-04-04T10:27:18.313Z</time></trkpt><trkpt lat="43.4854283" lon="10.8017833"><ele>142.0</ele><time>2026-04-04T10:27:19.314Z</time></trkpt><trkpt lat="43.4855583" lon="10.8016467"><ele>142.0</ele><time>2026-04-04T10:27:20.313Z</time></trkpt><trkpt lat="43.48569" lon="10.8015167"><ele>141.66666666666669</ele><time>2026-04-04T10:27:21.313Z</time></trkpt><trkpt lat="43.485825" lon="10.801395"><ele>141.33333333333334</ele><time>2026-04-04T10:27:22.314Z</time></trkpt><trkpt lat="43.4859467" lon="10.80128"><ele>141.0</ele><time>2026-04-04T10:27:23.313Z</time></trkpt><trkpt lat="43.4860767" lon="10.8011717"><ele>141.0</ele><time>2026-04-04T10:27:24.313Z</time></trkpt><trkpt lat="43.48618" lon="10.80103"><ele>141.0</ele><time>2026-04-04T10:27:25.313Z</time></trkpt><trkpt lat="43.486245" lon="10.8008467"><ele>141.0</ele><time>2026-04-04T10:27:26.314Z</time></trkpt><trkpt lat="43.486295" lon="10.80064"><ele>139.33333333333334</ele><time>2026-04-04T10:27:27.313Z</time></trkpt><trkpt lat="43.48632" lon="10.80042"><ele>137.66666666666669</ele><time>2026-04-04T10:27:28.313Z</time></trkpt><trkpt lat="43.48637" lon="10.800165"><ele>136.0</ele><time>2026-04-04T10:27:29.313Z</time></trkpt><trkpt lat="43.4864067" lon="10.79991"><ele>133.66666666666669</ele><time>2026-04-04T10:27:30.313Z</time></trkpt><trkpt lat="43.4864433" lon="10.7996617"><ele>131.33333333333334</ele><time>2026-04-04T10:27:31.313Z</time></trkpt><trkpt lat="43.486475" lon="10.7994433"><ele>129.0</ele><time>2026-04-04T10:27:32.313Z</time></trkpt><trkpt lat="43.486505" lon="10.7992217"><ele>128.33333333333334</ele><time>2026-04-04T10:27:33.313Z</time></trkpt><trkpt lat="43.486525" lon="10.7990067"><ele>127.66666666666667</ele><time>2026-04-04T10:27:34.313Z</time></trkpt><trkpt lat="43.4865683" lon="10.79881"><ele>127.0</ele><time>2026-04-04T10:27:35.313Z</time></trkpt><trkpt lat="43.486635" lon="10.7986283"><ele>127.5</ele><time>2026-04-04T10:27:36.313Z</time></trkpt><trkpt lat="43.4867017" lon="10.7984517"><ele>128.0</ele><time>2026-04-04T10:27:37.313Z</time></trkpt><trkpt lat="43.4867667" lon="10.798275"><ele>128.5</ele><time>2026-04-04T10:27:38.313Z</time></trkpt><trkpt lat="43.48684" lon="10.7980883"><ele>129.0</ele><time>2026-04-04T10:27:39.313Z</time></trkpt><trkpt lat="43.4869117" lon="10.7979017"><ele>129.0</ele><time>2026-04-04T10:27:40.313Z</time></trkpt><trkpt lat="43.4869883" lon="10.7977133"><ele>129.0</ele><time>2026-04-04T10:27:41.313Z</time></trkpt><trkpt lat="43.4870783" lon="10.7975133"><ele>129.0</ele><time>2026-04-04T10:27:42.313Z</time></trkpt><trkpt lat="43.4871717" lon="10.79731"><ele>128.33333333333334</ele><time>2026-04-04T10:27:43.313Z</time></trkpt><trkpt lat="43.48725" lon="10.7971217"><ele>127.66666666666667</ele><time>2026-04-04T10:27:44.313Z</time></trkpt><trkpt lat="43.4873217" lon="10.796945"><ele>127.0</ele><time>2026-04-04T10:27:45.314Z</time></trkpt><trkpt lat="43.4874" lon="10.7967733"><ele>127.0</ele><time>2026-04-04T10:27:46.314Z</time></trkpt><trkpt lat="43.4874717" lon="10.796625"><ele>127.0</ele><time>2026-04-04T10:27:47.313Z</time></trkpt><trkpt lat="43.487575" lon="10.7964683"><ele>127.0</ele><time>2026-04-04T10:27:48.314Z</time></trkpt><trkpt lat="43.4876717" lon="10.7963633"><ele>127.0</ele><time>2026-04-04T10:27:49.313Z</time></trkpt><trkpt lat="43.487795" lon="10.7962917"><ele>125.0</ele><time>2026-04-04T10:27:50.313Z</time></trkpt><trkpt lat="43.48794" lon="10.7962633"><ele>123.0</ele><time>2026-04-04T10:27:51.313Z</time></trkpt><trkpt lat="43.4880983" lon="10.7962483"><ele>121.0</ele><time>2026-04-04T10:27:52.313Z</time></trkpt><trkpt lat="43.4882633" lon="10.79625"><ele>121.0</ele><time>2026-04-04T10:27:53.313Z</time></trkpt><trkpt lat="43.488425" lon="10.7962517"><ele>121.0</ele><time>2026-04-04T10:27:54.313Z</time></trkpt><trkpt lat="43.4886017" lon="10.79624"><ele>121.0</ele><time>2026-04-04T10:27:55.313Z</time></trkpt><trkpt lat="43.4887733" lon="10.7962217"><ele>120.0</ele><time>2026-04-04T10:27:56.313Z</time></trkpt><trkpt lat="43.488935" lon="10.7961833"><ele>119.0</ele><time>2026-04-04T10:27:57.313Z</time></trkpt><trkpt lat="43.48908" lon="10.7961283"><ele>118.0</ele><time>2026-04-04T10:27:58.313Z</time></trkpt><trkpt lat="43.4892133" lon="10.7960683"><ele>118.0</ele><time>2026-04-04T10:27:59.314Z</time></trkpt><trkpt lat="43.4893267" lon="10.796005"><ele>118.0</ele><time>2026-04-04T10:28:00.313Z</time></trkpt><trkpt lat="43.48944" lon="10.795885"><ele>118.0</ele><time>2026-04-04T10:28:01.313Z</time></trkpt><trkpt lat="43.4895233" lon="10.795735"><ele>118.0</ele><time>2026-04-04T10:28:02.313Z</time></trkpt><trkpt lat="43.4895933" lon="10.7955567"><ele>117.75</ele><time>2026-04-04T10:28:03.313Z</time></trkpt><trkpt lat="43.4896417" lon="10.7953767"><ele>117.5</ele><time>2026-04-04T10:28:04.313Z</time></trkpt><trkpt lat="43.4896967" lon="10.7951917"><ele>117.25</ele><time>2026-04-04T10:28:05.313Z</time></trkpt><trkpt lat="43.4897433" lon="10.795005"><ele>117.0</ele><time>2026-04-04T10:28:06.314Z</time></trkpt><trkpt lat="43.4898067" lon="10.7947967"><ele>118.66666666666666</ele><time>2026-04-04T10:28:07.313Z</time></trkpt><trkpt lat="43.4898733" lon="10.794585"><ele>120.33333333333333</ele><time>2026-04-04T10:28:08.313Z</time></trkpt><trkpt lat="43.489935" lon="10.79438"><ele>122.0</ele><time>2026-04-04T10:28:09.313Z</time></trkpt><trkpt lat="43.489995" lon="10.7941833"><ele>124.33333333333333</ele><time>2026-04-04T10:28:10.313Z</time></trkpt><trkpt lat="43.4900517" lon="10.793995"><ele>126.66666666666666</ele><time>2026-04-04T10:28:11.313Z</time></trkpt><trkpt lat="43.4901167" lon="10.7938017"><ele>129.0</ele><time>2026-04-04T10:28:12.313Z</time></trkpt><trkpt lat="43.4901833" lon="10.7936017"><ele>128.33333333333334</ele><time>2026-04-04T10:28:13.313Z</time></trkpt><trkpt lat="43.4902367" lon="10.7934083"><ele>127.66666666666667</ele><time>2026-04-04T10:28:14.313Z</time></trkpt><trkpt lat="43.4902983" lon="10.7932083"><ele>127.0</ele><time>2026-04-04T10:28:15.313Z</time></trkpt><trkpt lat="43.490365" lon="10.793005"><ele>127.33333333333334</ele><time>2026-04-04T10:28:16.313Z</time></trkpt><trkpt lat="43.49043" lon="10.792805"><ele>127.66666666666666</ele><time>2026-04-04T10:28:17.313Z</time></trkpt><trkpt lat="43.490515" lon="10.7926033"><ele>128.0</ele><time>2026-04-04T10:28:18.313Z</time></trkpt><trkpt lat="43.4905983" lon="10.792395"><ele>128.66666666666666</ele><time>2026-04-04T10:28:19.313Z</time></trkpt><trkpt lat="43.4906783" lon="10.7921967"><ele>129.33333333333334</ele><time>2026-04-04T10:28:20.313Z</time></trkpt><trkpt lat="43.4907767" lon="10.792005"><ele>130.0</ele><time>2026-04-04T10:28:21.314Z</time></trkpt><trkpt lat="43.490875" lon="10.79181"><ele>130.66666666666669</ele><time>2026-04-04T10:28:22.313Z</time></trkpt><trkpt lat="43.4909733" lon="10.7915983"><ele>131.33333333333334</ele><time>2026-04-04T10:28:23.314Z</time></trkpt><trkpt lat="43.4910633" lon="10.7914017"><ele>132.0</ele><time>2026-04-04T10:28:24.313Z</time></trkpt><trkpt lat="43.491145" lon="10.7912067"><ele>132.0</ele><time>2026-04-04T10:28:25.313Z</time></trkpt><trkpt lat="43.4912333" lon="10.7910183"><ele>132.0</ele><time>2026-04-04T10:28:26.313Z</time></trkpt><trkpt lat="43.4913267" lon="10.7908367"><ele>132.0</ele><time>2026-04-04T10:28:27.313Z</time></trkpt><trkpt lat="43.4914233" lon="10.7906633"><ele>129.75</ele><time>2026-04-04T10:28:28.313Z</time></trkpt><trkpt lat="43.4915167" lon="10.7904983"><ele>127.5</ele><time>2026-04-04T10:28:29.314Z</time></trkpt><trkpt lat="43.4916017" lon="10.7903467"><ele>125.25</ele><time>2026-04-04T10:28:30.314Z</time></trkpt><trkpt lat="43.491685" lon="10.7902033"><ele>123.0</ele><time>2026-04-04T10:28:31.314Z</time></trkpt><trkpt lat="43.491765" lon="10.79006"><ele>123.0</ele><time>2026-04-04T10:28:32.313Z</time></trkpt><trkpt lat="43.4918483" lon="10.7899267"><ele>123.0</ele><time>2026-04-04T10:28:33.313Z</time></trkpt><trkpt lat="43.4919267" lon="10.7897967"><ele>123.0</ele><time>2026-04-04T10:28:34.313Z</time></trkpt><trkpt lat="43.4920033" lon="10.789665"><ele>123.0</ele><time>2026-04-04T10:28:35.313Z</time></trkpt><trkpt lat="43.492075" lon="10.78956"><ele>122.0</ele><time>2026-04-04T10:28:36.313Z</time></trkpt><trkpt lat="43.49215" lon="10.7894517"><ele>121.00000000000001</ele><time>2026-04-04T10:28:37.313Z</time></trkpt><trkpt lat="43.4922283" lon="10.7893433"><ele>120.00000000000001</ele><time>2026-04-04T10:28:38.313Z</time></trkpt><trkpt lat="43.4922933" lon="10.789235"><ele>119.0</ele><time>2026-04-04T10:28:39.313Z</time></trkpt><trkpt lat="43.4923517" lon="10.7891483"><ele>118.0</ele><time>2026-04-04T10:28:40.313Z</time></trkpt><trkpt lat="43.4923983" lon="10.7890667"><ele>118.0</ele><time>2026-04-04T10:28:41.314Z</time></trkpt><trkpt lat="43.492445" lon="10.7889917"><ele>118.0</ele><time>2026-04-04T10:28:42.314Z</time></trkpt><trkpt lat="43.4924867" lon="10.7889117"><ele>118.0</ele><time>2026-04-04T10:28:43.314Z</time></trkpt><trkpt lat="43.4925283" lon="10.78882"><ele>118.0</ele><time>2026-04-04T10:28:44.313Z</time></trkpt><trkpt lat="43.4925717" lon="10.7887317"><ele>118.0</ele><time>2026-04-04T10:28:45.313Z</time></trkpt><trkpt lat="43.492615" lon="10.7886467"><ele>118.0</ele><time>2026-04-04T10:28:46.313Z</time></trkpt><trkpt lat="43.4926517" lon="10.7885683"><ele>118.0</ele><time>2026-04-04T10:28:47.313Z</time></trkpt><trkpt lat="43.4926967" lon="10.7884917"><ele>118.66666666666667</ele><time>2026-04-04T10:28:48.314Z</time></trkpt><trkpt lat="43.49278" lon="10.7883583"><ele>119.33333333333334</ele><time>2026-04-04T10:28:50.313Z</time></trkpt><trkpt lat="43.4928333" lon="10.788295"><ele>120.0</ele><time>2026-04-04T10:28:51.313Z</time></trkpt><trkpt lat="43.49289" lon="10.7882283"><ele>120.66666666666666</ele><time>2026-04-04T10:28:52.313Z</time></trkpt><trkpt lat="43.49294" lon="10.78814"><ele>121.33333333333333</ele><time>2026-04-04T10:28:53.314Z</time></trkpt><trkpt lat="43.4929833" lon="10.7880633"><ele>122.0</ele><time>2026-04-04T10:28:54.313Z</time></trkpt><trkpt lat="43.4930333" lon="10.7879783"><ele>122.0</ele><time>2026-04-04T10:28:55.313Z</time></trkpt><trkpt lat="43.4930867" lon="10.7878767"><ele>121.99999999999999</ele><time>2026-04-04T10:28:56.313Z</time></trkpt><trkpt lat="43.4931317" lon="10.78777"><ele>121.99999999999999</ele><time>2026-04-04T10:28:57.313Z</time></trkpt><trkpt lat="43.493175" lon="10.78766"><ele>122.0</ele><time>2026-04-04T10:28:58.313Z</time></trkpt><trkpt lat="43.49322" lon="10.78754"><ele>122.0</ele><time>2026-04-04T10:28:59.314Z</time></trkpt><trkpt lat="43.4932567" lon="10.7874167"><ele>122.8</ele><time>2026-04-04T10:29:00.313Z</time></trkpt><trkpt lat="43.49329" lon="10.7872983"><ele>123.6</ele><time>2026-04-04T10:29:01.313Z</time></trkpt><trkpt lat="43.49332" lon="10.7871567"><ele>124.39999999999999</ele><time>2026-04-04T10:29:02.313Z</time></trkpt><trkpt lat="43.4933483" lon="10.787005"><ele>125.19999999999999</ele><time>2026-04-04T10:29:03.313Z</time></trkpt><trkpt lat="43.493375" lon="10.78686"><ele>126.0</ele><time>2026-04-04T10:29:04.313Z</time></trkpt><trkpt lat="43.4934033" lon="10.7867183"><ele>126.4</ele><time>2026-04-04T10:29:05.314Z</time></trkpt><trkpt lat="43.4934433" lon="10.7865783"><ele>126.8</ele><time>2026-04-04T10:29:06.313Z</time></trkpt><trkpt lat="43.49347" lon="10.786435"><ele>127.20000000000002</ele><time>2026-04-04T10:29:07.313Z</time></trkpt><trkpt lat="43.4934933" lon="10.78629"><ele>127.60000000000001</ele><time>2026-04-04T10:29:08.314Z</time></trkpt><trkpt lat="43.4935083" lon="10.7861433"><ele>128.0</ele><time>2026-04-04T10:29:09.313Z</time></trkpt><trkpt lat="43.4935233" lon="10.785995"><ele>128.6</ele><time>2026-04-04T10:29:10.313Z</time></trkpt><trkpt lat="43.4935383" lon="10.7858583"><ele>129.20000000000002</ele><time>2026-04-04T10:29:11.313Z</time></trkpt><trkpt lat="43.4935683" lon="10.7857233"><ele>129.8</ele><time>2026-04-04T10:29:12.314Z</time></trkpt><trkpt lat="43.4936067" lon="10.7855933"><ele>130.4</ele><time>2026-04-04T10:29:13.313Z</time></trkpt><trkpt lat="43.4936233" lon="10.785455"><ele>131.0</ele><time>2026-04-04T10:29:14.314Z</time></trkpt><trkpt lat="43.4936367" lon="10.785325"><ele>131.0</ele><time>2026-04-04T10:29:15.314Z</time></trkpt><trkpt lat="43.4936533" lon="10.7852133"><ele>131.0</ele><time>2026-04-04T10:29:16.313Z</time></trkpt><trkpt lat="43.4936717" lon="10.785125"><ele>131.0</ele><time>2026-04-04T10:29:17.313Z</time></trkpt><trkpt lat="43.4936967" lon="10.7849983"><ele>131.0</ele><time>2026-04-04T10:29:19.313Z</time></trkpt><trkpt lat="43.493715" lon="10.78491"><ele>131.0</ele><time>2026-04-04T10:29:21.314Z</time></trkpt><trkpt lat="43.4937367" lon="10.7848117"><ele>131.0</ele><time>2026-04-04T10:29:23.313Z</time></trkpt><trkpt lat="43.49376" lon="10.784685"><ele>131.33333333333331</ele><time>2026-04-04T10:29:25.313Z</time></trkpt><trkpt lat="43.4937783" lon="10.7845583"><ele>131.66666666666666</ele><time>2026-04-04T10:29:27.314Z</time></trkpt><trkpt lat="43.4938117" lon="10.78446"><ele>132.0</ele><time>2026-04-04T10:29:29.314Z</time></trkpt><trkpt lat="43.493845" lon="10.7843767"><ele>132.33333333333334</ele><time>2026-04-04T10:29:31.313Z</time></trkpt><trkpt lat="43.4938933" lon="10.784285"><ele>132.66666666666669</ele><time>2026-04-04T10:29:33.313Z</time></trkpt><trkpt lat="43.4939783" lon="10.7842083"><ele>133.0</ele><time>2026-04-04T10:29:35.313Z</time></trkpt><trkpt lat="43.4940567" lon="10.7841617"><ele>133.0</ele><time>2026-04-04T10:29:37.313Z</time></trkpt><trkpt lat="43.494125" lon="10.7841067"><ele>133.0</ele><time>2026-04-04T10:29:39.313Z</time></trkpt><trkpt lat="43.4942217" lon="10.784045"><ele>133.0</ele><time>2026-04-04T10:29:41.314Z</time></trkpt><trkpt lat="43.49428" lon="10.7840017"><ele>133.0</ele><time>2026-04-04T10:29:42.313Z</time></trkpt><trkpt lat="43.494345" lon="10.78394"><ele>133.0</ele><time>2026-04-04T10:29:43.313Z</time></trkpt><trkpt lat="43.4944167" lon="10.7838783"><ele>133.0</ele><time>2026-04-04T10:29:44.313Z</time></trkpt><trkpt lat="43.4945" lon="10.783825"><ele>133.0</ele><time>2026-04-04T10:29:46.313Z</time></trkpt><trkpt lat="43.4945867" lon="10.783765"><ele>133.0</ele><time>2026-04-04T10:29:48.313Z</time></trkpt><trkpt lat="43.4946467" lon="10.7837083"><ele>133.0</ele><time>2026-04-04T10:29:49.313Z</time></trkpt><trkpt lat="43.4947817" lon="10.7836017"><ele>133.0</ele><time>2026-04-04T10:29:51.313Z</time></trkpt><trkpt lat="43.4948683" lon="10.78354"><ele>133.0</ele><time>2026-04-04T10:29:52.313Z</time></trkpt><trkpt lat="43.49497" lon="10.7834567"><ele>131.20000000000002</ele><time>2026-04-04T10:29:53.313Z</time></trkpt><trkpt lat="43.4950617" lon="10.7833917"><ele>129.4</ele><time>2026-04-04T10:29:54.313Z</time></trkpt><trkpt lat="43.495155" lon="10.78333"><ele>127.60000000000001</ele><time>2026-04-04T10:29:55.313Z</time></trkpt><trkpt lat="43.4952517" lon="10.7832567"><ele>125.80000000000001</ele><time>2026-04-04T10:29:56.313Z</time></trkpt><trkpt lat="43.4953417" lon="10.783195"><ele>124.0</ele><time>2026-04-04T10:29:57.313Z</time></trkpt><trkpt lat="43.4954333" lon="10.783135"><ele>122.80000000000001</ele><time>2026-04-04T10:29:58.313Z</time></trkpt><trkpt lat="43.4955333" lon="10.7830517"><ele>121.60000000000001</ele><time>2026-04-04T10:29:59.314Z</time></trkpt><trkpt lat="43.4956217" lon="10.7830033"><ele>120.4</ele><time>2026-04-04T10:30:00.313Z</time></trkpt><trkpt lat="43.4957133" lon="10.7829683"><ele>119.2</ele><time>2026-04-04T10:30:01.313Z</time></trkpt><trkpt lat="43.4957917" lon="10.782975"><ele>118.0</ele><time>2026-04-04T10:30:02.313Z</time></trkpt><trkpt lat="43.4958717" lon="10.7830033"><ele>118.0</ele><time>2026-04-04T10:30:03.314Z</time></trkpt><trkpt lat="43.4959633" lon="10.7830317"><ele>118.00000000000001</ele><time>2026-04-04T10:30:04.314Z</time></trkpt><trkpt lat="43.4960617" lon="10.7830617"><ele>118.00000000000001</ele><time>2026-04-04T10:30:05.313Z</time></trkpt><trkpt lat="43.49616" lon="10.7830767"><ele>118.0</ele><time>2026-04-04T10:30:06.313Z</time></trkpt><trkpt lat="43.4962617" lon="10.7830933"><ele>118.0</ele><time>2026-04-04T10:30:07.313Z</time></trkpt><trkpt lat="43.4963633" lon="10.7830867"><ele>119.0</ele><time>2026-04-04T10:30:08.313Z</time></trkpt><trkpt lat="43.496465" lon="10.78306"><ele>120.0</ele><time>2026-04-04T10:30:09.313Z</time></trkpt><trkpt lat="43.496575" lon="10.78302"><ele>121.0</ele><time>2026-04-04T10:30:10.314Z</time></trkpt><trkpt lat="43.4966883" lon="10.7829917"><ele>122.0</ele><time>2026-04-04T10:30:11.313Z</time></trkpt><trkpt lat="43.496805" lon="10.7829617"><ele>122.0</ele><time>2026-04-04T10:30:12.313Z</time></trkpt><trkpt lat="43.49692" lon="10.7829233"><ele>122.0</ele><time>2026-04-04T10:30:13.313Z</time></trkpt><trkpt lat="43.4970317" lon="10.7828867"><ele>122.0</ele><time>2026-04-04T10:30:14.313Z</time></trkpt><trkpt lat="43.4971383" lon="10.7828183"><ele>122.0</ele><time>2026-04-04T10:30:15.313Z</time></trkpt><trkpt lat="43.4972283" lon="10.782755"><ele>122.8</ele><time>2026-04-04T10:30:16.313Z</time></trkpt><trkpt lat="43.4973133" lon="10.7826783"><ele>123.6</ele><time>2026-04-04T10:30:17.313Z</time></trkpt><trkpt lat="43.4973867" lon="10.782605"><ele>124.39999999999999</ele><time>2026-04-04T10:30:18.314Z</time></trkpt><trkpt lat="43.4974583" lon="10.7825383"><ele>125.19999999999999</ele><time>2026-04-04T10:30:19.313Z</time></trkpt><trkpt lat="43.49753" lon="10.7824383"><ele>126.0</ele><time>2026-04-04T10:30:20.313Z</time></trkpt><trkpt lat="43.4975967" lon="10.7823267"><ele>126.0</ele><time>2026-04-04T10:30:21.313Z</time></trkpt><trkpt lat="43.4976517" lon="10.7822267"><ele>126.0</ele><time>2026-04-04T10:30:22.313Z</time></trkpt><trkpt lat="43.4976817" lon="10.78213"><ele>126.0</ele><time>2026-04-04T10:30:23.313Z</time></trkpt><trkpt lat="43.4977017" lon="10.7820183"><ele>126.0</ele><time>2026-04-04T10:30:24.314Z</time></trkpt><trkpt lat="43.4977083" lon="10.7818917"><ele>126.0</ele><time>2026-04-04T10:30:25.313Z</time></trkpt><trkpt lat="43.497715" lon="10.781755"><ele>126.0</ele><time>2026-04-04T10:30:26.314Z</time></trkpt><trkpt lat="43.49772" lon="10.781625"><ele>126.8</ele><time>2026-04-04T10:30:27.313Z</time></trkpt><trkpt lat="43.4977283" lon="10.7814883"><ele>127.6</ele><time>2026-04-04T10:30:28.313Z</time></trkpt><trkpt lat="43.4977333" lon="10.7813383"><ele>128.4</ele><time>2026-04-04T10:30:29.313Z</time></trkpt><trkpt lat="43.4977383" lon="10.7811817"><ele>129.2</ele><time>2026-04-04T10:30:30.313Z</time></trkpt><trkpt lat="43.4977467" lon="10.7810167"><ele>130.0</ele><time>2026-04-04T10:30:31.314Z</time></trkpt><trkpt lat="43.497755" lon="10.7808433"><ele>130.0</ele><time>2026-04-04T10:30:32.313Z</time></trkpt><trkpt lat="43.49776" lon="10.7806617"><ele>130.0</ele><time>2026-04-04T10:30:33.313Z</time></trkpt><trkpt lat="43.497765" lon="10.7804783"><ele>130.0</ele><time>2026-04-04T10:30:34.313Z</time></trkpt><trkpt lat="43.4977733" lon="10.7802867"><ele>130.0</ele><time>2026-04-04T10:30:35.314Z</time></trkpt><trkpt lat="43.49778" lon="10.7800967"><ele>129.5</ele><time>2026-04-04T10:30:36.313Z</time></trkpt><trkpt lat="43.4977883" lon="10.7799067"><ele>129.0</ele><time>2026-04-04T10:30:37.313Z</time></trkpt><trkpt lat="43.497795" lon="10.779725"><ele>128.5</ele><time>2026-04-04T10:30:38.313Z</time></trkpt><trkpt lat="43.4978033" lon="10.7795367"><ele>128.0</ele><time>2026-04-04T10:30:39.313Z</time></trkpt><trkpt lat="43.497815" lon="10.7793433"><ele>128.0</ele><time>2026-04-04T10:30:40.312Z</time></trkpt><trkpt lat="43.4978267" lon="10.7791467"><ele>128.0</ele><time>2026-04-04T10:30:41.312Z</time></trkpt><trkpt lat="43.4978317" lon="10.7789833"><ele>128.0</ele><time>2026-04-04T10:30:42.312Z</time></trkpt><trkpt lat="43.497845" lon="10.7788333"><ele>128.0</ele><time>2026-04-04T10:30:43.312Z</time></trkpt><trkpt lat="43.4978617" lon="10.778705"><ele>128.0</ele><time>2026-04-04T10:30:44.313Z</time></trkpt><trkpt lat="43.4978783" lon="10.778565"><ele>128.0</ele><time>2026-04-04T10:30:45.312Z</time></trkpt><trkpt lat="43.4978967" lon="10.7784333"><ele>128.0</ele><time>2026-04-04T10:30:46.312Z</time></trkpt><trkpt lat="43.4979167" lon="10.77829"><ele>128.0</ele><time>2026-04-04T10:30:47.312Z</time></trkpt><trkpt lat="43.4979267" lon="10.778155"><ele>128.0</ele><time>2026-04-04T10:30:48.312Z</time></trkpt><trkpt lat="43.49793" lon="10.778015"><ele>128.20000000000002</ele><time>2026-04-04T10:30:49.312Z</time></trkpt><trkpt lat="43.4979267" lon="10.7778817"><ele>128.4</ele><time>2026-04-04T10:30:50.312Z</time></trkpt><trkpt lat="43.4979217" lon="10.77776"><ele>128.60000000000002</ele><time>2026-04-04T10:30:51.312Z</time></trkpt><trkpt lat="43.4979217" lon="10.7776583"><ele>128.8</ele><time>2026-04-04T10:30:52.312Z</time></trkpt><trkpt lat="43.497915" lon="10.7775067"><ele>129.0</ele><time>2026-04-04T10:30:54.312Z</time></trkpt><trkpt lat="43.497895" lon="10.777385"><ele>130.66666666666666</ele><time>2026-04-04T10:30:56.312Z</time></trkpt><trkpt lat="43.4978833" lon="10.7772983"><ele>132.33333333333334</ele><time>2026-04-04T10:30:58.313Z</time></trkpt><trkpt lat="43.4978033" lon="10.7772617"><ele>134.0</ele><time>2026-04-04T10:31:01.313Z</time></trkpt><trkpt lat="43.4977" lon="10.7772933"><ele>135.66666666666669</ele><time>2026-04-04T10:31:03.312Z</time></trkpt><trkpt lat="43.4976367" lon="10.7773117"><ele>137.33333333333334</ele><time>2026-04-04T10:31:04.312Z</time></trkpt><trkpt lat="43.4975583" lon="10.77733"><ele>139.0</ele><time>2026-04-04T10:31:05.312Z</time></trkpt><trkpt lat="43.4974767" lon="10.7773417"><ele>139.0</ele><time>2026-04-04T10:31:06.312Z</time></trkpt><trkpt lat="43.4973917" lon="10.7773517"><ele>139.0</ele><time>2026-04-04T10:31:07.312Z</time></trkpt><trkpt lat="43.4973" lon="10.7773617"><ele>139.0</ele><time>2026-04-04T10:31:08.312Z</time></trkpt><trkpt lat="43.49721" lon="10.77737"><ele>139.0</ele><time>2026-04-04T10:31:09.313Z</time></trkpt><trkpt lat="43.4971283" lon="10.7773683"><ele>139.0</ele><time>2026-04-04T10:31:10.312Z</time></trkpt><trkpt lat="43.497055" lon="10.7773617"><ele>139.0</ele><time>2026-04-04T10:31:11.312Z</time></trkpt><trkpt lat="43.4969717" lon="10.77735"><ele>138.5</ele><time>2026-04-04T10:31:12.312Z</time></trkpt><trkpt lat="43.496905" lon="10.7773217"><ele>138.0</ele><time>2026-04-04T10:31:13.312Z</time></trkpt><trkpt lat="43.4967983" lon="10.7772417"><ele>137.5</ele><time>2026-04-04T10:31:15.313Z</time></trkpt><trkpt lat="43.4967233" lon="10.7771617"><ele>137.0</ele><time>2026-04-04T10:31:17.312Z</time></trkpt><trkpt lat="43.4956232" lon="10.7760774"><ele>139.0</ele><time>2026-04-04T13:29:46.008Z</time></trkpt><trkpt lat="43.4972683" lon="10.7772617"><ele>139.0</ele><time>2026-04-04T13:29:59.771Z</time></trkpt></trkseg></trk></gpx>